<?xml version='1.0' encoding='UTF-8'?><gpx version="1.1" creator="JPX - https://github.com/jenetics/jpx" xmlns="http://www.topografix.com/GPX/1/1"><trk><trkseg><trkpt lat="45.0216734" lon="7.8093625"><ele>310.5</ele><time>2026-04-05T08:15:52.257Z</time></trkpt><trkpt lat="45.0215804" lon="7.809416"><ele>310.0</ele><time>2026-04-05T08:17:34.257Z</time></trkpt><trkpt lat="45.0215329" lon="7.8092498"><ele>309.5</ele><time>2026-04-05T08:17:41.257Z</time></trkpt><trkpt lat="45.0215588" lon="7.8091399"><ele>309.0</ele><time>2026-04-05T08:20:30.257Z</time></trkpt><trkpt lat="45.0216705" lon="7.8089342"><ele>309.0</ele><time>2026-04-05T08:20:33.257Z</time></trkpt><trkpt lat="45.0217256" lon="7.8088538"><ele>309.0</ele><time>2026-04-05T08:20:34.257Z</time></trkpt><trkpt lat="45.0217807" lon="7.8087734"><ele>309.0</ele><time>2026-04-05T08:20:35.257Z</time></trkpt><trkpt lat="45.0218368" lon="7.80869"><ele>309.0</ele><time>2026-04-05T08:20:36.257Z</time></trkpt><trkpt lat="45.0218816" lon="7.8086203"><ele>309.0</ele><time>2026-04-05T08:20:37.257Z</time></trkpt><trkpt lat="45.0219414" lon="7.8085294"><ele>309.0</ele><time>2026-04-05T08:20:39.257Z</time></trkpt><trkpt lat="45.0220089" lon="7.8085521"><ele>309.0</ele><time>2026-04-05T08:20:42.257Z</time></trkpt><trkpt lat="45.0220958" lon="7.8086716"><ele>309.0</ele><time>2026-04-05T08:20:44.257Z</time></trkpt><trkpt lat="45.0221546" lon="7.8087538"><ele>309.0</ele><time>2026-04-05T08:20:45.257Z</time></trkpt><trkpt lat="45.0222248" lon="7.8088351"><ele>309.0</ele><time>2026-04-05T08:20:46.257Z</time></trkpt><trkpt lat="45.0223003" lon="7.8089304"><ele>309.0</ele><time>2026-04-05T08:20:47.257Z</time></trkpt><trkpt lat="45.0223738" lon="7.8090418"><ele>309.0</ele><time>2026-04-05T08:20:48.257Z</time></trkpt><trkpt lat="45.0224346" lon="7.8091644"><ele>309.0</ele><time>2026-04-05T08:20:49.257Z</time></trkpt><trkpt lat="45.0224861" lon="7.8092919"><ele>309.0</ele><time>2026-04-05T08:20:50.257Z</time></trkpt><trkpt lat="45.0225309" lon="7.8094134"><ele>309.0</ele><time>2026-04-05T08:20:51.257Z</time></trkpt><trkpt lat="45.0226306" lon="7.8096247"><ele>310.59999999999997</ele><time>2026-04-05T08:20:53.257Z</time></trkpt><trkpt lat="45.0226802" lon="7.8097412"><ele>312.2</ele><time>2026-04-05T08:20:54.257Z</time></trkpt><trkpt lat="45.0227334" lon="7.8098704"><ele>313.79999999999995</ele><time>2026-04-05T08:20:55.257Z</time></trkpt><trkpt lat="45.0227885" lon="7.8099962"><ele>315.4</ele><time>2026-04-05T08:20:56.257Z</time></trkpt><trkpt lat="45.0228437" lon="7.8101246"><ele>317.0</ele><time>2026-04-05T08:20:57.257Z</time></trkpt><trkpt lat="45.0228902" lon="7.8102613"><ele>317.5</ele><time>2026-04-05T08:20:58.257Z</time></trkpt><trkpt lat="45.0229418" lon="7.8103835"><ele>318.0</ele><time>2026-04-05T08:20:59.257Z</time></trkpt><trkpt lat="45.0229979" lon="7.8104772"><ele>318.5</ele><time>2026-04-05T08:21:00.257Z</time></trkpt><trkpt lat="45.023065" lon="7.8105428"><ele>319.0</ele><time>2026-04-05T08:21:01.257Z</time></trkpt><trkpt lat="45.0231422" lon="7.8105599"><ele>319.5</ele><time>2026-04-05T08:21:02.257Z</time></trkpt><trkpt lat="45.0232348" lon="7.8105396"><ele>320.0</ele><time>2026-04-05T08:21:03.257Z</time></trkpt><trkpt lat="45.0233344" lon="7.8104848"><ele>321.5</ele><time>2026-04-05T08:21:04.257Z</time></trkpt><trkpt lat="45.023445" lon="7.8104061"><ele>323.0</ele><time>2026-04-05T08:21:05.257Z</time></trkpt><trkpt lat="45.0235676" lon="7.8103372"><ele>324.5</ele><time>2026-04-05T08:21:06.257Z</time></trkpt><trkpt lat="45.0236945" lon="7.8102875"><ele>326.0</ele><time>2026-04-05T08:21:07.257Z</time></trkpt><trkpt lat="45.0238302" lon="7.8102474"><ele>326.0</ele><time>2026-04-05T08:21:08.257Z</time></trkpt><trkpt lat="45.0239542" lon="7.8102235"><ele>326.0</ele><time>2026-04-05T08:21:09.257Z</time></trkpt><trkpt lat="45.0240792" lon="7.8101914"><ele>326.0</ele><time>2026-04-05T08:21:10.257Z</time></trkpt><trkpt lat="45.0241923" lon="7.8101601"><ele>326.0</ele><time>2026-04-05T08:21:11.257Z</time></trkpt><trkpt lat="45.024319" lon="7.8101104"><ele>324.6666666666667</ele><time>2026-04-05T08:21:12.257Z</time></trkpt><trkpt lat="45.0245869" lon="7.8099927"><ele>323.3333333333333</ele><time>2026-04-05T08:21:14.257Z</time></trkpt><trkpt lat="45.0247187" lon="7.809927"><ele>322.0</ele><time>2026-04-05T08:21:15.257Z</time></trkpt><trkpt lat="45.0248477" lon="7.8098566"><ele>322.0</ele><time>2026-04-05T08:21:16.257Z</time></trkpt><trkpt lat="45.0249657" lon="7.8097956"><ele>322.0</ele><time>2026-04-05T08:21:17.257Z</time></trkpt><trkpt lat="45.0250841" lon="7.8097353"><ele>322.0</ele><time>2026-04-05T08:21:18.257Z</time></trkpt><trkpt lat="45.0251973" lon="7.8096842"><ele>322.0</ele><time>2026-04-05T08:21:19.257Z</time></trkpt><trkpt lat="45.025321" lon="7.8096327"><ele>322.75</ele><time>2026-04-05T08:21:20.257Z</time></trkpt><trkpt lat="45.025444" lon="7.809589"><ele>323.5</ele><time>2026-04-05T08:21:21.257Z</time></trkpt><trkpt lat="45.0255774" lon="7.8095415"><ele>324.25</ele><time>2026-04-05T08:21:22.257Z</time></trkpt><trkpt lat="45.0256983" lon="7.8094971"><ele>325.0</ele><time>2026-04-05T08:21:23.257Z</time></trkpt><trkpt lat="45.0258241" lon="7.8094464"><ele>325.6</ele><time>2026-04-05T08:21:24.257Z</time></trkpt><trkpt lat="45.0259366" lon="7.8094108"><ele>326.2</ele><time>2026-04-05T08:21:25.257Z</time></trkpt><trkpt lat="45.0260456" lon="7.8093806"><ele>326.79999999999995</ele><time>2026-04-05T08:21:26.257Z</time></trkpt><trkpt lat="45.0261503" lon="7.8093604"><ele>327.4</ele><time>2026-04-05T08:21:27.257Z</time></trkpt><trkpt lat="45.0262601" lon="7.8093426"><ele>328.0</ele><time>2026-04-05T08:21:28.257Z</time></trkpt><trkpt lat="45.0263771" lon="7.8093329"><ele>328.0</ele><time>2026-04-05T08:21:29.257Z</time></trkpt><trkpt lat="45.0264959" lon="7.8093368"><ele>328.0</ele><time>2026-04-05T08:21:30.257Z</time></trkpt><trkpt lat="45.026617" lon="7.8093445"><ele>328.0</ele><time>2026-04-05T08:21:31.257Z</time></trkpt><trkpt lat="45.0267455" lon="7.8093583"><ele>328.0</ele><time>2026-04-05T08:21:32.257Z</time></trkpt><trkpt lat="45.026879" lon="7.809364"><ele>329.3333333333333</ele><time>2026-04-05T08:21:33.257Z</time></trkpt><trkpt lat="45.027159" lon="7.8094048"><ele>330.6666666666667</ele><time>2026-04-05T08:21:35.257Z</time></trkpt><trkpt lat="45.0273135" lon="7.8094347"><ele>332.0</ele><time>2026-04-05T08:21:36.256Z</time></trkpt><trkpt lat="45.0274646" lon="7.8094653"><ele>332.5</ele><time>2026-04-05T08:21:37.257Z</time></trkpt><trkpt lat="45.0276176" lon="7.8094909"><ele>333.0</ele><time>2026-04-05T08:21:38.257Z</time></trkpt><trkpt lat="45.027762" lon="7.8095133"><ele>333.5</ele><time>2026-04-05T08:21:39.257Z</time></trkpt><trkpt lat="45.0278975" lon="7.8095395"><ele>334.0</ele><time>2026-04-05T08:21:40.257Z</time></trkpt><trkpt lat="45.0280215" lon="7.8095724"><ele>334.0</ele><time>2026-04-05T08:21:41.257Z</time></trkpt><trkpt lat="45.0281386" lon="7.8096133"><ele>334.0</ele><time>2026-04-05T08:21:42.257Z</time></trkpt><trkpt lat="45.0282513" lon="7.8096939"><ele>334.0</ele><time>2026-04-05T08:21:43.257Z</time></trkpt><trkpt lat="45.028344" lon="7.8097881"><ele>334.0</ele><time>2026-04-05T08:21:44.257Z</time></trkpt><trkpt lat="45.0284359" lon="7.8098822"><ele>334.5</ele><time>2026-04-05T08:21:45.257Z</time></trkpt><trkpt lat="45.0285355" lon="7.8099496"><ele>335.0</ele><time>2026-04-05T08:21:46.257Z</time></trkpt><trkpt lat="45.0286415" lon="7.809999"><ele>335.5</ele><time>2026-04-05T08:21:47.257Z</time></trkpt><trkpt lat="45.0287621" lon="7.8100345"><ele>336.0</ele><time>2026-04-05T08:21:48.257Z</time></trkpt><trkpt lat="45.0288811" lon="7.8100579"><ele>336.0</ele><time>2026-04-05T08:21:49.257Z</time></trkpt><trkpt lat="45.0290027" lon="7.8100602"><ele>336.0</ele><time>2026-04-05T08:21:50.257Z</time></trkpt><trkpt lat="45.0291342" lon="7.8100595"><ele>336.0</ele><time>2026-04-05T08:21:51.257Z</time></trkpt><trkpt lat="45.0292695" lon="7.8100669"><ele>336.0</ele><time>2026-04-05T08:21:52.257Z</time></trkpt><trkpt lat="45.0294065" lon="7.8100569"><ele>335.0</ele><time>2026-04-05T08:21:53.257Z</time></trkpt><trkpt lat="45.0295379" lon="7.8100296"><ele>334.0</ele><time>2026-04-05T08:21:54.257Z</time></trkpt><trkpt lat="45.0297844" lon="7.8099365"><ele>333.0</ele><time>2026-04-05T08:21:56.257Z</time></trkpt><trkpt lat="45.0298903" lon="7.8098744"><ele>334.3333333333333</ele><time>2026-04-05T08:21:57.257Z</time></trkpt><trkpt lat="45.0299832" lon="7.8097989"><ele>335.6666666666667</ele><time>2026-04-05T08:21:58.257Z</time></trkpt><trkpt lat="45.0300546" lon="7.8097205"><ele>337.0</ele><time>2026-04-05T08:21:59.257Z</time></trkpt><trkpt lat="45.0301153" lon="7.8096483"><ele>338.33333333333337</ele><time>2026-04-05T08:22:00.257Z</time></trkpt><trkpt lat="45.030171" lon="7.8095918"><ele>339.6666666666667</ele><time>2026-04-05T08:22:01.257Z</time></trkpt><trkpt lat="45.0302355" lon="7.8095513"><ele>341.0</ele><time>2026-04-05T08:22:02.257Z</time></trkpt><trkpt lat="45.0303035" lon="7.8095279"><ele>341.0</ele><time>2026-04-05T08:22:03.257Z</time></trkpt><trkpt lat="45.0303881" lon="7.8095259"><ele>341.0</ele><time>2026-04-05T08:22:04.257Z</time></trkpt><trkpt lat="45.0304856" lon="7.8095126"><ele>341.0</ele><time>2026-04-05T08:22:05.257Z</time></trkpt><trkpt lat="45.0306036" lon="7.8094778"><ele>341.0</ele><time>2026-04-05T08:22:06.257Z</time></trkpt><trkpt lat="45.0307356" lon="7.809425"><ele>341.0</ele><time>2026-04-05T08:22:07.257Z</time></trkpt><trkpt lat="45.0308674" lon="7.8093705"><ele>340.6666666666667</ele><time>2026-04-05T08:22:08.257Z</time></trkpt><trkpt lat="45.0310046" lon="7.8093109"><ele>340.3333333333333</ele><time>2026-04-05T08:22:09.257Z</time></trkpt><trkpt lat="45.0311501" lon="7.8092495"><ele>340.0</ele><time>2026-04-05T08:22:10.257Z</time></trkpt><trkpt lat="45.0313004" lon="7.8091948"><ele>340.0</ele><time>2026-04-05T08:22:11.257Z</time></trkpt><trkpt lat="45.0314557" lon="7.809148"><ele>340.0</ele><time>2026-04-05T08:22:12.257Z</time></trkpt><trkpt lat="45.0316164" lon="7.8091089"><ele>340.0</ele><time>2026-04-05T08:22:13.257Z</time></trkpt><trkpt lat="45.0317848" lon="7.8090814"><ele>341.0</ele><time>2026-04-05T08:22:14.257Z</time></trkpt><trkpt lat="45.0319569" lon="7.8090634"><ele>342.0</ele><time>2026-04-05T08:22:15.256Z</time></trkpt><trkpt lat="45.0323399" lon="7.8090426"><ele>343.0</ele><time>2026-04-05T08:22:17.257Z</time></trkpt><trkpt lat="45.0325243" lon="7.8090343"><ele>344.0</ele><time>2026-04-05T08:22:18.257Z</time></trkpt><trkpt lat="45.0326993" lon="7.8090227"><ele>345.0</ele><time>2026-04-05T08:22:19.257Z</time></trkpt><trkpt lat="45.0328744" lon="7.8090105"><ele>345.0</ele><time>2026-04-05T08:22:20.257Z</time></trkpt><trkpt lat="45.0330499" lon="7.8089786"><ele>345.0</ele><time>2026-04-05T08:22:21.257Z</time></trkpt><trkpt lat="45.0332221" lon="7.8089222"><ele>345.0</ele><time>2026-04-05T08:22:22.257Z</time></trkpt><trkpt lat="45.0333955" lon="7.8088512"><ele>345.75</ele><time>2026-04-05T08:22:23.257Z</time></trkpt><trkpt lat="45.033553" lon="7.8087846"><ele>346.5</ele><time>2026-04-05T08:22:24.257Z</time></trkpt><trkpt lat="45.0336972" lon="7.8087268"><ele>347.25</ele><time>2026-04-05T08:22:25.257Z</time></trkpt><trkpt lat="45.0338237" lon="7.8086821"><ele>348.0</ele><time>2026-04-05T08:22:26.257Z</time></trkpt><trkpt lat="45.0339232" lon="7.8086534"><ele>348.0</ele><time>2026-04-05T08:22:27.257Z</time></trkpt><trkpt lat="45.0340098" lon="7.8086502"><ele>348.0</ele><time>2026-04-05T08:22:28.257Z</time></trkpt><trkpt lat="45.0340757" lon="7.808681"><ele>348.0</ele><time>2026-04-05T08:22:29.257Z</time></trkpt><trkpt lat="45.0341357" lon="7.808868"><ele>348.0</ele><time>2026-04-05T08:22:31.257Z</time></trkpt><trkpt lat="45.0341539" lon="7.8090068"><ele>348.0</ele><time>2026-04-05T08:22:32.257Z</time></trkpt><trkpt lat="45.0341776" lon="7.8091639"><ele>351.25</ele><time>2026-04-05T08:22:33.257Z</time></trkpt><trkpt lat="45.0342073" lon="7.8093287"><ele>354.5</ele><time>2026-04-05T08:22:34.257Z</time></trkpt><trkpt lat="45.0342426" lon="7.8095001"><ele>357.75</ele><time>2026-04-05T08:22:35.257Z</time></trkpt><trkpt lat="45.0342786" lon="7.809674"><ele>361.0</ele><time>2026-04-05T08:22:36.257Z</time></trkpt><trkpt lat="45.0343553" lon="7.8100189"><ele>362.25</ele><time>2026-04-05T08:22:38.256Z</time></trkpt><trkpt lat="45.0343955" lon="7.8101932"><ele>363.5</ele><time>2026-04-05T08:22:39.257Z</time></trkpt><trkpt lat="45.0344329" lon="7.8103745"><ele>364.75</ele><time>2026-04-05T08:22:40.257Z</time></trkpt><trkpt lat="45.0344698" lon="7.8105491"><ele>366.0</ele><time>2026-04-05T08:22:41.257Z</time></trkpt><trkpt lat="45.034504" lon="7.8107163"><ele>366.0</ele><time>2026-04-05T08:22:42.257Z</time></trkpt><trkpt lat="45.0345368" lon="7.8108668"><ele>366.0</ele><time>2026-04-05T08:22:43.257Z</time></trkpt><trkpt lat="45.0345651" lon="7.8110065"><ele>366.0</ele><time>2026-04-05T08:22:44.257Z</time></trkpt><trkpt lat="45.034592" lon="7.8111264"><ele>366.0</ele><time>2026-04-05T08:22:45.257Z</time></trkpt><trkpt lat="45.0346165" lon="7.8112294"><ele>366.0</ele><time>2026-04-05T08:22:46.257Z</time></trkpt><trkpt lat="45.0346424" lon="7.8113269"><ele>366.5</ele><time>2026-04-05T08:22:47.257Z</time></trkpt><trkpt lat="45.0346765" lon="7.8114638"><ele>367.0</ele><time>2026-04-05T08:22:49.257Z</time></trkpt><trkpt lat="45.0346621" lon="7.8115528"><ele>367.5</ele><time>2026-04-05T08:22:51.257Z</time></trkpt><trkpt lat="45.034576" lon="7.8115828"><ele>368.0</ele><time>2026-04-05T08:22:53.256Z</time></trkpt><trkpt lat="45.0345089" lon="7.8115614"><ele>368.5</ele><time>2026-04-05T08:22:54.257Z</time></trkpt><trkpt lat="45.0344285" lon="7.8115278"><ele>369.0</ele><time>2026-04-05T08:22:55.257Z</time></trkpt><trkpt lat="45.0343397" lon="7.811494"><ele>369.0</ele><time>2026-04-05T08:22:56.257Z</time></trkpt><trkpt lat="45.0342508" lon="7.8114837"><ele>369.0</ele><time>2026-04-05T08:22:57.257Z</time></trkpt><trkpt lat="45.0340703" lon="7.811509"><ele>369.0</ele><time>2026-04-05T08:22:59.257Z</time></trkpt><trkpt lat="45.033984" lon="7.811539"><ele>369.0</ele><time>2026-04-05T08:23:00.257Z</time></trkpt><trkpt lat="45.0338952" lon="7.8115735"><ele>369.1666666666667</ele><time>2026-04-05T08:23:01.257Z</time></trkpt><trkpt lat="45.033813" lon="7.8116153"><ele>369.3333333333333</ele><time>2026-04-05T08:23:02.257Z</time></trkpt><trkpt lat="45.0337301" lon="7.8116549"><ele>369.5</ele><time>2026-04-05T08:23:03.257Z</time></trkpt><trkpt lat="45.0336509" lon="7.811687"><ele>369.66666666666663</ele><time>2026-04-05T08:23:04.257Z</time></trkpt><trkpt lat="45.0335769" lon="7.8117122"><ele>369.8333333333333</ele><time>2026-04-05T08:23:05.257Z</time></trkpt><trkpt lat="45.03351" lon="7.8117497"><ele>370.0</ele><time>2026-04-05T08:23:06.257Z</time></trkpt><trkpt lat="45.0334527" lon="7.8117993"><ele>369.8333333333333</ele><time>2026-04-05T08:23:07.257Z</time></trkpt><trkpt lat="45.0334044" lon="7.8118646"><ele>369.66666666666663</ele><time>2026-04-05T08:23:08.257Z</time></trkpt><trkpt lat="45.0333589" lon="7.8119493"><ele>369.5</ele><time>2026-04-05T08:23:09.257Z</time></trkpt><trkpt lat="45.0333132" lon="7.8120396"><ele>369.3333333333333</ele><time>2026-04-05T08:23:10.257Z</time></trkpt><trkpt lat="45.0332696" lon="7.8121333"><ele>369.1666666666667</ele><time>2026-04-05T08:23:11.257Z</time></trkpt><trkpt lat="45.033229" lon="7.8122258"><ele>369.0</ele><time>2026-04-05T08:23:12.257Z</time></trkpt><trkpt lat="45.0331877" lon="7.8123182"><ele>369.0</ele><time>2026-04-05T08:23:13.257Z</time></trkpt><trkpt lat="45.033137" lon="7.8124041"><ele>369.0</ele><time>2026-04-05T08:23:14.257Z</time></trkpt><trkpt lat="45.0330813" lon="7.8124963"><ele>369.0</ele><time>2026-04-05T08:23:15.257Z</time></trkpt><trkpt lat="45.0330291" lon="7.8125931"><ele>369.0</ele><time>2026-04-05T08:23:16.257Z</time></trkpt><trkpt lat="45.0329773" lon="7.8126801"><ele>369.0</ele><time>2026-04-05T08:23:17.257Z</time></trkpt><trkpt lat="45.032928" lon="7.8127555"><ele>369.0</ele><time>2026-04-05T08:23:18.257Z</time></trkpt><trkpt lat="45.0328296" lon="7.8128957"><ele>368.7142857142857</ele><time>2026-04-05T08:23:20.257Z</time></trkpt><trkpt lat="45.0327749" lon="7.8129665"><ele>368.42857142857144</ele><time>2026-04-05T08:23:21.257Z</time></trkpt><trkpt lat="45.032717" lon="7.8130355"><ele>368.1428571428571</ele><time>2026-04-05T08:23:22.257Z</time></trkpt><trkpt lat="45.0326621" lon="7.8131001"><ele>367.8571428571429</ele><time>2026-04-05T08:23:23.257Z</time></trkpt><trkpt lat="45.0326035" lon="7.813163"><ele>367.5714285714286</ele><time>2026-04-05T08:23:24.257Z</time></trkpt><trkpt lat="45.0325422" lon="7.8132127"><ele>367.2857142857143</ele><time>2026-04-05T08:23:25.257Z</time></trkpt><trkpt lat="45.0324785" lon="7.8132617"><ele>367.0</ele><time>2026-04-05T08:23:26.257Z</time></trkpt><trkpt lat="45.0324157" lon="7.8132984"><ele>366.4285714285714</ele><time>2026-04-05T08:23:27.257Z</time></trkpt><trkpt lat="45.0323492" lon="7.8133222"><ele>365.8571428571429</ele><time>2026-04-05T08:23:28.257Z</time></trkpt><trkpt lat="45.0322839" lon="7.8133437"><ele>365.2857142857143</ele><time>2026-04-05T08:23:29.257Z</time></trkpt><trkpt lat="45.0322185" lon="7.8133517"><ele>364.71428571428567</ele><time>2026-04-05T08:23:30.257Z</time></trkpt><trkpt lat="45.0321497" lon="7.8133616"><ele>364.1428571428571</ele><time>2026-04-05T08:23:31.257Z</time></trkpt><trkpt lat="45.0320814" lon="7.8133693"><ele>363.57142857142856</ele><time>2026-04-05T08:23:32.257Z</time></trkpt><trkpt lat="45.032017" lon="7.8133738"><ele>363.0</ele><time>2026-04-05T08:23:33.257Z</time></trkpt><trkpt lat="45.031949" lon="7.8133822"><ele>363.0</ele><time>2026-04-05T08:23:34.257Z</time></trkpt><trkpt lat="45.0318398" lon="7.8134203"><ele>363.0</ele><time>2026-04-05T08:23:36.258Z</time></trkpt><trkpt lat="45.0317501" lon="7.8134723"><ele>363.0</ele><time>2026-04-05T08:23:38.258Z</time></trkpt><trkpt lat="45.0316453" lon="7.8135328"><ele>363.0</ele><time>2026-04-05T08:23:40.258Z</time></trkpt><trkpt lat="45.0314488" lon="7.8136639"><ele>361.8333333333333</ele><time>2026-04-05T08:23:44.258Z</time></trkpt><trkpt lat="45.0313608" lon="7.8137258"><ele>360.6666666666667</ele><time>2026-04-05T08:23:46.258Z</time></trkpt><trkpt lat="45.0312866" lon="7.8137804"><ele>359.5</ele><time>2026-04-05T08:23:48.258Z</time></trkpt><trkpt lat="45.031218" lon="7.8138175"><ele>358.33333333333337</ele><time>2026-04-05T08:23:50.258Z</time></trkpt><trkpt lat="45.0311415" lon="7.8138599"><ele>357.1666666666667</ele><time>2026-04-05T08:23:53.258Z</time></trkpt><trkpt lat="45.0310638" lon="7.8139148"><ele>356.0</ele><time>2026-04-05T08:23:56.258Z</time></trkpt><trkpt lat="45.0310014" lon="7.8139565"><ele>356.0</ele><time>2026-04-05T08:23:58.258Z</time></trkpt><trkpt lat="45.0309319" lon="7.8140018"><ele>356.0</ele><time>2026-04-05T08:24:00.257Z</time></trkpt><trkpt lat="45.0308575" lon="7.8140444"><ele>356.0</ele><time>2026-04-05T08:24:02.258Z</time></trkpt><trkpt lat="45.0306719" lon="7.8141371"><ele>356.0</ele><time>2026-04-05T08:24:06.258Z</time></trkpt><trkpt lat="45.0306079" lon="7.8141697"><ele>356.0</ele><time>2026-04-05T08:24:07.258Z</time></trkpt><trkpt lat="45.0305387" lon="7.8142031"><ele>356.0</ele><time>2026-04-05T08:24:08.258Z</time></trkpt><trkpt lat="45.0304646" lon="7.8142435"><ele>356.0</ele><time>2026-04-05T08:24:09.258Z</time></trkpt><trkpt lat="45.0303871" lon="7.8142706"><ele>356.0</ele><time>2026-04-05T08:24:10.258Z</time></trkpt><trkpt lat="45.0303141" lon="7.814292"><ele>356.0</ele><time>2026-04-05T08:24:11.258Z</time></trkpt><trkpt lat="45.0302409" lon="7.8143236"><ele>356.0</ele><time>2026-04-05T08:24:12.258Z</time></trkpt><trkpt lat="45.0301691" lon="7.8143558"><ele>356.0</ele><time>2026-04-05T08:24:13.258Z</time></trkpt><trkpt lat="45.0301025" lon="7.8143919"><ele>355.2857142857143</ele><time>2026-04-05T08:24:14.258Z</time></trkpt><trkpt lat="45.0300387" lon="7.8144312"><ele>354.57142857142856</ele><time>2026-04-05T08:24:15.258Z</time></trkpt><trkpt lat="45.0299774" lon="7.8144757"><ele>353.8571428571429</ele><time>2026-04-05T08:24:16.258Z</time></trkpt><trkpt lat="45.0299151" lon="7.8145115"><ele>353.1428571428571</ele><time>2026-04-05T08:24:17.258Z</time></trkpt><trkpt lat="45.0298449" lon="7.8145439"><ele>352.42857142857144</ele><time>2026-04-05T08:24:18.258Z</time></trkpt><trkpt lat="45.0297698" lon="7.8145687"><ele>351.7142857142857</ele><time>2026-04-05T08:24:19.258Z</time></trkpt><trkpt lat="45.0296951" lon="7.814594"><ele>351.0</ele><time>2026-04-05T08:24:20.258Z</time></trkpt><trkpt lat="45.0296162" lon="7.8146241"><ele>351.0</ele><time>2026-04-05T08:24:21.258Z</time></trkpt><trkpt lat="45.0295403" lon="7.8146486"><ele>351.0</ele><time>2026-04-05T08:24:22.258Z</time></trkpt><trkpt lat="45.0294698" lon="7.8146746"><ele>351.0</ele><time>2026-04-05T08:24:23.258Z</time></trkpt><trkpt lat="45.0293003" lon="7.8147714"><ele>351.0</ele><time>2026-04-05T08:24:26.258Z</time></trkpt><trkpt lat="45.0291876" lon="7.8148268"><ele>351.8333333333333</ele><time>2026-04-05T08:24:28.258Z</time></trkpt><trkpt lat="45.0290966" lon="7.8148495"><ele>352.6666666666667</ele><time>2026-04-05T08:24:30.258Z</time></trkpt><trkpt lat="45.0290134" lon="7.8148533"><ele>353.5</ele><time>2026-04-05T08:24:32.258Z</time></trkpt><trkpt lat="45.0289249" lon="7.8148425"><ele>354.33333333333337</ele><time>2026-04-05T08:24:34.258Z</time></trkpt><trkpt lat="45.0288428" lon="7.8148201"><ele>355.1666666666667</ele><time>2026-04-05T08:24:36.257Z</time></trkpt><trkpt lat="45.0287723" lon="7.8147947"><ele>356.0</ele><time>2026-04-05T08:24:38.258Z</time></trkpt><trkpt lat="45.0286878" lon="7.8147472"><ele>356.0</ele><time>2026-04-05T08:24:40.258Z</time></trkpt><trkpt lat="45.0285881" lon="7.8146844"><ele>356.0</ele><time>2026-04-05T08:24:42.258Z</time></trkpt><trkpt lat="45.0285196" lon="7.8146555"><ele>356.0</ele><time>2026-04-05T08:24:43.258Z</time></trkpt><trkpt lat="45.0284455" lon="7.8146233"><ele>356.0</ele><time>2026-04-05T08:24:44.258Z</time></trkpt><trkpt lat="45.028256" lon="7.8145936"><ele>356.0</ele><time>2026-04-05T08:24:46.258Z</time></trkpt><trkpt lat="45.0281429" lon="7.8145792"><ele>355.6</ele><time>2026-04-05T08:24:47.258Z</time></trkpt><trkpt lat="45.028029" lon="7.814564"><ele>355.20000000000005</ele><time>2026-04-05T08:24:48.258Z</time></trkpt><trkpt lat="45.0279256" lon="7.8145515"><ele>354.79999999999995</ele><time>2026-04-05T08:24:49.258Z</time></trkpt><trkpt lat="45.0278186" lon="7.8145483"><ele>354.4</ele><time>2026-04-05T08:24:50.258Z</time></trkpt><trkpt lat="45.0277182" lon="7.8145464"><ele>354.0</ele><time>2026-04-05T08:24:51.258Z</time></trkpt><trkpt lat="45.0276196" lon="7.814534"><ele>354.0</ele><time>2026-04-05T08:24:52.258Z</time></trkpt><trkpt lat="45.0275228" lon="7.8145311"><ele>354.0</ele><time>2026-04-05T08:24:53.258Z</time></trkpt><trkpt lat="45.0274171" lon="7.8145318"><ele>354.0</ele><time>2026-04-05T08:24:54.258Z</time></trkpt><trkpt lat="45.0273126" lon="7.814524"><ele>354.0</ele><time>2026-04-05T08:24:55.258Z</time></trkpt><trkpt lat="45.0272133" lon="7.8145229"><ele>354.0</ele><time>2026-04-05T08:24:56.258Z</time></trkpt><trkpt lat="45.027121" lon="7.8145283"><ele>354.3333333333333</ele><time>2026-04-05T08:24:57.258Z</time></trkpt><trkpt lat="45.0270354" lon="7.8145417"><ele>354.6666666666667</ele><time>2026-04-05T08:24:58.258Z</time></trkpt><trkpt lat="45.0269575" lon="7.8145764"><ele>355.0</ele><time>2026-04-05T08:24:59.258Z</time></trkpt><trkpt lat="45.0268803" lon="7.8146296"><ele>355.33333333333337</ele><time>2026-04-05T08:25:00.258Z</time></trkpt><trkpt lat="45.0268074" lon="7.8146936"><ele>355.6666666666667</ele><time>2026-04-05T08:25:01.258Z</time></trkpt><trkpt lat="45.0267442" lon="7.8147529"><ele>356.0</ele><time>2026-04-05T08:25:02.258Z</time></trkpt><trkpt lat="45.0266859" lon="7.8147943"><ele>354.8</ele><time>2026-04-05T08:25:03.258Z</time></trkpt><trkpt lat="45.0265817" lon="7.8148135"><ele>353.6</ele><time>2026-04-05T08:25:05.258Z</time></trkpt><trkpt lat="45.0264185" lon="7.8147104"><ele>352.4</ele><time>2026-04-05T08:25:08.258Z</time></trkpt><trkpt lat="45.0263661" lon="7.8146462"><ele>351.2</ele><time>2026-04-05T08:25:09.258Z</time></trkpt><trkpt lat="45.0263131" lon="7.8145776"><ele>350.0</ele><time>2026-04-05T08:25:10.258Z</time></trkpt><trkpt lat="45.0262613" lon="7.8145126"><ele>350.0</ele><time>2026-04-05T08:25:11.258Z</time></trkpt><trkpt lat="45.026206" lon="7.8144541"><ele>350.0</ele><time>2026-04-05T08:25:12.258Z</time></trkpt><trkpt lat="45.0261468" lon="7.8144201"><ele>350.0</ele><time>2026-04-05T08:25:13.258Z</time></trkpt><trkpt lat="45.02602" lon="7.8144173"><ele>350.0</ele><time>2026-04-05T08:25:15.258Z</time></trkpt><trkpt lat="45.0259511" lon="7.8144565"><ele>350.0</ele><time>2026-04-05T08:25:16.258Z</time></trkpt><trkpt lat="45.0258879" lon="7.8145141"><ele>350.0</ele><time>2026-04-05T08:25:17.258Z</time></trkpt><trkpt lat="45.0258316" lon="7.8145831"><ele>349.83333333333337</ele><time>2026-04-05T08:25:18.258Z</time></trkpt><trkpt lat="45.0257832" lon="7.8146567"><ele>349.6666666666667</ele><time>2026-04-05T08:25:19.258Z</time></trkpt><trkpt lat="45.0257334" lon="7.8147459"><ele>349.5</ele><time>2026-04-05T08:25:20.258Z</time></trkpt><trkpt lat="45.0256829" lon="7.8148534"><ele>349.3333333333333</ele><time>2026-04-05T08:25:21.258Z</time></trkpt><trkpt lat="45.0256413" lon="7.8149656"><ele>349.16666666666663</ele><time>2026-04-05T08:25:22.258Z</time></trkpt><trkpt lat="45.0255997" lon="7.8150802"><ele>349.0</ele><time>2026-04-05T08:25:23.258Z</time></trkpt><trkpt lat="45.0255534" lon="7.8152"><ele>350.0</ele><time>2026-04-05T08:25:24.258Z</time></trkpt><trkpt lat="45.0255056" lon="7.8153177"><ele>351.0</ele><time>2026-04-05T08:25:25.258Z</time></trkpt><trkpt lat="45.0254549" lon="7.8154343"><ele>352.0</ele><time>2026-04-05T08:25:26.258Z</time></trkpt><trkpt lat="45.0253505" lon="7.8156299"><ele>353.0</ele><time>2026-04-05T08:25:28.258Z</time></trkpt><trkpt lat="45.0253012" lon="7.8157111"><ele>354.0</ele><time>2026-04-05T08:25:29.258Z</time></trkpt><trkpt lat="45.0252514" lon="7.8157819"><ele>354.0</ele><time>2026-04-05T08:25:30.258Z</time></trkpt><trkpt lat="45.0251961" lon="7.815844"><ele>354.0</ele><time>2026-04-05T08:25:31.258Z</time></trkpt><trkpt lat="45.0251308" lon="7.8158965"><ele>354.0</ele><time>2026-04-05T08:25:32.258Z</time></trkpt><trkpt lat="45.0250536" lon="7.8159292"><ele>354.0</ele><time>2026-04-05T08:25:33.258Z</time></trkpt><trkpt lat="45.024956" lon="7.8159792"><ele>354.0</ele><time>2026-04-05T08:25:34.258Z</time></trkpt><trkpt lat="45.0248439" lon="7.8160405"><ele>355.5</ele><time>2026-04-05T08:25:35.258Z</time></trkpt><trkpt lat="45.0247235" lon="7.816111"><ele>357.0</ele><time>2026-04-05T08:25:36.258Z</time></trkpt><trkpt lat="45.0245932" lon="7.8161895"><ele>358.5</ele><time>2026-04-05T08:25:37.258Z</time></trkpt><trkpt lat="45.0244766" lon="7.8162564"><ele>360.0</ele><time>2026-04-05T08:25:38.258Z</time></trkpt><trkpt lat="45.0243758" lon="7.8163201"><ele>360.0</ele><time>2026-04-05T08:25:39.258Z</time></trkpt><trkpt lat="45.0242955" lon="7.8163931"><ele>360.0</ele><time>2026-04-05T08:25:40.258Z</time></trkpt><trkpt lat="45.0242178" lon="7.8164693"><ele>360.0</ele><time>2026-04-05T08:25:41.258Z</time></trkpt><trkpt lat="45.0241464" lon="7.8165479"><ele>360.0</ele><time>2026-04-05T08:25:42.258Z</time></trkpt><trkpt lat="45.0240771" lon="7.8166182"><ele>360.0</ele><time>2026-04-05T08:25:43.258Z</time></trkpt><trkpt lat="45.0239955" lon="7.8166645"><ele>359.0</ele><time>2026-04-05T08:25:44.258Z</time></trkpt><trkpt lat="45.0238917" lon="7.8166822"><ele>358.0</ele><time>2026-04-05T08:25:45.258Z</time></trkpt><trkpt lat="45.0237755" lon="7.8166884"><ele>357.0</ele><time>2026-04-05T08:25:46.258Z</time></trkpt><trkpt lat="45.0236698" lon="7.8166836"><ele>356.0</ele><time>2026-04-05T08:25:47.258Z</time></trkpt><trkpt lat="45.023518" lon="7.8166619"><ele>356.0</ele><time>2026-04-05T08:25:49.258Z</time></trkpt><trkpt lat="45.0234065" lon="7.8166528"><ele>356.0</ele><time>2026-04-05T08:25:51.258Z</time></trkpt><trkpt lat="45.023281" lon="7.8166686"><ele>356.0</ele><time>2026-04-05T08:25:53.258Z</time></trkpt><trkpt lat="45.0231921" lon="7.8166726"><ele>356.0</ele><time>2026-04-05T08:25:54.258Z</time></trkpt><trkpt lat="45.0230944" lon="7.8166771"><ele>356.0</ele><time>2026-04-05T08:25:55.258Z</time></trkpt><trkpt lat="45.0229946" lon="7.8166843"><ele>355.8</ele><time>2026-04-05T08:25:56.258Z</time></trkpt><trkpt lat="45.0228875" lon="7.8166963"><ele>355.6</ele><time>2026-04-05T08:25:57.258Z</time></trkpt><trkpt lat="45.0227762" lon="7.8167158"><ele>355.4</ele><time>2026-04-05T08:25:58.258Z</time></trkpt><trkpt lat="45.0226718" lon="7.8167368"><ele>355.2</ele><time>2026-04-05T08:25:59.258Z</time></trkpt><trkpt lat="45.0225815" lon="7.8167505"><ele>355.0</ele><time>2026-04-05T08:26:00.258Z</time></trkpt><trkpt lat="45.0225071" lon="7.8167544"><ele>354.5</ele><time>2026-04-05T08:26:01.258Z</time></trkpt><trkpt lat="45.0224438" lon="7.8167568"><ele>354.0</ele><time>2026-04-05T08:26:02.258Z</time></trkpt><trkpt lat="45.0223514" lon="7.8168011"><ele>353.5</ele><time>2026-04-05T08:26:04.258Z</time></trkpt><trkpt lat="45.0223435" lon="7.8169268"><ele>353.0</ele><time>2026-04-05T08:26:06.258Z</time></trkpt><trkpt lat="45.0223744" lon="7.817017"><ele>352.5</ele><time>2026-04-05T08:26:07.258Z</time></trkpt><trkpt lat="45.0224219" lon="7.8171204"><ele>352.0</ele><time>2026-04-05T08:26:08.258Z</time></trkpt><trkpt lat="45.0225247" lon="7.8173917"><ele>352.0</ele><time>2026-04-05T08:26:10.258Z</time></trkpt><trkpt lat="45.022577" lon="7.8175236"><ele>352.0</ele><time>2026-04-05T08:26:11.257Z</time></trkpt><trkpt lat="45.0226361" lon="7.8176405"><ele>352.0</ele><time>2026-04-05T08:26:12.258Z</time></trkpt><trkpt lat="45.0227129" lon="7.8177466"><ele>352.0</ele><time>2026-04-05T08:26:13.258Z</time></trkpt><trkpt lat="45.0228146" lon="7.8178314"><ele>352.0</ele><time>2026-04-05T08:26:14.258Z</time></trkpt><trkpt lat="45.0229234" lon="7.8178951"><ele>350.5</ele><time>2026-04-05T08:26:15.258Z</time></trkpt><trkpt lat="45.0230358" lon="7.817952"><ele>349.0</ele><time>2026-04-05T08:26:16.258Z</time></trkpt><trkpt lat="45.0231416" lon="7.8179997"><ele>347.5</ele><time>2026-04-05T08:26:17.258Z</time></trkpt><trkpt lat="45.0232438" lon="7.8180663"><ele>346.0</ele><time>2026-04-05T08:26:18.258Z</time></trkpt><trkpt lat="45.0233298" lon="7.8181672"><ele>345.75</ele><time>2026-04-05T08:26:19.258Z</time></trkpt><trkpt lat="45.0234029" lon="7.8182888"><ele>345.5</ele><time>2026-04-05T08:26:20.258Z</time></trkpt><trkpt lat="45.0234679" lon="7.8184185"><ele>345.25</ele><time>2026-04-05T08:26:21.258Z</time></trkpt><trkpt lat="45.023522" lon="7.8185657"><ele>345.0</ele><time>2026-04-05T08:26:22.258Z</time></trkpt><trkpt lat="45.0235639" lon="7.8187389"><ele>342.5</ele><time>2026-04-05T08:26:23.258Z</time></trkpt><trkpt lat="45.0235972" lon="7.8189192"><ele>340.0</ele><time>2026-04-05T08:26:24.258Z</time></trkpt><trkpt lat="45.0236322" lon="7.819101"><ele>337.5</ele><time>2026-04-05T08:26:25.258Z</time></trkpt><trkpt lat="45.0236682" lon="7.8192819"><ele>335.0</ele><time>2026-04-05T08:26:26.258Z</time></trkpt><trkpt lat="45.0237071" lon="7.8194568"><ele>331.33333333333337</ele><time>2026-04-05T08:26:27.258Z</time></trkpt><trkpt lat="45.0237468" lon="7.8196267"><ele>327.6666666666667</ele><time>2026-04-05T08:26:28.258Z</time></trkpt><trkpt lat="45.0237891" lon="7.8198061"><ele>324.0</ele><time>2026-04-05T08:26:29.258Z</time></trkpt><trkpt lat="45.0238683" lon="7.8201727"><ele>321.25</ele><time>2026-04-05T08:26:31.258Z</time></trkpt><trkpt lat="45.0238971" lon="7.8203551"><ele>318.5</ele><time>2026-04-05T08:26:32.258Z</time></trkpt><trkpt lat="45.0239323" lon="7.8205219"><ele>315.75</ele><time>2026-04-05T08:26:33.258Z</time></trkpt><trkpt lat="45.0239631" lon="7.8206847"><ele>313.0</ele><time>2026-04-05T08:26:34.258Z</time></trkpt><trkpt lat="45.0239968" lon="7.8208411"><ele>311.8</ele><time>2026-04-05T08:26:35.258Z</time></trkpt><trkpt lat="45.0240246" lon="7.8209863"><ele>310.6</ele><time>2026-04-05T08:26:36.258Z</time></trkpt><trkpt lat="45.0240509" lon="7.8211085"><ele>309.4</ele><time>2026-04-05T08:26:37.258Z</time></trkpt><trkpt lat="45.0240731" lon="7.8212198"><ele>308.2</ele><time>2026-04-05T08:26:38.258Z</time></trkpt><trkpt lat="45.0240955" lon="7.8213215"><ele>307.0</ele><time>2026-04-05T08:26:39.258Z</time></trkpt><trkpt lat="45.0241187" lon="7.8214701"><ele>307.0</ele><time>2026-04-05T08:26:41.258Z</time></trkpt><trkpt lat="45.0241256" lon="7.821564"><ele>307.0</ele><time>2026-04-05T08:26:44.258Z</time></trkpt><trkpt lat="45.0242101" lon="7.8215865"><ele>307.0</ele><time>2026-04-05T08:26:47.258Z</time></trkpt><trkpt lat="45.0242739" lon="7.8215561"><ele>307.0</ele><time>2026-04-05T08:26:48.258Z</time></trkpt><trkpt lat="45.024356" lon="7.8215131"><ele>307.0</ele><time>2026-04-05T08:26:49.258Z</time></trkpt><trkpt lat="45.0244542" lon="7.8214706"><ele>307.0</ele><time>2026-04-05T08:26:50.258Z</time></trkpt><trkpt lat="45.0247239" lon="7.8213217"><ele>307.66666666666663</ele><time>2026-04-05T08:26:52.258Z</time></trkpt><trkpt lat="45.0248803" lon="7.8212006"><ele>308.3333333333333</ele><time>2026-04-05T08:26:53.258Z</time></trkpt><trkpt lat="45.0250367" lon="7.8210605"><ele>309.0</ele><time>2026-04-05T08:26:54.258Z</time></trkpt><trkpt lat="45.0251833" lon="7.8209124"><ele>310.3333333333333</ele><time>2026-04-05T08:26:55.258Z</time></trkpt><trkpt lat="45.0253313" lon="7.8207723"><ele>311.66666666666663</ele><time>2026-04-05T08:26:56.258Z</time></trkpt><trkpt lat="45.0254799" lon="7.8206402"><ele>313.0</ele><time>2026-04-05T08:26:57.258Z</time></trkpt><trkpt lat="45.0256338" lon="7.8205043"><ele>313.0</ele><time>2026-04-05T08:26:58.258Z</time></trkpt><trkpt lat="45.0257954" lon="7.8203868"><ele>313.0</ele><time>2026-04-05T08:26:59.258Z</time></trkpt><trkpt lat="45.0259579" lon="7.8202734"><ele>313.0</ele><time>2026-04-05T08:27:00.258Z</time></trkpt><trkpt lat="45.0261214" lon="7.8201579"><ele>313.66666666666663</ele><time>2026-04-05T08:27:01.258Z</time></trkpt><trkpt lat="45.0262834" lon="7.8200323"><ele>314.3333333333333</ele><time>2026-04-05T08:27:02.258Z</time></trkpt><trkpt lat="45.0264425" lon="7.8199086"><ele>315.0</ele><time>2026-04-05T08:27:03.258Z</time></trkpt><trkpt lat="45.0266015" lon="7.8197924"><ele>314.6666666666667</ele><time>2026-04-05T08:27:04.258Z</time></trkpt><trkpt lat="45.026764" lon="7.8196715"><ele>314.33333333333337</ele><time>2026-04-05T08:27:05.258Z</time></trkpt><trkpt lat="45.026927" lon="7.8195539"><ele>314.0</ele><time>2026-04-05T08:27:06.258Z</time></trkpt><trkpt lat="45.027087" lon="7.8194435"><ele>314.0</ele><time>2026-04-05T08:27:07.258Z</time></trkpt><trkpt lat="45.0272539" lon="7.8193325"><ele>314.0</ele><time>2026-04-05T08:27:08.258Z</time></trkpt><trkpt lat="45.027428" lon="7.8192283"><ele>314.0</ele><time>2026-04-05T08:27:09.258Z</time></trkpt><trkpt lat="45.0276053" lon="7.8191316"><ele>316.0</ele><time>2026-04-05T08:27:10.258Z</time></trkpt><trkpt lat="45.0277873" lon="7.8190367"><ele>318.0</ele><time>2026-04-05T08:27:11.258Z</time></trkpt><trkpt lat="45.0281603" lon="7.8188377"><ele>318.6666666666667</ele><time>2026-04-05T08:27:13.258Z</time></trkpt><trkpt lat="45.0283536" lon="7.8187352"><ele>319.33333333333337</ele><time>2026-04-05T08:27:14.258Z</time></trkpt><trkpt lat="45.0285474" lon="7.8186335"><ele>320.0</ele><time>2026-04-05T08:27:15.258Z</time></trkpt><trkpt lat="45.0287411" lon="7.8185284"><ele>320.0</ele><time>2026-04-05T08:27:16.258Z</time></trkpt><trkpt lat="45.028937" lon="7.818416"><ele>320.0</ele><time>2026-04-05T08:27:17.258Z</time></trkpt><trkpt lat="45.0291326" lon="7.8182988"><ele>320.0</ele><time>2026-04-05T08:27:18.258Z</time></trkpt><trkpt lat="45.0293319" lon="7.8181789"><ele>321.0</ele><time>2026-04-05T08:27:19.258Z</time></trkpt><trkpt lat="45.0295283" lon="7.8180563"><ele>322.0</ele><time>2026-04-05T08:27:20.258Z</time></trkpt><trkpt lat="45.0297337" lon="7.817931"><ele>323.0</ele><time>2026-04-05T08:27:21.258Z</time></trkpt><trkpt lat="45.0299373" lon="7.817814"><ele>323.33333333333337</ele><time>2026-04-05T08:27:22.258Z</time></trkpt><trkpt lat="45.030147" lon="7.8177173"><ele>323.6666666666667</ele><time>2026-04-05T08:27:23.258Z</time></trkpt><trkpt lat="45.0303576" lon="7.8176299"><ele>324.0</ele><time>2026-04-05T08:27:24.258Z</time></trkpt><trkpt lat="45.0305653" lon="7.8175558"><ele>324.0</ele><time>2026-04-05T08:27:25.258Z</time></trkpt><trkpt lat="45.0307762" lon="7.8174898"><ele>324.0</ele><time>2026-04-05T08:27:26.258Z</time></trkpt><trkpt lat="45.0309901" lon="7.8174149"><ele>324.0</ele><time>2026-04-05T08:27:27.258Z</time></trkpt><trkpt lat="45.0312025" lon="7.8173363"><ele>324.0</ele><time>2026-04-05T08:27:28.258Z</time></trkpt><trkpt lat="45.0314149" lon="7.8172505"><ele>324.0</ele><time>2026-04-05T08:27:29.258Z</time></trkpt><trkpt lat="45.0316257" lon="7.8171658"><ele>324.0</ele><time>2026-04-05T08:27:30.258Z</time></trkpt><trkpt lat="45.0318346" lon="7.817075"><ele>325.5</ele><time>2026-04-05T08:27:31.258Z</time></trkpt><trkpt lat="45.0320416" lon="7.8169868"><ele>327.0</ele><time>2026-04-05T08:27:32.258Z</time></trkpt><trkpt lat="45.0324589" lon="7.8167923"><ele>328.3333333333333</ele><time>2026-04-05T08:27:34.258Z</time></trkpt><trkpt lat="45.0326694" lon="7.8167"><ele>329.66666666666663</ele><time>2026-04-05T08:27:35.258Z</time></trkpt><trkpt lat="45.0328806" lon="7.8166062"><ele>331.0</ele><time>2026-04-05T08:27:36.258Z</time></trkpt><trkpt lat="45.0330865" lon="7.8165115"><ele>331.0</ele><time>2026-04-05T08:27:37.258Z</time></trkpt><trkpt lat="45.0332842" lon="7.8164212"><ele>331.0</ele><time>2026-04-05T08:27:38.258Z</time></trkpt><trkpt lat="45.0334799" lon="7.8163339"><ele>331.0</ele><time>2026-04-05T08:27:39.258Z</time></trkpt><trkpt lat="45.0336676" lon="7.8162588"><ele>333.0</ele><time>2026-04-05T08:27:40.258Z</time></trkpt><trkpt lat="45.0338497" lon="7.8161898"><ele>335.0</ele><time>2026-04-05T08:27:41.258Z</time></trkpt><trkpt lat="45.0340338" lon="7.8161332"><ele>337.0</ele><time>2026-04-05T08:27:42.258Z</time></trkpt><trkpt lat="45.0342207" lon="7.8160866"><ele>338.66666666666663</ele><time>2026-04-05T08:27:43.258Z</time></trkpt><trkpt lat="45.034402" lon="7.8160586"><ele>340.3333333333333</ele><time>2026-04-05T08:27:44.258Z</time></trkpt><trkpt lat="45.0345836" lon="7.816059"><ele>342.0</ele><time>2026-04-05T08:27:45.258Z</time></trkpt><trkpt lat="45.0347651" lon="7.8160756"><ele>342.0</ele><time>2026-04-05T08:27:46.258Z</time></trkpt><trkpt lat="45.0349361" lon="7.8160953"><ele>342.0</ele><time>2026-04-05T08:27:47.257Z</time></trkpt><trkpt lat="45.0350924" lon="7.8161125"><ele>342.0</ele><time>2026-04-05T08:27:48.258Z</time></trkpt><trkpt lat="45.0352581" lon="7.8161394"><ele>343.6666666666667</ele><time>2026-04-05T08:27:49.258Z</time></trkpt><trkpt lat="45.0354333" lon="7.8161699"><ele>345.33333333333337</ele><time>2026-04-05T08:27:50.258Z</time></trkpt><trkpt lat="45.0356099" lon="7.8162117"><ele>347.0</ele><time>2026-04-05T08:27:51.258Z</time></trkpt><trkpt lat="45.0357862" lon="7.8162485"><ele>347.0</ele><time>2026-04-05T08:27:52.258Z</time></trkpt><trkpt lat="45.0359663" lon="7.8162706"><ele>347.0</ele><time>2026-04-05T08:27:53.258Z</time></trkpt><trkpt lat="45.0363386" lon="7.8162066"><ele>347.0</ele><time>2026-04-05T08:27:55.258Z</time></trkpt><trkpt lat="45.0365275" lon="7.8161428"><ele>347.0</ele><time>2026-04-05T08:27:56.258Z</time></trkpt><trkpt lat="45.0367196" lon="7.8160813"><ele>347.0</ele><time>2026-04-05T08:27:57.258Z</time></trkpt><trkpt lat="45.0369075" lon="7.8160325"><ele>347.0</ele><time>2026-04-05T08:27:58.258Z</time></trkpt><trkpt lat="45.0370946" lon="7.8159898"><ele>347.0</ele><time>2026-04-05T08:27:59.258Z</time></trkpt><trkpt lat="45.0372827" lon="7.8159372"><ele>347.0</ele><time>2026-04-05T08:28:00.258Z</time></trkpt><trkpt lat="45.0374726" lon="7.8158839"><ele>349.33333333333337</ele><time>2026-04-05T08:28:01.258Z</time></trkpt><trkpt lat="45.0376646" lon="7.815834"><ele>351.6666666666667</ele><time>2026-04-05T08:28:02.258Z</time></trkpt><trkpt lat="45.0378555" lon="7.8157789"><ele>354.0</ele><time>2026-04-05T08:28:03.258Z</time></trkpt><trkpt lat="45.0380472" lon="7.8157298"><ele>354.0</ele><time>2026-04-05T08:28:04.258Z</time></trkpt><trkpt lat="45.0382447" lon="7.8156703"><ele>354.0</ele><time>2026-04-05T08:28:05.258Z</time></trkpt><trkpt lat="45.0384303" lon="7.8156062"><ele>354.0</ele><time>2026-04-05T08:28:06.258Z</time></trkpt><trkpt lat="45.0386023" lon="7.8155473"><ele>357.0</ele><time>2026-04-05T08:28:07.258Z</time></trkpt><trkpt lat="45.0387697" lon="7.8155017"><ele>360.0</ele><time>2026-04-05T08:28:08.258Z</time></trkpt><trkpt lat="45.0389268" lon="7.8154866"><ele>363.0</ele><time>2026-04-05T08:28:09.258Z</time></trkpt><trkpt lat="45.0390794" lon="7.8155064"><ele>365.25</ele><time>2026-04-05T08:28:10.258Z</time></trkpt><trkpt lat="45.0392263" lon="7.8155589"><ele>367.5</ele><time>2026-04-05T08:28:11.258Z</time></trkpt><trkpt lat="45.0393535" lon="7.8156147"><ele>369.75</ele><time>2026-04-05T08:28:12.258Z</time></trkpt><trkpt lat="45.0394619" lon="7.8156656"><ele>372.0</ele><time>2026-04-05T08:28:13.258Z</time></trkpt><trkpt lat="45.0395668" lon="7.8156986"><ele>372.0</ele><time>2026-04-05T08:28:14.258Z</time></trkpt><trkpt lat="45.0397189" lon="7.8157392"><ele>372.0</ele><time>2026-04-05T08:28:16.258Z</time></trkpt><trkpt lat="45.0397893" lon="7.8158229"><ele>372.0</ele><time>2026-04-05T08:28:18.258Z</time></trkpt><trkpt lat="45.0397767" lon="7.8159522"><ele>372.0</ele><time>2026-04-05T08:28:20.258Z</time></trkpt><trkpt lat="45.0397372" lon="7.8160422"><ele>372.0</ele><time>2026-04-05T08:28:21.258Z</time></trkpt><trkpt lat="45.0397068" lon="7.8161576"><ele>372.3333333333333</ele><time>2026-04-05T08:28:22.258Z</time></trkpt><trkpt lat="45.0396855" lon="7.8162882"><ele>372.6666666666667</ele><time>2026-04-05T08:28:23.258Z</time></trkpt><trkpt lat="45.0396749" lon="7.8164106"><ele>373.0</ele><time>2026-04-05T08:28:24.258Z</time></trkpt><trkpt lat="45.0396641" lon="7.8165182"><ele>373.33333333333337</ele><time>2026-04-05T08:28:25.258Z</time></trkpt><trkpt lat="45.039631" lon="7.8166188"><ele>373.6666666666667</ele><time>2026-04-05T08:28:26.258Z</time></trkpt><trkpt lat="45.0395753" lon="7.816709"><ele>374.0</ele><time>2026-04-05T08:28:27.258Z</time></trkpt><trkpt lat="45.0395024" lon="7.8167848"><ele>373.79999999999995</ele><time>2026-04-05T08:28:28.258Z</time></trkpt><trkpt lat="45.0394186" lon="7.8168622"><ele>373.59999999999997</ele><time>2026-04-05T08:28:29.258Z</time></trkpt><trkpt lat="45.0393367" lon="7.8169462"><ele>373.4</ele><time>2026-04-05T08:28:30.258Z</time></trkpt><trkpt lat="45.0392523" lon="7.8170461"><ele>373.2</ele><time>2026-04-05T08:28:31.258Z</time></trkpt><trkpt lat="45.039169" lon="7.8171515"><ele>373.0</ele><time>2026-04-05T08:28:32.258Z</time></trkpt><trkpt lat="45.0390856" lon="7.8172604"><ele>373.0</ele><time>2026-04-05T08:28:33.258Z</time></trkpt><trkpt lat="45.0390088" lon="7.8173666"><ele>373.0</ele><time>2026-04-05T08:28:34.258Z</time></trkpt><trkpt lat="45.0389298" lon="7.81747"><ele>373.0</ele><time>2026-04-05T08:28:35.258Z</time></trkpt><trkpt lat="45.0387616" lon="7.817677"><ele>373.0</ele><time>2026-04-05T08:28:37.258Z</time></trkpt><trkpt lat="45.0386727" lon="7.8177719"><ele>372.75</ele><time>2026-04-05T08:28:38.258Z</time></trkpt><trkpt lat="45.0385836" lon="7.8178706"><ele>372.5</ele><time>2026-04-05T08:28:39.258Z</time></trkpt><trkpt lat="45.0384833" lon="7.8179648"><ele>372.25</ele><time>2026-04-05T08:28:40.258Z</time></trkpt><trkpt lat="45.03838" lon="7.818046"><ele>372.0</ele><time>2026-04-05T08:28:41.258Z</time></trkpt><trkpt lat="45.0382745" lon="7.8181098"><ele>372.0</ele><time>2026-04-05T08:28:42.258Z</time></trkpt><trkpt lat="45.0381632" lon="7.8181591"><ele>372.0</ele><time>2026-04-05T08:28:43.258Z</time></trkpt><trkpt lat="45.0380531" lon="7.8182106"><ele>372.0</ele><time>2026-04-05T08:28:44.258Z</time></trkpt><trkpt lat="45.0379444" lon="7.8182756"><ele>372.0</ele><time>2026-04-05T08:28:45.258Z</time></trkpt><trkpt lat="45.0378415" lon="7.8183537"><ele>372.0</ele><time>2026-04-05T08:28:46.258Z</time></trkpt><trkpt lat="45.0377508" lon="7.818429"><ele>372.0</ele><time>2026-04-05T08:28:47.258Z</time></trkpt><trkpt lat="45.0376701" lon="7.8185083"><ele>372.0</ele><time>2026-04-05T08:28:48.258Z</time></trkpt><trkpt lat="45.0375928" lon="7.8185987"><ele>372.0</ele><time>2026-04-05T08:28:49.258Z</time></trkpt><trkpt lat="45.0375169" lon="7.8186911"><ele>372.0</ele><time>2026-04-05T08:28:50.258Z</time></trkpt><trkpt lat="45.0374395" lon="7.8187924"><ele>372.40000000000003</ele><time>2026-04-05T08:28:51.258Z</time></trkpt><trkpt lat="45.037352" lon="7.8188963"><ele>372.8</ele><time>2026-04-05T08:28:52.258Z</time></trkpt><trkpt lat="45.0372657" lon="7.818997"><ele>373.2</ele><time>2026-04-05T08:28:53.258Z</time></trkpt><trkpt lat="45.0371832" lon="7.8190897"><ele>373.6</ele><time>2026-04-05T08:28:54.258Z</time></trkpt><trkpt lat="45.0370964" lon="7.8191795"><ele>374.0</ele><time>2026-04-05T08:28:55.257Z</time></trkpt><trkpt lat="45.0370031" lon="7.8192594"><ele>374.0</ele><time>2026-04-05T08:28:56.258Z</time></trkpt><trkpt lat="45.0368183" lon="7.8193904"><ele>374.0</ele><time>2026-04-05T08:28:58.258Z</time></trkpt><trkpt lat="45.0367293" lon="7.819463"><ele>374.0</ele><time>2026-04-05T08:28:59.258Z</time></trkpt><trkpt lat="45.0366333" lon="7.8195358"><ele>374.0</ele><time>2026-04-05T08:29:00.258Z</time></trkpt><trkpt lat="45.0365364" lon="7.8196137"><ele>374.25</ele><time>2026-04-05T08:29:01.258Z</time></trkpt><trkpt lat="45.0364441" lon="7.8197004"><ele>374.5</ele><time>2026-04-05T08:29:02.258Z</time></trkpt><trkpt lat="45.0363454" lon="7.819782"><ele>374.75</ele><time>2026-04-05T08:29:03.258Z</time></trkpt><trkpt lat="45.0362443" lon="7.8198674"><ele>375.0</ele><time>2026-04-05T08:29:04.258Z</time></trkpt><trkpt lat="45.0361483" lon="7.8199495"><ele>375.0</ele><time>2026-04-05T08:29:05.258Z</time></trkpt><trkpt lat="45.0360573" lon="7.8200271"><ele>375.0</ele><time>2026-04-05T08:29:06.258Z</time></trkpt><trkpt lat="45.0359706" lon="7.8200993"><ele>375.0</ele><time>2026-04-05T08:29:07.258Z</time></trkpt><trkpt lat="45.0358889" lon="7.8201725"><ele>375.0</ele><time>2026-04-05T08:29:08.258Z</time></trkpt><trkpt lat="45.0358146" lon="7.82025"><ele>375.0</ele><time>2026-04-05T08:29:09.258Z</time></trkpt><trkpt lat="45.0357443" lon="7.8203257"><ele>374.8</ele><time>2026-04-05T08:29:10.258Z</time></trkpt><trkpt lat="45.0356698" lon="7.8204069"><ele>374.6</ele><time>2026-04-05T08:29:11.258Z</time></trkpt><trkpt lat="45.0355975" lon="7.8204962"><ele>374.4</ele><time>2026-04-05T08:29:12.258Z</time></trkpt><trkpt lat="45.0355223" lon="7.8205888"><ele>374.2</ele><time>2026-04-05T08:29:13.258Z</time></trkpt><trkpt lat="45.0354525" lon="7.8206678"><ele>374.0</ele><time>2026-04-05T08:29:14.258Z</time></trkpt><trkpt lat="45.0353845" lon="7.8207443"><ele>374.0</ele><time>2026-04-05T08:29:15.258Z</time></trkpt><trkpt lat="45.0353152" lon="7.8208146"><ele>374.0</ele><time>2026-04-05T08:29:16.258Z</time></trkpt><trkpt lat="45.035241" lon="7.8208789"><ele>374.0</ele><time>2026-04-05T08:29:17.258Z</time></trkpt><trkpt lat="45.0350814" lon="7.8210124"><ele>374.0</ele><time>2026-04-05T08:29:19.258Z</time></trkpt><trkpt lat="45.0350079" lon="7.821079"><ele>374.0</ele><time>2026-04-05T08:29:20.258Z</time></trkpt><trkpt lat="45.0349405" lon="7.8211539"><ele>373.83333333333337</ele><time>2026-04-05T08:29:21.258Z</time></trkpt><trkpt lat="45.0348824" lon="7.8212345"><ele>373.6666666666667</ele><time>2026-04-05T08:29:22.258Z</time></trkpt><trkpt lat="45.0348288" lon="7.8213197"><ele>373.5</ele><time>2026-04-05T08:29:23.258Z</time></trkpt><trkpt lat="45.0347684" lon="7.8214083"><ele>373.3333333333333</ele><time>2026-04-05T08:29:24.258Z</time></trkpt><trkpt lat="45.0347043" lon="7.8214866"><ele>373.16666666666663</ele><time>2026-04-05T08:29:25.258Z</time></trkpt><trkpt lat="45.0346431" lon="7.821555"><ele>373.0</ele><time>2026-04-05T08:29:26.258Z</time></trkpt><trkpt lat="45.0345871" lon="7.8216083"><ele>373.0</ele><time>2026-04-05T08:29:27.258Z</time></trkpt><trkpt lat="45.0344987" lon="7.8217275"><ele>373.0</ele><time>2026-04-05T08:29:29.258Z</time></trkpt><trkpt lat="45.0344606" lon="7.8218096"><ele>373.0</ele><time>2026-04-05T08:29:30.258Z</time></trkpt><trkpt lat="45.0344274" lon="7.8218969"><ele>373.0</ele><time>2026-04-05T08:29:31.258Z</time></trkpt><trkpt lat="45.0344015" lon="7.8219809"><ele>373.0</ele><time>2026-04-05T08:29:32.258Z</time></trkpt><trkpt lat="45.0343776" lon="7.8220658"><ele>373.0</ele><time>2026-04-05T08:29:33.258Z</time></trkpt><trkpt lat="45.0343609" lon="7.8221681"><ele>372.59999999999997</ele><time>2026-04-05T08:29:34.258Z</time></trkpt><trkpt lat="45.0343439" lon="7.8222812"><ele>372.2</ele><time>2026-04-05T08:29:35.258Z</time></trkpt><trkpt lat="45.0343172" lon="7.8224058"><ele>371.8</ele><time>2026-04-05T08:29:36.258Z</time></trkpt><trkpt lat="45.0342783" lon="7.8225251"><ele>371.4</ele><time>2026-04-05T08:29:37.258Z</time></trkpt><trkpt lat="45.0342331" lon="7.8226328"><ele>371.0</ele><time>2026-04-05T08:29:38.258Z</time></trkpt><trkpt lat="45.0341313" lon="7.8228185"><ele>370.1666666666667</ele><time>2026-04-05T08:29:40.258Z</time></trkpt><trkpt lat="45.034076" lon="7.822901"><ele>369.33333333333337</ele><time>2026-04-05T08:29:41.258Z</time></trkpt><trkpt lat="45.0340127" lon="7.8229578"><ele>368.5</ele><time>2026-04-05T08:29:42.258Z</time></trkpt><trkpt lat="45.0339392" lon="7.8229884"><ele>367.6666666666667</ele><time>2026-04-05T08:29:43.258Z</time></trkpt><trkpt lat="45.0338628" lon="7.8229957"><ele>366.8333333333333</ele><time>2026-04-05T08:29:44.258Z</time></trkpt><trkpt lat="45.0337846" lon="7.8229817"><ele>366.0</ele><time>2026-04-05T08:29:45.258Z</time></trkpt><trkpt lat="45.0337013" lon="7.822967"><ele>366.0</ele><time>2026-04-05T08:29:46.258Z</time></trkpt><trkpt lat="45.0336159" lon="7.8229558"><ele>366.0</ele><time>2026-04-05T08:29:47.258Z</time></trkpt><trkpt lat="45.0335323" lon="7.8229523"><ele>366.0</ele><time>2026-04-05T08:29:48.258Z</time></trkpt><trkpt lat="45.0334436" lon="7.8229589"><ele>366.0</ele><time>2026-04-05T08:29:49.258Z</time></trkpt><trkpt lat="45.0333512" lon="7.8229581"><ele>366.0</ele><time>2026-04-05T08:29:50.258Z</time></trkpt><trkpt lat="45.0332571" lon="7.8229574"><ele>366.0</ele><time>2026-04-05T08:29:51.258Z</time></trkpt><trkpt lat="45.0331601" lon="7.8229591"><ele>365.6</ele><time>2026-04-05T08:29:52.258Z</time></trkpt><trkpt lat="45.0330653" lon="7.822966"><ele>365.20000000000005</ele><time>2026-04-05T08:29:53.258Z</time></trkpt><trkpt lat="45.0329725" lon="7.8229751"><ele>364.79999999999995</ele><time>2026-04-05T08:29:54.258Z</time></trkpt><trkpt lat="45.0328677" lon="7.822993"><ele>364.4</ele><time>2026-04-05T08:29:55.258Z</time></trkpt><trkpt lat="45.0327612" lon="7.8230147"><ele>364.0</ele><time>2026-04-05T08:29:56.258Z</time></trkpt><trkpt lat="45.0326582" lon="7.8230439"><ele>364.0</ele><time>2026-04-05T08:29:57.258Z</time></trkpt><trkpt lat="45.0325546" lon="7.8230739"><ele>364.0</ele><time>2026-04-05T08:29:58.258Z</time></trkpt><trkpt lat="45.0324563" lon="7.8230942"><ele>364.0</ele><time>2026-04-05T08:29:59.258Z</time></trkpt><trkpt lat="45.0322694" lon="7.8231309"><ele>364.0</ele><time>2026-04-05T08:30:01.258Z</time></trkpt><trkpt lat="45.0321853" lon="7.8231432"><ele>363.3333333333333</ele><time>2026-04-05T08:30:02.258Z</time></trkpt><trkpt lat="45.0321082" lon="7.823157"><ele>362.66666666666663</ele><time>2026-04-05T08:30:03.258Z</time></trkpt><trkpt lat="45.0320391" lon="7.8231707"><ele>362.0</ele><time>2026-04-05T08:30:04.258Z</time></trkpt><trkpt lat="45.0319789" lon="7.8231972"><ele>361.3333333333333</ele><time>2026-04-05T08:30:05.258Z</time></trkpt><trkpt lat="45.0319172" lon="7.8232768"><ele>360.6666666666667</ele><time>2026-04-05T08:30:07.258Z</time></trkpt><trkpt lat="45.0319422" lon="7.8234413"><ele>360.0</ele><time>2026-04-05T08:30:09.258Z</time></trkpt><trkpt lat="45.0319729" lon="7.8235603"><ele>359.8333333333333</ele><time>2026-04-05T08:30:10.258Z</time></trkpt><trkpt lat="45.0319996" lon="7.8236811"><ele>359.6666666666667</ele><time>2026-04-05T08:30:11.258Z</time></trkpt><trkpt lat="45.0320304" lon="7.8237847"><ele>359.5</ele><time>2026-04-05T08:30:12.258Z</time></trkpt><trkpt lat="45.0320604" lon="7.8238717"><ele>359.33333333333337</ele><time>2026-04-05T08:30:13.258Z</time></trkpt><trkpt lat="45.0320797" lon="7.8240135"><ele>359.1666666666667</ele><time>2026-04-05T08:30:15.258Z</time></trkpt><trkpt lat="45.0319884" lon="7.8240972"><ele>359.0</ele><time>2026-04-05T08:30:17.258Z</time></trkpt><trkpt lat="45.0319174" lon="7.8241269"><ele>359.0</ele><time>2026-04-05T08:30:18.258Z</time></trkpt><trkpt lat="45.0318314" lon="7.8241555"><ele>359.0</ele><time>2026-04-05T08:30:19.258Z</time></trkpt><trkpt lat="45.0317455" lon="7.8241898"><ele>359.0</ele><time>2026-04-05T08:30:20.258Z</time></trkpt><trkpt lat="45.0315782" lon="7.8242665"><ele>359.0</ele><time>2026-04-05T08:30:22.258Z</time></trkpt><trkpt lat="45.0315083" lon="7.8242974"><ele>359.0</ele><time>2026-04-05T08:30:23.258Z</time></trkpt><trkpt lat="45.0314514" lon="7.8243372"><ele>358.0</ele><time>2026-04-05T08:30:24.258Z</time></trkpt><trkpt lat="45.0313616" lon="7.8244616"><ele>357.0</ele><time>2026-04-05T08:30:26.258Z</time></trkpt><trkpt lat="45.031342" lon="7.824555"><ele>356.0</ele><time>2026-04-05T08:30:27.258Z</time></trkpt><trkpt lat="45.0313313" lon="7.8246713"><ele>355.0</ele><time>2026-04-05T08:30:28.258Z</time></trkpt><trkpt lat="45.0313251" lon="7.824798"><ele>354.0</ele><time>2026-04-05T08:30:29.258Z</time></trkpt><trkpt lat="45.0313195" lon="7.8249149"><ele>354.0</ele><time>2026-04-05T08:30:30.258Z</time></trkpt><trkpt lat="45.0313103" lon="7.8250149"><ele>354.0</ele><time>2026-04-05T08:30:31.258Z</time></trkpt><trkpt lat="45.0312603" lon="7.8251463"><ele>354.0</ele><time>2026-04-05T08:30:33.258Z</time></trkpt><trkpt lat="45.0311663" lon="7.8251963"><ele>354.0</ele><time>2026-04-05T08:30:35.258Z</time></trkpt><trkpt lat="45.0310404" lon="7.825175"><ele>354.0</ele><time>2026-04-05T08:30:37.258Z</time></trkpt><trkpt lat="45.0309587" lon="7.82515"><ele>354.0</ele><time>2026-04-05T08:30:38.258Z</time></trkpt><trkpt lat="45.0308742" lon="7.8251255"><ele>354.0</ele><time>2026-04-05T08:30:39.258Z</time></trkpt><trkpt lat="45.0307881" lon="7.8250973"><ele>354.0</ele><time>2026-04-05T08:30:40.258Z</time></trkpt><trkpt lat="45.0307184" lon="7.8250986"><ele>354.0</ele><time>2026-04-05T08:30:41.258Z</time></trkpt><trkpt lat="45.0305737" lon="7.8250481"><ele>354.0</ele><time>2026-04-05T08:30:43.257Z</time></trkpt><trkpt lat="45.0305069" lon="7.8250343"><ele>353.5</ele><time>2026-04-05T08:30:44.258Z</time></trkpt><trkpt lat="45.0304411" lon="7.8250282"><ele>353.0</ele><time>2026-04-05T08:30:45.258Z</time></trkpt><trkpt lat="45.0303786" lon="7.8250125"><ele>352.5</ele><time>2026-04-05T08:30:46.258Z</time></trkpt><trkpt lat="45.0303176" lon="7.824968"><ele>352.0</ele><time>2026-04-05T08:30:47.258Z</time></trkpt><trkpt lat="45.0302462" lon="7.8249143"><ele>351.5</ele><time>2026-04-05T08:30:48.258Z</time></trkpt><trkpt lat="45.0301763" lon="7.8248738"><ele>351.0</ele><time>2026-04-05T08:30:49.258Z</time></trkpt><trkpt lat="45.0300635" lon="7.8248893"><ele>351.0</ele><time>2026-04-05T08:30:51.258Z</time></trkpt><trkpt lat="45.029986" lon="7.8250012"><ele>351.0</ele><time>2026-04-05T08:30:53.258Z</time></trkpt><trkpt lat="45.0299557" lon="7.8251172"><ele>351.0</ele><time>2026-04-05T08:30:54.258Z</time></trkpt><trkpt lat="45.0299298" lon="7.8252706"><ele>351.0</ele><time>2026-04-05T08:30:55.258Z</time></trkpt><trkpt lat="45.0298992" lon="7.8254519"><ele>351.0</ele><time>2026-04-05T08:30:56.258Z</time></trkpt><trkpt lat="45.0298612" lon="7.8256258"><ele>348.4</ele><time>2026-04-05T08:30:57.258Z</time></trkpt><trkpt lat="45.029821" lon="7.8257755"><ele>345.8</ele><time>2026-04-05T08:30:58.258Z</time></trkpt><trkpt lat="45.0297858" lon="7.825912"><ele>343.2</ele><time>2026-04-05T08:30:59.258Z</time></trkpt><trkpt lat="45.0297541" lon="7.8260447"><ele>340.59999999999997</ele><time>2026-04-05T08:31:00.258Z</time></trkpt><trkpt lat="45.0297138" lon="7.8261824"><ele>338.0</ele><time>2026-04-05T08:31:01.258Z</time></trkpt><trkpt lat="45.0296797" lon="7.826328"><ele>336.5</ele><time>2026-04-05T08:31:02.258Z</time></trkpt><trkpt lat="45.0296119" lon="7.8266131"><ele>335.0</ele><time>2026-04-05T08:31:04.258Z</time></trkpt><trkpt lat="45.0295767" lon="7.826763"><ele>333.5</ele><time>2026-04-05T08:31:05.258Z</time></trkpt><trkpt lat="45.0295421" lon="7.8269015"><ele>332.0</ele><time>2026-04-05T08:31:06.258Z</time></trkpt><trkpt lat="45.0295057" lon="7.8270356"><ele>330.40000000000003</ele><time>2026-04-05T08:31:07.258Z</time></trkpt><trkpt lat="45.029473" lon="7.8271683"><ele>328.8</ele><time>2026-04-05T08:31:08.258Z</time></trkpt><trkpt lat="45.0294365" lon="7.8272921"><ele>327.2</ele><time>2026-04-05T08:31:09.258Z</time></trkpt><trkpt lat="45.0294007" lon="7.827428"><ele>325.6</ele><time>2026-04-05T08:31:10.258Z</time></trkpt><trkpt lat="45.0293628" lon="7.8275776"><ele>324.0</ele><time>2026-04-05T08:31:11.258Z</time></trkpt><trkpt lat="45.0293177" lon="7.8277437"><ele>322.75</ele><time>2026-04-05T08:31:12.258Z</time></trkpt><trkpt lat="45.0292745" lon="7.8279143"><ele>321.5</ele><time>2026-04-05T08:31:13.258Z</time></trkpt><trkpt lat="45.0292324" lon="7.8280714"><ele>320.25</ele><time>2026-04-05T08:31:14.258Z</time></trkpt><trkpt lat="45.0291933" lon="7.8282263"><ele>319.0</ele><time>2026-04-05T08:31:15.258Z</time></trkpt><trkpt lat="45.0291551" lon="7.8283768"><ele>318.0</ele><time>2026-04-05T08:31:16.258Z</time></trkpt><trkpt lat="45.029113" lon="7.8285318"><ele>317.0</ele><time>2026-04-05T08:31:17.258Z</time></trkpt><trkpt lat="45.0290732" lon="7.8287002"><ele>316.0</ele><time>2026-04-05T08:31:18.258Z</time></trkpt><trkpt lat="45.0290301" lon="7.828876"><ele>315.0</ele><time>2026-04-05T08:31:19.258Z</time></trkpt><trkpt lat="45.0289853" lon="7.8290479"><ele>315.0</ele><time>2026-04-05T08:31:20.258Z</time></trkpt><trkpt lat="45.0289467" lon="7.8292086"><ele>315.0</ele><time>2026-04-05T08:31:21.258Z</time></trkpt><trkpt lat="45.0289078" lon="7.8293583"><ele>315.0</ele><time>2026-04-05T08:31:22.258Z</time></trkpt><trkpt lat="45.0288713" lon="7.829486"><ele>315.0</ele><time>2026-04-05T08:31:23.258Z</time></trkpt><trkpt lat="45.0288021" lon="7.8296591"><ele>313.8</ele><time>2026-04-05T08:31:25.258Z</time></trkpt><trkpt lat="45.0287466" lon="7.8297022"><ele>312.6</ele><time>2026-04-05T08:31:26.258Z</time></trkpt><trkpt lat="45.028672" lon="7.8297315"><ele>311.4</ele><time>2026-04-05T08:31:27.258Z</time></trkpt><trkpt lat="45.0285766" lon="7.8297494"><ele>310.2</ele><time>2026-04-05T08:31:28.258Z</time></trkpt><trkpt lat="45.0284591" lon="7.8297664"><ele>309.0</ele><time>2026-04-05T08:31:29.258Z</time></trkpt><trkpt lat="45.0283264" lon="7.8297886"><ele>309.25</ele><time>2026-04-05T08:31:30.258Z</time></trkpt><trkpt lat="45.028187" lon="7.8298219"><ele>309.5</ele><time>2026-04-05T08:31:31.258Z</time></trkpt><trkpt lat="45.0280421" lon="7.8298622"><ele>309.75</ele><time>2026-04-05T08:31:32.258Z</time></trkpt><trkpt lat="45.027891" lon="7.8299003"><ele>310.0</ele><time>2026-04-05T08:31:33.258Z</time></trkpt><trkpt lat="45.0277485" lon="7.8299354"><ele>310.0</ele><time>2026-04-05T08:31:34.258Z</time></trkpt><trkpt lat="45.0276164" lon="7.8299913"><ele>310.0</ele><time>2026-04-05T08:31:35.258Z</time></trkpt><trkpt lat="45.0274919" lon="7.830065"><ele>310.0</ele><time>2026-04-05T08:31:36.258Z</time></trkpt><trkpt lat="45.0273778" lon="7.8301409"><ele>310.0</ele><time>2026-04-05T08:31:37.258Z</time></trkpt><trkpt lat="45.0272696" lon="7.8302073"><ele>309.5</ele><time>2026-04-05T08:31:38.258Z</time></trkpt><trkpt lat="45.027155" lon="7.8302763"><ele>309.0</ele><time>2026-04-05T08:31:39.258Z</time></trkpt><trkpt lat="45.0270342" lon="7.8303521"><ele>308.5</ele><time>2026-04-05T08:31:40.257Z</time></trkpt><trkpt lat="45.026919" lon="7.830439"><ele>308.0</ele><time>2026-04-05T08:31:41.258Z</time></trkpt><trkpt lat="45.02682" lon="7.8305185"><ele>308.0</ele><time>2026-04-05T08:31:42.258Z</time></trkpt><trkpt lat="45.0267287" lon="7.8305833"><ele>308.0</ele><time>2026-04-05T08:31:43.258Z</time></trkpt><trkpt lat="45.0266452" lon="7.8306514"><ele>308.0</ele><time>2026-04-05T08:31:44.258Z</time></trkpt><trkpt lat="45.0265162" lon="7.8308077"><ele>308.0</ele><time>2026-04-05T08:31:46.258Z</time></trkpt><trkpt lat="45.0264728" lon="7.8309013"><ele>308.0</ele><time>2026-04-05T08:31:47.258Z</time></trkpt><trkpt lat="45.0264421" lon="7.8310105"><ele>307.5</ele><time>2026-04-05T08:31:48.258Z</time></trkpt><trkpt lat="45.0264073" lon="7.8311278"><ele>307.0</ele><time>2026-04-05T08:31:49.258Z</time></trkpt><trkpt lat="45.0263715" lon="7.8312391"><ele>306.5</ele><time>2026-04-05T08:31:50.258Z</time></trkpt><trkpt lat="45.0263389" lon="7.8313233"><ele>306.0</ele><time>2026-04-05T08:31:51.258Z</time></trkpt><trkpt lat="45.0262813" lon="7.8314479"><ele>305.5</ele><time>2026-04-05T08:31:53.258Z</time></trkpt><trkpt lat="45.0262796" lon="7.8315475"><ele>305.0</ele><time>2026-04-05T08:32:09.258Z</time></trkpt><trkpt lat="45.0264693" lon="7.8316215"><ele>305.0</ele><time>2026-04-05T08:32:12.258Z</time></trkpt><trkpt lat="45.0265727" lon="7.8316534"><ele>305.0</ele><time>2026-04-05T08:32:13.258Z</time></trkpt><trkpt lat="45.0266875" lon="7.8316931"><ele>305.0</ele><time>2026-04-05T08:32:14.258Z</time></trkpt><trkpt lat="45.0268178" lon="7.8317388"><ele>305.0</ele><time>2026-04-05T08:32:15.258Z</time></trkpt><trkpt lat="45.0269593" lon="7.8317883"><ele>303.75</ele><time>2026-04-05T08:32:16.258Z</time></trkpt><trkpt lat="45.027105" lon="7.8318459"><ele>302.5</ele><time>2026-04-05T08:32:17.258Z</time></trkpt><trkpt lat="45.0272452" lon="7.8319074"><ele>301.25</ele><time>2026-04-05T08:32:18.258Z</time></trkpt><trkpt lat="45.0273814" lon="7.8319771"><ele>300.0</ele><time>2026-04-05T08:32:19.258Z</time></trkpt><trkpt lat="45.0275142" lon="7.832074"><ele>300.0</ele><time>2026-04-05T08:32:20.258Z</time></trkpt><trkpt lat="45.0276361" lon="7.8321937"><ele>300.0</ele><time>2026-04-05T08:32:21.258Z</time></trkpt><trkpt lat="45.0277533" lon="7.8323093"><ele>300.0</ele><time>2026-04-05T08:32:22.258Z</time></trkpt><trkpt lat="45.0278894" lon="7.8323835"><ele>300.0</ele><time>2026-04-05T08:32:23.258Z</time></trkpt><trkpt lat="45.0280484" lon="7.832428"><ele>300.0</ele><time>2026-04-05T08:32:24.258Z</time></trkpt><trkpt lat="45.0282163" lon="7.8324529"><ele>300.0</ele><time>2026-04-05T08:32:25.258Z</time></trkpt><trkpt lat="45.0283743" lon="7.832476"><ele>300.0</ele><time>2026-04-05T08:32:26.258Z</time></trkpt><trkpt lat="45.0285138" lon="7.8325009"><ele>300.5</ele><time>2026-04-05T08:32:27.258Z</time></trkpt><trkpt lat="45.0286263" lon="7.8325235"><ele>301.0</ele><time>2026-04-05T08:32:28.259Z</time></trkpt><trkpt lat="45.0287087" lon="7.8325387"><ele>301.5</ele><time>2026-04-05T08:32:29.259Z</time></trkpt><trkpt lat="45.0287732" lon="7.8325557"><ele>302.0</ele><time>2026-04-05T08:32:30.259Z</time></trkpt><trkpt lat="45.0290207" lon="7.8325814"><ele>302.0</ele><time>2026-04-05T08:32:34.259Z</time></trkpt><trkpt lat="45.0291118" lon="7.8325305"><ele>302.0</ele><time>2026-04-05T08:32:35.259Z</time></trkpt><trkpt lat="45.0292167" lon="7.8324431"><ele>302.0</ele><time>2026-04-05T08:32:36.259Z</time></trkpt><trkpt lat="45.0293352" lon="7.8323277"><ele>302.0</ele><time>2026-04-05T08:32:37.259Z</time></trkpt><trkpt lat="45.0294557" lon="7.8321895"><ele>303.33333333333337</ele><time>2026-04-05T08:32:38.259Z</time></trkpt><trkpt lat="45.0295699" lon="7.8320334"><ele>304.6666666666667</ele><time>2026-04-05T08:32:39.259Z</time></trkpt><trkpt lat="45.0296872" lon="7.8318719"><ele>306.0</ele><time>2026-04-05T08:32:40.259Z</time></trkpt><trkpt lat="45.0298179" lon="7.8317156"><ele>306.0</ele><time>2026-04-05T08:32:41.259Z</time></trkpt><trkpt lat="45.0299597" lon="7.8315518"><ele>306.0</ele><time>2026-04-05T08:32:42.259Z</time></trkpt><trkpt lat="45.030108" lon="7.83138"><ele>306.0</ele><time>2026-04-05T08:32:43.259Z</time></trkpt><trkpt lat="45.0302559" lon="7.8312338"><ele>306.3333333333333</ele><time>2026-04-05T08:32:44.259Z</time></trkpt><trkpt lat="45.0304051" lon="7.8311105"><ele>306.66666666666663</ele><time>2026-04-05T08:32:45.259Z</time></trkpt><trkpt lat="45.0305547" lon="7.8310146"><ele>307.0</ele><time>2026-04-05T08:32:46.259Z</time></trkpt><trkpt lat="45.030709" lon="7.8309364"><ele>308.66666666666663</ele><time>2026-04-05T08:32:47.259Z</time></trkpt><trkpt lat="45.0308746" lon="7.8308885"><ele>310.3333333333333</ele><time>2026-04-05T08:32:48.259Z</time></trkpt><trkpt lat="45.0310382" lon="7.8308465"><ele>312.0</ele><time>2026-04-05T08:32:49.259Z</time></trkpt><trkpt lat="45.0311914" lon="7.8307931"><ele>312.0</ele><time>2026-04-05T08:32:50.259Z</time></trkpt><trkpt lat="45.0313329" lon="7.8307258"><ele>312.0</ele><time>2026-04-05T08:32:51.259Z</time></trkpt><trkpt lat="45.0316071" lon="7.8306106"><ele>312.0</ele><time>2026-04-05T08:32:53.259Z</time></trkpt><trkpt lat="45.03174" lon="7.8305714"><ele>313.5</ele><time>2026-04-05T08:32:54.259Z</time></trkpt><trkpt lat="45.0318713" lon="7.8305331"><ele>315.0</ele><time>2026-04-05T08:32:55.259Z</time></trkpt><trkpt lat="45.0319918" lon="7.8305021"><ele>316.5</ele><time>2026-04-05T08:32:56.259Z</time></trkpt><trkpt lat="45.0321162" lon="7.8304704"><ele>318.0</ele><time>2026-04-05T08:32:57.259Z</time></trkpt><trkpt lat="45.0322309" lon="7.8304391"><ele>318.0</ele><time>2026-04-05T08:32:58.259Z</time></trkpt><trkpt lat="45.0323539" lon="7.8304022"><ele>318.0</ele><time>2026-04-05T08:32:59.259Z</time></trkpt><trkpt lat="45.0324836" lon="7.8303648"><ele>318.0</ele><time>2026-04-05T08:33:00.259Z</time></trkpt><trkpt lat="45.0326184" lon="7.8303303"><ele>318.0</ele><time>2026-04-05T08:33:01.259Z</time></trkpt><trkpt lat="45.032756" lon="7.8302936"><ele>318.0</ele><time>2026-04-05T08:33:02.259Z</time></trkpt><trkpt lat="45.0329003" lon="7.8302512"><ele>318.0</ele><time>2026-04-05T08:33:03.259Z</time></trkpt><trkpt lat="45.033041" lon="7.8302138"><ele>318.0</ele><time>2026-04-05T08:33:04.259Z</time></trkpt><trkpt lat="45.0331878" lon="7.8301729"><ele>318.0</ele><time>2026-04-05T08:33:05.259Z</time></trkpt><trkpt lat="45.0333265" lon="7.8301354"><ele>318.0</ele><time>2026-04-05T08:33:06.259Z</time></trkpt><trkpt lat="45.0334473" lon="7.8301055"><ele>318.0</ele><time>2026-04-05T08:33:07.259Z</time></trkpt><trkpt lat="45.0335587" lon="7.8300742"><ele>318.0</ele><time>2026-04-05T08:33:08.259Z</time></trkpt><trkpt lat="45.0336643" lon="7.8300432"><ele>318.0</ele><time>2026-04-05T08:33:09.259Z</time></trkpt><trkpt lat="45.0337722" lon="7.8300057"><ele>318.0</ele><time>2026-04-05T08:33:10.259Z</time></trkpt><trkpt lat="45.0338857" lon="7.8299696"><ele>318.0</ele><time>2026-04-05T08:33:11.259Z</time></trkpt><trkpt lat="45.034015" lon="7.8299373"><ele>318.0</ele><time>2026-04-05T08:33:12.259Z</time></trkpt><trkpt lat="45.0342491" lon="7.8298471"><ele>318.8</ele><time>2026-04-05T08:33:14.259Z</time></trkpt><trkpt lat="45.034352" lon="7.8297974"><ele>319.6</ele><time>2026-04-05T08:33:15.259Z</time></trkpt><trkpt lat="45.0344508" lon="7.8297353"><ele>320.40000000000003</ele><time>2026-04-05T08:33:16.259Z</time></trkpt><trkpt lat="45.0345468" lon="7.8296645"><ele>321.20000000000005</ele><time>2026-04-05T08:33:17.259Z</time></trkpt><trkpt lat="45.0346411" lon="7.829591"><ele>322.0</ele><time>2026-04-05T08:33:18.259Z</time></trkpt><trkpt lat="45.0347236" lon="7.8295088"><ele>322.0</ele><time>2026-04-05T08:33:19.259Z</time></trkpt><trkpt lat="45.034799" lon="7.8294224"><ele>322.0</ele><time>2026-04-05T08:33:20.259Z</time></trkpt><trkpt lat="45.0348796" lon="7.8293326"><ele>322.0</ele><time>2026-04-05T08:33:21.259Z</time></trkpt><trkpt lat="45.0349617" lon="7.829244"><ele>322.0</ele><time>2026-04-05T08:33:22.259Z</time></trkpt><trkpt lat="45.0350519" lon="7.8291572"><ele>322.0</ele><time>2026-04-05T08:33:23.259Z</time></trkpt><trkpt lat="45.0351494" lon="7.8290708"><ele>323.0</ele><time>2026-04-05T08:33:24.259Z</time></trkpt><trkpt lat="45.0352493" lon="7.8289874"><ele>324.0</ele><time>2026-04-05T08:33:25.259Z</time></trkpt><trkpt lat="45.0353598" lon="7.828914"><ele>325.0</ele><time>2026-04-05T08:33:26.259Z</time></trkpt><trkpt lat="45.0354756" lon="7.8288338"><ele>326.0</ele><time>2026-04-05T08:33:27.259Z</time></trkpt><trkpt lat="45.035601" lon="7.828754"><ele>326.0</ele><time>2026-04-05T08:33:28.259Z</time></trkpt><trkpt lat="45.0357247" lon="7.8286738"><ele>326.0</ele><time>2026-04-05T08:33:29.259Z</time></trkpt><trkpt lat="45.0358511" lon="7.8285955"><ele>326.0</ele><time>2026-04-05T08:33:30.259Z</time></trkpt><trkpt lat="45.0359813" lon="7.8285163"><ele>326.0</ele><time>2026-04-05T08:33:31.259Z</time></trkpt><trkpt lat="45.0361033" lon="7.8284474"><ele>326.0</ele><time>2026-04-05T08:33:32.259Z</time></trkpt><trkpt lat="45.0362174" lon="7.828375"><ele>326.0</ele><time>2026-04-05T08:33:33.259Z</time></trkpt><trkpt lat="45.0364158" lon="7.8282358"><ele>326.0</ele><time>2026-04-05T08:33:35.259Z</time></trkpt><trkpt lat="45.0365031" lon="7.8281756"><ele>326.0</ele><time>2026-04-05T08:33:36.259Z</time></trkpt><trkpt lat="45.0365821" lon="7.8281144"><ele>327.0</ele><time>2026-04-05T08:33:37.259Z</time></trkpt><trkpt lat="45.0366558" lon="7.8280651"><ele>328.0</ele><time>2026-04-05T08:33:38.259Z</time></trkpt><trkpt lat="45.0367396" lon="7.8280481"><ele>329.0</ele><time>2026-04-05T08:33:39.259Z</time></trkpt><trkpt lat="45.0368296" lon="7.8280689"><ele>330.0</ele><time>2026-04-05T08:33:40.259Z</time></trkpt><trkpt lat="45.036928" lon="7.8281091"><ele>331.0</ele><time>2026-04-05T08:33:41.259Z</time></trkpt><trkpt lat="45.0370327" lon="7.8281587"><ele>331.0</ele><time>2026-04-05T08:33:42.259Z</time></trkpt><trkpt lat="45.0371469" lon="7.828217"><ele>331.0</ele><time>2026-04-05T08:33:43.259Z</time></trkpt><trkpt lat="45.0372647" lon="7.8282686"><ele>331.0</ele><time>2026-04-05T08:33:44.259Z</time></trkpt><trkpt lat="45.0373799" lon="7.8283252"><ele>331.0</ele><time>2026-04-05T08:33:45.259Z</time></trkpt><trkpt lat="45.0375003" lon="7.8283826"><ele>332.0</ele><time>2026-04-05T08:33:46.259Z</time></trkpt><trkpt lat="45.0376259" lon="7.8284373"><ele>333.0</ele><time>2026-04-05T08:33:47.259Z</time></trkpt><trkpt lat="45.0377531" lon="7.8284969"><ele>334.0</ele><time>2026-04-05T08:33:48.259Z</time></trkpt><trkpt lat="45.0378807" lon="7.8285574"><ele>335.0</ele><time>2026-04-05T08:33:49.259Z</time></trkpt><trkpt lat="45.0380116" lon="7.8286245"><ele>336.75</ele><time>2026-04-05T08:33:50.259Z</time></trkpt><trkpt lat="45.0381335" lon="7.8286905"><ele>338.5</ele><time>2026-04-05T08:33:51.259Z</time></trkpt><trkpt lat="45.0382512" lon="7.8287572"><ele>340.25</ele><time>2026-04-05T08:33:52.258Z</time></trkpt><trkpt lat="45.0383703" lon="7.828835"><ele>342.0</ele><time>2026-04-05T08:33:53.259Z</time></trkpt><trkpt lat="45.0384936" lon="7.8289081"><ele>343.0</ele><time>2026-04-05T08:33:54.259Z</time></trkpt><trkpt lat="45.0387359" lon="7.8290408"><ele>344.0</ele><time>2026-04-05T08:33:56.259Z</time></trkpt><trkpt lat="45.0388663" lon="7.8290999"><ele>345.0</ele><time>2026-04-05T08:33:57.259Z</time></trkpt><trkpt lat="45.0389979" lon="7.8291493"><ele>345.0</ele><time>2026-04-05T08:33:58.258Z</time></trkpt><trkpt lat="45.0391248" lon="7.8291906"><ele>345.0</ele><time>2026-04-05T08:33:59.259Z</time></trkpt><trkpt lat="45.0392391" lon="7.8292327"><ele>345.0</ele><time>2026-04-05T08:34:00.259Z</time></trkpt><trkpt lat="45.0393621" lon="7.8292814"><ele>345.0</ele><time>2026-04-05T08:34:01.259Z</time></trkpt><trkpt lat="45.0394941" lon="7.829326"><ele>348.0</ele><time>2026-04-05T08:34:02.259Z</time></trkpt><trkpt lat="45.0396287" lon="7.8293554"><ele>351.0</ele><time>2026-04-05T08:34:03.259Z</time></trkpt><trkpt lat="45.0397579" lon="7.8293708"><ele>354.0</ele><time>2026-04-05T08:34:04.259Z</time></trkpt><trkpt lat="45.0398848" lon="7.8293697"><ele>357.0</ele><time>2026-04-05T08:34:05.259Z</time></trkpt><trkpt lat="45.040008" lon="7.829354"><ele>357.5</ele><time>2026-04-05T08:34:06.259Z</time></trkpt><trkpt lat="45.040117" lon="7.8293195"><ele>358.0</ele><time>2026-04-05T08:34:07.259Z</time></trkpt><trkpt lat="45.0402298" lon="7.8292629"><ele>358.5</ele><time>2026-04-05T08:34:08.259Z</time></trkpt><trkpt lat="45.0403405" lon="7.8291828"><ele>359.0</ele><time>2026-04-05T08:34:09.259Z</time></trkpt><trkpt lat="45.0404568" lon="7.8290946"><ele>359.0</ele><time>2026-04-05T08:34:10.259Z</time></trkpt><trkpt lat="45.0405709" lon="7.8290025"><ele>359.0</ele><time>2026-04-05T08:34:11.259Z</time></trkpt><trkpt lat="45.0406853" lon="7.8289188"><ele>359.0</ele><time>2026-04-05T08:34:12.259Z</time></trkpt><trkpt lat="45.0407984" lon="7.8288405"><ele>359.0</ele><time>2026-04-05T08:34:13.259Z</time></trkpt><trkpt lat="45.0409104" lon="7.8287669"><ele>362.0</ele><time>2026-04-05T08:34:14.259Z</time></trkpt><trkpt lat="45.0410219" lon="7.8286917"><ele>365.0</ele><time>2026-04-05T08:34:15.259Z</time></trkpt><trkpt lat="45.0412262" lon="7.8285541"><ele>368.0</ele><time>2026-04-05T08:34:17.259Z</time></trkpt><trkpt lat="45.0413325" lon="7.8285029"><ele>367.59999999999997</ele><time>2026-04-05T08:34:18.259Z</time></trkpt><trkpt lat="45.0414436" lon="7.8284531"><ele>367.2</ele><time>2026-04-05T08:34:19.259Z</time></trkpt><trkpt lat="45.0415473" lon="7.8284092"><ele>366.8</ele><time>2026-04-05T08:34:20.258Z</time></trkpt><trkpt lat="45.0416451" lon="7.8283703"><ele>366.4</ele><time>2026-04-05T08:34:21.259Z</time></trkpt><trkpt lat="45.0417416" lon="7.8283508"><ele>366.0</ele><time>2026-04-05T08:34:22.259Z</time></trkpt><trkpt lat="45.0418445" lon="7.8283449"><ele>368.0</ele><time>2026-04-05T08:34:23.259Z</time></trkpt><trkpt lat="45.0419506" lon="7.8283489"><ele>370.0</ele><time>2026-04-05T08:34:24.259Z</time></trkpt><trkpt lat="45.0420561" lon="7.8283635"><ele>372.0</ele><time>2026-04-05T08:34:25.259Z</time></trkpt><trkpt lat="45.0421537" lon="7.8283768"><ele>374.0</ele><time>2026-04-05T08:34:26.259Z</time></trkpt><trkpt lat="45.042255" lon="7.8283846"><ele>376.0</ele><time>2026-04-05T08:34:27.259Z</time></trkpt><trkpt lat="45.0423476" lon="7.8283836"><ele>376.0</ele><time>2026-04-05T08:34:28.259Z</time></trkpt><trkpt lat="45.0424479" lon="7.8283554"><ele>376.0</ele><time>2026-04-05T08:34:29.259Z</time></trkpt><trkpt lat="45.0425538" lon="7.8282995"><ele>376.0</ele><time>2026-04-05T08:34:30.259Z</time></trkpt><trkpt lat="45.0426461" lon="7.8282215"><ele>376.0</ele><time>2026-04-05T08:34:31.259Z</time></trkpt><trkpt lat="45.0427332" lon="7.8281347"><ele>376.0</ele><time>2026-04-05T08:34:32.259Z</time></trkpt><trkpt lat="45.0428179" lon="7.8280372"><ele>374.75</ele><time>2026-04-05T08:34:33.259Z</time></trkpt><trkpt lat="45.0428979" lon="7.8279349"><ele>373.5</ele><time>2026-04-05T08:34:34.259Z</time></trkpt><trkpt lat="45.0429834" lon="7.8278202"><ele>372.25</ele><time>2026-04-05T08:34:35.259Z</time></trkpt><trkpt lat="45.0430793" lon="7.8277191"><ele>371.0</ele><time>2026-04-05T08:34:36.259Z</time></trkpt><trkpt lat="45.0433186" lon="7.827633"><ele>367.5</ele><time>2026-04-05T08:34:38.259Z</time></trkpt><trkpt lat="45.043419" lon="7.8276494"><ele>364.0</ele><time>2026-04-05T08:34:39.259Z</time></trkpt><trkpt lat="45.0435324" lon="7.8276735"><ele>360.5</ele><time>2026-04-05T08:34:40.259Z</time></trkpt><trkpt lat="45.0436527" lon="7.8276836"><ele>357.0</ele><time>2026-04-05T08:34:41.259Z</time></trkpt><trkpt lat="45.0437738" lon="7.8276719"><ele>357.8</ele><time>2026-04-05T08:34:42.259Z</time></trkpt><trkpt lat="45.0438881" lon="7.8276353"><ele>358.6</ele><time>2026-04-05T08:34:43.259Z</time></trkpt><trkpt lat="45.0439988" lon="7.8275833"><ele>359.40000000000003</ele><time>2026-04-05T08:34:44.259Z</time></trkpt><trkpt lat="45.0441019" lon="7.8275318"><ele>360.20000000000005</ele><time>2026-04-05T08:34:45.259Z</time></trkpt><trkpt lat="45.0441992" lon="7.8274797"><ele>361.0</ele><time>2026-04-05T08:34:46.259Z</time></trkpt><trkpt lat="45.0442949" lon="7.8274279"><ele>361.0</ele><time>2026-04-05T08:34:47.259Z</time></trkpt><trkpt lat="45.044378" lon="7.8273487"><ele>361.0</ele><time>2026-04-05T08:34:48.259Z</time></trkpt><trkpt lat="45.0444514" lon="7.8272387"><ele>361.0</ele><time>2026-04-05T08:34:49.259Z</time></trkpt><trkpt lat="45.0445223" lon="7.827111"><ele>361.0</ele><time>2026-04-05T08:34:50.259Z</time></trkpt><trkpt lat="45.0445946" lon="7.8269679"><ele>361.0</ele><time>2026-04-05T08:34:51.259Z</time></trkpt><trkpt lat="45.0446686" lon="7.8268165"><ele>359.75</ele><time>2026-04-05T08:34:52.259Z</time></trkpt><trkpt lat="45.0447468" lon="7.82667"><ele>358.5</ele><time>2026-04-05T08:34:53.259Z</time></trkpt><trkpt lat="45.0448352" lon="7.8265362"><ele>357.25</ele><time>2026-04-05T08:34:54.259Z</time></trkpt><trkpt lat="45.0449217" lon="7.8264071"><ele>356.0</ele><time>2026-04-05T08:34:55.259Z</time></trkpt><trkpt lat="45.0450246" lon="7.8262824"><ele>356.0</ele><time>2026-04-05T08:34:56.259Z</time></trkpt><trkpt lat="45.0451288" lon="7.826159"><ele>356.0</ele><time>2026-04-05T08:34:57.259Z</time></trkpt><trkpt lat="45.0453367" lon="7.8259217"><ele>356.0</ele><time>2026-04-05T08:34:59.259Z</time></trkpt><trkpt lat="45.0454363" lon="7.8258035"><ele>358.5</ele><time>2026-04-05T08:35:00.259Z</time></trkpt><trkpt lat="45.0455319" lon="7.825691"><ele>361.0</ele><time>2026-04-05T08:35:01.259Z</time></trkpt><trkpt lat="45.0456184" lon="7.8255783"><ele>363.5</ele><time>2026-04-05T08:35:02.259Z</time></trkpt><trkpt lat="45.0457101" lon="7.8254786"><ele>366.0</ele><time>2026-04-05T08:35:03.259Z</time></trkpt><trkpt lat="45.0458124" lon="7.8254017"><ele>360.5</ele><time>2026-04-05T08:35:04.259Z</time></trkpt><trkpt lat="45.0459252" lon="7.8253661"><ele>355.0</ele><time>2026-04-05T08:35:05.259Z</time></trkpt><trkpt lat="45.0460454" lon="7.8253616"><ele>349.5</ele><time>2026-04-05T08:35:06.259Z</time></trkpt><trkpt lat="45.0461634" lon="7.8253874"><ele>344.0</ele><time>2026-04-05T08:35:07.259Z</time></trkpt><trkpt lat="45.0462669" lon="7.8254305"><ele>344.0</ele><time>2026-04-05T08:35:08.259Z</time></trkpt><trkpt lat="45.046372" lon="7.8254648"><ele>344.0</ele><time>2026-04-05T08:35:09.259Z</time></trkpt><trkpt lat="45.0464763" lon="7.8254891"><ele>344.0</ele><time>2026-04-05T08:35:10.259Z</time></trkpt><trkpt lat="45.0465782" lon="7.8254915"><ele>344.0</ele><time>2026-04-05T08:35:11.259Z</time></trkpt><trkpt lat="45.0466732" lon="7.8254614"><ele>344.0</ele><time>2026-04-05T08:35:12.259Z</time></trkpt><trkpt lat="45.046761" lon="7.8253996"><ele>344.25</ele><time>2026-04-05T08:35:13.259Z</time></trkpt><trkpt lat="45.0468477" lon="7.8253008"><ele>344.5</ele><time>2026-04-05T08:35:14.259Z</time></trkpt><trkpt lat="45.0469194" lon="7.8251726"><ele>344.75</ele><time>2026-04-05T08:35:15.259Z</time></trkpt><trkpt lat="45.0469902" lon="7.8250192"><ele>345.0</ele><time>2026-04-05T08:35:16.259Z</time></trkpt><trkpt lat="45.0470701" lon="7.824858"><ele>345.0</ele><time>2026-04-05T08:35:17.259Z</time></trkpt><trkpt lat="45.0471567" lon="7.8247094"><ele>345.0</ele><time>2026-04-05T08:35:18.259Z</time></trkpt><trkpt lat="45.0473436" lon="7.8244831"><ele>345.0</ele><time>2026-04-05T08:35:20.259Z</time></trkpt><trkpt lat="45.04745" lon="7.8244056"><ele>343.5</ele><time>2026-04-05T08:35:21.259Z</time></trkpt><trkpt lat="45.0475646" lon="7.8243505"><ele>342.0</ele><time>2026-04-05T08:35:22.259Z</time></trkpt><trkpt lat="45.0476828" lon="7.8243134"><ele>340.5</ele><time>2026-04-05T08:35:23.259Z</time></trkpt><trkpt lat="45.0478014" lon="7.8242958"><ele>339.0</ele><time>2026-04-05T08:35:24.259Z</time></trkpt><trkpt lat="45.0479264" lon="7.8243055"><ele>337.5</ele><time>2026-04-05T08:35:25.258Z</time></trkpt><trkpt lat="45.0480515" lon="7.8243441"><ele>336.0</ele><time>2026-04-05T08:35:26.259Z</time></trkpt><trkpt lat="45.0481752" lon="7.8244082"><ele>334.5</ele><time>2026-04-05T08:35:27.259Z</time></trkpt><trkpt lat="45.048291" lon="7.8244858"><ele>333.0</ele><time>2026-04-05T08:35:28.259Z</time></trkpt><trkpt lat="45.0483958" lon="7.8245743"><ele>331.5</ele><time>2026-04-05T08:35:29.259Z</time></trkpt><trkpt lat="45.0485089" lon="7.8246625"><ele>330.0</ele><time>2026-04-05T08:35:30.259Z</time></trkpt><trkpt lat="45.0486189" lon="7.8247456"><ele>328.5</ele><time>2026-04-05T08:35:31.259Z</time></trkpt><trkpt lat="45.0487329" lon="7.8248332"><ele>327.0</ele><time>2026-04-05T08:35:32.258Z</time></trkpt><trkpt lat="45.0488502" lon="7.8249151"><ele>327.0</ele><time>2026-04-05T08:35:33.259Z</time></trkpt><trkpt lat="45.0489683" lon="7.8249979"><ele>327.0</ele><time>2026-04-05T08:35:34.259Z</time></trkpt><trkpt lat="45.0490786" lon="7.8250758"><ele>327.0</ele><time>2026-04-05T08:35:35.259Z</time></trkpt><trkpt lat="45.0491841" lon="7.8251517"><ele>327.0</ele><time>2026-04-05T08:35:36.259Z</time></trkpt><trkpt lat="45.0492928" lon="7.8252252"><ele>325.5</ele><time>2026-04-05T08:35:37.259Z</time></trkpt><trkpt lat="45.0493998" lon="7.8252972"><ele>324.0</ele><time>2026-04-05T08:35:38.259Z</time></trkpt><trkpt lat="45.0495021" lon="7.8253636"><ele>322.5</ele><time>2026-04-05T08:35:39.258Z</time></trkpt><trkpt lat="45.049696" lon="7.8254991"><ele>321.0</ele><time>2026-04-05T08:35:41.259Z</time></trkpt><trkpt lat="45.0497944" lon="7.8255647"><ele>321.0</ele><time>2026-04-05T08:35:42.259Z</time></trkpt><trkpt lat="45.0498913" lon="7.8256299"><ele>321.0</ele><time>2026-04-05T08:35:43.259Z</time></trkpt><trkpt lat="45.0499883" lon="7.8257086"><ele>321.0</ele><time>2026-04-05T08:35:44.259Z</time></trkpt><trkpt lat="45.050072" lon="7.8257986"><ele>321.0</ele><time>2026-04-05T08:35:45.259Z</time></trkpt><trkpt lat="45.0501304" lon="7.8259125"><ele>321.0</ele><time>2026-04-05T08:35:46.259Z</time></trkpt><trkpt lat="45.0501697" lon="7.8260405"><ele>321.0</ele><time>2026-04-05T08:35:47.259Z</time></trkpt><trkpt lat="45.0501726" lon="7.8261759"><ele>321.0</ele><time>2026-04-05T08:35:48.259Z</time></trkpt><trkpt lat="45.0501566" lon="7.8263105"><ele>321.0</ele><time>2026-04-05T08:35:49.259Z</time></trkpt><trkpt lat="45.0501367" lon="7.8264486"><ele>321.0</ele><time>2026-04-05T08:35:50.259Z</time></trkpt><trkpt lat="45.050117" lon="7.8265733"><ele>321.0</ele><time>2026-04-05T08:35:51.259Z</time></trkpt><trkpt lat="45.0500986" lon="7.8266879"><ele>321.0</ele><time>2026-04-05T08:35:52.259Z</time></trkpt><trkpt lat="45.0500958" lon="7.8267905"><ele>321.0</ele><time>2026-04-05T08:35:53.259Z</time></trkpt><trkpt lat="45.0501041" lon="7.8269541"><ele>321.0</ele><time>2026-04-05T08:35:55.259Z</time></trkpt><trkpt lat="45.0500747" lon="7.8270838"><ele>321.0</ele><time>2026-04-05T08:35:57.259Z</time></trkpt><trkpt lat="45.0499941" lon="7.827167"><ele>321.0</ele><time>2026-04-05T08:35:59.259Z</time></trkpt><trkpt lat="45.049862" lon="7.8271807"><ele>320.0</ele><time>2026-04-05T08:36:01.259Z</time></trkpt><trkpt lat="45.0496659" lon="7.8272165"><ele>319.0</ele><time>2026-04-05T08:36:03.259Z</time></trkpt><trkpt lat="45.0495593" lon="7.8272541"><ele>318.0</ele><time>2026-04-05T08:36:04.259Z</time></trkpt><trkpt lat="45.0494591" lon="7.8273183"><ele>317.0</ele><time>2026-04-05T08:36:05.259Z</time></trkpt><trkpt lat="45.049362" lon="7.8273905"><ele>317.0</ele><time>2026-04-05T08:36:06.259Z</time></trkpt><trkpt lat="45.0492565" lon="7.8274679"><ele>317.0</ele><time>2026-04-05T08:36:07.259Z</time></trkpt><trkpt lat="45.0491659" lon="7.8275537"><ele>317.0</ele><time>2026-04-05T08:36:08.258Z</time></trkpt><trkpt lat="45.0490859" lon="7.8276335"><ele>317.0</ele><time>2026-04-05T08:36:09.259Z</time></trkpt><trkpt lat="45.0490042" lon="7.8277164"><ele>317.0</ele><time>2026-04-05T08:36:10.259Z</time></trkpt><trkpt lat="45.0489215" lon="7.8278062"><ele>317.6</ele><time>2026-04-05T08:36:11.259Z</time></trkpt><trkpt lat="45.0488381" lon="7.827888"><ele>318.2</ele><time>2026-04-05T08:36:12.259Z</time></trkpt><trkpt lat="45.0487566" lon="7.8279722"><ele>318.8</ele><time>2026-04-05T08:36:13.259Z</time></trkpt><trkpt lat="45.0486659" lon="7.828059"><ele>319.4</ele><time>2026-04-05T08:36:14.259Z</time></trkpt><trkpt lat="45.0485757" lon="7.8281499"><ele>320.0</ele><time>2026-04-05T08:36:15.259Z</time></trkpt><trkpt lat="45.0484829" lon="7.8282396"><ele>320.0</ele><time>2026-04-05T08:36:16.259Z</time></trkpt><trkpt lat="45.0483879" lon="7.8283361"><ele>320.0</ele><time>2026-04-05T08:36:17.259Z</time></trkpt><trkpt lat="45.0482892" lon="7.8284184"><ele>320.0</ele><time>2026-04-05T08:36:18.259Z</time></trkpt><trkpt lat="45.0481942" lon="7.8285024"><ele>320.0</ele><time>2026-04-05T08:36:19.259Z</time></trkpt><trkpt lat="45.0481031" lon="7.8285894"><ele>319.75</ele><time>2026-04-05T08:36:20.259Z</time></trkpt><trkpt lat="45.0480121" lon="7.8286729"><ele>319.5</ele><time>2026-04-05T08:36:21.259Z</time></trkpt><trkpt lat="45.0479299" lon="7.8287651"><ele>319.25</ele><time>2026-04-05T08:36:22.259Z</time></trkpt><trkpt lat="45.0477983" lon="7.828979"><ele>319.0</ele><time>2026-04-05T08:36:24.259Z</time></trkpt><trkpt lat="45.0477299" lon="7.8290999"><ele>319.0</ele><time>2026-04-05T08:36:25.259Z</time></trkpt><trkpt lat="45.0476497" lon="7.8292216"><ele>319.0</ele><time>2026-04-05T08:36:26.259Z</time></trkpt><trkpt lat="45.0475722" lon="7.8293479"><ele>319.0</ele><time>2026-04-05T08:36:27.259Z</time></trkpt><trkpt lat="45.0475096" lon="7.8294764"><ele>319.0</ele><time>2026-04-05T08:36:28.259Z</time></trkpt><trkpt lat="45.0474537" lon="7.8296083"><ele>318.2</ele><time>2026-04-05T08:36:29.259Z</time></trkpt><trkpt lat="45.0474022" lon="7.829745"><ele>317.4</ele><time>2026-04-05T08:36:30.259Z</time></trkpt><trkpt lat="45.0473597" lon="7.8298907"><ele>316.6</ele><time>2026-04-05T08:36:31.259Z</time></trkpt><trkpt lat="45.0473147" lon="7.8300317"><ele>315.8</ele><time>2026-04-05T08:36:32.259Z</time></trkpt><trkpt lat="45.047276" lon="7.8301825"><ele>315.0</ele><time>2026-04-05T08:36:33.259Z</time></trkpt><trkpt lat="45.0472524" lon="7.8303316"><ele>314.8</ele><time>2026-04-05T08:36:34.259Z</time></trkpt><trkpt lat="45.0472304" lon="7.8304738"><ele>314.6</ele><time>2026-04-05T08:36:35.259Z</time></trkpt><trkpt lat="45.0472072" lon="7.8305983"><ele>314.4</ele><time>2026-04-05T08:36:36.259Z</time></trkpt><trkpt lat="45.0471862" lon="7.8307012"><ele>314.2</ele><time>2026-04-05T08:36:37.259Z</time></trkpt><trkpt lat="45.0471786" lon="7.830852"><ele>314.0</ele><time>2026-04-05T08:36:39.259Z</time></trkpt><trkpt lat="45.047228" lon="7.8309293"><ele>314.2</ele><time>2026-04-05T08:36:41.259Z</time></trkpt><trkpt lat="45.0472958" lon="7.8310012"><ele>314.4</ele><time>2026-04-05T08:36:43.259Z</time></trkpt><trkpt lat="45.047447" lon="7.8311863"><ele>314.6</ele><time>2026-04-05T08:36:46.259Z</time></trkpt><trkpt lat="45.0475044" lon="7.8312404"><ele>314.8</ele><time>2026-04-05T08:36:47.259Z</time></trkpt><trkpt lat="45.0475589" lon="7.8312878"><ele>315.0</ele><time>2026-04-05T08:36:48.259Z</time></trkpt><trkpt lat="45.0476208" lon="7.8313281"><ele>316.5</ele><time>2026-04-05T08:36:49.259Z</time></trkpt><trkpt lat="45.0476938" lon="7.8313591"><ele>318.0</ele><time>2026-04-05T08:36:50.259Z</time></trkpt><trkpt lat="45.0477736" lon="7.8313868"><ele>319.5</ele><time>2026-04-05T08:36:51.259Z</time></trkpt><trkpt lat="45.0478558" lon="7.8314103"><ele>321.0</ele><time>2026-04-05T08:36:52.259Z</time></trkpt><trkpt lat="45.0479234" lon="7.8314171"><ele>322.5</ele><time>2026-04-05T08:36:53.259Z</time></trkpt><trkpt lat="45.0479937" lon="7.8314053"><ele>324.0</ele><time>2026-04-05T08:36:54.259Z</time></trkpt><trkpt lat="45.0480725" lon="7.8313736"><ele>324.0</ele><time>2026-04-05T08:36:55.259Z</time></trkpt><trkpt lat="45.0481601" lon="7.8313296"><ele>324.0</ele><time>2026-04-05T08:36:56.259Z</time></trkpt><trkpt lat="45.0482505" lon="7.8312826"><ele>324.0</ele><time>2026-04-05T08:36:57.259Z</time></trkpt><trkpt lat="45.0483464" lon="7.8312391"><ele>324.0</ele><time>2026-04-05T08:36:58.259Z</time></trkpt><trkpt lat="45.0484412" lon="7.8312013"><ele>324.0</ele><time>2026-04-05T08:36:59.259Z</time></trkpt><trkpt lat="45.0485393" lon="7.8311671"><ele>325.79999999999995</ele><time>2026-04-05T08:37:00.259Z</time></trkpt><trkpt lat="45.0486325" lon="7.8311336"><ele>327.59999999999997</ele><time>2026-04-05T08:37:01.259Z</time></trkpt><trkpt lat="45.0487173" lon="7.8311016"><ele>329.4</ele><time>2026-04-05T08:37:02.259Z</time></trkpt><trkpt lat="45.0487941" lon="7.8310707"><ele>331.2</ele><time>2026-04-05T08:37:03.259Z</time></trkpt><trkpt lat="45.048869" lon="7.831034"><ele>333.0</ele><time>2026-04-05T08:37:04.258Z</time></trkpt><trkpt lat="45.049027" lon="7.8309526"><ele>333.3333333333333</ele><time>2026-04-05T08:37:06.259Z</time></trkpt><trkpt lat="45.049101" lon="7.8309134"><ele>333.6666666666667</ele><time>2026-04-05T08:37:07.259Z</time></trkpt><trkpt lat="45.0491751" lon="7.8308691"><ele>334.0</ele><time>2026-04-05T08:37:08.259Z</time></trkpt><trkpt lat="45.0492484" lon="7.8308306"><ele>334.33333333333337</ele><time>2026-04-05T08:37:09.259Z</time></trkpt><trkpt lat="45.049319" lon="7.8307821"><ele>334.6666666666667</ele><time>2026-04-05T08:37:10.259Z</time></trkpt><trkpt lat="45.0493863" lon="7.8307241"><ele>335.0</ele><time>2026-04-05T08:37:11.259Z</time></trkpt><trkpt lat="45.0494535" lon="7.8306592"><ele>336.6666666666667</ele><time>2026-04-05T08:37:12.259Z</time></trkpt><trkpt lat="45.0495293" lon="7.8305975"><ele>338.33333333333337</ele><time>2026-04-05T08:37:13.259Z</time></trkpt><trkpt lat="45.049606" lon="7.8305439"><ele>340.0</ele><time>2026-04-05T08:37:14.259Z</time></trkpt><trkpt lat="45.049678" lon="7.8304955"><ele>341.6666666666667</ele><time>2026-04-05T08:37:15.259Z</time></trkpt><trkpt lat="45.049761" lon="7.8304586"><ele>343.3333333333333</ele><time>2026-04-05T08:37:16.259Z</time></trkpt><trkpt lat="45.0498361" lon="7.8304315"><ele>345.0</ele><time>2026-04-05T08:37:17.258Z</time></trkpt><trkpt lat="45.0499086" lon="7.8304109"><ele>346.1666666666667</ele><time>2026-04-05T08:37:18.259Z</time></trkpt><trkpt lat="45.0499868" lon="7.8303977"><ele>347.3333333333333</ele><time>2026-04-05T08:37:19.258Z</time></trkpt><trkpt lat="45.0500717" lon="7.8303846"><ele>348.5</ele><time>2026-04-05T08:37:20.259Z</time></trkpt><trkpt lat="45.050157" lon="7.8303768"><ele>349.66666666666663</ele><time>2026-04-05T08:37:21.258Z</time></trkpt><trkpt lat="45.0502372" lon="7.8303666"><ele>350.8333333333333</ele><time>2026-04-05T08:37:22.259Z</time></trkpt><trkpt lat="45.0503178" lon="7.8303615"><ele>352.0</ele><time>2026-04-05T08:37:23.258Z</time></trkpt><trkpt lat="45.0504166" lon="7.8303596"><ele>352.0</ele><time>2026-04-05T08:37:24.259Z</time></trkpt><trkpt lat="45.0505234" lon="7.8303563"><ele>352.0</ele><time>2026-04-05T08:37:25.259Z</time></trkpt><trkpt lat="45.0507125" lon="7.8303464"><ele>352.0</ele><time>2026-04-05T08:37:27.259Z</time></trkpt><trkpt lat="45.0507961" lon="7.8303398"><ele>352.0</ele><time>2026-04-05T08:37:28.259Z</time></trkpt><trkpt lat="45.0508793" lon="7.830335"><ele>352.66666666666663</ele><time>2026-04-05T08:37:29.259Z</time></trkpt><trkpt lat="45.0509642" lon="7.83033"><ele>353.3333333333333</ele><time>2026-04-05T08:37:30.259Z</time></trkpt><trkpt lat="45.0510502" lon="7.8303221"><ele>354.0</ele><time>2026-04-05T08:37:31.259Z</time></trkpt><trkpt lat="45.0511339" lon="7.830318"><ele>354.6666666666667</ele><time>2026-04-05T08:37:32.259Z</time></trkpt><trkpt lat="45.0512128" lon="7.8303134"><ele>355.33333333333337</ele><time>2026-04-05T08:37:33.259Z</time></trkpt><trkpt lat="45.0512911" lon="7.8303154"><ele>356.0</ele><time>2026-04-05T08:37:34.259Z</time></trkpt><trkpt lat="45.0513716" lon="7.8303211"><ele>356.0</ele><time>2026-04-05T08:37:35.259Z</time></trkpt><trkpt lat="45.0514547" lon="7.8303243"><ele>356.0</ele><time>2026-04-05T08:37:36.259Z</time></trkpt><trkpt lat="45.0515241" lon="7.8303266"><ele>356.0</ele><time>2026-04-05T08:37:37.259Z</time></trkpt><trkpt lat="45.0516231" lon="7.8303267"><ele>356.0</ele><time>2026-04-05T08:37:39.259Z</time></trkpt><trkpt lat="45.0517206" lon="7.830317"><ele>356.0</ele><time>2026-04-05T08:37:41.259Z</time></trkpt><trkpt lat="45.0517857" lon="7.8303158"><ele>356.0</ele><time>2026-04-05T08:37:42.259Z</time></trkpt><trkpt lat="45.0518613" lon="7.8303173"><ele>356.6</ele><time>2026-04-05T08:37:43.259Z</time></trkpt><trkpt lat="45.0519449" lon="7.8303193"><ele>357.20000000000005</ele><time>2026-04-05T08:37:44.259Z</time></trkpt><trkpt lat="45.0520251" lon="7.8303278"><ele>357.79999999999995</ele><time>2026-04-05T08:37:45.259Z</time></trkpt><trkpt lat="45.052104" lon="7.8303361"><ele>358.4</ele><time>2026-04-05T08:37:46.259Z</time></trkpt><trkpt lat="45.0522593" lon="7.8303572"><ele>359.0</ele><time>2026-04-05T08:37:48.259Z</time></trkpt><trkpt lat="45.0523388" lon="7.8303724"><ele>359.0</ele><time>2026-04-05T08:37:49.259Z</time></trkpt><trkpt lat="45.0524213" lon="7.8303909"><ele>359.0</ele><time>2026-04-05T08:37:50.259Z</time></trkpt><trkpt lat="45.0525112" lon="7.8304092"><ele>359.0</ele><time>2026-04-05T08:37:51.259Z</time></trkpt><trkpt lat="45.0526041" lon="7.8304255"><ele>359.0</ele><time>2026-04-05T08:37:52.259Z</time></trkpt><trkpt lat="45.0527103" lon="7.8304335"><ele>359.0</ele><time>2026-04-05T08:37:53.259Z</time></trkpt><trkpt lat="45.0528165" lon="7.8304425"><ele>359.2</ele><time>2026-04-05T08:37:54.259Z</time></trkpt><trkpt lat="45.0529112" lon="7.8304524"><ele>359.4</ele><time>2026-04-05T08:37:55.258Z</time></trkpt><trkpt lat="45.052992" lon="7.8304642"><ele>359.6</ele><time>2026-04-05T08:37:56.259Z</time></trkpt><trkpt lat="45.0530564" lon="7.8304695"><ele>359.8</ele><time>2026-04-05T08:37:57.259Z</time></trkpt><trkpt lat="45.0531514" lon="7.8305245"><ele>360.0</ele><time>2026-04-05T08:37:59.259Z</time></trkpt><trkpt lat="45.0531791" lon="7.8306853"><ele>360.0</ele><time>2026-04-05T08:38:01.259Z</time></trkpt><trkpt lat="45.0531959" lon="7.8307819"><ele>360.0</ele><time>2026-04-05T08:38:02.259Z</time></trkpt><trkpt lat="45.0532689" lon="7.8308975"><ele>360.0</ele><time>2026-04-05T08:38:04.259Z</time></trkpt><trkpt lat="45.053401" lon="7.8309067"><ele>360.0</ele><time>2026-04-05T08:38:06.259Z</time></trkpt><trkpt lat="45.0534742" lon="7.8309191"><ele>360.0</ele><time>2026-04-05T08:38:07.259Z</time></trkpt><trkpt lat="45.0536055" lon="7.8309423"><ele>361.3333333333333</ele><time>2026-04-05T08:38:09.258Z</time></trkpt><trkpt lat="45.0536767" lon="7.8309166"><ele>362.6666666666667</ele><time>2026-04-05T08:38:10.259Z</time></trkpt><trkpt lat="45.0537623" lon="7.83088"><ele>364.0</ele><time>2026-04-05T08:38:11.259Z</time></trkpt><trkpt lat="45.0538435" lon="7.8308483"><ele>365.33333333333337</ele><time>2026-04-05T08:38:12.259Z</time></trkpt><trkpt lat="45.0539237" lon="7.8308199"><ele>366.6666666666667</ele><time>2026-04-05T08:38:13.259Z</time></trkpt><trkpt lat="45.0540048" lon="7.8308177"><ele>368.0</ele><time>2026-04-05T08:38:14.259Z</time></trkpt><trkpt lat="45.0540896" lon="7.8308433"><ele>368.33333333333337</ele><time>2026-04-05T08:38:15.259Z</time></trkpt><trkpt lat="45.0541639" lon="7.8308924"><ele>368.6666666666667</ele><time>2026-04-05T08:38:16.259Z</time></trkpt><trkpt lat="45.0542292" lon="7.8309596"><ele>369.0</ele><time>2026-04-05T08:38:17.259Z</time></trkpt><trkpt lat="45.0542687" lon="7.8310387"><ele>369.3333333333333</ele><time>2026-04-05T08:38:18.259Z</time></trkpt><trkpt lat="45.0542899" lon="7.831143"><ele>369.66666666666663</ele><time>2026-04-05T08:38:19.259Z</time></trkpt><trkpt lat="45.0542953" lon="7.8312705"><ele>370.0</ele><time>2026-04-05T08:38:20.259Z</time></trkpt><trkpt lat="45.0542927" lon="7.8314166"><ele>367.75</ele><time>2026-04-05T08:38:21.259Z</time></trkpt><trkpt lat="45.0542754" lon="7.8315746"><ele>365.5</ele><time>2026-04-05T08:38:22.259Z</time></trkpt><trkpt lat="45.0542448" lon="7.8317394"><ele>363.25</ele><time>2026-04-05T08:38:23.259Z</time></trkpt><trkpt lat="45.0542169" lon="7.8319071"><ele>361.0</ele><time>2026-04-05T08:38:24.259Z</time></trkpt><trkpt lat="45.0541957" lon="7.8320695"><ele>358.25</ele><time>2026-04-05T08:38:25.259Z</time></trkpt><trkpt lat="45.0541924" lon="7.8322339"><ele>355.5</ele><time>2026-04-05T08:38:26.259Z</time></trkpt><trkpt lat="45.0542001" lon="7.8324069"><ele>352.75</ele><time>2026-04-05T08:38:27.259Z</time></trkpt><trkpt lat="45.0542156" lon="7.8325869"><ele>350.0</ele><time>2026-04-05T08:38:28.259Z</time></trkpt><trkpt lat="45.0542431" lon="7.8329242"><ele>348.8</ele><time>2026-04-05T08:38:30.259Z</time></trkpt><trkpt lat="45.05426" lon="7.8330773"><ele>347.6</ele><time>2026-04-05T08:38:31.259Z</time></trkpt><trkpt lat="45.0542742" lon="7.833205"><ele>346.4</ele><time>2026-04-05T08:38:32.259Z</time></trkpt><trkpt lat="45.0542824" lon="7.8333065"><ele>345.2</ele><time>2026-04-05T08:38:33.259Z</time></trkpt><trkpt lat="45.0543268" lon="7.833442"><ele>344.0</ele><time>2026-04-05T08:38:35.259Z</time></trkpt><trkpt lat="45.0544358" lon="7.8334776"><ele>344.0</ele><time>2026-04-05T08:38:37.259Z</time></trkpt><trkpt lat="45.0545768" lon="7.8334474"><ele>344.0</ele><time>2026-04-05T08:38:39.259Z</time></trkpt><trkpt lat="45.0546683" lon="7.8334391"><ele>344.0</ele><time>2026-04-05T08:38:40.259Z</time></trkpt><trkpt lat="45.0547591" lon="7.8334364"><ele>344.0</ele><time>2026-04-05T08:38:41.259Z</time></trkpt><trkpt lat="45.0548476" lon="7.8334478"><ele>344.0</ele><time>2026-04-05T08:38:42.259Z</time></trkpt><trkpt lat="45.0549271" lon="7.8334815"><ele>344.0</ele><time>2026-04-05T08:38:43.259Z</time></trkpt><trkpt lat="45.0549887" lon="7.833535"><ele>344.0</ele><time>2026-04-05T08:38:44.259Z</time></trkpt><trkpt lat="45.055043" lon="7.833614"><ele>344.0</ele><time>2026-04-05T08:38:45.259Z</time></trkpt><trkpt lat="45.0550788" lon="7.8337152"><ele>344.0</ele><time>2026-04-05T08:38:46.259Z</time></trkpt><trkpt lat="45.0550853" lon="7.8338244"><ele>344.0</ele><time>2026-04-05T08:38:47.259Z</time></trkpt><trkpt lat="45.0550656" lon="7.8339289"><ele>344.0</ele><time>2026-04-05T08:38:48.259Z</time></trkpt><trkpt lat="45.0550369" lon="7.8340233"><ele>343.2</ele><time>2026-04-05T08:38:49.259Z</time></trkpt><trkpt lat="45.0549175" lon="7.8341194"><ele>342.4</ele><time>2026-04-05T08:38:51.259Z</time></trkpt><trkpt lat="45.0548305" lon="7.8341517"><ele>341.6</ele><time>2026-04-05T08:38:52.259Z</time></trkpt><trkpt lat="45.0547402" lon="7.834182"><ele>340.8</ele><time>2026-04-05T08:38:53.259Z</time></trkpt><trkpt lat="45.054644" lon="7.8342214"><ele>340.0</ele><time>2026-04-05T08:38:54.259Z</time></trkpt><trkpt lat="45.0545437" lon="7.8342664"><ele>341.2</ele><time>2026-04-05T08:38:55.259Z</time></trkpt><trkpt lat="45.0544557" lon="7.8343134"><ele>342.4</ele><time>2026-04-05T08:38:56.259Z</time></trkpt><trkpt lat="45.0543719" lon="7.834368"><ele>343.6</ele><time>2026-04-05T08:38:57.259Z</time></trkpt><trkpt lat="45.0542963" lon="7.8344294"><ele>344.8</ele><time>2026-04-05T08:38:58.259Z</time></trkpt><trkpt lat="45.0542272" lon="7.8345062"><ele>346.0</ele><time>2026-04-05T08:38:59.259Z</time></trkpt><trkpt lat="45.05416" lon="7.8345944"><ele>346.6</ele><time>2026-04-05T08:39:00.259Z</time></trkpt><trkpt lat="45.054099" lon="7.8346932"><ele>347.20000000000005</ele><time>2026-04-05T08:39:01.259Z</time></trkpt><trkpt lat="45.0540496" lon="7.8348074"><ele>347.79999999999995</ele><time>2026-04-05T08:39:02.259Z</time></trkpt><trkpt lat="45.0539928" lon="7.8349307"><ele>348.4</ele><time>2026-04-05T08:39:03.259Z</time></trkpt><trkpt lat="45.0539477" lon="7.8350528"><ele>349.0</ele><time>2026-04-05T08:39:04.259Z</time></trkpt><trkpt lat="45.0539096" lon="7.8351816"><ele>349.0</ele><time>2026-04-05T08:39:05.259Z</time></trkpt><trkpt lat="45.0538867" lon="7.835323"><ele>349.0</ele><time>2026-04-05T08:39:06.259Z</time></trkpt><trkpt lat="45.0538804" lon="7.8354673"><ele>349.0</ele><time>2026-04-05T08:39:07.259Z</time></trkpt><trkpt lat="45.0538823" lon="7.8355938"><ele>349.0</ele><time>2026-04-05T08:39:08.259Z</time></trkpt><trkpt lat="45.0538879" lon="7.8356973"><ele>349.0</ele><time>2026-04-05T08:39:09.259Z</time></trkpt><trkpt lat="45.0538886" lon="7.8358048"><ele>349.0</ele><time>2026-04-05T08:39:11.259Z</time></trkpt><trkpt lat="45.0536762" lon="7.8359096"><ele>349.0</ele><time>2026-04-05T08:39:29.259Z</time></trkpt><trkpt lat="45.0535639" lon="7.835941"><ele>349.0</ele><time>2026-04-05T08:39:30.259Z</time></trkpt><trkpt lat="45.0534384" lon="7.8359687"><ele>349.0</ele><time>2026-04-05T08:39:31.259Z</time></trkpt><trkpt lat="45.0532985" lon="7.8359967"><ele>349.0</ele><time>2026-04-05T08:39:32.259Z</time></trkpt><trkpt lat="45.0530306" lon="7.8360655"><ele>350.79999999999995</ele><time>2026-04-05T08:39:34.259Z</time></trkpt><trkpt lat="45.0529157" lon="7.8360988"><ele>352.59999999999997</ele><time>2026-04-05T08:39:35.259Z</time></trkpt><trkpt lat="45.0528165" lon="7.8361347"><ele>354.4</ele><time>2026-04-05T08:39:36.259Z</time></trkpt><trkpt lat="45.0527213" lon="7.8361764"><ele>356.2</ele><time>2026-04-05T08:39:37.259Z</time></trkpt><trkpt lat="45.0526288" lon="7.836229"><ele>358.0</ele><time>2026-04-05T08:39:38.259Z</time></trkpt><trkpt lat="45.0525271" lon="7.8362922"><ele>356.75</ele><time>2026-04-05T08:39:39.259Z</time></trkpt><trkpt lat="45.0524192" lon="7.8363645"><ele>355.5</ele><time>2026-04-05T08:39:40.259Z</time></trkpt><trkpt lat="45.0522983" lon="7.8364568"><ele>354.25</ele><time>2026-04-05T08:39:41.259Z</time></trkpt><trkpt lat="45.0521824" lon="7.8365539"><ele>353.0</ele><time>2026-04-05T08:39:42.259Z</time></trkpt><trkpt lat="45.0520695" lon="7.8366355"><ele>353.0</ele><time>2026-04-05T08:39:43.259Z</time></trkpt><trkpt lat="45.0519585" lon="7.8367032"><ele>353.0</ele><time>2026-04-05T08:39:44.259Z</time></trkpt><trkpt lat="45.0518417" lon="7.8367617"><ele>353.0</ele><time>2026-04-05T08:39:45.259Z</time></trkpt><trkpt lat="45.0517202" lon="7.836808"><ele>353.0</ele><time>2026-04-05T08:39:46.259Z</time></trkpt><trkpt lat="45.0515937" lon="7.8368414"><ele>353.25</ele><time>2026-04-05T08:39:47.259Z</time></trkpt><trkpt lat="45.0514611" lon="7.8368741"><ele>353.5</ele><time>2026-04-05T08:39:48.259Z</time></trkpt><trkpt lat="45.051334" lon="7.836909"><ele>353.75</ele><time>2026-04-05T08:39:49.258Z</time></trkpt><trkpt lat="45.0512138" lon="7.8369398"><ele>354.0</ele><time>2026-04-05T08:39:50.259Z</time></trkpt><trkpt lat="45.0510968" lon="7.8369701"><ele>354.0</ele><time>2026-04-05T08:39:51.259Z</time></trkpt><trkpt lat="45.0509843" lon="7.8370007"><ele>354.0</ele><time>2026-04-05T08:39:52.259Z</time></trkpt><trkpt lat="45.0508806" lon="7.8370286"><ele>354.0</ele><time>2026-04-05T08:39:53.259Z</time></trkpt><trkpt lat="45.0506879" lon="7.837092"><ele>354.0</ele><time>2026-04-05T08:39:55.259Z</time></trkpt><trkpt lat="45.0505952" lon="7.8371234"><ele>355.6</ele><time>2026-04-05T08:39:56.259Z</time></trkpt><trkpt lat="45.0504941" lon="7.8371543"><ele>357.2</ele><time>2026-04-05T08:39:57.259Z</time></trkpt><trkpt lat="45.0503908" lon="7.8371816"><ele>358.8</ele><time>2026-04-05T08:39:58.259Z</time></trkpt><trkpt lat="45.0502905" lon="7.8372075"><ele>360.40000000000003</ele><time>2026-04-05T08:39:59.259Z</time></trkpt><trkpt lat="45.0501896" lon="7.8372422"><ele>362.0</ele><time>2026-04-05T08:40:00.259Z</time></trkpt><trkpt lat="45.0500915" lon="7.8372833"><ele>362.0</ele><time>2026-04-05T08:40:01.259Z</time></trkpt><trkpt lat="45.0499888" lon="7.8373205"><ele>362.0</ele><time>2026-04-05T08:40:02.259Z</time></trkpt><trkpt lat="45.0498819" lon="7.8373467"><ele>362.0</ele><time>2026-04-05T08:40:03.259Z</time></trkpt><trkpt lat="45.049769" lon="7.8373655"><ele>362.0</ele><time>2026-04-05T08:40:04.259Z</time></trkpt><trkpt lat="45.0496514" lon="7.8373801"><ele>362.0</ele><time>2026-04-05T08:40:05.259Z</time></trkpt><trkpt lat="45.0495267" lon="7.8374029"><ele>361.25</ele><time>2026-04-05T08:40:06.259Z</time></trkpt><trkpt lat="45.0494182" lon="7.8374261"><ele>360.5</ele><time>2026-04-05T08:40:07.259Z</time></trkpt><trkpt lat="45.0493022" lon="7.8374577"><ele>359.75</ele><time>2026-04-05T08:40:08.259Z</time></trkpt><trkpt lat="45.0491867" lon="7.8375094"><ele>359.0</ele><time>2026-04-05T08:40:09.259Z</time></trkpt><trkpt lat="45.0490585" lon="7.8375798"><ele>357.0</ele><time>2026-04-05T08:40:10.259Z</time></trkpt><trkpt lat="45.0489202" lon="7.8376658"><ele>355.0</ele><time>2026-04-05T08:40:11.259Z</time></trkpt><trkpt lat="45.0487612" lon="7.8377592"><ele>353.0</ele><time>2026-04-05T08:40:12.259Z</time></trkpt><trkpt lat="45.0486133" lon="7.8378615"><ele>353.0</ele><time>2026-04-05T08:40:13.259Z</time></trkpt><trkpt lat="45.048477" lon="7.8379527"><ele>353.0</ele><time>2026-04-05T08:40:14.259Z</time></trkpt><trkpt lat="45.0482293" lon="7.8381724"><ele>353.0</ele><time>2026-04-05T08:40:16.259Z</time></trkpt><trkpt lat="45.048117" lon="7.8382884"><ele>352.0</ele><time>2026-04-05T08:40:17.259Z</time></trkpt><trkpt lat="45.048" lon="7.8383966"><ele>351.0</ele><time>2026-04-05T08:40:18.259Z</time></trkpt><trkpt lat="45.047892" lon="7.8385173"><ele>350.0</ele><time>2026-04-05T08:40:19.259Z</time></trkpt><trkpt lat="45.0477882" lon="7.8386436"><ele>349.0</ele><time>2026-04-05T08:40:20.259Z</time></trkpt><trkpt lat="45.0477048" lon="7.8387761"><ele>348.25</ele><time>2026-04-05T08:40:21.259Z</time></trkpt><trkpt lat="45.0476236" lon="7.838914"><ele>347.5</ele><time>2026-04-05T08:40:22.259Z</time></trkpt><trkpt lat="45.0475501" lon="7.8390534"><ele>346.75</ele><time>2026-04-05T08:40:23.259Z</time></trkpt><trkpt lat="45.0474799" lon="7.8391993"><ele>346.0</ele><time>2026-04-05T08:40:24.258Z</time></trkpt><trkpt lat="45.0474326" lon="7.8393511"><ele>345.66666666666663</ele><time>2026-04-05T08:40:25.259Z</time></trkpt><trkpt lat="45.0474068" lon="7.8394843"><ele>345.3333333333333</ele><time>2026-04-05T08:40:26.259Z</time></trkpt><trkpt lat="45.0473934" lon="7.8395979"><ele>345.0</ele><time>2026-04-05T08:40:27.259Z</time></trkpt><trkpt lat="45.0473819" lon="7.8397044"><ele>344.6666666666667</ele><time>2026-04-05T08:40:28.259Z</time></trkpt><trkpt lat="45.0473686" lon="7.8398147"><ele>344.33333333333337</ele><time>2026-04-05T08:40:29.259Z</time></trkpt><trkpt lat="45.047352" lon="7.8399336"><ele>344.0</ele><time>2026-04-05T08:40:30.259Z</time></trkpt><trkpt lat="45.0473253" lon="7.8400504"><ele>343.6</ele><time>2026-04-05T08:40:31.259Z</time></trkpt><trkpt lat="45.0472922" lon="7.8401575"><ele>343.2</ele><time>2026-04-05T08:40:32.259Z</time></trkpt><trkpt lat="45.0472451" lon="7.8402744"><ele>342.8</ele><time>2026-04-05T08:40:33.259Z</time></trkpt><trkpt lat="45.047198" lon="7.840399"><ele>342.40000000000003</ele><time>2026-04-05T08:40:34.259Z</time></trkpt><trkpt lat="45.0471467" lon="7.8405205"><ele>342.0</ele><time>2026-04-05T08:40:35.259Z</time></trkpt><trkpt lat="45.0470518" lon="7.8407528"><ele>342.0</ele><time>2026-04-05T08:40:37.259Z</time></trkpt><trkpt lat="45.0470021" lon="7.840861"><ele>342.0</ele><time>2026-04-05T08:40:38.259Z</time></trkpt><trkpt lat="45.0469542" lon="7.8409756"><ele>342.0</ele><time>2026-04-05T08:40:39.259Z</time></trkpt><trkpt lat="45.0469015" lon="7.8410907"><ele>342.0</ele><time>2026-04-05T08:40:40.259Z</time></trkpt><trkpt lat="45.0468501" lon="7.8411945"><ele>342.0</ele><time>2026-04-05T08:40:41.259Z</time></trkpt><trkpt lat="45.0468075" lon="7.8413"><ele>341.3333333333333</ele><time>2026-04-05T08:40:42.259Z</time></trkpt><trkpt lat="45.0467691" lon="7.8414008"><ele>340.6666666666667</ele><time>2026-04-05T08:40:43.259Z</time></trkpt><trkpt lat="45.046722" lon="7.8414965"><ele>340.0</ele><time>2026-04-05T08:40:44.259Z</time></trkpt><trkpt lat="45.0466885" lon="7.8415794"><ele>339.33333333333337</ele><time>2026-04-05T08:40:45.259Z</time></trkpt><trkpt lat="45.0466437" lon="7.8417091"><ele>338.6666666666667</ele><time>2026-04-05T08:40:47.259Z</time></trkpt><trkpt lat="45.0465871" lon="7.8417915"><ele>338.0</ele><time>2026-04-05T08:41:05.26Z</time></trkpt><trkpt lat="45.0464445" lon="7.8418061"><ele>338.0</ele><time>2026-04-05T08:41:16.26Z</time></trkpt><trkpt lat="45.0463448" lon="7.8417218"><ele>338.0</ele><time>2026-04-05T08:41:18.26Z</time></trkpt><trkpt lat="45.0462375" lon="7.8416151"><ele>338.0</ele><time>2026-04-05T08:41:20.26Z</time></trkpt><trkpt lat="45.0461846" lon="7.8415561"><ele>338.0</ele><time>2026-04-05T08:41:21.26Z</time></trkpt><trkpt lat="45.0461325" lon="7.8414965"><ele>338.0</ele><time>2026-04-05T08:41:22.26Z</time></trkpt><trkpt lat="45.0460807" lon="7.841444"><ele>338.0</ele><time>2026-04-05T08:41:23.259Z</time></trkpt><trkpt lat="45.046027" lon="7.8413936"><ele>338.0</ele><time>2026-04-05T08:41:24.26Z</time></trkpt><trkpt lat="45.0459371" lon="7.8413088"><ele>338.0</ele><time>2026-04-05T08:41:26.26Z</time></trkpt><trkpt lat="45.0458193" lon="7.8412351"><ele>338.0</ele><time>2026-04-05T08:41:31.26Z</time></trkpt><trkpt lat="45.0457544" lon="7.8412695"><ele>338.0</ele><time>2026-04-05T08:41:33.26Z</time></trkpt><trkpt lat="45.0457021" lon="7.8413343"><ele>338.0</ele><time>2026-04-05T08:41:35.26Z</time></trkpt><trkpt lat="45.045642" lon="7.841455"><ele>336.0</ele><time>2026-04-05T08:41:37.259Z</time></trkpt><trkpt lat="45.0455842" lon="7.8416017"><ele>334.0</ele><time>2026-04-05T08:41:39.26Z</time></trkpt><trkpt lat="45.0455199" lon="7.8417532"><ele>332.0</ele><time>2026-04-05T08:41:41.26Z</time></trkpt><trkpt lat="45.0454503" lon="7.8418781"><ele>330.0</ele><time>2026-04-05T08:41:43.26Z</time></trkpt><trkpt lat="45.0453453" lon="7.8419888"><ele>329.6</ele><time>2026-04-05T08:41:45.26Z</time></trkpt><trkpt lat="45.0452746" lon="7.8420369"><ele>329.2</ele><time>2026-04-05T08:41:46.26Z</time></trkpt><trkpt lat="45.0451999" lon="7.8420807"><ele>328.79999999999995</ele><time>2026-04-05T08:41:47.26Z</time></trkpt><trkpt lat="45.0450551" lon="7.8421876"><ele>328.4</ele><time>2026-04-05T08:41:49.26Z</time></trkpt><trkpt lat="45.0449928" lon="7.8422559"><ele>328.0</ele><time>2026-04-05T08:41:50.26Z</time></trkpt><trkpt lat="45.0449342" lon="7.842332"><ele>327.85714285714283</ele><time>2026-04-05T08:41:51.26Z</time></trkpt><trkpt lat="45.0448766" lon="7.8424054"><ele>327.7142857142857</ele><time>2026-04-05T08:41:52.26Z</time></trkpt><trkpt lat="45.0448254" lon="7.8424758"><ele>327.57142857142856</ele><time>2026-04-05T08:41:53.26Z</time></trkpt><trkpt lat="45.0447723" lon="7.8425414"><ele>327.42857142857144</ele><time>2026-04-05T08:41:54.26Z</time></trkpt><trkpt lat="45.0447205" lon="7.8426044"><ele>327.2857142857143</ele><time>2026-04-05T08:41:55.26Z</time></trkpt><trkpt lat="45.0446681" lon="7.842661"><ele>327.1428571428571</ele><time>2026-04-05T08:41:56.26Z</time></trkpt><trkpt lat="45.0446069" lon="7.8427186"><ele>327.0</ele><time>2026-04-05T08:41:57.26Z</time></trkpt><trkpt lat="45.0445408" lon="7.8427739"><ele>326.3333333333333</ele><time>2026-04-05T08:41:58.26Z</time></trkpt><trkpt lat="45.044472" lon="7.8428329"><ele>325.6666666666667</ele><time>2026-04-05T08:41:59.26Z</time></trkpt><trkpt lat="45.0444006" lon="7.8428952"><ele>325.0</ele><time>2026-04-05T08:42:00.26Z</time></trkpt><trkpt lat="45.0443338" lon="7.8429532"><ele>324.33333333333337</ele><time>2026-04-05T08:42:01.26Z</time></trkpt><trkpt lat="45.0442672" lon="7.8430045"><ele>323.6666666666667</ele><time>2026-04-05T08:42:02.26Z</time></trkpt><trkpt lat="45.0441977" lon="7.8430505"><ele>323.0</ele><time>2026-04-05T08:42:03.26Z</time></trkpt><trkpt lat="45.0441273" lon="7.8431007"><ele>322.59999999999997</ele><time>2026-04-05T08:42:04.26Z</time></trkpt><trkpt lat="45.044058" lon="7.843152"><ele>322.2</ele><time>2026-04-05T08:42:05.26Z</time></trkpt><trkpt lat="45.0439857" lon="7.8432028"><ele>321.8</ele><time>2026-04-05T08:42:06.26Z</time></trkpt><trkpt lat="45.043915" lon="7.8432551"><ele>321.4</ele><time>2026-04-05T08:42:07.26Z</time></trkpt><trkpt lat="45.0438448" lon="7.8433065"><ele>321.0</ele><time>2026-04-05T08:42:08.26Z</time></trkpt><trkpt lat="45.0437092" lon="7.8433978"><ele>321.0</ele><time>2026-04-05T08:42:10.26Z</time></trkpt><trkpt lat="45.0436473" lon="7.8434346"><ele>321.0</ele><time>2026-04-05T08:42:11.26Z</time></trkpt><trkpt lat="45.0435856" lon="7.8434606"><ele>321.0</ele><time>2026-04-05T08:42:12.26Z</time></trkpt><trkpt lat="45.0435228" lon="7.8434846"><ele>321.0</ele><time>2026-04-05T08:42:13.26Z</time></trkpt><trkpt lat="45.0434616" lon="7.8435124"><ele>321.0</ele><time>2026-04-05T08:42:14.26Z</time></trkpt><trkpt lat="45.0433494" lon="7.8435641"><ele>321.0</ele><time>2026-04-05T08:42:16.26Z</time></trkpt><trkpt lat="45.043267" lon="7.8436408"><ele>320.6</ele><time>2026-04-05T08:42:18.26Z</time></trkpt><trkpt lat="45.0431711" lon="7.8437379"><ele>320.20000000000005</ele><time>2026-04-05T08:42:20.26Z</time></trkpt><trkpt lat="45.0430584" lon="7.843815"><ele>319.79999999999995</ele><time>2026-04-05T08:42:22.26Z</time></trkpt><trkpt lat="45.0429928" lon="7.8438546"><ele>319.4</ele><time>2026-04-05T08:42:23.26Z</time></trkpt><trkpt lat="45.0429249" lon="7.843894"><ele>319.0</ele><time>2026-04-05T08:42:24.26Z</time></trkpt><trkpt lat="45.0428532" lon="7.8439399"><ele>319.0</ele><time>2026-04-05T08:42:25.26Z</time></trkpt><trkpt lat="45.0427807" lon="7.8439972"><ele>319.0</ele><time>2026-04-05T08:42:26.26Z</time></trkpt><trkpt lat="45.0427073" lon="7.8440668"><ele>319.0</ele><time>2026-04-05T08:42:27.26Z</time></trkpt><trkpt lat="45.0426396" lon="7.8441385"><ele>319.0</ele><time>2026-04-05T08:42:28.26Z</time></trkpt><trkpt lat="45.0425762" lon="7.8442024"><ele>319.0</ele><time>2026-04-05T08:42:29.26Z</time></trkpt><trkpt lat="45.0424625" lon="7.844321"><ele>318.3333333333333</ele><time>2026-04-05T08:42:31.26Z</time></trkpt><trkpt lat="45.0423672" lon="7.8444283"><ele>317.66666666666663</ele><time>2026-04-05T08:42:33.26Z</time></trkpt><trkpt lat="45.0423106" lon="7.8444757"><ele>317.0</ele><time>2026-04-05T08:42:34.26Z</time></trkpt><trkpt lat="45.0422446" lon="7.8445288"><ele>316.3333333333333</ele><time>2026-04-05T08:42:35.26Z</time></trkpt><trkpt lat="45.0421718" lon="7.8445889"><ele>315.6666666666667</ele><time>2026-04-05T08:42:36.26Z</time></trkpt><trkpt lat="45.0420978" lon="7.844664"><ele>315.0</ele><time>2026-04-05T08:42:37.26Z</time></trkpt><trkpt lat="45.0420235" lon="7.8447567"><ele>315.0</ele><time>2026-04-05T08:42:38.26Z</time></trkpt><trkpt lat="45.0419475" lon="7.8448547"><ele>315.0</ele><time>2026-04-05T08:42:39.26Z</time></trkpt><trkpt lat="45.0418757" lon="7.8449417"><ele>315.0</ele><time>2026-04-05T08:42:40.26Z</time></trkpt><trkpt lat="45.0418037" lon="7.8450177"><ele>315.0</ele><time>2026-04-05T08:42:41.26Z</time></trkpt><trkpt lat="45.0417283" lon="7.8450821"><ele>315.0</ele><time>2026-04-05T08:42:42.26Z</time></trkpt><trkpt lat="45.0416526" lon="7.845141"><ele>314.0</ele><time>2026-04-05T08:42:43.26Z</time></trkpt><trkpt lat="45.0415749" lon="7.8452082"><ele>313.0</ele><time>2026-04-05T08:42:44.26Z</time></trkpt><trkpt lat="45.0415046" lon="7.8452734"><ele>312.0</ele><time>2026-04-05T08:42:45.26Z</time></trkpt><trkpt lat="45.0414361" lon="7.8453437"><ele>311.0</ele><time>2026-04-05T08:42:46.26Z</time></trkpt><trkpt lat="45.0413657" lon="7.8454098"><ele>310.0</ele><time>2026-04-05T08:42:47.26Z</time></trkpt><trkpt lat="45.0413002" lon="7.8454811"><ele>309.0</ele><time>2026-04-05T08:42:48.26Z</time></trkpt><trkpt lat="45.0412393" lon="7.8455446"><ele>309.0</ele><time>2026-04-05T08:42:49.26Z</time></trkpt><trkpt lat="45.0411811" lon="7.8456007"><ele>309.0</ele><time>2026-04-05T08:42:50.26Z</time></trkpt><trkpt lat="45.0409541" lon="7.8457023"><ele>309.0</ele><time>2026-04-05T08:42:54.26Z</time></trkpt><trkpt lat="45.0408887" lon="7.8457087"><ele>309.0</ele><time>2026-04-05T08:42:55.26Z</time></trkpt><trkpt lat="45.0408121" lon="7.8457206"><ele>308.59999999999997</ele><time>2026-04-05T08:42:56.26Z</time></trkpt><trkpt lat="45.0407401" lon="7.845734"><ele>308.2</ele><time>2026-04-05T08:42:57.26Z</time></trkpt><trkpt lat="45.0406176" lon="7.8457677"><ele>307.79999999999995</ele><time>2026-04-05T08:42:59.26Z</time></trkpt><trkpt lat="45.0405568" lon="7.8457971"><ele>307.4</ele><time>2026-04-05T08:43:00.26Z</time></trkpt><trkpt lat="45.0404765" lon="7.845886"><ele>307.0</ele><time>2026-04-05T08:43:02.26Z</time></trkpt><trkpt lat="45.0403998" lon="7.8460263"><ele>306.16666666666663</ele><time>2026-04-05T08:43:04.26Z</time></trkpt><trkpt lat="45.0403414" lon="7.8461022"><ele>305.3333333333333</ele><time>2026-04-05T08:43:05.26Z</time></trkpt><trkpt lat="45.0402751" lon="7.8461717"><ele>304.5</ele><time>2026-04-05T08:43:06.26Z</time></trkpt><trkpt lat="45.0402092" lon="7.8462365"><ele>303.6666666666667</ele><time>2026-04-05T08:43:07.26Z</time></trkpt><trkpt lat="45.0401465" lon="7.8463065"><ele>302.83333333333337</ele><time>2026-04-05T08:43:08.26Z</time></trkpt><trkpt lat="45.0400892" lon="7.8463829"><ele>302.0</ele><time>2026-04-05T08:43:09.26Z</time></trkpt><trkpt lat="45.0400383" lon="7.8464514"><ele>302.33333333333337</ele><time>2026-04-05T08:43:10.26Z</time></trkpt><trkpt lat="45.0399393" lon="7.8465579"><ele>302.6666666666667</ele><time>2026-04-05T08:43:12.26Z</time></trkpt><trkpt lat="45.0397235" lon="7.8466697"><ele>303.0</ele><time>2026-04-05T08:43:16.26Z</time></trkpt><trkpt lat="45.0395982" lon="7.846684"><ele>303.0</ele><time>2026-04-05T08:43:18.26Z</time></trkpt><trkpt lat="45.0394873" lon="7.8466771"><ele>303.0</ele><time>2026-04-05T08:43:20.26Z</time></trkpt><trkpt lat="45.0394165" lon="7.8466311"><ele>303.0</ele><time>2026-04-05T08:43:22.26Z</time></trkpt><trkpt lat="45.0393517" lon="7.8466361"><ele>303.0</ele><time>2026-04-05T08:43:33.26Z</time></trkpt><trkpt lat="45.0394729" lon="7.8467826"><ele>303.0</ele><time>2026-04-05T08:43:43.26Z</time></trkpt><trkpt lat="45.0395068" lon="7.8469436"><ele>302.0</ele><time>2026-04-05T08:43:45.26Z</time></trkpt><trkpt lat="45.0395038" lon="7.8470505"><ele>301.0</ele><time>2026-04-05T08:43:46.26Z</time></trkpt><trkpt lat="45.0394932" lon="7.8471644"><ele>300.0</ele><time>2026-04-05T08:43:47.26Z</time></trkpt><trkpt lat="45.0394802" lon="7.8472909"><ele>299.0</ele><time>2026-04-05T08:43:48.26Z</time></trkpt><trkpt lat="45.0394748" lon="7.8474213"><ele>298.0</ele><time>2026-04-05T08:43:49.26Z</time></trkpt><trkpt lat="45.0394812" lon="7.8475513"><ele>297.0</ele><time>2026-04-05T08:43:50.26Z</time></trkpt><trkpt lat="45.039498" lon="7.8476828"><ele>295.5</ele><time>2026-04-05T08:43:51.26Z</time></trkpt><trkpt lat="45.0395283" lon="7.8478212"><ele>294.0</ele><time>2026-04-05T08:43:52.26Z</time></trkpt><trkpt lat="45.0395629" lon="7.8479708"><ele>292.5</ele><time>2026-04-05T08:43:53.26Z</time></trkpt><trkpt lat="45.0396004" lon="7.8481115"><ele>291.0</ele><time>2026-04-05T08:43:54.26Z</time></trkpt><trkpt lat="45.0396935" lon="7.8484272"><ele>289.5</ele><time>2026-04-05T08:43:56.26Z</time></trkpt><trkpt lat="45.039748" lon="7.8485997"><ele>288.0</ele><time>2026-04-05T08:43:57.26Z</time></trkpt><trkpt lat="45.0398025" lon="7.8487717"><ele>286.5</ele><time>2026-04-05T08:43:58.26Z</time></trkpt><trkpt lat="45.0398581" lon="7.84894"><ele>285.0</ele><time>2026-04-05T08:43:59.26Z</time></trkpt><trkpt lat="45.0399137" lon="7.849111"><ele>284.5</ele><time>2026-04-05T08:44:00.26Z</time></trkpt><trkpt lat="45.0399742" lon="7.8492811"><ele>284.0</ele><time>2026-04-05T08:44:01.26Z</time></trkpt><trkpt lat="45.0400306" lon="7.8494572"><ele>283.5</ele><time>2026-04-05T08:44:02.26Z</time></trkpt><trkpt lat="45.0400815" lon="7.8496212"><ele>283.0</ele><time>2026-04-05T08:44:03.26Z</time></trkpt><trkpt lat="45.0401264" lon="7.8497713"><ele>282.8</ele><time>2026-04-05T08:44:04.26Z</time></trkpt><trkpt lat="45.0401605" lon="7.8499104"><ele>282.6</ele><time>2026-04-05T08:44:05.26Z</time></trkpt><trkpt lat="45.0401861" lon="7.8500332"><ele>282.4</ele><time>2026-04-05T08:44:06.26Z</time></trkpt><trkpt lat="45.0402087" lon="7.8501344"><ele>282.2</ele><time>2026-04-05T08:44:07.26Z</time></trkpt><trkpt lat="45.0402402" lon="7.8502731"><ele>282.0</ele><time>2026-04-05T08:44:09.26Z</time></trkpt><trkpt lat="45.0402363" lon="7.8504005"><ele>282.0</ele><time>2026-04-05T08:44:22.26Z</time></trkpt><trkpt lat="45.0402091" lon="7.8506374"><ele>282.0</ele><time>2026-04-05T08:44:24.26Z</time></trkpt><trkpt lat="45.0401878" lon="7.8507977"><ele>282.0</ele><time>2026-04-05T08:44:25.26Z</time></trkpt><trkpt lat="45.0401665" lon="7.8509878"><ele>282.0</ele><time>2026-04-05T08:44:26.26Z</time></trkpt><trkpt lat="45.0401436" lon="7.8511843"><ele>281.25</ele><time>2026-04-05T08:44:27.26Z</time></trkpt><trkpt lat="45.0401204" lon="7.8513737"><ele>280.5</ele><time>2026-04-05T08:44:28.26Z</time></trkpt><trkpt lat="45.0401" lon="7.8515566"><ele>279.75</ele><time>2026-04-05T08:44:29.26Z</time></trkpt><trkpt lat="45.0400905" lon="7.8517275"><ele>279.0</ele><time>2026-04-05T08:44:30.26Z</time></trkpt><trkpt lat="45.0400829" lon="7.8518831"><ele>279.0</ele><time>2026-04-05T08:44:31.26Z</time></trkpt><trkpt lat="45.0400815" lon="7.8520218"><ele>279.0</ele><time>2026-04-05T08:44:32.26Z</time></trkpt><trkpt lat="45.040074" lon="7.8521547"><ele>279.0</ele><time>2026-04-05T08:44:33.26Z</time></trkpt><trkpt lat="45.0400654" lon="7.8522852"><ele>279.0</ele><time>2026-04-05T08:44:34.26Z</time></trkpt><trkpt lat="45.0400545" lon="7.852426"><ele>279.0</ele><time>2026-04-05T08:44:35.26Z</time></trkpt><trkpt lat="45.0400481" lon="7.8525922"><ele>278.75</ele><time>2026-04-05T08:44:36.26Z</time></trkpt><trkpt lat="45.0400432" lon="7.8527865"><ele>278.5</ele><time>2026-04-05T08:44:37.26Z</time></trkpt><trkpt lat="45.0400361" lon="7.8529961"><ele>278.25</ele><time>2026-04-05T08:44:38.26Z</time></trkpt><trkpt lat="45.0400284" lon="7.8532022"><ele>278.0</ele><time>2026-04-05T08:44:39.26Z</time></trkpt><trkpt lat="45.0400234" lon="7.853387"><ele>277.75</ele><time>2026-04-05T08:44:40.26Z</time></trkpt><trkpt lat="45.0400153" lon="7.8535618"><ele>277.5</ele><time>2026-04-05T08:44:41.26Z</time></trkpt><trkpt lat="45.0399964" lon="7.8537308"><ele>277.25</ele><time>2026-04-05T08:44:42.26Z</time></trkpt><trkpt lat="45.0399739" lon="7.853901"><ele>277.0</ele><time>2026-04-05T08:44:43.26Z</time></trkpt><trkpt lat="45.0399002" lon="7.8542342"><ele>277.5</ele><time>2026-04-05T08:44:45.26Z</time></trkpt><trkpt lat="45.0398595" lon="7.8543996"><ele>278.0</ele><time>2026-04-05T08:44:46.26Z</time></trkpt><trkpt lat="45.0398098" lon="7.8545876"><ele>278.5</ele><time>2026-04-05T08:44:47.26Z</time></trkpt><trkpt lat="45.039755" lon="7.8547887"><ele>279.0</ele><time>2026-04-05T08:44:48.26Z</time></trkpt><trkpt lat="45.0396882" lon="7.8549953"><ele>279.6666666666667</ele><time>2026-04-05T08:44:49.26Z</time></trkpt><trkpt lat="45.039612" lon="7.855215"><ele>280.33333333333337</ele><time>2026-04-05T08:44:50.26Z</time></trkpt><trkpt lat="45.0395358" lon="7.8554293"><ele>281.0</ele><time>2026-04-05T08:44:51.26Z</time></trkpt><trkpt lat="45.0394578" lon="7.8556285"><ele>281.0</ele><time>2026-04-05T08:44:52.26Z</time></trkpt><trkpt lat="45.0393808" lon="7.855804"><ele>281.0</ele><time>2026-04-05T08:44:53.259Z</time></trkpt><trkpt lat="45.0392951" lon="7.855965"><ele>281.0</ele><time>2026-04-05T08:44:54.259Z</time></trkpt><trkpt lat="45.0392087" lon="7.8561087"><ele>281.0</ele><time>2026-04-05T08:44:55.26Z</time></trkpt><trkpt lat="45.0391292" lon="7.8562332"><ele>280.6</ele><time>2026-04-05T08:44:56.26Z</time></trkpt><trkpt lat="45.039057" lon="7.8563576"><ele>280.20000000000005</ele><time>2026-04-05T08:44:57.26Z</time></trkpt><trkpt lat="45.0389937" lon="7.8564771"><ele>279.79999999999995</ele><time>2026-04-05T08:44:58.26Z</time></trkpt><trkpt lat="45.0389361" lon="7.8565907"><ele>279.4</ele><time>2026-04-05T08:44:59.26Z</time></trkpt><trkpt lat="45.0389034" lon="7.8567179"><ele>279.0</ele><time>2026-04-05T08:45:00.26Z</time></trkpt><trkpt lat="45.0388999" lon="7.8568549"><ele>279.0</ele><time>2026-04-05T08:45:01.26Z</time></trkpt><trkpt lat="45.0389236" lon="7.8570037"><ele>279.0</ele><time>2026-04-05T08:45:02.26Z</time></trkpt><trkpt lat="45.0389766" lon="7.8571714"><ele>279.0</ele><time>2026-04-05T08:45:03.26Z</time></trkpt><trkpt lat="45.0390477" lon="7.8573459"><ele>279.0</ele><time>2026-04-05T08:45:04.26Z</time></trkpt><trkpt lat="45.0391766" lon="7.8577109"><ele>277.75</ele><time>2026-04-05T08:45:06.26Z</time></trkpt><trkpt lat="45.0392222" lon="7.8579006"><ele>276.5</ele><time>2026-04-05T08:45:07.26Z</time></trkpt><trkpt lat="45.0392411" lon="7.8580682"><ele>275.25</ele><time>2026-04-05T08:45:08.26Z</time></trkpt><trkpt lat="45.0392486" lon="7.8582104"><ele>274.0</ele><time>2026-04-05T08:45:09.26Z</time></trkpt><trkpt lat="45.0392554" lon="7.8583421"><ele>274.0</ele><time>2026-04-05T08:45:10.26Z</time></trkpt><trkpt lat="45.0392885" lon="7.858455"><ele>274.0</ele><time>2026-04-05T08:45:11.26Z</time></trkpt><trkpt lat="45.0393534" lon="7.8585551"><ele>274.0</ele><time>2026-04-05T08:45:12.26Z</time></trkpt><trkpt lat="45.039445" lon="7.8586372"><ele>274.0</ele><time>2026-04-05T08:45:13.26Z</time></trkpt><trkpt lat="45.0395367" lon="7.8587074"><ele>274.0</ele><time>2026-04-05T08:45:14.26Z</time></trkpt><trkpt lat="45.0396202" lon="7.8587777"><ele>274.0</ele><time>2026-04-05T08:45:15.26Z</time></trkpt><trkpt lat="45.0396914" lon="7.8588456"><ele>274.0</ele><time>2026-04-05T08:45:16.26Z</time></trkpt><trkpt lat="45.0397584" lon="7.8589295"><ele>274.0</ele><time>2026-04-05T08:45:17.26Z</time></trkpt><trkpt lat="45.039825" lon="7.8590239"><ele>274.0</ele><time>2026-04-05T08:45:18.26Z</time></trkpt><trkpt lat="45.0398907" lon="7.8591215"><ele>274.0</ele><time>2026-04-05T08:45:19.26Z</time></trkpt><trkpt lat="45.0399588" lon="7.8592211"><ele>274.4</ele><time>2026-04-05T08:45:20.259Z</time></trkpt><trkpt lat="45.0400386" lon="7.8593155"><ele>274.79999999999995</ele><time>2026-04-05T08:45:21.26Z</time></trkpt><trkpt lat="45.0401168" lon="7.8594172"><ele>275.20000000000005</ele><time>2026-04-05T08:45:22.26Z</time></trkpt><trkpt lat="45.0401946" lon="7.8595141"><ele>275.6</ele><time>2026-04-05T08:45:23.26Z</time></trkpt><trkpt lat="45.0402796" lon="7.8596111"><ele>276.0</ele><time>2026-04-05T08:45:24.26Z</time></trkpt><trkpt lat="45.0403565" lon="7.8597036"><ele>276.0</ele><time>2026-04-05T08:45:25.26Z</time></trkpt><trkpt lat="45.0405247" lon="7.8598926"><ele>276.0</ele><time>2026-04-05T08:45:27.26Z</time></trkpt><trkpt lat="45.0406137" lon="7.8599875"><ele>276.0</ele><time>2026-04-05T08:45:28.26Z</time></trkpt><trkpt lat="45.040702" lon="7.8600779"><ele>276.0</ele><time>2026-04-05T08:45:29.26Z</time></trkpt><trkpt lat="45.0407838" lon="7.8601679"><ele>276.8</ele><time>2026-04-05T08:45:30.26Z</time></trkpt><trkpt lat="45.0408623" lon="7.8602611"><ele>277.6</ele><time>2026-04-05T08:45:31.26Z</time></trkpt><trkpt lat="45.040939" lon="7.8603709"><ele>278.4</ele><time>2026-04-05T08:45:32.26Z</time></trkpt><trkpt lat="45.0410116" lon="7.860488"><ele>279.2</ele><time>2026-04-05T08:45:33.26Z</time></trkpt><trkpt lat="45.0410801" lon="7.8605961"><ele>280.0</ele><time>2026-04-05T08:45:34.26Z</time></trkpt><trkpt lat="45.041146" lon="7.8606944"><ele>280.0</ele><time>2026-04-05T08:45:35.26Z</time></trkpt><trkpt lat="45.0412062" lon="7.8607868"><ele>280.0</ele><time>2026-04-05T08:45:36.26Z</time></trkpt><trkpt lat="45.041258" lon="7.8608599"><ele>280.0</ele><time>2026-04-05T08:45:37.26Z</time></trkpt><trkpt lat="45.0413585" lon="7.8609154"><ele>280.0</ele><time>2026-04-05T08:45:39.26Z</time></trkpt><trkpt lat="45.0414486" lon="7.8608321"><ele>280.0</ele><time>2026-04-05T08:45:41.26Z</time></trkpt><trkpt lat="45.0415043" lon="7.8607346"><ele>280.0</ele><time>2026-04-05T08:45:42.26Z</time></trkpt><trkpt lat="45.0415634" lon="7.8606186"><ele>280.0</ele><time>2026-04-05T08:45:43.26Z</time></trkpt><trkpt lat="45.0416296" lon="7.8604987"><ele>280.0</ele><time>2026-04-05T08:45:44.26Z</time></trkpt><trkpt lat="45.0417062" lon="7.8603831"><ele>280.0</ele><time>2026-04-05T08:45:45.26Z</time></trkpt><trkpt lat="45.0417856" lon="7.8602685"><ele>280.0</ele><time>2026-04-05T08:45:46.26Z</time></trkpt><trkpt lat="45.0419526" lon="7.8599885"><ele>280.6</ele><time>2026-04-05T08:45:48.26Z</time></trkpt><trkpt lat="45.0420389" lon="7.8598694"><ele>281.2</ele><time>2026-04-05T08:45:49.26Z</time></trkpt><trkpt lat="45.0421139" lon="7.8597685"><ele>281.8</ele><time>2026-04-05T08:45:50.26Z</time></trkpt><trkpt lat="45.0421907" lon="7.8596886"><ele>282.4</ele><time>2026-04-05T08:45:51.26Z</time></trkpt><trkpt lat="45.0422776" lon="7.8596204"><ele>283.0</ele><time>2026-04-05T08:45:52.26Z</time></trkpt><trkpt lat="45.0423752" lon="7.8595585"><ele>283.6</ele><time>2026-04-05T08:45:53.26Z</time></trkpt><trkpt lat="45.0424787" lon="7.8595087"><ele>284.20000000000005</ele><time>2026-04-05T08:45:54.26Z</time></trkpt><trkpt lat="45.042583" lon="7.8594586"><ele>284.8</ele><time>2026-04-05T08:45:55.26Z</time></trkpt><trkpt lat="45.0426916" lon="7.8594188"><ele>285.40000000000003</ele><time>2026-04-05T08:45:56.26Z</time></trkpt><trkpt lat="45.0428018" lon="7.8594005"><ele>286.0</ele><time>2026-04-05T08:45:57.26Z</time></trkpt><trkpt lat="45.0429168" lon="7.8593862"><ele>286.0</ele><time>2026-04-05T08:45:58.26Z</time></trkpt><trkpt lat="45.0430349" lon="7.8593754"><ele>286.0</ele><time>2026-04-05T08:45:59.26Z</time></trkpt><trkpt lat="45.0431469" lon="7.8593645"><ele>286.0</ele><time>2026-04-05T08:46:00.26Z</time></trkpt><trkpt lat="45.0432596" lon="7.8593564"><ele>286.0</ele><time>2026-04-05T08:46:01.26Z</time></trkpt><trkpt lat="45.0433776" lon="7.8593697"><ele>286.25</ele><time>2026-04-05T08:46:02.26Z</time></trkpt><trkpt lat="45.0435013" lon="7.8594021"><ele>286.5</ele><time>2026-04-05T08:46:03.26Z</time></trkpt><trkpt lat="45.0436192" lon="7.8594503"><ele>286.75</ele><time>2026-04-05T08:46:04.26Z</time></trkpt><trkpt lat="45.0437331" lon="7.8594933"><ele>287.0</ele><time>2026-04-05T08:46:05.26Z</time></trkpt><trkpt lat="45.0438486" lon="7.8595203"><ele>287.0</ele><time>2026-04-05T08:46:06.26Z</time></trkpt><trkpt lat="45.043963" lon="7.8595535"><ele>287.0</ele><time>2026-04-05T08:46:07.26Z</time></trkpt><trkpt lat="45.0441655" lon="7.8596307"><ele>287.0</ele><time>2026-04-05T08:46:09.26Z</time></trkpt><trkpt lat="45.0442586" lon="7.8596743"><ele>287.0</ele><time>2026-04-05T08:46:10.26Z</time></trkpt><trkpt lat="45.0443512" lon="7.8597165"><ele>287.5</ele><time>2026-04-05T08:46:11.26Z</time></trkpt><trkpt lat="45.0444446" lon="7.8597501"><ele>288.0</ele><time>2026-04-05T08:46:12.26Z</time></trkpt><trkpt lat="45.0445283" lon="7.8597824"><ele>288.5</ele><time>2026-04-05T08:46:13.26Z</time></trkpt><trkpt lat="45.0446047" lon="7.8598098"><ele>289.0</ele><time>2026-04-05T08:46:14.26Z</time></trkpt><trkpt lat="45.0446931" lon="7.8598265"><ele>289.5</ele><time>2026-04-05T08:46:15.26Z</time></trkpt><trkpt lat="45.0447821" lon="7.8598368"><ele>290.0</ele><time>2026-04-05T08:46:16.26Z</time></trkpt><trkpt lat="45.0448681" lon="7.8598417"><ele>290.0</ele><time>2026-04-05T08:46:17.26Z</time></trkpt><trkpt lat="45.0449509" lon="7.8598465"><ele>290.0</ele><time>2026-04-05T08:46:18.26Z</time></trkpt><trkpt lat="45.0450343" lon="7.8598515"><ele>290.0</ele><time>2026-04-05T08:46:19.26Z</time></trkpt><trkpt lat="45.0451178" lon="7.8598495"><ele>290.0</ele><time>2026-04-05T08:46:20.26Z</time></trkpt><trkpt lat="45.0452051" lon="7.8598518"><ele>290.0</ele><time>2026-04-05T08:46:21.26Z</time></trkpt><trkpt lat="45.0452908" lon="7.8598743"><ele>290.0</ele><time>2026-04-05T08:46:22.26Z</time></trkpt><trkpt lat="45.0453771" lon="7.8599078"><ele>290.2</ele><time>2026-04-05T08:46:23.26Z</time></trkpt><trkpt lat="45.0454659" lon="7.8599501"><ele>290.4</ele><time>2026-04-05T08:46:24.26Z</time></trkpt><trkpt lat="45.0455507" lon="7.8599961"><ele>290.6</ele><time>2026-04-05T08:46:25.26Z</time></trkpt><trkpt lat="45.0456346" lon="7.8600547"><ele>290.8</ele><time>2026-04-05T08:46:26.26Z</time></trkpt><trkpt lat="45.0457225" lon="7.8601054"><ele>291.0</ele><time>2026-04-05T08:46:27.26Z</time></trkpt><trkpt lat="45.0458102" lon="7.8601599"><ele>293.25</ele><time>2026-04-05T08:46:28.26Z</time></trkpt><trkpt lat="45.0459733" lon="7.8602922"><ele>295.5</ele><time>2026-04-05T08:46:30.26Z</time></trkpt><trkpt lat="45.0460484" lon="7.8603542"><ele>297.75</ele><time>2026-04-05T08:46:31.26Z</time></trkpt><trkpt lat="45.0461219" lon="7.8604286"><ele>300.0</ele><time>2026-04-05T08:46:32.26Z</time></trkpt><trkpt lat="45.0461871" lon="7.8605171"><ele>300.0</ele><time>2026-04-05T08:46:33.26Z</time></trkpt><trkpt lat="45.0462444" lon="7.8606162"><ele>300.0</ele><time>2026-04-05T08:46:34.26Z</time></trkpt><trkpt lat="45.0463064" lon="7.8607085"><ele>300.0</ele><time>2026-04-05T08:46:35.26Z</time></trkpt><trkpt lat="45.0463562" lon="7.8608015"><ele>300.0</ele><time>2026-04-05T08:46:36.26Z</time></trkpt><trkpt lat="45.0463974" lon="7.8608897"><ele>300.0</ele><time>2026-04-05T08:46:37.26Z</time></trkpt><trkpt lat="45.0464364" lon="7.8609864"><ele>300.0</ele><time>2026-04-05T08:46:38.26Z</time></trkpt><trkpt lat="45.0464706" lon="7.8610934"><ele>301.0</ele><time>2026-04-05T08:46:39.26Z</time></trkpt><trkpt lat="45.0465102" lon="7.8611991"><ele>302.0</ele><time>2026-04-05T08:46:40.26Z</time></trkpt><trkpt lat="45.0465562" lon="7.8613057"><ele>303.0</ele><time>2026-04-05T08:46:41.26Z</time></trkpt><trkpt lat="45.0465979" lon="7.8614102"><ele>304.0</ele><time>2026-04-05T08:46:42.26Z</time></trkpt><trkpt lat="45.046633" lon="7.8615107"><ele>305.0</ele><time>2026-04-05T08:46:43.26Z</time></trkpt><trkpt lat="45.0466582" lon="7.8615993"><ele>306.0</ele><time>2026-04-05T08:46:44.26Z</time></trkpt><trkpt lat="45.0466762" lon="7.8617112"><ele>310.0</ele><time>2026-04-05T08:46:46.26Z</time></trkpt><trkpt lat="45.0466985" lon="7.8617974"><ele>314.0</ele><time>2026-04-05T08:46:50.26Z</time></trkpt><trkpt lat="45.046753" lon="7.8619714"><ele>318.0</ele><time>2026-04-05T08:46:54.26Z</time></trkpt><trkpt lat="45.0468074" lon="7.862103"><ele>322.0</ele><time>2026-04-05T08:46:56.26Z</time></trkpt><trkpt lat="45.0468475" lon="7.8621899"><ele>326.0</ele><time>2026-04-05T08:46:57.26Z</time></trkpt><trkpt lat="45.0468914" lon="7.8622732"><ele>326.0</ele><time>2026-04-05T08:46:58.26Z</time></trkpt><trkpt lat="45.0469422" lon="7.8623482"><ele>326.0</ele><time>2026-04-05T08:46:59.26Z</time></trkpt><trkpt lat="45.0469991" lon="7.8624198"><ele>326.0</ele><time>2026-04-05T08:47:00.26Z</time></trkpt><trkpt lat="45.0470622" lon="7.8624966"><ele>326.0</ele><time>2026-04-05T08:47:01.26Z</time></trkpt><trkpt lat="45.0471343" lon="7.8625731"><ele>326.0</ele><time>2026-04-05T08:47:02.26Z</time></trkpt><trkpt lat="45.0472048" lon="7.8626445"><ele>326.0</ele><time>2026-04-05T08:47:03.26Z</time></trkpt><trkpt lat="45.0472761" lon="7.8627073"><ele>326.6</ele><time>2026-04-05T08:47:04.26Z</time></trkpt><trkpt lat="45.0473309" lon="7.8627648"><ele>327.20000000000005</ele><time>2026-04-05T08:47:05.26Z</time></trkpt><trkpt lat="45.0473926" lon="7.8628236"><ele>327.79999999999995</ele><time>2026-04-05T08:47:17.26Z</time></trkpt><trkpt lat="45.0475346" lon="7.8629785"><ele>328.4</ele><time>2026-04-05T08:47:21.26Z</time></trkpt><trkpt lat="45.0475739" lon="7.863057"><ele>329.0</ele><time>2026-04-05T08:47:30.26Z</time></trkpt><trkpt lat="45.0476702" lon="7.8630656"><ele>330.25</ele><time>2026-04-05T08:47:33.26Z</time></trkpt><trkpt lat="45.0477611" lon="7.8630116"><ele>331.5</ele><time>2026-04-05T08:47:35.26Z</time></trkpt><trkpt lat="45.0478689" lon="7.8629833"><ele>332.75</ele><time>2026-04-05T08:47:37.26Z</time></trkpt><trkpt lat="45.0479662" lon="7.863024"><ele>334.0</ele><time>2026-04-05T08:47:39.26Z</time></trkpt><trkpt lat="45.048128" lon="7.8632261"><ele>334.0</ele><time>2026-04-05T08:47:42.26Z</time></trkpt><trkpt lat="45.0481826" lon="7.8632948"><ele>334.0</ele><time>2026-04-05T08:47:43.26Z</time></trkpt><trkpt lat="45.0482379" lon="7.8633588"><ele>334.0</ele><time>2026-04-05T08:47:44.26Z</time></trkpt><trkpt lat="45.0482991" lon="7.8634171"><ele>334.0</ele><time>2026-04-05T08:47:45.26Z</time></trkpt><trkpt lat="45.0483723" lon="7.8634736"><ele>334.0</ele><time>2026-04-05T08:47:46.26Z</time></trkpt><trkpt lat="45.0484569" lon="7.8635272"><ele>334.0</ele><time>2026-04-05T08:47:47.26Z</time></trkpt><trkpt lat="45.0485371" lon="7.8635861"><ele>331.5</ele><time>2026-04-05T08:47:48.26Z</time></trkpt><trkpt lat="45.0486047" lon="7.8636354"><ele>329.0</ele><time>2026-04-05T08:47:49.26Z</time></trkpt><trkpt lat="45.0487001" lon="7.8637127"><ele>326.5</ele><time>2026-04-05T08:47:51.26Z</time></trkpt><trkpt lat="45.0487665" lon="7.8637656"><ele>324.0</ele><time>2026-04-05T08:47:53.26Z</time></trkpt><trkpt lat="45.0488324" lon="7.8638301"><ele>321.5</ele><time>2026-04-05T08:47:55.26Z</time></trkpt><trkpt lat="45.0488957" lon="7.8638839"><ele>319.0</ele><time>2026-04-05T08:47:57.26Z</time></trkpt><trkpt lat="45.0489518" lon="7.8639361"><ele>319.0</ele><time>2026-04-05T08:47:59.26Z</time></trkpt><trkpt lat="45.0490012" lon="7.8640244"><ele>319.0</ele><time>2026-04-05T08:48:01.26Z</time></trkpt><trkpt lat="45.0489949" lon="7.8642585"><ele>319.0</ele><time>2026-04-05T08:48:05.26Z</time></trkpt><trkpt lat="45.0489608" lon="7.8644309"><ele>319.0</ele><time>2026-04-05T08:48:07.26Z</time></trkpt><trkpt lat="45.048954" lon="7.864524"><ele>319.0</ele><time>2026-04-05T08:48:08.26Z</time></trkpt><trkpt lat="45.0489841" lon="7.8647022"><ele>317.8333333333333</ele><time>2026-04-05T08:48:10.26Z</time></trkpt><trkpt lat="45.0490138" lon="7.8648077"><ele>316.66666666666663</ele><time>2026-04-05T08:48:11.26Z</time></trkpt><trkpt lat="45.0490444" lon="7.864919"><ele>315.5</ele><time>2026-04-05T08:48:12.26Z</time></trkpt><trkpt lat="45.0490759" lon="7.8650315"><ele>314.3333333333333</ele><time>2026-04-05T08:48:13.26Z</time></trkpt><trkpt lat="45.0491039" lon="7.865148"><ele>313.1666666666667</ele><time>2026-04-05T08:48:14.26Z</time></trkpt><trkpt lat="45.0491241" lon="7.8652612"><ele>312.0</ele><time>2026-04-05T08:48:15.26Z</time></trkpt><trkpt lat="45.0491368" lon="7.8653721"><ele>311.1666666666667</ele><time>2026-04-05T08:48:16.26Z</time></trkpt><trkpt lat="45.0491449" lon="7.8654852"><ele>310.3333333333333</ele><time>2026-04-05T08:48:17.26Z</time></trkpt><trkpt lat="45.0491477" lon="7.8655989"><ele>309.5</ele><time>2026-04-05T08:48:18.26Z</time></trkpt><trkpt lat="45.0491446" lon="7.8657139"><ele>308.66666666666663</ele><time>2026-04-05T08:48:19.26Z</time></trkpt><trkpt lat="45.049136" lon="7.8658327"><ele>307.8333333333333</ele><time>2026-04-05T08:48:20.26Z</time></trkpt><trkpt lat="45.0491173" lon="7.8659437"><ele>307.0</ele><time>2026-04-05T08:48:21.26Z</time></trkpt><trkpt lat="45.0490979" lon="7.8660553"><ele>306.5</ele><time>2026-04-05T08:48:22.26Z</time></trkpt><trkpt lat="45.0490591" lon="7.8662401"><ele>306.0</ele><time>2026-04-05T08:48:24.26Z</time></trkpt><trkpt lat="45.0490206" lon="7.8663926"><ele>305.5</ele><time>2026-04-05T08:48:26.26Z</time></trkpt><trkpt lat="45.0490064" lon="7.8665393"><ele>305.0</ele><time>2026-04-05T08:48:28.26Z</time></trkpt><trkpt lat="45.0490114" lon="7.8667086"><ele>304.0</ele><time>2026-04-05T08:48:30.26Z</time></trkpt><trkpt lat="45.0490273" lon="7.8668867"><ele>303.0</ele><time>2026-04-05T08:48:32.26Z</time></trkpt><trkpt lat="45.0490269" lon="7.8669926"><ele>302.0</ele><time>2026-04-05T08:48:33.26Z</time></trkpt><trkpt lat="45.0490321" lon="7.8670957"><ele>301.0</ele><time>2026-04-05T08:48:34.26Z</time></trkpt><trkpt lat="45.0490411" lon="7.8671969"><ele>300.0</ele><time>2026-04-05T08:48:35.26Z</time></trkpt><trkpt lat="45.0490513" lon="7.8672888"><ele>299.0</ele><time>2026-04-05T08:48:36.26Z</time></trkpt><trkpt lat="45.0490642" lon="7.8674644"><ele>297.0</ele><time>2026-04-05T08:48:38.26Z</time></trkpt><trkpt lat="45.0490469" lon="7.8676336"><ele>295.0</ele><time>2026-04-05T08:48:40.26Z</time></trkpt><trkpt lat="45.0490076" lon="7.8677922"><ele>293.0</ele><time>2026-04-05T08:48:42.26Z</time></trkpt><trkpt lat="45.0489796" lon="7.8679402"><ele>291.0</ele><time>2026-04-05T08:48:44.26Z</time></trkpt><trkpt lat="45.0489306" lon="7.8681594"><ele>291.0</ele><time>2026-04-05T08:48:48.26Z</time></trkpt><trkpt lat="45.0489842" lon="7.8682218"><ele>291.0</ele><time>2026-04-05T08:48:53.26Z</time></trkpt><trkpt lat="45.0490532" lon="7.8681991"><ele>291.0</ele><time>2026-04-05T08:48:55.26Z</time></trkpt><trkpt lat="45.0491356" lon="7.8681583"><ele>291.0</ele><time>2026-04-05T08:48:57.26Z</time></trkpt><trkpt lat="45.0492278" lon="7.8681215"><ele>291.0</ele><time>2026-04-05T08:48:59.26Z</time></trkpt><trkpt lat="45.0493223" lon="7.868091"><ele>291.0</ele><time>2026-04-05T08:49:01.26Z</time></trkpt><trkpt lat="45.0494226" lon="7.8680912"><ele>291.75</ele><time>2026-04-05T08:49:03.26Z</time></trkpt><trkpt lat="45.0495086" lon="7.8681336"><ele>292.5</ele><time>2026-04-05T08:49:05.26Z</time></trkpt><trkpt lat="45.0496503" lon="7.8683023"><ele>293.25</ele><time>2026-04-05T08:49:09.26Z</time></trkpt><trkpt lat="45.0497666" lon="7.868385"><ele>294.0</ele><time>2026-04-05T08:49:11.26Z</time></trkpt><trkpt lat="45.0498498" lon="7.8684163"><ele>294.0</ele><time>2026-04-05T08:49:12.26Z</time></trkpt><trkpt lat="45.0499343" lon="7.8684503"><ele>294.0</ele><time>2026-04-05T08:49:13.26Z</time></trkpt><trkpt lat="45.050023" lon="7.8684796"><ele>294.0</ele><time>2026-04-05T08:49:14.26Z</time></trkpt><trkpt lat="45.0501132" lon="7.8685043"><ele>294.0</ele><time>2026-04-05T08:49:15.26Z</time></trkpt><trkpt lat="45.0502008" lon="7.8685238"><ele>294.0</ele><time>2026-04-05T08:49:16.26Z</time></trkpt><trkpt lat="45.0502902" lon="7.8685389"><ele>294.0</ele><time>2026-04-05T08:49:17.26Z</time></trkpt><trkpt lat="45.0503752" lon="7.8685454"><ele>295.0</ele><time>2026-04-05T08:49:18.26Z</time></trkpt><trkpt lat="45.0504551" lon="7.8685485"><ele>296.0</ele><time>2026-04-05T08:49:19.26Z</time></trkpt><trkpt lat="45.0505347" lon="7.8685502"><ele>297.0</ele><time>2026-04-05T08:49:20.26Z</time></trkpt><trkpt lat="45.0506131" lon="7.8685332"><ele>298.0</ele><time>2026-04-05T08:49:21.26Z</time></trkpt><trkpt lat="45.0506811" lon="7.8685109"><ele>299.0</ele><time>2026-04-05T08:49:22.26Z</time></trkpt><trkpt lat="45.0507497" lon="7.8684712"><ele>300.0</ele><time>2026-04-05T08:49:23.26Z</time></trkpt><trkpt lat="45.0508182" lon="7.8684228"><ele>300.2</ele><time>2026-04-05T08:49:24.26Z</time></trkpt><trkpt lat="45.05089" lon="7.8683773"><ele>300.4</ele><time>2026-04-05T08:49:25.26Z</time></trkpt><trkpt lat="45.0509669" lon="7.8683387"><ele>300.6</ele><time>2026-04-05T08:49:26.26Z</time></trkpt><trkpt lat="45.0511267" lon="7.8683177"><ele>300.8</ele><time>2026-04-05T08:49:28.26Z</time></trkpt><trkpt lat="45.0512044" lon="7.868321"><ele>301.0</ele><time>2026-04-05T08:49:29.26Z</time></trkpt><trkpt lat="45.0512757" lon="7.8683296"><ele>301.0</ele><time>2026-04-05T08:49:30.26Z</time></trkpt><trkpt lat="45.0513986" lon="7.8683232"><ele>301.0</ele><time>2026-04-05T08:49:32.26Z</time></trkpt><trkpt lat="45.0514661" lon="7.8683177"><ele>301.0</ele><time>2026-04-05T08:49:33.26Z</time></trkpt><trkpt lat="45.051576" lon="7.8683286"><ele>301.0</ele><time>2026-04-05T08:49:35.26Z</time></trkpt><trkpt lat="45.0516472" lon="7.8684085"><ele>301.0</ele><time>2026-04-05T08:49:37.26Z</time></trkpt><trkpt lat="45.0516558" lon="7.8685746"><ele>300.0</ele><time>2026-04-05T08:49:39.26Z</time></trkpt><trkpt lat="45.0516694" lon="7.8687321"><ele>299.0</ele><time>2026-04-05T08:49:41.26Z</time></trkpt><trkpt lat="45.0517113" lon="7.8688227"><ele>298.0</ele><time>2026-04-05T08:49:43.26Z</time></trkpt><trkpt lat="45.0517832" lon="7.8688139"><ele>297.0</ele><time>2026-04-05T08:49:45.26Z</time></trkpt><trkpt lat="45.0518784" lon="7.8687681"><ele>296.0</ele><time>2026-04-05T08:49:47.26Z</time></trkpt><trkpt lat="45.0520587" lon="7.8686733"><ele>296.0</ele><time>2026-04-05T08:49:51.26Z</time></trkpt><trkpt lat="45.0521494" lon="7.8686075"><ele>296.0</ele><time>2026-04-05T08:49:53.26Z</time></trkpt><trkpt lat="45.0522463" lon="7.8685434"><ele>296.0</ele><time>2026-04-05T08:49:55.26Z</time></trkpt><trkpt lat="45.0523453" lon="7.8684784"><ele>296.0</ele><time>2026-04-05T08:49:57.26Z</time></trkpt><trkpt lat="45.0524098" lon="7.8684335"><ele>296.0</ele><time>2026-04-05T08:49:58.26Z</time></trkpt><trkpt lat="45.0524783" lon="7.8683801"><ele>296.33333333333337</ele><time>2026-04-05T08:49:59.26Z</time></trkpt><trkpt lat="45.05255" lon="7.8683275"><ele>296.6666666666667</ele><time>2026-04-05T08:50:00.26Z</time></trkpt><trkpt lat="45.052619" lon="7.8682751"><ele>297.0</ele><time>2026-04-05T08:50:01.26Z</time></trkpt><trkpt lat="45.0526892" lon="7.8682185"><ele>297.3333333333333</ele><time>2026-04-05T08:50:02.26Z</time></trkpt><trkpt lat="45.0527556" lon="7.8681688"><ele>297.66666666666663</ele><time>2026-04-05T08:50:03.26Z</time></trkpt><trkpt lat="45.0528233" lon="7.8681366"><ele>298.0</ele><time>2026-04-05T08:50:04.26Z</time></trkpt><trkpt lat="45.0528889" lon="7.8681233"><ele>298.0</ele><time>2026-04-05T08:50:05.26Z</time></trkpt><trkpt lat="45.0529576" lon="7.8681366"><ele>298.0</ele><time>2026-04-05T08:50:06.26Z</time></trkpt><trkpt lat="45.0530337" lon="7.8681827"><ele>298.0</ele><time>2026-04-05T08:50:07.26Z</time></trkpt><trkpt lat="45.0531173" lon="7.8682549"><ele>298.0</ele><time>2026-04-05T08:50:08.26Z</time></trkpt><trkpt lat="45.0533115" lon="7.8684488"><ele>298.5</ele><time>2026-04-05T08:50:10.26Z</time></trkpt><trkpt lat="45.0534209" lon="7.868564"><ele>299.0</ele><time>2026-04-05T08:50:11.26Z</time></trkpt><trkpt lat="45.0535347" lon="7.8686802"><ele>299.5</ele><time>2026-04-05T08:50:12.26Z</time></trkpt><trkpt lat="45.0536402" lon="7.8688078"><ele>300.0</ele><time>2026-04-05T08:50:13.26Z</time></trkpt><trkpt lat="45.0537386" lon="7.8689314"><ele>300.0</ele><time>2026-04-05T08:50:14.26Z</time></trkpt><trkpt lat="45.0538348" lon="7.8690489"><ele>300.0</ele><time>2026-04-05T08:50:15.26Z</time></trkpt><trkpt lat="45.0539196" lon="7.8691515"><ele>300.0</ele><time>2026-04-05T08:50:16.26Z</time></trkpt><trkpt lat="45.0540028" lon="7.8692343"><ele>300.0</ele><time>2026-04-05T08:50:17.26Z</time></trkpt><trkpt lat="45.054088" lon="7.8692967"><ele>300.0</ele><time>2026-04-05T08:50:18.26Z</time></trkpt><trkpt lat="45.0541748" lon="7.8693475"><ele>301.4</ele><time>2026-04-05T08:50:19.26Z</time></trkpt><trkpt lat="45.0542585" lon="7.8693947"><ele>302.8</ele><time>2026-04-05T08:50:20.26Z</time></trkpt><trkpt lat="45.0543449" lon="7.8694537"><ele>304.2</ele><time>2026-04-05T08:50:21.26Z</time></trkpt><trkpt lat="45.0544277" lon="7.869524"><ele>305.6</ele><time>2026-04-05T08:50:22.26Z</time></trkpt><trkpt lat="45.0545175" lon="7.8696069"><ele>307.0</ele><time>2026-04-05T08:50:23.26Z</time></trkpt><trkpt lat="45.0546111" lon="7.8696914"><ele>307.0</ele><time>2026-04-05T08:50:24.26Z</time></trkpt><trkpt lat="45.0547146" lon="7.8697731"><ele>307.0</ele><time>2026-04-05T08:50:25.26Z</time></trkpt><trkpt lat="45.054832" lon="7.8698483"><ele>307.0</ele><time>2026-04-05T08:50:26.26Z</time></trkpt><trkpt lat="45.0549451" lon="7.8699194"><ele>307.0</ele><time>2026-04-05T08:50:27.26Z</time></trkpt><trkpt lat="45.0550586" lon="7.8699843"><ele>308.66666666666663</ele><time>2026-04-05T08:50:28.26Z</time></trkpt><trkpt lat="45.0551676" lon="7.8700521"><ele>310.3333333333333</ele><time>2026-04-05T08:50:29.26Z</time></trkpt><trkpt lat="45.0554033" lon="7.8701968"><ele>312.0</ele><time>2026-04-05T08:50:31.26Z</time></trkpt><trkpt lat="45.0555237" lon="7.8702749"><ele>312.0</ele><time>2026-04-05T08:50:32.26Z</time></trkpt><trkpt lat="45.0556345" lon="7.870355"><ele>312.0</ele><time>2026-04-05T08:50:33.26Z</time></trkpt><trkpt lat="45.0557363" lon="7.8704088"><ele>312.0</ele><time>2026-04-05T08:50:34.26Z</time></trkpt><trkpt lat="45.0558295" lon="7.870473"><ele>312.0</ele><time>2026-04-05T08:50:35.26Z</time></trkpt><trkpt lat="45.0559113" lon="7.8705532"><ele>312.0</ele><time>2026-04-05T08:50:36.26Z</time></trkpt><trkpt lat="45.0559966" lon="7.8706416"><ele>314.5</ele><time>2026-04-05T08:50:37.26Z</time></trkpt><trkpt lat="45.0560795" lon="7.8707347"><ele>317.0</ele><time>2026-04-05T08:50:38.26Z</time></trkpt><trkpt lat="45.0561652" lon="7.8708375"><ele>319.5</ele><time>2026-04-05T08:50:39.26Z</time></trkpt><trkpt lat="45.0562473" lon="7.8709647"><ele>322.0</ele><time>2026-04-05T08:50:40.26Z</time></trkpt><trkpt lat="45.0563362" lon="7.8711082"><ele>322.5</ele><time>2026-04-05T08:50:41.26Z</time></trkpt><trkpt lat="45.0564245" lon="7.8712643"><ele>323.0</ele><time>2026-04-05T08:50:42.26Z</time></trkpt><trkpt lat="45.0565101" lon="7.8714165"><ele>323.5</ele><time>2026-04-05T08:50:43.26Z</time></trkpt><trkpt lat="45.0565885" lon="7.8715505"><ele>324.0</ele><time>2026-04-05T08:50:44.26Z</time></trkpt><trkpt lat="45.0566567" lon="7.8716643"><ele>326.4</ele><time>2026-04-05T08:50:45.26Z</time></trkpt><trkpt lat="45.0567297" lon="7.8717614"><ele>328.79999999999995</ele><time>2026-04-05T08:50:46.26Z</time></trkpt><trkpt lat="45.0567962" lon="7.8718396"><ele>331.20000000000005</ele><time>2026-04-05T08:50:47.26Z</time></trkpt><trkpt lat="45.0568519" lon="7.8719098"><ele>333.6</ele><time>2026-04-05T08:50:48.26Z</time></trkpt><trkpt lat="45.056925" lon="7.8719979"><ele>336.0</ele><time>2026-04-05T08:50:50.26Z</time></trkpt><trkpt lat="45.0569178" lon="7.8722717"><ele>338.20000000000005</ele><time>2026-04-05T08:50:54.261Z</time></trkpt><trkpt lat="45.0569197" lon="7.8723875"><ele>340.40000000000003</ele><time>2026-04-05T08:50:55.261Z</time></trkpt><trkpt lat="45.056932" lon="7.8725168"><ele>342.6</ele><time>2026-04-05T08:50:56.261Z</time></trkpt><trkpt lat="45.0569599" lon="7.8726579"><ele>344.8</ele><time>2026-04-05T08:50:57.261Z</time></trkpt><trkpt lat="45.0569944" lon="7.872799"><ele>347.0</ele><time>2026-04-05T08:50:58.261Z</time></trkpt><trkpt lat="45.0570337" lon="7.8729361"><ele>347.6</ele><time>2026-04-05T08:50:59.261Z</time></trkpt><trkpt lat="45.0570705" lon="7.8730781"><ele>348.20000000000005</ele><time>2026-04-05T08:51:00.261Z</time></trkpt><trkpt lat="45.0571028" lon="7.873227"><ele>348.8</ele><time>2026-04-05T08:51:01.261Z</time></trkpt><trkpt lat="45.0571271" lon="7.8733555"><ele>349.4</ele><time>2026-04-05T08:51:02.261Z</time></trkpt><trkpt lat="45.0571515" lon="7.8734535"><ele>350.0</ele><time>2026-04-05T08:51:03.261Z</time></trkpt><trkpt lat="45.0571692" lon="7.8735436"><ele>350.0</ele><time>2026-04-05T08:51:04.261Z</time></trkpt><trkpt lat="45.0572283" lon="7.8736412"><ele>350.0</ele><time>2026-04-05T08:51:06.261Z</time></trkpt><trkpt lat="45.0573006" lon="7.8735377"><ele>350.0</ele><time>2026-04-05T08:51:08.261Z</time></trkpt><trkpt lat="45.0573454" lon="7.8734059"><ele>350.0</ele><time>2026-04-05T08:51:09.261Z</time></trkpt><trkpt lat="45.0573873" lon="7.8732499"><ele>350.0</ele><time>2026-04-05T08:51:10.261Z</time></trkpt><trkpt lat="45.0574217" lon="7.8731136"><ele>350.0</ele><time>2026-04-05T08:51:11.261Z</time></trkpt><trkpt lat="45.0575081" lon="7.8729441"><ele>350.0</ele><time>2026-04-05T08:51:14.261Z</time></trkpt><trkpt lat="45.0575444" lon="7.8730174"><ele>350.0</ele><time>2026-04-05T08:51:16.261Z</time></trkpt><trkpt lat="45.057536" lon="7.8731249"><ele>350.0</ele><time>2026-04-05T08:51:18.261Z</time></trkpt><trkpt lat="45.0575045" lon="7.8732041"><ele>350.0</ele><time>2026-04-05T08:51:19.261Z</time></trkpt><trkpt lat="45.0574488" lon="7.8733108"><ele>350.0</ele><time>2026-04-05T08:51:20.261Z</time></trkpt><trkpt lat="45.0573944" lon="7.8734286"><ele>351.7142857142857</ele><time>2026-04-05T08:51:21.261Z</time></trkpt><trkpt lat="45.0573513" lon="7.8735276"><ele>353.42857142857144</ele><time>2026-04-05T08:51:22.261Z</time></trkpt><trkpt lat="45.0573139" lon="7.8736099"><ele>355.1428571428571</ele><time>2026-04-05T08:51:23.261Z</time></trkpt><trkpt lat="45.0572773" lon="7.8736888"><ele>356.8571428571429</ele><time>2026-04-05T08:51:24.26Z</time></trkpt><trkpt lat="45.0572389" lon="7.8737741"><ele>358.57142857142856</ele><time>2026-04-05T08:51:25.261Z</time></trkpt><trkpt lat="45.0572011" lon="7.8738639"><ele>360.2857142857143</ele><time>2026-04-05T08:51:26.261Z</time></trkpt><trkpt lat="45.0571602" lon="7.8739662"><ele>362.0</ele><time>2026-04-05T08:51:27.261Z</time></trkpt><trkpt lat="45.0571139" lon="7.874076"><ele>362.0</ele><time>2026-04-05T08:51:28.261Z</time></trkpt><trkpt lat="45.057069" lon="7.8741886"><ele>362.0</ele><time>2026-04-05T08:51:29.261Z</time></trkpt><trkpt lat="45.0570211" lon="7.8742975"><ele>362.0</ele><time>2026-04-05T08:51:30.261Z</time></trkpt><trkpt lat="45.0569603" lon="7.8744064"><ele>362.0</ele><time>2026-04-05T08:51:31.261Z</time></trkpt><trkpt lat="45.0568913" lon="7.8745097"><ele>362.0</ele><time>2026-04-05T08:51:32.26Z</time></trkpt><trkpt lat="45.0567712" lon="7.8747064"><ele>361.40000000000003</ele><time>2026-04-05T08:51:34.261Z</time></trkpt><trkpt lat="45.0566901" lon="7.8747897"><ele>360.8</ele><time>2026-04-05T08:51:35.261Z</time></trkpt><trkpt lat="45.0565974" lon="7.8748711"><ele>360.2</ele><time>2026-04-05T08:51:36.261Z</time></trkpt><trkpt lat="45.0564948" lon="7.874944"><ele>359.6</ele><time>2026-04-05T08:51:37.261Z</time></trkpt><trkpt lat="45.0563863" lon="7.8750149"><ele>359.0</ele><time>2026-04-05T08:51:38.261Z</time></trkpt><trkpt lat="45.0562686" lon="7.8750851"><ele>361.25</ele><time>2026-04-05T08:51:39.261Z</time></trkpt><trkpt lat="45.0561497" lon="7.8751649"><ele>363.5</ele><time>2026-04-05T08:51:40.261Z</time></trkpt><trkpt lat="45.0560326" lon="7.8752485"><ele>365.75</ele><time>2026-04-05T08:51:41.261Z</time></trkpt><trkpt lat="45.0559179" lon="7.8753428"><ele>368.0</ele><time>2026-04-05T08:51:42.261Z</time></trkpt><trkpt lat="45.0558045" lon="7.875441"><ele>366.0</ele><time>2026-04-05T08:51:43.261Z</time></trkpt><trkpt lat="45.0557058" lon="7.8755325"><ele>364.0</ele><time>2026-04-05T08:51:44.261Z</time></trkpt><trkpt lat="45.0556196" lon="7.8756241"><ele>362.0</ele><time>2026-04-05T08:51:45.261Z</time></trkpt><trkpt lat="45.0555284" lon="7.8757152"><ele>360.0</ele><time>2026-04-05T08:51:46.261Z</time></trkpt><trkpt lat="45.0554311" lon="7.8758047"><ele>360.0</ele><time>2026-04-05T08:51:47.261Z</time></trkpt><trkpt lat="45.0553338" lon="7.8758975"><ele>360.0</ele><time>2026-04-05T08:51:48.261Z</time></trkpt><trkpt lat="45.0552393" lon="7.8759889"><ele>360.0</ele><time>2026-04-05T08:51:49.261Z</time></trkpt><trkpt lat="45.0551545" lon="7.8760812"><ele>360.0</ele><time>2026-04-05T08:51:50.261Z</time></trkpt><trkpt lat="45.0550772" lon="7.8761672"><ele>360.0</ele><time>2026-04-05T08:51:51.261Z</time></trkpt><trkpt lat="45.0549962" lon="7.8762526"><ele>360.3333333333333</ele><time>2026-04-05T08:51:52.261Z</time></trkpt><trkpt lat="45.0549109" lon="7.8763364"><ele>360.66666666666663</ele><time>2026-04-05T08:51:53.261Z</time></trkpt><trkpt lat="45.054707" lon="7.8764908"><ele>361.0</ele><time>2026-04-05T08:51:55.261Z</time></trkpt><trkpt lat="45.0545941" lon="7.8765562"><ele>361.0</ele><time>2026-04-05T08:51:56.261Z</time></trkpt><trkpt lat="45.0544759" lon="7.8766012"><ele>361.0</ele><time>2026-04-05T08:51:57.261Z</time></trkpt><trkpt lat="45.0543529" lon="7.8766333"><ele>361.0</ele><time>2026-04-05T08:51:58.261Z</time></trkpt><trkpt lat="45.0542287" lon="7.8766426"><ele>361.0</ele><time>2026-04-05T08:51:59.261Z</time></trkpt><trkpt lat="45.0541044" lon="7.8766491"><ele>360.75</ele><time>2026-04-05T08:52:00.261Z</time></trkpt><trkpt lat="45.0539846" lon="7.8766436"><ele>360.5</ele><time>2026-04-05T08:52:01.261Z</time></trkpt><trkpt lat="45.0538714" lon="7.8766365"><ele>360.25</ele><time>2026-04-05T08:52:02.261Z</time></trkpt><trkpt lat="45.0537537" lon="7.8766404"><ele>360.0</ele><time>2026-04-05T08:52:03.261Z</time></trkpt><trkpt lat="45.0536359" lon="7.8766433"><ele>360.0</ele><time>2026-04-05T08:52:04.261Z</time></trkpt><trkpt lat="45.053518" lon="7.8766486"><ele>360.0</ele><time>2026-04-05T08:52:05.261Z</time></trkpt><trkpt lat="45.0534047" lon="7.8766557"><ele>360.0</ele><time>2026-04-05T08:52:06.261Z</time></trkpt><trkpt lat="45.0532902" lon="7.8766523"><ele>360.0</ele><time>2026-04-05T08:52:07.261Z</time></trkpt><trkpt lat="45.0531806" lon="7.8766423"><ele>360.5</ele><time>2026-04-05T08:52:08.261Z</time></trkpt><trkpt lat="45.053068" lon="7.8766314"><ele>361.0</ele><time>2026-04-05T08:52:09.261Z</time></trkpt><trkpt lat="45.0529592" lon="7.8766091"><ele>361.5</ele><time>2026-04-05T08:52:10.261Z</time></trkpt><trkpt lat="45.0528402" lon="7.8765879"><ele>362.0</ele><time>2026-04-05T08:52:11.261Z</time></trkpt><trkpt lat="45.0527293" lon="7.8765601"><ele>362.0</ele><time>2026-04-05T08:52:12.261Z</time></trkpt><trkpt lat="45.0526002" lon="7.8765212"><ele>362.0</ele><time>2026-04-05T08:52:13.261Z</time></trkpt><trkpt lat="45.0524919" lon="7.8764719"><ele>362.0</ele><time>2026-04-05T08:52:14.261Z</time></trkpt><trkpt lat="45.052302" lon="7.8763958"><ele>362.0</ele><time>2026-04-05T08:52:16.261Z</time></trkpt><trkpt lat="45.0521942" lon="7.8763625"><ele>361.75</ele><time>2026-04-05T08:52:17.261Z</time></trkpt><trkpt lat="45.0520764" lon="7.8763286"><ele>361.5</ele><time>2026-04-05T08:52:18.261Z</time></trkpt><trkpt lat="45.0519528" lon="7.8763051"><ele>361.25</ele><time>2026-04-05T08:52:19.261Z</time></trkpt><trkpt lat="45.0518215" lon="7.8762942"><ele>361.0</ele><time>2026-04-05T08:52:20.261Z</time></trkpt><trkpt lat="45.0516899" lon="7.8762944"><ele>359.0</ele><time>2026-04-05T08:52:21.261Z</time></trkpt><trkpt lat="45.0515489" lon="7.8763029"><ele>357.0</ele><time>2026-04-05T08:52:22.261Z</time></trkpt><trkpt lat="45.0514039" lon="7.8763295"><ele>355.0</ele><time>2026-04-05T08:52:23.261Z</time></trkpt><trkpt lat="45.0512552" lon="7.8763729"><ele>353.0</ele><time>2026-04-05T08:52:24.261Z</time></trkpt><trkpt lat="45.0511031" lon="7.8764486"><ele>353.0</ele><time>2026-04-05T08:52:25.261Z</time></trkpt><trkpt lat="45.0509551" lon="7.8765487"><ele>353.0</ele><time>2026-04-05T08:52:26.261Z</time></trkpt><trkpt lat="45.050792" lon="7.8766656"><ele>353.0</ele><time>2026-04-05T08:52:27.261Z</time></trkpt><trkpt lat="45.050631" lon="7.8767881"><ele>352.0</ele><time>2026-04-05T08:52:28.261Z</time></trkpt><trkpt lat="45.0504814" lon="7.8769275"><ele>351.0</ele><time>2026-04-05T08:52:29.261Z</time></trkpt><trkpt lat="45.0503251" lon="7.8770809"><ele>350.0</ele><time>2026-04-05T08:52:30.261Z</time></trkpt><trkpt lat="45.0501584" lon="7.8772439"><ele>350.0</ele><time>2026-04-05T08:52:31.261Z</time></trkpt><trkpt lat="45.0499924" lon="7.8774102"><ele>350.0</ele><time>2026-04-05T08:52:32.261Z</time></trkpt><trkpt lat="45.0498313" lon="7.8775702"><ele>350.0</ele><time>2026-04-05T08:52:33.261Z</time></trkpt><trkpt lat="45.0496688" lon="7.8777264"><ele>347.0</ele><time>2026-04-05T08:52:34.261Z</time></trkpt><trkpt lat="45.0495044" lon="7.877876"><ele>344.0</ele><time>2026-04-05T08:52:35.261Z</time></trkpt><trkpt lat="45.0492355" lon="7.8781265"><ele>342.75</ele><time>2026-04-05T08:52:37.261Z</time></trkpt><trkpt lat="45.0491125" lon="7.8782269"><ele>341.5</ele><time>2026-04-05T08:52:38.261Z</time></trkpt><trkpt lat="45.0490057" lon="7.8783058"><ele>340.25</ele><time>2026-04-05T08:52:39.261Z</time></trkpt><trkpt lat="45.048912" lon="7.8783621"><ele>339.0</ele><time>2026-04-05T08:52:40.261Z</time></trkpt><trkpt lat="45.0488324" lon="7.8784084"><ele>338.75</ele><time>2026-04-05T08:52:41.261Z</time></trkpt><trkpt lat="45.0487752" lon="7.8784492"><ele>338.5</ele><time>2026-04-05T08:52:42.261Z</time></trkpt><trkpt lat="45.0487199" lon="7.8785201"><ele>338.25</ele><time>2026-04-05T08:52:44.26Z</time></trkpt><trkpt lat="45.048711" lon="7.8786225"><ele>338.0</ele><time>2026-04-05T08:53:14.261Z</time></trkpt><trkpt lat="45.0488065" lon="7.8789417"><ele>338.0</ele><time>2026-04-05T08:53:17.261Z</time></trkpt><trkpt lat="45.0488534" lon="7.8790933"><ele>338.0</ele><time>2026-04-05T08:53:18.261Z</time></trkpt><trkpt lat="45.0488912" lon="7.8792485"><ele>338.0</ele><time>2026-04-05T08:53:19.261Z</time></trkpt><trkpt lat="45.0489182" lon="7.8793927"><ele>338.0</ele><time>2026-04-05T08:53:20.261Z</time></trkpt><trkpt lat="45.0489455" lon="7.8795328"><ele>338.0</ele><time>2026-04-05T08:53:21.261Z</time></trkpt><trkpt lat="45.0489766" lon="7.8796681"><ele>336.0</ele><time>2026-04-05T08:53:22.261Z</time></trkpt><trkpt lat="45.0489942" lon="7.8798193"><ele>334.0</ele><time>2026-04-05T08:53:23.261Z</time></trkpt><trkpt lat="45.0489922" lon="7.879986"><ele>332.0</ele><time>2026-04-05T08:53:24.261Z</time></trkpt><trkpt lat="45.0489746" lon="7.8801727"><ele>330.0</ele><time>2026-04-05T08:53:25.261Z</time></trkpt><trkpt lat="45.048952" lon="7.8803774"><ele>328.6666666666667</ele><time>2026-04-05T08:53:26.261Z</time></trkpt><trkpt lat="45.0489223" lon="7.8806018"><ele>327.33333333333337</ele><time>2026-04-05T08:53:27.261Z</time></trkpt><trkpt lat="45.0488871" lon="7.8808413"><ele>326.0</ele><time>2026-04-05T08:53:28.261Z</time></trkpt><trkpt lat="45.0488515" lon="7.8810909"><ele>324.0</ele><time>2026-04-05T08:53:29.261Z</time></trkpt><trkpt lat="45.0488203" lon="7.8813327"><ele>322.0</ele><time>2026-04-05T08:53:30.261Z</time></trkpt><trkpt lat="45.0487944" lon="7.8815756"><ele>320.0</ele><time>2026-04-05T08:53:31.261Z</time></trkpt><trkpt lat="45.0487663" lon="7.8818141"><ele>319.0</ele><time>2026-04-05T08:53:32.261Z</time></trkpt><trkpt lat="45.0487417" lon="7.8820587"><ele>318.0</ele><time>2026-04-05T08:53:33.261Z</time></trkpt><trkpt lat="45.0487289" lon="7.8823044"><ele>317.0</ele><time>2026-04-05T08:53:34.261Z</time></trkpt><trkpt lat="45.0487089" lon="7.8825494"><ele>317.0</ele><time>2026-04-05T08:53:35.261Z</time></trkpt><trkpt lat="45.0486873" lon="7.8830312"><ele>317.0</ele><time>2026-04-05T08:53:37.261Z</time></trkpt><trkpt lat="45.0486685" lon="7.8832528"><ele>317.5</ele><time>2026-04-05T08:53:38.261Z</time></trkpt><trkpt lat="45.0486493" lon="7.8834648"><ele>318.0</ele><time>2026-04-05T08:53:39.261Z</time></trkpt><trkpt lat="45.0486349" lon="7.8836474"><ele>318.5</ele><time>2026-04-05T08:53:40.261Z</time></trkpt><trkpt lat="45.0486265" lon="7.8838014"><ele>319.0</ele><time>2026-04-05T08:53:41.261Z</time></trkpt><trkpt lat="45.0486182" lon="7.8839271"><ele>319.0</ele><time>2026-04-05T08:53:42.261Z</time></trkpt><trkpt lat="45.0486018" lon="7.8840326"><ele>319.0</ele><time>2026-04-05T08:53:43.261Z</time></trkpt><trkpt lat="45.0485673" lon="7.8841158"><ele>319.0</ele><time>2026-04-05T08:53:44.261Z</time></trkpt><trkpt lat="45.0485125" lon="7.8841881"><ele>319.0</ele><time>2026-04-05T08:53:45.261Z</time></trkpt><trkpt lat="45.048422" lon="7.8842412"><ele>319.0</ele><time>2026-04-05T08:53:46.261Z</time></trkpt><trkpt lat="45.04831" lon="7.8842968"><ele>319.0</ele><time>2026-04-05T08:53:47.261Z</time></trkpt><trkpt lat="45.0481755" lon="7.8843547"><ele>319.25</ele><time>2026-04-05T08:53:48.261Z</time></trkpt><trkpt lat="45.0480345" lon="7.8844217"><ele>319.5</ele><time>2026-04-05T08:53:49.261Z</time></trkpt><trkpt lat="45.0478926" lon="7.8844928"><ele>319.75</ele><time>2026-04-05T08:53:50.261Z</time></trkpt><trkpt lat="45.0477527" lon="7.8845649"><ele>320.0</ele><time>2026-04-05T08:53:51.261Z</time></trkpt><trkpt lat="45.0476189" lon="7.8846356"><ele>320.0</ele><time>2026-04-05T08:53:52.261Z</time></trkpt><trkpt lat="45.0474921" lon="7.8846981"><ele>320.0</ele><time>2026-04-05T08:53:53.261Z</time></trkpt><trkpt lat="45.0473599" lon="7.8847782"><ele>320.0</ele><time>2026-04-05T08:53:54.261Z</time></trkpt><trkpt lat="45.047232" lon="7.8848633"><ele>320.0</ele><time>2026-04-05T08:53:55.261Z</time></trkpt><trkpt lat="45.0471078" lon="7.8849495"><ele>318.33333333333337</ele><time>2026-04-05T08:53:56.261Z</time></trkpt><trkpt lat="45.0468713" lon="7.8851295"><ele>316.6666666666667</ele><time>2026-04-05T08:53:58.261Z</time></trkpt><trkpt lat="45.0467616" lon="7.8852254"><ele>315.0</ele><time>2026-04-05T08:53:59.261Z</time></trkpt><trkpt lat="45.046646" lon="7.8853186"><ele>315.25</ele><time>2026-04-05T08:54:00.261Z</time></trkpt><trkpt lat="45.0465357" lon="7.8854163"><ele>315.5</ele><time>2026-04-05T08:54:01.261Z</time></trkpt><trkpt lat="45.0464219" lon="7.885508"><ele>315.75</ele><time>2026-04-05T08:54:02.261Z</time></trkpt><trkpt lat="45.0463069" lon="7.8855878"><ele>316.0</ele><time>2026-04-05T08:54:03.261Z</time></trkpt><trkpt lat="45.0461866" lon="7.885672"><ele>316.0</ele><time>2026-04-05T08:54:04.261Z</time></trkpt><trkpt lat="45.0460688" lon="7.8857506"><ele>316.0</ele><time>2026-04-05T08:54:05.261Z</time></trkpt><trkpt lat="45.0459522" lon="7.885837"><ele>316.0</ele><time>2026-04-05T08:54:06.261Z</time></trkpt><trkpt lat="45.0458367" lon="7.8859109"><ele>316.0</ele><time>2026-04-05T08:54:07.26Z</time></trkpt><trkpt lat="45.0457212" lon="7.8859814"><ele>314.5</ele><time>2026-04-05T08:54:08.261Z</time></trkpt><trkpt lat="45.045598" lon="7.8860456"><ele>313.0</ele><time>2026-04-05T08:54:09.261Z</time></trkpt><trkpt lat="45.0454659" lon="7.8861131"><ele>311.5</ele><time>2026-04-05T08:54:10.261Z</time></trkpt><trkpt lat="45.0453368" lon="7.8861866"><ele>310.0</ele><time>2026-04-05T08:54:11.261Z</time></trkpt><trkpt lat="45.0452076" lon="7.8862576"><ele>310.0</ele><time>2026-04-05T08:54:12.261Z</time></trkpt><trkpt lat="45.0450869" lon="7.8863308"><ele>310.0</ele><time>2026-04-05T08:54:13.261Z</time></trkpt><trkpt lat="45.0449688" lon="7.8864028"><ele>310.0</ele><time>2026-04-05T08:54:14.261Z</time></trkpt><trkpt lat="45.0448551" lon="7.8864719"><ele>310.0</ele><time>2026-04-05T08:54:15.261Z</time></trkpt><trkpt lat="45.0447414" lon="7.8865425"><ele>311.0</ele><time>2026-04-05T08:54:16.261Z</time></trkpt><trkpt lat="45.0446358" lon="7.8866197"><ele>312.0</ele><time>2026-04-05T08:54:17.26Z</time></trkpt><trkpt lat="45.0444189" lon="7.8867546"><ele>313.0</ele><time>2026-04-05T08:54:19.261Z</time></trkpt><trkpt lat="45.0443146" lon="7.886807"><ele>311.2</ele><time>2026-04-05T08:54:20.261Z</time></trkpt><trkpt lat="45.0442188" lon="7.8868541"><ele>309.4</ele><time>2026-04-05T08:54:21.261Z</time></trkpt><trkpt lat="45.0441276" lon="7.8869017"><ele>307.59999999999997</ele><time>2026-04-05T08:54:22.261Z</time></trkpt><trkpt lat="45.0440422" lon="7.8869492"><ele>305.8</ele><time>2026-04-05T08:54:23.261Z</time></trkpt><trkpt lat="45.0439628" lon="7.8869918"><ele>304.0</ele><time>2026-04-05T08:54:24.261Z</time></trkpt><trkpt lat="45.0438876" lon="7.8870195"><ele>304.0</ele><time>2026-04-05T08:54:25.261Z</time></trkpt><trkpt lat="45.0437816" lon="7.8870334"><ele>304.0</ele><time>2026-04-05T08:54:27.261Z</time></trkpt><trkpt lat="45.0437447" lon="7.8871276"><ele>304.0</ele><time>2026-04-05T08:54:29.261Z</time></trkpt><trkpt lat="45.0437151" lon="7.8872912"><ele>304.0</ele><time>2026-04-05T08:54:31.261Z</time></trkpt><trkpt lat="45.0436988" lon="7.8873848"><ele>304.0</ele><time>2026-04-05T08:54:32.261Z</time></trkpt><trkpt lat="45.0436799" lon="7.8874799"><ele>304.0</ele><time>2026-04-05T08:54:33.261Z</time></trkpt><trkpt lat="45.0436647" lon="7.8875707"><ele>301.25</ele><time>2026-04-05T08:54:34.261Z</time></trkpt><trkpt lat="45.0436649" lon="7.8876619"><ele>298.5</ele><time>2026-04-05T08:54:35.261Z</time></trkpt><trkpt lat="45.0436851" lon="7.8878121"><ele>295.75</ele><time>2026-04-05T08:54:37.261Z</time></trkpt><trkpt lat="45.0437153" lon="7.8879329"><ele>293.0</ele><time>2026-04-05T08:54:39.261Z</time></trkpt><trkpt lat="45.0438023" lon="7.8882114"><ele>293.0</ele><time>2026-04-05T08:54:43.261Z</time></trkpt><trkpt lat="45.0438541" lon="7.8883586"><ele>293.0</ele><time>2026-04-05T08:54:45.261Z</time></trkpt><trkpt lat="45.0439071" lon="7.8884931"><ele>293.0</ele><time>2026-04-05T08:54:47.261Z</time></trkpt><trkpt lat="45.0439678" lon="7.8885917"><ele>293.0</ele><time>2026-04-05T08:54:49.261Z</time></trkpt><trkpt lat="45.0440469" lon="7.8885831"><ele>293.0</ele><time>2026-04-05T08:54:51.261Z</time></trkpt><trkpt lat="45.044164" lon="7.8885013"><ele>293.4</ele><time>2026-04-05T08:54:53.261Z</time></trkpt><trkpt lat="45.0442319" lon="7.8884617"><ele>293.8</ele><time>2026-04-05T08:54:54.261Z</time></trkpt><trkpt lat="45.0443107" lon="7.888427"><ele>294.2</ele><time>2026-04-05T08:54:55.261Z</time></trkpt><trkpt lat="45.0444009" lon="7.8883894"><ele>294.6</ele><time>2026-04-05T08:54:56.261Z</time></trkpt><trkpt lat="45.0445033" lon="7.8883468"><ele>295.0</ele><time>2026-04-05T08:54:57.261Z</time></trkpt><trkpt lat="45.044616" lon="7.8883013"><ele>295.0</ele><time>2026-04-05T08:54:58.261Z</time></trkpt><trkpt lat="45.0447301" lon="7.8882543"><ele>295.0</ele><time>2026-04-05T08:54:59.261Z</time></trkpt><trkpt lat="45.0448514" lon="7.8882063"><ele>295.0</ele><time>2026-04-05T08:55:00.261Z</time></trkpt><trkpt lat="45.0450875" lon="7.8881158"><ele>294.5</ele><time>2026-04-05T08:55:02.261Z</time></trkpt><trkpt lat="45.0451999" lon="7.8880701"><ele>294.0</ele><time>2026-04-05T08:55:03.261Z</time></trkpt><trkpt lat="45.0453133" lon="7.8880276"><ele>293.5</ele><time>2026-04-05T08:55:04.261Z</time></trkpt><trkpt lat="45.0454307" lon="7.8879789"><ele>293.0</ele><time>2026-04-05T08:55:05.261Z</time></trkpt><trkpt lat="45.0455545" lon="7.8879247"><ele>293.0</ele><time>2026-04-05T08:55:06.261Z</time></trkpt><trkpt lat="45.0456748" lon="7.8878705"><ele>293.0</ele><time>2026-04-05T08:55:07.261Z</time></trkpt><trkpt lat="45.0457938" lon="7.8878209"><ele>293.0</ele><time>2026-04-05T08:55:08.261Z</time></trkpt><trkpt lat="45.0459197" lon="7.8877827"><ele>293.0</ele><time>2026-04-05T08:55:09.261Z</time></trkpt><trkpt lat="45.0460447" lon="7.8877527"><ele>292.25</ele><time>2026-04-05T08:55:10.261Z</time></trkpt><trkpt lat="45.0461629" lon="7.8877152"><ele>291.5</ele><time>2026-04-05T08:55:11.261Z</time></trkpt><trkpt lat="45.0462786" lon="7.8876705"><ele>290.75</ele><time>2026-04-05T08:55:12.261Z</time></trkpt><trkpt lat="45.0463973" lon="7.8876199"><ele>290.0</ele><time>2026-04-05T08:55:13.261Z</time></trkpt><trkpt lat="45.0465198" lon="7.8875679"><ele>290.5</ele><time>2026-04-05T08:55:14.261Z</time></trkpt><trkpt lat="45.0466434" lon="7.8875337"><ele>291.0</ele><time>2026-04-05T08:55:15.261Z</time></trkpt><trkpt lat="45.0467684" lon="7.88751"><ele>291.5</ele><time>2026-04-05T08:55:16.261Z</time></trkpt><trkpt lat="45.046885" lon="7.8874817"><ele>292.0</ele><time>2026-04-05T08:55:17.261Z</time></trkpt><trkpt lat="45.0470064" lon="7.8874545"><ele>292.0</ele><time>2026-04-05T08:55:18.261Z</time></trkpt><trkpt lat="45.0471279" lon="7.8874352"><ele>292.0</ele><time>2026-04-05T08:55:19.261Z</time></trkpt><trkpt lat="45.0472461" lon="7.887416"><ele>292.0</ele><time>2026-04-05T08:55:20.261Z</time></trkpt><trkpt lat="45.0473733" lon="7.8874003"><ele>292.0</ele><time>2026-04-05T08:55:21.261Z</time></trkpt><trkpt lat="45.0476224" lon="7.8873797"><ele>291.6</ele><time>2026-04-05T08:55:23.261Z</time></trkpt><trkpt lat="45.0477387" lon="7.8873646"><ele>291.2</ele><time>2026-04-05T08:55:24.261Z</time></trkpt><trkpt lat="45.0478392" lon="7.8873467"><ele>290.8</ele><time>2026-04-05T08:55:25.261Z</time></trkpt><trkpt lat="45.0479316" lon="7.8873364"><ele>290.4</ele><time>2026-04-05T08:55:26.261Z</time></trkpt><trkpt lat="45.0480244" lon="7.8873178"><ele>290.0</ele><time>2026-04-05T08:55:27.261Z</time></trkpt><trkpt lat="45.0481133" lon="7.8873047"><ele>290.0</ele><time>2026-04-05T08:55:28.261Z</time></trkpt><trkpt lat="45.0481923" lon="7.8872947"><ele>290.0</ele><time>2026-04-05T08:55:29.261Z</time></trkpt><trkpt lat="45.0482668" lon="7.8872794"><ele>290.0</ele><time>2026-04-05T08:55:30.261Z</time></trkpt><trkpt lat="45.0483303" lon="7.8872674"><ele>290.0</ele><time>2026-04-05T08:55:31.261Z</time></trkpt><trkpt lat="45.0484518" lon="7.8872438"><ele>290.0</ele><time>2026-04-05T08:55:33.261Z</time></trkpt><trkpt lat="45.0485146" lon="7.8872351"><ele>290.0</ele><time>2026-04-05T08:55:34.261Z</time></trkpt><trkpt lat="45.0486261" lon="7.8872188"><ele>289.8</ele><time>2026-04-05T08:55:36.261Z</time></trkpt><trkpt lat="45.0487279" lon="7.8871949"><ele>289.6</ele><time>2026-04-05T08:55:38.261Z</time></trkpt><trkpt lat="45.0488449" lon="7.8871695"><ele>289.4</ele><time>2026-04-05T08:55:40.261Z</time></trkpt><trkpt lat="45.0489256" lon="7.8871423"><ele>289.2</ele><time>2026-04-05T08:55:41.261Z</time></trkpt><trkpt lat="45.0490081" lon="7.8871044"><ele>289.0</ele><time>2026-04-05T08:55:42.261Z</time></trkpt><trkpt lat="45.0491842" lon="7.8869745"><ele>289.0</ele><time>2026-04-05T08:55:44.261Z</time></trkpt><trkpt lat="45.0492729" lon="7.886892"><ele>289.0</ele><time>2026-04-05T08:55:45.261Z</time></trkpt><trkpt lat="45.0493609" lon="7.8868102"><ele>289.0</ele><time>2026-04-05T08:55:46.261Z</time></trkpt><trkpt lat="45.0494568" lon="7.8867184"><ele>289.0</ele><time>2026-04-05T08:55:47.261Z</time></trkpt><trkpt lat="45.0495638" lon="7.8866212"><ele>290.25</ele><time>2026-04-05T08:55:48.261Z</time></trkpt><trkpt lat="45.0496726" lon="7.8865329"><ele>291.5</ele><time>2026-04-05T08:55:49.261Z</time></trkpt><trkpt lat="45.0497725" lon="7.8864552"><ele>292.75</ele><time>2026-04-05T08:55:50.261Z</time></trkpt><trkpt lat="45.049877" lon="7.8863922"><ele>294.0</ele><time>2026-04-05T08:55:51.261Z</time></trkpt><trkpt lat="45.0499739" lon="7.8863419"><ele>294.0</ele><time>2026-04-05T08:55:52.261Z</time></trkpt><trkpt lat="45.050066" lon="7.886299"><ele>294.0</ele><time>2026-04-05T08:55:53.261Z</time></trkpt><trkpt lat="45.0501534" lon="7.8862596"><ele>294.0</ele><time>2026-04-05T08:55:54.26Z</time></trkpt><trkpt lat="45.050232" lon="7.8862203"><ele>294.0</ele><time>2026-04-05T08:55:55.261Z</time></trkpt><trkpt lat="45.050312" lon="7.8861939"><ele>294.0</ele><time>2026-04-05T08:55:56.261Z</time></trkpt><trkpt lat="45.0503932" lon="7.8861654"><ele>294.0</ele><time>2026-04-05T08:55:57.261Z</time></trkpt><trkpt lat="45.0504777" lon="7.8861361"><ele>294.0</ele><time>2026-04-05T08:55:58.261Z</time></trkpt><trkpt lat="45.0505643" lon="7.8860982"><ele>294.0</ele><time>2026-04-05T08:55:59.261Z</time></trkpt><trkpt lat="45.0506534" lon="7.8860604"><ele>294.0</ele><time>2026-04-05T08:56:00.26Z</time></trkpt><trkpt lat="45.0507386" lon="7.8860237"><ele>294.0</ele><time>2026-04-05T08:56:01.261Z</time></trkpt><trkpt lat="45.0508278" lon="7.8859912"><ele>294.0</ele><time>2026-04-05T08:56:02.261Z</time></trkpt><trkpt lat="45.0509193" lon="7.8859465"><ele>294.75</ele><time>2026-04-05T08:56:03.261Z</time></trkpt><trkpt lat="45.0510944" lon="7.8858771"><ele>295.5</ele><time>2026-04-05T08:56:05.261Z</time></trkpt><trkpt lat="45.0511945" lon="7.8858366"><ele>296.25</ele><time>2026-04-05T08:56:06.261Z</time></trkpt><trkpt lat="45.0512978" lon="7.8857977"><ele>297.0</ele><time>2026-04-05T08:56:07.261Z</time></trkpt><trkpt lat="45.0514067" lon="7.8857653"><ele>297.0</ele><time>2026-04-05T08:56:08.261Z</time></trkpt><trkpt lat="45.0515172" lon="7.8857329"><ele>297.0</ele><time>2026-04-05T08:56:09.261Z</time></trkpt><trkpt lat="45.0516253" lon="7.8857013"><ele>297.0</ele><time>2026-04-05T08:56:10.261Z</time></trkpt><trkpt lat="45.0517283" lon="7.885673"><ele>297.0</ele><time>2026-04-05T08:56:11.261Z</time></trkpt><trkpt lat="45.0518245" lon="7.8856585"><ele>297.0</ele><time>2026-04-05T08:56:12.261Z</time></trkpt><trkpt lat="45.0519126" lon="7.8856632"><ele>296.4</ele><time>2026-04-05T08:56:13.261Z</time></trkpt><trkpt lat="45.051992" lon="7.8856878"><ele>295.79999999999995</ele><time>2026-04-05T08:56:14.261Z</time></trkpt><trkpt lat="45.0520692" lon="7.8857389"><ele>295.2</ele><time>2026-04-05T08:56:15.261Z</time></trkpt><trkpt lat="45.0521502" lon="7.8858241"><ele>294.59999999999997</ele><time>2026-04-05T08:56:16.261Z</time></trkpt><trkpt lat="45.0522383" lon="7.8859186"><ele>294.0</ele><time>2026-04-05T08:56:17.261Z</time></trkpt><trkpt lat="45.052335" lon="7.886014"><ele>293.0</ele><time>2026-04-05T08:56:18.261Z</time></trkpt><trkpt lat="45.0524358" lon="7.8861135"><ele>292.0</ele><time>2026-04-05T08:56:19.261Z</time></trkpt><trkpt lat="45.0525357" lon="7.8862112"><ele>291.0</ele><time>2026-04-05T08:56:20.261Z</time></trkpt><trkpt lat="45.0526375" lon="7.8863143"><ele>290.0</ele><time>2026-04-05T08:56:21.261Z</time></trkpt><trkpt lat="45.0527487" lon="7.8864216"><ele>290.0</ele><time>2026-04-05T08:56:22.261Z</time></trkpt><trkpt lat="45.0528565" lon="7.8865428"><ele>290.0</ele><time>2026-04-05T08:56:23.261Z</time></trkpt><trkpt lat="45.0529715" lon="7.8866675"><ele>290.0</ele><time>2026-04-05T08:56:24.261Z</time></trkpt><trkpt lat="45.0532042" lon="7.8869149"><ele>290.5</ele><time>2026-04-05T08:56:26.261Z</time></trkpt><trkpt lat="45.0533211" lon="7.8870422"><ele>291.0</ele><time>2026-04-05T08:56:27.261Z</time></trkpt><trkpt lat="45.0534382" lon="7.8871651"><ele>291.5</ele><time>2026-04-05T08:56:28.261Z</time></trkpt><trkpt lat="45.0535466" lon="7.8872751"><ele>292.0</ele><time>2026-04-05T08:56:29.261Z</time></trkpt><trkpt lat="45.0536402" lon="7.8873703"><ele>292.0</ele><time>2026-04-05T08:56:30.261Z</time></trkpt><trkpt lat="45.0537187" lon="7.8874513"><ele>292.0</ele><time>2026-04-05T08:56:31.261Z</time></trkpt><trkpt lat="45.053786" lon="7.8875224"><ele>292.0</ele><time>2026-04-05T08:56:32.261Z</time></trkpt><trkpt lat="45.0538362" lon="7.8875823"><ele>292.0</ele><time>2026-04-05T08:56:33.261Z</time></trkpt><trkpt lat="45.0538864" lon="7.8877343"><ele>292.0</ele><time>2026-04-05T08:56:35.261Z</time></trkpt><trkpt lat="45.0538856" lon="7.8878308"><ele>292.0</ele><time>2026-04-05T08:56:36.261Z</time></trkpt><trkpt lat="45.0538517" lon="7.8879451"><ele>292.0</ele><time>2026-04-05T08:56:37.261Z</time></trkpt><trkpt lat="45.0537931" lon="7.8880797"><ele>292.0</ele><time>2026-04-05T08:56:38.261Z</time></trkpt><trkpt lat="45.0537034" lon="7.8882482"><ele>292.0</ele><time>2026-04-05T08:56:39.261Z</time></trkpt><trkpt lat="45.0536148" lon="7.8884264"><ele>292.0</ele><time>2026-04-05T08:56:40.261Z</time></trkpt><trkpt lat="45.0535403" lon="7.8886041"><ele>292.0</ele><time>2026-04-05T08:56:41.261Z</time></trkpt><trkpt lat="45.0534686" lon="7.8887708"><ele>292.0</ele><time>2026-04-05T08:56:42.261Z</time></trkpt><trkpt lat="45.0534046" lon="7.8889244"><ele>292.0</ele><time>2026-04-05T08:56:43.261Z</time></trkpt><trkpt lat="45.0533474" lon="7.889056"><ele>292.0</ele><time>2026-04-05T08:56:44.261Z</time></trkpt><trkpt lat="45.0532982" lon="7.8891631"><ele>291.8</ele><time>2026-04-05T08:56:45.261Z</time></trkpt><trkpt lat="45.0532238" lon="7.8893337"><ele>291.6</ele><time>2026-04-05T08:56:47.261Z</time></trkpt><trkpt lat="45.053155" lon="7.8894625"><ele>291.40000000000003</ele><time>2026-04-05T08:56:49.261Z</time></trkpt><trkpt lat="45.0531258" lon="7.8895533"><ele>291.2</ele><time>2026-04-05T08:56:51.261Z</time></trkpt><trkpt lat="45.0532034" lon="7.8896337"><ele>291.0</ele><time>2026-04-05T08:56:53.261Z</time></trkpt><trkpt lat="45.0532765" lon="7.8896982"><ele>292.0</ele><time>2026-04-05T08:56:54.261Z</time></trkpt><trkpt lat="45.053357" lon="7.8897841"><ele>293.0</ele><time>2026-04-05T08:56:55.261Z</time></trkpt><trkpt lat="45.0534389" lon="7.8898784"><ele>294.0</ele><time>2026-04-05T08:56:56.261Z</time></trkpt><trkpt lat="45.0535201" lon="7.8899841"><ele>295.0</ele><time>2026-04-05T08:56:57.261Z</time></trkpt><trkpt lat="45.0535993" lon="7.8900972"><ele>296.0</ele><time>2026-04-05T08:56:58.261Z</time></trkpt><trkpt lat="45.0536875" lon="7.8902097"><ele>297.75</ele><time>2026-04-05T08:56:59.261Z</time></trkpt><trkpt lat="45.053776" lon="7.8903176"><ele>299.5</ele><time>2026-04-05T08:57:00.261Z</time></trkpt><trkpt lat="45.0538708" lon="7.8904147"><ele>301.25</ele><time>2026-04-05T08:57:01.261Z</time></trkpt><trkpt lat="45.0539724" lon="7.8905066"><ele>303.0</ele><time>2026-04-05T08:57:02.261Z</time></trkpt><trkpt lat="45.0540772" lon="7.8906006"><ele>303.0</ele><time>2026-04-05T08:57:03.261Z</time></trkpt><trkpt lat="45.0541746" lon="7.8907097"><ele>303.0</ele><time>2026-04-05T08:57:04.261Z</time></trkpt><trkpt lat="45.0542618" lon="7.8908328"><ele>303.0</ele><time>2026-04-05T08:57:05.261Z</time></trkpt><trkpt lat="45.0543459" lon="7.8909776"><ele>303.0</ele><time>2026-04-05T08:57:06.261Z</time></trkpt><trkpt lat="45.0544975" lon="7.8913023"><ele>305.75</ele><time>2026-04-05T08:57:08.261Z</time></trkpt><trkpt lat="45.0545718" lon="7.8914669"><ele>308.5</ele><time>2026-04-05T08:57:09.261Z</time></trkpt><trkpt lat="45.0546332" lon="7.891621"><ele>311.25</ele><time>2026-04-05T08:57:10.261Z</time></trkpt><trkpt lat="45.054687" lon="7.8917575"><ele>314.0</ele><time>2026-04-05T08:57:11.261Z</time></trkpt><trkpt lat="45.0547302" lon="7.891883"><ele>315.6</ele><time>2026-04-05T08:57:12.261Z</time></trkpt><trkpt lat="45.0547493" lon="7.8920035"><ele>317.2</ele><time>2026-04-05T08:57:13.261Z</time></trkpt><trkpt lat="45.0547422" lon="7.8921266"><ele>318.8</ele><time>2026-04-05T08:57:14.261Z</time></trkpt><trkpt lat="45.0547194" lon="7.8922596"><ele>320.40000000000003</ele><time>2026-04-05T08:57:15.261Z</time></trkpt><trkpt lat="45.0546916" lon="7.8924067"><ele>322.0</ele><time>2026-04-05T08:57:16.261Z</time></trkpt><trkpt lat="45.0546611" lon="7.8925513"><ele>323.40000000000003</ele><time>2026-04-05T08:57:17.261Z</time></trkpt><trkpt lat="45.0546308" lon="7.892695"><ele>324.8</ele><time>2026-04-05T08:57:18.261Z</time></trkpt><trkpt lat="45.05461" lon="7.8928234"><ele>326.2</ele><time>2026-04-05T08:57:19.261Z</time></trkpt><trkpt lat="45.0546053" lon="7.8929516"><ele>327.6</ele><time>2026-04-05T08:57:20.261Z</time></trkpt><trkpt lat="45.0546161" lon="7.8930957"><ele>329.0</ele><time>2026-04-05T08:57:21.261Z</time></trkpt><trkpt lat="45.0546362" lon="7.8932279"><ele>329.0</ele><time>2026-04-05T08:57:22.261Z</time></trkpt><trkpt lat="45.0546698" lon="7.8933448"><ele>329.0</ele><time>2026-04-05T08:57:23.261Z</time></trkpt><trkpt lat="45.0547084" lon="7.8934532"><ele>329.0</ele><time>2026-04-05T08:57:24.261Z</time></trkpt><trkpt lat="45.0547538" lon="7.8935417"><ele>329.0</ele><time>2026-04-05T08:57:25.261Z</time></trkpt><trkpt lat="45.0548032" lon="7.8936134"><ele>329.0</ele><time>2026-04-05T08:57:26.261Z</time></trkpt><trkpt lat="45.0548618" lon="7.8936779"><ele>329.0</ele><time>2026-04-05T08:57:27.261Z</time></trkpt><trkpt lat="45.0549748" lon="7.8938212"><ele>330.1666666666667</ele><time>2026-04-05T08:57:29.261Z</time></trkpt><trkpt lat="45.055037" lon="7.893896"><ele>331.33333333333337</ele><time>2026-04-05T08:57:30.261Z</time></trkpt><trkpt lat="45.0551084" lon="7.8939678"><ele>332.5</ele><time>2026-04-05T08:57:31.261Z</time></trkpt><trkpt lat="45.0551747" lon="7.8940355"><ele>333.6666666666667</ele><time>2026-04-05T08:57:32.261Z</time></trkpt><trkpt lat="45.0552337" lon="7.8941018"><ele>334.8333333333333</ele><time>2026-04-05T08:57:33.261Z</time></trkpt><trkpt lat="45.0552865" lon="7.8941734"><ele>336.0</ele><time>2026-04-05T08:57:34.261Z</time></trkpt><trkpt lat="45.0553335" lon="7.8942468"><ele>336.6</ele><time>2026-04-05T08:57:35.261Z</time></trkpt><trkpt lat="45.0553657" lon="7.8943243"><ele>337.20000000000005</ele><time>2026-04-05T08:57:36.261Z</time></trkpt><trkpt lat="45.0554087" lon="7.8944853"><ele>337.79999999999995</ele><time>2026-04-05T08:57:38.261Z</time></trkpt><trkpt lat="45.055462" lon="7.8946456"><ele>338.4</ele><time>2026-04-05T08:57:40.261Z</time></trkpt><trkpt lat="45.0555395" lon="7.8947782"><ele>339.0</ele><time>2026-04-05T08:57:42.261Z</time></trkpt><trkpt lat="45.0555906" lon="7.8948926"><ele>339.0</ele><time>2026-04-05T08:57:44.261Z</time></trkpt><trkpt lat="45.0556483" lon="7.8949871"><ele>339.0</ele><time>2026-04-05T08:57:46.261Z</time></trkpt><trkpt lat="45.0557036" lon="7.8950838"><ele>339.0</ele><time>2026-04-05T08:57:48.261Z</time></trkpt><trkpt lat="45.0558219" lon="7.8952588"><ele>339.0</ele><time>2026-04-05T08:57:52.261Z</time></trkpt><trkpt lat="45.0559016" lon="7.8953475"><ele>339.0</ele><time>2026-04-05T08:57:54.261Z</time></trkpt><trkpt lat="45.0559884" lon="7.8954347"><ele>339.5</ele><time>2026-04-05T08:57:56.261Z</time></trkpt><trkpt lat="45.0560409" lon="7.8954846"><ele>340.0</ele><time>2026-04-05T08:57:57.261Z</time></trkpt><trkpt lat="45.0560987" lon="7.8955414"><ele>340.5</ele><time>2026-04-05T08:57:58.261Z</time></trkpt><trkpt lat="45.0561564" lon="7.895606"><ele>341.0</ele><time>2026-04-05T08:57:59.261Z</time></trkpt><trkpt lat="45.0562083" lon="7.8956828"><ele>341.5</ele><time>2026-04-05T08:58:00.261Z</time></trkpt><trkpt lat="45.0562619" lon="7.8957751"><ele>342.0</ele><time>2026-04-05T08:58:01.261Z</time></trkpt><trkpt lat="45.0563159" lon="7.8958795"><ele>343.5</ele><time>2026-04-05T08:58:02.261Z</time></trkpt><trkpt lat="45.056365" lon="7.8959742"><ele>345.0</ele><time>2026-04-05T08:58:03.261Z</time></trkpt><trkpt lat="45.0564078" lon="7.8960548"><ele>346.5</ele><time>2026-04-05T08:58:04.261Z</time></trkpt><trkpt lat="45.0564448" lon="7.896145"><ele>348.0</ele><time>2026-04-05T08:58:05.261Z</time></trkpt><trkpt lat="45.0564798" lon="7.8962492"><ele>349.5</ele><time>2026-04-05T08:58:06.261Z</time></trkpt><trkpt lat="45.0565266" lon="7.8963605"><ele>351.0</ele><time>2026-04-05T08:58:07.261Z</time></trkpt><trkpt lat="45.0565925" lon="7.8964717"><ele>349.4</ele><time>2026-04-05T08:58:08.261Z</time></trkpt><trkpt lat="45.0566685" lon="7.8965709"><ele>347.8</ele><time>2026-04-05T08:58:09.261Z</time></trkpt><trkpt lat="45.0568025" lon="7.89675"><ele>346.2</ele><time>2026-04-05T08:58:11.261Z</time></trkpt><trkpt lat="45.0568489" lon="7.896838"><ele>344.59999999999997</ele><time>2026-04-05T08:58:12.261Z</time></trkpt><trkpt lat="45.05688" lon="7.89693"><ele>343.0</ele><time>2026-04-05T08:58:13.261Z</time></trkpt><trkpt lat="45.0568909" lon="7.8970336"><ele>343.0</ele><time>2026-04-05T08:58:14.261Z</time></trkpt><trkpt lat="45.0568793" lon="7.8971488"><ele>343.0</ele><time>2026-04-05T08:58:15.261Z</time></trkpt><trkpt lat="45.0568548" lon="7.8972682"><ele>343.0</ele><time>2026-04-05T08:58:16.261Z</time></trkpt><trkpt lat="45.0568322" lon="7.8973954"><ele>343.0</ele><time>2026-04-05T08:58:17.261Z</time></trkpt><trkpt lat="45.0568218" lon="7.8975167"><ele>343.0</ele><time>2026-04-05T08:58:18.261Z</time></trkpt><trkpt lat="45.0568208" lon="7.897634"><ele>343.0</ele><time>2026-04-05T08:58:19.261Z</time></trkpt><trkpt lat="45.0568304" lon="7.8977447"><ele>343.66666666666663</ele><time>2026-04-05T08:58:20.261Z</time></trkpt><trkpt lat="45.0568493" lon="7.8978496"><ele>344.3333333333333</ele><time>2026-04-05T08:58:21.261Z</time></trkpt><trkpt lat="45.0568797" lon="7.8979521"><ele>345.0</ele><time>2026-04-05T08:58:22.261Z</time></trkpt><trkpt lat="45.0569196" lon="7.8980504"><ele>345.6666666666667</ele><time>2026-04-05T08:58:23.261Z</time></trkpt><trkpt lat="45.056969" lon="7.8981481"><ele>346.33333333333337</ele><time>2026-04-05T08:58:24.261Z</time></trkpt><trkpt lat="45.0570229" lon="7.8982529"><ele>347.0</ele><time>2026-04-05T08:58:25.261Z</time></trkpt><trkpt lat="45.057076" lon="7.8983513"><ele>347.5</ele><time>2026-04-05T08:58:26.261Z</time></trkpt><trkpt lat="45.0571272" lon="7.8984384"><ele>348.0</ele><time>2026-04-05T08:58:27.261Z</time></trkpt><trkpt lat="45.0571713" lon="7.8985253"><ele>348.5</ele><time>2026-04-05T08:58:28.261Z</time></trkpt><trkpt lat="45.0572064" lon="7.8986131"><ele>349.0</ele><time>2026-04-05T08:58:29.261Z</time></trkpt><trkpt lat="45.0572383" lon="7.8987031"><ele>349.5</ele><time>2026-04-05T08:58:30.261Z</time></trkpt><trkpt lat="45.0572728" lon="7.8989019"><ele>350.0</ele><time>2026-04-05T08:58:32.261Z</time></trkpt><trkpt lat="45.0572764" lon="7.8990038"><ele>350.0</ele><time>2026-04-05T08:58:33.261Z</time></trkpt><trkpt lat="45.057275" lon="7.8990988"><ele>350.0</ele><time>2026-04-05T08:58:34.261Z</time></trkpt><trkpt lat="45.0572751" lon="7.8991966"><ele>350.0</ele><time>2026-04-05T08:58:35.261Z</time></trkpt><trkpt lat="45.0572798" lon="7.8993113"><ele>350.0</ele><time>2026-04-05T08:58:36.261Z</time></trkpt><trkpt lat="45.0572717" lon="7.8994346"><ele>350.0</ele><time>2026-04-05T08:58:37.261Z</time></trkpt><trkpt lat="45.0572595" lon="7.8995533"><ele>350.0</ele><time>2026-04-05T08:58:38.261Z</time></trkpt><trkpt lat="45.0572443" lon="7.8996705"><ele>349.0</ele><time>2026-04-05T08:58:39.261Z</time></trkpt><trkpt lat="45.0572338" lon="7.8997804"><ele>348.0</ele><time>2026-04-05T08:58:40.261Z</time></trkpt><trkpt lat="45.0572177" lon="7.8998784"><ele>347.0</ele><time>2026-04-05T08:58:41.261Z</time></trkpt><trkpt lat="45.0572002" lon="7.9000245"><ele>346.0</ele><time>2026-04-05T08:58:43.261Z</time></trkpt><trkpt lat="45.0572044" lon="7.9001327"><ele>345.0</ele><time>2026-04-05T08:58:45.261Z</time></trkpt><trkpt lat="45.0572797" lon="7.9001695"><ele>344.0</ele><time>2026-04-05T08:58:47.261Z</time></trkpt><trkpt lat="45.0573776" lon="7.9001546"><ele>343.0</ele><time>2026-04-05T08:58:49.261Z</time></trkpt><trkpt lat="45.057348" lon="7.9002599"><ele>342.0</ele><time>2026-04-05T08:58:53.261Z</time></trkpt><trkpt lat="45.0572417" lon="7.900426"><ele>341.0</ele><time>2026-04-05T08:59:09.262Z</time></trkpt><trkpt lat="45.0572384" lon="7.9005161"><ele>340.0</ele><time>2026-04-05T08:59:10.262Z</time></trkpt><trkpt lat="45.0572417" lon="7.9006159"><ele>339.0</ele><time>2026-04-05T08:59:11.262Z</time></trkpt><trkpt lat="45.057264" lon="7.9007196"><ele>338.0</ele><time>2026-04-05T08:59:12.262Z</time></trkpt><trkpt lat="45.0572914" lon="7.9008267"><ele>338.0</ele><time>2026-04-05T08:59:13.262Z</time></trkpt><trkpt lat="45.0573207" lon="7.9009329"><ele>338.0</ele><time>2026-04-05T08:59:14.262Z</time></trkpt><trkpt lat="45.0573734" lon="7.9011565"><ele>338.0</ele><time>2026-04-05T08:59:16.262Z</time></trkpt><trkpt lat="45.0573908" lon="7.9012744"><ele>338.0</ele><time>2026-04-05T08:59:17.262Z</time></trkpt><trkpt lat="45.0574058" lon="7.9013913"><ele>338.0</ele><time>2026-04-05T08:59:18.262Z</time></trkpt><trkpt lat="45.0574174" lon="7.9015151"><ele>338.0</ele><time>2026-04-05T08:59:19.262Z</time></trkpt><trkpt lat="45.0574282" lon="7.9016412"><ele>338.0</ele><time>2026-04-05T08:59:20.262Z</time></trkpt><trkpt lat="45.0574381" lon="7.901776"><ele>338.0</ele><time>2026-04-05T08:59:21.262Z</time></trkpt><trkpt lat="45.0574525" lon="7.9019168"><ele>338.0</ele><time>2026-04-05T08:59:22.262Z</time></trkpt><trkpt lat="45.0574747" lon="7.9020568"><ele>338.0</ele><time>2026-04-05T08:59:23.262Z</time></trkpt><trkpt lat="45.0574977" lon="7.9021947"><ele>336.4</ele><time>2026-04-05T08:59:24.262Z</time></trkpt><trkpt lat="45.0575276" lon="7.9023257"><ele>334.79999999999995</ele><time>2026-04-05T08:59:25.262Z</time></trkpt><trkpt lat="45.0575569" lon="7.9024641"><ele>333.2</ele><time>2026-04-05T08:59:26.262Z</time></trkpt><trkpt lat="45.0575881" lon="7.9026149"><ele>331.6</ele><time>2026-04-05T08:59:27.262Z</time></trkpt><trkpt lat="45.0576184" lon="7.9027713"><ele>330.0</ele><time>2026-04-05T08:59:28.262Z</time></trkpt><trkpt lat="45.0576459" lon="7.9029401"><ele>329.0</ele><time>2026-04-05T08:59:29.262Z</time></trkpt><trkpt lat="45.0576674" lon="7.9031043"><ele>328.0</ele><time>2026-04-05T08:59:30.262Z</time></trkpt><trkpt lat="45.0576877" lon="7.9032519"><ele>327.0</ele><time>2026-04-05T08:59:31.262Z</time></trkpt><trkpt lat="45.0577135" lon="7.9033955"><ele>326.0</ele><time>2026-04-05T08:59:32.262Z</time></trkpt><trkpt lat="45.057757" lon="7.9035411"><ele>325.0</ele><time>2026-04-05T08:59:33.262Z</time></trkpt><trkpt lat="45.0578041" lon="7.9036885"><ele>323.5</ele><time>2026-04-05T08:59:34.262Z</time></trkpt><trkpt lat="45.0578511" lon="7.9038297"><ele>322.0</ele><time>2026-04-05T08:59:35.262Z</time></trkpt><trkpt lat="45.0579387" lon="7.9040703"><ele>320.5</ele><time>2026-04-05T08:59:37.262Z</time></trkpt><trkpt lat="45.0579674" lon="7.9041871"><ele>319.0</ele><time>2026-04-05T08:59:38.262Z</time></trkpt><trkpt lat="45.0580082" lon="7.9043072"><ele>317.75</ele><time>2026-04-05T08:59:39.262Z</time></trkpt><trkpt lat="45.0580659" lon="7.9044327"><ele>316.5</ele><time>2026-04-05T08:59:40.262Z</time></trkpt><trkpt lat="45.0581345" lon="7.9045731"><ele>315.25</ele><time>2026-04-05T08:59:41.262Z</time></trkpt><trkpt lat="45.0582058" lon="7.9047222"><ele>314.0</ele><time>2026-04-05T08:59:42.262Z</time></trkpt><trkpt lat="45.058278" lon="7.9048708"><ele>313.75</ele><time>2026-04-05T08:59:43.262Z</time></trkpt><trkpt lat="45.0583441" lon="7.9050094"><ele>313.5</ele><time>2026-04-05T08:59:44.262Z</time></trkpt><trkpt lat="45.0584166" lon="7.9051352"><ele>313.25</ele><time>2026-04-05T08:59:45.262Z</time></trkpt><trkpt lat="45.0584866" lon="7.9052588"><ele>313.0</ele><time>2026-04-05T08:59:46.261Z</time></trkpt><trkpt lat="45.0585488" lon="7.9054041"><ele>313.0</ele><time>2026-04-05T08:59:47.262Z</time></trkpt><trkpt lat="45.058586" lon="7.9055796"><ele>313.0</ele><time>2026-04-05T08:59:48.262Z</time></trkpt><trkpt lat="45.0586084" lon="7.9057679"><ele>313.0</ele><time>2026-04-05T08:59:49.262Z</time></trkpt><trkpt lat="45.0586329" lon="7.90594"><ele>313.0</ele><time>2026-04-05T08:59:50.262Z</time></trkpt><trkpt lat="45.0586719" lon="7.9060906"><ele>313.4</ele><time>2026-04-05T08:59:51.262Z</time></trkpt><trkpt lat="45.0587184" lon="7.906236"><ele>313.8</ele><time>2026-04-05T08:59:52.262Z</time></trkpt><trkpt lat="45.0587706" lon="7.9063624"><ele>314.2</ele><time>2026-04-05T08:59:53.262Z</time></trkpt><trkpt lat="45.0588276" lon="7.9064968"><ele>314.6</ele><time>2026-04-05T08:59:54.262Z</time></trkpt><trkpt lat="45.0588724" lon="7.9066424"><ele>315.0</ele><time>2026-04-05T08:59:55.262Z</time></trkpt><trkpt lat="45.0588978" lon="7.9067952"><ele>315.75</ele><time>2026-04-05T08:59:56.262Z</time></trkpt><trkpt lat="45.0589185" lon="7.9071194"><ele>316.5</ele><time>2026-04-05T08:59:58.262Z</time></trkpt><trkpt lat="45.0589366" lon="7.9072579"><ele>317.25</ele><time>2026-04-05T08:59:59.262Z</time></trkpt><trkpt lat="45.0589748" lon="7.9073543"><ele>318.0</ele><time>2026-04-05T09:00:00.262Z</time></trkpt><trkpt lat="45.0590212" lon="7.9074365"><ele>318.0</ele><time>2026-04-05T09:00:01.262Z</time></trkpt><trkpt lat="45.0590758" lon="7.9075124"><ele>318.0</ele><time>2026-04-05T09:00:02.262Z</time></trkpt><trkpt lat="45.0591328" lon="7.9075869"><ele>318.0</ele><time>2026-04-05T09:00:03.262Z</time></trkpt><trkpt lat="45.0591899" lon="7.907669"><ele>318.0</ele><time>2026-04-05T09:00:04.262Z</time></trkpt><trkpt lat="45.0592436" lon="7.9077593"><ele>318.0</ele><time>2026-04-05T09:00:05.262Z</time></trkpt><trkpt lat="45.0593028" lon="7.9078597"><ele>318.0</ele><time>2026-04-05T09:00:06.262Z</time></trkpt><trkpt lat="45.059366" lon="7.9079718"><ele>320.4</ele><time>2026-04-05T09:00:07.262Z</time></trkpt><trkpt lat="45.0594245" lon="7.9080875"><ele>322.8</ele><time>2026-04-05T09:00:08.262Z</time></trkpt><trkpt lat="45.0594791" lon="7.9082142"><ele>325.2</ele><time>2026-04-05T09:00:09.262Z</time></trkpt><trkpt lat="45.0595311" lon="7.9083425"><ele>327.6</ele><time>2026-04-05T09:00:10.262Z</time></trkpt><trkpt lat="45.0595898" lon="7.9084679"><ele>330.0</ele><time>2026-04-05T09:00:11.262Z</time></trkpt><trkpt lat="45.0596522" lon="7.9085964"><ele>331.25</ele><time>2026-04-05T09:00:12.262Z</time></trkpt><trkpt lat="45.0597119" lon="7.9087312"><ele>332.5</ele><time>2026-04-05T09:00:13.262Z</time></trkpt><trkpt lat="45.0597733" lon="7.9088741"><ele>333.75</ele><time>2026-04-05T09:00:14.262Z</time></trkpt><trkpt lat="45.059835" lon="7.909016"><ele>335.0</ele><time>2026-04-05T09:00:15.262Z</time></trkpt><trkpt lat="45.0598946" lon="7.9091588"><ele>337.5</ele><time>2026-04-05T09:00:16.262Z</time></trkpt><trkpt lat="45.059942" lon="7.9092996"><ele>340.0</ele><time>2026-04-05T09:00:17.262Z</time></trkpt><trkpt lat="45.0599955" lon="7.9095799"><ele>342.5</ele><time>2026-04-05T09:00:19.262Z</time></trkpt><trkpt lat="45.0600063" lon="7.9097202"><ele>345.0</ele><time>2026-04-05T09:00:20.262Z</time></trkpt><trkpt lat="45.0600253" lon="7.9098626"><ele>346.8</ele><time>2026-04-05T09:00:21.262Z</time></trkpt><trkpt lat="45.0600514" lon="7.9099989"><ele>348.6</ele><time>2026-04-05T09:00:22.262Z</time></trkpt><trkpt lat="45.0600897" lon="7.9101282"><ele>350.4</ele><time>2026-04-05T09:00:23.262Z</time></trkpt><trkpt lat="45.0601313" lon="7.9102503"><ele>352.2</ele><time>2026-04-05T09:00:24.262Z</time></trkpt><trkpt lat="45.0601735" lon="7.9103571"><ele>354.0</ele><time>2026-04-05T09:00:25.262Z</time></trkpt><trkpt lat="45.0602184" lon="7.9104632"><ele>355.1666666666667</ele><time>2026-04-05T09:00:26.262Z</time></trkpt><trkpt lat="45.0602601" lon="7.9105589"><ele>356.3333333333333</ele><time>2026-04-05T09:00:27.262Z</time></trkpt><trkpt lat="45.060292" lon="7.9106392"><ele>357.5</ele><time>2026-04-05T09:00:28.262Z</time></trkpt><trkpt lat="45.0603439" lon="7.9106992"><ele>358.66666666666663</ele><time>2026-04-05T09:00:30.262Z</time></trkpt><trkpt lat="45.0604095" lon="7.9106651"><ele>359.8333333333333</ele><time>2026-04-05T09:00:32.262Z</time></trkpt><trkpt lat="45.060519" lon="7.9105839"><ele>361.0</ele><time>2026-04-05T09:00:34.261Z</time></trkpt><trkpt lat="45.0605966" lon="7.9105558"><ele>361.0</ele><time>2026-04-05T09:00:35.262Z</time></trkpt><trkpt lat="45.0606809" lon="7.9105426"><ele>361.0</ele><time>2026-04-05T09:00:36.262Z</time></trkpt><trkpt lat="45.0607624" lon="7.9105326"><ele>361.0</ele><time>2026-04-05T09:00:37.262Z</time></trkpt><trkpt lat="45.0608515" lon="7.9105121"><ele>361.0</ele><time>2026-04-05T09:00:38.262Z</time></trkpt><trkpt lat="45.0610274" lon="7.910448"><ele>361.0</ele><time>2026-04-05T09:00:40.262Z</time></trkpt><trkpt lat="45.0611132" lon="7.9104097"><ele>362.4</ele><time>2026-04-05T09:00:41.262Z</time></trkpt><trkpt lat="45.0612013" lon="7.9103794"><ele>363.8</ele><time>2026-04-05T09:00:42.262Z</time></trkpt><trkpt lat="45.0612778" lon="7.9103702"><ele>365.2</ele><time>2026-04-05T09:00:43.262Z</time></trkpt><trkpt lat="45.0613433" lon="7.910379"><ele>366.59999999999997</ele><time>2026-04-05T09:00:44.262Z</time></trkpt><trkpt lat="45.0614676" lon="7.9103959"><ele>368.0</ele><time>2026-04-05T09:00:46.262Z</time></trkpt><trkpt lat="45.0615967" lon="7.9103915"><ele>368.83333333333337</ele><time>2026-04-05T09:00:48.262Z</time></trkpt><trkpt lat="45.0616671" lon="7.9103692"><ele>369.6666666666667</ele><time>2026-04-05T09:00:49.262Z</time></trkpt><trkpt lat="45.0617292" lon="7.9103376"><ele>370.5</ele><time>2026-04-05T09:00:50.262Z</time></trkpt><trkpt lat="45.0618375" lon="7.9102687"><ele>371.3333333333333</ele><time>2026-04-05T09:00:52.262Z</time></trkpt><trkpt lat="45.0619003" lon="7.910221"><ele>372.16666666666663</ele><time>2026-04-05T09:00:53.262Z</time></trkpt><trkpt lat="45.0619709" lon="7.9101682"><ele>373.0</ele><time>2026-04-05T09:00:54.262Z</time></trkpt><trkpt lat="45.0620568" lon="7.9101101"><ele>373.4</ele><time>2026-04-05T09:00:55.262Z</time></trkpt><trkpt lat="45.0621396" lon="7.9100479"><ele>373.79999999999995</ele><time>2026-04-05T09:00:56.262Z</time></trkpt><trkpt lat="45.0622163" lon="7.9099857"><ele>374.2</ele><time>2026-04-05T09:00:57.262Z</time></trkpt><trkpt lat="45.0622844" lon="7.9099254"><ele>374.6</ele><time>2026-04-05T09:00:58.262Z</time></trkpt><trkpt lat="45.0623428" lon="7.9098791"><ele>375.0</ele><time>2026-04-05T09:00:59.262Z</time></trkpt><trkpt lat="45.062449" lon="7.9097809"><ele>375.6</ele><time>2026-04-05T09:01:01.262Z</time></trkpt><trkpt lat="45.0625615" lon="7.9097514"><ele>376.2</ele><time>2026-04-05T09:01:03.262Z</time></trkpt><trkpt lat="45.0626754" lon="7.9098304"><ele>376.79999999999995</ele><time>2026-04-05T09:01:05.262Z</time></trkpt><trkpt lat="45.0627344" lon="7.909921"><ele>377.4</ele><time>2026-04-05T09:01:06.262Z</time></trkpt><trkpt lat="45.0628007" lon="7.9100542"><ele>378.0</ele><time>2026-04-05T09:01:07.262Z</time></trkpt><trkpt lat="45.0628699" lon="7.9101925"><ele>378.0</ele><time>2026-04-05T09:01:08.262Z</time></trkpt><trkpt lat="45.0629389" lon="7.910349"><ele>378.0</ele><time>2026-04-05T09:01:09.262Z</time></trkpt><trkpt lat="45.0630053" lon="7.9105144"><ele>378.0</ele><time>2026-04-05T09:01:10.262Z</time></trkpt><trkpt lat="45.0630678" lon="7.910684"><ele>378.0</ele><time>2026-04-05T09:01:11.262Z</time></trkpt><trkpt lat="45.0631396" lon="7.9108518"><ele>377.25</ele><time>2026-04-05T09:01:12.262Z</time></trkpt><trkpt lat="45.0632229" lon="7.9110103"><ele>376.5</ele><time>2026-04-05T09:01:13.262Z</time></trkpt><trkpt lat="45.0633061" lon="7.9111515"><ele>375.75</ele><time>2026-04-05T09:01:14.262Z</time></trkpt><trkpt lat="45.0633973" lon="7.9112646"><ele>375.0</ele><time>2026-04-05T09:01:15.262Z</time></trkpt><trkpt lat="45.0634976" lon="7.9113653"><ele>375.0</ele><time>2026-04-05T09:01:16.262Z</time></trkpt><trkpt lat="45.0636027" lon="7.9114674"><ele>375.0</ele><time>2026-04-05T09:01:17.262Z</time></trkpt><trkpt lat="45.0637122" lon="7.9115572"><ele>375.0</ele><time>2026-04-05T09:01:18.262Z</time></trkpt><trkpt lat="45.0638249" lon="7.9116178"><ele>375.0</ele><time>2026-04-05T09:01:19.262Z</time></trkpt><trkpt lat="45.0639325" lon="7.9116606"><ele>375.0</ele><time>2026-04-05T09:01:20.262Z</time></trkpt><trkpt lat="45.0641284" lon="7.9117158"><ele>375.0</ele><time>2026-04-05T09:01:22.262Z</time></trkpt><trkpt lat="45.0642359" lon="7.9117392"><ele>375.0</ele><time>2026-04-05T09:01:23.262Z</time></trkpt><trkpt lat="45.064342" lon="7.9117666"><ele>375.0</ele><time>2026-04-05T09:01:24.262Z</time></trkpt><trkpt lat="45.0644414" lon="7.9118068"><ele>377.25</ele><time>2026-04-05T09:01:25.261Z</time></trkpt><trkpt lat="45.0645375" lon="7.9118703"><ele>379.5</ele><time>2026-04-05T09:01:26.262Z</time></trkpt><trkpt lat="45.0646384" lon="7.9119524"><ele>381.75</ele><time>2026-04-05T09:01:27.262Z</time></trkpt><trkpt lat="45.0647359" lon="7.9120637"><ele>384.0</ele><time>2026-04-05T09:01:28.262Z</time></trkpt><trkpt lat="45.0648363" lon="7.9121939"><ele>384.0</ele><time>2026-04-05T09:01:29.262Z</time></trkpt><trkpt lat="45.0649392" lon="7.9123295"><ele>384.0</ele><time>2026-04-05T09:01:30.261Z</time></trkpt><trkpt lat="45.0650402" lon="7.9124776"><ele>384.0</ele><time>2026-04-05T09:01:31.262Z</time></trkpt><trkpt lat="45.065148" lon="7.9126283"><ele>384.0</ele><time>2026-04-05T09:01:32.262Z</time></trkpt><trkpt lat="45.0652542" lon="7.9127695"><ele>383.0</ele><time>2026-04-05T09:01:33.262Z</time></trkpt><trkpt lat="45.0653475" lon="7.9128934"><ele>382.0</ele><time>2026-04-05T09:01:34.262Z</time></trkpt><trkpt lat="45.0654441" lon="7.9130226"><ele>381.0</ele><time>2026-04-05T09:01:35.262Z</time></trkpt><trkpt lat="45.0655366" lon="7.9131616"><ele>380.0</ele><time>2026-04-05T09:01:36.262Z</time></trkpt><trkpt lat="45.0656358" lon="7.9132951"><ele>379.5</ele><time>2026-04-05T09:01:37.262Z</time></trkpt><trkpt lat="45.0657383" lon="7.9134304"><ele>379.0</ele><time>2026-04-05T09:01:38.262Z</time></trkpt><trkpt lat="45.0658426" lon="7.9135637"><ele>378.5</ele><time>2026-04-05T09:01:39.262Z</time></trkpt><trkpt lat="45.0659412" lon="7.9136928"><ele>378.0</ele><time>2026-04-05T09:01:40.262Z</time></trkpt><trkpt lat="45.0660404" lon="7.9138162"><ele>378.0</ele><time>2026-04-05T09:01:41.262Z</time></trkpt><trkpt lat="45.0662469" lon="7.9140455"><ele>378.0</ele><time>2026-04-05T09:01:43.262Z</time></trkpt><trkpt lat="45.0663515" lon="7.9141504"><ele>378.0</ele><time>2026-04-05T09:01:44.262Z</time></trkpt><trkpt lat="45.0664593" lon="7.9142693"><ele>378.25</ele><time>2026-04-05T09:01:45.262Z</time></trkpt><trkpt lat="45.0665583" lon="7.9144055"><ele>378.5</ele><time>2026-04-05T09:01:46.262Z</time></trkpt><trkpt lat="45.0666514" lon="7.9145601"><ele>378.75</ele><time>2026-04-05T09:01:47.262Z</time></trkpt><trkpt lat="45.0667408" lon="7.9147278"><ele>379.0</ele><time>2026-04-05T09:01:48.262Z</time></trkpt><trkpt lat="45.066829" lon="7.9149065"><ele>379.75</ele><time>2026-04-05T09:01:49.262Z</time></trkpt><trkpt lat="45.0669129" lon="7.915074"><ele>380.5</ele><time>2026-04-05T09:01:50.262Z</time></trkpt><trkpt lat="45.0669945" lon="7.9152376"><ele>381.25</ele><time>2026-04-05T09:01:51.262Z</time></trkpt><trkpt lat="45.0670679" lon="7.9153898"><ele>382.0</ele><time>2026-04-05T09:01:52.262Z</time></trkpt><trkpt lat="45.0671336" lon="7.9155338"><ele>382.0</ele><time>2026-04-05T09:01:53.262Z</time></trkpt><trkpt lat="45.0671901" lon="7.9156638"><ele>382.0</ele><time>2026-04-05T09:01:54.262Z</time></trkpt><trkpt lat="45.0672315" lon="7.9157704"><ele>382.0</ele><time>2026-04-05T09:01:55.262Z</time></trkpt><trkpt lat="45.0672612" lon="7.9158665"><ele>382.0</ele><time>2026-04-05T09:01:56.262Z</time></trkpt><trkpt lat="45.0672694" lon="7.9160282"><ele>382.0</ele><time>2026-04-05T09:01:58.262Z</time></trkpt><trkpt lat="45.0672599" lon="7.9161175"><ele>382.0</ele><time>2026-04-05T09:01:59.261Z</time></trkpt><trkpt lat="45.0672487" lon="7.9162152"><ele>380.20000000000005</ele><time>2026-04-05T09:02:00.262Z</time></trkpt><trkpt lat="45.0672314" lon="7.9163134"><ele>378.4</ele><time>2026-04-05T09:02:01.262Z</time></trkpt><trkpt lat="45.0672008" lon="7.9164102"><ele>376.6</ele><time>2026-04-05T09:02:02.262Z</time></trkpt><trkpt lat="45.0670609" lon="7.9165873"><ele>374.79999999999995</ele><time>2026-04-05T09:02:04.262Z</time></trkpt><trkpt lat="45.0669781" lon="7.9166677"><ele>373.0</ele><time>2026-04-05T09:02:05.262Z</time></trkpt><trkpt lat="45.0668968" lon="7.916741"><ele>371.3333333333333</ele><time>2026-04-05T09:02:06.262Z</time></trkpt><trkpt lat="45.066821" lon="7.9168162"><ele>369.66666666666663</ele><time>2026-04-05T09:02:07.262Z</time></trkpt><trkpt lat="45.0667527" lon="7.9168933"><ele>368.0</ele><time>2026-04-05T09:02:08.262Z</time></trkpt><trkpt lat="45.0666973" lon="7.9169816"><ele>366.3333333333333</ele><time>2026-04-05T09:02:09.262Z</time></trkpt><trkpt lat="45.066668" lon="7.9170809"><ele>364.6666666666667</ele><time>2026-04-05T09:02:10.262Z</time></trkpt><trkpt lat="45.0666676" lon="7.9171843"><ele>363.0</ele><time>2026-04-05T09:02:11.262Z</time></trkpt><trkpt lat="45.0667062" lon="7.917281"><ele>363.0</ele><time>2026-04-05T09:02:12.262Z</time></trkpt><trkpt lat="45.0667813" lon="7.9173759"><ele>363.0</ele><time>2026-04-05T09:02:13.262Z</time></trkpt><trkpt lat="45.0668879" lon="7.9174706"><ele>363.0</ele><time>2026-04-05T09:02:14.262Z</time></trkpt><trkpt lat="45.0670172" lon="7.9175545"><ele>363.0</ele><time>2026-04-05T09:02:15.262Z</time></trkpt><trkpt lat="45.0671366" lon="7.9176288"><ele>362.0</ele><time>2026-04-05T09:02:16.261Z</time></trkpt><trkpt lat="45.0672408" lon="7.9177082"><ele>361.0</ele><time>2026-04-05T09:02:17.262Z</time></trkpt><trkpt lat="45.0673232" lon="7.9178023"><ele>360.0</ele><time>2026-04-05T09:02:18.262Z</time></trkpt><trkpt lat="45.0673814" lon="7.917922"><ele>359.0</ele><time>2026-04-05T09:02:19.262Z</time></trkpt><trkpt lat="45.0674251" lon="7.9180556"><ele>358.0</ele><time>2026-04-05T09:02:20.262Z</time></trkpt><trkpt lat="45.0674585" lon="7.9181913"><ele>358.0</ele><time>2026-04-05T09:02:21.262Z</time></trkpt><trkpt lat="45.0674964" lon="7.9183114"><ele>358.0</ele><time>2026-04-05T09:02:22.262Z</time></trkpt><trkpt lat="45.0675526" lon="7.9184212"><ele>358.0</ele><time>2026-04-05T09:02:23.262Z</time></trkpt><trkpt lat="45.0677151" lon="7.918566"><ele>358.0</ele><time>2026-04-05T09:02:25.262Z</time></trkpt><trkpt lat="45.0678206" lon="7.9186232"><ele>355.5</ele><time>2026-04-05T09:02:26.262Z</time></trkpt><trkpt lat="45.0679382" lon="7.9186753"><ele>353.0</ele><time>2026-04-05T09:02:27.261Z</time></trkpt><trkpt lat="45.0680676" lon="7.9187217"><ele>350.5</ele><time>2026-04-05T09:02:28.262Z</time></trkpt><trkpt lat="45.068192" lon="7.9187647"><ele>348.0</ele><time>2026-04-05T09:02:29.262Z</time></trkpt><trkpt lat="45.0683103" lon="7.9188139"><ele>348.0</ele><time>2026-04-05T09:02:30.262Z</time></trkpt><trkpt lat="45.0684199" lon="7.918869"><ele>348.0</ele><time>2026-04-05T09:02:31.262Z</time></trkpt><trkpt lat="45.0685254" lon="7.91893"><ele>348.0</ele><time>2026-04-05T09:02:32.262Z</time></trkpt><trkpt lat="45.0686244" lon="7.9189827"><ele>348.0</ele><time>2026-04-05T09:02:33.262Z</time></trkpt><trkpt lat="45.0687064" lon="7.9190399"><ele>348.0</ele><time>2026-04-05T09:02:34.262Z</time></trkpt><trkpt lat="45.068774" lon="7.9191111"><ele>348.0</ele><time>2026-04-05T09:02:35.262Z</time></trkpt><trkpt lat="45.0688198" lon="7.9191934"><ele>348.0</ele><time>2026-04-05T09:02:36.262Z</time></trkpt><trkpt lat="45.0688443" lon="7.9192955"><ele>348.0</ele><time>2026-04-05T09:02:37.262Z</time></trkpt><trkpt lat="45.0688465" lon="7.9193973"><ele>348.0</ele><time>2026-04-05T09:02:38.262Z</time></trkpt><trkpt lat="45.0688054" lon="7.9195024"><ele>348.0</ele><time>2026-04-05T09:02:39.262Z</time></trkpt><trkpt lat="45.0687159" lon="7.9195858"><ele>348.0</ele><time>2026-04-05T09:02:40.262Z</time></trkpt><trkpt lat="45.0686048" lon="7.9196512"><ele>348.0</ele><time>2026-04-05T09:02:41.262Z</time></trkpt><trkpt lat="45.0684849" lon="7.9197042"><ele>348.0</ele><time>2026-04-05T09:02:42.262Z</time></trkpt><trkpt lat="45.0683726" lon="7.9197699"><ele>348.0</ele><time>2026-04-05T09:02:43.262Z</time></trkpt><trkpt lat="45.068274" lon="7.9198538"><ele>348.0</ele><time>2026-04-05T09:02:44.262Z</time></trkpt><trkpt lat="45.068131" lon="7.9201012"><ele>348.0</ele><time>2026-04-05T09:02:46.262Z</time></trkpt><trkpt lat="45.0681014" lon="7.9202682"><ele>348.0</ele><time>2026-04-05T09:02:47.262Z</time></trkpt><trkpt lat="45.0680906" lon="7.9204648"><ele>348.0</ele><time>2026-04-05T09:02:48.262Z</time></trkpt><trkpt lat="45.0680845" lon="7.9206857"><ele>348.0</ele><time>2026-04-05T09:02:49.262Z</time></trkpt><trkpt lat="45.0680801" lon="7.9209335"><ele>345.0</ele><time>2026-04-05T09:02:50.262Z</time></trkpt><trkpt lat="45.0680717" lon="7.9211894"><ele>342.0</ele><time>2026-04-05T09:02:51.262Z</time></trkpt><trkpt lat="45.0680682" lon="7.9214391"><ele>339.0</ele><time>2026-04-05T09:02:52.262Z</time></trkpt><trkpt lat="45.0680659" lon="7.9216712"><ele>337.0</ele><time>2026-04-05T09:02:53.261Z</time></trkpt><trkpt lat="45.0680637" lon="7.9218937"><ele>335.0</ele><time>2026-04-05T09:02:54.262Z</time></trkpt><trkpt lat="45.0680589" lon="7.9221087"><ele>333.0</ele><time>2026-04-05T09:02:55.262Z</time></trkpt><trkpt lat="45.0680662" lon="7.922302"><ele>331.0</ele><time>2026-04-05T09:02:56.262Z</time></trkpt><trkpt lat="45.0680877" lon="7.9224781"><ele>331.20000000000005</ele><time>2026-04-05T09:02:57.262Z</time></trkpt><trkpt lat="45.0681279" lon="7.9226397"><ele>331.40000000000003</ele><time>2026-04-05T09:02:58.262Z</time></trkpt><trkpt lat="45.0681675" lon="7.9227847"><ele>331.6</ele><time>2026-04-05T09:02:59.262Z</time></trkpt><trkpt lat="45.0682012" lon="7.922908"><ele>331.8</ele><time>2026-04-05T09:03:00.262Z</time></trkpt><trkpt lat="45.0682285" lon="7.9230133"><ele>332.0</ele><time>2026-04-05T09:03:01.262Z</time></trkpt><trkpt lat="45.0682827" lon="7.9231456"><ele>332.0</ele><time>2026-04-05T09:03:03.262Z</time></trkpt><trkpt lat="45.0684133" lon="7.9231664"><ele>332.0</ele><time>2026-04-05T09:03:05.262Z</time></trkpt><trkpt lat="45.0686336" lon="7.9231062"><ele>332.0</ele><time>2026-04-05T09:03:07.262Z</time></trkpt><trkpt lat="45.0687512" lon="7.9230637"><ele>332.0</ele><time>2026-04-05T09:03:08.262Z</time></trkpt><trkpt lat="45.0688684" lon="7.9230337"><ele>332.0</ele><time>2026-04-05T09:03:09.262Z</time></trkpt><trkpt lat="45.0689797" lon="7.9229977"><ele>332.0</ele><time>2026-04-05T09:03:10.262Z</time></trkpt><trkpt lat="45.0690823" lon="7.9229517"><ele>332.0</ele><time>2026-04-05T09:03:11.262Z</time></trkpt><trkpt lat="45.0691788" lon="7.9228861"><ele>332.0</ele><time>2026-04-05T09:03:12.262Z</time></trkpt><trkpt lat="45.0692764" lon="7.9228026"><ele>332.25</ele><time>2026-04-05T09:03:13.262Z</time></trkpt><trkpt lat="45.069379" lon="7.9227029"><ele>332.5</ele><time>2026-04-05T09:03:14.262Z</time></trkpt><trkpt lat="45.0694881" lon="7.9225966"><ele>332.75</ele><time>2026-04-05T09:03:15.262Z</time></trkpt><trkpt lat="45.0695969" lon="7.9224902"><ele>333.0</ele><time>2026-04-05T09:03:16.262Z</time></trkpt><trkpt lat="45.069702" lon="7.9223968"><ele>332.75</ele><time>2026-04-05T09:03:17.262Z</time></trkpt><trkpt lat="45.0698103" lon="7.922309"><ele>332.5</ele><time>2026-04-05T09:03:18.262Z</time></trkpt><trkpt lat="45.0699265" lon="7.9222234"><ele>332.25</ele><time>2026-04-05T09:03:19.262Z</time></trkpt><trkpt lat="45.070038" lon="7.9221453"><ele>332.0</ele><time>2026-04-05T09:03:20.262Z</time></trkpt><trkpt lat="45.0701482" lon="7.9220817"><ele>332.0</ele><time>2026-04-05T09:03:21.262Z</time></trkpt><trkpt lat="45.0702647" lon="7.9220219"><ele>332.0</ele><time>2026-04-05T09:03:22.262Z</time></trkpt><trkpt lat="45.0703749" lon="7.9219753"><ele>332.0</ele><time>2026-04-05T09:03:23.262Z</time></trkpt><trkpt lat="45.070475" lon="7.9219365"><ele>332.0</ele><time>2026-04-05T09:03:24.262Z</time></trkpt><trkpt lat="45.0705719" lon="7.9219041"><ele>332.0</ele><time>2026-04-05T09:03:25.262Z</time></trkpt><trkpt lat="45.0706693" lon="7.9218638"><ele>330.75</ele><time>2026-04-05T09:03:26.262Z</time></trkpt><trkpt lat="45.0708332" lon="7.9217189"><ele>329.5</ele><time>2026-04-05T09:03:28.262Z</time></trkpt><trkpt lat="45.0709042" lon="7.9216024"><ele>328.25</ele><time>2026-04-05T09:03:29.262Z</time></trkpt><trkpt lat="45.0709701" lon="7.9214649"><ele>327.0</ele><time>2026-04-05T09:03:30.262Z</time></trkpt><trkpt lat="45.071034" lon="7.921316"><ele>327.0</ele><time>2026-04-05T09:03:31.262Z</time></trkpt><trkpt lat="45.0710935" lon="7.9211769"><ele>327.0</ele><time>2026-04-05T09:03:32.262Z</time></trkpt><trkpt lat="45.0711463" lon="7.9210534"><ele>327.0</ele><time>2026-04-05T09:03:33.262Z</time></trkpt><trkpt lat="45.0712005" lon="7.9209631"><ele>327.0</ele><time>2026-04-05T09:03:34.262Z</time></trkpt><trkpt lat="45.0712616" lon="7.9209088"><ele>327.0</ele><time>2026-04-05T09:03:35.262Z</time></trkpt><trkpt lat="45.0713798" lon="7.9209222"><ele>327.0</ele><time>2026-04-05T09:03:37.262Z</time></trkpt><trkpt lat="45.0714421" lon="7.9210029"><ele>327.0</ele><time>2026-04-05T09:03:38.262Z</time></trkpt><trkpt lat="45.0715099" lon="7.9211191"><ele>327.0</ele><time>2026-04-05T09:03:39.262Z</time></trkpt><trkpt lat="45.0715946" lon="7.9212497"><ele>327.0</ele><time>2026-04-05T09:03:40.262Z</time></trkpt><trkpt lat="45.0716867" lon="7.9213734"><ele>327.0</ele><time>2026-04-05T09:03:41.262Z</time></trkpt><trkpt lat="45.0717714" lon="7.9215008"><ele>327.6</ele><time>2026-04-05T09:03:42.262Z</time></trkpt><trkpt lat="45.0718381" lon="7.9216323"><ele>328.20000000000005</ele><time>2026-04-05T09:03:43.262Z</time></trkpt><trkpt lat="45.0718938" lon="7.9217645"><ele>328.8</ele><time>2026-04-05T09:03:44.262Z</time></trkpt><trkpt lat="45.071946" lon="7.9218821"><ele>329.4</ele><time>2026-04-05T09:03:45.261Z</time></trkpt><trkpt lat="45.0719981" lon="7.9219792"><ele>330.0</ele><time>2026-04-05T09:03:46.262Z</time></trkpt><trkpt lat="45.0720527" lon="7.9220426"><ele>330.0</ele><time>2026-04-05T09:03:47.262Z</time></trkpt><trkpt lat="45.072177" lon="7.9220626"><ele>330.0</ele><time>2026-04-05T09:03:49.262Z</time></trkpt><trkpt lat="45.0722826" lon="7.9219593"><ele>330.0</ele><time>2026-04-05T09:03:51.262Z</time></trkpt><trkpt lat="45.072326" lon="7.921866"><ele>330.0</ele><time>2026-04-05T09:03:52.262Z</time></trkpt><trkpt lat="45.072375" lon="7.9217651"><ele>330.0</ele><time>2026-04-05T09:03:53.262Z</time></trkpt><trkpt lat="45.0724279" lon="7.9216752"><ele>332.2</ele><time>2026-04-05T09:03:54.262Z</time></trkpt><trkpt lat="45.0724924" lon="7.9215956"><ele>334.4</ele><time>2026-04-05T09:03:55.262Z</time></trkpt><trkpt lat="45.0725682" lon="7.9215329"><ele>336.6</ele><time>2026-04-05T09:03:56.261Z</time></trkpt><trkpt lat="45.0726636" lon="7.9214732"><ele>338.8</ele><time>2026-04-05T09:03:57.262Z</time></trkpt><trkpt lat="45.0727592" lon="7.9214093"><ele>341.0</ele><time>2026-04-05T09:03:58.262Z</time></trkpt><trkpt lat="45.0728554" lon="7.9213341"><ele>341.0</ele><time>2026-04-05T09:03:59.262Z</time></trkpt><trkpt lat="45.0729513" lon="7.9212573"><ele>341.0</ele><time>2026-04-05T09:04:00.262Z</time></trkpt><trkpt lat="45.0730467" lon="7.9211833"><ele>341.0</ele><time>2026-04-05T09:04:01.262Z</time></trkpt><trkpt lat="45.0731381" lon="7.921121"><ele>341.0</ele><time>2026-04-05T09:04:02.262Z</time></trkpt><trkpt lat="45.0732301" lon="7.9210733"><ele>341.0</ele><time>2026-04-05T09:04:03.262Z</time></trkpt><trkpt lat="45.0733251" lon="7.921022"><ele>340.20000000000005</ele><time>2026-04-05T09:04:04.262Z</time></trkpt><trkpt lat="45.0734243" lon="7.9209644"><ele>339.40000000000003</ele><time>2026-04-05T09:04:05.262Z</time></trkpt><trkpt lat="45.073524" lon="7.9209043"><ele>338.6</ele><time>2026-04-05T09:04:06.262Z</time></trkpt><trkpt lat="45.0736213" lon="7.920848"><ele>337.8</ele><time>2026-04-05T09:04:07.262Z</time></trkpt><trkpt lat="45.0737089" lon="7.9207896"><ele>337.0</ele><time>2026-04-05T09:04:08.262Z</time></trkpt><trkpt lat="45.0738878" lon="7.9207141"><ele>337.0</ele><time>2026-04-05T09:04:10.262Z</time></trkpt><trkpt lat="45.0739875" lon="7.9206966"><ele>337.0</ele><time>2026-04-05T09:04:11.262Z</time></trkpt><trkpt lat="45.074085" lon="7.9206836"><ele>337.0</ele><time>2026-04-05T09:04:12.262Z</time></trkpt><trkpt lat="45.0741727" lon="7.9206649"><ele>337.0</ele><time>2026-04-05T09:04:13.261Z</time></trkpt><trkpt lat="45.0742548" lon="7.9206146"><ele>337.0</ele><time>2026-04-05T09:04:14.261Z</time></trkpt><trkpt lat="45.0743333" lon="7.9205317"><ele>336.6</ele><time>2026-04-05T09:04:15.262Z</time></trkpt><trkpt lat="45.0743964" lon="7.9204265"><ele>336.20000000000005</ele><time>2026-04-05T09:04:16.262Z</time></trkpt><trkpt lat="45.0744624" lon="7.9203086"><ele>335.8</ele><time>2026-04-05T09:04:17.262Z</time></trkpt><trkpt lat="45.0745288" lon="7.9201843"><ele>335.4</ele><time>2026-04-05T09:04:18.262Z</time></trkpt><trkpt lat="45.0745983" lon="7.9200536"><ele>335.0</ele><time>2026-04-05T09:04:19.262Z</time></trkpt><trkpt lat="45.074668" lon="7.9199107"><ele>335.0</ele><time>2026-04-05T09:04:20.261Z</time></trkpt><trkpt lat="45.0747299" lon="7.9197694"><ele>335.0</ele><time>2026-04-05T09:04:21.262Z</time></trkpt><trkpt lat="45.0747843" lon="7.9196379"><ele>335.0</ele><time>2026-04-05T09:04:22.262Z</time></trkpt><trkpt lat="45.0748319" lon="7.9195147"><ele>335.0</ele><time>2026-04-05T09:04:23.262Z</time></trkpt><trkpt lat="45.074881" lon="7.9194067"><ele>335.0</ele><time>2026-04-05T09:04:24.262Z</time></trkpt><trkpt lat="45.0749463" lon="7.9193168"><ele>336.4</ele><time>2026-04-05T09:04:25.262Z</time></trkpt><trkpt lat="45.0750264" lon="7.9192342"><ele>337.8</ele><time>2026-04-05T09:04:26.262Z</time></trkpt><trkpt lat="45.0751086" lon="7.9191586"><ele>339.20000000000005</ele><time>2026-04-05T09:04:27.262Z</time></trkpt><trkpt lat="45.0751809" lon="7.9190861"><ele>340.6</ele><time>2026-04-05T09:04:28.262Z</time></trkpt><trkpt lat="45.0752433" lon="7.919001"><ele>342.0</ele><time>2026-04-05T09:04:29.262Z</time></trkpt><trkpt lat="45.0753251" lon="7.9187714"><ele>342.0</ele><time>2026-04-05T09:04:31.261Z</time></trkpt><trkpt lat="45.075359" lon="7.91864"><ele>342.0</ele><time>2026-04-05T09:04:32.261Z</time></trkpt><trkpt lat="45.0753853" lon="7.9185159"><ele>342.0</ele><time>2026-04-05T09:04:33.262Z</time></trkpt><trkpt lat="45.0754185" lon="7.9184065"><ele>342.0</ele><time>2026-04-05T09:04:34.262Z</time></trkpt><trkpt lat="45.0754588" lon="7.9183043"><ele>342.0</ele><time>2026-04-05T09:04:35.262Z</time></trkpt><trkpt lat="45.0755105" lon="7.9182208"><ele>342.0</ele><time>2026-04-05T09:04:36.262Z</time></trkpt><trkpt lat="45.0755681" lon="7.9181598"><ele>341.1666666666667</ele><time>2026-04-05T09:04:37.262Z</time></trkpt><trkpt lat="45.0756349" lon="7.9181164"><ele>340.3333333333333</ele><time>2026-04-05T09:04:38.262Z</time></trkpt><trkpt lat="45.0757041" lon="7.9180845"><ele>339.5</ele><time>2026-04-05T09:04:39.262Z</time></trkpt><trkpt lat="45.0757786" lon="7.918042"><ele>338.66666666666663</ele><time>2026-04-05T09:04:40.262Z</time></trkpt><trkpt lat="45.0758413" lon="7.9179758"><ele>337.8333333333333</ele><time>2026-04-05T09:04:41.262Z</time></trkpt><trkpt lat="45.0759015" lon="7.9178891"><ele>337.0</ele><time>2026-04-05T09:04:42.262Z</time></trkpt><trkpt lat="45.0759574" lon="7.9178027"><ele>337.6</ele><time>2026-04-05T09:04:43.262Z</time></trkpt><trkpt lat="45.0760188" lon="7.9177336"><ele>338.20000000000005</ele><time>2026-04-05T09:04:44.262Z</time></trkpt><trkpt lat="45.0760754" lon="7.9176913"><ele>338.8</ele><time>2026-04-05T09:04:45.262Z</time></trkpt><trkpt lat="45.0761599" lon="7.9176462"><ele>339.4</ele><time>2026-04-05T09:04:47.262Z</time></trkpt><trkpt lat="45.0762321" lon="7.9176084"><ele>340.0</ele><time>2026-04-05T09:04:50.262Z</time></trkpt><trkpt lat="45.0763876" lon="7.9175539"><ele>340.0</ele><time>2026-04-05T09:05:09.261Z</time></trkpt><trkpt lat="45.0764803" lon="7.9175654"><ele>340.0</ele><time>2026-04-05T09:05:11.262Z</time></trkpt><trkpt lat="45.0766917" lon="7.9175014"><ele>340.0</ele><time>2026-04-05T09:05:15.262Z</time></trkpt><trkpt lat="45.0767356" lon="7.9174285"><ele>340.0</ele><time>2026-04-05T09:05:16.262Z</time></trkpt><trkpt lat="45.0767724" lon="7.9173399"><ele>340.0</ele><time>2026-04-05T09:05:17.262Z</time></trkpt><trkpt lat="45.0768015" lon="7.9172475"><ele>340.8333333333333</ele><time>2026-04-05T09:05:18.262Z</time></trkpt><trkpt lat="45.0768282" lon="7.9171494"><ele>341.66666666666663</ele><time>2026-04-05T09:05:19.262Z</time></trkpt><trkpt lat="45.0768578" lon="7.9170487"><ele>342.5</ele><time>2026-04-05T09:05:20.262Z</time></trkpt><trkpt lat="45.0768987" lon="7.9169546"><ele>343.3333333333333</ele><time>2026-04-05T09:05:21.262Z</time></trkpt><trkpt lat="45.076953" lon="7.9168725"><ele>344.1666666666667</ele><time>2026-04-05T09:05:22.262Z</time></trkpt><trkpt lat="45.0770219" lon="7.9168043"><ele>345.0</ele><time>2026-04-05T09:05:23.262Z</time></trkpt><trkpt lat="45.0771061" lon="7.9167549"><ele>345.6</ele><time>2026-04-05T09:05:24.262Z</time></trkpt><trkpt lat="45.0771956" lon="7.9167245"><ele>346.2</ele><time>2026-04-05T09:05:25.262Z</time></trkpt><trkpt lat="45.0772832" lon="7.9167007"><ele>346.79999999999995</ele><time>2026-04-05T09:05:26.261Z</time></trkpt><trkpt lat="45.0773772" lon="7.9166734"><ele>347.4</ele><time>2026-04-05T09:05:27.262Z</time></trkpt><trkpt lat="45.0774654" lon="7.9166272"><ele>348.0</ele><time>2026-04-05T09:05:28.262Z</time></trkpt><trkpt lat="45.0775539" lon="7.9165647"><ele>348.0</ele><time>2026-04-05T09:05:29.262Z</time></trkpt><trkpt lat="45.0776331" lon="7.9164864"><ele>348.0</ele><time>2026-04-05T09:05:30.262Z</time></trkpt><trkpt lat="45.0777064" lon="7.916407"><ele>348.0</ele><time>2026-04-05T09:05:31.262Z</time></trkpt><trkpt lat="45.0777797" lon="7.916335"><ele>348.0</ele><time>2026-04-05T09:05:32.262Z</time></trkpt><trkpt lat="45.0779388" lon="7.9162425"><ele>348.0</ele><time>2026-04-05T09:05:34.262Z</time></trkpt><trkpt lat="45.0780204" lon="7.9162145"><ele>348.0</ele><time>2026-04-05T09:05:35.262Z</time></trkpt><trkpt lat="45.0780925" lon="7.9161929"><ele>348.0</ele><time>2026-04-05T09:05:36.262Z</time></trkpt><trkpt lat="45.0781873" lon="7.9161482"><ele>348.0</ele><time>2026-04-05T09:05:38.262Z</time></trkpt><trkpt lat="45.0782579" lon="7.9160907"><ele>348.0</ele><time>2026-04-05T09:19:18.263Z</time></trkpt><trkpt lat="45.0785773" lon="7.9159748"><ele>349.3333333333333</ele><time>2026-04-05T09:20:40.263Z</time></trkpt><trkpt lat="45.0786529" lon="7.9159759"><ele>350.6666666666667</ele><time>2026-04-05T09:20:42.263Z</time></trkpt><trkpt lat="45.0787178" lon="7.9160138"><ele>352.0</ele><time>2026-04-05T09:20:44.262Z</time></trkpt><trkpt lat="45.0788076" lon="7.9160688"><ele>353.33333333333337</ele><time>2026-04-05T09:20:46.263Z</time></trkpt><trkpt lat="45.078906" lon="7.9161466"><ele>354.6666666666667</ele><time>2026-04-05T09:20:48.263Z</time></trkpt><trkpt lat="45.0789536" lon="7.9162076"><ele>356.0</ele><time>2026-04-05T09:20:49.263Z</time></trkpt><trkpt lat="45.0790081" lon="7.9163426"><ele>356.0</ele><time>2026-04-05T09:20:51.263Z</time></trkpt><trkpt lat="45.0790515" lon="7.9164701"><ele>356.0</ele><time>2026-04-05T09:20:53.263Z</time></trkpt><trkpt lat="45.0791067" lon="7.9165775"><ele>356.0</ele><time>2026-04-05T09:20:55.263Z</time></trkpt><trkpt lat="45.079184" lon="7.916678"><ele>356.0</ele><time>2026-04-05T09:20:57.263Z</time></trkpt><trkpt lat="45.0793344" lon="7.9168688"><ele>360.6</ele><time>2026-04-05T09:21:01.263Z</time></trkpt><trkpt lat="45.0794184" lon="7.916962"><ele>365.20000000000005</ele><time>2026-04-05T09:21:03.263Z</time></trkpt><trkpt lat="45.0794865" lon="7.9170557"><ele>369.79999999999995</ele><time>2026-04-05T09:21:05.263Z</time></trkpt><trkpt lat="45.0795502" lon="7.9171609"><ele>374.4</ele><time>2026-04-05T09:21:07.263Z</time></trkpt><trkpt lat="45.0795538" lon="7.9172932"><ele>379.0</ele><time>2026-04-05T09:21:09.263Z</time></trkpt><trkpt lat="45.0795237" lon="7.9174192"><ele>379.0</ele><time>2026-04-05T09:21:11.263Z</time></trkpt><trkpt lat="45.0795119" lon="7.9175313"><ele>379.0</ele><time>2026-04-05T09:21:13.263Z</time></trkpt><trkpt lat="45.0795184" lon="7.9176512"><ele>379.0</ele><time>2026-04-05T09:21:15.263Z</time></trkpt><trkpt lat="45.0794958" lon="7.9177599"><ele>379.0</ele><time>2026-04-05T09:21:17.263Z</time></trkpt><trkpt lat="45.07944" lon="7.9178608"><ele>379.0</ele><time>2026-04-05T09:21:19.263Z</time></trkpt><trkpt lat="45.0793557" lon="7.9181331"><ele>379.0</ele><time>2026-04-05T09:21:23.263Z</time></trkpt><trkpt lat="45.0794289" lon="7.9181971"><ele>379.0</ele><time>2026-04-05T09:21:26.263Z</time></trkpt><trkpt lat="45.0795094" lon="7.9181599"><ele>379.0</ele><time>2026-04-05T09:21:28.263Z</time></trkpt><trkpt lat="45.0795973" lon="7.9181039"><ele>379.0</ele><time>2026-04-05T09:21:30.263Z</time></trkpt><trkpt lat="45.0796858" lon="7.9181109"><ele>379.0</ele><time>2026-04-05T09:21:32.263Z</time></trkpt><trkpt lat="45.0797649" lon="7.9181089"><ele>379.0</ele><time>2026-04-05T09:21:34.263Z</time></trkpt><trkpt lat="45.0798431" lon="7.9181036"><ele>379.0</ele><time>2026-04-05T09:21:37.263Z</time></trkpt><trkpt lat="45.0799115" lon="7.9181314"><ele>379.0</ele><time>2026-04-05T09:21:41.263Z</time></trkpt><trkpt lat="45.0800654" lon="7.9181915"><ele>379.0</ele><time>2026-04-05T09:21:47.263Z</time></trkpt><trkpt lat="45.0801279" lon="7.9182267"><ele>379.0</ele><time>2026-04-05T09:21:49.263Z</time></trkpt><trkpt lat="45.0801809" lon="7.9182839"><ele>379.0</ele><time>2026-04-05T09:21:51.263Z</time></trkpt><trkpt lat="45.080242" lon="7.9183787"><ele>380.6</ele><time>2026-04-05T09:21:53.263Z</time></trkpt><trkpt lat="45.0803164" lon="7.9184561"><ele>382.2</ele><time>2026-04-05T09:21:55.263Z</time></trkpt><trkpt lat="45.0803854" lon="7.9185258"><ele>383.8</ele><time>2026-04-05T09:21:58.264Z</time></trkpt><trkpt lat="45.0804498" lon="7.9185716"><ele>385.40000000000003</ele><time>2026-04-05T09:22:02.264Z</time></trkpt><trkpt lat="45.0806079" lon="7.9186364"><ele>387.0</ele><time>2026-04-05T09:22:07.264Z</time></trkpt><trkpt lat="45.0806937" lon="7.9186579"><ele>387.0</ele><time>2026-04-05T09:22:21.264Z</time></trkpt><trkpt lat="45.0807614" lon="7.9186879"><ele>387.0</ele><time>2026-04-05T09:22:23.264Z</time></trkpt><trkpt lat="45.0809197" lon="7.9187509"><ele>387.0</ele><time>2026-04-05T09:22:27.264Z</time></trkpt><trkpt lat="45.0810096" lon="7.9187686"><ele>387.0</ele><time>2026-04-05T09:22:29.264Z</time></trkpt><trkpt lat="45.0810924" lon="7.9187828"><ele>387.0</ele><time>2026-04-05T09:22:31.264Z</time></trkpt><trkpt lat="45.0811651" lon="7.9188279"><ele>389.8</ele><time>2026-04-05T09:22:33.264Z</time></trkpt><trkpt lat="45.0812435" lon="7.9189004"><ele>392.6</ele><time>2026-04-05T09:22:35.264Z</time></trkpt><trkpt lat="45.0813237" lon="7.9189782"><ele>395.40000000000003</ele><time>2026-04-05T09:22:37.264Z</time></trkpt><trkpt lat="45.0813983" lon="7.9190748"><ele>398.20000000000005</ele><time>2026-04-05T09:22:39.264Z</time></trkpt><trkpt lat="45.0814718" lon="7.9191937"><ele>401.0</ele><time>2026-04-05T09:22:41.264Z</time></trkpt><trkpt lat="45.0815205" lon="7.9192517"><ele>401.0</ele><time>2026-04-05T09:22:42.264Z</time></trkpt><trkpt lat="45.081571" lon="7.9193141"><ele>401.0</ele><time>2026-04-05T09:22:43.264Z</time></trkpt><trkpt lat="45.08162" lon="7.9193737"><ele>401.0</ele><time>2026-04-05T09:22:44.264Z</time></trkpt><trkpt lat="45.0817305" lon="7.9195708"><ele>401.0</ele><time>2026-04-05T09:22:47.264Z</time></trkpt><trkpt lat="45.081806" lon="7.9197083"><ele>401.0</ele><time>2026-04-05T09:22:49.264Z</time></trkpt><trkpt lat="45.0819029" lon="7.9198047"><ele>404.8</ele><time>2026-04-05T09:22:51.264Z</time></trkpt><trkpt lat="45.0820079" lon="7.9198576"><ele>408.6</ele><time>2026-04-05T09:22:53.264Z</time></trkpt><trkpt lat="45.082114" lon="7.9199323"><ele>412.4</ele><time>2026-04-05T09:22:55.264Z</time></trkpt><trkpt lat="45.0821981" lon="7.9200261"><ele>416.2</ele><time>2026-04-05T09:22:57.264Z</time></trkpt><trkpt lat="45.0822349" lon="7.9201703"><ele>420.0</ele><time>2026-04-05T09:22:59.264Z</time></trkpt><trkpt lat="45.0822991" lon="7.9203218"><ele>420.0</ele><time>2026-04-05T09:23:01.264Z</time></trkpt><trkpt lat="45.0823458" lon="7.9203993"><ele>420.0</ele><time>2026-04-05T09:23:02.264Z</time></trkpt><trkpt lat="45.0823934" lon="7.9204762"><ele>420.0</ele><time>2026-04-05T09:23:03.264Z</time></trkpt><trkpt lat="45.0824459" lon="7.9205475"><ele>420.0</ele><time>2026-04-05T09:23:04.264Z</time></trkpt><trkpt lat="45.0825024" lon="7.920612"><ele>420.0</ele><time>2026-04-05T09:23:05.264Z</time></trkpt><trkpt lat="45.0826183" lon="7.9207274"><ele>420.0</ele><time>2026-04-05T09:23:07.264Z</time></trkpt><trkpt lat="45.0826725" lon="7.9207991"><ele>422.1666666666667</ele><time>2026-04-05T09:23:08.264Z</time></trkpt><trkpt lat="45.0827238" lon="7.9208848"><ele>424.33333333333337</ele><time>2026-04-05T09:23:09.264Z</time></trkpt><trkpt lat="45.0827713" lon="7.9209719"><ele>426.5</ele><time>2026-04-05T09:23:10.264Z</time></trkpt><trkpt lat="45.0828119" lon="7.9210583"><ele>428.6666666666667</ele><time>2026-04-05T09:23:11.264Z</time></trkpt><trkpt lat="45.0828694" lon="7.9211889"><ele>430.83333333333337</ele><time>2026-04-05T09:23:13.264Z</time></trkpt><trkpt lat="45.0829231" lon="7.9212862"><ele>433.0</ele><time>2026-04-05T09:23:15.264Z</time></trkpt><trkpt lat="45.0829677" lon="7.9213583"><ele>432.79999999999995</ele><time>2026-04-05T09:23:29.264Z</time></trkpt><trkpt lat="45.0829785" lon="7.9215728"><ele>432.59999999999997</ele><time>2026-04-05T09:23:39.264Z</time></trkpt><trkpt lat="45.0829851" lon="7.9216725"><ele>432.40000000000003</ele><time>2026-04-05T09:23:43.264Z</time></trkpt><trkpt lat="45.082979" lon="7.921778"><ele>432.20000000000005</ele><time>2026-04-05T09:23:49.264Z</time></trkpt><trkpt lat="45.0829517" lon="7.9218655"><ele>432.0</ele><time>2026-04-05T09:23:51.264Z</time></trkpt><trkpt lat="45.0828482" lon="7.9220326"><ele>432.0</ele><time>2026-04-05T09:23:55.264Z</time></trkpt><trkpt lat="45.0827695" lon="7.9220836"><ele>432.00000000000006</ele><time>2026-04-05T09:23:57.263Z</time></trkpt><trkpt lat="45.0826723" lon="7.922123"><ele>432.00000000000006</ele><time>2026-04-05T09:23:59.264Z</time></trkpt><trkpt lat="45.0825612" lon="7.9221559"><ele>432.0</ele><time>2026-04-05T09:24:01.264Z</time></trkpt><trkpt lat="45.08245" lon="7.9221763"><ele>432.0</ele><time>2026-04-05T09:24:03.264Z</time></trkpt><trkpt lat="45.082368" lon="7.9222024"><ele>429.40000000000003</ele><time>2026-04-05T09:24:05.264Z</time></trkpt><trkpt lat="45.0823148" lon="7.9222727"><ele>426.80000000000007</ele><time>2026-04-05T09:24:07.264Z</time></trkpt><trkpt lat="45.0823009" lon="7.9223819"><ele>424.2</ele><time>2026-04-05T09:24:09.263Z</time></trkpt><trkpt lat="45.082324" lon="7.922488"><ele>421.6</ele><time>2026-04-05T09:24:11.264Z</time></trkpt><trkpt lat="45.0823678" lon="7.9225794"><ele>419.0</ele><time>2026-04-05T09:24:13.264Z</time></trkpt><trkpt lat="45.0825268" lon="7.9227756"><ele>418.8333333333333</ele><time>2026-04-05T09:24:17.264Z</time></trkpt><trkpt lat="45.0825785" lon="7.9228301"><ele>418.66666666666663</ele><time>2026-04-05T09:24:18.264Z</time></trkpt><trkpt lat="45.0826741" lon="7.9229103"><ele>418.5</ele><time>2026-04-05T09:24:20.264Z</time></trkpt><trkpt lat="45.0827776" lon="7.9230098"><ele>418.33333333333337</ele><time>2026-04-05T09:24:22.264Z</time></trkpt><trkpt lat="45.0828425" lon="7.9230575"><ele>418.1666666666667</ele><time>2026-04-05T09:24:23.264Z</time></trkpt><trkpt lat="45.0828989" lon="7.9231034"><ele>418.0</ele><time>2026-04-05T09:24:24.264Z</time></trkpt><trkpt lat="45.082996" lon="7.9232102"><ele>418.0</ele><time>2026-04-05T09:24:26.264Z</time></trkpt><trkpt lat="45.0831002" lon="7.923305"><ele>418.0</ele><time>2026-04-05T09:24:28.264Z</time></trkpt><trkpt lat="45.0832066" lon="7.9233364"><ele>418.0</ele><time>2026-04-05T09:24:30.264Z</time></trkpt><trkpt lat="45.0832812" lon="7.9233906"><ele>418.0</ele><time>2026-04-05T09:24:32.264Z</time></trkpt><trkpt lat="45.0833425" lon="7.9235056"><ele>418.0</ele><time>2026-04-05T09:24:34.264Z</time></trkpt><trkpt lat="45.0834204" lon="7.9238068"><ele>418.50000000000006</ele><time>2026-04-05T09:24:38.264Z</time></trkpt><trkpt lat="45.0833929" lon="7.9238904"><ele>419.0</ele><time>2026-04-05T09:24:39.264Z</time></trkpt><trkpt lat="45.083362" lon="7.9239725"><ele>419.5</ele><time>2026-04-05T09:24:40.264Z</time></trkpt><trkpt lat="45.083315" lon="7.9241381"><ele>420.0</ele><time>2026-04-05T09:24:42.264Z</time></trkpt><trkpt lat="45.0832901" lon="7.9242215"><ele>420.50000000000006</ele><time>2026-04-05T09:24:43.264Z</time></trkpt><trkpt lat="45.0832533" lon="7.9243874"><ele>421.0</ele><time>2026-04-05T09:24:45.264Z</time></trkpt><trkpt lat="45.0832524" lon="7.9245065"><ele>418.20000000000005</ele><time>2026-04-05T09:24:47.264Z</time></trkpt><trkpt lat="45.0832337" lon="7.924609"><ele>415.40000000000003</ele><time>2026-04-05T09:24:50.264Z</time></trkpt><trkpt lat="45.0831176" lon="7.924644"><ele>412.6</ele><time>2026-04-05T09:24:52.264Z</time></trkpt><trkpt lat="45.0830355" lon="7.9246776"><ele>409.8</ele><time>2026-04-05T09:24:53.264Z</time></trkpt><trkpt lat="45.0829439" lon="7.9247227"><ele>407.0</ele><time>2026-04-05T09:24:54.264Z</time></trkpt><trkpt lat="45.0828401" lon="7.9247782"><ele>407.0</ele><time>2026-04-05T09:24:55.264Z</time></trkpt><trkpt lat="45.0826111" lon="7.9249389"><ele>407.0</ele><time>2026-04-05T09:24:57.264Z</time></trkpt><trkpt lat="45.0825017" lon="7.9250491"><ele>407.0</ele><time>2026-04-05T09:24:58.264Z</time></trkpt><trkpt lat="45.0823909" lon="7.9251678"><ele>408.25</ele><time>2026-04-05T09:24:59.264Z</time></trkpt><trkpt lat="45.0822844" lon="7.9252783"><ele>409.5</ele><time>2026-04-05T09:25:00.264Z</time></trkpt><trkpt lat="45.0821736" lon="7.9253843"><ele>410.75</ele><time>2026-04-05T09:25:01.264Z</time></trkpt><trkpt lat="45.0820549" lon="7.9254829"><ele>412.0</ele><time>2026-04-05T09:25:02.264Z</time></trkpt><trkpt lat="45.0819362" lon="7.9255772"><ele>412.0</ele><time>2026-04-05T09:25:03.264Z</time></trkpt><trkpt lat="45.0818222" lon="7.9256701"><ele>412.0</ele><time>2026-04-05T09:25:04.264Z</time></trkpt><trkpt lat="45.0817132" lon="7.9257575"><ele>412.0</ele><time>2026-04-05T09:25:05.264Z</time></trkpt><trkpt lat="45.0816042" lon="7.9258492"><ele>412.0</ele><time>2026-04-05T09:25:06.264Z</time></trkpt><trkpt lat="45.0814932" lon="7.925944"><ele>414.5</ele><time>2026-04-05T09:25:07.264Z</time></trkpt><trkpt lat="45.0813781" lon="7.9260408"><ele>417.0</ele><time>2026-04-05T09:25:08.264Z</time></trkpt><trkpt lat="45.0812575" lon="7.9261482"><ele>419.5</ele><time>2026-04-05T09:25:09.264Z</time></trkpt><trkpt lat="45.0811317" lon="7.9262569"><ele>422.0</ele><time>2026-04-05T09:25:10.264Z</time></trkpt><trkpt lat="45.0810116" lon="7.9263668"><ele>422.0</ele><time>2026-04-05T09:25:11.264Z</time></trkpt><trkpt lat="45.0808901" lon="7.9264743"><ele>422.0</ele><time>2026-04-05T09:25:12.264Z</time></trkpt><trkpt lat="45.0807627" lon="7.9265801"><ele>422.0</ele><time>2026-04-05T09:25:13.264Z</time></trkpt><trkpt lat="45.0806295" lon="7.9266914"><ele>422.0</ele><time>2026-04-05T09:25:14.264Z</time></trkpt><trkpt lat="45.0804907" lon="7.9267897"><ele>428.66666666666663</ele><time>2026-04-05T09:25:15.264Z</time></trkpt><trkpt lat="45.0803554" lon="7.9268646"><ele>435.33333333333337</ele><time>2026-04-05T09:25:16.264Z</time></trkpt><trkpt lat="45.080105" lon="7.9269546"><ele>442.0</ele><time>2026-04-05T09:25:18.264Z</time></trkpt><trkpt lat="45.0799748" lon="7.926979"><ele>440.25</ele><time>2026-04-05T09:25:19.264Z</time></trkpt><trkpt lat="45.0798514" lon="7.926983"><ele>438.5</ele><time>2026-04-05T09:25:20.264Z</time></trkpt><trkpt lat="45.0797297" lon="7.9269769"><ele>436.75</ele><time>2026-04-05T09:25:21.264Z</time></trkpt><trkpt lat="45.0796044" lon="7.9269514"><ele>435.0</ele><time>2026-04-05T09:25:22.264Z</time></trkpt><trkpt lat="45.0794822" lon="7.9268902"><ele>435.0</ele><time>2026-04-05T09:25:23.264Z</time></trkpt><trkpt lat="45.0793696" lon="7.9268111"><ele>435.0</ele><time>2026-04-05T09:25:24.264Z</time></trkpt><trkpt lat="45.0792684" lon="7.9267335"><ele>435.0</ele><time>2026-04-05T09:25:25.264Z</time></trkpt><trkpt lat="45.0791767" lon="7.9266682"><ele>435.0</ele><time>2026-04-05T09:25:26.264Z</time></trkpt><trkpt lat="45.0790916" lon="7.9266165"><ele>435.0</ele><time>2026-04-05T09:25:27.264Z</time></trkpt><trkpt lat="45.0790088" lon="7.9266066"><ele>430.8</ele><time>2026-04-05T09:25:28.264Z</time></trkpt><trkpt lat="45.0789261" lon="7.9266417"><ele>426.6</ele><time>2026-04-05T09:25:29.264Z</time></trkpt><trkpt lat="45.0788407" lon="7.9267278"><ele>422.4</ele><time>2026-04-05T09:25:30.264Z</time></trkpt><trkpt lat="45.078769" lon="7.9268696"><ele>418.2</ele><time>2026-04-05T09:25:31.264Z</time></trkpt><trkpt lat="45.0787283" lon="7.9270515"><ele>414.0</ele><time>2026-04-05T09:25:32.264Z</time></trkpt><trkpt lat="45.0787189" lon="7.9272595"><ele>414.0</ele><time>2026-04-05T09:25:33.264Z</time></trkpt><trkpt lat="45.0787201" lon="7.9274689"><ele>414.0</ele><time>2026-04-05T09:25:34.264Z</time></trkpt><trkpt lat="45.0787314" lon="7.9276781"><ele>414.0</ele><time>2026-04-05T09:25:35.264Z</time></trkpt><trkpt lat="45.0787543" lon="7.9278925"><ele>414.0</ele><time>2026-04-05T09:25:36.264Z</time></trkpt><trkpt lat="45.0787827" lon="7.9281195"><ele>420.0</ele><time>2026-04-05T09:25:37.264Z</time></trkpt><trkpt lat="45.078761" lon="7.9285696"><ele>426.0</ele><time>2026-04-05T09:25:39.264Z</time></trkpt><trkpt lat="45.0787183" lon="7.9287837"><ele>426.0</ele><time>2026-04-05T09:25:40.264Z</time></trkpt><trkpt lat="45.0786606" lon="7.9289704"><ele>426.0</ele><time>2026-04-05T09:25:41.264Z</time></trkpt><trkpt lat="45.0785981" lon="7.9291256"><ele>426.0</ele><time>2026-04-05T09:25:42.264Z</time></trkpt><trkpt lat="45.0785042" lon="7.9292656"><ele>426.0</ele><time>2026-04-05T09:25:43.264Z</time></trkpt><trkpt lat="45.0783911" lon="7.929368"><ele>431.75</ele><time>2026-04-05T09:25:44.264Z</time></trkpt><trkpt lat="45.0782583" lon="7.929444"><ele>437.5</ele><time>2026-04-05T09:25:45.264Z</time></trkpt><trkpt lat="45.0781184" lon="7.9294973"><ele>443.25</ele><time>2026-04-05T09:25:46.264Z</time></trkpt><trkpt lat="45.0779792" lon="7.9295419"><ele>449.0</ele><time>2026-04-05T09:25:47.264Z</time></trkpt><trkpt lat="45.0778388" lon="7.929551"><ele>449.0</ele><time>2026-04-05T09:25:48.264Z</time></trkpt><trkpt lat="45.0777143" lon="7.9295034"><ele>449.0</ele><time>2026-04-05T09:25:49.264Z</time></trkpt><trkpt lat="45.0775953" lon="7.9294253"><ele>449.0</ele><time>2026-04-05T09:25:50.264Z</time></trkpt><trkpt lat="45.0774837" lon="7.9293247"><ele>449.0</ele><time>2026-04-05T09:25:51.264Z</time></trkpt><trkpt lat="45.0773734" lon="7.9292194"><ele>442.75</ele><time>2026-04-05T09:25:52.264Z</time></trkpt><trkpt lat="45.0772667" lon="7.9291034"><ele>436.5</ele><time>2026-04-05T09:25:53.264Z</time></trkpt><trkpt lat="45.0771644" lon="7.92899"><ele>430.25</ele><time>2026-04-05T09:25:54.264Z</time></trkpt><trkpt lat="45.077065" lon="7.9288844"><ele>424.0</ele><time>2026-04-05T09:25:55.264Z</time></trkpt><trkpt lat="45.0769582" lon="7.9288063"><ele>424.0</ele><time>2026-04-05T09:25:56.264Z</time></trkpt><trkpt lat="45.0768602" lon="7.9287709"><ele>424.0</ele><time>2026-04-05T09:25:57.264Z</time></trkpt><trkpt lat="45.0767572" lon="7.928795"><ele>424.0</ele><time>2026-04-05T09:25:58.264Z</time></trkpt><trkpt lat="45.0765645" lon="7.9289916"><ele>424.0</ele><time>2026-04-05T09:26:00.264Z</time></trkpt><trkpt lat="45.0764664" lon="7.9291378"><ele>423.75</ele><time>2026-04-05T09:26:01.264Z</time></trkpt><trkpt lat="45.0763656" lon="7.9292857"><ele>423.5</ele><time>2026-04-05T09:26:02.264Z</time></trkpt><trkpt lat="45.0762613" lon="7.929428"><ele>423.25</ele><time>2026-04-05T09:26:03.264Z</time></trkpt><trkpt lat="45.0761524" lon="7.9295666"><ele>423.0</ele><time>2026-04-05T09:26:04.264Z</time></trkpt><trkpt lat="45.0760468" lon="7.9297025"><ele>423.0</ele><time>2026-04-05T09:26:05.264Z</time></trkpt><trkpt lat="45.0759436" lon="7.9298306"><ele>423.0</ele><time>2026-04-05T09:26:06.264Z</time></trkpt><trkpt lat="45.0758435" lon="7.9299622"><ele>423.0</ele><time>2026-04-05T09:26:07.264Z</time></trkpt><trkpt lat="45.075747" lon="7.930093"><ele>423.0</ele><time>2026-04-05T09:26:08.264Z</time></trkpt><trkpt lat="45.0756565" lon="7.9302122"><ele>417.75</ele><time>2026-04-05T09:26:09.264Z</time></trkpt><trkpt lat="45.0755626" lon="7.930323"><ele>412.5</ele><time>2026-04-05T09:26:10.264Z</time></trkpt><trkpt lat="45.0754617" lon="7.9304147"><ele>407.25</ele><time>2026-04-05T09:26:11.264Z</time></trkpt><trkpt lat="45.0753592" lon="7.9304753"><ele>402.0</ele><time>2026-04-05T09:26:12.264Z</time></trkpt><trkpt lat="45.0752512" lon="7.9304874"><ele>402.0</ele><time>2026-04-05T09:26:13.264Z</time></trkpt><trkpt lat="45.0751253" lon="7.9304435"><ele>402.0</ele><time>2026-04-05T09:26:14.264Z</time></trkpt><trkpt lat="45.0749919" lon="7.9303661"><ele>402.0</ele><time>2026-04-05T09:26:15.264Z</time></trkpt><trkpt lat="45.0748617" lon="7.9302635"><ele>402.0</ele><time>2026-04-05T09:26:16.264Z</time></trkpt><trkpt lat="45.0747369" lon="7.9301699"><ele>399.66666666666663</ele><time>2026-04-05T09:26:17.264Z</time></trkpt><trkpt lat="45.0746138" lon="7.930109"><ele>397.3333333333333</ele><time>2026-04-05T09:26:18.264Z</time></trkpt><trkpt lat="45.0744869" lon="7.93009"><ele>395.0</ele><time>2026-04-05T09:26:19.264Z</time></trkpt><trkpt lat="45.0742263" lon="7.9301694"><ele>397.66666666666663</ele><time>2026-04-05T09:26:21.264Z</time></trkpt><trkpt lat="45.074092" lon="7.9302477"><ele>400.33333333333337</ele><time>2026-04-05T09:26:22.264Z</time></trkpt><trkpt lat="45.0739453" lon="7.9303199"><ele>403.0</ele><time>2026-04-05T09:26:23.264Z</time></trkpt><trkpt lat="45.0737804" lon="7.9303502"><ele>403.0</ele><time>2026-04-05T09:26:24.264Z</time></trkpt><trkpt lat="45.0736104" lon="7.9303404"><ele>403.0</ele><time>2026-04-05T09:26:25.264Z</time></trkpt><trkpt lat="45.0734359" lon="7.9303269"><ele>403.0</ele><time>2026-04-05T09:26:26.264Z</time></trkpt><trkpt lat="45.0732556" lon="7.9303364"><ele>408.6666666666667</ele><time>2026-04-05T09:26:27.264Z</time></trkpt><trkpt lat="45.0730744" lon="7.930381"><ele>414.33333333333337</ele><time>2026-04-05T09:26:28.264Z</time></trkpt><trkpt lat="45.0728811" lon="7.9304395"><ele>420.0</ele><time>2026-04-05T09:26:29.264Z</time></trkpt><trkpt lat="45.0726941" lon="7.9305153"><ele>420.0</ele><time>2026-04-05T09:26:30.264Z</time></trkpt><trkpt lat="45.0725263" lon="7.9305981"><ele>420.0</ele><time>2026-04-05T09:26:31.264Z</time></trkpt><trkpt lat="45.0723827" lon="7.930686"><ele>420.0</ele><time>2026-04-05T09:26:32.264Z</time></trkpt><trkpt lat="45.072259" lon="7.9307807"><ele>420.25</ele><time>2026-04-05T09:26:33.264Z</time></trkpt><trkpt lat="45.0721369" lon="7.930842"><ele>420.5</ele><time>2026-04-05T09:26:34.264Z</time></trkpt><trkpt lat="45.0720186" lon="7.9308744"><ele>420.75</ele><time>2026-04-05T09:26:35.264Z</time></trkpt><trkpt lat="45.0718934" lon="7.9308553"><ele>421.0</ele><time>2026-04-05T09:26:36.264Z</time></trkpt><trkpt lat="45.0717579" lon="7.9307942"><ele>421.0</ele><time>2026-04-05T09:26:37.264Z</time></trkpt><trkpt lat="45.0716163" lon="7.9307016"><ele>421.0</ele><time>2026-04-05T09:26:38.264Z</time></trkpt><trkpt lat="45.0714711" lon="7.9305859"><ele>421.0</ele><time>2026-04-05T09:26:39.264Z</time></trkpt><trkpt lat="45.0713338" lon="7.9304724"><ele>422.6666666666667</ele><time>2026-04-05T09:26:40.264Z</time></trkpt><trkpt lat="45.0710843" lon="7.9302909"><ele>424.33333333333337</ele><time>2026-04-05T09:26:42.264Z</time></trkpt><trkpt lat="45.0709672" lon="7.9302062"><ele>426.0</ele><time>2026-04-05T09:26:43.264Z</time></trkpt><trkpt lat="45.0708638" lon="7.9301249"><ele>422.0</ele><time>2026-04-05T09:26:44.264Z</time></trkpt><trkpt lat="45.0707592" lon="7.9300628"><ele>418.0</ele><time>2026-04-05T09:26:45.264Z</time></trkpt><trkpt lat="45.0706538" lon="7.9300372"><ele>414.0</ele><time>2026-04-05T09:26:46.264Z</time></trkpt><trkpt lat="45.0705313" lon="7.9300406"><ele>410.0</ele><time>2026-04-05T09:26:47.264Z</time></trkpt><trkpt lat="45.0704143" lon="7.9300751"><ele>410.0</ele><time>2026-04-05T09:26:48.264Z</time></trkpt><trkpt lat="45.0703084" lon="7.9301395"><ele>410.0</ele><time>2026-04-05T09:26:49.263Z</time></trkpt><trkpt lat="45.0702153" lon="7.9302327"><ele>410.0</ele><time>2026-04-05T09:26:50.264Z</time></trkpt><trkpt lat="45.0701392" lon="7.9303609"><ele>410.0</ele><time>2026-04-05T09:26:51.264Z</time></trkpt><trkpt lat="45.0700865" lon="7.9305137"><ele>410.0</ele><time>2026-04-05T09:26:52.264Z</time></trkpt><trkpt lat="45.0700455" lon="7.9306952"><ele>410.0</ele><time>2026-04-05T09:26:53.264Z</time></trkpt><trkpt lat="45.0699968" lon="7.9308832"><ele>410.0</ele><time>2026-04-05T09:26:54.264Z</time></trkpt><trkpt lat="45.0699404" lon="7.9310552"><ele>410.0</ele><time>2026-04-05T09:26:55.264Z</time></trkpt><trkpt lat="45.0698709" lon="7.9312091"><ele>407.25</ele><time>2026-04-05T09:26:56.264Z</time></trkpt><trkpt lat="45.0697891" lon="7.9313343"><ele>404.5</ele><time>2026-04-05T09:26:57.264Z</time></trkpt><trkpt lat="45.069702" lon="7.9314525"><ele>401.75</ele><time>2026-04-05T09:26:58.264Z</time></trkpt><trkpt lat="45.0696115" lon="7.9315668"><ele>399.0</ele><time>2026-04-05T09:26:59.264Z</time></trkpt><trkpt lat="45.0695228" lon="7.9316807"><ele>399.25</ele><time>2026-04-05T09:27:00.264Z</time></trkpt><trkpt lat="45.0694381" lon="7.9317864"><ele>399.5</ele><time>2026-04-05T09:27:01.264Z</time></trkpt><trkpt lat="45.0692763" lon="7.9319965"><ele>399.75</ele><time>2026-04-05T09:27:03.264Z</time></trkpt><trkpt lat="45.0692061" lon="7.9321109"><ele>400.0</ele><time>2026-04-05T09:27:04.264Z</time></trkpt><trkpt lat="45.0691468" lon="7.9322131"><ele>400.00000000000006</ele><time>2026-04-05T09:27:05.264Z</time></trkpt><trkpt lat="45.0690877" lon="7.9322999"><ele>400.0</ele><time>2026-04-05T09:27:06.264Z</time></trkpt><trkpt lat="45.0690202" lon="7.9323717"><ele>400.0</ele><time>2026-04-05T09:27:07.264Z</time></trkpt><trkpt lat="45.0689558" lon="7.9324378"><ele>400.0</ele><time>2026-04-05T09:27:08.264Z</time></trkpt><trkpt lat="45.068876" lon="7.9324617"><ele>400.00000000000006</ele><time>2026-04-05T09:27:09.264Z</time></trkpt><trkpt lat="45.0687741" lon="7.9324817"><ele>400.0</ele><time>2026-04-05T09:27:10.264Z</time></trkpt><trkpt lat="45.0686561" lon="7.9325055"><ele>400.0</ele><time>2026-04-05T09:27:11.264Z</time></trkpt><trkpt lat="45.0685311" lon="7.9325256"><ele>400.0</ele><time>2026-04-05T09:27:12.264Z</time></trkpt><trkpt lat="45.0684107" lon="7.9325266"><ele>400.0</ele><time>2026-04-05T09:27:13.264Z</time></trkpt><trkpt lat="45.0683051" lon="7.9325102"><ele>400.0</ele><time>2026-04-05T09:27:14.264Z</time></trkpt><trkpt lat="45.0682149" lon="7.9324812"><ele>400.0</ele><time>2026-04-05T09:27:15.264Z</time></trkpt><trkpt lat="45.0681402" lon="7.9324472"><ele>399.42857142857144</ele><time>2026-04-05T09:27:16.264Z</time></trkpt><trkpt lat="45.0680698" lon="7.9324137"><ele>398.8571428571429</ele><time>2026-04-05T09:27:17.264Z</time></trkpt><trkpt lat="45.0679977" lon="7.9323951"><ele>398.28571428571433</ele><time>2026-04-05T09:27:18.264Z</time></trkpt><trkpt lat="45.0679294" lon="7.9323851"><ele>397.7142857142857</ele><time>2026-04-05T09:27:19.264Z</time></trkpt><trkpt lat="45.0678628" lon="7.9323904"><ele>397.1428571428571</ele><time>2026-04-05T09:27:20.264Z</time></trkpt><trkpt lat="45.0677967" lon="7.9324267"><ele>396.5714285714286</ele><time>2026-04-05T09:27:21.264Z</time></trkpt><trkpt lat="45.0677383" lon="7.9324892"><ele>396.0</ele><time>2026-04-05T09:27:22.264Z</time></trkpt><trkpt lat="45.0676412" lon="7.9326611"><ele>395.8333333333333</ele><time>2026-04-05T09:27:24.263Z</time></trkpt><trkpt lat="45.0675878" lon="7.9327431"><ele>395.66666666666663</ele><time>2026-04-05T09:27:25.264Z</time></trkpt><trkpt lat="45.0675312" lon="7.9328281"><ele>395.5</ele><time>2026-04-05T09:27:26.264Z</time></trkpt><trkpt lat="45.0674624" lon="7.9329145"><ele>395.3333333333333</ele><time>2026-04-05T09:27:27.264Z</time></trkpt><trkpt lat="45.067389" lon="7.9330005"><ele>395.16666666666663</ele><time>2026-04-05T09:27:28.264Z</time></trkpt><trkpt lat="45.0673111" lon="7.9330824"><ele>395.0</ele><time>2026-04-05T09:27:29.264Z</time></trkpt><trkpt lat="45.0672382" lon="7.933157"><ele>394.99999999999994</ele><time>2026-04-05T09:27:30.264Z</time></trkpt><trkpt lat="45.0671684" lon="7.9332089"><ele>395.0</ele><time>2026-04-05T09:27:31.264Z</time></trkpt><trkpt lat="45.0670922" lon="7.9332569"><ele>395.0</ele><time>2026-04-05T09:27:32.264Z</time></trkpt><trkpt lat="45.0670161" lon="7.9333169"><ele>395.0</ele><time>2026-04-05T09:27:33.264Z</time></trkpt><trkpt lat="45.0669342" lon="7.9333701"><ele>394.99999999999994</ele><time>2026-04-05T09:27:34.264Z</time></trkpt><trkpt lat="45.0668413" lon="7.9334042"><ele>395.0</ele><time>2026-04-05T09:27:35.264Z</time></trkpt><trkpt lat="45.0667356" lon="7.9334265"><ele>394.2</ele><time>2026-04-05T09:27:36.264Z</time></trkpt><trkpt lat="45.0666274" lon="7.9334376"><ele>393.4</ele><time>2026-04-05T09:27:37.264Z</time></trkpt><trkpt lat="45.0665291" lon="7.9334159"><ele>392.6</ele><time>2026-04-05T09:27:38.264Z</time></trkpt><trkpt lat="45.0664402" lon="7.9333804"><ele>391.8</ele><time>2026-04-05T09:27:39.264Z</time></trkpt><trkpt lat="45.066354" lon="7.9333353"><ele>391.0</ele><time>2026-04-05T09:27:40.264Z</time></trkpt><trkpt lat="45.066266" lon="7.9332846"><ele>390.0</ele><time>2026-04-05T09:27:41.264Z</time></trkpt><trkpt lat="45.066188" lon="7.9332378"><ele>389.0</ele><time>2026-04-05T09:27:42.264Z</time></trkpt><trkpt lat="45.0661111" lon="7.9332052"><ele>388.0</ele><time>2026-04-05T09:27:43.264Z</time></trkpt><trkpt lat="45.0659443" lon="7.9332279"><ele>387.0</ele><time>2026-04-05T09:27:45.264Z</time></trkpt><trkpt lat="45.0658529" lon="7.9332642"><ele>386.0</ele><time>2026-04-05T09:27:46.264Z</time></trkpt><trkpt lat="45.0657622" lon="7.9332922"><ele>383.8</ele><time>2026-04-05T09:27:47.264Z</time></trkpt><trkpt lat="45.0656616" lon="7.9333189"><ele>381.6</ele><time>2026-04-05T09:27:48.264Z</time></trkpt><trkpt lat="45.0655601" lon="7.9333527"><ele>379.4</ele><time>2026-04-05T09:27:49.264Z</time></trkpt><trkpt lat="45.0654699" lon="7.9333625"><ele>377.2</ele><time>2026-04-05T09:27:50.264Z</time></trkpt><trkpt lat="45.0653731" lon="7.9333567"><ele>375.0</ele><time>2026-04-05T09:27:51.264Z</time></trkpt><trkpt lat="45.0652799" lon="7.933342"><ele>375.0</ele><time>2026-04-05T09:27:52.264Z</time></trkpt><trkpt lat="45.0651792" lon="7.9332822"><ele>375.0</ele><time>2026-04-05T09:27:53.263Z</time></trkpt><trkpt lat="45.0650686" lon="7.9332019"><ele>375.0</ele><time>2026-04-05T09:27:54.264Z</time></trkpt><trkpt lat="45.0649473" lon="7.9331154"><ele>375.0</ele><time>2026-04-05T09:27:55.264Z</time></trkpt><trkpt lat="45.0648056" lon="7.9330291"><ele>374.6666666666667</ele><time>2026-04-05T09:27:56.264Z</time></trkpt><trkpt lat="45.0646506" lon="7.9329347"><ele>374.33333333333337</ele><time>2026-04-05T09:27:57.264Z</time></trkpt><trkpt lat="45.0644927" lon="7.9328324"><ele>374.0</ele><time>2026-04-05T09:27:58.264Z</time></trkpt><trkpt lat="45.064353" lon="7.9327312"><ele>374.0</ele><time>2026-04-05T09:27:59.264Z</time></trkpt><trkpt lat="45.0642267" lon="7.9326485"><ele>374.0</ele><time>2026-04-05T09:28:00.264Z</time></trkpt><trkpt lat="45.0641074" lon="7.9325848"><ele>374.0</ele><time>2026-04-05T09:28:01.264Z</time></trkpt><trkpt lat="45.0639951" lon="7.9325188"><ele>374.0</ele><time>2026-04-05T09:28:02.264Z</time></trkpt><trkpt lat="45.0638879" lon="7.9324636"><ele>375.5</ele><time>2026-04-05T09:28:03.264Z</time></trkpt><trkpt lat="45.0637842" lon="7.9324155"><ele>377.0</ele><time>2026-04-05T09:28:04.264Z</time></trkpt><trkpt lat="45.0636009" lon="7.9323636"><ele>378.5</ele><time>2026-04-05T09:28:06.264Z</time></trkpt><trkpt lat="45.0635198" lon="7.932356"><ele>380.0</ele><time>2026-04-05T09:28:07.264Z</time></trkpt><trkpt lat="45.0634413" lon="7.9323628"><ele>380.0</ele><time>2026-04-05T09:28:08.264Z</time></trkpt><trkpt lat="45.0633695" lon="7.9323754"><ele>380.0</ele><time>2026-04-05T09:28:09.264Z</time></trkpt><trkpt lat="45.063299" lon="7.932376"><ele>380.0</ele><time>2026-04-05T09:28:10.264Z</time></trkpt><trkpt lat="45.0632302" lon="7.9323634"><ele>380.0</ele><time>2026-04-05T09:28:11.264Z</time></trkpt><trkpt lat="45.0631535" lon="7.9323346"><ele>380.0</ele><time>2026-04-05T09:28:12.264Z</time></trkpt><trkpt lat="45.0630667" lon="7.932286"><ele>380.0</ele><time>2026-04-05T09:28:13.264Z</time></trkpt><trkpt lat="45.0629801" lon="7.9322197"><ele>379.1666666666667</ele><time>2026-04-05T09:28:14.264Z</time></trkpt><trkpt lat="45.0629004" lon="7.9321437"><ele>378.33333333333337</ele><time>2026-04-05T09:28:15.264Z</time></trkpt><trkpt lat="45.0628307" lon="7.9320529"><ele>377.5</ele><time>2026-04-05T09:28:16.264Z</time></trkpt><trkpt lat="45.0627674" lon="7.9319669"><ele>376.6666666666667</ele><time>2026-04-05T09:28:17.264Z</time></trkpt><trkpt lat="45.0627056" lon="7.9318838"><ele>375.8333333333333</ele><time>2026-04-05T09:28:18.264Z</time></trkpt><trkpt lat="45.0626546" lon="7.9318048"><ele>375.0</ele><time>2026-04-05T09:28:19.264Z</time></trkpt><trkpt lat="45.0625946" lon="7.9317225"><ele>374.6</ele><time>2026-04-05T09:28:20.264Z</time></trkpt><trkpt lat="45.0625299" lon="7.9316391"><ele>374.2</ele><time>2026-04-05T09:28:21.264Z</time></trkpt><trkpt lat="45.0624585" lon="7.9315488"><ele>373.79999999999995</ele><time>2026-04-05T09:28:22.264Z</time></trkpt><trkpt lat="45.0623796" lon="7.9314543"><ele>373.4</ele><time>2026-04-05T09:28:23.264Z</time></trkpt><trkpt lat="45.0623006" lon="7.9313592"><ele>373.0</ele><time>2026-04-05T09:28:24.264Z</time></trkpt><trkpt lat="45.06222" lon="7.931264"><ele>370.5</ele><time>2026-04-05T09:28:25.264Z</time></trkpt><trkpt lat="45.0620469" lon="7.9310715"><ele>368.0</ele><time>2026-04-05T09:28:27.264Z</time></trkpt><trkpt lat="45.0619557" lon="7.9309806"><ele>365.5</ele><time>2026-04-05T09:28:28.264Z</time></trkpt><trkpt lat="45.0618637" lon="7.9308932"><ele>363.0</ele><time>2026-04-05T09:28:29.264Z</time></trkpt><trkpt lat="45.0617664" lon="7.9308171"><ele>363.0</ele><time>2026-04-05T09:28:30.264Z</time></trkpt><trkpt lat="45.0616716" lon="7.9307342"><ele>363.0</ele><time>2026-04-05T09:28:31.264Z</time></trkpt><trkpt lat="45.0615728" lon="7.9306533"><ele>363.0</ele><time>2026-04-05T09:28:32.264Z</time></trkpt><trkpt lat="45.0614724" lon="7.9305685"><ele>363.0</ele><time>2026-04-05T09:28:33.264Z</time></trkpt><trkpt lat="45.061371" lon="7.9304843"><ele>362.2</ele><time>2026-04-05T09:28:34.264Z</time></trkpt><trkpt lat="45.0612657" lon="7.9304075"><ele>361.4</ele><time>2026-04-05T09:28:35.264Z</time></trkpt><trkpt lat="45.0611713" lon="7.9303373"><ele>360.59999999999997</ele><time>2026-04-05T09:28:36.264Z</time></trkpt><trkpt lat="45.0610707" lon="7.930273"><ele>359.79999999999995</ele><time>2026-04-05T09:28:37.264Z</time></trkpt><trkpt lat="45.0609677" lon="7.9302103"><ele>359.0</ele><time>2026-04-05T09:28:38.264Z</time></trkpt><trkpt lat="45.0608633" lon="7.9301545"><ele>358.79999999999995</ele><time>2026-04-05T09:28:39.264Z</time></trkpt><trkpt lat="45.0607652" lon="7.9300951"><ele>358.59999999999997</ele><time>2026-04-05T09:28:40.264Z</time></trkpt><trkpt lat="45.0606755" lon="7.9300385"><ele>358.4</ele><time>2026-04-05T09:28:41.264Z</time></trkpt><trkpt lat="45.0605838" lon="7.9299806"><ele>358.2</ele><time>2026-04-05T09:28:42.264Z</time></trkpt><trkpt lat="45.0604925" lon="7.9299242"><ele>358.0</ele><time>2026-04-05T09:28:43.264Z</time></trkpt><trkpt lat="45.0604105" lon="7.9298646"><ele>358.0</ele><time>2026-04-05T09:28:44.264Z</time></trkpt><trkpt lat="45.0603315" lon="7.929807"><ele>358.0</ele><time>2026-04-05T09:28:45.264Z</time></trkpt><trkpt lat="45.0602479" lon="7.9297484"><ele>358.0</ele><time>2026-04-05T09:28:46.264Z</time></trkpt><trkpt lat="45.0600774" lon="7.9296517"><ele>358.0</ele><time>2026-04-05T09:28:48.264Z</time></trkpt><trkpt lat="45.0599988" lon="7.9296259"><ele>358.0</ele><time>2026-04-05T09:28:49.264Z</time></trkpt><trkpt lat="45.0599159" lon="7.9296148"><ele>357.66666666666663</ele><time>2026-04-05T09:28:50.264Z</time></trkpt><trkpt lat="45.0598373" lon="7.9296146"><ele>357.3333333333333</ele><time>2026-04-05T09:28:51.264Z</time></trkpt><trkpt lat="45.0597623" lon="7.9296255"><ele>357.0</ele><time>2026-04-05T09:28:52.264Z</time></trkpt><trkpt lat="45.0596935" lon="7.9296348"><ele>356.6666666666667</ele><time>2026-04-05T09:28:53.264Z</time></trkpt><trkpt lat="45.0596275" lon="7.9296374"><ele>356.33333333333337</ele><time>2026-04-05T09:28:54.264Z</time></trkpt><trkpt lat="45.0595223" lon="7.9296244"><ele>356.0</ele><time>2026-04-05T09:28:56.264Z</time></trkpt><trkpt lat="45.0594323" lon="7.9296066"><ele>356.0</ele><time>2026-04-05T09:28:58.264Z</time></trkpt><trkpt lat="45.0593558" lon="7.9296154"><ele>356.0</ele><time>2026-04-05T09:29:00.264Z</time></trkpt><trkpt lat="45.0593084" lon="7.9297023"><ele>356.0</ele><time>2026-04-05T09:29:02.264Z</time></trkpt><trkpt lat="45.0592477" lon="7.9298414"><ele>356.0</ele><time>2026-04-05T09:29:04.264Z</time></trkpt><trkpt lat="45.0592035" lon="7.9299203"><ele>356.0</ele><time>2026-04-05T09:29:05.264Z</time></trkpt><trkpt lat="45.0591557" lon="7.9299996"><ele>356.0</ele><time>2026-04-05T09:29:06.264Z</time></trkpt><trkpt lat="45.0591" lon="7.9300792"><ele>356.75</ele><time>2026-04-05T09:29:07.264Z</time></trkpt><trkpt lat="45.0589638" lon="7.9302515"><ele>357.5</ele><time>2026-04-05T09:29:09.264Z</time></trkpt><trkpt lat="45.0588785" lon="7.9303368"><ele>358.25</ele><time>2026-04-05T09:29:10.264Z</time></trkpt><trkpt lat="45.0587893" lon="7.9304087"><ele>359.0</ele><time>2026-04-05T09:29:11.264Z</time></trkpt><trkpt lat="45.0587051" lon="7.9304785"><ele>359.0</ele><time>2026-04-05T09:29:12.264Z</time></trkpt><trkpt lat="45.0586248" lon="7.9305348"><ele>359.0</ele><time>2026-04-05T09:29:13.264Z</time></trkpt><trkpt lat="45.0585543" lon="7.9305833"><ele>359.0</ele><time>2026-04-05T09:29:14.264Z</time></trkpt><trkpt lat="45.0584836" lon="7.9306304"><ele>359.0</ele><time>2026-04-05T09:29:15.264Z</time></trkpt><trkpt lat="45.0584028" lon="7.930677"><ele>359.0</ele><time>2026-04-05T09:29:16.264Z</time></trkpt><trkpt lat="45.058318" lon="7.9307237"><ele>359.0</ele><time>2026-04-05T09:29:17.264Z</time></trkpt><trkpt lat="45.0582437" lon="7.9307673"><ele>359.1666666666667</ele><time>2026-04-05T09:29:18.264Z</time></trkpt><trkpt lat="45.0581789" lon="7.9308084"><ele>359.33333333333337</ele><time>2026-04-05T09:29:19.264Z</time></trkpt><trkpt lat="45.0581078" lon="7.9308948"><ele>359.5</ele><time>2026-04-05T09:29:21.264Z</time></trkpt><trkpt lat="45.058135" lon="7.9310246"><ele>359.6666666666667</ele><time>2026-04-05T09:29:23.264Z</time></trkpt><trkpt lat="45.0581624" lon="7.9311054"><ele>359.8333333333333</ele><time>2026-04-05T09:29:24.264Z</time></trkpt><trkpt lat="45.058214" lon="7.931257"><ele>360.0</ele><time>2026-04-05T09:29:26.264Z</time></trkpt><trkpt lat="45.0582609" lon="7.9313951"><ele>358.8333333333333</ele><time>2026-04-05T09:29:28.264Z</time></trkpt><trkpt lat="45.0583201" lon="7.9315859"><ele>357.6666666666667</ele><time>2026-04-05T09:29:33.264Z</time></trkpt><trkpt lat="45.0583893" lon="7.9316321"><ele>356.5</ele><time>2026-04-05T09:29:36.264Z</time></trkpt><trkpt lat="45.0584712" lon="7.931619"><ele>355.33333333333337</ele><time>2026-04-05T09:29:39.264Z</time></trkpt><trkpt lat="45.0585355" lon="7.9315967"><ele>354.1666666666667</ele><time>2026-04-05T09:29:41.264Z</time></trkpt><trkpt lat="45.0586078" lon="7.9315694"><ele>353.0</ele><time>2026-04-05T09:29:43.264Z</time></trkpt><trkpt lat="45.058685" lon="7.9315417"><ele>353.0</ele><time>2026-04-05T09:29:45.264Z</time></trkpt><trkpt lat="45.0587655" lon="7.9315139"><ele>353.0</ele><time>2026-04-05T09:29:47.264Z</time></trkpt><trkpt lat="45.0588455" lon="7.9314887"><ele>353.0</ele><time>2026-04-05T09:29:49.264Z</time></trkpt><trkpt lat="45.0590048" lon="7.9315187"><ele>353.0</ele><time>2026-04-05T09:29:54.264Z</time></trkpt><trkpt lat="45.0590336" lon="7.9316582"><ele>353.0</ele><time>2026-04-05T09:29:56.264Z</time></trkpt><trkpt lat="45.0590477" lon="7.931764"><ele>352.0</ele><time>2026-04-05T09:29:57.264Z</time></trkpt><trkpt lat="45.0590579" lon="7.9318771"><ele>351.0</ele><time>2026-04-05T09:29:58.264Z</time></trkpt><trkpt lat="45.0590633" lon="7.9319968"><ele>350.0</ele><time>2026-04-05T09:29:59.264Z</time></trkpt><trkpt lat="45.059066" lon="7.9321195"><ele>349.0</ele><time>2026-04-05T09:30:00.264Z</time></trkpt><trkpt lat="45.0590617" lon="7.9322519"><ele>348.0</ele><time>2026-04-05T09:30:01.264Z</time></trkpt><trkpt lat="45.0590536" lon="7.9323915"><ele>347.0</ele><time>2026-04-05T09:30:02.263Z</time></trkpt><trkpt lat="45.059048" lon="7.9325275"><ele>346.0</ele><time>2026-04-05T09:30:03.264Z</time></trkpt><trkpt lat="45.0590363" lon="7.9326703"><ele>345.0</ele><time>2026-04-05T09:30:04.264Z</time></trkpt><trkpt lat="45.0590217" lon="7.9328183"><ele>344.0</ele><time>2026-04-05T09:30:05.264Z</time></trkpt><trkpt lat="45.0590167" lon="7.9329671"><ele>343.0</ele><time>2026-04-05T09:30:06.264Z</time></trkpt><trkpt lat="45.0590109" lon="7.9331053"><ele>342.0</ele><time>2026-04-05T09:30:07.264Z</time></trkpt><trkpt lat="45.0590027" lon="7.9332336"><ele>342.0</ele><time>2026-04-05T09:30:08.264Z</time></trkpt><trkpt lat="45.0589955" lon="7.9333617"><ele>342.0</ele><time>2026-04-05T09:30:09.264Z</time></trkpt><trkpt lat="45.0589899" lon="7.9334874"><ele>342.0</ele><time>2026-04-05T09:30:10.264Z</time></trkpt><trkpt lat="45.0589922" lon="7.9337082"><ele>342.0</ele><time>2026-04-05T09:30:12.264Z</time></trkpt><trkpt lat="45.0590059" lon="7.9337983"><ele>342.0</ele><time>2026-04-05T09:30:13.264Z</time></trkpt><trkpt lat="45.0590375" lon="7.9339354"><ele>341.6</ele><time>2026-04-05T09:30:15.264Z</time></trkpt><trkpt lat="45.0590637" lon="7.9340424"><ele>341.20000000000005</ele><time>2026-04-05T09:30:17.264Z</time></trkpt><trkpt lat="45.0590959" lon="7.9342081"><ele>340.8</ele><time>2026-04-05T09:30:19.264Z</time></trkpt><trkpt lat="45.0591219" lon="7.9343153"><ele>340.4</ele><time>2026-04-05T09:30:20.264Z</time></trkpt><trkpt lat="45.0591464" lon="7.9344304"><ele>340.0</ele><time>2026-04-05T09:30:21.264Z</time></trkpt><trkpt lat="45.0591652" lon="7.9345468"><ele>341.3333333333333</ele><time>2026-04-05T09:30:22.264Z</time></trkpt><trkpt lat="45.0591773" lon="7.9346573"><ele>342.66666666666663</ele><time>2026-04-05T09:30:23.264Z</time></trkpt><trkpt lat="45.0591826" lon="7.9347687"><ele>344.0</ele><time>2026-04-05T09:30:24.264Z</time></trkpt><trkpt lat="45.0591794" lon="7.934882"><ele>345.3333333333333</ele><time>2026-04-05T09:30:25.264Z</time></trkpt><trkpt lat="45.059176" lon="7.9349944"><ele>346.6666666666667</ele><time>2026-04-05T09:30:26.264Z</time></trkpt><trkpt lat="45.059181" lon="7.9350986"><ele>348.0</ele><time>2026-04-05T09:30:27.264Z</time></trkpt><trkpt lat="45.059194" lon="7.9352011"><ele>348.6666666666667</ele><time>2026-04-05T09:30:28.264Z</time></trkpt><trkpt lat="45.0592067" lon="7.9352989"><ele>349.3333333333333</ele><time>2026-04-05T09:30:29.264Z</time></trkpt><trkpt lat="45.0592207" lon="7.935399"><ele>350.0</ele><time>2026-04-05T09:30:30.264Z</time></trkpt><trkpt lat="45.0592454" lon="7.9354986"><ele>350.66666666666663</ele><time>2026-04-05T09:30:31.264Z</time></trkpt><trkpt lat="45.0593014" lon="7.9356943"><ele>351.3333333333333</ele><time>2026-04-05T09:30:33.264Z</time></trkpt><trkpt lat="45.0593314" lon="7.9357886"><ele>352.0</ele><time>2026-04-05T09:30:34.264Z</time></trkpt><trkpt lat="45.0593623" lon="7.9358818"><ele>352.0</ele><time>2026-04-05T09:30:35.264Z</time></trkpt><trkpt lat="45.0593876" lon="7.9359739"><ele>352.0</ele><time>2026-04-05T09:30:36.263Z</time></trkpt><trkpt lat="45.0594258" lon="7.9360966"><ele>352.0</ele><time>2026-04-05T09:30:38.264Z</time></trkpt><trkpt lat="45.0594138" lon="7.9361876"><ele>352.0</ele><time>2026-04-05T09:30:40.264Z</time></trkpt><trkpt lat="45.0593691" lon="7.9362526"><ele>352.0</ele><time>2026-04-05T09:30:41.264Z</time></trkpt><trkpt lat="45.0593079" lon="7.9363276"><ele>352.0</ele><time>2026-04-05T09:30:42.264Z</time></trkpt><trkpt lat="45.0592587" lon="7.9363968"><ele>352.0</ele><time>2026-04-05T09:30:43.264Z</time></trkpt><trkpt lat="45.0592011" lon="7.9364897"><ele>352.0</ele><time>2026-04-05T09:30:45.264Z</time></trkpt><trkpt lat="45.0591284" lon="7.9365649"><ele>352.0</ele><time>2026-04-05T09:30:47.264Z</time></trkpt><trkpt lat="45.059016" lon="7.9366399"><ele>352.0</ele><time>2026-04-05T09:30:49.264Z</time></trkpt><trkpt lat="45.0589173" lon="7.9367144"><ele>352.0</ele><time>2026-04-05T09:30:51.264Z</time></trkpt><trkpt lat="45.0588501" lon="7.9367729"><ele>352.0</ele><time>2026-04-05T09:30:53.264Z</time></trkpt><trkpt lat="45.0586621" lon="7.9369139"><ele>351.8</ele><time>2026-04-05T09:30:58.264Z</time></trkpt><trkpt lat="45.0585948" lon="7.9369623"><ele>351.6</ele><time>2026-04-05T09:30:59.264Z</time></trkpt><trkpt lat="45.0585193" lon="7.9370229"><ele>351.40000000000003</ele><time>2026-04-05T09:31:00.264Z</time></trkpt><trkpt lat="45.0584436" lon="7.9370877"><ele>351.20000000000005</ele><time>2026-04-05T09:31:01.264Z</time></trkpt><trkpt lat="45.0583552" lon="7.937157"><ele>351.0</ele><time>2026-04-05T09:31:02.264Z</time></trkpt><trkpt lat="45.0582636" lon="7.9372348"><ele>351.0</ele><time>2026-04-05T09:31:03.263Z</time></trkpt><trkpt lat="45.058183" lon="7.9373109"><ele>351.0</ele><time>2026-04-05T09:31:04.264Z</time></trkpt><trkpt lat="45.0580982" lon="7.9373825"><ele>351.0</ele><time>2026-04-05T09:31:05.264Z</time></trkpt><trkpt lat="45.0580118" lon="7.9374537"><ele>351.0</ele><time>2026-04-05T09:31:06.264Z</time></trkpt><trkpt lat="45.0579204" lon="7.9375279"><ele>351.0</ele><time>2026-04-05T09:31:07.264Z</time></trkpt><trkpt lat="45.0578246" lon="7.937606"><ele>352.4</ele><time>2026-04-05T09:31:08.264Z</time></trkpt><trkpt lat="45.057725" lon="7.93768"><ele>353.8</ele><time>2026-04-05T09:31:09.264Z</time></trkpt><trkpt lat="45.0576188" lon="7.9377458"><ele>355.2</ele><time>2026-04-05T09:31:10.264Z</time></trkpt><trkpt lat="45.0575121" lon="7.9378021"><ele>356.59999999999997</ele><time>2026-04-05T09:31:11.264Z</time></trkpt><trkpt lat="45.0574111" lon="7.9378524"><ele>358.0</ele><time>2026-04-05T09:31:12.264Z</time></trkpt><trkpt lat="45.0573232" lon="7.9379074"><ele>358.0</ele><time>2026-04-05T09:31:13.264Z</time></trkpt><trkpt lat="45.0572406" lon="7.9379626"><ele>358.0</ele><time>2026-04-05T09:31:14.264Z</time></trkpt><trkpt lat="45.0570939" lon="7.9381141"><ele>358.0</ele><time>2026-04-05T09:31:16.264Z</time></trkpt><trkpt lat="45.0570219" lon="7.9381957"><ele>358.0</ele><time>2026-04-05T09:31:17.264Z</time></trkpt><trkpt lat="45.0569518" lon="7.938263"><ele>358.0</ele><time>2026-04-05T09:31:18.263Z</time></trkpt><trkpt lat="45.0568854" lon="7.9383275"><ele>358.0</ele><time>2026-04-05T09:31:19.264Z</time></trkpt><trkpt lat="45.0568309" lon="7.9383929"><ele>358.0</ele><time>2026-04-05T09:31:20.264Z</time></trkpt><trkpt lat="45.056795" lon="7.9384745"><ele>358.0</ele><time>2026-04-05T09:31:21.264Z</time></trkpt><trkpt lat="45.0567949" lon="7.9386502"><ele>358.0</ele><time>2026-04-05T09:31:23.264Z</time></trkpt><trkpt lat="45.0568142" lon="7.9387389"><ele>358.0</ele><time>2026-04-05T09:31:24.264Z</time></trkpt><trkpt lat="45.0568358" lon="7.9388885"><ele>357.8333333333333</ele><time>2026-04-05T09:31:26.264Z</time></trkpt><trkpt lat="45.0568426" lon="7.9390038"><ele>357.66666666666663</ele><time>2026-04-05T09:31:28.264Z</time></trkpt><trkpt lat="45.0568472" lon="7.939118"><ele>357.5</ele><time>2026-04-05T09:31:30.264Z</time></trkpt><trkpt lat="45.0568639" lon="7.9392407"><ele>357.3333333333333</ele><time>2026-04-05T09:31:32.264Z</time></trkpt><trkpt lat="45.0568822" lon="7.9393631"><ele>357.1666666666667</ele><time>2026-04-05T09:31:34.264Z</time></trkpt><trkpt lat="45.056897" lon="7.9394866"><ele>357.0</ele><time>2026-04-05T09:31:36.264Z</time></trkpt><trkpt lat="45.0569314" lon="7.9397013"><ele>355.8333333333333</ele><time>2026-04-05T09:31:40.264Z</time></trkpt><trkpt lat="45.0569526" lon="7.9398022"><ele>354.6666666666667</ele><time>2026-04-05T09:31:42.264Z</time></trkpt><trkpt lat="45.0569735" lon="7.9398957"><ele>353.5</ele><time>2026-04-05T09:31:44.264Z</time></trkpt><trkpt lat="45.0569469" lon="7.9399844"><ele>352.33333333333337</ele><time>2026-04-05T09:31:46.264Z</time></trkpt><trkpt lat="45.0568685" lon="7.9400642"><ele>351.1666666666667</ele><time>2026-04-05T09:31:48.264Z</time></trkpt><trkpt lat="45.0567688" lon="7.9401673"><ele>350.0</ele><time>2026-04-05T09:31:50.264Z</time></trkpt><trkpt lat="45.0567164" lon="7.9402254"><ele>349.1666666666667</ele><time>2026-04-05T09:31:51.264Z</time></trkpt><trkpt lat="45.0566632" lon="7.9402854"><ele>348.33333333333337</ele><time>2026-04-05T09:31:52.264Z</time></trkpt><trkpt lat="45.0566135" lon="7.9403464"><ele>347.5</ele><time>2026-04-05T09:31:53.264Z</time></trkpt><trkpt lat="45.0565316" lon="7.9404483"><ele>346.6666666666667</ele><time>2026-04-05T09:31:55.264Z</time></trkpt><trkpt lat="45.0564734" lon="7.9405108"><ele>345.8333333333333</ele><time>2026-04-05T09:31:57.264Z</time></trkpt><trkpt lat="45.0564481" lon="7.9406791"><ele>345.0</ele><time>2026-04-05T09:32:04.264Z</time></trkpt><trkpt lat="45.0565061" lon="7.9407284"><ele>344.5</ele><time>2026-04-05T09:32:06.264Z</time></trkpt><trkpt lat="45.05656" lon="7.9407985"><ele>344.0</ele><time>2026-04-05T09:32:08.264Z</time></trkpt><trkpt lat="45.0566179" lon="7.9408959"><ele>343.5</ele><time>2026-04-05T09:32:10.264Z</time></trkpt><trkpt lat="45.0566717" lon="7.9409918"><ele>343.0</ele><time>2026-04-05T09:32:12.264Z</time></trkpt><trkpt lat="45.0566855" lon="7.9411155"><ele>342.5</ele><time>2026-04-05T09:32:15.264Z</time></trkpt><trkpt lat="45.0566318" lon="7.9412029"><ele>342.0</ele><time>2026-04-05T09:32:17.264Z</time></trkpt><trkpt lat="45.0565589" lon="7.9412636"><ele>339.75</ele><time>2026-04-05T09:32:19.264Z</time></trkpt><trkpt lat="45.056415" lon="7.9413904"><ele>337.5</ele><time>2026-04-05T09:32:23.264Z</time></trkpt><trkpt lat="45.0563398" lon="7.9414502"><ele>335.25</ele><time>2026-04-05T09:32:25.264Z</time></trkpt><trkpt lat="45.0562415" lon="7.941531"><ele>333.0</ele><time>2026-04-05T09:32:27.264Z</time></trkpt><trkpt lat="45.0561419" lon="7.9416025"><ele>333.0</ele><time>2026-04-05T09:32:29.264Z</time></trkpt><trkpt lat="45.0560573" lon="7.9416721"><ele>333.0</ele><time>2026-04-05T09:32:31.264Z</time></trkpt><trkpt lat="45.0559982" lon="7.9417198"><ele>333.0</ele><time>2026-04-05T09:32:33.264Z</time></trkpt><trkpt lat="45.0559352" lon="7.9417745"><ele>333.0</ele><time>2026-04-05T09:32:36.264Z</time></trkpt><trkpt lat="45.0558688" lon="7.9418485"><ele>333.0</ele><time>2026-04-05T09:33:10.264Z</time></trkpt><trkpt lat="45.0557408" lon="7.9419473"><ele>331.2857142857143</ele><time>2026-04-05T09:33:14.264Z</time></trkpt><trkpt lat="45.0556848" lon="7.9419933"><ele>329.57142857142856</ele><time>2026-04-05T09:33:16.264Z</time></trkpt><trkpt lat="45.0556307" lon="7.9420442"><ele>327.85714285714283</ele><time>2026-04-05T09:33:18.264Z</time></trkpt><trkpt lat="45.0555696" lon="7.9420666"><ele>326.1428571428571</ele><time>2026-04-05T09:33:20.264Z</time></trkpt><trkpt lat="45.0554996" lon="7.9420731"><ele>324.42857142857144</ele><time>2026-04-05T09:33:23.264Z</time></trkpt><trkpt lat="45.0554239" lon="7.9420532"><ele>322.71428571428567</ele><time>2026-04-05T09:33:26.264Z</time></trkpt><trkpt lat="45.0553424" lon="7.9420196"><ele>321.0</ele><time>2026-04-05T09:33:29.264Z</time></trkpt><trkpt lat="45.055257" lon="7.9419635"><ele>321.0</ele><time>2026-04-05T09:33:32.264Z</time></trkpt><trkpt lat="45.0551037" lon="7.9419005"><ele>321.0</ele><time>2026-04-05T09:33:37.264Z</time></trkpt><trkpt lat="45.0550417" lon="7.9418766"><ele>321.0</ele><time>2026-04-05T09:33:39.264Z</time></trkpt><trkpt lat="45.0549828" lon="7.9418444"><ele>321.0</ele><time>2026-04-05T09:33:41.264Z</time></trkpt><trkpt lat="45.0549091" lon="7.9418156"><ele>321.0</ele><time>2026-04-05T09:33:44.264Z</time></trkpt><trkpt lat="45.0548473" lon="7.9418411"><ele>321.0</ele><time>2026-04-05T09:33:46.264Z</time></trkpt><trkpt lat="45.0547579" lon="7.9418642"><ele>319.40000000000003</ele><time>2026-04-05T09:33:48.264Z</time></trkpt><trkpt lat="45.0546472" lon="7.941885"><ele>317.8</ele><time>2026-04-05T09:33:50.264Z</time></trkpt><trkpt lat="45.0545309" lon="7.9419008"><ele>316.20000000000005</ele><time>2026-04-05T09:33:52.264Z</time></trkpt><trkpt lat="45.0544659" lon="7.9419109"><ele>314.6</ele><time>2026-04-05T09:33:53.264Z</time></trkpt><trkpt lat="45.0543203" lon="7.9419306"><ele>313.0</ele><time>2026-04-05T09:33:55.264Z</time></trkpt><trkpt lat="45.0542478" lon="7.9419405"><ele>313.0</ele><time>2026-04-05T09:33:56.264Z</time></trkpt><trkpt lat="45.0541822" lon="7.9419513"><ele>313.0</ele><time>2026-04-05T09:33:57.264Z</time></trkpt><trkpt lat="45.0540695" lon="7.9419933"><ele>313.0</ele><time>2026-04-05T09:33:59.264Z</time></trkpt><trkpt lat="45.0539668" lon="7.9420648"><ele>313.0</ele><time>2026-04-05T09:34:01.264Z</time></trkpt><trkpt lat="45.0539138" lon="7.9421176"><ele>313.0</ele><time>2026-04-05T09:34:02.264Z</time></trkpt><trkpt lat="45.0538585" lon="7.9421741"><ele>313.0</ele><time>2026-04-05T09:34:03.264Z</time></trkpt><trkpt lat="45.0538082" lon="7.9422322"><ele>311.8333333333333</ele><time>2026-04-05T09:34:04.264Z</time></trkpt><trkpt lat="45.0537567" lon="7.9422902"><ele>310.66666666666663</ele><time>2026-04-05T09:34:05.264Z</time></trkpt><trkpt lat="45.0537039" lon="7.9423514"><ele>309.5</ele><time>2026-04-05T09:34:06.264Z</time></trkpt><trkpt lat="45.0536545" lon="7.9424156"><ele>308.3333333333333</ele><time>2026-04-05T09:34:07.264Z</time></trkpt><trkpt lat="45.0536049" lon="7.9424783"><ele>307.1666666666667</ele><time>2026-04-05T09:34:08.264Z</time></trkpt><trkpt lat="45.053511" lon="7.9425735"><ele>306.0</ele><time>2026-04-05T09:34:10.264Z</time></trkpt><trkpt lat="45.0534153" lon="7.9426188"><ele>305.40000000000003</ele><time>2026-04-05T09:34:12.264Z</time></trkpt><trkpt lat="45.0533352" lon="7.9426053"><ele>304.8</ele><time>2026-04-05T09:34:14.264Z</time></trkpt><trkpt lat="45.0531876" lon="7.9425485"><ele>304.20000000000005</ele><time>2026-04-05T09:34:18.264Z</time></trkpt><trkpt lat="45.0530884" lon="7.9425152"><ele>303.6</ele><time>2026-04-05T09:34:20.264Z</time></trkpt><trkpt lat="45.0529898" lon="7.9424977"><ele>303.0</ele><time>2026-04-05T09:34:22.264Z</time></trkpt><trkpt lat="45.0529202" lon="7.9424925"><ele>303.0</ele><time>2026-04-05T09:34:24.264Z</time></trkpt><trkpt lat="45.0528585" lon="7.942534"><ele>303.0</ele><time>2026-04-05T09:34:26.264Z</time></trkpt><trkpt lat="45.0527972" lon="7.9425646"><ele>303.0</ele><time>2026-04-05T09:34:28.264Z</time></trkpt><trkpt lat="45.0526988" lon="7.9425639"><ele>303.0</ele><time>2026-04-05T09:34:30.264Z</time></trkpt><trkpt lat="45.0525758" lon="7.9425348"><ele>303.0</ele><time>2026-04-05T09:34:32.264Z</time></trkpt><trkpt lat="45.0525062" lon="7.9425265"><ele>303.0</ele><time>2026-04-05T09:34:33.264Z</time></trkpt><trkpt lat="45.0524355" lon="7.9425187"><ele>301.6666666666667</ele><time>2026-04-05T09:34:34.264Z</time></trkpt><trkpt lat="45.0523152" lon="7.9425105"><ele>300.33333333333337</ele><time>2026-04-05T09:34:36.264Z</time></trkpt><trkpt lat="45.0520981" lon="7.9424759"><ele>299.0</ele><time>2026-04-05T09:34:40.264Z</time></trkpt><trkpt lat="45.0519745" lon="7.9424597"><ele>299.0</ele><time>2026-04-05T09:34:42.264Z</time></trkpt><trkpt lat="45.0518632" lon="7.9424405"><ele>299.0</ele><time>2026-04-05T09:34:44.264Z</time></trkpt><trkpt lat="45.0517518" lon="7.9424123"><ele>299.0</ele><time>2026-04-05T09:34:46.264Z</time></trkpt><trkpt lat="45.0516498" lon="7.94237"><ele>299.0</ele><time>2026-04-05T09:34:48.264Z</time></trkpt><trkpt lat="45.0515443" lon="7.942328"><ele>299.0</ele><time>2026-04-05T09:34:50.264Z</time></trkpt><trkpt lat="45.0514278" lon="7.9422973"><ele>299.75</ele><time>2026-04-05T09:34:52.264Z</time></trkpt><trkpt lat="45.0513175" lon="7.9422743"><ele>300.5</ele><time>2026-04-05T09:34:54.264Z</time></trkpt><trkpt lat="45.0512086" lon="7.9422513"><ele>301.25</ele><time>2026-04-05T09:34:56.264Z</time></trkpt><trkpt lat="45.0510832" lon="7.9422343"><ele>302.0</ele><time>2026-04-05T09:34:58.264Z</time></trkpt><trkpt lat="45.0509519" lon="7.942224"><ele>302.00000000000006</ele><time>2026-04-05T09:35:00.264Z</time></trkpt><trkpt lat="45.050884" lon="7.9422148"><ele>302.0</ele><time>2026-04-05T09:35:01.264Z</time></trkpt><trkpt lat="45.0508192" lon="7.9422031"><ele>302.0</ele><time>2026-04-05T09:35:02.264Z</time></trkpt><trkpt lat="45.0507488" lon="7.9421988"><ele>302.0</ele><time>2026-04-05T09:35:03.263Z</time></trkpt><trkpt lat="45.0506703" lon="7.9421991"><ele>302.0</ele><time>2026-04-05T09:35:04.264Z</time></trkpt><trkpt lat="45.0505927" lon="7.9422062"><ele>302.00000000000006</ele><time>2026-04-05T09:35:05.264Z</time></trkpt><trkpt lat="45.0505158" lon="7.9422093"><ele>302.0</ele><time>2026-04-05T09:35:06.264Z</time></trkpt><trkpt lat="45.0504404" lon="7.9422184"><ele>302.2</ele><time>2026-04-05T09:35:07.264Z</time></trkpt><trkpt lat="45.0503668" lon="7.9422263"><ele>302.4</ele><time>2026-04-05T09:35:08.264Z</time></trkpt><trkpt lat="45.0502991" lon="7.9422401"><ele>302.6</ele><time>2026-04-05T09:35:09.264Z</time></trkpt><trkpt lat="45.0501789" lon="7.9422516"><ele>302.8</ele><time>2026-04-05T09:35:11.264Z</time></trkpt><trkpt lat="45.050053" lon="7.9422824"><ele>303.0</ele><time>2026-04-05T09:35:13.264Z</time></trkpt><trkpt lat="45.0499878" lon="7.9423046"><ele>301.0</ele><time>2026-04-05T09:35:14.264Z</time></trkpt><trkpt lat="45.0499233" lon="7.9423243"><ele>299.0</ele><time>2026-04-05T09:35:15.264Z</time></trkpt><trkpt lat="45.0498603" lon="7.9423413"><ele>297.0</ele><time>2026-04-05T09:35:16.263Z</time></trkpt><trkpt lat="45.0497437" lon="7.9423375"><ele>295.0</ele><time>2026-04-05T09:35:18.264Z</time></trkpt><trkpt lat="45.0496573" lon="7.9422397"><ele>293.0</ele><time>2026-04-05T09:35:20.264Z</time></trkpt><trkpt lat="45.0496202" lon="7.942043"><ele>293.0</ele><time>2026-04-05T09:35:22.264Z</time></trkpt><trkpt lat="45.0496109" lon="7.9419404"><ele>293.0</ele><time>2026-04-05T09:35:23.264Z</time></trkpt><trkpt lat="45.0495983" lon="7.9418381"><ele>293.0</ele><time>2026-04-05T09:35:24.264Z</time></trkpt><trkpt lat="45.0495813" lon="7.9417246"><ele>293.0</ele><time>2026-04-05T09:35:25.264Z</time></trkpt><trkpt lat="45.0495603" lon="7.941614"><ele>293.0</ele><time>2026-04-05T09:35:26.264Z</time></trkpt><trkpt lat="45.0495372" lon="7.9415087"><ele>293.0</ele><time>2026-04-05T09:35:27.264Z</time></trkpt><trkpt lat="45.0495192" lon="7.941412"><ele>294.0</ele><time>2026-04-05T09:35:28.264Z</time></trkpt><trkpt lat="45.0495012" lon="7.9413129"><ele>295.0</ele><time>2026-04-05T09:35:29.264Z</time></trkpt><trkpt lat="45.0494875" lon="7.941221"><ele>296.0</ele><time>2026-04-05T09:35:30.264Z</time></trkpt><trkpt lat="45.0494743" lon="7.9410498"><ele>297.0</ele><time>2026-04-05T09:35:32.264Z</time></trkpt><trkpt lat="45.0494694" lon="7.9408885"><ele>298.0</ele><time>2026-04-05T09:35:34.264Z</time></trkpt><trkpt lat="45.049452" lon="7.9407313"><ele>299.75</ele><time>2026-04-05T09:35:36.264Z</time></trkpt><trkpt lat="45.049415" lon="7.9405732"><ele>301.5</ele><time>2026-04-05T09:35:38.264Z</time></trkpt><trkpt lat="45.0493518" lon="7.9404294"><ele>303.25</ele><time>2026-04-05T09:35:40.264Z</time></trkpt><trkpt lat="45.0492572" lon="7.9403477"><ele>305.0</ele><time>2026-04-05T09:35:42.264Z</time></trkpt><trkpt lat="45.0490515" lon="7.9403182"><ele>306.5</ele><time>2026-04-05T09:35:45.264Z</time></trkpt><trkpt lat="45.0489638" lon="7.9403204"><ele>308.0</ele><time>2026-04-05T09:35:46.264Z</time></trkpt><trkpt lat="45.0488812" lon="7.9403231"><ele>309.5</ele><time>2026-04-05T09:35:47.264Z</time></trkpt><trkpt lat="45.0488125" lon="7.9403211"><ele>311.0</ele><time>2026-04-05T09:35:48.264Z</time></trkpt><trkpt lat="45.0487318" lon="7.9403288"><ele>312.5</ele><time>2026-04-05T09:35:50.264Z</time></trkpt><trkpt lat="45.0486527" lon="7.9403715"><ele>314.0</ele><time>2026-04-05T09:36:14.264Z</time></trkpt><trkpt lat="45.048462" lon="7.9403958"><ele>314.0</ele><time>2026-04-05T09:36:18.264Z</time></trkpt><trkpt lat="45.0483634" lon="7.9403805"><ele>314.0</ele><time>2026-04-05T09:36:20.265Z</time></trkpt><trkpt lat="45.0482753" lon="7.9403596"><ele>314.0</ele><time>2026-04-05T09:36:22.265Z</time></trkpt><trkpt lat="45.0481723" lon="7.9403683"><ele>314.0</ele><time>2026-04-05T09:36:24.265Z</time></trkpt><trkpt lat="45.0480544" lon="7.9403136"><ele>314.0</ele><time>2026-04-05T09:36:26.265Z</time></trkpt><trkpt lat="45.0479959" lon="7.9402727"><ele>314.59999999999997</ele><time>2026-04-05T09:36:27.265Z</time></trkpt><trkpt lat="45.047935" lon="7.940228"><ele>315.2</ele><time>2026-04-05T09:36:28.265Z</time></trkpt><trkpt lat="45.0478229" lon="7.9401599"><ele>315.79999999999995</ele><time>2026-04-05T09:36:30.265Z</time></trkpt><trkpt lat="45.0477594" lon="7.9401497"><ele>316.4</ele><time>2026-04-05T09:36:31.265Z</time></trkpt><trkpt lat="45.0476345" lon="7.9401463"><ele>317.0</ele><time>2026-04-05T09:36:33.265Z</time></trkpt><trkpt lat="45.0475244" lon="7.9401658"><ele>319.25</ele><time>2026-04-05T09:36:35.265Z</time></trkpt><trkpt lat="45.0473173" lon="7.9402078"><ele>321.5</ele><time>2026-04-05T09:36:39.265Z</time></trkpt><trkpt lat="45.047217" lon="7.9402713"><ele>323.75</ele><time>2026-04-05T09:36:41.265Z</time></trkpt><trkpt lat="45.047121" lon="7.9403092"><ele>326.0</ele><time>2026-04-05T09:36:43.265Z</time></trkpt><trkpt lat="45.0470117" lon="7.9403665"><ele>326.0</ele><time>2026-04-05T09:36:45.265Z</time></trkpt><trkpt lat="45.0468941" lon="7.9404324"><ele>326.0</ele><time>2026-04-05T09:36:47.265Z</time></trkpt><trkpt lat="45.0468353" lon="7.94047"><ele>326.0</ele><time>2026-04-05T09:36:48.265Z</time></trkpt><trkpt lat="45.0467729" lon="7.940509"><ele>326.0</ele><time>2026-04-05T09:36:49.265Z</time></trkpt><trkpt lat="45.0467082" lon="7.940533"><ele>326.0</ele><time>2026-04-05T09:36:50.265Z</time></trkpt><trkpt lat="45.0466376" lon="7.9405495"><ele>326.0</ele><time>2026-04-05T09:36:51.265Z</time></trkpt><trkpt lat="45.0465607" lon="7.9405418"><ele>327.6</ele><time>2026-04-05T09:36:52.265Z</time></trkpt><trkpt lat="45.0464752" lon="7.9405265"><ele>329.20000000000005</ele><time>2026-04-05T09:36:53.265Z</time></trkpt><trkpt lat="45.0463828" lon="7.9405055"><ele>330.79999999999995</ele><time>2026-04-05T09:36:54.265Z</time></trkpt><trkpt lat="45.0462976" lon="7.9404885"><ele>332.4</ele><time>2026-04-05T09:36:55.265Z</time></trkpt><trkpt lat="45.0462335" lon="7.9404739"><ele>334.0</ele><time>2026-04-05T09:36:56.265Z</time></trkpt><trkpt lat="45.0460632" lon="7.9403621"><ele>334.0</ele><time>2026-04-05T09:37:00.265Z</time></trkpt><trkpt lat="45.0459752" lon="7.940295"><ele>334.0</ele><time>2026-04-05T09:37:02.265Z</time></trkpt><trkpt lat="45.0458899" lon="7.94021"><ele>334.0</ele><time>2026-04-05T09:37:04.265Z</time></trkpt><trkpt lat="45.0458303" lon="7.9401681"><ele>334.0</ele><time>2026-04-05T09:37:05.265Z</time></trkpt><trkpt lat="45.0457594" lon="7.9401345"><ele>334.0</ele><time>2026-04-05T09:37:06.265Z</time></trkpt><trkpt lat="45.0456946" lon="7.9400913"><ele>334.0</ele><time>2026-04-05T09:37:07.264Z</time></trkpt><trkpt lat="45.0456357" lon="7.9400572"><ele>333.57142857142856</ele><time>2026-04-05T09:37:08.265Z</time></trkpt><trkpt lat="45.0455734" lon="7.9400388"><ele>333.14285714285717</ele><time>2026-04-05T09:37:09.265Z</time></trkpt><trkpt lat="45.0455108" lon="7.9400261"><ele>332.7142857142857</ele><time>2026-04-05T09:37:10.265Z</time></trkpt><trkpt lat="45.0454417" lon="7.9400107"><ele>332.2857142857143</ele><time>2026-04-05T09:37:11.265Z</time></trkpt><trkpt lat="45.0453712" lon="7.9399969"><ele>331.85714285714283</ele><time>2026-04-05T09:37:12.265Z</time></trkpt><trkpt lat="45.0452999" lon="7.939986"><ele>331.42857142857144</ele><time>2026-04-05T09:37:13.265Z</time></trkpt><trkpt lat="45.0452308" lon="7.939972"><ele>331.0</ele><time>2026-04-05T09:37:14.265Z</time></trkpt><trkpt lat="45.0451153" lon="7.9399452"><ele>331.0</ele><time>2026-04-05T09:37:16.265Z</time></trkpt><trkpt lat="45.0450243" lon="7.9399282"><ele>331.0</ele><time>2026-04-05T09:37:18.265Z</time></trkpt><trkpt lat="45.0448556" lon="7.9398583"><ele>331.0</ele><time>2026-04-05T09:37:22.265Z</time></trkpt><trkpt lat="45.0447665" lon="7.939831"><ele>331.0</ele><time>2026-04-05T09:37:24.265Z</time></trkpt><trkpt lat="45.0446615" lon="7.9398053"><ele>329.8</ele><time>2026-04-05T09:37:26.265Z</time></trkpt><trkpt lat="45.0445542" lon="7.9397799"><ele>328.6</ele><time>2026-04-05T09:37:28.265Z</time></trkpt><trkpt lat="45.0444483" lon="7.9397361"><ele>327.4</ele><time>2026-04-05T09:37:30.265Z</time></trkpt><trkpt lat="45.0443648" lon="7.9397022"><ele>326.2</ele><time>2026-04-05T09:37:32.265Z</time></trkpt><trkpt lat="45.0442743" lon="7.9396556"><ele>325.0</ele><time>2026-04-05T09:37:45.265Z</time></trkpt><trkpt lat="45.0441363" lon="7.9396175"><ele>323.8333333333333</ele><time>2026-04-05T09:37:52.265Z</time></trkpt><trkpt lat="45.0440481" lon="7.9395816"><ele>322.66666666666663</ele><time>2026-04-05T09:37:55.265Z</time></trkpt><trkpt lat="45.0439864" lon="7.9395532"><ele>321.5</ele><time>2026-04-05T09:37:57.265Z</time></trkpt><trkpt lat="45.0438971" lon="7.9395331"><ele>320.3333333333333</ele><time>2026-04-05T09:37:59.265Z</time></trkpt><trkpt lat="45.0437969" lon="7.9395152"><ele>319.1666666666667</ele><time>2026-04-05T09:38:01.265Z</time></trkpt><trkpt lat="45.0437361" lon="7.9394881"><ele>318.0</ele><time>2026-04-05T09:38:02.265Z</time></trkpt><trkpt lat="45.0436708" lon="7.9394586"><ele>318.0</ele><time>2026-04-05T09:38:03.265Z</time></trkpt><trkpt lat="45.0436047" lon="7.9394312"><ele>318.0</ele><time>2026-04-05T09:38:04.265Z</time></trkpt><trkpt lat="45.0435436" lon="7.9394066"><ele>318.0</ele><time>2026-04-05T09:38:05.265Z</time></trkpt><trkpt lat="45.0434612" lon="7.9393551"><ele>318.0</ele><time>2026-04-05T09:38:07.265Z</time></trkpt><trkpt lat="45.0433516" lon="7.9392178"><ele>318.0</ele><time>2026-04-05T09:38:11.265Z</time></trkpt><trkpt lat="45.0432837" lon="7.9392136"><ele>318.0</ele><time>2026-04-05T09:38:14.265Z</time></trkpt><trkpt lat="45.0431597" lon="7.9392424"><ele>316.8333333333333</ele><time>2026-04-05T09:38:20.265Z</time></trkpt><trkpt lat="45.0430868" lon="7.9392564"><ele>315.6666666666667</ele><time>2026-04-05T09:38:21.265Z</time></trkpt><trkpt lat="45.043011" lon="7.9392734"><ele>314.5</ele><time>2026-04-05T09:38:22.265Z</time></trkpt><trkpt lat="45.0429319" lon="7.9392826"><ele>313.33333333333337</ele><time>2026-04-05T09:38:23.265Z</time></trkpt><trkpt lat="45.0428425" lon="7.9393004"><ele>312.1666666666667</ele><time>2026-04-05T09:38:24.265Z</time></trkpt><trkpt lat="45.0427542" lon="7.9393311"><ele>311.0</ele><time>2026-04-05T09:38:25.265Z</time></trkpt><trkpt lat="45.0426768" lon="7.9393762"><ele>311.0</ele><time>2026-04-05T09:38:26.265Z</time></trkpt><trkpt lat="45.0425941" lon="7.9394297"><ele>311.0</ele><time>2026-04-05T09:38:27.265Z</time></trkpt><trkpt lat="45.0425203" lon="7.9394796"><ele>311.0</ele><time>2026-04-05T09:38:28.265Z</time></trkpt><trkpt lat="45.0423964" lon="7.9395398"><ele>311.0</ele><time>2026-04-05T09:38:30.265Z</time></trkpt><trkpt lat="45.04228" lon="7.9395728"><ele>311.0</ele><time>2026-04-05T09:38:32.265Z</time></trkpt><trkpt lat="45.0421828" lon="7.9395759"><ele>310.4285714285714</ele><time>2026-04-05T09:38:34.265Z</time></trkpt><trkpt lat="45.042118" lon="7.9395846"><ele>309.8571428571429</ele><time>2026-04-05T09:38:35.265Z</time></trkpt><trkpt lat="45.0420426" lon="7.9396024"><ele>309.2857142857143</ele><time>2026-04-05T09:38:36.265Z</time></trkpt><trkpt lat="45.0419644" lon="7.9396224"><ele>308.71428571428567</ele><time>2026-04-05T09:38:37.265Z</time></trkpt><trkpt lat="45.0418886" lon="7.9396371"><ele>308.1428571428571</ele><time>2026-04-05T09:38:38.265Z</time></trkpt><trkpt lat="45.0418208" lon="7.9396448"><ele>307.57142857142856</ele><time>2026-04-05T09:38:39.265Z</time></trkpt><trkpt lat="45.0417574" lon="7.939646"><ele>307.0</ele><time>2026-04-05T09:38:40.265Z</time></trkpt><trkpt lat="45.0416321" lon="7.9396227"><ele>306.0</ele><time>2026-04-05T09:38:42.265Z</time></trkpt><trkpt lat="45.0415645" lon="7.9396165"><ele>305.0</ele><time>2026-04-05T09:38:43.265Z</time></trkpt><trkpt lat="45.0414941" lon="7.9396109"><ele>304.0</ele><time>2026-04-05T09:38:44.265Z</time></trkpt><trkpt lat="45.041376" lon="7.9395957"><ele>303.0</ele><time>2026-04-05T09:38:46.265Z</time></trkpt><trkpt lat="45.041251" lon="7.9395829"><ele>302.0</ele><time>2026-04-05T09:38:48.265Z</time></trkpt><trkpt lat="45.0411882" lon="7.9395667"><ele>301.0</ele><time>2026-04-05T09:38:49.265Z</time></trkpt><trkpt lat="45.0410626" lon="7.9395332"><ele>301.0</ele><time>2026-04-05T09:38:51.265Z</time></trkpt><trkpt lat="45.0409377" lon="7.9394783"><ele>301.0</ele><time>2026-04-05T09:38:53.265Z</time></trkpt><trkpt lat="45.040877" lon="7.9394228"><ele>301.0</ele><time>2026-04-05T09:38:54.265Z</time></trkpt><trkpt lat="45.0408184" lon="7.9393652"><ele>301.0</ele><time>2026-04-05T09:38:55.265Z</time></trkpt><trkpt lat="45.0407609" lon="7.9393065"><ele>301.0</ele><time>2026-04-05T09:38:56.265Z</time></trkpt><trkpt lat="45.0406974" lon="7.9392477"><ele>301.0</ele><time>2026-04-05T09:38:57.265Z</time></trkpt><trkpt lat="45.0406303" lon="7.9392015"><ele>302.42857142857144</ele><time>2026-04-05T09:38:58.265Z</time></trkpt><trkpt lat="45.040571" lon="7.939158"><ele>303.8571428571429</ele><time>2026-04-05T09:38:59.265Z</time></trkpt><trkpt lat="45.0405038" lon="7.9391211"><ele>305.2857142857143</ele><time>2026-04-05T09:39:00.265Z</time></trkpt><trkpt lat="45.0404356" lon="7.9390892"><ele>306.7142857142857</ele><time>2026-04-05T09:39:01.265Z</time></trkpt><trkpt lat="45.0403658" lon="7.939068"><ele>308.14285714285717</ele><time>2026-04-05T09:39:02.265Z</time></trkpt><trkpt lat="45.0403006" lon="7.9390367"><ele>309.57142857142856</ele><time>2026-04-05T09:39:03.265Z</time></trkpt><trkpt lat="45.040238" lon="7.9390025"><ele>311.0</ele><time>2026-04-05T09:39:04.265Z</time></trkpt><trkpt lat="45.0401757" lon="7.9389732"><ele>311.0</ele><time>2026-04-05T09:39:05.265Z</time></trkpt><trkpt lat="45.0400785" lon="7.9389425"><ele>311.0</ele><time>2026-04-05T09:39:07.265Z</time></trkpt><trkpt lat="45.0400003" lon="7.9389641"><ele>311.0</ele><time>2026-04-05T09:39:09.265Z</time></trkpt><trkpt lat="45.0399465" lon="7.9390384"><ele>311.0</ele><time>2026-04-05T09:39:11.265Z</time></trkpt><trkpt lat="45.0399175" lon="7.9392853"><ele>311.0</ele><time>2026-04-05T09:39:14.265Z</time></trkpt><trkpt lat="45.0398979" lon="7.9393865"><ele>311.5</ele><time>2026-04-05T09:39:15.265Z</time></trkpt><trkpt lat="45.0398738" lon="7.9394786"><ele>312.0</ele><time>2026-04-05T09:39:16.265Z</time></trkpt><trkpt lat="45.0398153" lon="7.9396015"><ele>312.5</ele><time>2026-04-05T09:39:18.265Z</time></trkpt><trkpt lat="45.039754" lon="7.939632"><ele>313.0</ele><time>2026-04-05T09:39:19.265Z</time></trkpt><trkpt lat="45.0396629" lon="7.9396384"><ele>313.5</ele><time>2026-04-05T09:39:20.265Z</time></trkpt><trkpt lat="45.0395549" lon="7.9396309"><ele>314.0</ele><time>2026-04-05T09:39:21.265Z</time></trkpt><trkpt lat="45.0394445" lon="7.9396207"><ele>314.0</ele><time>2026-04-05T09:39:22.265Z</time></trkpt><trkpt lat="45.0393475" lon="7.9396023"><ele>314.0</ele><time>2026-04-05T09:39:23.265Z</time></trkpt><trkpt lat="45.039261" lon="7.9395953"><ele>314.0</ele><time>2026-04-05T09:39:24.265Z</time></trkpt><trkpt lat="45.0391695" lon="7.939589"><ele>314.0</ele><time>2026-04-05T09:39:26.265Z</time></trkpt><trkpt lat="45.0391042" lon="7.9395959"><ele>314.0</ele><time>2026-04-05T09:39:29.265Z</time></trkpt><trkpt lat="45.0390609" lon="7.9396646"><ele>314.0</ele><time>2026-04-05T09:39:31.265Z</time></trkpt><trkpt lat="45.0390585" lon="7.9398455"><ele>315.25</ele><time>2026-04-05T09:39:33.265Z</time></trkpt><trkpt lat="45.0390486" lon="7.9400913"><ele>316.5</ele><time>2026-04-05T09:39:35.264Z</time></trkpt><trkpt lat="45.0390465" lon="7.9402413"><ele>317.75</ele><time>2026-04-05T09:39:36.265Z</time></trkpt><trkpt lat="45.0390365" lon="7.9404077"><ele>319.0</ele><time>2026-04-05T09:39:37.265Z</time></trkpt><trkpt lat="45.0390213" lon="7.9406026"><ele>319.0</ele><time>2026-04-05T09:39:38.265Z</time></trkpt><trkpt lat="45.0390028" lon="7.9408202"><ele>319.0</ele><time>2026-04-05T09:39:39.264Z</time></trkpt><trkpt lat="45.0389863" lon="7.94105"><ele>319.0</ele><time>2026-04-05T09:39:40.265Z</time></trkpt><trkpt lat="45.0389731" lon="7.9412822"><ele>319.25</ele><time>2026-04-05T09:39:41.265Z</time></trkpt><trkpt lat="45.0389627" lon="7.9414941"><ele>319.5</ele><time>2026-04-05T09:39:42.265Z</time></trkpt><trkpt lat="45.0389577" lon="7.9416881"><ele>319.75</ele><time>2026-04-05T09:39:43.265Z</time></trkpt><trkpt lat="45.0389721" lon="7.9418739"><ele>320.0</ele><time>2026-04-05T09:39:44.265Z</time></trkpt><trkpt lat="45.0390101" lon="7.9420242"><ele>319.4</ele><time>2026-04-05T09:39:45.265Z</time></trkpt><trkpt lat="45.0390524" lon="7.9421474"><ele>318.8</ele><time>2026-04-05T09:39:46.265Z</time></trkpt><trkpt lat="45.0390957" lon="7.942257"><ele>318.2</ele><time>2026-04-05T09:39:47.265Z</time></trkpt><trkpt lat="45.0391263" lon="7.9423772"><ele>317.6</ele><time>2026-04-05T09:39:48.265Z</time></trkpt><trkpt lat="45.0391494" lon="7.9425026"><ele>317.0</ele><time>2026-04-05T09:39:49.265Z</time></trkpt><trkpt lat="45.0391528" lon="7.9426262"><ele>316.8</ele><time>2026-04-05T09:39:50.265Z</time></trkpt><trkpt lat="45.0391324" lon="7.942744"><ele>316.6</ele><time>2026-04-05T09:39:51.265Z</time></trkpt><trkpt lat="45.0391135" lon="7.9428736"><ele>316.40000000000003</ele><time>2026-04-05T09:39:52.265Z</time></trkpt><trkpt lat="45.0390975" lon="7.9430123"><ele>316.2</ele><time>2026-04-05T09:39:53.265Z</time></trkpt><trkpt lat="45.039085" lon="7.943146"><ele>316.0</ele><time>2026-04-05T09:39:54.265Z</time></trkpt><trkpt lat="45.0390992" lon="7.9434139"><ele>316.00000000000006</ele><time>2026-04-05T09:39:56.265Z</time></trkpt><trkpt lat="45.0391184" lon="7.9435265"><ele>316.0</ele><time>2026-04-05T09:39:57.265Z</time></trkpt><trkpt lat="45.0391335" lon="7.9436302"><ele>316.0</ele><time>2026-04-05T09:39:58.265Z</time></trkpt><trkpt lat="45.0391538" lon="7.9437303"><ele>316.0</ele><time>2026-04-05T09:39:59.265Z</time></trkpt><trkpt lat="45.0391761" lon="7.943824"><ele>316.0</ele><time>2026-04-05T09:40:00.265Z</time></trkpt><trkpt lat="45.0391993" lon="7.9439192"><ele>316.00000000000006</ele><time>2026-04-05T09:40:01.265Z</time></trkpt><trkpt lat="45.039225" lon="7.9440124"><ele>316.0</ele><time>2026-04-05T09:40:02.265Z</time></trkpt><trkpt lat="45.039246" lon="7.9441108"><ele>317.0</ele><time>2026-04-05T09:40:03.265Z</time></trkpt><trkpt lat="45.0392615" lon="7.9442224"><ele>318.0</ele><time>2026-04-05T09:40:04.265Z</time></trkpt><trkpt lat="45.0392758" lon="7.9443381"><ele>319.0</ele><time>2026-04-05T09:40:05.265Z</time></trkpt><trkpt lat="45.0392864" lon="7.9444556"><ele>320.0</ele><time>2026-04-05T09:40:06.265Z</time></trkpt><trkpt lat="45.0392905" lon="7.9445779"><ele>321.0</ele><time>2026-04-05T09:40:07.265Z</time></trkpt><trkpt lat="45.0392927" lon="7.9447053"><ele>322.0</ele><time>2026-04-05T09:40:08.265Z</time></trkpt><trkpt lat="45.0392963" lon="7.9448349"><ele>322.0</ele><time>2026-04-05T09:40:09.265Z</time></trkpt><trkpt lat="45.0392982" lon="7.9449525"><ele>322.0</ele><time>2026-04-05T09:40:10.265Z</time></trkpt><trkpt lat="45.0392986" lon="7.9450507"><ele>322.0</ele><time>2026-04-05T09:40:11.265Z</time></trkpt><trkpt lat="45.0392814" lon="7.9451798"><ele>322.0</ele><time>2026-04-05T09:40:13.265Z</time></trkpt><trkpt lat="45.039202" lon="7.9452018"><ele>322.0</ele><time>2026-04-05T09:40:15.265Z</time></trkpt><trkpt lat="45.0389848" lon="7.9451609"><ele>323.40000000000003</ele><time>2026-04-05T09:40:18.265Z</time></trkpt><trkpt lat="45.0388973" lon="7.9451371"><ele>324.8</ele><time>2026-04-05T09:40:19.265Z</time></trkpt><trkpt lat="45.0388042" lon="7.9451225"><ele>326.2</ele><time>2026-04-05T09:40:20.265Z</time></trkpt><trkpt lat="45.0387165" lon="7.945106"><ele>327.6</ele><time>2026-04-05T09:40:21.265Z</time></trkpt><trkpt lat="45.0386397" lon="7.9451038"><ele>329.0</ele><time>2026-04-05T09:40:22.265Z</time></trkpt><trkpt lat="45.0385193" lon="7.9451416"><ele>329.0</ele><time>2026-04-05T09:40:24.265Z</time></trkpt><trkpt lat="45.0384177" lon="7.9451984"><ele>329.0</ele><time>2026-04-05T09:40:26.265Z</time></trkpt><trkpt lat="45.0383315" lon="7.9452626"><ele>329.0</ele><time>2026-04-05T09:40:28.265Z</time></trkpt><trkpt lat="45.0382338" lon="7.9453425"><ele>329.0</ele><time>2026-04-05T09:40:30.265Z</time></trkpt><trkpt lat="45.0381391" lon="7.9454591"><ele>329.0</ele><time>2026-04-05T09:40:32.264Z</time></trkpt><trkpt lat="45.038093" lon="7.9455316"><ele>327.83333333333337</ele><time>2026-04-05T09:40:33.265Z</time></trkpt><trkpt lat="45.0380445" lon="7.9456099"><ele>326.6666666666667</ele><time>2026-04-05T09:40:34.265Z</time></trkpt><trkpt lat="45.0380003" lon="7.945698"><ele>325.5</ele><time>2026-04-05T09:40:35.265Z</time></trkpt><trkpt lat="45.0379623" lon="7.9457888"><ele>324.3333333333333</ele><time>2026-04-05T09:40:36.265Z</time></trkpt><trkpt lat="45.0379112" lon="7.9459802"><ele>323.16666666666663</ele><time>2026-04-05T09:40:38.265Z</time></trkpt><trkpt lat="45.0379071" lon="7.9460844"><ele>322.0</ele><time>2026-04-05T09:40:39.265Z</time></trkpt><trkpt lat="45.0379012" lon="7.9462023"><ele>321.3333333333333</ele><time>2026-04-05T09:40:40.265Z</time></trkpt><trkpt lat="45.0378969" lon="7.9463211"><ele>320.66666666666663</ele><time>2026-04-05T09:40:41.265Z</time></trkpt><trkpt lat="45.0378831" lon="7.9464387"><ele>320.0</ele><time>2026-04-05T09:40:42.265Z</time></trkpt><trkpt lat="45.0378562" lon="7.9465451"><ele>319.3333333333333</ele><time>2026-04-05T09:40:43.265Z</time></trkpt><trkpt lat="45.0378086" lon="7.9466302"><ele>318.6666666666667</ele><time>2026-04-05T09:40:44.265Z</time></trkpt><trkpt lat="45.0377488" lon="7.9467021"><ele>318.0</ele><time>2026-04-05T09:40:45.265Z</time></trkpt><trkpt lat="45.0376634" lon="7.9467619"><ele>316.0</ele><time>2026-04-05T09:40:46.265Z</time></trkpt><trkpt lat="45.0375496" lon="7.9467978"><ele>314.0</ele><time>2026-04-05T09:40:47.264Z</time></trkpt><trkpt lat="45.0374196" lon="7.9468169"><ele>312.0</ele><time>2026-04-05T09:40:48.265Z</time></trkpt><trkpt lat="45.0372732" lon="7.9468208"><ele>310.0</ele><time>2026-04-05T09:40:49.265Z</time></trkpt><trkpt lat="45.0371219" lon="7.9468168"><ele>309.75</ele><time>2026-04-05T09:40:50.265Z</time></trkpt><trkpt lat="45.0369759" lon="7.9468124"><ele>309.5</ele><time>2026-04-05T09:40:51.265Z</time></trkpt><trkpt lat="45.0368453" lon="7.9468046"><ele>309.25</ele><time>2026-04-05T09:40:52.265Z</time></trkpt><trkpt lat="45.0367342" lon="7.9467941"><ele>309.0</ele><time>2026-04-05T09:40:53.265Z</time></trkpt><trkpt lat="45.0366397" lon="7.9467824"><ele>309.0</ele><time>2026-04-05T09:40:54.265Z</time></trkpt><trkpt lat="45.0365587" lon="7.9467703"><ele>309.0</ele><time>2026-04-05T09:40:55.265Z</time></trkpt><trkpt lat="45.0364852" lon="7.946766"><ele>309.0</ele><time>2026-04-05T09:40:56.265Z</time></trkpt><trkpt lat="45.0364104" lon="7.9467687"><ele>309.0</ele><time>2026-04-05T09:40:57.265Z</time></trkpt><trkpt lat="45.0362518" lon="7.9468379"><ele>309.0</ele><time>2026-04-05T09:40:59.265Z</time></trkpt><trkpt lat="45.0361743" lon="7.9468737"><ele>309.0</ele><time>2026-04-05T09:41:00.265Z</time></trkpt><trkpt lat="45.0360989" lon="7.9469312"><ele>309.0</ele><time>2026-04-05T09:41:01.265Z</time></trkpt><trkpt lat="45.0360288" lon="7.9470147"><ele>309.0</ele><time>2026-04-05T09:41:02.265Z</time></trkpt><trkpt lat="45.0359707" lon="7.947111"><ele>309.0</ele><time>2026-04-05T09:41:03.265Z</time></trkpt><trkpt lat="45.0359261" lon="7.9472072"><ele>309.0</ele><time>2026-04-05T09:41:04.265Z</time></trkpt><trkpt lat="45.0358911" lon="7.9473007"><ele>309.0</ele><time>2026-04-05T09:41:05.265Z</time></trkpt><trkpt lat="45.0358617" lon="7.9473841"><ele>309.0</ele><time>2026-04-05T09:41:06.265Z</time></trkpt><trkpt lat="45.035836" lon="7.9474724"><ele>309.0</ele><time>2026-04-05T09:41:07.265Z</time></trkpt><trkpt lat="45.0357967" lon="7.9476223"><ele>309.0</ele><time>2026-04-05T09:41:09.265Z</time></trkpt><trkpt lat="45.0357668" lon="7.9477332"><ele>309.0</ele><time>2026-04-05T09:41:11.265Z</time></trkpt><trkpt lat="45.0357101" lon="7.9478486"><ele>309.0</ele><time>2026-04-05T09:41:13.265Z</time></trkpt><trkpt lat="45.0356356" lon="7.947993"><ele>308.2</ele><time>2026-04-05T09:41:15.265Z</time></trkpt><trkpt lat="45.0355896" lon="7.9480674"><ele>307.4</ele><time>2026-04-05T09:41:16.265Z</time></trkpt><trkpt lat="45.0355446" lon="7.9481346"><ele>306.6</ele><time>2026-04-05T09:41:17.265Z</time></trkpt><trkpt lat="45.0354603" lon="7.9482522"><ele>305.8</ele><time>2026-04-05T09:41:19.265Z</time></trkpt><trkpt lat="45.0353523" lon="7.9484689"><ele>305.0</ele><time>2026-04-05T09:41:22.265Z</time></trkpt><trkpt lat="45.0353235" lon="7.9485638"><ele>305.0</ele><time>2026-04-05T09:41:23.265Z</time></trkpt><trkpt lat="45.0352977" lon="7.9486656"><ele>305.0</ele><time>2026-04-05T09:41:24.265Z</time></trkpt><trkpt lat="45.0352741" lon="7.9487732"><ele>305.0</ele><time>2026-04-05T09:41:25.265Z</time></trkpt><trkpt lat="45.0352625" lon="7.948869"><ele>305.0</ele><time>2026-04-05T09:41:26.265Z</time></trkpt><trkpt lat="45.0352659" lon="7.9490177"><ele>305.0</ele><time>2026-04-05T09:41:28.265Z</time></trkpt><trkpt lat="45.0352855" lon="7.9491053"><ele>305.0</ele><time>2026-04-05T09:41:32.265Z</time></trkpt><trkpt lat="45.0352992" lon="7.9492427"><ele>304.4</ele><time>2026-04-05T09:41:35.265Z</time></trkpt><trkpt lat="45.0353612" lon="7.9494102"><ele>303.8</ele><time>2026-04-05T09:41:37.265Z</time></trkpt><trkpt lat="45.0354117" lon="7.9495273"><ele>303.2</ele><time>2026-04-05T09:41:38.265Z</time></trkpt><trkpt lat="45.0354697" lon="7.9496571"><ele>302.6</ele><time>2026-04-05T09:41:39.265Z</time></trkpt><trkpt lat="45.035527" lon="7.9497822"><ele>302.0</ele><time>2026-04-05T09:41:40.265Z</time></trkpt><trkpt lat="45.0356192" lon="7.9500323"><ele>300.83333333333337</ele><time>2026-04-05T09:41:42.265Z</time></trkpt><trkpt lat="45.0356492" lon="7.9501584"><ele>299.6666666666667</ele><time>2026-04-05T09:41:43.265Z</time></trkpt><trkpt lat="45.0356706" lon="7.9502744"><ele>298.5</ele><time>2026-04-05T09:41:44.265Z</time></trkpt><trkpt lat="45.0356808" lon="7.950383"><ele>297.3333333333333</ele><time>2026-04-05T09:41:45.265Z</time></trkpt><trkpt lat="45.0356871" lon="7.9504905"><ele>296.16666666666663</ele><time>2026-04-05T09:41:46.265Z</time></trkpt><trkpt lat="45.0356937" lon="7.9506033"><ele>295.0</ele><time>2026-04-05T09:41:47.265Z</time></trkpt><trkpt lat="45.0357033" lon="7.9507121"><ele>295.0</ele><time>2026-04-05T09:41:48.265Z</time></trkpt><trkpt lat="45.0357128" lon="7.9508096"><ele>295.0</ele><time>2026-04-05T09:41:49.264Z</time></trkpt><trkpt lat="45.0357144" lon="7.9509668"><ele>295.0</ele><time>2026-04-05T09:41:51.265Z</time></trkpt><trkpt lat="45.0356874" lon="7.9511137"><ele>295.0</ele><time>2026-04-05T09:41:53.265Z</time></trkpt><trkpt lat="45.0356084" lon="7.951263"><ele>295.0</ele><time>2026-04-05T09:41:55.265Z</time></trkpt><trkpt lat="45.0355512" lon="7.9513385"><ele>294.4</ele><time>2026-04-05T09:41:56.265Z</time></trkpt><trkpt lat="45.0354956" lon="7.951409"><ele>293.8</ele><time>2026-04-05T09:41:57.265Z</time></trkpt><trkpt lat="45.0354461" lon="7.9514717"><ele>293.2</ele><time>2026-04-05T09:41:58.265Z</time></trkpt><trkpt lat="45.0353486" lon="7.9515501"><ele>292.6</ele><time>2026-04-05T09:42:00.265Z</time></trkpt><trkpt lat="45.0352348" lon="7.9516192"><ele>292.0</ele><time>2026-04-05T09:42:02.265Z</time></trkpt><trkpt lat="45.035112" lon="7.951762"><ele>292.0</ele><time>2026-04-05T09:42:04.265Z</time></trkpt><trkpt lat="45.0350545" lon="7.9518431"><ele>292.0</ele><time>2026-04-05T09:42:05.265Z</time></trkpt><trkpt lat="45.0349972" lon="7.951931"><ele>292.0</ele><time>2026-04-05T09:42:06.265Z</time></trkpt><trkpt lat="45.0349286" lon="7.9520189"><ele>292.0</ele><time>2026-04-05T09:42:07.265Z</time></trkpt><trkpt lat="45.0348557" lon="7.9521004"><ele>292.0</ele><time>2026-04-05T09:42:08.265Z</time></trkpt><trkpt lat="45.0347784" lon="7.9521865"><ele>292.0</ele><time>2026-04-05T09:42:09.265Z</time></trkpt><trkpt lat="45.0347" lon="7.9522779"><ele>290.16666666666663</ele><time>2026-04-05T09:42:10.265Z</time></trkpt><trkpt lat="45.0346313" lon="7.9523687"><ele>288.3333333333333</ele><time>2026-04-05T09:42:11.265Z</time></trkpt><trkpt lat="45.0345712" lon="7.9524423"><ele>286.5</ele><time>2026-04-05T09:42:12.265Z</time></trkpt><trkpt lat="45.0345134" lon="7.9525059"><ele>284.6666666666667</ele><time>2026-04-05T09:42:13.265Z</time></trkpt><trkpt lat="45.0344609" lon="7.9525673"><ele>282.83333333333337</ele><time>2026-04-05T09:42:14.265Z</time></trkpt><trkpt lat="45.0343538" lon="7.9526776"><ele>281.0</ele><time>2026-04-05T09:42:16.265Z</time></trkpt><trkpt lat="45.0342992" lon="7.9527236"><ele>280.2</ele><time>2026-04-05T09:42:17.265Z</time></trkpt><trkpt lat="45.0342415" lon="7.952769"><ele>279.40000000000003</ele><time>2026-04-05T09:42:18.265Z</time></trkpt><trkpt lat="45.0341302" lon="7.9528424"><ele>278.6</ele><time>2026-04-05T09:42:20.265Z</time></trkpt><trkpt lat="45.0340289" lon="7.9528978"><ele>277.8</ele><time>2026-04-05T09:42:22.265Z</time></trkpt><trkpt lat="45.0339287" lon="7.9529692"><ele>277.0</ele><time>2026-04-05T09:42:24.265Z</time></trkpt><trkpt lat="45.0338273" lon="7.9531083"><ele>277.16666666666663</ele><time>2026-04-05T09:42:26.265Z</time></trkpt><trkpt lat="45.0337791" lon="7.9531818"><ele>277.3333333333333</ele><time>2026-04-05T09:42:27.265Z</time></trkpt><trkpt lat="45.0337321" lon="7.9532643"><ele>277.5</ele><time>2026-04-05T09:42:28.265Z</time></trkpt><trkpt lat="45.0336766" lon="7.9533578"><ele>277.6666666666667</ele><time>2026-04-05T09:42:29.265Z</time></trkpt><trkpt lat="45.0336215" lon="7.9534573"><ele>277.83333333333337</ele><time>2026-04-05T09:42:30.265Z</time></trkpt><trkpt lat="45.0335691" lon="7.9535501"><ele>278.0</ele><time>2026-04-05T09:42:31.265Z</time></trkpt><trkpt lat="45.0335181" lon="7.9536334"><ele>278.0</ele><time>2026-04-05T09:42:32.265Z</time></trkpt><trkpt lat="45.0334721" lon="7.9537073"><ele>278.0</ele><time>2026-04-05T09:42:33.265Z</time></trkpt><trkpt lat="45.0334202" lon="7.9537735"><ele>278.0</ele><time>2026-04-05T09:42:34.265Z</time></trkpt><trkpt lat="45.0333672" lon="7.9538268"><ele>278.0</ele><time>2026-04-05T09:42:35.265Z</time></trkpt><trkpt lat="45.0332706" lon="7.9539252"><ele>278.0</ele><time>2026-04-05T09:42:37.265Z</time></trkpt><trkpt lat="45.0331651" lon="7.9540378"><ele>277.0</ele><time>2026-04-05T09:42:39.265Z</time></trkpt><trkpt lat="45.0330998" lon="7.9541114"><ele>276.0</ele><time>2026-04-05T09:42:40.265Z</time></trkpt><trkpt lat="45.0330292" lon="7.9541921"><ele>275.0</ele><time>2026-04-05T09:42:41.265Z</time></trkpt><trkpt lat="45.0329539" lon="7.9542756"><ele>274.0</ele><time>2026-04-05T09:42:42.265Z</time></trkpt><trkpt lat="45.0328827" lon="7.9543547"><ele>273.0</ele><time>2026-04-05T09:42:43.265Z</time></trkpt><trkpt lat="45.0328196" lon="7.9544344"><ele>272.0</ele><time>2026-04-05T09:42:44.265Z</time></trkpt><trkpt lat="45.0327612" lon="7.9545089"><ele>272.0</ele><time>2026-04-05T09:42:45.265Z</time></trkpt><trkpt lat="45.0326546" lon="7.9546463"><ele>272.0</ele><time>2026-04-05T09:42:47.265Z</time></trkpt><trkpt lat="45.0326038" lon="7.9547168"><ele>272.0</ele><time>2026-04-05T09:42:48.265Z</time></trkpt><trkpt lat="45.0325568" lon="7.9547913"><ele>272.0</ele><time>2026-04-05T09:42:49.265Z</time></trkpt><trkpt lat="45.0325003" lon="7.9549168"><ele>272.0</ele><time>2026-04-05T09:42:51.265Z</time></trkpt><trkpt lat="45.032505" lon="7.9550257"><ele>272.6666666666667</ele><time>2026-04-05T09:42:53.265Z</time></trkpt><trkpt lat="45.0324887" lon="7.9551306"><ele>273.33333333333337</ele><time>2026-04-05T09:42:55.265Z</time></trkpt><trkpt lat="45.0324281" lon="7.9552821"><ele>274.0</ele><time>2026-04-05T09:42:57.265Z</time></trkpt><trkpt lat="45.0323932" lon="7.95537"><ele>274.6666666666667</ele><time>2026-04-05T09:42:58.265Z</time></trkpt><trkpt lat="45.032353" lon="7.9554614"><ele>275.3333333333333</ele><time>2026-04-05T09:42:59.265Z</time></trkpt><trkpt lat="45.032303" lon="7.9555751"><ele>276.0</ele><time>2026-04-05T09:43:00.265Z</time></trkpt><trkpt lat="45.0322534" lon="7.9556926"><ele>274.5</ele><time>2026-04-05T09:43:01.265Z</time></trkpt><trkpt lat="45.0321981" lon="7.9558017"><ele>273.0</ele><time>2026-04-05T09:43:02.265Z</time></trkpt><trkpt lat="45.0321478" lon="7.9558997"><ele>271.5</ele><time>2026-04-05T09:43:03.265Z</time></trkpt><trkpt lat="45.0320991" lon="7.9559836"><ele>270.0</ele><time>2026-04-05T09:43:04.265Z</time></trkpt><trkpt lat="45.0320533" lon="7.9560519"><ele>268.5</ele><time>2026-04-05T09:43:05.265Z</time></trkpt><trkpt lat="45.0319852" lon="7.9560903"><ele>267.0</ele><time>2026-04-05T09:43:07.265Z</time></trkpt><trkpt lat="45.0318344" lon="7.9559906"><ele>267.1666666666667</ele><time>2026-04-05T09:43:10.265Z</time></trkpt><trkpt lat="45.0317651" lon="7.9559919"><ele>267.3333333333333</ele><time>2026-04-05T09:43:11.265Z</time></trkpt><trkpt lat="45.0316994" lon="7.9560183"><ele>267.5</ele><time>2026-04-05T09:43:12.265Z</time></trkpt><trkpt lat="45.0316362" lon="7.9560423"><ele>267.66666666666663</ele><time>2026-04-05T09:43:13.265Z</time></trkpt><trkpt lat="45.0315212" lon="7.9560631"><ele>267.8333333333333</ele><time>2026-04-05T09:43:15.265Z</time></trkpt><trkpt lat="45.031449" lon="7.9560772"><ele>268.0</ele><time>2026-04-05T09:43:17.265Z</time></trkpt><trkpt lat="45.0314427" lon="7.9561861"><ele>268.0</ele><time>2026-04-05T09:43:20.265Z</time></trkpt><trkpt lat="45.0314854" lon="7.9562954"><ele>268.0</ele><time>2026-04-05T09:43:22.265Z</time></trkpt><trkpt lat="45.0315343" lon="7.9564587"><ele>268.0</ele><time>2026-04-05T09:43:24.265Z</time></trkpt><trkpt lat="45.0315606" lon="7.9565484"><ele>268.0</ele><time>2026-04-05T09:43:25.265Z</time></trkpt><trkpt lat="45.0315903" lon="7.95663"><ele>268.0</ele><time>2026-04-05T09:43:26.265Z</time></trkpt><trkpt lat="45.031653" lon="7.9567705"><ele>264.8</ele><time>2026-04-05T09:43:28.265Z</time></trkpt><trkpt lat="45.0317858" lon="7.9570107"><ele>261.6</ele><time>2026-04-05T09:43:31.265Z</time></trkpt><trkpt lat="45.0318293" lon="7.9571037"><ele>258.4</ele><time>2026-04-05T09:43:32.265Z</time></trkpt><trkpt lat="45.0318672" lon="7.9571949"><ele>255.2</ele><time>2026-04-05T09:43:33.265Z</time></trkpt><trkpt lat="45.0318998" lon="7.9572828"><ele>252.0</ele><time>2026-04-05T09:43:34.265Z</time></trkpt><trkpt lat="45.0319349" lon="7.95737"><ele>252.0</ele><time>2026-04-05T09:43:35.265Z</time></trkpt><trkpt lat="45.0319635" lon="7.957452"><ele>252.0</ele><time>2026-04-05T09:43:36.265Z</time></trkpt><trkpt lat="45.0319904" lon="7.9575397"><ele>252.0</ele><time>2026-04-05T09:43:37.265Z</time></trkpt><trkpt lat="45.0320206" lon="7.9576267"><ele>252.0</ele><time>2026-04-05T09:43:38.265Z</time></trkpt><trkpt lat="45.0320433" lon="7.9577227"><ele>252.0</ele><time>2026-04-05T09:43:39.265Z</time></trkpt><trkpt lat="45.0320676" lon="7.9578267"><ele>252.0</ele><time>2026-04-05T09:43:40.265Z</time></trkpt><trkpt lat="45.0320898" lon="7.9579403"><ele>252.0</ele><time>2026-04-05T09:43:41.265Z</time></trkpt><trkpt lat="45.03211" lon="7.9580527"><ele>250.2</ele><time>2026-04-05T09:43:42.265Z</time></trkpt><trkpt lat="45.0321358" lon="7.9581753"><ele>248.39999999999998</ele><time>2026-04-05T09:43:43.265Z</time></trkpt><trkpt lat="45.0321585" lon="7.9583014"><ele>246.60000000000002</ele><time>2026-04-05T09:43:44.265Z</time></trkpt><trkpt lat="45.0321834" lon="7.9584258"><ele>244.8</ele><time>2026-04-05T09:43:45.265Z</time></trkpt><trkpt lat="45.0322118" lon="7.9585475"><ele>243.0</ele><time>2026-04-05T09:43:46.265Z</time></trkpt><trkpt lat="45.0322524" lon="7.9586703"><ele>241.60000000000002</ele><time>2026-04-05T09:43:47.265Z</time></trkpt><trkpt lat="45.0322975" lon="7.9587958"><ele>240.20000000000002</ele><time>2026-04-05T09:43:48.265Z</time></trkpt><trkpt lat="45.0323467" lon="7.9589244"><ele>238.8</ele><time>2026-04-05T09:43:49.265Z</time></trkpt><trkpt lat="45.0324398" lon="7.9591351"><ele>237.4</ele><time>2026-04-05T09:43:51.265Z</time></trkpt><trkpt lat="45.0324781" lon="7.9592181"><ele>236.0</ele><time>2026-04-05T09:43:52.265Z</time></trkpt><trkpt lat="45.0325339" lon="7.9593172"><ele>235.8</ele><time>2026-04-05T09:43:54.265Z</time></trkpt><trkpt lat="45.0325917" lon="7.9593911"><ele>235.60000000000002</ele><time>2026-04-05T09:44:29.265Z</time></trkpt><trkpt lat="45.0327065" lon="7.9595389"><ele>235.4</ele><time>2026-04-05T09:44:31.265Z</time></trkpt><trkpt lat="45.0327722" lon="7.9596289"><ele>235.2</ele><time>2026-04-05T09:44:32.265Z</time></trkpt><trkpt lat="45.0328388" lon="7.9597289"><ele>235.0</ele><time>2026-04-05T09:44:33.265Z</time></trkpt><trkpt lat="45.03291" lon="7.9598371"><ele>235.0</ele><time>2026-04-05T09:44:34.265Z</time></trkpt><trkpt lat="45.0329825" lon="7.9599405"><ele>235.0</ele><time>2026-04-05T09:44:35.265Z</time></trkpt><trkpt lat="45.0330561" lon="7.9600475"><ele>235.0</ele><time>2026-04-05T09:44:36.265Z</time></trkpt><trkpt lat="45.0331276" lon="7.9601589"><ele>235.0</ele><time>2026-04-05T09:44:37.265Z</time></trkpt><trkpt lat="45.0331995" lon="7.9602691"><ele>235.0</ele><time>2026-04-05T09:44:38.265Z</time></trkpt><trkpt lat="45.0332651" lon="7.960362"><ele>234.7142857142857</ele><time>2026-04-05T09:44:39.265Z</time></trkpt><trkpt lat="45.0333351" lon="7.9604326"><ele>234.4285714285714</ele><time>2026-04-05T09:44:40.265Z</time></trkpt><trkpt lat="45.0334002" lon="7.9604698"><ele>234.14285714285714</ele><time>2026-04-05T09:44:41.265Z</time></trkpt><trkpt lat="45.0334648" lon="7.9604808"><ele>233.85714285714283</ele><time>2026-04-05T09:44:42.265Z</time></trkpt><trkpt lat="45.033527" lon="7.9604619"><ele>233.57142857142856</ele><time>2026-04-05T09:44:43.265Z</time></trkpt><trkpt lat="45.033586" lon="7.9604029"><ele>233.28571428571428</ele><time>2026-04-05T09:44:44.265Z</time></trkpt><trkpt lat="45.0336488" lon="7.9603164"><ele>233.0</ele><time>2026-04-05T09:44:45.265Z</time></trkpt><trkpt lat="45.0337143" lon="7.9602315"><ele>233.0</ele><time>2026-04-05T09:44:46.265Z</time></trkpt><trkpt lat="45.0337792" lon="7.9601718"><ele>233.0</ele><time>2026-04-05T09:44:47.265Z</time></trkpt><trkpt lat="45.0338488" lon="7.9601608"><ele>233.0</ele><time>2026-04-05T09:44:48.265Z</time></trkpt><trkpt lat="45.0339213" lon="7.9601959"><ele>233.0</ele><time>2026-04-05T09:44:49.265Z</time></trkpt><trkpt lat="45.034013" lon="7.9602654"><ele>233.0</ele><time>2026-04-05T09:44:50.265Z</time></trkpt><trkpt lat="45.0342243" lon="7.9604379"><ele>233.50000000000003</ele><time>2026-04-05T09:44:52.265Z</time></trkpt><trkpt lat="45.0343179" lon="7.9605022"><ele>234.0</ele><time>2026-04-05T09:44:53.265Z</time></trkpt><trkpt lat="45.0343988" lon="7.9605454"><ele>234.5</ele><time>2026-04-05T09:44:54.265Z</time></trkpt><trkpt lat="45.0344634" lon="7.9605782"><ele>235.0</ele><time>2026-04-05T09:44:55.265Z</time></trkpt><trkpt lat="45.0345562" lon="7.9605976"><ele>235.50000000000003</ele><time>2026-04-05T09:44:57.265Z</time></trkpt><trkpt lat="45.034612" lon="7.9605086"><ele>236.0</ele><time>2026-04-05T09:44:59.264Z</time></trkpt><trkpt lat="45.0346292" lon="7.9603136"><ele>236.0</ele><time>2026-04-05T09:45:01.265Z</time></trkpt><trkpt lat="45.0346305" lon="7.9601747"><ele>236.00000000000003</ele><time>2026-04-05T09:45:02.265Z</time></trkpt><trkpt lat="45.0346307" lon="7.9600336"><ele>236.00000000000003</ele><time>2026-04-05T09:45:03.265Z</time></trkpt><trkpt lat="45.0346408" lon="7.9598982"><ele>236.0</ele><time>2026-04-05T09:45:04.265Z</time></trkpt><trkpt lat="45.0346681" lon="7.959771"><ele>236.0</ele><time>2026-04-05T09:45:05.265Z</time></trkpt><trkpt lat="45.0347106" lon="7.9596393"><ele>236.20000000000002</ele><time>2026-04-05T09:45:06.265Z</time></trkpt><trkpt lat="45.0347631" lon="7.959512"><ele>236.40000000000003</ele><time>2026-04-05T09:45:07.265Z</time></trkpt><trkpt lat="45.034813" lon="7.9593896"><ele>236.6</ele><time>2026-04-05T09:45:08.265Z</time></trkpt><trkpt lat="45.0348669" lon="7.9592833"><ele>236.8</ele><time>2026-04-05T09:45:09.265Z</time></trkpt><trkpt lat="45.0349262" lon="7.9591806"><ele>237.0</ele><time>2026-04-05T09:45:10.265Z</time></trkpt><trkpt lat="45.0349926" lon="7.9590772"><ele>238.0</ele><time>2026-04-05T09:45:11.265Z</time></trkpt><trkpt lat="45.0351201" lon="7.9588573"><ele>239.0</ele><time>2026-04-05T09:45:13.265Z</time></trkpt><trkpt lat="45.0351647" lon="7.9587372"><ele>240.0</ele><time>2026-04-05T09:45:14.265Z</time></trkpt><trkpt lat="45.0352075" lon="7.9586293"><ele>241.0</ele><time>2026-04-05T09:45:15.265Z</time></trkpt><trkpt lat="45.0352477" lon="7.9585269"><ele>240.99999999999997</ele><time>2026-04-05T09:45:16.265Z</time></trkpt><trkpt lat="45.0352845" lon="7.95843"><ele>241.0</ele><time>2026-04-05T09:45:17.265Z</time></trkpt><trkpt lat="45.0353273" lon="7.9583377"><ele>241.0</ele><time>2026-04-05T09:45:18.265Z</time></trkpt><trkpt lat="45.0353776" lon="7.9582681"><ele>241.0</ele><time>2026-04-05T09:45:19.265Z</time></trkpt><trkpt lat="45.0354418" lon="7.9582073"><ele>240.99999999999997</ele><time>2026-04-05T09:45:20.265Z</time></trkpt><trkpt lat="45.0355198" lon="7.9581481"><ele>241.0</ele><time>2026-04-05T09:45:21.265Z</time></trkpt><trkpt lat="45.0355984" lon="7.9580946"><ele>241.20000000000002</ele><time>2026-04-05T09:45:22.265Z</time></trkpt><trkpt lat="45.03568" lon="7.9580425"><ele>241.40000000000003</ele><time>2026-04-05T09:45:23.265Z</time></trkpt><trkpt lat="45.035762" lon="7.9579852"><ele>241.6</ele><time>2026-04-05T09:45:24.265Z</time></trkpt><trkpt lat="45.0358439" lon="7.9579218"><ele>241.8</ele><time>2026-04-05T09:45:25.265Z</time></trkpt><trkpt lat="45.0359232" lon="7.9578572"><ele>242.0</ele><time>2026-04-05T09:45:26.265Z</time></trkpt><trkpt lat="45.0359987" lon="7.9577884"><ele>241.83333333333334</ele><time>2026-04-05T09:45:27.265Z</time></trkpt><trkpt lat="45.0360659" lon="7.9577228"><ele>241.66666666666669</ele><time>2026-04-05T09:45:28.265Z</time></trkpt><trkpt lat="45.0361374" lon="7.9576647"><ele>241.5</ele><time>2026-04-05T09:45:29.265Z</time></trkpt><trkpt lat="45.0362096" lon="7.9576105"><ele>241.33333333333331</ele><time>2026-04-05T09:45:30.265Z</time></trkpt><trkpt lat="45.0362897" lon="7.9575627"><ele>241.16666666666666</ele><time>2026-04-05T09:45:31.265Z</time></trkpt><trkpt lat="45.0363713" lon="7.9575117"><ele>241.0</ele><time>2026-04-05T09:45:32.265Z</time></trkpt><trkpt lat="45.0365301" lon="7.9574089"><ele>240.99999999999997</ele><time>2026-04-05T09:45:34.264Z</time></trkpt><trkpt lat="45.0366039" lon="7.9573531"><ele>241.0</ele><time>2026-04-05T09:45:35.265Z</time></trkpt><trkpt lat="45.0366757" lon="7.9573024"><ele>241.0</ele><time>2026-04-05T09:45:36.265Z</time></trkpt><trkpt lat="45.0367456" lon="7.9572526"><ele>241.0</ele><time>2026-04-05T09:45:37.265Z</time></trkpt><trkpt lat="45.0368095" lon="7.9572098"><ele>240.99999999999997</ele><time>2026-04-05T09:45:38.265Z</time></trkpt><trkpt lat="45.0369193" lon="7.9571451"><ele>241.0</ele><time>2026-04-05T09:45:40.265Z</time></trkpt><trkpt lat="45.0370128" lon="7.9570662"><ele>240.66666666666666</ele><time>2026-04-05T09:45:42.265Z</time></trkpt><trkpt lat="45.0370713" lon="7.9569614"><ele>240.33333333333331</ele><time>2026-04-05T09:45:44.265Z</time></trkpt><trkpt lat="45.0370771" lon="7.9568425"><ele>240.0</ele><time>2026-04-05T09:45:46.265Z</time></trkpt><trkpt lat="45.0370293" lon="7.9567359"><ele>239.66666666666669</ele><time>2026-04-05T09:45:48.265Z</time></trkpt><trkpt lat="45.0369802" lon="7.9566774"><ele>239.33333333333334</ele><time>2026-04-05T09:45:50.265Z</time></trkpt><trkpt lat="45.0369919" lon="7.9568131"><ele>239.0</ele><time>2026-04-05T10:33:45.256Z</time></trkpt><trkpt lat="45.0370328" lon="7.9570133"><ele>239.39999999999998</ele><time>2026-04-05T10:33:50.256Z</time></trkpt><trkpt lat="45.036961" lon="7.9570922"><ele>239.79999999999998</ele><time>2026-04-05T10:33:52.256Z</time></trkpt><trkpt lat="45.0368757" lon="7.9571633"><ele>240.20000000000002</ele><time>2026-04-05T10:33:54.256Z</time></trkpt><trkpt lat="45.0367602" lon="7.957241"><ele>240.60000000000002</ele><time>2026-04-05T10:33:56.256Z</time></trkpt><trkpt lat="45.0366881" lon="7.9572898"><ele>241.0</ele><time>2026-04-05T10:33:57.256Z</time></trkpt><trkpt lat="45.0366089" lon="7.9573463"><ele>241.0</ele><time>2026-04-05T10:33:58.256Z</time></trkpt><trkpt lat="45.0365176" lon="7.9574054"><ele>241.00000000000003</ele><time>2026-04-05T10:33:59.256Z</time></trkpt><trkpt lat="45.0364286" lon="7.9574615"><ele>241.00000000000003</ele><time>2026-04-05T10:34:00.256Z</time></trkpt><trkpt lat="45.0363393" lon="7.9575143"><ele>241.0</ele><time>2026-04-05T10:34:01.256Z</time></trkpt><trkpt lat="45.0362493" lon="7.9575661"><ele>241.0</ele><time>2026-04-05T10:34:02.256Z</time></trkpt><trkpt lat="45.0361607" lon="7.9576282"><ele>241.25</ele><time>2026-04-05T10:34:03.256Z</time></trkpt><trkpt lat="45.036077" lon="7.9576944"><ele>241.5</ele><time>2026-04-05T10:34:04.256Z</time></trkpt><trkpt lat="45.0359982" lon="7.9577643"><ele>241.75</ele><time>2026-04-05T10:34:05.256Z</time></trkpt><trkpt lat="45.0359183" lon="7.9578348"><ele>242.0</ele><time>2026-04-05T10:34:06.256Z</time></trkpt><trkpt lat="45.0357789" lon="7.9579672"><ele>242.0</ele><time>2026-04-05T10:34:08.256Z</time></trkpt><trkpt lat="45.0357005" lon="7.9580315"><ele>242.0</ele><time>2026-04-05T10:34:09.256Z</time></trkpt><trkpt lat="45.035606" lon="7.9581033"><ele>242.0</ele><time>2026-04-05T10:34:10.256Z</time></trkpt><trkpt lat="45.0355047" lon="7.9581737"><ele>242.0</ele><time>2026-04-05T10:34:11.256Z</time></trkpt><trkpt lat="45.035419" lon="7.9582425"><ele>242.0</ele><time>2026-04-05T10:34:12.256Z</time></trkpt><trkpt lat="45.035353" lon="7.9583108"><ele>241.83333333333334</ele><time>2026-04-05T10:34:13.256Z</time></trkpt><trkpt lat="45.0353044" lon="7.9583817"><ele>241.66666666666669</ele><time>2026-04-05T10:34:14.256Z</time></trkpt><trkpt lat="45.0352608" lon="7.9584729"><ele>241.5</ele><time>2026-04-05T10:34:15.256Z</time></trkpt><trkpt lat="45.0352145" lon="7.9585867"><ele>241.33333333333331</ele><time>2026-04-05T10:34:16.256Z</time></trkpt><trkpt lat="45.0351666" lon="7.9587143"><ele>241.16666666666666</ele><time>2026-04-05T10:34:17.256Z</time></trkpt><trkpt lat="45.0351183" lon="7.9588425"><ele>241.0</ele><time>2026-04-05T10:34:18.256Z</time></trkpt><trkpt lat="45.0350686" lon="7.9589662"><ele>241.0</ele><time>2026-04-05T10:34:19.256Z</time></trkpt><trkpt lat="45.0350056" lon="7.959074"><ele>241.00000000000003</ele><time>2026-04-05T10:34:20.256Z</time></trkpt><trkpt lat="45.0349372" lon="7.9591684"><ele>241.00000000000003</ele><time>2026-04-05T10:34:21.256Z</time></trkpt><trkpt lat="45.0348634" lon="7.9592754"><ele>241.0</ele><time>2026-04-05T10:34:22.255Z</time></trkpt><trkpt lat="45.034797" lon="7.9593911"><ele>241.0</ele><time>2026-04-05T10:34:23.256Z</time></trkpt><trkpt lat="45.0347356" lon="7.959513"><ele>240.0</ele><time>2026-04-05T10:34:24.256Z</time></trkpt><trkpt lat="45.0346866" lon="7.9596402"><ele>239.0</ele><time>2026-04-05T10:34:25.255Z</time></trkpt><trkpt lat="45.0346447" lon="7.959769"><ele>238.0</ele><time>2026-04-05T10:34:26.256Z</time></trkpt><trkpt lat="45.0346151" lon="7.9598952"><ele>237.0</ele><time>2026-04-05T10:34:27.256Z</time></trkpt><trkpt lat="45.0345996" lon="7.9601508"><ele>236.83333333333334</ele><time>2026-04-05T10:34:29.256Z</time></trkpt><trkpt lat="45.0345999" lon="7.9602691"><ele>236.66666666666669</ele><time>2026-04-05T10:34:30.256Z</time></trkpt><trkpt lat="45.0345972" lon="7.9603772"><ele>236.5</ele><time>2026-04-05T10:34:31.256Z</time></trkpt><trkpt lat="45.0345886" lon="7.9604668"><ele>236.33333333333334</ele><time>2026-04-05T10:34:32.256Z</time></trkpt><trkpt lat="45.0345486" lon="7.9605964"><ele>236.16666666666669</ele><time>2026-04-05T10:34:34.256Z</time></trkpt><trkpt lat="45.0344379" lon="7.9605722"><ele>236.0</ele><time>2026-04-05T10:34:36.256Z</time></trkpt><trkpt lat="45.0343471" lon="7.9605129"><ele>236.0</ele><time>2026-04-05T10:34:37.256Z</time></trkpt><trkpt lat="45.0342371" lon="7.9604369"><ele>236.0</ele><time>2026-04-05T10:34:38.256Z</time></trkpt><trkpt lat="45.0341293" lon="7.9603557"><ele>236.0</ele><time>2026-04-05T10:34:39.256Z</time></trkpt><trkpt lat="45.0340278" lon="7.9602814"><ele>236.0</ele><time>2026-04-05T10:34:40.256Z</time></trkpt><trkpt lat="45.0339409" lon="7.9602264"><ele>235.4</ele><time>2026-04-05T10:34:41.256Z</time></trkpt><trkpt lat="45.0338685" lon="7.9601759"><ele>234.8</ele><time>2026-04-05T10:34:42.256Z</time></trkpt><trkpt lat="45.0337626" lon="7.96013"><ele>234.20000000000002</ele><time>2026-04-05T10:34:44.256Z</time></trkpt><trkpt lat="45.0336959" lon="7.9601672"><ele>233.60000000000002</ele><time>2026-04-05T10:34:45.256Z</time></trkpt><trkpt lat="45.0336268" lon="7.9602455"><ele>233.0</ele><time>2026-04-05T10:34:46.256Z</time></trkpt><trkpt lat="45.0335565" lon="7.9603421"><ele>233.0</ele><time>2026-04-05T10:34:47.256Z</time></trkpt><trkpt lat="45.0334969" lon="7.9604185"><ele>233.0</ele><time>2026-04-05T10:34:48.256Z</time></trkpt><trkpt lat="45.0333171" lon="7.960416"><ele>233.0</ele><time>2026-04-05T10:34:51.256Z</time></trkpt><trkpt lat="45.0332541" lon="7.9603464"><ele>233.0</ele><time>2026-04-05T10:34:52.256Z</time></trkpt><trkpt lat="45.0331904" lon="7.9602488"><ele>233.0</ele><time>2026-04-05T10:34:53.256Z</time></trkpt><trkpt lat="45.0331213" lon="7.9601325"><ele>233.5</ele><time>2026-04-05T10:34:54.256Z</time></trkpt><trkpt lat="45.0330481" lon="7.9600102"><ele>234.0</ele><time>2026-04-05T10:34:55.256Z</time></trkpt><trkpt lat="45.0329669" lon="7.9598755"><ele>234.5</ele><time>2026-04-05T10:34:56.256Z</time></trkpt><trkpt lat="45.0328773" lon="7.9597468"><ele>235.0</ele><time>2026-04-05T10:34:57.256Z</time></trkpt><trkpt lat="45.032795" lon="7.9596162"><ele>235.0</ele><time>2026-04-05T10:34:58.256Z</time></trkpt><trkpt lat="45.0327203" lon="7.959491"><ele>235.0</ele><time>2026-04-05T10:34:59.256Z</time></trkpt><trkpt lat="45.0326429" lon="7.959404"><ele>235.0</ele><time>2026-04-05T10:35:00.256Z</time></trkpt><trkpt lat="45.0325566" lon="7.9593538"><ele>235.0</ele><time>2026-04-05T10:35:01.256Z</time></trkpt><trkpt lat="45.0324582" lon="7.9593262"><ele>235.0</ele><time>2026-04-05T10:35:02.256Z</time></trkpt><trkpt lat="45.032346" lon="7.9593114"><ele>235.25</ele><time>2026-04-05T10:35:03.256Z</time></trkpt><trkpt lat="45.0322186" lon="7.9592858"><ele>235.5</ele><time>2026-04-05T10:35:04.256Z</time></trkpt><trkpt lat="45.0320853" lon="7.9592406"><ele>235.75</ele><time>2026-04-05T10:35:05.256Z</time></trkpt><trkpt lat="45.0319542" lon="7.9591971"><ele>236.0</ele><time>2026-04-05T10:35:06.256Z</time></trkpt><trkpt lat="45.0318282" lon="7.9591679"><ele>236.0</ele><time>2026-04-05T10:35:07.256Z</time></trkpt><trkpt lat="45.0317076" lon="7.9591581"><ele>236.0</ele><time>2026-04-05T10:35:08.256Z</time></trkpt><trkpt lat="45.0315964" lon="7.959162"><ele>236.0</ele><time>2026-04-05T10:35:09.256Z</time></trkpt><trkpt lat="45.0314158" lon="7.9591628"><ele>236.0</ele><time>2026-04-05T10:35:11.256Z</time></trkpt><trkpt lat="45.0313388" lon="7.9591484"><ele>236.50000000000003</ele><time>2026-04-05T10:35:12.256Z</time></trkpt><trkpt lat="45.0312234" lon="7.9591602"><ele>237.0</ele><time>2026-04-05T10:35:14.256Z</time></trkpt><trkpt lat="45.0311487" lon="7.9592752"><ele>237.5</ele><time>2026-04-05T10:35:16.256Z</time></trkpt><trkpt lat="45.0311241" lon="7.9593605"><ele>238.0</ele><time>2026-04-05T10:35:17.256Z</time></trkpt><trkpt lat="45.0310896" lon="7.9594405"><ele>238.50000000000003</ele><time>2026-04-05T10:35:18.256Z</time></trkpt><trkpt lat="45.0310401" lon="7.9595166"><ele>239.0</ele><time>2026-04-05T10:35:19.256Z</time></trkpt><trkpt lat="45.0309743" lon="7.9595829"><ele>239.00000000000003</ele><time>2026-04-05T10:35:20.256Z</time></trkpt><trkpt lat="45.0308933" lon="7.9596409"><ele>239.0</ele><time>2026-04-05T10:35:21.256Z</time></trkpt><trkpt lat="45.0308189" lon="7.959688"><ele>239.0</ele><time>2026-04-05T10:35:22.256Z</time></trkpt><trkpt lat="45.0307615" lon="7.959733"><ele>239.0</ele><time>2026-04-05T10:35:23.256Z</time></trkpt><trkpt lat="45.0307105" lon="7.95986"><ele>239.00000000000003</ele><time>2026-04-05T10:35:25.256Z</time></trkpt><trkpt lat="45.0307042" lon="7.9599615"><ele>239.0</ele><time>2026-04-05T10:35:26.256Z</time></trkpt><trkpt lat="45.0307015" lon="7.9600846"><ele>236.75</ele><time>2026-04-05T10:35:27.256Z</time></trkpt><trkpt lat="45.0307015" lon="7.9602218"><ele>234.5</ele><time>2026-04-05T10:35:28.256Z</time></trkpt><trkpt lat="45.0307039" lon="7.9603542"><ele>232.25</ele><time>2026-04-05T10:35:29.256Z</time></trkpt><trkpt lat="45.0307111" lon="7.960482"><ele>230.0</ele><time>2026-04-05T10:35:30.256Z</time></trkpt><trkpt lat="45.0307222" lon="7.9607439"><ele>230.33333333333334</ele><time>2026-04-05T10:35:32.256Z</time></trkpt><trkpt lat="45.0307326" lon="7.9608685"><ele>230.66666666666669</ele><time>2026-04-05T10:35:33.256Z</time></trkpt><trkpt lat="45.0307391" lon="7.9609814"><ele>231.0</ele><time>2026-04-05T10:35:34.256Z</time></trkpt><trkpt lat="45.0307418" lon="7.9610783"><ele>231.33333333333331</ele><time>2026-04-05T10:35:35.256Z</time></trkpt><trkpt lat="45.0307337" lon="7.9612216"><ele>231.66666666666666</ele><time>2026-04-05T10:35:37.256Z</time></trkpt><trkpt lat="45.0307083" lon="7.9613424"><ele>232.0</ele><time>2026-04-05T10:35:40.256Z</time></trkpt><trkpt lat="45.0306512" lon="7.9613882"><ele>232.0</ele><time>2026-04-05T10:35:44.256Z</time></trkpt><trkpt lat="45.0305553" lon="7.9613329"><ele>232.0</ele><time>2026-04-05T10:35:46.256Z</time></trkpt><trkpt lat="45.0304762" lon="7.9612945"><ele>232.0</ele><time>2026-04-05T10:35:47.256Z</time></trkpt><trkpt lat="45.0303856" lon="7.961253"><ele>232.0</ele><time>2026-04-05T10:35:48.256Z</time></trkpt><trkpt lat="45.0302868" lon="7.9612229"><ele>232.0</ele><time>2026-04-05T10:35:49.256Z</time></trkpt><trkpt lat="45.0301788" lon="7.9612133"><ele>232.0</ele><time>2026-04-05T10:35:50.256Z</time></trkpt><trkpt lat="45.030071" lon="7.9612215"><ele>232.0</ele><time>2026-04-05T10:35:51.256Z</time></trkpt><trkpt lat="45.0298388" lon="7.9612575"><ele>232.0</ele><time>2026-04-05T10:35:53.256Z</time></trkpt><trkpt lat="45.0296967" lon="7.9612858"><ele>231.0</ele><time>2026-04-05T10:35:54.254Z</time></trkpt><trkpt lat="45.029551" lon="7.9613315"><ele>230.0</ele><time>2026-04-05T10:35:55.255Z</time></trkpt><trkpt lat="45.0294041" lon="7.9613795"><ele>229.0</ele><time>2026-04-05T10:35:56.255Z</time></trkpt><trkpt lat="45.0292792" lon="7.9614271"><ele>228.0</ele><time>2026-04-05T10:35:57.255Z</time></trkpt><trkpt lat="45.0291779" lon="7.9614688"><ele>228.8</ele><time>2026-04-05T10:35:58.254Z</time></trkpt><trkpt lat="45.0290948" lon="7.961499"><ele>229.60000000000002</ele><time>2026-04-05T10:35:59.255Z</time></trkpt><trkpt lat="45.0290164" lon="7.9615219"><ele>230.39999999999998</ele><time>2026-04-05T10:36:00.255Z</time></trkpt><trkpt lat="45.0289305" lon="7.9615451"><ele>231.2</ele><time>2026-04-05T10:36:01.255Z</time></trkpt><trkpt lat="45.028833" lon="7.9615747"><ele>232.0</ele><time>2026-04-05T10:36:02.255Z</time></trkpt><trkpt lat="45.0287262" lon="7.9616051"><ele>232.0</ele><time>2026-04-05T10:36:03.255Z</time></trkpt><trkpt lat="45.0286115" lon="7.9616357"><ele>232.0</ele><time>2026-04-05T10:36:04.255Z</time></trkpt><trkpt lat="45.0285014" lon="7.9616631"><ele>232.0</ele><time>2026-04-05T10:36:05.255Z</time></trkpt><trkpt lat="45.0283997" lon="7.9616986"><ele>232.0</ele><time>2026-04-05T10:36:06.255Z</time></trkpt><trkpt lat="45.0283053" lon="7.9617521"><ele>232.0</ele><time>2026-04-05T10:36:07.255Z</time></trkpt><trkpt lat="45.0282137" lon="7.9618073"><ele>231.6</ele><time>2026-04-05T10:36:08.255Z</time></trkpt><trkpt lat="45.0281236" lon="7.9618469"><ele>231.2</ele><time>2026-04-05T10:36:09.255Z</time></trkpt><trkpt lat="45.0280389" lon="7.961861"><ele>230.8</ele><time>2026-04-05T10:36:10.255Z</time></trkpt><trkpt lat="45.0279483" lon="7.9618637"><ele>230.4</ele><time>2026-04-05T10:36:11.255Z</time></trkpt><trkpt lat="45.0278513" lon="7.9618637"><ele>230.0</ele><time>2026-04-05T10:36:12.255Z</time></trkpt><trkpt lat="45.0276158" lon="7.9618532"><ele>230.0</ele><time>2026-04-05T10:36:14.255Z</time></trkpt><trkpt lat="45.0274929" lon="7.961846"><ele>230.0</ele><time>2026-04-05T10:36:15.255Z</time></trkpt><trkpt lat="45.0273682" lon="7.9618509"><ele>230.0</ele><time>2026-04-05T10:36:16.254Z</time></trkpt><trkpt lat="45.027246" lon="7.9618677"><ele>230.0</ele><time>2026-04-05T10:36:17.255Z</time></trkpt><trkpt lat="45.0271343" lon="7.961891"><ele>229.2</ele><time>2026-04-05T10:36:18.255Z</time></trkpt><trkpt lat="45.0270334" lon="7.9619214"><ele>228.4</ele><time>2026-04-05T10:36:19.255Z</time></trkpt><trkpt lat="45.0269373" lon="7.9619648"><ele>227.60000000000002</ele><time>2026-04-05T10:36:20.255Z</time></trkpt><trkpt lat="45.0268439" lon="7.96201"><ele>226.8</ele><time>2026-04-05T10:36:21.255Z</time></trkpt><trkpt lat="45.0267536" lon="7.9620544"><ele>226.0</ele><time>2026-04-05T10:36:22.255Z</time></trkpt><trkpt lat="45.0266701" lon="7.9620958"><ele>225.85714285714286</ele><time>2026-04-05T10:36:23.255Z</time></trkpt><trkpt lat="45.0265944" lon="7.9621255"><ele>225.71428571428572</ele><time>2026-04-05T10:36:24.255Z</time></trkpt><trkpt lat="45.0265251" lon="7.9621448"><ele>225.57142857142858</ele><time>2026-04-05T10:36:25.255Z</time></trkpt><trkpt lat="45.0264533" lon="7.9621604"><ele>225.42857142857144</ele><time>2026-04-05T10:36:26.255Z</time></trkpt><trkpt lat="45.0263767" lon="7.9621805"><ele>225.28571428571428</ele><time>2026-04-05T10:36:27.255Z</time></trkpt><trkpt lat="45.0263026" lon="7.9621962"><ele>225.14285714285717</ele><time>2026-04-05T10:36:28.255Z</time></trkpt><trkpt lat="45.0262317" lon="7.9622055"><ele>225.00000000000003</ele><time>2026-04-05T10:36:29.255Z</time></trkpt><trkpt lat="45.0261528" lon="7.9622156"><ele>225.0</ele><time>2026-04-05T10:36:30.255Z</time></trkpt><trkpt lat="45.0260716" lon="7.9622292"><ele>225.0</ele><time>2026-04-05T10:36:31.255Z</time></trkpt><trkpt lat="45.0259948" lon="7.9622308"><ele>225.0</ele><time>2026-04-05T10:36:32.255Z</time></trkpt><trkpt lat="45.0259169" lon="7.9622261"><ele>225.0</ele><time>2026-04-05T10:36:33.255Z</time></trkpt><trkpt lat="45.0257674" lon="7.9622119"><ele>225.0</ele><time>2026-04-05T10:36:35.255Z</time></trkpt><trkpt lat="45.0256949" lon="7.9622065"><ele>225.0</ele><time>2026-04-05T10:36:36.255Z</time></trkpt><trkpt lat="45.0256302" lon="7.9621977"><ele>225.0</ele><time>2026-04-05T10:36:37.254Z</time></trkpt><trkpt lat="45.0255242" lon="7.9622054"><ele>225.0</ele><time>2026-04-05T10:36:39.255Z</time></trkpt><trkpt lat="45.0254272" lon="7.9621767"><ele>225.0</ele><time>2026-04-05T10:36:41.255Z</time></trkpt><trkpt lat="45.0253528" lon="7.9620156"><ele>225.0</ele><time>2026-04-05T10:36:43.255Z</time></trkpt><trkpt lat="45.0253216" lon="7.9618771"><ele>225.0</ele><time>2026-04-05T10:36:44.255Z</time></trkpt><trkpt lat="45.0252856" lon="7.9617282"><ele>225.0</ele><time>2026-04-05T10:36:45.255Z</time></trkpt><trkpt lat="45.0252495" lon="7.9615876"><ele>225.0</ele><time>2026-04-05T10:36:46.255Z</time></trkpt><trkpt lat="45.0252168" lon="7.9614668"><ele>225.0</ele><time>2026-04-05T10:36:47.255Z</time></trkpt><trkpt lat="45.0251949" lon="7.9613584"><ele>225.0</ele><time>2026-04-05T10:36:48.255Z</time></trkpt><trkpt lat="45.0251782" lon="7.9612627"><ele>225.0</ele><time>2026-04-05T10:36:49.255Z</time></trkpt><trkpt lat="45.025152" lon="7.9611207"><ele>225.0</ele><time>2026-04-05T10:36:51.255Z</time></trkpt><trkpt lat="45.0251327" lon="7.96101"><ele>225.0</ele><time>2026-04-05T10:36:54.255Z</time></trkpt><trkpt lat="45.0250061" lon="7.9609479"><ele>225.0</ele><time>2026-04-05T10:37:01.254Z</time></trkpt><trkpt lat="45.024959" lon="7.9610124"><ele>225.0</ele><time>2026-04-05T10:37:02.255Z</time></trkpt><trkpt lat="45.0249136" lon="7.9610875"><ele>225.0</ele><time>2026-04-05T10:37:03.255Z</time></trkpt><trkpt lat="45.0248707" lon="7.9611717"><ele>225.0</ele><time>2026-04-05T10:37:04.255Z</time></trkpt><trkpt lat="45.0248275" lon="7.9612767"><ele>225.0</ele><time>2026-04-05T10:37:05.255Z</time></trkpt><trkpt lat="45.0247817" lon="7.9613874"><ele>225.0</ele><time>2026-04-05T10:37:06.255Z</time></trkpt><trkpt lat="45.0247335" lon="7.9615029"><ele>225.0</ele><time>2026-04-05T10:37:07.255Z</time></trkpt><trkpt lat="45.0246802" lon="7.9616227"><ele>225.0</ele><time>2026-04-05T10:37:08.255Z</time></trkpt><trkpt lat="45.0246215" lon="7.9617451"><ele>225.6</ele><time>2026-04-05T10:37:09.255Z</time></trkpt><trkpt lat="45.0245641" lon="7.9618654"><ele>226.2</ele><time>2026-04-05T10:37:10.255Z</time></trkpt><trkpt lat="45.0245143" lon="7.9619843"><ele>226.8</ele><time>2026-04-05T10:37:11.255Z</time></trkpt><trkpt lat="45.0244654" lon="7.9621205"><ele>227.4</ele><time>2026-04-05T10:37:12.255Z</time></trkpt><trkpt lat="45.0244151" lon="7.9622594"><ele>228.0</ele><time>2026-04-05T10:37:13.255Z</time></trkpt><trkpt lat="45.0243683" lon="7.9623837"><ele>228.0</ele><time>2026-04-05T10:37:14.255Z</time></trkpt><trkpt lat="45.0243065" lon="7.962498"><ele>228.0</ele><time>2026-04-05T10:37:15.255Z</time></trkpt><trkpt lat="45.0241509" lon="7.9627039"><ele>228.0</ele><time>2026-04-05T10:37:17.255Z</time></trkpt><trkpt lat="45.0240739" lon="7.9628169"><ele>228.0</ele><time>2026-04-05T10:37:18.255Z</time></trkpt><trkpt lat="45.024008" lon="7.9629404"><ele>227.8</ele><time>2026-04-05T10:37:19.255Z</time></trkpt><trkpt lat="45.0239448" lon="7.963068"><ele>227.60000000000002</ele><time>2026-04-05T10:37:20.255Z</time></trkpt><trkpt lat="45.0238829" lon="7.9631848"><ele>227.39999999999998</ele><time>2026-04-05T10:37:21.255Z</time></trkpt><trkpt lat="45.023806" lon="7.9632786"><ele>227.2</ele><time>2026-04-05T10:37:22.255Z</time></trkpt><trkpt lat="45.0237069" lon="7.9633554"><ele>227.0</ele><time>2026-04-05T10:37:23.255Z</time></trkpt><trkpt lat="45.0236074" lon="7.9634209"><ele>226.39999999999998</ele><time>2026-04-05T10:37:24.255Z</time></trkpt><trkpt lat="45.0235098" lon="7.9634892"><ele>225.79999999999998</ele><time>2026-04-05T10:37:25.255Z</time></trkpt><trkpt lat="45.0234208" lon="7.9635692"><ele>225.2</ele><time>2026-04-05T10:37:26.255Z</time></trkpt><trkpt lat="45.0233438" lon="7.9636604"><ele>224.6</ele><time>2026-04-05T10:37:27.255Z</time></trkpt><trkpt lat="45.0232789" lon="7.9637756"><ele>224.0</ele><time>2026-04-05T10:37:28.255Z</time></trkpt><trkpt lat="45.0232208" lon="7.9638977"><ele>224.0</ele><time>2026-04-05T10:37:29.255Z</time></trkpt><trkpt lat="45.0231693" lon="7.9640291"><ele>223.99999999999997</ele><time>2026-04-05T10:37:30.254Z</time></trkpt><trkpt lat="45.0231227" lon="7.9641754"><ele>223.99999999999997</ele><time>2026-04-05T10:37:31.255Z</time></trkpt><trkpt lat="45.0230782" lon="7.964314"><ele>224.0</ele><time>2026-04-05T10:37:32.255Z</time></trkpt><trkpt lat="45.0230263" lon="7.9644445"><ele>224.0</ele><time>2026-04-05T10:37:33.255Z</time></trkpt><trkpt lat="45.0229674" lon="7.9645809"><ele>224.0</ele><time>2026-04-05T10:37:34.255Z</time></trkpt><trkpt lat="45.0229105" lon="7.9647289"><ele>224.0</ele><time>2026-04-05T10:37:35.255Z</time></trkpt><trkpt lat="45.0228537" lon="7.9648745"><ele>224.0</ele><time>2026-04-05T10:37:36.255Z</time></trkpt><trkpt lat="45.0227464" lon="7.9651447"><ele>223.79999999999998</ele><time>2026-04-05T10:37:38.255Z</time></trkpt><trkpt lat="45.0226857" lon="7.9652815"><ele>223.59999999999997</ele><time>2026-04-05T10:37:39.255Z</time></trkpt><trkpt lat="45.0226163" lon="7.965405"><ele>223.4</ele><time>2026-04-05T10:37:40.255Z</time></trkpt><trkpt lat="45.0225508" lon="7.9655218"><ele>223.2</ele><time>2026-04-05T10:37:41.255Z</time></trkpt><trkpt lat="45.0224833" lon="7.9656235"><ele>223.0</ele><time>2026-04-05T10:37:42.255Z</time></trkpt><trkpt lat="45.0224191" lon="7.9657165"><ele>222.99999999999997</ele><time>2026-04-05T10:37:43.255Z</time></trkpt><trkpt lat="45.0223589" lon="7.9657935"><ele>223.0</ele><time>2026-04-05T10:37:44.255Z</time></trkpt><trkpt lat="45.0222836" lon="7.9658474"><ele>223.0</ele><time>2026-04-05T10:37:45.255Z</time></trkpt><trkpt lat="45.0222022" lon="7.9658923"><ele>223.0</ele><time>2026-04-05T10:37:46.255Z</time></trkpt><trkpt lat="45.0221179" lon="7.9659309"><ele>222.99999999999997</ele><time>2026-04-05T10:37:47.255Z</time></trkpt><trkpt lat="45.0220358" lon="7.9659846"><ele>223.0</ele><time>2026-04-05T10:37:48.255Z</time></trkpt><trkpt lat="45.0219573" lon="7.9660567"><ele>222.8</ele><time>2026-04-05T10:37:49.255Z</time></trkpt><trkpt lat="45.0218773" lon="7.966147"><ele>222.60000000000002</ele><time>2026-04-05T10:37:50.255Z</time></trkpt><trkpt lat="45.0218008" lon="7.9662576"><ele>222.39999999999998</ele><time>2026-04-05T10:37:51.255Z</time></trkpt><trkpt lat="45.0217422" lon="7.9663606"><ele>222.2</ele><time>2026-04-05T10:37:52.255Z</time></trkpt><trkpt lat="45.0216948" lon="7.9664587"><ele>222.0</ele><time>2026-04-05T10:37:53.255Z</time></trkpt><trkpt lat="45.0216464" lon="7.9665412"><ele>222.39999999999998</ele><time>2026-04-05T10:37:54.255Z</time></trkpt><trkpt lat="45.0215842" lon="7.9666039"><ele>222.79999999999998</ele><time>2026-04-05T10:37:55.255Z</time></trkpt><trkpt lat="45.0215072" lon="7.9666479"><ele>223.2</ele><time>2026-04-05T10:37:56.255Z</time></trkpt><trkpt lat="45.0214181" lon="7.9666741"><ele>223.6</ele><time>2026-04-05T10:37:57.255Z</time></trkpt><trkpt lat="45.0212467" lon="7.9667096"><ele>224.0</ele><time>2026-04-05T10:37:59.255Z</time></trkpt><trkpt lat="45.021174" lon="7.9667404"><ele>224.66666666666669</ele><time>2026-04-05T10:38:00.255Z</time></trkpt><trkpt lat="45.0211117" lon="7.9667919"><ele>225.33333333333334</ele><time>2026-04-05T10:38:01.255Z</time></trkpt><trkpt lat="45.0210631" lon="7.9668728"><ele>226.0</ele><time>2026-04-05T10:38:02.255Z</time></trkpt><trkpt lat="45.0210232" lon="7.9669827"><ele>226.66666666666669</ele><time>2026-04-05T10:38:03.255Z</time></trkpt><trkpt lat="45.0209997" lon="7.9671096"><ele>227.33333333333334</ele><time>2026-04-05T10:38:04.255Z</time></trkpt><trkpt lat="45.0209759" lon="7.967252"><ele>228.0</ele><time>2026-04-05T10:38:05.255Z</time></trkpt><trkpt lat="45.0209412" lon="7.9673881"><ele>228.0</ele><time>2026-04-05T10:38:06.255Z</time></trkpt><trkpt lat="45.0208915" lon="7.9674957"><ele>228.0</ele><time>2026-04-05T10:38:07.255Z</time></trkpt><trkpt lat="45.0208228" lon="7.9675763"><ele>228.0</ele><time>2026-04-05T10:38:08.255Z</time></trkpt><trkpt lat="45.0207307" lon="7.9676301"><ele>228.0</ele><time>2026-04-05T10:38:09.255Z</time></trkpt><trkpt lat="45.0206301" lon="7.9676695"><ele>228.0</ele><time>2026-04-05T10:38:10.255Z</time></trkpt><trkpt lat="45.0205456" lon="7.9677193"><ele>226.8</ele><time>2026-04-05T10:38:11.255Z</time></trkpt><trkpt lat="45.0204747" lon="7.9677975"><ele>225.60000000000002</ele><time>2026-04-05T10:38:12.255Z</time></trkpt><trkpt lat="45.020415" lon="7.9678984"><ele>224.39999999999998</ele><time>2026-04-05T10:38:13.255Z</time></trkpt><trkpt lat="45.0203747" lon="7.9680176"><ele>223.2</ele><time>2026-04-05T10:38:14.255Z</time></trkpt><trkpt lat="45.0203571" lon="7.9681733"><ele>222.0</ele><time>2026-04-05T10:38:15.255Z</time></trkpt><trkpt lat="45.0203461" lon="7.9683454"><ele>222.0</ele><time>2026-04-05T10:38:16.255Z</time></trkpt><trkpt lat="45.0203427" lon="7.9685302"><ele>222.0</ele><time>2026-04-05T10:38:17.255Z</time></trkpt><trkpt lat="45.0203521" lon="7.9687099"><ele>222.0</ele><time>2026-04-05T10:38:18.255Z</time></trkpt><trkpt lat="45.0203588" lon="7.9690485"><ele>222.0</ele><time>2026-04-05T10:38:20.255Z</time></trkpt><trkpt lat="45.0203379" lon="7.9691937"><ele>222.0</ele><time>2026-04-05T10:38:21.255Z</time></trkpt><trkpt lat="45.0203036" lon="7.9693272"><ele>222.0</ele><time>2026-04-05T10:38:22.255Z</time></trkpt><trkpt lat="45.0202573" lon="7.9694523"><ele>222.0</ele><time>2026-04-05T10:38:23.255Z</time></trkpt><trkpt lat="45.0202054" lon="7.9695427"><ele>222.0</ele><time>2026-04-05T10:38:24.255Z</time></trkpt><trkpt lat="45.0201367" lon="7.96961"><ele>222.0</ele><time>2026-04-05T10:38:25.255Z</time></trkpt><trkpt lat="45.0200612" lon="7.9696713"><ele>222.0</ele><time>2026-04-05T10:38:26.255Z</time></trkpt><trkpt lat="45.0199833" lon="7.9697414"><ele>222.0</ele><time>2026-04-05T10:38:27.255Z</time></trkpt><trkpt lat="45.0199083" lon="7.9698355"><ele>222.0</ele><time>2026-04-05T10:38:28.255Z</time></trkpt><trkpt lat="45.0198441" lon="7.9699428"><ele>222.0</ele><time>2026-04-05T10:38:29.255Z</time></trkpt><trkpt lat="45.0197938" lon="7.9700738"><ele>221.39999999999998</ele><time>2026-04-05T10:38:30.255Z</time></trkpt><trkpt lat="45.0197534" lon="7.9702103"><ele>220.79999999999998</ele><time>2026-04-05T10:38:31.255Z</time></trkpt><trkpt lat="45.0197172" lon="7.9703455"><ele>220.2</ele><time>2026-04-05T10:38:32.255Z</time></trkpt><trkpt lat="45.0196806" lon="7.9704659"><ele>219.6</ele><time>2026-04-05T10:38:33.255Z</time></trkpt><trkpt lat="45.0196392" lon="7.9705699"><ele>219.0</ele><time>2026-04-05T10:38:34.255Z</time></trkpt><trkpt lat="45.0195821" lon="7.9706619"><ele>219.0</ele><time>2026-04-05T10:38:35.255Z</time></trkpt><trkpt lat="45.0195138" lon="7.9707326"><ele>218.99999999999997</ele><time>2026-04-05T10:38:36.255Z</time></trkpt><trkpt lat="45.019437" lon="7.9707855"><ele>218.99999999999997</ele><time>2026-04-05T10:38:37.255Z</time></trkpt><trkpt lat="45.0193653" lon="7.9708354"><ele>219.0</ele><time>2026-04-05T10:38:38.255Z</time></trkpt><trkpt lat="45.0193033" lon="7.9709111"><ele>219.0</ele><time>2026-04-05T10:38:39.255Z</time></trkpt><trkpt lat="45.0192322" lon="7.9711379"><ele>219.0</ele><time>2026-04-05T10:38:41.255Z</time></trkpt><trkpt lat="45.0192239" lon="7.9712784"><ele>218.99999999999997</ele><time>2026-04-05T10:38:42.255Z</time></trkpt><trkpt lat="45.0192239" lon="7.9714262"><ele>218.99999999999997</ele><time>2026-04-05T10:38:43.255Z</time></trkpt><trkpt lat="45.0192314" lon="7.9715797"><ele>219.0</ele><time>2026-04-05T10:38:44.255Z</time></trkpt><trkpt lat="45.019238" lon="7.9717321"><ele>219.0</ele><time>2026-04-05T10:38:45.255Z</time></trkpt><trkpt lat="45.0192339" lon="7.9718681"><ele>219.16666666666666</ele><time>2026-04-05T10:38:46.255Z</time></trkpt><trkpt lat="45.0192193" lon="7.971985"><ele>219.33333333333331</ele><time>2026-04-05T10:38:47.255Z</time></trkpt><trkpt lat="45.0191844" lon="7.9720676"><ele>219.5</ele><time>2026-04-05T10:38:48.255Z</time></trkpt><trkpt lat="45.01913" lon="7.9721259"><ele>219.66666666666666</ele><time>2026-04-05T10:38:49.254Z</time></trkpt><trkpt lat="45.0190551" lon="7.9721546"><ele>219.83333333333331</ele><time>2026-04-05T10:38:50.255Z</time></trkpt><trkpt lat="45.0189626" lon="7.9721726"><ele>220.0</ele><time>2026-04-05T10:38:51.255Z</time></trkpt><trkpt lat="45.0188635" lon="7.9722012"><ele>219.25</ele><time>2026-04-05T10:38:52.255Z</time></trkpt><trkpt lat="45.0187654" lon="7.9722521"><ele>218.5</ele><time>2026-04-05T10:38:53.255Z</time></trkpt><trkpt lat="45.0186635" lon="7.972319"><ele>217.75</ele><time>2026-04-05T10:38:54.255Z</time></trkpt><trkpt lat="45.018568" lon="7.9724071"><ele>217.0</ele><time>2026-04-05T10:38:55.255Z</time></trkpt><trkpt lat="45.0184803" lon="7.972531"><ele>216.75</ele><time>2026-04-05T10:38:56.255Z</time></trkpt><trkpt lat="45.0183938" lon="7.9726562"><ele>216.5</ele><time>2026-04-05T10:38:57.255Z</time></trkpt><trkpt lat="45.01831" lon="7.9727736"><ele>216.25</ele><time>2026-04-05T10:38:58.255Z</time></trkpt><trkpt lat="45.0182241" lon="7.9728941"><ele>216.0</ele><time>2026-04-05T10:38:59.255Z</time></trkpt><trkpt lat="45.0181345" lon="7.9730068"><ele>216.66666666666669</ele><time>2026-04-05T10:39:00.255Z</time></trkpt><trkpt lat="45.0179372" lon="7.9732415"><ele>217.33333333333334</ele><time>2026-04-05T10:39:02.255Z</time></trkpt><trkpt lat="45.0178333" lon="7.9733517"><ele>218.0</ele><time>2026-04-05T10:39:03.255Z</time></trkpt><trkpt lat="45.0177369" lon="7.9734578"><ele>218.00000000000003</ele><time>2026-04-05T10:39:04.255Z</time></trkpt><trkpt lat="45.0176598" lon="7.9735589"><ele>218.0</ele><time>2026-04-05T10:39:05.255Z</time></trkpt><trkpt lat="45.0176007" lon="7.9736547"><ele>218.0</ele><time>2026-04-05T10:39:06.255Z</time></trkpt><trkpt lat="45.0175448" lon="7.9737297"><ele>218.0</ele><time>2026-04-05T10:39:07.255Z</time></trkpt><trkpt lat="45.017491" lon="7.9737917"><ele>218.00000000000003</ele><time>2026-04-05T10:39:08.255Z</time></trkpt><trkpt lat="45.0174346" lon="7.973848"><ele>218.0</ele><time>2026-04-05T10:39:09.255Z</time></trkpt><trkpt lat="45.017378" lon="7.9739064"><ele>218.2</ele><time>2026-04-05T10:39:10.255Z</time></trkpt><trkpt lat="45.0173217" lon="7.9739479"><ele>218.4</ele><time>2026-04-05T10:39:11.255Z</time></trkpt><trkpt lat="45.0172395" lon="7.9740055"><ele>218.59999999999997</ele><time>2026-04-05T10:39:13.255Z</time></trkpt><trkpt lat="45.0171855" lon="7.9740773"><ele>218.79999999999998</ele><time>2026-04-05T10:39:20.255Z</time></trkpt><trkpt lat="45.0171184" lon="7.9742225"><ele>219.0</ele><time>2026-04-05T10:39:22.255Z</time></trkpt><trkpt lat="45.0170204" lon="7.9743558"><ele>219.14285714285714</ele><time>2026-04-05T10:39:24.254Z</time></trkpt><trkpt lat="45.0169649" lon="7.9744125"><ele>219.28571428571428</ele><time>2026-04-05T10:39:25.255Z</time></trkpt><trkpt lat="45.0169032" lon="7.9744701"><ele>219.42857142857142</ele><time>2026-04-05T10:39:26.255Z</time></trkpt><trkpt lat="45.0168439" lon="7.9745235"><ele>219.57142857142856</ele><time>2026-04-05T10:39:27.255Z</time></trkpt><trkpt lat="45.0167814" lon="7.974588"><ele>219.71428571428572</ele><time>2026-04-05T10:39:28.255Z</time></trkpt><trkpt lat="45.016732" lon="7.9746652"><ele>219.85714285714283</ele><time>2026-04-05T10:39:29.255Z</time></trkpt><trkpt lat="45.016678" lon="7.9747326"><ele>220.0</ele><time>2026-04-05T10:39:30.255Z</time></trkpt><trkpt lat="45.0166196" lon="7.9747818"><ele>219.99999999999997</ele><time>2026-04-05T10:39:31.255Z</time></trkpt><trkpt lat="45.0165492" lon="7.9748121"><ele>220.0</ele><time>2026-04-05T10:39:32.255Z</time></trkpt><trkpt lat="45.0164805" lon="7.9748339"><ele>220.0</ele><time>2026-04-05T10:39:33.255Z</time></trkpt><trkpt lat="45.0164157" lon="7.9748498"><ele>220.0</ele><time>2026-04-05T10:39:34.255Z</time></trkpt><trkpt lat="45.0163523" lon="7.9748735"><ele>220.0</ele><time>2026-04-05T10:39:35.255Z</time></trkpt><trkpt lat="45.0162899" lon="7.9749122"><ele>219.99999999999997</ele><time>2026-04-05T10:39:36.255Z</time></trkpt><trkpt lat="45.0162322" lon="7.9749571"><ele>220.0</ele><time>2026-04-05T10:39:37.255Z</time></trkpt><trkpt lat="45.0161255" lon="7.9750324"><ele>220.0</ele><time>2026-04-05T10:39:39.255Z</time></trkpt><trkpt lat="45.0160673" lon="7.9750679"><ele>220.0</ele><time>2026-04-05T10:39:40.255Z</time></trkpt><trkpt lat="45.0160053" lon="7.9750917"><ele>220.0</ele><time>2026-04-05T10:39:41.255Z</time></trkpt><trkpt lat="45.0159077" lon="7.9751701"><ele>220.0</ele><time>2026-04-05T10:39:43.255Z</time></trkpt><trkpt lat="45.0157504" lon="7.975358"><ele>220.0</ele><time>2026-04-05T10:39:47.255Z</time></trkpt><trkpt lat="45.0156657" lon="7.9754924"><ele>219.99999999999997</ele><time>2026-04-05T10:39:49.255Z</time></trkpt><trkpt lat="45.0156154" lon="7.9755674"><ele>220.0</ele><time>2026-04-05T10:39:50.255Z</time></trkpt><trkpt lat="45.0155589" lon="7.9756291"><ele>220.0</ele><time>2026-04-05T10:39:51.255Z</time></trkpt><trkpt lat="45.0154957" lon="7.975689"><ele>220.0</ele><time>2026-04-05T10:39:52.255Z</time></trkpt><trkpt lat="45.015443" lon="7.9757466"><ele>219.99999999999997</ele><time>2026-04-05T10:39:53.255Z</time></trkpt><trkpt lat="45.0153443" lon="7.9758135"><ele>220.0</ele><time>2026-04-05T10:39:55.255Z</time></trkpt><trkpt lat="45.0152567" lon="7.9758005"><ele>220.0</ele><time>2026-04-05T10:39:57.255Z</time></trkpt><trkpt lat="45.015197" lon="7.9756918"><ele>220.0</ele><time>2026-04-05T10:39:59.255Z</time></trkpt><trkpt lat="45.0151654" lon="7.9755845"><ele>220.0</ele><time>2026-04-05T10:40:00.255Z</time></trkpt><trkpt lat="45.0151207" lon="7.9754385"><ele>220.0</ele><time>2026-04-05T10:40:01.255Z</time></trkpt><trkpt lat="45.0150659" lon="7.9752941"><ele>220.0</ele><time>2026-04-05T10:40:02.255Z</time></trkpt><trkpt lat="45.0150134" lon="7.9751547"><ele>219.6</ele><time>2026-04-05T10:40:03.255Z</time></trkpt><trkpt lat="45.0149652" lon="7.9750371"><ele>219.2</ele><time>2026-04-05T10:40:04.255Z</time></trkpt><trkpt lat="45.0148855" lon="7.974859"><ele>218.8</ele><time>2026-04-05T10:40:06.255Z</time></trkpt><trkpt lat="45.0148444" lon="7.9747729"><ele>218.4</ele><time>2026-04-05T10:40:07.255Z</time></trkpt><trkpt lat="45.014804" lon="7.9746826"><ele>218.0</ele><time>2026-04-05T10:40:08.255Z</time></trkpt><trkpt lat="45.014746" lon="7.9745476"><ele>218.0</ele><time>2026-04-05T10:40:10.255Z</time></trkpt><trkpt lat="45.0147075" lon="7.9744564"><ele>218.0</ele><time>2026-04-05T10:40:12.255Z</time></trkpt><trkpt lat="45.014668" lon="7.974371"><ele>218.0</ele><time>2026-04-05T10:40:15.255Z</time></trkpt><trkpt lat="45.0145907" lon="7.9743716"><ele>218.0</ele><time>2026-04-05T10:40:18.255Z</time></trkpt><trkpt lat="45.0145284" lon="7.9744266"><ele>218.0</ele><time>2026-04-05T10:40:20.255Z</time></trkpt><trkpt lat="45.0144795" lon="7.9744911"><ele>218.0</ele><time>2026-04-05T10:40:22.255Z</time></trkpt><trkpt lat="45.0144218" lon="7.9745616"><ele>218.0</ele><time>2026-04-05T10:40:25.255Z</time></trkpt><trkpt lat="45.0142661" lon="7.9746931"><ele>218.00000000000003</ele><time>2026-04-05T10:40:31.255Z</time></trkpt><trkpt lat="45.0141977" lon="7.9746772"><ele>218.0</ele><time>2026-04-05T10:40:33.255Z</time></trkpt><trkpt lat="45.0141474" lon="7.9745614"><ele>218.0</ele><time>2026-04-05T10:40:35.255Z</time></trkpt><trkpt lat="45.0141206" lon="7.9744688"><ele>218.0</ele><time>2026-04-05T10:40:36.255Z</time></trkpt><trkpt lat="45.0140964" lon="7.9743676"><ele>218.00000000000003</ele><time>2026-04-05T10:40:37.255Z</time></trkpt><trkpt lat="45.0140716" lon="7.9742563"><ele>218.0</ele><time>2026-04-05T10:40:38.255Z</time></trkpt><trkpt lat="45.0140477" lon="7.9741661"><ele>218.2</ele><time>2026-04-05T10:40:39.255Z</time></trkpt><trkpt lat="45.0140179" lon="7.974028"><ele>218.4</ele><time>2026-04-05T10:40:41.255Z</time></trkpt><trkpt lat="45.0139292" lon="7.9739883"><ele>218.59999999999997</ele><time>2026-04-05T10:40:44.255Z</time></trkpt><trkpt lat="45.0138687" lon="7.9740319"><ele>218.79999999999998</ele><time>2026-04-05T10:40:45.255Z</time></trkpt><trkpt lat="45.0137897" lon="7.9740878"><ele>219.0</ele><time>2026-04-05T10:40:46.255Z</time></trkpt><trkpt lat="45.0136478" lon="7.9742027"><ele>219.0</ele><time>2026-04-05T10:40:48.255Z</time></trkpt><trkpt lat="45.0135817" lon="7.974254"><ele>219.0</ele><time>2026-04-05T10:40:49.255Z</time></trkpt><trkpt lat="45.0135238" lon="7.9743045"><ele>219.0</ele><time>2026-04-05T10:40:50.255Z</time></trkpt><trkpt lat="45.0134603" lon="7.9743476"><ele>219.0</ele><time>2026-04-05T10:40:51.255Z</time></trkpt><trkpt lat="45.0133843" lon="7.9743893"><ele>219.0</ele><time>2026-04-05T10:40:52.255Z</time></trkpt><trkpt lat="45.0132951" lon="7.9744238"><ele>219.0</ele><time>2026-04-05T10:40:53.255Z</time></trkpt><trkpt lat="45.0131847" lon="7.9744462"><ele>218.6</ele><time>2026-04-05T10:40:54.254Z</time></trkpt><trkpt lat="45.0130721" lon="7.9744888"><ele>218.2</ele><time>2026-04-05T10:40:55.255Z</time></trkpt><trkpt lat="45.0129841" lon="7.9745377"><ele>217.79999999999998</ele><time>2026-04-05T10:40:56.255Z</time></trkpt><trkpt lat="45.0129085" lon="7.9746046"><ele>217.39999999999998</ele><time>2026-04-05T10:40:57.255Z</time></trkpt><trkpt lat="45.0128401" lon="7.9746946"><ele>217.0</ele><time>2026-04-05T10:40:58.255Z</time></trkpt><trkpt lat="45.0127692" lon="7.9747991"><ele>217.0</ele><time>2026-04-05T10:40:59.255Z</time></trkpt><trkpt lat="45.0126956" lon="7.9749102"><ele>217.0</ele><time>2026-04-05T10:41:00.255Z</time></trkpt><trkpt lat="45.0126193" lon="7.9750324"><ele>217.0</ele><time>2026-04-05T10:41:01.255Z</time></trkpt><trkpt lat="45.0125396" lon="7.9751591"><ele>217.0</ele><time>2026-04-05T10:41:02.255Z</time></trkpt><trkpt lat="45.0124664" lon="7.9752766"><ele>218.39999999999998</ele><time>2026-04-05T10:41:03.255Z</time></trkpt><trkpt lat="45.0123953" lon="7.9753855"><ele>219.79999999999998</ele><time>2026-04-05T10:41:04.255Z</time></trkpt><trkpt lat="45.0123271" lon="7.9754861"><ele>221.2</ele><time>2026-04-05T10:41:05.255Z</time></trkpt><trkpt lat="45.0122658" lon="7.9755811"><ele>222.6</ele><time>2026-04-05T10:41:06.255Z</time></trkpt><trkpt lat="45.0122041" lon="7.9756687"><ele>224.0</ele><time>2026-04-05T10:41:07.255Z</time></trkpt><trkpt lat="45.0120907" lon="7.9758411"><ele>223.0</ele><time>2026-04-05T10:41:09.255Z</time></trkpt><trkpt lat="45.012039" lon="7.9759157"><ele>221.99999999999997</ele><time>2026-04-05T10:41:10.255Z</time></trkpt><trkpt lat="45.0119984" lon="7.975992"><ele>220.99999999999997</ele><time>2026-04-05T10:41:11.255Z</time></trkpt><trkpt lat="45.0119758" lon="7.976142"><ele>220.0</ele><time>2026-04-05T10:41:13.255Z</time></trkpt><trkpt lat="45.0120505" lon="7.976311"><ele>219.0</ele><time>2026-04-05T10:41:15.255Z</time></trkpt><trkpt lat="45.0121168" lon="7.9764132"><ele>219.0</ele><time>2026-04-05T10:41:16.255Z</time></trkpt><trkpt lat="45.01219" lon="7.9765208"><ele>218.99999999999997</ele><time>2026-04-05T10:41:17.255Z</time></trkpt><trkpt lat="45.0122512" lon="7.9766166"><ele>218.99999999999997</ele><time>2026-04-05T10:41:18.255Z</time></trkpt><trkpt lat="45.0123022" lon="7.9766971"><ele>219.0</ele><time>2026-04-05T10:41:19.255Z</time></trkpt><trkpt lat="45.0123551" lon="7.9768274"><ele>219.0</ele><time>2026-04-05T10:41:21.255Z</time></trkpt><trkpt lat="45.0123075" lon="7.9769596"><ele>218.6</ele><time>2026-04-05T10:41:23.255Z</time></trkpt><trkpt lat="45.0122492" lon="7.9770325"><ele>218.2</ele><time>2026-04-05T10:41:24.255Z</time></trkpt><trkpt lat="45.0121711" lon="7.9771216"><ele>217.79999999999998</ele><time>2026-04-05T10:41:25.255Z</time></trkpt><trkpt lat="45.0120858" lon="7.9772111"><ele>217.39999999999998</ele><time>2026-04-05T10:41:26.255Z</time></trkpt><trkpt lat="45.0120051" lon="7.9773102"><ele>217.0</ele><time>2026-04-05T10:41:27.255Z</time></trkpt><trkpt lat="45.0119284" lon="7.9774095"><ele>216.8</ele><time>2026-04-05T10:41:28.255Z</time></trkpt><trkpt lat="45.0117972" lon="7.9775796"><ele>216.6</ele><time>2026-04-05T10:41:30.255Z</time></trkpt><trkpt lat="45.0117491" lon="7.9776497"><ele>216.40000000000003</ele><time>2026-04-05T10:41:31.255Z</time></trkpt><trkpt lat="45.0117302" lon="7.9778016"><ele>216.20000000000002</ele><time>2026-04-05T10:41:33.255Z</time></trkpt><trkpt lat="45.0117604" lon="7.9778864"><ele>216.0</ele><time>2026-04-05T10:41:34.255Z</time></trkpt><trkpt lat="45.0118082" lon="7.9779882"><ele>216.0</ele><time>2026-04-05T10:41:35.255Z</time></trkpt><trkpt lat="45.0118579" lon="7.9780987"><ele>216.0</ele><time>2026-04-05T10:41:36.255Z</time></trkpt><trkpt lat="45.0119035" lon="7.9782101"><ele>216.0</ele><time>2026-04-05T10:41:37.255Z</time></trkpt><trkpt lat="45.0119464" lon="7.9783222"><ele>216.0</ele><time>2026-04-05T10:41:38.255Z</time></trkpt><trkpt lat="45.0119872" lon="7.9784263"><ele>216.0</ele><time>2026-04-05T10:41:39.255Z</time></trkpt><trkpt lat="45.0120211" lon="7.9785133"><ele>216.0</ele><time>2026-04-05T10:41:40.255Z</time></trkpt><trkpt lat="45.0120532" lon="7.9786645"><ele>215.83333333333334</ele><time>2026-04-05T10:41:42.255Z</time></trkpt><trkpt lat="45.0119892" lon="7.9787821"><ele>215.66666666666669</ele><time>2026-04-05T10:41:44.255Z</time></trkpt><trkpt lat="45.0119193" lon="7.9788211"><ele>215.5</ele><time>2026-04-05T10:41:45.254Z</time></trkpt><trkpt lat="45.0118392" lon="7.9788499"><ele>215.33333333333334</ele><time>2026-04-05T10:41:46.255Z</time></trkpt><trkpt lat="45.0117525" lon="7.9788781"><ele>215.16666666666669</ele><time>2026-04-05T10:41:47.255Z</time></trkpt><trkpt lat="45.0116854" lon="7.9789264"><ele>215.0</ele><time>2026-04-05T10:41:48.255Z</time></trkpt><trkpt lat="45.0116297" lon="7.9790001"><ele>214.75</ele><time>2026-04-05T10:41:49.255Z</time></trkpt><trkpt lat="45.0115251" lon="7.9792089"><ele>214.5</ele><time>2026-04-05T10:41:51.255Z</time></trkpt><trkpt lat="45.0114584" lon="7.9793096"><ele>214.25</ele><time>2026-04-05T10:41:52.255Z</time></trkpt><trkpt lat="45.0113789" lon="7.9793979"><ele>214.0</ele><time>2026-04-05T10:41:53.255Z</time></trkpt><trkpt lat="45.0112991" lon="7.9794776"><ele>214.0</ele><time>2026-04-05T10:41:54.255Z</time></trkpt><trkpt lat="45.0112279" lon="7.9795547"><ele>213.99999999999997</ele><time>2026-04-05T10:41:55.255Z</time></trkpt><trkpt lat="45.0111721" lon="7.9796493"><ele>213.99999999999997</ele><time>2026-04-05T10:41:56.255Z</time></trkpt><trkpt lat="45.0111235" lon="7.9797547"><ele>214.0</ele><time>2026-04-05T10:41:57.255Z</time></trkpt><trkpt lat="45.0110945" lon="7.9798892"><ele>214.0</ele><time>2026-04-05T10:41:58.255Z</time></trkpt><trkpt lat="45.0110829" lon="7.9800271"><ele>213.99999999999997</ele><time>2026-04-05T10:41:59.255Z</time></trkpt><trkpt lat="45.0110611" lon="7.9801581"><ele>214.0</ele><time>2026-04-05T10:42:00.255Z</time></trkpt><trkpt lat="45.0110191" lon="7.9802589"><ele>214.0</ele><time>2026-04-05T10:42:01.255Z</time></trkpt><trkpt lat="45.0109615" lon="7.9803303"><ele>214.0</ele><time>2026-04-05T10:42:02.255Z</time></trkpt><trkpt lat="45.0108911" lon="7.9803689"><ele>213.99999999999997</ele><time>2026-04-05T10:42:03.255Z</time></trkpt><trkpt lat="45.0107983" lon="7.9803947"><ele>214.0</ele><time>2026-04-05T10:42:04.255Z</time></trkpt><trkpt lat="45.0106868" lon="7.9804317"><ele>214.0</ele><time>2026-04-05T10:42:05.255Z</time></trkpt><trkpt lat="45.010561" lon="7.9804764"><ele>214.0</ele><time>2026-04-05T10:42:06.255Z</time></trkpt><trkpt lat="45.0104302" lon="7.980527"><ele>214.0</ele><time>2026-04-05T10:42:07.255Z</time></trkpt><trkpt lat="45.0103079" lon="7.9805838"><ele>214.0</ele><time>2026-04-05T10:42:08.255Z</time></trkpt><trkpt lat="45.0101933" lon="7.9806485"><ele>214.0</ele><time>2026-04-05T10:42:09.255Z</time></trkpt><trkpt lat="45.0100712" lon="7.9807173"><ele>214.0</ele><time>2026-04-05T10:42:10.255Z</time></trkpt><trkpt lat="45.0098165" lon="7.9808602"><ele>214.0</ele><time>2026-04-05T10:42:12.255Z</time></trkpt><trkpt lat="45.0097065" lon="7.9809215"><ele>213.2</ele><time>2026-04-05T10:42:13.255Z</time></trkpt><trkpt lat="45.0096082" lon="7.9809716"><ele>212.39999999999998</ele><time>2026-04-05T10:42:14.255Z</time></trkpt><trkpt lat="45.0095083" lon="7.9810248"><ele>211.6</ele><time>2026-04-05T10:42:15.255Z</time></trkpt><trkpt lat="45.0093996" lon="7.9810785"><ele>210.8</ele><time>2026-04-05T10:42:16.254Z</time></trkpt><trkpt lat="45.0092975" lon="7.9811356"><ele>210.0</ele><time>2026-04-05T10:42:17.255Z</time></trkpt><trkpt lat="45.009201" lon="7.9811896"><ele>210.0</ele><time>2026-04-05T10:42:18.255Z</time></trkpt><trkpt lat="45.0091153" lon="7.9812428"><ele>210.0</ele><time>2026-04-05T10:42:19.255Z</time></trkpt><trkpt lat="45.0090454" lon="7.9812818"><ele>210.0</ele><time>2026-04-05T10:42:20.255Z</time></trkpt><trkpt lat="45.0089729" lon="7.9813561"><ele>210.0</ele><time>2026-04-05T10:42:22.255Z</time></trkpt><trkpt lat="45.0089972" lon="7.9814607"><ele>210.0</ele><time>2026-04-05T10:42:24.255Z</time></trkpt><trkpt lat="45.0090305" lon="7.9815371"><ele>210.0</ele><time>2026-04-05T10:42:25.255Z</time></trkpt><trkpt lat="45.0090599" lon="7.9816196"><ele>210.0</ele><time>2026-04-05T10:42:26.255Z</time></trkpt><trkpt lat="45.0090681" lon="7.981757"><ele>210.0</ele><time>2026-04-05T10:42:28.255Z</time></trkpt><trkpt lat="45.0089749" lon="7.9818378"><ele>210.0</ele><time>2026-04-05T10:42:30.255Z</time></trkpt><trkpt lat="45.0088981" lon="7.981848"><ele>210.0</ele><time>2026-04-05T10:42:31.255Z</time></trkpt><trkpt lat="45.0087141" lon="7.9818318"><ele>210.0</ele><time>2026-04-05T10:42:33.255Z</time></trkpt><trkpt lat="45.0086171" lon="7.9818232"><ele>210.0</ele><time>2026-04-05T10:42:34.255Z</time></trkpt><trkpt lat="45.0085266" lon="7.9818284"><ele>210.0</ele><time>2026-04-05T10:42:35.255Z</time></trkpt><trkpt lat="45.0084396" lon="7.9818613"><ele>210.0</ele><time>2026-04-05T10:42:36.255Z</time></trkpt><trkpt lat="45.0083692" lon="7.9819149"><ele>210.0</ele><time>2026-04-05T10:42:37.255Z</time></trkpt><trkpt lat="45.0083099" lon="7.9819868"><ele>210.0</ele><time>2026-04-05T10:42:38.255Z</time></trkpt><trkpt lat="45.008271" lon="7.9820691"><ele>210.16666666666666</ele><time>2026-04-05T10:42:39.255Z</time></trkpt><trkpt lat="45.0082605" lon="7.9821719"><ele>210.33333333333331</ele><time>2026-04-05T10:42:40.255Z</time></trkpt><trkpt lat="45.0082572" lon="7.9822778"><ele>210.5</ele><time>2026-04-05T10:42:41.255Z</time></trkpt><trkpt lat="45.0082347" lon="7.9823772"><ele>210.66666666666666</ele><time>2026-04-05T10:42:42.255Z</time></trkpt><trkpt lat="45.0081908" lon="7.9824679"><ele>210.83333333333331</ele><time>2026-04-05T10:42:43.255Z</time></trkpt><trkpt lat="45.0081279" lon="7.9825658"><ele>211.0</ele><time>2026-04-05T10:42:44.255Z</time></trkpt><trkpt lat="45.008053" lon="7.9826705"><ele>211.0</ele><time>2026-04-05T10:42:45.255Z</time></trkpt><trkpt lat="45.0079781" lon="7.9827693"><ele>211.0</ele><time>2026-04-05T10:42:46.255Z</time></trkpt><trkpt lat="45.0079019" lon="7.9828539"><ele>211.0</ele><time>2026-04-05T10:42:47.255Z</time></trkpt><trkpt lat="45.0078214" lon="7.9829297"><ele>211.0</ele><time>2026-04-05T10:42:48.255Z</time></trkpt><trkpt lat="45.0077396" lon="7.9829912"><ele>211.0</ele><time>2026-04-05T10:42:49.255Z</time></trkpt><trkpt lat="45.0076686" lon="7.9830594"><ele>211.0</ele><time>2026-04-05T10:42:50.255Z</time></trkpt><trkpt lat="45.0076106" lon="7.98315"><ele>211.0</ele><time>2026-04-05T10:42:51.255Z</time></trkpt><trkpt lat="45.0075574" lon="7.983246"><ele>211.0</ele><time>2026-04-05T10:42:52.255Z</time></trkpt><trkpt lat="45.0074326" lon="7.9834114"><ele>211.0</ele><time>2026-04-05T10:42:54.255Z</time></trkpt><trkpt lat="45.0073498" lon="7.9834653"><ele>211.0</ele><time>2026-04-05T10:42:55.255Z</time></trkpt><trkpt lat="45.0072516" lon="7.9835158"><ele>211.0</ele><time>2026-04-05T10:42:56.255Z</time></trkpt><trkpt lat="45.0071421" lon="7.9835678"><ele>211.0</ele><time>2026-04-05T10:42:57.255Z</time></trkpt><trkpt lat="45.0070352" lon="7.9836221"><ele>211.0</ele><time>2026-04-05T10:42:58.255Z</time></trkpt><trkpt lat="45.0069225" lon="7.9836738"><ele>211.0</ele><time>2026-04-05T10:42:59.255Z</time></trkpt><trkpt lat="45.0068165" lon="7.9837271"><ele>211.0</ele><time>2026-04-05T10:43:00.255Z</time></trkpt><trkpt lat="45.0067167" lon="7.9837843"><ele>211.0</ele><time>2026-04-05T10:43:01.255Z</time></trkpt><trkpt lat="45.006625" lon="7.9838528"><ele>211.0</ele><time>2026-04-05T10:43:02.255Z</time></trkpt><trkpt lat="45.0065403" lon="7.9839194"><ele>211.0</ele><time>2026-04-05T10:43:03.254Z</time></trkpt><trkpt lat="45.006461" lon="7.9839863"><ele>211.0</ele><time>2026-04-05T10:43:04.255Z</time></trkpt><trkpt lat="45.0063765" lon="7.9840454"><ele>211.20000000000002</ele><time>2026-04-05T10:43:05.255Z</time></trkpt><trkpt lat="45.0062789" lon="7.9840862"><ele>211.4</ele><time>2026-04-05T10:43:06.255Z</time></trkpt><trkpt lat="45.0061746" lon="7.9840922"><ele>211.6</ele><time>2026-04-05T10:43:07.255Z</time></trkpt><trkpt lat="45.0060648" lon="7.9840766"><ele>211.8</ele><time>2026-04-05T10:43:08.255Z</time></trkpt><trkpt lat="45.005959" lon="7.9840614"><ele>212.0</ele><time>2026-04-05T10:43:09.255Z</time></trkpt><trkpt lat="45.0058526" lon="7.9840452"><ele>211.75</ele><time>2026-04-05T10:43:10.255Z</time></trkpt><trkpt lat="45.00576" lon="7.9840394"><ele>211.5</ele><time>2026-04-05T10:43:11.255Z</time></trkpt><trkpt lat="45.0056631" lon="7.9840444"><ele>211.25</ele><time>2026-04-05T10:43:12.255Z</time></trkpt><trkpt lat="45.0055713" lon="7.9840703"><ele>211.0</ele><time>2026-04-05T10:43:13.255Z</time></trkpt><trkpt lat="45.0053865" lon="7.9841337"><ele>210.99999999999997</ele><time>2026-04-05T10:43:15.255Z</time></trkpt><trkpt lat="45.005299" lon="7.9841486"><ele>211.0</ele><time>2026-04-05T10:43:16.255Z</time></trkpt><trkpt lat="45.0052135" lon="7.9841416"><ele>211.0</ele><time>2026-04-05T10:43:17.255Z</time></trkpt><trkpt lat="45.0051292" lon="7.9841083"><ele>211.0</ele><time>2026-04-05T10:43:18.255Z</time></trkpt><trkpt lat="45.0050507" lon="7.9840632"><ele>210.99999999999997</ele><time>2026-04-05T10:43:19.255Z</time></trkpt><trkpt lat="45.0049778" lon="7.984037"><ele>211.0</ele><time>2026-04-05T10:43:20.255Z</time></trkpt><trkpt lat="45.0049133" lon="7.9840479"><ele>210.99999999999997</ele><time>2026-04-05T10:43:21.255Z</time></trkpt><trkpt lat="45.0048574" lon="7.9841044"><ele>211.0</ele><time>2026-04-05T10:43:22.255Z</time></trkpt><trkpt lat="45.0048179" lon="7.9841962"><ele>211.0</ele><time>2026-04-05T10:43:23.255Z</time></trkpt><trkpt lat="45.0047821" lon="7.984322"><ele>211.0</ele><time>2026-04-05T10:43:24.255Z</time></trkpt><trkpt lat="45.004739" lon="7.984448"><ele>210.99999999999997</ele><time>2026-04-05T10:43:25.255Z</time></trkpt><trkpt lat="45.0046806" lon="7.9845469"><ele>211.0</ele><time>2026-04-05T10:43:26.255Z</time></trkpt><trkpt lat="45.0046046" lon="7.9846164"><ele>210.20000000000002</ele><time>2026-04-05T10:43:27.255Z</time></trkpt><trkpt lat="45.0045129" lon="7.9846505"><ele>209.4</ele><time>2026-04-05T10:43:28.255Z</time></trkpt><trkpt lat="45.0044161" lon="7.9846616"><ele>208.6</ele><time>2026-04-05T10:43:29.255Z</time></trkpt><trkpt lat="45.0043161" lon="7.9846637"><ele>207.8</ele><time>2026-04-05T10:43:30.255Z</time></trkpt><trkpt lat="45.0042197" lon="7.9846803"><ele>207.0</ele><time>2026-04-05T10:43:31.255Z</time></trkpt><trkpt lat="45.0041282" lon="7.9847141"><ele>206.8</ele><time>2026-04-05T10:43:32.255Z</time></trkpt><trkpt lat="45.0040416" lon="7.9847508"><ele>206.6</ele><time>2026-04-05T10:43:33.255Z</time></trkpt><trkpt lat="45.003971" lon="7.9847785"><ele>206.4</ele><time>2026-04-05T10:43:34.255Z</time></trkpt><trkpt lat="45.0038082" lon="7.9846729"><ele>206.20000000000002</ele><time>2026-04-05T10:43:37.255Z</time></trkpt><trkpt lat="45.0037407" lon="7.9845953"><ele>206.0</ele><time>2026-04-05T10:43:38.255Z</time></trkpt><trkpt lat="45.0036575" lon="7.9845231"><ele>206.0</ele><time>2026-04-05T10:43:39.255Z</time></trkpt><trkpt lat="45.0035694" lon="7.9844694"><ele>206.0</ele><time>2026-04-05T10:43:40.255Z</time></trkpt><trkpt lat="45.003469" lon="7.9844455"><ele>206.0</ele><time>2026-04-05T10:43:41.255Z</time></trkpt><trkpt lat="45.0033578" lon="7.9844555"><ele>206.0</ele><time>2026-04-05T10:43:42.255Z</time></trkpt><trkpt lat="45.0032334" lon="7.9844807"><ele>206.0</ele><time>2026-04-05T10:43:43.255Z</time></trkpt><trkpt lat="45.0031101" lon="7.9845119"><ele>206.25</ele><time>2026-04-05T10:43:44.255Z</time></trkpt><trkpt lat="45.0029853" lon="7.98455"><ele>206.5</ele><time>2026-04-05T10:43:45.254Z</time></trkpt><trkpt lat="45.0028581" lon="7.984583"><ele>206.75</ele><time>2026-04-05T10:43:46.254Z</time></trkpt><trkpt lat="45.0027454" lon="7.9846135"><ele>207.0</ele><time>2026-04-05T10:43:47.254Z</time></trkpt><trkpt lat="45.0026485" lon="7.9846531"><ele>207.0</ele><time>2026-04-05T10:43:48.254Z</time></trkpt><trkpt lat="45.0025603" lon="7.9847"><ele>207.0</ele><time>2026-04-05T10:43:49.254Z</time></trkpt><trkpt lat="45.0024788" lon="7.9847459"><ele>207.0</ele><time>2026-04-05T10:43:50.254Z</time></trkpt><trkpt lat="45.0024009" lon="7.9847788"><ele>207.0</ele><time>2026-04-05T10:43:51.254Z</time></trkpt><trkpt lat="45.0023217" lon="7.9847961"><ele>207.0</ele><time>2026-04-05T10:43:52.254Z</time></trkpt><trkpt lat="45.0022346" lon="7.9848138"><ele>207.0</ele><time>2026-04-05T10:43:53.254Z</time></trkpt><trkpt lat="45.0021455" lon="7.9848311"><ele>206.25</ele><time>2026-04-05T10:43:54.254Z</time></trkpt><trkpt lat="45.0020647" lon="7.9848518"><ele>205.5</ele><time>2026-04-05T10:43:55.254Z</time></trkpt><trkpt lat="45.0018905" lon="7.9849104"><ele>204.75</ele><time>2026-04-05T10:43:57.254Z</time></trkpt><trkpt lat="45.0017789" lon="7.9849549"><ele>204.0</ele><time>2026-04-05T10:43:58.254Z</time></trkpt><trkpt lat="45.0016539" lon="7.9850037"><ele>204.75</ele><time>2026-04-05T10:43:59.254Z</time></trkpt><trkpt lat="45.0015386" lon="7.9850525"><ele>205.5</ele><time>2026-04-05T10:44:00.254Z</time></trkpt><trkpt lat="45.0014305" lon="7.9850938"><ele>206.25</ele><time>2026-04-05T10:44:01.254Z</time></trkpt><trkpt lat="45.001325" lon="7.9851377"><ele>207.0</ele><time>2026-04-05T10:44:02.254Z</time></trkpt><trkpt lat="45.0012188" lon="7.985178"><ele>207.0</ele><time>2026-04-05T10:44:03.254Z</time></trkpt><trkpt lat="45.0011131" lon="7.9852081"><ele>207.0</ele><time>2026-04-05T10:44:04.254Z</time></trkpt><trkpt lat="45.0010157" lon="7.9852421"><ele>207.0</ele><time>2026-04-05T10:44:05.254Z</time></trkpt><trkpt lat="45.0009298" lon="7.9852833"><ele>207.0</ele><time>2026-04-05T10:44:06.254Z</time></trkpt><trkpt lat="45.0008572" lon="7.9853137"><ele>207.0</ele><time>2026-04-05T10:44:07.254Z</time></trkpt><trkpt lat="45.0007924" lon="7.985328"><ele>207.0</ele><time>2026-04-05T10:44:08.254Z</time></trkpt><trkpt lat="45.0006906" lon="7.9852914"><ele>206.16666666666666</ele><time>2026-04-05T10:44:10.254Z</time></trkpt><trkpt lat="45.0006415" lon="7.9851467"><ele>205.33333333333331</ele><time>2026-04-05T10:44:12.254Z</time></trkpt><trkpt lat="45.0006471" lon="7.9850389"><ele>204.5</ele><time>2026-04-05T10:44:13.254Z</time></trkpt><trkpt lat="45.0006447" lon="7.9849246"><ele>203.66666666666666</ele><time>2026-04-05T10:44:14.254Z</time></trkpt><trkpt lat="45.0006253" lon="7.9848104"><ele>202.83333333333331</ele><time>2026-04-05T10:44:15.254Z</time></trkpt><trkpt lat="45.0005849" lon="7.9847013"><ele>202.0</ele><time>2026-04-05T10:44:16.254Z</time></trkpt><trkpt lat="45.0004531" lon="7.9844918"><ele>202.0</ele><time>2026-04-05T10:44:18.254Z</time></trkpt><trkpt lat="45.0003835" lon="7.9843729"><ele>202.0</ele><time>2026-04-05T10:44:19.254Z</time></trkpt><trkpt lat="45.000317" lon="7.9842565"><ele>202.0</ele><time>2026-04-05T10:44:20.254Z</time></trkpt><trkpt lat="45.0002548" lon="7.9841546"><ele>202.0</ele><time>2026-04-05T10:44:21.254Z</time></trkpt><trkpt lat="45.0001972" lon="7.9840625"><ele>202.0</ele><time>2026-04-05T10:44:22.254Z</time></trkpt><trkpt lat="45.0001395" lon="7.983975"><ele>202.49999999999997</ele><time>2026-04-05T10:44:23.254Z</time></trkpt><trkpt lat="45.0000913" lon="7.9838892"><ele>203.0</ele><time>2026-04-05T10:44:24.254Z</time></trkpt><trkpt lat="45.000059" lon="7.9838094"><ele>203.5</ele><time>2026-04-05T10:44:25.254Z</time></trkpt><trkpt lat="44.9999848" lon="7.9837375"><ele>204.0</ele><time>2026-04-05T10:44:27.254Z</time></trkpt><trkpt lat="44.999874" lon="7.9837927"><ele>204.49999999999997</ele><time>2026-04-05T10:44:29.254Z</time></trkpt><trkpt lat="44.9998073" lon="7.9838525"><ele>205.0</ele><time>2026-04-05T10:44:30.254Z</time></trkpt><trkpt lat="44.9997286" lon="7.9839336"><ele>205.0</ele><time>2026-04-05T10:44:31.254Z</time></trkpt><trkpt lat="44.9996457" lon="7.984019"><ele>205.0</ele><time>2026-04-05T10:44:32.254Z</time></trkpt><trkpt lat="44.9995601" lon="7.9841113"><ele>205.0</ele><time>2026-04-05T10:44:33.254Z</time></trkpt><trkpt lat="44.9994717" lon="7.9841983"><ele>205.0</ele><time>2026-04-05T10:44:34.254Z</time></trkpt><trkpt lat="44.9993836" lon="7.9842886"><ele>205.0</ele><time>2026-04-05T10:44:35.254Z</time></trkpt><trkpt lat="44.9992951" lon="7.9843798"><ele>204.25</ele><time>2026-04-05T10:44:36.254Z</time></trkpt><trkpt lat="44.9992099" lon="7.9844622"><ele>203.5</ele><time>2026-04-05T10:44:37.254Z</time></trkpt><trkpt lat="44.9990392" lon="7.9846117"><ele>202.75</ele><time>2026-04-05T10:44:39.254Z</time></trkpt><trkpt lat="44.9989507" lon="7.9846889"><ele>202.0</ele><time>2026-04-05T10:44:40.254Z</time></trkpt><trkpt lat="44.998862" lon="7.9847717"><ele>202.0</ele><time>2026-04-05T10:44:41.254Z</time></trkpt><trkpt lat="44.998771" lon="7.9848577"><ele>202.0</ele><time>2026-04-05T10:44:42.254Z</time></trkpt><trkpt lat="44.9986886" lon="7.9849399"><ele>202.0</ele><time>2026-04-05T10:44:43.254Z</time></trkpt><trkpt lat="44.9986064" lon="7.9850192"><ele>202.0</ele><time>2026-04-05T10:44:44.254Z</time></trkpt><trkpt lat="44.998513" lon="7.9850921"><ele>202.0</ele><time>2026-04-05T10:44:45.254Z</time></trkpt><trkpt lat="44.9984128" lon="7.9851608"><ele>202.8</ele><time>2026-04-05T10:44:46.254Z</time></trkpt><trkpt lat="44.9983118" lon="7.9852267"><ele>203.6</ele><time>2026-04-05T10:44:47.254Z</time></trkpt><trkpt lat="44.9982155" lon="7.9852847"><ele>204.4</ele><time>2026-04-05T10:44:48.254Z</time></trkpt><trkpt lat="44.9981291" lon="7.9853339"><ele>205.20000000000002</ele><time>2026-04-05T10:44:49.254Z</time></trkpt><trkpt lat="44.998053" lon="7.9853768"><ele>206.0</ele><time>2026-04-05T10:44:50.254Z</time></trkpt><trkpt lat="44.9979832" lon="7.9854138"><ele>206.0</ele><time>2026-04-05T10:44:51.254Z</time></trkpt><trkpt lat="44.9978754" lon="7.9854312"><ele>206.0</ele><time>2026-04-05T10:44:53.254Z</time></trkpt><trkpt lat="44.9977887" lon="7.9853644"><ele>206.0</ele><time>2026-04-05T10:44:55.254Z</time></trkpt><trkpt lat="44.9977051" lon="7.9853298"><ele>206.0</ele><time>2026-04-05T10:44:57.254Z</time></trkpt><trkpt lat="44.99762" lon="7.985417"><ele>206.0</ele><time>2026-04-05T10:44:59.254Z</time></trkpt><trkpt lat="44.9975839" lon="7.9855961"><ele>206.00000000000003</ele><time>2026-04-05T10:45:01.254Z</time></trkpt><trkpt lat="44.9976033" lon="7.985689"><ele>206.0</ele><time>2026-04-05T10:45:02.254Z</time></trkpt><trkpt lat="44.9976189" lon="7.9858456"><ele>206.0</ele><time>2026-04-05T10:45:04.254Z</time></trkpt><trkpt lat="44.9975801" lon="7.9859628"><ele>206.0</ele><time>2026-04-05T10:45:06.254Z</time></trkpt><trkpt lat="44.9975223" lon="7.9860371"><ele>206.00000000000003</ele><time>2026-04-05T10:45:08.254Z</time></trkpt><trkpt lat="44.9974674" lon="7.9861271"><ele>206.0</ele><time>2026-04-05T10:45:11.254Z</time></trkpt><trkpt lat="44.9974135" lon="7.9861753"><ele>206.8</ele><time>2026-04-05T10:45:14.254Z</time></trkpt><trkpt lat="44.9973772" lon="7.9862508"><ele>207.60000000000002</ele><time>2026-04-05T10:45:16.254Z</time></trkpt><trkpt lat="44.99732" lon="7.9863406"><ele>208.4</ele><time>2026-04-05T10:45:18.254Z</time></trkpt><trkpt lat="44.9972433" lon="7.9864614"><ele>209.2</ele><time>2026-04-05T10:45:20.254Z</time></trkpt><trkpt lat="44.9971608" lon="7.9866136"><ele>210.0</ele><time>2026-04-05T10:45:22.254Z</time></trkpt><trkpt lat="44.9971212" lon="7.9866886"><ele>210.0</ele><time>2026-04-05T10:45:23.254Z</time></trkpt><trkpt lat="44.9970382" lon="7.9867742"><ele>210.0</ele><time>2026-04-05T10:45:25.254Z</time></trkpt><trkpt lat="44.9969357" lon="7.9867655"><ele>210.0</ele><time>2026-04-05T10:45:27.254Z</time></trkpt><trkpt lat="44.9968292" lon="7.9866907"><ele>210.0</ele><time>2026-04-05T10:45:29.254Z</time></trkpt><trkpt lat="44.9967631" lon="7.9866434"><ele>210.0</ele><time>2026-04-05T10:45:30.254Z</time></trkpt><trkpt lat="44.9966791" lon="7.9866046"><ele>210.5</ele><time>2026-04-05T10:45:31.254Z</time></trkpt><trkpt lat="44.99658" lon="7.9865861"><ele>211.0</ele><time>2026-04-05T10:45:32.254Z</time></trkpt><trkpt lat="44.9964866" lon="7.9865857"><ele>211.5</ele><time>2026-04-05T10:45:33.254Z</time></trkpt><trkpt lat="44.9964169" lon="7.9866155"><ele>212.0</ele><time>2026-04-05T10:45:34.254Z</time></trkpt><trkpt lat="44.9963619" lon="7.9866683"><ele>212.5</ele><time>2026-04-05T10:45:35.254Z</time></trkpt><trkpt lat="44.9963396" lon="7.9867595"><ele>213.0</ele><time>2026-04-05T10:45:36.254Z</time></trkpt><trkpt lat="44.9963149" lon="7.9868564"><ele>215.2</ele><time>2026-04-05T10:45:37.254Z</time></trkpt><trkpt lat="44.9962863" lon="7.9869466"><ele>217.4</ele><time>2026-04-05T10:45:38.254Z</time></trkpt><trkpt lat="44.9962579" lon="7.9870388"><ele>219.59999999999997</ele><time>2026-04-05T10:45:39.254Z</time></trkpt><trkpt lat="44.9962236" lon="7.9871371"><ele>221.79999999999998</ele><time>2026-04-05T10:45:40.254Z</time></trkpt><trkpt lat="44.9961901" lon="7.9872371"><ele>224.0</ele><time>2026-04-05T10:45:41.254Z</time></trkpt><trkpt lat="44.9961271" lon="7.9874388"><ele>223.83333333333334</ele><time>2026-04-05T10:45:43.254Z</time></trkpt><trkpt lat="44.9961062" lon="7.9875302"><ele>223.66666666666669</ele><time>2026-04-05T10:45:44.254Z</time></trkpt><trkpt lat="44.9960877" lon="7.98762"><ele>223.5</ele><time>2026-04-05T10:45:45.254Z</time></trkpt><trkpt lat="44.9960737" lon="7.9877102"><ele>223.33333333333331</ele><time>2026-04-05T10:45:46.254Z</time></trkpt><trkpt lat="44.9960567" lon="7.9878781"><ele>223.16666666666666</ele><time>2026-04-05T10:45:48.254Z</time></trkpt><trkpt lat="44.9960523" lon="7.987967"><ele>223.0</ele><time>2026-04-05T10:45:49.254Z</time></trkpt><trkpt lat="44.9960488" lon="7.9881026"><ele>222.99999999999997</ele><time>2026-04-05T10:45:51.254Z</time></trkpt><trkpt lat="44.9960864" lon="7.9882076"><ele>223.0</ele><time>2026-04-05T10:45:53.254Z</time></trkpt><trkpt lat="44.99615" lon="7.9882646"><ele>223.0</ele><time>2026-04-05T10:45:55.254Z</time></trkpt><trkpt lat="44.9962269" lon="7.9883181"><ele>223.0</ele><time>2026-04-05T10:45:57.254Z</time></trkpt><trkpt lat="44.9963375" lon="7.9883738"><ele>222.99999999999997</ele><time>2026-04-05T10:45:59.254Z</time></trkpt><trkpt lat="44.9964026" lon="7.9884074"><ele>223.0</ele><time>2026-04-05T10:46:00.254Z</time></trkpt><trkpt lat="44.9964747" lon="7.9884585"><ele>223.2</ele><time>2026-04-05T10:46:01.254Z</time></trkpt><trkpt lat="44.9965436" lon="7.9885121"><ele>223.4</ele><time>2026-04-05T10:46:02.254Z</time></trkpt><trkpt lat="44.9966816" lon="7.988582"><ele>223.59999999999997</ele><time>2026-04-05T10:46:04.254Z</time></trkpt><trkpt lat="44.9967597" lon="7.9886069"><ele>223.79999999999998</ele><time>2026-04-05T10:46:05.254Z</time></trkpt><trkpt lat="44.9968479" lon="7.9886216"><ele>224.0</ele><time>2026-04-05T10:46:06.254Z</time></trkpt><trkpt lat="44.9969282" lon="7.9886294"><ele>224.57142857142856</ele><time>2026-04-05T10:46:07.254Z</time></trkpt><trkpt lat="44.9970095" lon="7.9886316"><ele>225.14285714285714</ele><time>2026-04-05T10:46:08.254Z</time></trkpt><trkpt lat="44.9970787" lon="7.9886485"><ele>225.71428571428572</ele><time>2026-04-05T10:46:09.254Z</time></trkpt><trkpt lat="44.9971441" lon="7.9886777"><ele>226.28571428571428</ele><time>2026-04-05T10:46:10.254Z</time></trkpt><trkpt lat="44.997205" lon="7.9887111"><ele>226.85714285714283</ele><time>2026-04-05T10:46:11.254Z</time></trkpt><trkpt lat="44.9972686" lon="7.9887372"><ele>227.42857142857142</ele><time>2026-04-05T10:46:12.254Z</time></trkpt><trkpt lat="44.997338" lon="7.9887495"><ele>228.0</ele><time>2026-04-05T10:46:13.254Z</time></trkpt><trkpt lat="44.9974015" lon="7.9887644"><ele>228.0</ele><time>2026-04-05T10:46:14.254Z</time></trkpt><trkpt lat="44.9975008" lon="7.9888386"><ele>228.0</ele><time>2026-04-05T10:46:16.254Z</time></trkpt><trkpt lat="44.9975438" lon="7.9889856"><ele>228.0</ele><time>2026-04-05T10:46:18.254Z</time></trkpt><trkpt lat="44.997544" lon="7.9890836"><ele>228.0</ele><time>2026-04-05T10:46:19.254Z</time></trkpt><trkpt lat="44.9975356" lon="7.9891944"><ele>228.0</ele><time>2026-04-05T10:46:20.254Z</time></trkpt><trkpt lat="44.9975101" lon="7.9893244"><ele>229.0</ele><time>2026-04-05T10:46:21.254Z</time></trkpt><trkpt lat="44.9974674" lon="7.989465"><ele>230.0</ele><time>2026-04-05T10:46:22.254Z</time></trkpt><trkpt lat="44.9974202" lon="7.9896062"><ele>231.0</ele><time>2026-04-05T10:46:23.253Z</time></trkpt><trkpt lat="44.9973315" lon="7.989879"><ele>232.0</ele><time>2026-04-05T10:46:25.254Z</time></trkpt><trkpt lat="44.9972933" lon="7.9899888"><ele>232.2</ele><time>2026-04-05T10:46:26.254Z</time></trkpt><trkpt lat="44.9972573" lon="7.9900777"><ele>232.39999999999998</ele><time>2026-04-05T10:46:27.254Z</time></trkpt><trkpt lat="44.9972184" lon="7.9901602"><ele>232.60000000000002</ele><time>2026-04-05T10:46:28.254Z</time></trkpt><trkpt lat="44.9971793" lon="7.9902413"><ele>232.8</ele><time>2026-04-05T10:46:29.254Z</time></trkpt><trkpt lat="44.997105" lon="7.9903656"><ele>233.0</ele><time>2026-04-05T10:46:31.254Z</time></trkpt><trkpt lat="44.9970828" lon="7.9905418"><ele>233.00000000000003</ele><time>2026-04-05T10:46:33.254Z</time></trkpt><trkpt lat="44.9970962" lon="7.9906536"><ele>233.0</ele><time>2026-04-05T10:46:34.254Z</time></trkpt><trkpt lat="44.9971144" lon="7.9907712"><ele>233.0</ele><time>2026-04-05T10:46:35.254Z</time></trkpt><trkpt lat="44.9971422" lon="7.9908805"><ele>233.0</ele><time>2026-04-05T10:46:36.254Z</time></trkpt><trkpt lat="44.9971683" lon="7.9909746"><ele>233.00000000000003</ele><time>2026-04-05T10:46:37.254Z</time></trkpt><trkpt lat="44.9971975" lon="7.9911071"><ele>233.0</ele><time>2026-04-05T10:46:39.254Z</time></trkpt><trkpt lat="44.9971854" lon="7.99125"><ele>233.0</ele><time>2026-04-05T10:46:41.254Z</time></trkpt><trkpt lat="44.9971228" lon="7.9913718"><ele>233.0</ele><time>2026-04-05T10:46:43.254Z</time></trkpt><trkpt lat="44.9970215" lon="7.9914513"><ele>233.0</ele><time>2026-04-05T10:46:45.254Z</time></trkpt><trkpt lat="44.9967977" lon="7.9915859"><ele>233.50000000000003</ele><time>2026-04-05T10:46:49.254Z</time></trkpt><trkpt lat="44.9967057" lon="7.9917084"><ele>234.0</ele><time>2026-04-05T10:46:51.254Z</time></trkpt><trkpt lat="44.9966536" lon="7.9917719"><ele>234.5</ele><time>2026-04-05T10:46:52.254Z</time></trkpt><trkpt lat="44.996603" lon="7.9918335"><ele>235.0</ele><time>2026-04-05T10:46:53.254Z</time></trkpt><trkpt lat="44.9965556" lon="7.9918962"><ele>235.50000000000003</ele><time>2026-04-05T10:46:54.254Z</time></trkpt><trkpt lat="44.996483" lon="7.9920224"><ele>236.0</ele><time>2026-04-05T10:46:56.254Z</time></trkpt><trkpt lat="44.9964523" lon="7.9921682"><ele>237.83333333333334</ele><time>2026-04-05T10:46:58.254Z</time></trkpt><trkpt lat="44.9964629" lon="7.9922617"><ele>239.66666666666669</ele><time>2026-04-05T10:46:59.254Z</time></trkpt><trkpt lat="44.9964791" lon="7.9923618"><ele>241.5</ele><time>2026-04-05T10:47:00.254Z</time></trkpt><trkpt lat="44.9964921" lon="7.9924527"><ele>243.33333333333331</ele><time>2026-04-05T10:47:01.254Z</time></trkpt><trkpt lat="44.9964803" lon="7.9926111"><ele>245.16666666666666</ele><time>2026-04-05T10:47:03.254Z</time></trkpt><trkpt lat="44.9964238" lon="7.9927589"><ele>247.0</ele><time>2026-04-05T10:47:05.254Z</time></trkpt><trkpt lat="44.9963486" lon="7.9929079"><ele>248.25</ele><time>2026-04-05T10:47:07.254Z</time></trkpt><trkpt lat="44.9962846" lon="7.9931557"><ele>249.5</ele><time>2026-04-05T10:47:10.254Z</time></trkpt><trkpt lat="44.9962565" lon="7.9933288"><ele>250.75</ele><time>2026-04-05T10:47:12.254Z</time></trkpt><trkpt lat="44.9962396" lon="7.9934247"><ele>252.0</ele><time>2026-04-05T10:47:13.254Z</time></trkpt><trkpt lat="44.9962274" lon="7.9935247"><ele>252.5</ele><time>2026-04-05T10:47:14.254Z</time></trkpt><trkpt lat="44.9962162" lon="7.9936385"><ele>253.0</ele><time>2026-04-05T10:47:15.254Z</time></trkpt><trkpt lat="44.996209" lon="7.993755"><ele>253.5</ele><time>2026-04-05T10:47:16.254Z</time></trkpt><trkpt lat="44.9962051" lon="7.9938714"><ele>254.0</ele><time>2026-04-05T10:47:17.254Z</time></trkpt><trkpt lat="44.9961967" lon="7.9939854"><ele>254.5</ele><time>2026-04-05T10:47:18.254Z</time></trkpt><trkpt lat="44.9961997" lon="7.9940793"><ele>255.0</ele><time>2026-04-05T10:47:19.254Z</time></trkpt><trkpt lat="44.9961982" lon="7.994237"><ele>255.5</ele><time>2026-04-05T10:47:21.254Z</time></trkpt><trkpt lat="44.9961916" lon="7.994385"><ele>256.0</ele><time>2026-04-05T10:47:23.254Z</time></trkpt><trkpt lat="44.9962041" lon="7.9945328"><ele>256.5</ele><time>2026-04-05T10:47:25.254Z</time></trkpt><trkpt lat="44.9962018" lon="7.9946477"><ele>257.0</ele><time>2026-04-05T10:47:28.254Z</time></trkpt><trkpt lat="44.9960741" lon="7.995016"><ele>257.1666666666667</ele><time>2026-04-05T10:49:00.254Z</time></trkpt><trkpt lat="44.9960586" lon="7.9951162"><ele>257.33333333333337</ele><time>2026-04-05T10:49:03.254Z</time></trkpt><trkpt lat="44.9961364" lon="7.9951682"><ele>257.5</ele><time>2026-04-05T10:49:06.254Z</time></trkpt><trkpt lat="44.9962434" lon="7.9952151"><ele>257.6666666666667</ele><time>2026-04-05T10:49:08.254Z</time></trkpt><trkpt lat="44.9963049" lon="7.9952394"><ele>257.8333333333333</ele><time>2026-04-05T10:49:09.254Z</time></trkpt><trkpt lat="44.9963627" lon="7.9952776"><ele>258.0</ele><time>2026-04-05T10:49:10.254Z</time></trkpt><trkpt lat="44.996424" lon="7.9953298"><ele>258.0</ele><time>2026-04-05T10:49:11.254Z</time></trkpt><trkpt lat="44.9964959" lon="7.9953715"><ele>258.0</ele><time>2026-04-05T10:49:12.254Z</time></trkpt><trkpt lat="44.9965735" lon="7.9954045"><ele>258.0</ele><time>2026-04-05T10:49:13.254Z</time></trkpt><trkpt lat="44.9966531" lon="7.995427"><ele>258.0</ele><time>2026-04-05T10:49:14.254Z</time></trkpt><trkpt lat="44.9967288" lon="7.9954348"><ele>258.0</ele><time>2026-04-05T10:49:15.254Z</time></trkpt><trkpt lat="44.9967992" lon="7.9954412"><ele>258.0</ele><time>2026-04-05T10:49:16.254Z</time></trkpt><trkpt lat="44.9968673" lon="7.9954556"><ele>257.0</ele><time>2026-04-05T10:49:17.254Z</time></trkpt><trkpt lat="44.9970328" lon="7.9954935"><ele>256.0</ele><time>2026-04-05T10:49:19.254Z</time></trkpt><trkpt lat="44.9971195" lon="7.9955104"><ele>255.0</ele><time>2026-04-05T10:49:20.254Z</time></trkpt><trkpt lat="44.9972081" lon="7.9955155"><ele>254.0</ele><time>2026-04-05T10:49:21.254Z</time></trkpt><trkpt lat="44.9973008" lon="7.9955041"><ele>253.0</ele><time>2026-04-05T10:49:22.254Z</time></trkpt><trkpt lat="44.9973966" lon="7.9954805"><ele>252.99999999999997</ele><time>2026-04-05T10:49:23.254Z</time></trkpt><trkpt lat="44.9974854" lon="7.9954525"><ele>253.0</ele><time>2026-04-05T10:49:24.254Z</time></trkpt><trkpt lat="44.9975677" lon="7.9954295"><ele>253.0</ele><time>2026-04-05T10:49:25.254Z</time></trkpt><trkpt lat="44.997642" lon="7.9954096"><ele>253.0</ele><time>2026-04-05T10:49:26.254Z</time></trkpt><trkpt lat="44.9977134" lon="7.9953841"><ele>252.99999999999997</ele><time>2026-04-05T10:49:27.254Z</time></trkpt><trkpt lat="44.9977837" lon="7.9953416"><ele>253.0</ele><time>2026-04-05T10:49:28.254Z</time></trkpt><trkpt lat="44.997857" lon="7.9952908"><ele>253.16666666666666</ele><time>2026-04-05T10:49:29.254Z</time></trkpt><trkpt lat="44.9979331" lon="7.9952313"><ele>253.33333333333331</ele><time>2026-04-05T10:49:30.254Z</time></trkpt><trkpt lat="44.9980123" lon="7.9951676"><ele>253.5</ele><time>2026-04-05T10:49:31.254Z</time></trkpt><trkpt lat="44.9980823" lon="7.9951141"><ele>253.66666666666669</ele><time>2026-04-05T10:49:32.254Z</time></trkpt><trkpt lat="44.9981471" lon="7.9950706"><ele>253.83333333333334</ele><time>2026-04-05T10:49:33.254Z</time></trkpt><trkpt lat="44.9982184" lon="7.9950334"><ele>254.0</ele><time>2026-04-05T10:49:34.254Z</time></trkpt><trkpt lat="44.9982976" lon="7.9950008"><ele>256.0</ele><time>2026-04-05T10:49:35.254Z</time></trkpt><trkpt lat="44.9983673" lon="7.9949829"><ele>258.0</ele><time>2026-04-05T10:49:36.254Z</time></trkpt><trkpt lat="44.9984366" lon="7.9949817"><ele>260.0</ele><time>2026-04-05T10:49:37.254Z</time></trkpt><trkpt lat="44.9985023" lon="7.9950091"><ele>262.0</ele><time>2026-04-05T10:49:38.254Z</time></trkpt><trkpt lat="44.9986258" lon="7.9951295"><ele>264.0</ele><time>2026-04-05T10:49:40.254Z</time></trkpt><trkpt lat="44.9986809" lon="7.9952195"><ele>266.0</ele><time>2026-04-05T10:49:41.254Z</time></trkpt><trkpt lat="44.9987206" lon="7.9953116"><ele>266.0</ele><time>2026-04-05T10:49:42.254Z</time></trkpt><trkpt lat="44.9987571" lon="7.9954203"><ele>266.0</ele><time>2026-04-05T10:49:43.254Z</time></trkpt><trkpt lat="44.9987975" lon="7.9955352"><ele>266.0</ele><time>2026-04-05T10:49:44.254Z</time></trkpt><trkpt lat="44.9988354" lon="7.9956429"><ele>266.0</ele><time>2026-04-05T10:49:45.254Z</time></trkpt><trkpt lat="44.9988784" lon="7.9957562"><ele>266.0</ele><time>2026-04-05T10:49:46.254Z</time></trkpt><trkpt lat="44.9989136" lon="7.9958535"><ele>266.0</ele><time>2026-04-05T10:49:47.254Z</time></trkpt><trkpt lat="44.9989456" lon="7.9959518"><ele>265.0</ele><time>2026-04-05T10:49:48.254Z</time></trkpt><trkpt lat="44.9989817" lon="7.9960369"><ele>264.0</ele><time>2026-04-05T10:49:49.254Z</time></trkpt><trkpt lat="44.9990064" lon="7.996119"><ele>263.0</ele><time>2026-04-05T10:49:50.254Z</time></trkpt><trkpt lat="44.9990487" lon="7.9962591"><ele>262.0</ele><time>2026-04-05T10:49:52.254Z</time></trkpt><trkpt lat="44.999074" lon="7.9963529"><ele>261.0</ele><time>2026-04-05T10:49:54.254Z</time></trkpt><trkpt lat="44.9990514" lon="7.9964511"><ele>260.0</ele><time>2026-04-05T10:50:05.254Z</time></trkpt><trkpt lat="44.9989657" lon="7.9962889"><ele>260.0</ele><time>2026-04-05T10:50:12.254Z</time></trkpt><trkpt lat="44.9989198" lon="7.9963715"><ele>260.0</ele><time>2026-04-05T10:50:16.254Z</time></trkpt><trkpt lat="44.998902" lon="7.9965042"><ele>260.0</ele><time>2026-04-05T10:50:24.254Z</time></trkpt><trkpt lat="44.998864" lon="7.9965941"><ele>260.0</ele><time>2026-04-05T10:50:27.254Z</time></trkpt><trkpt lat="44.9987003" lon="7.9966632"><ele>260.0</ele><time>2026-04-05T10:50:32.254Z</time></trkpt><trkpt lat="44.9986238" lon="7.9966726"><ele>260.00000000000006</ele><time>2026-04-05T10:50:34.254Z</time></trkpt><trkpt lat="44.9985521" lon="7.9966691"><ele>260.0</ele><time>2026-04-05T10:50:36.254Z</time></trkpt><trkpt lat="44.9984712" lon="7.9967071"><ele>260.0</ele><time>2026-04-05T10:50:39.254Z</time></trkpt><trkpt lat="44.9984077" lon="7.9967773"><ele>260.0</ele><time>2026-04-05T10:50:41.254Z</time></trkpt><trkpt lat="44.9983511" lon="7.9968306"><ele>260.0</ele><time>2026-04-05T10:50:43.254Z</time></trkpt><trkpt lat="44.9982825" lon="7.9968737"><ele>260.00000000000006</ele><time>2026-04-05T10:50:47.254Z</time></trkpt><trkpt lat="44.9982192" lon="7.9968747"><ele>260.0</ele><time>2026-04-05T10:50:50.254Z</time></trkpt><trkpt lat="44.998068" lon="7.9968943"><ele>258.5</ele><time>2026-04-05T10:50:54.254Z</time></trkpt><trkpt lat="44.997999" lon="7.996902"><ele>257.0</ele><time>2026-04-05T10:50:56.254Z</time></trkpt><trkpt lat="44.9979198" lon="7.9968413"><ele>255.5</ele><time>2026-04-05T10:50:59.254Z</time></trkpt><trkpt lat="44.9978471" lon="7.9968169"><ele>254.0</ele><time>2026-04-05T10:51:01.254Z</time></trkpt><trkpt lat="44.9977608" lon="7.9968423"><ele>252.50000000000003</ele><time>2026-04-05T10:51:03.254Z</time></trkpt><trkpt lat="44.9976659" lon="7.9969318"><ele>251.0</ele><time>2026-04-05T10:51:05.254Z</time></trkpt><trkpt lat="44.9976098" lon="7.9969857"><ele>251.00000000000003</ele><time>2026-04-05T10:51:06.254Z</time></trkpt><trkpt lat="44.997542" lon="7.9970389"><ele>251.0</ele><time>2026-04-05T10:51:07.254Z</time></trkpt><trkpt lat="44.9974559" lon="7.9970874"><ele>251.0</ele><time>2026-04-05T10:51:08.254Z</time></trkpt><trkpt lat="44.9973805" lon="7.9971261"><ele>251.0</ele><time>2026-04-05T10:51:09.254Z</time></trkpt><trkpt lat="44.9973156" lon="7.9971735"><ele>251.00000000000003</ele><time>2026-04-05T10:51:10.254Z</time></trkpt><trkpt lat="44.9972197" lon="7.9972784"><ele>251.0</ele><time>2026-04-05T10:51:12.254Z</time></trkpt><trkpt lat="44.9971405" lon="7.9975898"><ele>250.16666666666669</ele><time>2026-04-05T10:51:16.254Z</time></trkpt><trkpt lat="44.9971561" lon="7.9976956"><ele>249.33333333333334</ele><time>2026-04-05T10:51:17.254Z</time></trkpt><trkpt lat="44.9971722" lon="7.9978047"><ele>248.5</ele><time>2026-04-05T10:51:18.254Z</time></trkpt><trkpt lat="44.9971921" lon="7.9979094"><ele>247.66666666666669</ele><time>2026-04-05T10:51:19.254Z</time></trkpt><trkpt lat="44.9972192" lon="7.9980122"><ele>246.83333333333334</ele><time>2026-04-05T10:51:20.254Z</time></trkpt><trkpt lat="44.9972524" lon="7.9981129"><ele>246.0</ele><time>2026-04-05T10:51:21.254Z</time></trkpt><trkpt lat="44.997276" lon="7.9982161"><ele>246.0</ele><time>2026-04-05T10:51:22.254Z</time></trkpt><trkpt lat="44.9972931" lon="7.9983223"><ele>246.0</ele><time>2026-04-05T10:51:23.254Z</time></trkpt><trkpt lat="44.9973151" lon="7.9984366"><ele>246.0</ele><time>2026-04-05T10:51:24.254Z</time></trkpt><trkpt lat="44.997345" lon="7.998552"><ele>246.0</ele><time>2026-04-05T10:51:25.254Z</time></trkpt><trkpt lat="44.9973794" lon="7.9986643"><ele>246.0</ele><time>2026-04-05T10:51:26.254Z</time></trkpt><trkpt lat="44.9974116" lon="7.9987669"><ele>246.0</ele><time>2026-04-05T10:51:27.254Z</time></trkpt><trkpt lat="44.9974352" lon="7.9988587"><ele>248.0</ele><time>2026-04-05T10:51:28.254Z</time></trkpt><trkpt lat="44.9974534" lon="7.9989459"><ele>250.0</ele><time>2026-04-05T10:51:29.254Z</time></trkpt><trkpt lat="44.997466" lon="7.9990932"><ele>252.0</ele><time>2026-04-05T10:51:31.254Z</time></trkpt><trkpt lat="44.9974135" lon="7.9991603"><ele>254.0</ele><time>2026-04-05T10:51:33.254Z</time></trkpt><trkpt lat="44.9971411" lon="7.9989445"><ele>254.00000000000003</ele><time>2026-04-05T10:52:53.254Z</time></trkpt><trkpt lat="44.9970601" lon="7.9989367"><ele>254.0</ele><time>2026-04-05T10:52:56.254Z</time></trkpt><trkpt lat="44.9969815" lon="7.9989426"><ele>254.0</ele><time>2026-04-05T10:52:58.254Z</time></trkpt><trkpt lat="44.9968926" lon="7.9989599"><ele>254.0</ele><time>2026-04-05T10:53:00.254Z</time></trkpt><trkpt lat="44.9967973" lon="7.9989808"><ele>254.00000000000003</ele><time>2026-04-05T10:53:02.254Z</time></trkpt><trkpt lat="44.996726" lon="7.999022"><ele>254.0</ele><time>2026-04-05T10:53:04.254Z</time></trkpt><trkpt lat="44.9966966" lon="7.9991082"><ele>256.5</ele><time>2026-04-05T10:53:06.254Z</time></trkpt><trkpt lat="44.9967065" lon="7.9992385"><ele>259.0</ele><time>2026-04-05T10:53:08.254Z</time></trkpt><trkpt lat="44.9967408" lon="7.9995478"><ele>261.5</ele><time>2026-04-05T10:53:12.254Z</time></trkpt><trkpt lat="44.9967853" lon="7.9996943"><ele>264.0</ele><time>2026-04-05T10:53:14.254Z</time></trkpt><trkpt lat="44.9968481" lon="7.9997904"><ele>264.0</ele><time>2026-04-05T10:53:16.254Z</time></trkpt><trkpt lat="44.9969285" lon="7.9998542"><ele>264.0</ele><time>2026-04-05T10:53:18.254Z</time></trkpt><trkpt lat="44.9970335" lon="7.9999223"><ele>264.0</ele><time>2026-04-05T10:53:20.254Z</time></trkpt><trkpt lat="44.9971121" lon="7.9999727"><ele>264.0</ele><time>2026-04-05T10:53:22.254Z</time></trkpt><trkpt lat="44.997145" lon="8.0000749"><ele>264.0</ele><time>2026-04-05T10:53:25.254Z</time></trkpt><trkpt lat="44.9970852" lon="8.0001553"><ele>264.0</ele><time>2026-04-05T10:53:29.254Z</time></trkpt><trkpt lat="44.9969384" lon="8.0001576"><ele>264.0</ele><time>2026-04-05T10:53:32.254Z</time></trkpt><trkpt lat="44.9968505" lon="8.0001354"><ele>264.0</ele><time>2026-04-05T10:53:33.254Z</time></trkpt><trkpt lat="44.9967589" lon="8.0001165"><ele>264.0</ele><time>2026-04-05T10:53:34.254Z</time></trkpt><trkpt lat="44.9966716" lon="8.0001103"><ele>264.0</ele><time>2026-04-05T10:53:35.254Z</time></trkpt><trkpt lat="44.9965868" lon="8.0001219"><ele>263.1666666666667</ele><time>2026-04-05T10:53:36.254Z</time></trkpt><trkpt lat="44.9965179" lon="8.000145"><ele>262.3333333333333</ele><time>2026-04-05T10:53:37.254Z</time></trkpt><trkpt lat="44.9964519" lon="8.0001836"><ele>261.5</ele><time>2026-04-05T10:53:38.254Z</time></trkpt><trkpt lat="44.9963906" lon="8.0002401"><ele>260.66666666666663</ele><time>2026-04-05T10:53:39.254Z</time></trkpt><trkpt lat="44.996344" lon="8.0003257"><ele>259.8333333333333</ele><time>2026-04-05T10:53:40.254Z</time></trkpt><trkpt lat="44.9963213" lon="8.0004296"><ele>259.0</ele><time>2026-04-05T10:53:41.254Z</time></trkpt><trkpt lat="44.9963048" lon="8.0005432"><ele>259.0</ele><time>2026-04-05T10:53:42.254Z</time></trkpt><trkpt lat="44.9962832" lon="8.0006369"><ele>259.0</ele><time>2026-04-05T10:53:43.254Z</time></trkpt><trkpt lat="44.9962106" lon="8.0007523"><ele>259.0</ele><time>2026-04-05T10:53:45.254Z</time></trkpt><trkpt lat="44.9961396" lon="8.0007918"><ele>259.0</ele><time>2026-04-05T10:53:46.254Z</time></trkpt><trkpt lat="44.9960465" lon="8.0008196"><ele>259.0</ele><time>2026-04-05T10:53:47.254Z</time></trkpt><trkpt lat="44.9959491" lon="8.0008383"><ele>259.0</ele><time>2026-04-05T10:53:48.254Z</time></trkpt><trkpt lat="44.9958521" lon="8.0008577"><ele>257.0</ele><time>2026-04-05T10:53:49.254Z</time></trkpt><trkpt lat="44.9957586" lon="8.0008991"><ele>255.0</ele><time>2026-04-05T10:53:50.254Z</time></trkpt><trkpt lat="44.9955906" lon="8.0010238"><ele>253.0</ele><time>2026-04-05T10:53:52.254Z</time></trkpt><trkpt lat="44.9955025" lon="8.001098"><ele>251.0</ele><time>2026-04-05T10:53:53.254Z</time></trkpt><trkpt lat="44.9954194" lon="8.0011607"><ele>251.00000000000003</ele><time>2026-04-05T10:53:54.254Z</time></trkpt><trkpt lat="44.99534" lon="8.0012147"><ele>251.0</ele><time>2026-04-05T10:53:55.254Z</time></trkpt><trkpt lat="44.9952567" lon="8.0012606"><ele>251.0</ele><time>2026-04-05T10:53:56.254Z</time></trkpt><trkpt lat="44.9951784" lon="8.0013049"><ele>251.0</ele><time>2026-04-05T10:53:57.254Z</time></trkpt><trkpt lat="44.9951184" lon="8.0013541"><ele>251.00000000000003</ele><time>2026-04-05T10:53:58.254Z</time></trkpt><trkpt lat="44.9950688" lon="8.0014215"><ele>251.0</ele><time>2026-04-05T10:53:59.254Z</time></trkpt><trkpt lat="44.9950282" lon="8.0015145"><ele>251.8</ele><time>2026-04-05T10:54:00.254Z</time></trkpt><trkpt lat="44.9950039" lon="8.0016222"><ele>252.60000000000002</ele><time>2026-04-05T10:54:01.254Z</time></trkpt><trkpt lat="44.9949964" lon="8.0017518"><ele>253.4</ele><time>2026-04-05T10:54:02.254Z</time></trkpt><trkpt lat="44.9949925" lon="8.0018924"><ele>254.2</ele><time>2026-04-05T10:54:03.254Z</time></trkpt><trkpt lat="44.9949962" lon="8.0020285"><ele>255.0</ele><time>2026-04-05T10:54:04.254Z</time></trkpt><trkpt lat="44.9949956" lon="8.0021624"><ele>254.85714285714286</ele><time>2026-04-05T10:54:05.254Z</time></trkpt><trkpt lat="44.9949838" lon="8.0022872"><ele>254.71428571428572</ele><time>2026-04-05T10:54:06.254Z</time></trkpt><trkpt lat="44.9949557" lon="8.002404"><ele>254.57142857142858</ele><time>2026-04-05T10:54:07.254Z</time></trkpt><trkpt lat="44.9949207" lon="8.0025022"><ele>254.42857142857144</ele><time>2026-04-05T10:54:08.254Z</time></trkpt><trkpt lat="44.9948793" lon="8.0025702"><ele>254.28571428571428</ele><time>2026-04-05T10:54:09.254Z</time></trkpt><trkpt lat="44.994825" lon="8.0026169"><ele>254.14285714285717</ele><time>2026-04-05T10:54:10.254Z</time></trkpt><trkpt lat="44.99476" lon="8.0026418"><ele>254.0</ele><time>2026-04-05T10:54:11.254Z</time></trkpt><trkpt lat="44.9946057" lon="8.002583"><ele>254.0</ele><time>2026-04-05T10:54:13.254Z</time></trkpt><trkpt lat="44.9945042" lon="8.0025238"><ele>254.0</ele><time>2026-04-05T10:54:14.254Z</time></trkpt><trkpt lat="44.9943946" lon="8.0024671"><ele>254.0</ele><time>2026-04-05T10:54:15.254Z</time></trkpt><trkpt lat="44.9942777" lon="8.0024239"><ele>254.0</ele><time>2026-04-05T10:54:16.254Z</time></trkpt><trkpt lat="44.9941581" lon="8.0023914"><ele>253.39999999999998</ele><time>2026-04-05T10:54:17.254Z</time></trkpt><trkpt lat="44.9940407" lon="8.0023748"><ele>252.79999999999998</ele><time>2026-04-05T10:54:18.254Z</time></trkpt><trkpt lat="44.993931" lon="8.0023624"><ele>252.20000000000002</ele><time>2026-04-05T10:54:19.254Z</time></trkpt><trkpt lat="44.9938268" lon="8.0023524"><ele>251.60000000000002</ele><time>2026-04-05T10:54:20.254Z</time></trkpt><trkpt lat="44.9937348" lon="8.0023348"><ele>251.0</ele><time>2026-04-05T10:54:21.254Z</time></trkpt><trkpt lat="44.9936507" lon="8.0023066"><ele>251.00000000000003</ele><time>2026-04-05T10:54:22.254Z</time></trkpt><trkpt lat="44.9935858" lon="8.002261"><ele>251.0</ele><time>2026-04-05T10:54:23.254Z</time></trkpt><trkpt lat="44.9935301" lon="8.0021971"><ele>251.0</ele><time>2026-04-05T10:54:24.254Z</time></trkpt><trkpt lat="44.9934829" lon="8.0020976"><ele>251.0</ele><time>2026-04-05T10:54:25.254Z</time></trkpt><trkpt lat="44.9934442" lon="8.0019818"><ele>251.00000000000003</ele><time>2026-04-05T10:54:26.254Z</time></trkpt><trkpt lat="44.993408" lon="8.0018735"><ele>251.0</ele><time>2026-04-05T10:54:27.254Z</time></trkpt><trkpt lat="44.9933606" lon="8.0017809"><ele>252.0</ele><time>2026-04-05T10:54:28.254Z</time></trkpt><trkpt lat="44.9933037" lon="8.0017074"><ele>253.0</ele><time>2026-04-05T10:54:29.254Z</time></trkpt><trkpt lat="44.9931852" lon="8.0016462"><ele>254.0</ele><time>2026-04-05T10:54:31.254Z</time></trkpt><trkpt lat="44.9931215" lon="8.0016697"><ele>255.0</ele><time>2026-04-05T10:54:32.254Z</time></trkpt><trkpt lat="44.9929837" lon="8.0018354"><ele>255.0</ele><time>2026-04-05T10:54:34.254Z</time></trkpt><trkpt lat="44.9929384" lon="8.0019574"><ele>255.0</ele><time>2026-04-05T10:54:35.254Z</time></trkpt><trkpt lat="44.9929154" lon="8.0020954"><ele>255.0</ele><time>2026-04-05T10:54:36.254Z</time></trkpt><trkpt lat="44.9928971" lon="8.0022351"><ele>255.0</ele><time>2026-04-05T10:54:37.254Z</time></trkpt><trkpt lat="44.9928819" lon="8.0023636"><ele>255.0</ele><time>2026-04-05T10:54:38.254Z</time></trkpt><trkpt lat="44.992852" lon="8.002481"><ele>255.16666666666666</ele><time>2026-04-05T10:54:39.254Z</time></trkpt><trkpt lat="44.9928002" lon="8.0025732"><ele>255.33333333333331</ele><time>2026-04-05T10:54:40.254Z</time></trkpt><trkpt lat="44.9927331" lon="8.0026438"><ele>255.5</ele><time>2026-04-05T10:54:41.254Z</time></trkpt><trkpt lat="44.9926606" lon="8.0026958"><ele>255.66666666666666</ele><time>2026-04-05T10:54:42.254Z</time></trkpt><trkpt lat="44.9925955" lon="8.0027472"><ele>255.83333333333331</ele><time>2026-04-05T10:54:43.254Z</time></trkpt><trkpt lat="44.9925046" lon="8.0028458"><ele>256.0</ele><time>2026-04-05T10:54:45.254Z</time></trkpt><trkpt lat="44.9924646" lon="8.0029269"><ele>256.0</ele><time>2026-04-05T10:54:47.254Z</time></trkpt><trkpt lat="44.9924667" lon="8.0030163"><ele>256.0</ele><time>2026-04-05T10:54:49.254Z</time></trkpt><trkpt lat="44.9924931" lon="8.0031122"><ele>256.0</ele><time>2026-04-05T10:54:51.254Z</time></trkpt><trkpt lat="44.9925499" lon="8.0032413"><ele>256.0</ele><time>2026-04-05T10:54:53.254Z</time></trkpt><trkpt lat="44.9926607" lon="8.0035581"><ele>254.49999999999997</ele><time>2026-04-05T10:54:57.254Z</time></trkpt><trkpt lat="44.9926904" lon="8.0036462"><ele>253.0</ele><time>2026-04-05T10:54:58.254Z</time></trkpt><trkpt lat="44.9927218" lon="8.0037283"><ele>251.5</ele><time>2026-04-05T10:54:59.254Z</time></trkpt><trkpt lat="44.992752" lon="8.0038084"><ele>250.0</ele><time>2026-04-05T10:55:00.254Z</time></trkpt><trkpt lat="44.9927951" lon="8.003965"><ele>248.49999999999997</ele><time>2026-04-05T10:55:02.254Z</time></trkpt><trkpt lat="44.992811" lon="8.004135"><ele>247.0</ele><time>2026-04-05T10:55:04.254Z</time></trkpt><trkpt lat="44.9928567" lon="8.0042895"><ele>245.2</ele><time>2026-04-05T10:55:06.254Z</time></trkpt><trkpt lat="44.9929168" lon="8.0044296"><ele>243.39999999999998</ele><time>2026-04-05T10:55:08.254Z</time></trkpt><trkpt lat="44.9929583" lon="8.0045471"><ele>241.60000000000002</ele><time>2026-04-05T10:55:10.254Z</time></trkpt><trkpt lat="44.9929967" lon="8.0046234"><ele>239.8</ele><time>2026-04-05T10:55:12.254Z</time></trkpt><trkpt lat="44.993052" lon="8.0046684"><ele>238.0</ele><time>2026-04-05T10:55:16.254Z</time></trkpt><trkpt lat="44.9931016" lon="8.0049101"><ele>237.99999999999997</ele><time>2026-04-05T10:55:22.254Z</time></trkpt><trkpt lat="44.9931405" lon="8.0049894"><ele>238.0</ele><time>2026-04-05T10:55:23.254Z</time></trkpt><trkpt lat="44.9931832" lon="8.0050696"><ele>238.0</ele><time>2026-04-05T10:55:24.254Z</time></trkpt><trkpt lat="44.9932305" lon="8.0051505"><ele>238.0</ele><time>2026-04-05T10:55:25.254Z</time></trkpt><trkpt lat="44.9932674" lon="8.005226"><ele>237.99999999999997</ele><time>2026-04-05T10:55:26.254Z</time></trkpt><trkpt lat="44.993329" lon="8.0053789"><ele>238.0</ele><time>2026-04-05T10:55:28.254Z</time></trkpt><trkpt lat="44.9933898" lon="8.0055168"><ele>234.8</ele><time>2026-04-05T10:55:30.254Z</time></trkpt><trkpt lat="44.9934654" lon="8.005661"><ele>231.60000000000002</ele><time>2026-04-05T10:55:32.254Z</time></trkpt><trkpt lat="44.9935038" lon="8.0057367"><ele>228.39999999999998</ele><time>2026-04-05T10:55:33.254Z</time></trkpt><trkpt lat="44.9935382" lon="8.0058148"><ele>225.2</ele><time>2026-04-05T10:55:34.254Z</time></trkpt><trkpt lat="44.9935703" lon="8.0058985"><ele>222.0</ele><time>2026-04-05T10:55:35.254Z</time></trkpt><trkpt lat="44.9936224" lon="8.0060591"><ele>222.0</ele><time>2026-04-05T10:55:37.254Z</time></trkpt><trkpt lat="44.9936838" lon="8.0062874"><ele>222.0</ele><time>2026-04-05T10:55:40.254Z</time></trkpt><trkpt lat="44.9936964" lon="8.0064329"><ele>222.0</ele><time>2026-04-05T10:55:42.254Z</time></trkpt><trkpt lat="44.9937119" lon="8.0065804"><ele>222.0</ele><time>2026-04-05T10:55:44.254Z</time></trkpt><trkpt lat="44.9937469" lon="8.0067201"><ele>222.39999999999998</ele><time>2026-04-05T10:55:46.254Z</time></trkpt><trkpt lat="44.9938012" lon="8.0068654"><ele>222.79999999999998</ele><time>2026-04-05T10:55:48.254Z</time></trkpt><trkpt lat="44.9938457" lon="8.0070033"><ele>223.2</ele><time>2026-04-05T10:55:50.254Z</time></trkpt><trkpt lat="44.9938887" lon="8.0071321"><ele>223.6</ele><time>2026-04-05T10:55:52.254Z</time></trkpt><trkpt lat="44.9939303" lon="8.007248"><ele>224.0</ele><time>2026-04-05T10:55:54.254Z</time></trkpt><trkpt lat="44.99398" lon="8.0073751"><ele>223.5</ele><time>2026-04-05T10:55:56.254Z</time></trkpt><trkpt lat="44.9940371" lon="8.0074955"><ele>223.0</ele><time>2026-04-05T10:55:58.254Z</time></trkpt><trkpt lat="44.9941166" lon="8.0077689"><ele>222.5</ele><time>2026-04-05T10:56:02.254Z</time></trkpt><trkpt lat="44.9941316" lon="8.0079132"><ele>222.0</ele><time>2026-04-05T10:56:04.254Z</time></trkpt><trkpt lat="44.9941539" lon="8.0080741"><ele>219.33333333333334</ele><time>2026-04-05T10:56:06.254Z</time></trkpt><trkpt lat="44.994175" lon="8.008174"><ele>216.66666666666669</ele><time>2026-04-05T10:56:07.254Z</time></trkpt><trkpt lat="44.9941943" lon="8.0082899"><ele>214.0</ele><time>2026-04-05T10:56:08.254Z</time></trkpt><trkpt lat="44.9942104" lon="8.0084119"><ele>211.33333333333334</ele><time>2026-04-05T10:56:09.254Z</time></trkpt><trkpt lat="44.994223" lon="8.0085285"><ele>208.66666666666669</ele><time>2026-04-05T10:56:10.254Z</time></trkpt><trkpt lat="44.9942382" lon="8.0086366"><ele>206.0</ele><time>2026-04-05T10:56:11.254Z</time></trkpt><trkpt lat="44.9942531" lon="8.0087429"><ele>204.8</ele><time>2026-04-05T10:56:12.254Z</time></trkpt><trkpt lat="44.9942693" lon="8.0088368"><ele>203.60000000000002</ele><time>2026-04-05T10:56:13.254Z</time></trkpt><trkpt lat="44.9942887" lon="8.0089826"><ele>202.4</ele><time>2026-04-05T10:56:15.254Z</time></trkpt><trkpt lat="44.9942959" lon="8.0090864"><ele>201.2</ele><time>2026-04-05T10:56:17.254Z</time></trkpt><trkpt lat="44.99432" lon="8.0091844"><ele>200.0</ele><time>2026-04-05T10:56:21.254Z</time></trkpt><trkpt lat="44.9944051" lon="8.0094656"><ele>199.16666666666669</ele><time>2026-04-05T10:56:25.254Z</time></trkpt><trkpt lat="44.9944332" lon="8.0095694"><ele>198.33333333333334</ele><time>2026-04-05T10:56:26.254Z</time></trkpt><trkpt lat="44.9944581" lon="8.0096869"><ele>197.5</ele><time>2026-04-05T10:56:27.254Z</time></trkpt><trkpt lat="44.9944892" lon="8.0098064"><ele>196.66666666666669</ele><time>2026-04-05T10:56:28.254Z</time></trkpt><trkpt lat="44.994515" lon="8.009919"><ele>195.83333333333334</ele><time>2026-04-05T10:56:29.254Z</time></trkpt><trkpt lat="44.9945438" lon="8.0100151"><ele>195.0</ele><time>2026-04-05T10:56:30.254Z</time></trkpt><trkpt lat="44.9945658" lon="8.0101022"><ele>195.0</ele><time>2026-04-05T10:56:31.254Z</time></trkpt><trkpt lat="44.9945902" lon="8.0102496"><ele>195.0</ele><time>2026-04-05T10:56:33.254Z</time></trkpt><trkpt lat="44.9946726" lon="8.0102988"><ele>195.0</ele><time>2026-04-05T10:56:36.253Z</time></trkpt><trkpt lat="44.9947888" lon="8.0101894"><ele>195.0</ele><time>2026-04-05T10:56:38.254Z</time></trkpt><trkpt lat="44.9948678" lon="8.0101026"><ele>195.0</ele><time>2026-04-05T10:56:39.254Z</time></trkpt><trkpt lat="44.9949627" lon="8.0100134"><ele>195.33333333333331</ele><time>2026-04-05T10:56:40.254Z</time></trkpt><trkpt lat="44.9950713" lon="8.0099341"><ele>195.66666666666666</ele><time>2026-04-05T10:56:41.254Z</time></trkpt><trkpt lat="44.9951901" lon="8.0098638"><ele>196.0</ele><time>2026-04-05T10:56:42.254Z</time></trkpt><trkpt lat="44.9954347" lon="8.0097415"><ele>196.0</ele><time>2026-04-05T10:56:44.254Z</time></trkpt><trkpt lat="44.9955512" lon="8.0097087"><ele>196.0</ele><time>2026-04-05T10:56:45.254Z</time></trkpt><trkpt lat="44.9956606" lon="8.0096868"><ele>196.0</ele><time>2026-04-05T10:56:46.254Z</time></trkpt><trkpt lat="44.9957688" lon="8.0096663"><ele>196.0</ele><time>2026-04-05T10:56:47.254Z</time></trkpt><trkpt lat="44.9958585" lon="8.0096443"><ele>196.0</ele><time>2026-04-05T10:56:48.254Z</time></trkpt><trkpt lat="44.9959262" lon="8.009623"><ele>196.0</ele><time>2026-04-05T10:56:49.254Z</time></trkpt><trkpt lat="44.9960181" lon="8.0096388"><ele>196.0</ele><time>2026-04-05T10:56:51.254Z</time></trkpt><trkpt lat="44.9960666" lon="8.0098046"><ele>196.0</ele><time>2026-04-05T10:56:53.254Z</time></trkpt><trkpt lat="44.9960778" lon="8.009926"><ele>196.0</ele><time>2026-04-05T10:56:54.254Z</time></trkpt><trkpt lat="44.9960946" lon="8.010074"><ele>196.0</ele><time>2026-04-05T10:56:55.254Z</time></trkpt><trkpt lat="44.9961217" lon="8.0102423"><ele>194.25</ele><time>2026-04-05T10:56:56.254Z</time></trkpt><trkpt lat="44.996156" lon="8.0104129"><ele>192.5</ele><time>2026-04-05T10:56:57.254Z</time></trkpt><trkpt lat="44.9961874" lon="8.0105794"><ele>190.75</ele><time>2026-04-05T10:56:58.254Z</time></trkpt><trkpt lat="44.9962125" lon="8.0107409"><ele>189.0</ele><time>2026-04-05T10:56:59.254Z</time></trkpt><trkpt lat="44.9962424" lon="8.0109101"><ele>188.25</ele><time>2026-04-05T10:57:00.254Z</time></trkpt><trkpt lat="44.9962755" lon="8.0110806"><ele>187.5</ele><time>2026-04-05T10:57:01.254Z</time></trkpt><trkpt lat="44.996303" lon="8.0112388"><ele>186.75</ele><time>2026-04-05T10:57:02.253Z</time></trkpt><trkpt lat="44.9963303" lon="8.0113855"><ele>186.0</ele><time>2026-04-05T10:57:03.254Z</time></trkpt><trkpt lat="44.996365" lon="8.0116409"><ele>186.60000000000002</ele><time>2026-04-05T10:57:05.254Z</time></trkpt><trkpt lat="44.9963788" lon="8.0117289"><ele>187.2</ele><time>2026-04-05T10:57:06.254Z</time></trkpt><trkpt lat="44.9964229" lon="8.0118997"><ele>187.8</ele><time>2026-04-05T10:57:08.254Z</time></trkpt><trkpt lat="44.9964627" lon="8.0120144"><ele>188.39999999999998</ele><time>2026-04-05T10:57:09.254Z</time></trkpt><trkpt lat="44.9965" lon="8.0121608"><ele>189.0</ele><time>2026-04-05T10:57:10.254Z</time></trkpt><trkpt lat="44.9965307" lon="8.0123267"><ele>189.25</ele><time>2026-04-05T10:57:11.254Z</time></trkpt><trkpt lat="44.9965855" lon="8.0125104"><ele>189.5</ele><time>2026-04-05T10:57:12.254Z</time></trkpt><trkpt lat="44.9966453" lon="8.0126853"><ele>189.75</ele><time>2026-04-05T10:57:13.254Z</time></trkpt><trkpt lat="44.9967077" lon="8.0128407"><ele>190.0</ele><time>2026-04-05T10:57:14.254Z</time></trkpt><trkpt lat="44.996789" lon="8.0129643"><ele>190.0</ele><time>2026-04-05T10:57:15.254Z</time></trkpt><trkpt lat="44.9968818" lon="8.0130647"><ele>190.0</ele><time>2026-04-05T10:57:16.254Z</time></trkpt><trkpt lat="44.9969825" lon="8.0131508"><ele>190.0</ele><time>2026-04-05T10:57:17.254Z</time></trkpt><trkpt lat="44.997091" lon="8.0132336"><ele>190.0</ele><time>2026-04-05T10:57:18.254Z</time></trkpt><trkpt lat="44.9972033" lon="8.0133222"><ele>192.0</ele><time>2026-04-05T10:57:19.254Z</time></trkpt><trkpt lat="44.9973156" lon="8.0134135"><ele>194.0</ele><time>2026-04-05T10:57:20.254Z</time></trkpt><trkpt lat="44.9974218" lon="8.0134975"><ele>196.0</ele><time>2026-04-05T10:57:21.254Z</time></trkpt><trkpt lat="44.9975251" lon="8.0135682"><ele>198.0</ele><time>2026-04-05T10:57:22.254Z</time></trkpt><trkpt lat="44.9976297" lon="8.0136195"><ele>198.2</ele><time>2026-04-05T10:57:23.254Z</time></trkpt><trkpt lat="44.9977352" lon="8.013658"><ele>198.4</ele><time>2026-04-05T10:57:24.254Z</time></trkpt><trkpt lat="44.9979257" lon="8.0137146"><ele>198.6</ele><time>2026-04-05T10:57:26.254Z</time></trkpt><trkpt lat="44.997997" lon="8.0137373"><ele>198.79999999999998</ele><time>2026-04-05T10:57:27.254Z</time></trkpt><trkpt lat="44.9980651" lon="8.0137578"><ele>199.0</ele><time>2026-04-05T10:57:28.254Z</time></trkpt><trkpt lat="44.9981309" lon="8.0137505"><ele>199.0</ele><time>2026-04-05T10:57:29.254Z</time></trkpt><trkpt lat="44.9982164" lon="8.0137203"><ele>199.0</ele><time>2026-04-05T10:57:30.254Z</time></trkpt><trkpt lat="44.9983193" lon="8.0136634"><ele>199.0</ele><time>2026-04-05T10:57:31.254Z</time></trkpt><trkpt lat="44.9984237" lon="8.0136004"><ele>199.0</ele><time>2026-04-05T10:57:32.254Z</time></trkpt><trkpt lat="44.9985276" lon="8.0135511"><ele>199.0</ele><time>2026-04-05T10:57:33.254Z</time></trkpt><trkpt lat="44.9986169" lon="8.013528"><ele>199.28571428571428</ele><time>2026-04-05T10:57:34.254Z</time></trkpt><trkpt lat="44.998692" lon="8.0135229"><ele>199.57142857142856</ele><time>2026-04-05T10:57:35.254Z</time></trkpt><trkpt lat="44.998766" lon="8.0135293"><ele>199.85714285714283</ele><time>2026-04-05T10:57:36.254Z</time></trkpt><trkpt lat="44.9988302" lon="8.0135487"><ele>200.14285714285714</ele><time>2026-04-05T10:57:37.254Z</time></trkpt><trkpt lat="44.998899" lon="8.0135821"><ele>200.42857142857144</ele><time>2026-04-05T10:57:38.254Z</time></trkpt><trkpt lat="44.998963" lon="8.0136223"><ele>200.7142857142857</ele><time>2026-04-05T10:57:39.254Z</time></trkpt><trkpt lat="44.9990238" lon="8.0136605"><ele>201.0</ele><time>2026-04-05T10:57:40.254Z</time></trkpt><trkpt lat="44.9991028" lon="8.0137254"><ele>201.0</ele><time>2026-04-05T10:57:42.254Z</time></trkpt><trkpt lat="44.9991361" lon="8.0138176"><ele>201.0</ele><time>2026-04-05T10:57:44.254Z</time></trkpt><trkpt lat="44.9991083" lon="8.013945"><ele>201.0</ele><time>2026-04-05T10:57:46.254Z</time></trkpt><trkpt lat="44.9989984" lon="8.0142393"><ele>201.0</ele><time>2026-04-05T10:57:49.254Z</time></trkpt><trkpt lat="44.9989622" lon="8.0143942"><ele>200.8</ele><time>2026-04-05T10:57:50.254Z</time></trkpt><trkpt lat="44.9989251" lon="8.014557"><ele>200.60000000000002</ele><time>2026-04-05T10:57:51.254Z</time></trkpt><trkpt lat="44.998887" lon="8.0147104"><ele>200.4</ele><time>2026-04-05T10:57:52.254Z</time></trkpt><trkpt lat="44.9988506" lon="8.0148481"><ele>200.2</ele><time>2026-04-05T10:57:53.254Z</time></trkpt><trkpt lat="44.998812" lon="8.0149788"><ele>200.0</ele><time>2026-04-05T10:57:54.254Z</time></trkpt><trkpt lat="44.9987898" lon="8.0151051"><ele>200.00000000000003</ele><time>2026-04-05T10:57:55.254Z</time></trkpt><trkpt lat="44.9987687" lon="8.0152137"><ele>200.0</ele><time>2026-04-05T10:57:56.254Z</time></trkpt><trkpt lat="44.9987361" lon="8.0153458"><ele>200.0</ele><time>2026-04-05T10:57:58.254Z</time></trkpt><trkpt lat="44.9987526" lon="8.0154477"><ele>200.0</ele><time>2026-04-05T10:58:01.254Z</time></trkpt><trkpt lat="44.9988497" lon="8.0154807"><ele>200.00000000000003</ele><time>2026-04-05T10:58:03.254Z</time></trkpt><trkpt lat="44.9989117" lon="8.0155049"><ele>200.0</ele><time>2026-04-05T10:58:04.254Z</time></trkpt><trkpt lat="44.9989878" lon="8.0155235"><ele>200.0</ele><time>2026-04-05T10:58:05.254Z</time></trkpt><trkpt lat="44.9990731" lon="8.015534"><ele>200.0</ele><time>2026-04-05T10:58:06.254Z</time></trkpt><trkpt lat="44.9991707" lon="8.0155366"><ele>200.0</ele><time>2026-04-05T10:58:07.254Z</time></trkpt><trkpt lat="44.9993778" lon="8.0155126"><ele>200.0</ele><time>2026-04-05T10:58:09.254Z</time></trkpt><trkpt lat="44.9994795" lon="8.0154977"><ele>202.5</ele><time>2026-04-05T10:58:10.254Z</time></trkpt><trkpt lat="44.9995931" lon="8.0154936"><ele>205.0</ele><time>2026-04-05T10:58:11.254Z</time></trkpt><trkpt lat="44.9997083" lon="8.0155001"><ele>207.5</ele><time>2026-04-05T10:58:12.254Z</time></trkpt><trkpt lat="44.9998197" lon="8.0155205"><ele>210.0</ele><time>2026-04-05T10:58:13.254Z</time></trkpt><trkpt lat="44.999927" lon="8.0155544"><ele>210.0</ele><time>2026-04-05T10:58:14.254Z</time></trkpt><trkpt lat="45.0000312" lon="8.015616"><ele>210.0</ele><time>2026-04-05T10:58:15.253Z</time></trkpt><trkpt lat="45.0001422" lon="8.015694"><ele>210.0</ele><time>2026-04-05T10:58:16.254Z</time></trkpt><trkpt lat="45.0002561" lon="8.0157676"><ele>210.0</ele><time>2026-04-05T10:58:17.254Z</time></trkpt><trkpt lat="45.0003563" lon="8.0158515"><ele>207.4</ele><time>2026-04-05T10:58:18.254Z</time></trkpt><trkpt lat="45.0004405" lon="8.0159367"><ele>204.8</ele><time>2026-04-05T10:58:19.254Z</time></trkpt><trkpt lat="45.0005089" lon="8.0160285"><ele>202.2</ele><time>2026-04-05T10:58:20.254Z</time></trkpt><trkpt lat="45.000574" lon="8.0161282"><ele>199.6</ele><time>2026-04-05T10:58:21.254Z</time></trkpt><trkpt lat="45.0006488" lon="8.0162372"><ele>197.0</ele><time>2026-04-05T10:58:22.254Z</time></trkpt><trkpt lat="45.0007335" lon="8.0163443"><ele>197.0</ele><time>2026-04-05T10:58:23.254Z</time></trkpt><trkpt lat="45.0008178" lon="8.0164374"><ele>197.0</ele><time>2026-04-05T10:58:24.254Z</time></trkpt><trkpt lat="45.0008996" lon="8.0165281"><ele>197.0</ele><time>2026-04-05T10:58:25.254Z</time></trkpt><trkpt lat="45.0009725" lon="8.0166203"><ele>197.0</ele><time>2026-04-05T10:58:26.254Z</time></trkpt><trkpt lat="45.0010358" lon="8.0167099"><ele>197.0</ele><time>2026-04-05T10:58:27.254Z</time></trkpt><trkpt lat="45.0011008" lon="8.0167988"><ele>195.8</ele><time>2026-04-05T10:58:28.254Z</time></trkpt><trkpt lat="45.0012358" lon="8.016922"><ele>194.6</ele><time>2026-04-05T10:58:30.254Z</time></trkpt><trkpt lat="45.0013143" lon="8.0169612"><ele>193.4</ele><time>2026-04-05T10:58:31.254Z</time></trkpt><trkpt lat="45.0013996" lon="8.0169844"><ele>192.20000000000002</ele><time>2026-04-05T10:58:32.254Z</time></trkpt><trkpt lat="45.0014871" lon="8.0170018"><ele>191.0</ele><time>2026-04-05T10:58:33.254Z</time></trkpt><trkpt lat="45.0015777" lon="8.0170206"><ele>192.60000000000002</ele><time>2026-04-05T10:58:34.254Z</time></trkpt><trkpt lat="45.0016675" lon="8.0170343"><ele>194.2</ele><time>2026-04-05T10:58:35.254Z</time></trkpt><trkpt lat="45.0017629" lon="8.0170474"><ele>195.8</ele><time>2026-04-05T10:58:36.254Z</time></trkpt><trkpt lat="45.0018562" lon="8.0170729"><ele>197.39999999999998</ele><time>2026-04-05T10:58:37.254Z</time></trkpt><trkpt lat="45.00195" lon="8.017123"><ele>199.0</ele><time>2026-04-05T10:58:38.254Z</time></trkpt><trkpt lat="45.0020429" lon="8.017191"><ele>199.0</ele><time>2026-04-05T10:58:39.254Z</time></trkpt><trkpt lat="45.0021442" lon="8.0172832"><ele>199.0</ele><time>2026-04-05T10:58:40.254Z</time></trkpt><trkpt lat="45.0022457" lon="8.0173956"><ele>199.0</ele><time>2026-04-05T10:58:41.254Z</time></trkpt><trkpt lat="45.0023389" lon="8.0175046"><ele>199.0</ele><time>2026-04-05T10:58:42.254Z</time></trkpt><trkpt lat="45.00243" lon="8.0176077"><ele>197.79999999999998</ele><time>2026-04-05T10:58:43.254Z</time></trkpt><trkpt lat="45.0025238" lon="8.0177051"><ele>196.6</ele><time>2026-04-05T10:58:44.254Z</time></trkpt><trkpt lat="45.0026109" lon="8.0177934"><ele>195.4</ele><time>2026-04-05T10:58:45.254Z</time></trkpt><trkpt lat="45.0026955" lon="8.0178798"><ele>194.2</ele><time>2026-04-05T10:58:46.254Z</time></trkpt><trkpt lat="45.0027791" lon="8.0179719"><ele>193.0</ele><time>2026-04-05T10:58:47.254Z</time></trkpt><trkpt lat="45.0028695" lon="8.0180674"><ele>193.0</ele><time>2026-04-05T10:58:48.254Z</time></trkpt><trkpt lat="45.0029711" lon="8.0181563"><ele>193.0</ele><time>2026-04-05T10:58:49.254Z</time></trkpt><trkpt lat="45.0031761" lon="8.0183233"><ele>193.0</ele><time>2026-04-05T10:58:51.254Z</time></trkpt><trkpt lat="45.0032823" lon="8.0183864"><ele>193.25</ele><time>2026-04-05T10:58:52.254Z</time></trkpt><trkpt lat="45.0033813" lon="8.0184434"><ele>193.5</ele><time>2026-04-05T10:58:53.254Z</time></trkpt><trkpt lat="45.003486" lon="8.0185038"><ele>193.75</ele><time>2026-04-05T10:58:54.254Z</time></trkpt><trkpt lat="45.0035943" lon="8.0185724"><ele>194.0</ele><time>2026-04-05T10:58:55.254Z</time></trkpt><trkpt lat="45.0037067" lon="8.0186384"><ele>194.0</ele><time>2026-04-05T10:58:56.254Z</time></trkpt><trkpt lat="45.0038188" lon="8.0187013"><ele>194.0</ele><time>2026-04-05T10:58:57.254Z</time></trkpt><trkpt lat="45.0039319" lon="8.018763"><ele>194.0</ele><time>2026-04-05T10:58:58.254Z</time></trkpt><trkpt lat="45.0040351" lon="8.0188252"><ele>194.0</ele><time>2026-04-05T10:58:59.254Z</time></trkpt><trkpt lat="45.0041386" lon="8.0188903"><ele>196.16666666666669</ele><time>2026-04-05T10:59:00.254Z</time></trkpt><trkpt lat="45.0042308" lon="8.0189464"><ele>198.33333333333334</ele><time>2026-04-05T10:59:01.254Z</time></trkpt><trkpt lat="45.0043109" lon="8.018989"><ele>200.5</ele><time>2026-04-05T10:59:02.254Z</time></trkpt><trkpt lat="45.0043814" lon="8.0190214"><ele>202.66666666666669</ele><time>2026-04-05T10:59:03.254Z</time></trkpt><trkpt lat="45.0044434" lon="8.0190472"><ele>204.83333333333334</ele><time>2026-04-05T10:59:04.254Z</time></trkpt><trkpt lat="45.0045613" lon="8.0191045"><ele>207.0</ele><time>2026-04-05T10:59:06.253Z</time></trkpt><trkpt lat="45.0046383" lon="8.019137"><ele>206.0</ele><time>2026-04-05T10:59:07.253Z</time></trkpt><trkpt lat="45.0047271" lon="8.0191728"><ele>205.0</ele><time>2026-04-05T10:59:08.253Z</time></trkpt><trkpt lat="45.0048126" lon="8.01921"><ele>204.0</ele><time>2026-04-05T10:59:09.253Z</time></trkpt><trkpt lat="45.004895" lon="8.0192322"><ele>203.0</ele><time>2026-04-05T10:59:10.253Z</time></trkpt><trkpt lat="45.0050599" lon="8.0192271"><ele>202.0</ele><time>2026-04-05T10:59:12.253Z</time></trkpt><trkpt lat="45.0051547" lon="8.0191832"><ele>204.39999999999998</ele><time>2026-04-05T10:59:13.253Z</time></trkpt><trkpt lat="45.0052389" lon="8.0191404"><ele>206.79999999999998</ele><time>2026-04-05T10:59:14.253Z</time></trkpt><trkpt lat="45.0053253" lon="8.0191169"><ele>209.2</ele><time>2026-04-05T10:59:15.253Z</time></trkpt><trkpt lat="45.005418" lon="8.0190984"><ele>211.6</ele><time>2026-04-05T10:59:16.253Z</time></trkpt><trkpt lat="45.0055121" lon="8.0190856"><ele>214.0</ele><time>2026-04-05T10:59:17.253Z</time></trkpt><trkpt lat="45.0056007" lon="8.0190794"><ele>213.99999999999997</ele><time>2026-04-05T10:59:18.253Z</time></trkpt><trkpt lat="45.0056862" lon="8.0190888"><ele>214.0</ele><time>2026-04-05T10:59:19.253Z</time></trkpt><trkpt lat="45.0057665" lon="8.0191049"><ele>214.0</ele><time>2026-04-05T10:59:20.253Z</time></trkpt><trkpt lat="45.005836" lon="8.019135"><ele>214.0</ele><time>2026-04-05T10:59:21.253Z</time></trkpt><trkpt lat="45.0059034" lon="8.0191812"><ele>213.99999999999997</ele><time>2026-04-05T10:59:22.253Z</time></trkpt><trkpt lat="45.0059663" lon="8.0192455"><ele>214.0</ele><time>2026-04-05T10:59:23.253Z</time></trkpt><trkpt lat="45.0060249" lon="8.0193153"><ele>213.16666666666666</ele><time>2026-04-05T10:59:24.253Z</time></trkpt><trkpt lat="45.0060867" lon="8.0193766"><ele>212.33333333333331</ele><time>2026-04-05T10:59:25.253Z</time></trkpt><trkpt lat="45.0061443" lon="8.019416"><ele>211.5</ele><time>2026-04-05T10:59:26.253Z</time></trkpt><trkpt lat="45.0062054" lon="8.0194379"><ele>210.66666666666669</ele><time>2026-04-05T10:59:27.253Z</time></trkpt><trkpt lat="45.006328" lon="8.0194147"><ele>209.83333333333334</ele><time>2026-04-05T10:59:29.253Z</time></trkpt><trkpt lat="45.0063956" lon="8.0193778"><ele>209.0</ele><time>2026-04-05T10:59:30.253Z</time></trkpt><trkpt lat="45.0064821" lon="8.0193257"><ele>210.25</ele><time>2026-04-05T10:59:31.253Z</time></trkpt><trkpt lat="45.0066713" lon="8.0192397"><ele>211.5</ele><time>2026-04-05T10:59:33.253Z</time></trkpt><trkpt lat="45.0067696" lon="8.019212"><ele>212.75</ele><time>2026-04-05T10:59:34.253Z</time></trkpt><trkpt lat="45.0068676" lon="8.0192015"><ele>214.0</ele><time>2026-04-05T10:59:35.253Z</time></trkpt><trkpt lat="45.007012" lon="8.0192179"><ele>214.0</ele><time>2026-04-05T10:59:37.253Z</time></trkpt><trkpt lat="45.0071079" lon="8.0192187"><ele>213.99999999999997</ele><time>2026-04-05T10:59:38.253Z</time></trkpt><trkpt lat="45.0072128" lon="8.0192137"><ele>213.99999999999997</ele><time>2026-04-05T10:59:39.253Z</time></trkpt><trkpt lat="45.0073186" lon="8.019204"><ele>214.0</ele><time>2026-04-05T10:59:40.253Z</time></trkpt><trkpt lat="45.0074258" lon="8.0191897"><ele>214.0</ele><time>2026-04-05T10:59:41.253Z</time></trkpt><trkpt lat="45.0075342" lon="8.0191809"><ele>214.2</ele><time>2026-04-05T10:59:42.253Z</time></trkpt><trkpt lat="45.0076355" lon="8.0191826"><ele>214.39999999999998</ele><time>2026-04-05T10:59:43.253Z</time></trkpt><trkpt lat="45.0077297" lon="8.0191933"><ele>214.6</ele><time>2026-04-05T10:59:44.253Z</time></trkpt><trkpt lat="45.0078234" lon="8.0192251"><ele>214.8</ele><time>2026-04-05T10:59:45.253Z</time></trkpt><trkpt lat="45.0079167" lon="8.0192716"><ele>215.0</ele><time>2026-04-05T10:59:46.253Z</time></trkpt><trkpt lat="45.0080069" lon="8.0193271"><ele>215.00000000000003</ele><time>2026-04-05T10:59:47.253Z</time></trkpt><trkpt lat="45.008089" lon="8.0193878"><ele>215.0</ele><time>2026-04-05T10:59:48.253Z</time></trkpt><trkpt lat="45.0081697" lon="8.0194498"><ele>215.0</ele><time>2026-04-05T10:59:49.253Z</time></trkpt><trkpt lat="45.0082433" lon="8.0195092"><ele>215.0</ele><time>2026-04-05T10:59:50.253Z</time></trkpt><trkpt lat="45.0083123" lon="8.0195696"><ele>215.00000000000003</ele><time>2026-04-05T10:59:51.253Z</time></trkpt><trkpt lat="45.008368" lon="8.0196333"><ele>215.0</ele><time>2026-04-05T10:59:52.253Z</time></trkpt><trkpt lat="45.0084799" lon="8.0197514"><ele>214.33333333333334</ele><time>2026-04-05T10:59:54.253Z</time></trkpt><trkpt lat="45.0085392" lon="8.0198238"><ele>213.66666666666669</ele><time>2026-04-05T10:59:55.253Z</time></trkpt><trkpt lat="45.0085839" lon="8.0199057"><ele>213.0</ele><time>2026-04-05T10:59:56.253Z</time></trkpt><trkpt lat="45.0086207" lon="8.0199972"><ele>212.33333333333331</ele><time>2026-04-05T10:59:57.253Z</time></trkpt><trkpt lat="45.0086615" lon="8.0200925"><ele>211.66666666666666</ele><time>2026-04-05T10:59:58.253Z</time></trkpt><trkpt lat="45.0087188" lon="8.0201959"><ele>211.0</ele><time>2026-04-05T10:59:59.253Z</time></trkpt><trkpt lat="45.0087845" lon="8.0202984"><ele>210.99999999999997</ele><time>2026-04-05T11:00:00.253Z</time></trkpt><trkpt lat="45.0088529" lon="8.020384"><ele>211.0</ele><time>2026-04-05T11:00:01.253Z</time></trkpt><trkpt lat="45.008925" lon="8.0204432"><ele>211.0</ele><time>2026-04-05T11:00:02.253Z</time></trkpt><trkpt lat="45.0090082" lon="8.0204884"><ele>211.0</ele><time>2026-04-05T11:00:03.253Z</time></trkpt><trkpt lat="45.0090978" lon="8.0205245"><ele>210.99999999999997</ele><time>2026-04-05T11:00:04.252Z</time></trkpt><trkpt lat="45.0091854" lon="8.0205477"><ele>211.0</ele><time>2026-04-05T11:00:05.253Z</time></trkpt><trkpt lat="45.0092736" lon="8.0205649"><ele>211.0</ele><time>2026-04-05T11:00:06.253Z</time></trkpt><trkpt lat="45.0093739" lon="8.0205672"><ele>211.0</ele><time>2026-04-05T11:00:07.253Z</time></trkpt><trkpt lat="45.0094765" lon="8.0205635"><ele>211.0</ele><time>2026-04-05T11:00:08.253Z</time></trkpt><trkpt lat="45.009583" lon="8.0205678"><ele>211.0</ele><time>2026-04-05T11:00:09.253Z</time></trkpt><trkpt lat="45.009689" lon="8.0205813"><ele>211.0</ele><time>2026-04-05T11:00:10.253Z</time></trkpt><trkpt lat="45.0097941" lon="8.0205838"><ele>211.0</ele><time>2026-04-05T11:00:11.253Z</time></trkpt><trkpt lat="45.0098841" lon="8.020572"><ele>211.0</ele><time>2026-04-05T11:00:12.253Z</time></trkpt><trkpt lat="45.0099725" lon="8.02055"><ele>211.0</ele><time>2026-04-05T11:00:13.253Z</time></trkpt><trkpt lat="45.0101804" lon="8.0204623"><ele>211.0</ele><time>2026-04-05T11:00:15.253Z</time></trkpt><trkpt lat="45.0102817" lon="8.0204173"><ele>212.4</ele><time>2026-04-05T11:00:16.252Z</time></trkpt><trkpt lat="45.0103829" lon="8.0203824"><ele>213.8</ele><time>2026-04-05T11:00:17.253Z</time></trkpt><trkpt lat="45.0104552" lon="8.0203606"><ele>215.20000000000002</ele><time>2026-04-05T11:00:18.253Z</time></trkpt><trkpt lat="45.0105278" lon="8.02034"><ele>216.60000000000002</ele><time>2026-04-05T11:00:19.253Z</time></trkpt><trkpt lat="45.0106339" lon="8.0203137"><ele>218.0</ele><time>2026-04-05T11:00:21.253Z</time></trkpt><trkpt lat="45.0107518" lon="8.0202724"><ele>216.60000000000002</ele><time>2026-04-05T11:00:23.253Z</time></trkpt><trkpt lat="45.0108616" lon="8.0202079"><ele>215.20000000000002</ele><time>2026-04-05T11:00:25.253Z</time></trkpt><trkpt lat="45.0109282" lon="8.0201571"><ele>213.8</ele><time>2026-04-05T11:00:26.253Z</time></trkpt><trkpt lat="45.0110138" lon="8.0200904"><ele>212.4</ele><time>2026-04-05T11:00:27.253Z</time></trkpt><trkpt lat="45.0111025" lon="8.0200343"><ele>211.0</ele><time>2026-04-05T11:00:28.253Z</time></trkpt><trkpt lat="45.0111948" lon="8.0199935"><ele>211.4</ele><time>2026-04-05T11:00:29.253Z</time></trkpt><trkpt lat="45.011284" lon="8.0199764"><ele>211.8</ele><time>2026-04-05T11:00:30.253Z</time></trkpt><trkpt lat="45.0113782" lon="8.0199674"><ele>212.20000000000002</ele><time>2026-04-05T11:00:31.253Z</time></trkpt><trkpt lat="45.0114747" lon="8.0199612"><ele>212.60000000000002</ele><time>2026-04-05T11:00:32.253Z</time></trkpt><trkpt lat="45.0115703" lon="8.0199554"><ele>213.0</ele><time>2026-04-05T11:00:33.253Z</time></trkpt><trkpt lat="45.0116627" lon="8.0199506"><ele>213.0</ele><time>2026-04-05T11:00:34.253Z</time></trkpt><trkpt lat="45.0118254" lon="8.0199243"><ele>213.0</ele><time>2026-04-05T11:00:36.253Z</time></trkpt><trkpt lat="45.0119338" lon="8.0199136"><ele>213.0</ele><time>2026-04-05T11:00:38.253Z</time></trkpt><trkpt lat="45.011991" lon="8.0199543"><ele>213.0</ele><time>2026-04-05T11:00:40.253Z</time></trkpt><trkpt lat="45.0120219" lon="8.0200547"><ele>213.0</ele><time>2026-04-05T11:00:42.253Z</time></trkpt><trkpt lat="45.0121049" lon="8.0201367"><ele>211.60000000000002</ele><time>2026-04-05T11:00:44.253Z</time></trkpt><trkpt lat="45.012224" lon="8.0202029"><ele>210.20000000000002</ele><time>2026-04-05T11:00:46.253Z</time></trkpt><trkpt lat="45.0122848" lon="8.0202508"><ele>208.8</ele><time>2026-04-05T11:00:47.253Z</time></trkpt><trkpt lat="45.0123461" lon="8.0203152"><ele>207.4</ele><time>2026-04-05T11:00:48.253Z</time></trkpt><trkpt lat="45.0123999" lon="8.0203896"><ele>206.0</ele><time>2026-04-05T11:00:49.253Z</time></trkpt><trkpt lat="45.0124611" lon="8.0205624"><ele>206.0</ele><time>2026-04-05T11:00:51.253Z</time></trkpt><trkpt lat="45.0124795" lon="8.0206611"><ele>206.0</ele><time>2026-04-05T11:00:52.253Z</time></trkpt><trkpt lat="45.0124802" lon="8.0207771"><ele>206.0</ele><time>2026-04-05T11:00:53.253Z</time></trkpt><trkpt lat="45.0124673" lon="8.0209161"><ele>206.0</ele><time>2026-04-05T11:00:54.253Z</time></trkpt><trkpt lat="45.0124475" lon="8.0210601"><ele>206.0</ele><time>2026-04-05T11:00:55.253Z</time></trkpt><trkpt lat="45.0124409" lon="8.0213231"><ele>206.20000000000002</ele><time>2026-04-05T11:00:57.253Z</time></trkpt><trkpt lat="45.0124714" lon="8.0214341"><ele>206.4</ele><time>2026-04-05T11:00:58.253Z</time></trkpt><trkpt lat="45.0125321" lon="8.0215364"><ele>206.6</ele><time>2026-04-05T11:00:59.253Z</time></trkpt><trkpt lat="45.012614" lon="8.0216152"><ele>206.8</ele><time>2026-04-05T11:01:00.253Z</time></trkpt><trkpt lat="45.0127164" lon="8.0216599"><ele>207.0</ele><time>2026-04-05T11:01:01.253Z</time></trkpt><trkpt lat="45.0128519" lon="8.0216779"><ele>207.0</ele><time>2026-04-05T11:01:02.253Z</time></trkpt><trkpt lat="45.0129995" lon="8.0216891"><ele>207.0</ele><time>2026-04-05T11:01:03.253Z</time></trkpt><trkpt lat="45.01315" lon="8.0217077"><ele>207.0</ele><time>2026-04-05T11:01:04.253Z</time></trkpt><trkpt lat="45.0132913" lon="8.0217308"><ele>207.0</ele><time>2026-04-05T11:01:05.253Z</time></trkpt><trkpt lat="45.0134216" lon="8.0217612"><ele>207.5</ele><time>2026-04-05T11:01:06.253Z</time></trkpt><trkpt lat="45.0135377" lon="8.0217918"><ele>208.0</ele><time>2026-04-05T11:01:07.253Z</time></trkpt><trkpt lat="45.0136567" lon="8.0218216"><ele>208.5</ele><time>2026-04-05T11:01:08.253Z</time></trkpt><trkpt lat="45.0137831" lon="8.0218454"><ele>209.0</ele><time>2026-04-05T11:01:09.253Z</time></trkpt><trkpt lat="45.0139135" lon="8.0218703"><ele>209.0</ele><time>2026-04-05T11:01:10.253Z</time></trkpt><trkpt lat="45.0140293" lon="8.0218969"><ele>209.0</ele><time>2026-04-05T11:01:11.253Z</time></trkpt><trkpt lat="45.0141442" lon="8.0219301"><ele>209.0</ele><time>2026-04-05T11:01:12.253Z</time></trkpt><trkpt lat="45.0142647" lon="8.021974"><ele>209.0</ele><time>2026-04-05T11:01:13.252Z</time></trkpt><trkpt lat="45.0143877" lon="8.0220349"><ele>210.33333333333334</ele><time>2026-04-05T11:01:14.253Z</time></trkpt><trkpt lat="45.0145125" lon="8.0220951"><ele>211.66666666666669</ele><time>2026-04-05T11:01:15.253Z</time></trkpt><trkpt lat="45.0146297" lon="8.0221515"><ele>213.0</ele><time>2026-04-05T11:01:16.253Z</time></trkpt><trkpt lat="45.014849" lon="8.0222523"><ele>213.0</ele><time>2026-04-05T11:01:18.253Z</time></trkpt><trkpt lat="45.0149608" lon="8.0222886"><ele>213.0</ele><time>2026-04-05T11:01:19.253Z</time></trkpt><trkpt lat="45.0150814" lon="8.0223089"><ele>213.0</ele><time>2026-04-05T11:01:20.253Z</time></trkpt><trkpt lat="45.0152056" lon="8.0223171"><ele>213.0</ele><time>2026-04-05T11:01:21.253Z</time></trkpt><trkpt lat="45.0153362" lon="8.0223125"><ele>213.0</ele><time>2026-04-05T11:01:22.253Z</time></trkpt><trkpt lat="45.0154745" lon="8.0223101"><ele>213.0</ele><time>2026-04-05T11:01:23.253Z</time></trkpt><trkpt lat="45.0156032" lon="8.0223132"><ele>213.0</ele><time>2026-04-05T11:01:24.253Z</time></trkpt><trkpt lat="45.0157299" lon="8.0223239"><ele>213.0</ele><time>2026-04-05T11:01:25.253Z</time></trkpt><trkpt lat="45.0158535" lon="8.0223338"><ele>213.0</ele><time>2026-04-05T11:01:26.253Z</time></trkpt><trkpt lat="45.0159766" lon="8.0223415"><ele>213.0</ele><time>2026-04-05T11:01:27.253Z</time></trkpt><trkpt lat="45.0161056" lon="8.0223549"><ele>213.0</ele><time>2026-04-05T11:01:28.253Z</time></trkpt><trkpt lat="45.0162358" lon="8.0223666"><ele>213.0</ele><time>2026-04-05T11:01:29.253Z</time></trkpt><trkpt lat="45.01637" lon="8.0223904"><ele>213.0</ele><time>2026-04-05T11:01:30.253Z</time></trkpt><trkpt lat="45.0164941" lon="8.0223994"><ele>213.0</ele><time>2026-04-05T11:01:31.253Z</time></trkpt><trkpt lat="45.0166083" lon="8.0223941"><ele>213.0</ele><time>2026-04-05T11:01:32.253Z</time></trkpt><trkpt lat="45.0167072" lon="8.0223755"><ele>213.0</ele><time>2026-04-05T11:01:33.253Z</time></trkpt><trkpt lat="45.0168127" lon="8.0223401"><ele>213.0</ele><time>2026-04-05T11:01:34.253Z</time></trkpt><trkpt lat="45.016915" lon="8.0222838"><ele>213.66666666666669</ele><time>2026-04-05T11:01:35.253Z</time></trkpt><trkpt lat="45.0170126" lon="8.0222123"><ele>214.33333333333334</ele><time>2026-04-05T11:01:36.253Z</time></trkpt><trkpt lat="45.0171065" lon="8.0221275"><ele>215.0</ele><time>2026-04-05T11:01:37.253Z</time></trkpt><trkpt lat="45.0173093" lon="8.0219523"><ele>215.0</ele><time>2026-04-05T11:01:39.253Z</time></trkpt><trkpt lat="45.0174183" lon="8.0218506"><ele>215.0</ele><time>2026-04-05T11:01:40.253Z</time></trkpt><trkpt lat="45.017524" lon="8.0217423"><ele>215.0</ele><time>2026-04-05T11:01:41.253Z</time></trkpt><trkpt lat="45.0176209" lon="8.0216345"><ele>215.0</ele><time>2026-04-05T11:01:42.253Z</time></trkpt><trkpt lat="45.0177156" lon="8.0215363"><ele>215.25</ele><time>2026-04-05T11:01:43.253Z</time></trkpt><trkpt lat="45.0178055" lon="8.0214305"><ele>215.5</ele><time>2026-04-05T11:01:44.253Z</time></trkpt><trkpt lat="45.0178906" lon="8.0213271"><ele>215.75</ele><time>2026-04-05T11:01:45.253Z</time></trkpt><trkpt lat="45.017981" lon="8.0212166"><ele>216.0</ele><time>2026-04-05T11:01:46.253Z</time></trkpt><trkpt lat="45.0180736" lon="8.021115"><ele>216.0</ele><time>2026-04-05T11:01:47.253Z</time></trkpt><trkpt lat="45.0181687" lon="8.0210317"><ele>216.0</ele><time>2026-04-05T11:01:48.253Z</time></trkpt><trkpt lat="45.0182729" lon="8.020964"><ele>216.0</ele><time>2026-04-05T11:01:49.253Z</time></trkpt><trkpt lat="45.0183871" lon="8.0209092"><ele>216.0</ele><time>2026-04-05T11:01:50.253Z</time></trkpt><trkpt lat="45.0184946" lon="8.0208556"><ele>215.60000000000002</ele><time>2026-04-05T11:01:51.253Z</time></trkpt><trkpt lat="45.0185988" lon="8.0208075"><ele>215.20000000000002</ele><time>2026-04-05T11:01:52.253Z</time></trkpt><trkpt lat="45.0186998" lon="8.0207599"><ele>214.79999999999998</ele><time>2026-04-05T11:01:53.253Z</time></trkpt><trkpt lat="45.0187984" lon="8.0207"><ele>214.39999999999998</ele><time>2026-04-05T11:01:54.253Z</time></trkpt><trkpt lat="45.0188988" lon="8.0206202"><ele>214.0</ele><time>2026-04-05T11:01:55.253Z</time></trkpt><trkpt lat="45.0189947" lon="8.0205163"><ele>214.0</ele><time>2026-04-05T11:01:56.253Z</time></trkpt><trkpt lat="45.0190801" lon="8.0203906"><ele>214.0</ele><time>2026-04-05T11:01:57.253Z</time></trkpt><trkpt lat="45.0191537" lon="8.0202614"><ele>214.0</ele><time>2026-04-05T11:01:58.253Z</time></trkpt><trkpt lat="45.0192706" lon="8.0200248"><ele>214.0</ele><time>2026-04-05T11:02:00.253Z</time></trkpt><trkpt lat="45.0193216" lon="8.0199283"><ele>214.83333333333331</ele><time>2026-04-05T11:02:01.253Z</time></trkpt><trkpt lat="45.0193759" lon="8.0198529"><ele>215.66666666666666</ele><time>2026-04-05T11:02:02.253Z</time></trkpt><trkpt lat="45.0194317" lon="8.0197953"><ele>216.5</ele><time>2026-04-05T11:02:03.253Z</time></trkpt><trkpt lat="45.019497" lon="8.0197563"><ele>217.33333333333331</ele><time>2026-04-05T11:02:04.253Z</time></trkpt><trkpt lat="45.0195724" lon="8.0197412"><ele>218.16666666666666</ele><time>2026-04-05T11:02:05.253Z</time></trkpt><trkpt lat="45.019649" lon="8.0197307"><ele>219.0</ele><time>2026-04-05T11:02:06.253Z</time></trkpt><trkpt lat="45.0197388" lon="8.019693"><ele>219.0</ele><time>2026-04-05T11:02:07.253Z</time></trkpt><trkpt lat="45.0198282" lon="8.0196304"><ele>218.99999999999997</ele><time>2026-04-05T11:02:08.253Z</time></trkpt><trkpt lat="45.0199131" lon="8.0195614"><ele>218.99999999999997</ele><time>2026-04-05T11:02:09.253Z</time></trkpt><trkpt lat="45.0199969" lon="8.0194839"><ele>219.0</ele><time>2026-04-05T11:02:10.253Z</time></trkpt><trkpt lat="45.0200739" lon="8.0193967"><ele>219.0</ele><time>2026-04-05T11:02:11.253Z</time></trkpt><trkpt lat="45.0201424" lon="8.0193141"><ele>219.0</ele><time>2026-04-05T11:02:12.253Z</time></trkpt><trkpt lat="45.0202102" lon="8.0192487"><ele>219.0</ele><time>2026-04-05T11:02:13.253Z</time></trkpt><trkpt lat="45.0202811" lon="8.0191863"><ele>219.0</ele><time>2026-04-05T11:02:14.253Z</time></trkpt><trkpt lat="45.0203558" lon="8.0191191"><ele>219.0</ele><time>2026-04-05T11:02:15.253Z</time></trkpt><trkpt lat="45.0204315" lon="8.019053"><ele>219.0</ele><time>2026-04-05T11:02:16.253Z</time></trkpt><trkpt lat="45.0205132" lon="8.0189852"><ele>219.0</ele><time>2026-04-05T11:02:17.253Z</time></trkpt><trkpt lat="45.02061" lon="8.0189007"><ele>219.0</ele><time>2026-04-05T11:02:18.253Z</time></trkpt><trkpt lat="45.0207188" lon="8.0187926"><ele>219.0</ele><time>2026-04-05T11:02:19.253Z</time></trkpt><trkpt lat="45.0209143" lon="8.0185897"><ele>219.0</ele><time>2026-04-05T11:02:21.252Z</time></trkpt><trkpt lat="45.0210043" lon="8.0185022"><ele>219.0</ele><time>2026-04-05T11:02:22.253Z</time></trkpt><trkpt lat="45.0210803" lon="8.0184305"><ele>219.0</ele><time>2026-04-05T11:02:23.253Z</time></trkpt><trkpt lat="45.0211491" lon="8.0183575"><ele>219.0</ele><time>2026-04-05T11:02:24.253Z</time></trkpt><trkpt lat="45.0212138" lon="8.0182829"><ele>219.0</ele><time>2026-04-05T11:02:25.253Z</time></trkpt><trkpt lat="45.0212644" lon="8.0181987"><ele>219.0</ele><time>2026-04-05T11:02:26.253Z</time></trkpt><trkpt lat="45.0213004" lon="8.0181131"><ele>219.0</ele><time>2026-04-05T11:02:27.253Z</time></trkpt><trkpt lat="45.0213161" lon="8.0180202"><ele>219.0</ele><time>2026-04-05T11:02:28.253Z</time></trkpt><trkpt lat="45.0213262" lon="8.0179293"><ele>219.0</ele><time>2026-04-05T11:02:29.253Z</time></trkpt><trkpt lat="45.0213919" lon="8.017775"><ele>219.0</ele><time>2026-04-05T11:02:31.253Z</time></trkpt><trkpt lat="45.021457" lon="8.0177243"><ele>219.0</ele><time>2026-04-05T11:02:32.253Z</time></trkpt><trkpt lat="45.0215382" lon="8.0176828"><ele>219.0</ele><time>2026-04-05T11:02:33.253Z</time></trkpt><trkpt lat="45.021629" lon="8.0176403"><ele>219.0</ele><time>2026-04-05T11:02:34.253Z</time></trkpt><trkpt lat="45.0217211" lon="8.0176048"><ele>218.2</ele><time>2026-04-05T11:02:35.253Z</time></trkpt><trkpt lat="45.0218209" lon="8.0175723"><ele>217.39999999999998</ele><time>2026-04-05T11:02:36.253Z</time></trkpt><trkpt lat="45.021922" lon="8.0175463"><ele>216.6</ele><time>2026-04-05T11:02:37.253Z</time></trkpt><trkpt lat="45.0220214" lon="8.0175264"><ele>215.8</ele><time>2026-04-05T11:02:38.253Z</time></trkpt><trkpt lat="45.0221202" lon="8.0175074"><ele>215.0</ele><time>2026-04-05T11:02:39.253Z</time></trkpt><trkpt lat="45.0222082" lon="8.0174949"><ele>215.0</ele><time>2026-04-05T11:02:40.253Z</time></trkpt><trkpt lat="45.0224072" lon="8.017504"><ele>215.0</ele><time>2026-04-05T11:02:43.253Z</time></trkpt><trkpt lat="45.0224725" lon="8.0175067"><ele>215.0</ele><time>2026-04-05T11:02:44.253Z</time></trkpt><trkpt lat="45.0225363" lon="8.0175127"><ele>215.0</ele><time>2026-04-05T11:02:45.253Z</time></trkpt><trkpt lat="45.0226334" lon="8.0175578"><ele>215.0</ele><time>2026-04-05T11:02:47.253Z</time></trkpt><trkpt lat="45.0227153" lon="8.0176657"><ele>216.33333333333334</ele><time>2026-04-05T11:02:49.253Z</time></trkpt><trkpt lat="45.0227507" lon="8.0177476"><ele>217.66666666666669</ele><time>2026-04-05T11:02:50.253Z</time></trkpt><trkpt lat="45.0227876" lon="8.0178423"><ele>219.0</ele><time>2026-04-05T11:02:51.253Z</time></trkpt><trkpt lat="45.0228205" lon="8.0179519"><ele>220.33333333333331</ele><time>2026-04-05T11:02:52.253Z</time></trkpt><trkpt lat="45.022859" lon="8.0180562"><ele>221.66666666666666</ele><time>2026-04-05T11:02:53.253Z</time></trkpt><trkpt lat="45.0229103" lon="8.0181572"><ele>223.0</ele><time>2026-04-05T11:02:54.253Z</time></trkpt><trkpt lat="45.0229666" lon="8.018261"><ele>226.2</ele><time>2026-04-05T11:02:55.253Z</time></trkpt><trkpt lat="45.0230278" lon="8.0183692"><ele>229.4</ele><time>2026-04-05T11:02:56.253Z</time></trkpt><trkpt lat="45.0230882" lon="8.0184766"><ele>232.59999999999997</ele><time>2026-04-05T11:02:57.253Z</time></trkpt><trkpt lat="45.0231446" lon="8.0185854"><ele>235.79999999999998</ele><time>2026-04-05T11:02:58.253Z</time></trkpt><trkpt lat="45.0231898" lon="8.0186975"><ele>239.0</ele><time>2026-04-05T11:02:59.253Z</time></trkpt><trkpt lat="45.0232308" lon="8.0188098"><ele>239.00000000000003</ele><time>2026-04-05T11:03:00.253Z</time></trkpt><trkpt lat="45.0232732" lon="8.0189176"><ele>239.0</ele><time>2026-04-05T11:03:01.253Z</time></trkpt><trkpt lat="45.0233698" lon="8.0190856"><ele>239.0</ele><time>2026-04-05T11:03:03.253Z</time></trkpt><trkpt lat="45.0234098" lon="8.0191545"><ele>239.0</ele><time>2026-04-05T11:03:04.253Z</time></trkpt><trkpt lat="45.023433" lon="8.0192425"><ele>239.00000000000003</ele><time>2026-04-05T11:03:05.253Z</time></trkpt><trkpt lat="45.02345" lon="8.0193441"><ele>239.0</ele><time>2026-04-05T11:03:06.253Z</time></trkpt><trkpt lat="45.0234707" lon="8.0194554"><ele>239.33333333333334</ele><time>2026-04-05T11:03:07.253Z</time></trkpt><trkpt lat="45.023499" lon="8.0195572"><ele>239.66666666666669</ele><time>2026-04-05T11:03:08.253Z</time></trkpt><trkpt lat="45.0235238" lon="8.0196536"><ele>240.0</ele><time>2026-04-05T11:03:09.253Z</time></trkpt><trkpt lat="45.0235499" lon="8.0197406"><ele>240.33333333333331</ele><time>2026-04-05T11:03:10.253Z</time></trkpt><trkpt lat="45.0236027" lon="8.0198834"><ele>240.66666666666666</ele><time>2026-04-05T11:03:12.253Z</time></trkpt><trkpt lat="45.0236533" lon="8.0200016"><ele>241.0</ele><time>2026-04-05T11:03:14.253Z</time></trkpt><trkpt lat="45.023672" lon="8.0200913"><ele>241.20000000000002</ele><time>2026-04-05T11:03:16.253Z</time></trkpt><trkpt lat="45.023732" lon="8.0202129"><ele>241.40000000000003</ele><time>2026-04-05T11:03:25.253Z</time></trkpt><trkpt lat="45.0238659" lon="8.0204012"><ele>241.6</ele><time>2026-04-05T11:03:28.253Z</time></trkpt><trkpt lat="45.0239291" lon="8.020441"><ele>241.8</ele><time>2026-04-05T11:03:29.253Z</time></trkpt><trkpt lat="45.0239992" lon="8.0204716"><ele>242.0</ele><time>2026-04-05T11:03:30.253Z</time></trkpt><trkpt lat="45.024074" lon="8.0204889"><ele>242.0</ele><time>2026-04-05T11:03:31.253Z</time></trkpt><trkpt lat="45.024142" lon="8.0204947"><ele>241.99999999999997</ele><time>2026-04-05T11:03:32.253Z</time></trkpt><trkpt lat="45.0242095" lon="8.0204915"><ele>242.0</ele><time>2026-04-05T11:03:33.253Z</time></trkpt><trkpt lat="45.0242782" lon="8.0204935"><ele>242.0</ele><time>2026-04-05T11:03:34.253Z</time></trkpt><trkpt lat="45.0243495" lon="8.0205014"><ele>241.99999999999997</ele><time>2026-04-05T11:03:35.253Z</time></trkpt><trkpt lat="45.0244212" lon="8.0205056"><ele>242.0</ele><time>2026-04-05T11:03:36.253Z</time></trkpt><trkpt lat="45.024493" lon="8.0205081"><ele>242.0</ele><time>2026-04-05T11:03:37.253Z</time></trkpt><trkpt lat="45.0245662" lon="8.0205006"><ele>240.66666666666669</ele><time>2026-04-05T11:03:38.253Z</time></trkpt><trkpt lat="45.0246385" lon="8.0204902"><ele>239.33333333333334</ele><time>2026-04-05T11:03:39.253Z</time></trkpt><trkpt lat="45.0247092" lon="8.0204781"><ele>238.0</ele><time>2026-04-05T11:03:40.253Z</time></trkpt><trkpt lat="45.0247744" lon="8.020468"><ele>236.66666666666669</ele><time>2026-04-05T11:03:41.252Z</time></trkpt><trkpt lat="45.0248445" lon="8.0204793"><ele>235.33333333333334</ele><time>2026-04-05T11:03:42.253Z</time></trkpt><trkpt lat="45.0249249" lon="8.0205007"><ele>234.0</ele><time>2026-04-05T11:03:43.253Z</time></trkpt><trkpt lat="45.0250192" lon="8.020515"><ele>234.0</ele><time>2026-04-05T11:03:44.253Z</time></trkpt><trkpt lat="45.0251135" lon="8.0205195"><ele>234.0</ele><time>2026-04-05T11:03:45.253Z</time></trkpt><trkpt lat="45.0252104" lon="8.0205172"><ele>234.0</ele><time>2026-04-05T11:03:46.253Z</time></trkpt><trkpt lat="45.0254142" lon="8.0204893"><ele>234.0</ele><time>2026-04-05T11:03:48.253Z</time></trkpt><trkpt lat="45.0255217" lon="8.02047"><ele>234.0</ele><time>2026-04-05T11:03:49.253Z</time></trkpt><trkpt lat="45.0256253" lon="8.0204483"><ele>233.99999999999997</ele><time>2026-04-05T11:03:50.253Z</time></trkpt><trkpt lat="45.0257304" lon="8.0204249"><ele>233.99999999999997</ele><time>2026-04-05T11:03:51.253Z</time></trkpt><trkpt lat="45.0258308" lon="8.0204043"><ele>234.0</ele><time>2026-04-05T11:03:52.253Z</time></trkpt><trkpt lat="45.025922" lon="8.0203791"><ele>234.0</ele><time>2026-04-05T11:03:53.253Z</time></trkpt><trkpt lat="45.0260014" lon="8.020343"><ele>233.85714285714286</ele><time>2026-04-05T11:03:54.253Z</time></trkpt><trkpt lat="45.0260665" lon="8.0203068"><ele>233.71428571428572</ele><time>2026-04-05T11:03:55.253Z</time></trkpt><trkpt lat="45.0261223" lon="8.0202629"><ele>233.57142857142858</ele><time>2026-04-05T11:03:56.253Z</time></trkpt><trkpt lat="45.0261696" lon="8.0202031"><ele>233.42857142857144</ele><time>2026-04-05T11:03:57.253Z</time></trkpt><trkpt lat="45.0262112" lon="8.0201265"><ele>233.28571428571428</ele><time>2026-04-05T11:03:58.253Z</time></trkpt><trkpt lat="45.0262398" lon="8.0200428"><ele>233.14285714285717</ele><time>2026-04-05T11:03:59.253Z</time></trkpt><trkpt lat="45.0262502" lon="8.0199511"><ele>233.0</ele><time>2026-04-05T11:04:00.253Z</time></trkpt><trkpt lat="45.0262585" lon="8.0197983"><ele>233.0</ele><time>2026-04-05T11:04:02.253Z</time></trkpt><trkpt lat="45.0263217" lon="8.0197243"><ele>233.0</ele><time>2026-04-05T11:04:04.253Z</time></trkpt><trkpt lat="45.0264151" lon="8.0197082"><ele>233.0</ele><time>2026-04-05T11:04:06.253Z</time></trkpt><trkpt lat="45.0265221" lon="8.0196751"><ele>233.0</ele><time>2026-04-05T11:04:08.253Z</time></trkpt><trkpt lat="45.0266383" lon="8.0195458"><ele>233.0</ele><time>2026-04-05T11:04:10.253Z</time></trkpt><trkpt lat="45.0267119" lon="8.0194398"><ele>232.60000000000002</ele><time>2026-04-05T11:04:11.253Z</time></trkpt><trkpt lat="45.0267843" lon="8.0193421"><ele>232.20000000000002</ele><time>2026-04-05T11:04:12.253Z</time></trkpt><trkpt lat="45.0268631" lon="8.0192621"><ele>231.8</ele><time>2026-04-05T11:04:13.253Z</time></trkpt><trkpt lat="45.0269435" lon="8.0192046"><ele>231.4</ele><time>2026-04-05T11:04:14.253Z</time></trkpt><trkpt lat="45.0270267" lon="8.0191629"><ele>231.0</ele><time>2026-04-05T11:04:15.253Z</time></trkpt><trkpt lat="45.0271035" lon="8.0191468"><ele>231.0</ele><time>2026-04-05T11:04:16.253Z</time></trkpt><trkpt lat="45.0271872" lon="8.0191495"><ele>231.0</ele><time>2026-04-05T11:04:17.253Z</time></trkpt><trkpt lat="45.0272746" lon="8.0191576"><ele>231.0</ele><time>2026-04-05T11:04:18.253Z</time></trkpt><trkpt lat="45.027354" lon="8.0191552"><ele>231.0</ele><time>2026-04-05T11:04:19.253Z</time></trkpt><trkpt lat="45.0274199" lon="8.0191451"><ele>231.0</ele><time>2026-04-05T11:04:20.253Z</time></trkpt><trkpt lat="45.0274832" lon="8.0191201"><ele>231.0</ele><time>2026-04-05T11:04:21.253Z</time></trkpt><trkpt lat="45.0275511" lon="8.0190767"><ele>231.0</ele><time>2026-04-05T11:04:22.253Z</time></trkpt><trkpt lat="45.0276331" lon="8.0190073"><ele>231.00000000000003</ele><time>2026-04-05T11:04:23.253Z</time></trkpt><trkpt lat="45.0277166" lon="8.0189298"><ele>231.00000000000003</ele><time>2026-04-05T11:04:24.253Z</time></trkpt><trkpt lat="45.027799" lon="8.0188495"><ele>231.0</ele><time>2026-04-05T11:04:25.253Z</time></trkpt><trkpt lat="45.0278796" lon="8.0187577"><ele>231.0</ele><time>2026-04-05T11:04:26.253Z</time></trkpt><trkpt lat="45.0279511" lon="8.0186584"><ele>231.0</ele><time>2026-04-05T11:04:27.253Z</time></trkpt><trkpt lat="45.0280186" lon="8.018552"><ele>231.0</ele><time>2026-04-05T11:04:28.253Z</time></trkpt><trkpt lat="45.0280812" lon="8.0184544"><ele>231.0</ele><time>2026-04-05T11:04:29.253Z</time></trkpt><trkpt lat="45.0281608" lon="8.0182177"><ele>231.0</ele><time>2026-04-05T11:04:32.253Z</time></trkpt><trkpt lat="45.0281406" lon="8.0180797"><ele>231.4</ele><time>2026-04-05T11:04:34.253Z</time></trkpt><trkpt lat="45.0280756" lon="8.017944"><ele>231.8</ele><time>2026-04-05T11:04:36.253Z</time></trkpt><trkpt lat="45.0280679" lon="8.0178387"><ele>232.20000000000002</ele><time>2026-04-05T11:04:38.253Z</time></trkpt><trkpt lat="45.0281584" lon="8.0178311"><ele>232.60000000000002</ele><time>2026-04-05T11:04:41.253Z</time></trkpt><trkpt lat="45.0282747" lon="8.0178384"><ele>233.0</ele><time>2026-04-05T11:04:43.253Z</time></trkpt><trkpt lat="45.0283495" lon="8.0178207"><ele>233.14285714285717</ele><time>2026-04-05T11:04:44.253Z</time></trkpt><trkpt lat="45.0284121" lon="8.0177805"><ele>233.28571428571428</ele><time>2026-04-05T11:04:45.253Z</time></trkpt><trkpt lat="45.0284657" lon="8.017721"><ele>233.42857142857144</ele><time>2026-04-05T11:04:46.253Z</time></trkpt><trkpt lat="45.0285103" lon="8.0176392"><ele>233.57142857142858</ele><time>2026-04-05T11:04:47.253Z</time></trkpt><trkpt lat="45.0285457" lon="8.0175438"><ele>233.71428571428572</ele><time>2026-04-05T11:04:48.253Z</time></trkpt><trkpt lat="45.0285662" lon="8.0174584"><ele>233.85714285714286</ele><time>2026-04-05T11:04:49.253Z</time></trkpt><trkpt lat="45.0285806" lon="8.0173276"><ele>234.0</ele><time>2026-04-05T11:04:51.253Z</time></trkpt><trkpt lat="45.0285651" lon="8.0170404"><ele>234.0</ele><time>2026-04-05T11:04:55.253Z</time></trkpt><trkpt lat="45.0285647" lon="8.0169304"><ele>234.0</ele><time>2026-04-05T11:04:56.253Z</time></trkpt><trkpt lat="45.0285811" lon="8.016821"><ele>234.0</ele><time>2026-04-05T11:04:57.253Z</time></trkpt><trkpt lat="45.0286194" lon="8.0167311"><ele>234.0</ele><time>2026-04-05T11:04:58.253Z</time></trkpt><trkpt lat="45.028665" lon="8.0166682"><ele>234.0</ele><time>2026-04-05T11:04:59.253Z</time></trkpt><trkpt lat="45.0287511" lon="8.016636"><ele>234.0</ele><time>2026-04-05T11:05:01.253Z</time></trkpt><trkpt lat="45.0288004" lon="8.0167087"><ele>234.0</ele><time>2026-04-05T11:05:03.253Z</time></trkpt><trkpt lat="45.0288298" lon="8.0168587"><ele>233.99999999999997</ele><time>2026-04-05T11:05:05.253Z</time></trkpt><trkpt lat="45.0288471" lon="8.0169826"><ele>233.99999999999997</ele><time>2026-04-05T11:05:07.253Z</time></trkpt><trkpt lat="45.0288834" lon="8.0170798"><ele>234.0</ele><time>2026-04-05T11:05:20.253Z</time></trkpt><trkpt lat="45.0289512" lon="8.0169095"><ele>234.0</ele><time>2026-04-05T11:05:27.253Z</time></trkpt><trkpt lat="45.0289784" lon="8.0167809"><ele>234.0</ele><time>2026-04-05T11:05:29.253Z</time></trkpt><trkpt lat="45.0290185" lon="8.0166719"><ele>233.99999999999997</ele><time>2026-04-05T11:05:31.253Z</time></trkpt><trkpt lat="45.029053" lon="8.0165797"><ele>233.99999999999997</ele><time>2026-04-05T11:05:37.253Z</time></trkpt><trkpt lat="45.0290739" lon="8.0164753"><ele>234.0</ele><time>2026-04-05T11:05:39.253Z</time></trkpt><trkpt lat="45.0291221" lon="8.0163367"><ele>234.0</ele><time>2026-04-05T11:05:41.253Z</time></trkpt><trkpt lat="45.0292429" lon="8.0162218"><ele>233.6</ele><time>2026-04-05T11:05:45.253Z</time></trkpt><trkpt lat="45.0293407" lon="8.0161809"><ele>233.2</ele><time>2026-04-05T11:05:47.253Z</time></trkpt><trkpt lat="45.0294357" lon="8.016132"><ele>232.79999999999998</ele><time>2026-04-05T11:05:49.253Z</time></trkpt><trkpt lat="45.029502" lon="8.0160681"><ele>232.39999999999998</ele><time>2026-04-05T11:05:51.252Z</time></trkpt><trkpt lat="45.0295208" lon="8.0161896"><ele>232.0</ele><time>2026-04-05T11:05:57.253Z</time></trkpt><trkpt lat="45.0294884" lon="8.0163304"><ele>232.0</ele><time>2026-04-05T11:05:59.253Z</time></trkpt><trkpt lat="45.0294858" lon="8.0164538"><ele>232.0</ele><time>2026-04-05T11:06:01.253Z</time></trkpt><trkpt lat="45.0294716" lon="8.0165676"><ele>232.0</ele><time>2026-04-05T11:06:03.253Z</time></trkpt><trkpt lat="45.0295583" lon="8.0167215"><ele>232.0</ele><time>2026-04-05T11:06:07.253Z</time></trkpt><trkpt lat="45.0296165" lon="8.0166172"><ele>232.0</ele><time>2026-04-05T11:06:09.253Z</time></trkpt><trkpt lat="45.0296493" lon="8.0165306"><ele>231.99999999999997</ele><time>2026-04-05T11:06:10.253Z</time></trkpt><trkpt lat="45.0296899" lon="8.0164327"><ele>232.0</ele><time>2026-04-05T11:06:11.253Z</time></trkpt><trkpt lat="45.0297385" lon="8.0163478"><ele>232.0</ele><time>2026-04-05T11:06:12.253Z</time></trkpt><trkpt lat="45.0297855" lon="8.0162851"><ele>232.0</ele><time>2026-04-05T11:06:13.253Z</time></trkpt><trkpt lat="45.0298708" lon="8.0162547"><ele>231.99999999999997</ele><time>2026-04-05T11:06:15.253Z</time></trkpt><trkpt lat="45.0299462" lon="8.0162231"><ele>232.0</ele><time>2026-04-05T11:06:18.253Z</time></trkpt><trkpt lat="45.0299874" lon="8.0161399"><ele>234.75</ele><time>2026-04-05T11:06:20.253Z</time></trkpt><trkpt lat="45.0300283" lon="8.0160532"><ele>237.5</ele><time>2026-04-05T11:06:22.253Z</time></trkpt><trkpt lat="45.0300829" lon="8.0159401"><ele>240.25</ele><time>2026-04-05T11:06:24.253Z</time></trkpt><trkpt lat="45.0302341" lon="8.0157203"><ele>243.0</ele><time>2026-04-05T11:06:28.253Z</time></trkpt><trkpt lat="45.030324" lon="8.0156404"><ele>244.0</ele><time>2026-04-05T11:06:30.253Z</time></trkpt><trkpt lat="45.030403" lon="8.0155852"><ele>245.0</ele><time>2026-04-05T11:06:32.253Z</time></trkpt><trkpt lat="45.0304661" lon="8.0155108"><ele>246.0</ele><time>2026-04-05T11:07:02.253Z</time></trkpt><trkpt lat="45.0305372" lon="8.0153303"><ele>247.0</ele><time>2026-04-05T11:07:06.253Z</time></trkpt><trkpt lat="45.0305469" lon="8.0152332"><ele>248.0</ele><time>2026-04-05T11:07:08.253Z</time></trkpt><trkpt lat="45.0305144" lon="8.0151142"><ele>250.33333333333334</ele><time>2026-04-05T11:07:10.253Z</time></trkpt><trkpt lat="45.0304869" lon="8.0149853"><ele>252.66666666666669</ele><time>2026-04-05T11:07:12.253Z</time></trkpt><trkpt lat="45.0304512" lon="8.0148319"><ele>255.0</ele><time>2026-04-05T11:07:14.253Z</time></trkpt><trkpt lat="45.0304187" lon="8.0147363"><ele>257.3333333333333</ele><time>2026-04-05T11:07:15.253Z</time></trkpt><trkpt lat="45.0303837" lon="8.0146365"><ele>259.66666666666663</ele><time>2026-04-05T11:07:16.253Z</time></trkpt><trkpt lat="45.0303562" lon="8.0145439"><ele>262.0</ele><time>2026-04-05T11:07:17.253Z</time></trkpt><trkpt lat="45.030308" lon="8.0143955"><ele>262.0</ele><time>2026-04-05T11:07:19.253Z</time></trkpt><trkpt lat="45.0302284" lon="8.0142987"><ele>262.0</ele><time>2026-04-05T11:07:21.253Z</time></trkpt><trkpt lat="45.0301653" lon="8.01426"><ele>262.0</ele><time>2026-04-05T11:07:22.253Z</time></trkpt><trkpt lat="45.0300928" lon="8.0142188"><ele>262.0</ele><time>2026-04-05T11:07:23.253Z</time></trkpt><trkpt lat="45.0299685" lon="8.0141188"><ele>262.0</ele><time>2026-04-05T11:07:25.253Z</time></trkpt><trkpt lat="45.0298768" lon="8.0140218"><ele>263.8333333333333</ele><time>2026-04-05T11:07:27.253Z</time></trkpt><trkpt lat="45.0298397" lon="8.0138718"><ele>265.66666666666663</ele><time>2026-04-05T11:07:29.253Z</time></trkpt><trkpt lat="45.029831" lon="8.0137759"><ele>267.5</ele><time>2026-04-05T11:07:30.253Z</time></trkpt><trkpt lat="45.0298144" lon="8.0136696"><ele>269.3333333333333</ele><time>2026-04-05T11:07:31.253Z</time></trkpt><trkpt lat="45.0297926" lon="8.0135615"><ele>271.1666666666667</ele><time>2026-04-05T11:07:32.253Z</time></trkpt><trkpt lat="45.0297743" lon="8.0134692"><ele>273.0</ele><time>2026-04-05T11:07:33.252Z</time></trkpt><trkpt lat="45.0297245" lon="8.0133334"><ele>272.4</ele><time>2026-04-05T11:07:35.253Z</time></trkpt><trkpt lat="45.0296658" lon="8.0132532"><ele>271.8</ele><time>2026-04-05T11:07:37.253Z</time></trkpt><trkpt lat="45.0296745" lon="8.0131449"><ele>271.2</ele><time>2026-04-05T11:07:42.253Z</time></trkpt><trkpt lat="45.0297008" lon="8.0130311"><ele>270.6</ele><time>2026-04-05T11:07:44.253Z</time></trkpt><trkpt lat="45.0297778" lon="8.0127998"><ele>270.0</ele><time>2026-04-05T11:07:48.253Z</time></trkpt><trkpt lat="45.0297999" lon="8.0126939"><ele>270.0</ele><time>2026-04-05T11:07:51.253Z</time></trkpt><trkpt lat="45.0297975" lon="8.0125941"><ele>270.0</ele><time>2026-04-05T11:07:54.253Z</time></trkpt><trkpt lat="45.0297818" lon="8.0124885"><ele>270.0</ele><time>2026-04-05T11:07:56.253Z</time></trkpt><trkpt lat="45.0297606" lon="8.012319"><ele>270.0</ele><time>2026-04-05T11:07:58.253Z</time></trkpt><trkpt lat="45.0297668" lon="8.0121563"><ele>270.0</ele><time>2026-04-05T11:08:00.253Z</time></trkpt><trkpt lat="45.0298231" lon="8.0120392"><ele>269.25</ele><time>2026-04-05T11:08:02.253Z</time></trkpt><trkpt lat="45.0298926" lon="8.0119028"><ele>268.5</ele><time>2026-04-05T11:08:04.253Z</time></trkpt><trkpt lat="45.0299546" lon="8.01178"><ele>267.75</ele><time>2026-04-05T11:08:06.253Z</time></trkpt><trkpt lat="45.0300538" lon="8.011605"><ele>267.0</ele><time>2026-04-05T11:08:13.253Z</time></trkpt><trkpt lat="45.030069" lon="8.0114907"><ele>268.0</ele><time>2026-04-05T11:08:15.253Z</time></trkpt><trkpt lat="45.0300696" lon="8.0113446"><ele>269.0</ele><time>2026-04-05T11:08:17.253Z</time></trkpt><trkpt lat="45.0300398" lon="8.0111928"><ele>270.0</ele><time>2026-04-05T11:08:19.253Z</time></trkpt><trkpt lat="45.0300189" lon="8.0110645"><ele>271.0</ele><time>2026-04-05T11:08:21.253Z</time></trkpt><trkpt lat="45.0299904" lon="8.0109774"><ele>272.0</ele><time>2026-04-05T11:08:25.253Z</time></trkpt><trkpt lat="45.0300097" lon="8.0108889"><ele>273.0</ele><time>2026-04-05T11:08:42.253Z</time></trkpt><trkpt lat="45.0299805" lon="8.0106596"><ele>273.5</ele><time>2026-04-05T11:08:54.253Z</time></trkpt><trkpt lat="45.0299566" lon="8.010555"><ele>274.0</ele><time>2026-04-05T11:08:59.253Z</time></trkpt><trkpt lat="45.0299551" lon="8.0104062"><ele>274.5</ele><time>2026-04-05T11:09:20.253Z</time></trkpt><trkpt lat="45.0299705" lon="8.0101959"><ele>275.0</ele><time>2026-04-05T11:10:42.253Z</time></trkpt><trkpt lat="45.030023" lon="8.0100133"><ele>275.2</ele><time>2026-04-05T11:10:47.253Z</time></trkpt><trkpt lat="45.0300702" lon="8.0099392"><ele>275.4</ele><time>2026-04-05T11:10:51.252Z</time></trkpt><trkpt lat="45.0301117" lon="8.0098368"><ele>275.6</ele><time>2026-04-05T11:10:55.253Z</time></trkpt><trkpt lat="45.0301621" lon="8.0097317"><ele>275.8</ele><time>2026-04-05T11:10:59.253Z</time></trkpt><trkpt lat="45.030218" lon="8.0096145"><ele>276.0</ele><time>2026-04-05T11:11:01.253Z</time></trkpt><trkpt lat="45.0302751" lon="8.0094824"><ele>276.0</ele><time>2026-04-05T11:11:03.253Z</time></trkpt><trkpt lat="45.0303485" lon="8.0092709"><ele>276.0</ele><time>2026-04-05T11:11:07.253Z</time></trkpt><trkpt lat="45.0303861" lon="8.0091803"><ele>276.0</ele><time>2026-04-05T11:11:10.253Z</time></trkpt><trkpt lat="45.0304134" lon="8.0090885"><ele>276.0</ele><time>2026-04-05T11:11:13.253Z</time></trkpt><trkpt lat="45.0304505" lon="8.008996"><ele>276.0</ele><time>2026-04-05T11:11:15.253Z</time></trkpt><trkpt lat="45.0304813" lon="8.0088922"><ele>274.6</ele><time>2026-04-05T11:31:31.249Z</time></trkpt><trkpt lat="45.0305353" lon="8.0087109"><ele>273.20000000000005</ele><time>2026-04-05T11:31:36.249Z</time></trkpt><trkpt lat="45.0305696" lon="8.0086064"><ele>271.79999999999995</ele><time>2026-04-05T11:31:38.249Z</time></trkpt><trkpt lat="45.0305882" lon="8.0085009"><ele>270.4</ele><time>2026-04-05T11:31:40.249Z</time></trkpt><trkpt lat="45.0306247" lon="8.0083846"><ele>269.0</ele><time>2026-04-05T11:31:42.249Z</time></trkpt><trkpt lat="45.0306867" lon="8.0082809"><ele>269.0</ele><time>2026-04-05T11:31:44.249Z</time></trkpt><trkpt lat="45.0307501" lon="8.0081631"><ele>269.0</ele><time>2026-04-05T11:31:46.249Z</time></trkpt><trkpt lat="45.0308191" lon="8.0080255"><ele>269.0</ele><time>2026-04-05T11:31:48.248Z</time></trkpt><trkpt lat="45.0308865" lon="8.0079002"><ele>269.0</ele><time>2026-04-05T11:31:50.248Z</time></trkpt><trkpt lat="45.0309541" lon="8.0077828"><ele>269.0</ele><time>2026-04-05T11:31:52.248Z</time></trkpt><trkpt lat="45.0311061" lon="8.007631"><ele>269.0</ele><time>2026-04-05T11:31:56.248Z</time></trkpt><trkpt lat="45.0311801" lon="8.0076073"><ele>269.0</ele><time>2026-04-05T11:31:57.248Z</time></trkpt><trkpt lat="45.0312701" lon="8.0075814"><ele>269.0</ele><time>2026-04-05T11:31:58.248Z</time></trkpt><trkpt lat="45.0313751" lon="8.007558"><ele>269.0</ele><time>2026-04-05T11:31:59.248Z</time></trkpt><trkpt lat="45.0314811" lon="8.0075372"><ele>269.0</ele><time>2026-04-05T11:32:00.248Z</time></trkpt><trkpt lat="45.0315859" lon="8.0075178"><ele>268.0</ele><time>2026-04-05T11:32:01.248Z</time></trkpt><trkpt lat="45.0316951" lon="8.0075064"><ele>267.0</ele><time>2026-04-05T11:32:02.248Z</time></trkpt><trkpt lat="45.031805" lon="8.0075081"><ele>266.0</ele><time>2026-04-05T11:32:03.248Z</time></trkpt><trkpt lat="45.0319279" lon="8.0075108"><ele>265.0</ele><time>2026-04-05T11:32:04.248Z</time></trkpt><trkpt lat="45.0320514" lon="8.0075034"><ele>265.0</ele><time>2026-04-05T11:32:05.248Z</time></trkpt><trkpt lat="45.032166" lon="8.0075018"><ele>265.0</ele><time>2026-04-05T11:32:06.248Z</time></trkpt><trkpt lat="45.0322744" lon="8.0075038"><ele>265.0</ele><time>2026-04-05T11:32:07.248Z</time></trkpt><trkpt lat="45.0323678" lon="8.0075095"><ele>265.0</ele><time>2026-04-05T11:32:08.248Z</time></trkpt><trkpt lat="45.0324558" lon="8.0075111"><ele>265.0</ele><time>2026-04-05T11:32:09.248Z</time></trkpt><trkpt lat="45.0325467" lon="8.007511"><ele>265.6</ele><time>2026-04-05T11:32:10.248Z</time></trkpt><trkpt lat="45.0326352" lon="8.0075006"><ele>266.2</ele><time>2026-04-05T11:32:11.248Z</time></trkpt><trkpt lat="45.0327164" lon="8.0074777"><ele>266.8</ele><time>2026-04-05T11:32:12.248Z</time></trkpt><trkpt lat="45.0327893" lon="8.0074506"><ele>267.4</ele><time>2026-04-05T11:32:13.248Z</time></trkpt><trkpt lat="45.0329075" lon="8.0073507"><ele>268.0</ele><time>2026-04-05T11:32:15.248Z</time></trkpt><trkpt lat="45.0329611" lon="8.007288"><ele>268.0</ele><time>2026-04-05T11:32:16.248Z</time></trkpt><trkpt lat="45.0330133" lon="8.0072166"><ele>268.0</ele><time>2026-04-05T11:32:17.247Z</time></trkpt><trkpt lat="45.0330585" lon="8.0071408"><ele>268.0</ele><time>2026-04-05T11:32:18.248Z</time></trkpt><trkpt lat="45.033097" lon="8.0070591"><ele>268.0</ele><time>2026-04-05T11:32:19.248Z</time></trkpt><trkpt lat="45.0331304" lon="8.0069681"><ele>268.0</ele><time>2026-04-05T11:32:20.248Z</time></trkpt><trkpt lat="45.0331632" lon="8.0068661"><ele>268.0</ele><time>2026-04-05T11:32:21.248Z</time></trkpt><trkpt lat="45.0331888" lon="8.0067635"><ele>268.0</ele><time>2026-04-05T11:32:22.248Z</time></trkpt><trkpt lat="45.0332096" lon="8.0066747"><ele>266.8</ele><time>2026-04-05T11:32:23.248Z</time></trkpt><trkpt lat="45.0332469" lon="8.0065358"><ele>265.6</ele><time>2026-04-05T11:32:25.248Z</time></trkpt><trkpt lat="45.033255" lon="8.00642"><ele>264.4</ele><time>2026-04-05T11:32:27.248Z</time></trkpt><trkpt lat="45.033214" lon="8.0063185"><ele>263.2</ele><time>2026-04-05T11:32:30.248Z</time></trkpt><trkpt lat="45.0332158" lon="8.0062051"><ele>262.0</ele><time>2026-04-05T11:32:46.248Z</time></trkpt><trkpt lat="45.0333071" lon="8.0060088"><ele>264.0</ele><time>2026-04-05T11:32:50.248Z</time></trkpt><trkpt lat="45.0333842" lon="8.0059384"><ele>266.0</ele><time>2026-04-05T11:32:53.248Z</time></trkpt><trkpt lat="45.0334528" lon="8.0059381"><ele>268.0</ele><time>2026-04-05T11:32:55.248Z</time></trkpt><trkpt lat="45.0335287" lon="8.0059888"><ele>270.0</ele><time>2026-04-05T11:32:57.248Z</time></trkpt><trkpt lat="45.0336135" lon="8.0060504"><ele>272.0</ele><time>2026-04-05T11:32:59.248Z</time></trkpt><trkpt lat="45.0336952" lon="8.0060575"><ele>274.0</ele><time>2026-04-05T11:33:01.248Z</time></trkpt><trkpt lat="45.0337515" lon="8.0059963"><ele>274.0</ele><time>2026-04-05T11:33:03.248Z</time></trkpt><trkpt lat="45.033799" lon="8.0059253"><ele>274.0</ele><time>2026-04-05T11:33:05.248Z</time></trkpt><trkpt lat="45.0338232" lon="8.0058379"><ele>274.0</ele><time>2026-04-05T11:33:09.248Z</time></trkpt><trkpt lat="45.0338996" lon="8.0056515"><ele>274.0</ele><time>2026-04-05T11:33:19.248Z</time></trkpt><trkpt lat="45.0339368" lon="8.0055498"><ele>274.0</ele><time>2026-04-05T11:33:23.248Z</time></trkpt><trkpt lat="45.0340239" lon="8.0054506"><ele>274.4</ele><time>2026-04-05T11:33:26.248Z</time></trkpt><trkpt lat="45.0340887" lon="8.0054104"><ele>274.79999999999995</ele><time>2026-04-05T11:33:27.248Z</time></trkpt><trkpt lat="45.0341659" lon="8.0053749"><ele>275.20000000000005</ele><time>2026-04-05T11:33:28.248Z</time></trkpt><trkpt lat="45.0342457" lon="8.0053385"><ele>275.6</ele><time>2026-04-05T11:33:29.248Z</time></trkpt><trkpt lat="45.0343242" lon="8.0052983"><ele>276.0</ele><time>2026-04-05T11:33:30.248Z</time></trkpt><trkpt lat="45.0344498" lon="8.0052191"><ele>276.0</ele><time>2026-04-05T11:33:32.248Z</time></trkpt><trkpt lat="45.03456" lon="8.005146"><ele>276.0</ele><time>2026-04-05T11:33:34.248Z</time></trkpt><trkpt lat="45.0346185" lon="8.0051127"><ele>276.0</ele><time>2026-04-05T11:33:35.248Z</time></trkpt><trkpt lat="45.0346862" lon="8.0050798"><ele>276.0</ele><time>2026-04-05T11:33:36.248Z</time></trkpt><trkpt lat="45.0347576" lon="8.0050479"><ele>276.0</ele><time>2026-04-05T11:33:37.248Z</time></trkpt><trkpt lat="45.0348296" lon="8.0050101"><ele>276.0</ele><time>2026-04-05T11:33:38.248Z</time></trkpt><trkpt lat="45.0348989" lon="8.0049744"><ele>276.3333333333333</ele><time>2026-04-05T11:33:39.248Z</time></trkpt><trkpt lat="45.0349624" lon="8.0049452"><ele>276.6666666666667</ele><time>2026-04-05T11:33:40.248Z</time></trkpt><trkpt lat="45.0350738" lon="8.0048835"><ele>277.0</ele><time>2026-04-05T11:33:42.248Z</time></trkpt><trkpt lat="45.0351639" lon="8.0048468"><ele>277.33333333333337</ele><time>2026-04-05T11:33:44.248Z</time></trkpt><trkpt lat="45.0352317" lon="8.0048235"><ele>277.6666666666667</ele><time>2026-04-05T11:33:46.248Z</time></trkpt><trkpt lat="45.0352948" lon="8.0048081"><ele>278.0</ele><time>2026-04-05T11:33:48.248Z</time></trkpt><trkpt lat="45.0353711" lon="8.0047978"><ele>277.5</ele><time>2026-04-05T11:33:51.248Z</time></trkpt><trkpt lat="45.0355088" lon="8.0047635"><ele>277.0</ele><time>2026-04-05T11:34:01.248Z</time></trkpt><trkpt lat="45.0355855" lon="8.004749"><ele>276.5</ele><time>2026-04-05T11:34:04.248Z</time></trkpt><trkpt lat="45.0356533" lon="8.0047451"><ele>276.0</ele><time>2026-04-05T11:34:07.248Z</time></trkpt><trkpt lat="45.0357264" lon="8.0047311"><ele>275.5</ele><time>2026-04-05T11:34:11.248Z</time></trkpt><trkpt lat="45.0357906" lon="8.0047308"><ele>275.0</ele><time>2026-04-05T11:34:14.248Z</time></trkpt><trkpt lat="45.0359512" lon="8.00477"><ele>275.0</ele><time>2026-04-05T11:34:19.248Z</time></trkpt><trkpt lat="45.0360505" lon="8.0047707"><ele>275.0</ele><time>2026-04-05T11:34:21.248Z</time></trkpt><trkpt lat="45.0361583" lon="8.0047626"><ele>275.0</ele><time>2026-04-05T11:34:23.247Z</time></trkpt><trkpt lat="45.0362837" lon="8.004748"><ele>275.0</ele><time>2026-04-05T11:34:25.248Z</time></trkpt><trkpt lat="45.0363479" lon="8.0047461"><ele>275.0</ele><time>2026-04-05T11:34:26.248Z</time></trkpt><trkpt lat="45.0364583" lon="8.0047434"><ele>275.0</ele><time>2026-04-05T11:34:28.248Z</time></trkpt><trkpt lat="45.0365408" lon="8.0047057"><ele>275.0</ele><time>2026-04-05T11:34:30.248Z</time></trkpt><trkpt lat="45.036635" lon="8.0046583"><ele>275.0</ele><time>2026-04-05T11:34:32.248Z</time></trkpt><trkpt lat="45.0367582" lon="8.0045973"><ele>275.0</ele><time>2026-04-05T11:34:34.248Z</time></trkpt><trkpt lat="45.0368199" lon="8.0045644"><ele>275.0</ele><time>2026-04-05T11:34:35.248Z</time></trkpt><trkpt lat="45.0370243" lon="8.0044255"><ele>275.1666666666667</ele><time>2026-04-05T11:34:39.248Z</time></trkpt><trkpt lat="45.0370935" lon="8.0043728"><ele>275.33333333333337</ele><time>2026-04-05T11:34:41.248Z</time></trkpt><trkpt lat="45.0371573" lon="8.0043143"><ele>275.5</ele><time>2026-04-05T11:34:44.248Z</time></trkpt><trkpt lat="45.0372367" lon="8.0042896"><ele>275.6666666666667</ele><time>2026-04-05T11:34:52.248Z</time></trkpt><trkpt lat="45.0373144" lon="8.0042576"><ele>275.8333333333333</ele><time>2026-04-05T11:34:55.248Z</time></trkpt><trkpt lat="45.0373918" lon="8.0041885"><ele>276.0</ele><time>2026-04-05T11:34:58.248Z</time></trkpt><trkpt lat="45.0375292" lon="8.0040838"><ele>276.0</ele><time>2026-04-05T11:35:02.248Z</time></trkpt><trkpt lat="45.0375847" lon="8.004036"><ele>276.0</ele><time>2026-04-05T11:35:40.248Z</time></trkpt><trkpt lat="45.037702" lon="8.0038942"><ele>276.0</ele><time>2026-04-05T11:35:44.247Z</time></trkpt><trkpt lat="45.0377667" lon="8.0038163"><ele>276.0</ele><time>2026-04-05T11:35:47.247Z</time></trkpt><trkpt lat="45.0378275" lon="8.0037345"><ele>276.0</ele><time>2026-04-05T11:35:50.247Z</time></trkpt><trkpt lat="45.0378619" lon="8.0036519"><ele>276.0</ele><time>2026-04-05T11:35:54.247Z</time></trkpt><trkpt lat="45.0379025" lon="8.0035774"><ele>276.0</ele><time>2026-04-05T11:35:58.247Z</time></trkpt><trkpt lat="45.0379556" lon="8.0035032"><ele>276.0</ele><time>2026-04-05T11:36:02.247Z</time></trkpt><trkpt lat="45.038123" lon="8.003488"><ele>276.0</ele><time>2026-04-05T11:36:07.247Z</time></trkpt><trkpt lat="45.0382161" lon="8.0034603"><ele>276.0</ele><time>2026-04-05T11:36:09.247Z</time></trkpt><trkpt lat="45.03831" lon="8.0034131"><ele>279.25</ele><time>2026-04-05T11:36:11.247Z</time></trkpt><trkpt lat="45.0384094" lon="8.0033268"><ele>282.5</ele><time>2026-04-05T11:36:13.247Z</time></trkpt><trkpt lat="45.0385059" lon="8.0032149"><ele>285.75</ele><time>2026-04-05T11:36:15.247Z</time></trkpt><trkpt lat="45.0386064" lon="8.0031007"><ele>289.0</ele><time>2026-04-05T11:36:17.247Z</time></trkpt><trkpt lat="45.0386945" lon="8.0029983"><ele>289.0</ele><time>2026-04-05T11:36:19.247Z</time></trkpt><trkpt lat="45.0387467" lon="8.0029075"><ele>289.0</ele><time>2026-04-05T11:36:21.247Z</time></trkpt><trkpt lat="45.0387693" lon="8.0028089"><ele>289.0</ele><time>2026-04-05T11:36:23.247Z</time></trkpt><trkpt lat="45.0389133" lon="8.0026884"><ele>289.0</ele><time>2026-04-05T11:36:28.247Z</time></trkpt><trkpt lat="45.0390018" lon="8.0026841"><ele>289.0</ele><time>2026-04-05T11:36:30.247Z</time></trkpt><trkpt lat="45.0391017" lon="8.0027089"><ele>287.8333333333333</ele><time>2026-04-05T11:36:32.247Z</time></trkpt><trkpt lat="45.0391799" lon="8.0026794"><ele>286.66666666666663</ele><time>2026-04-05T11:36:34.247Z</time></trkpt><trkpt lat="45.0392346" lon="8.0025832"><ele>285.5</ele><time>2026-04-05T11:36:36.247Z</time></trkpt><trkpt lat="45.0392869" lon="8.002483"><ele>284.3333333333333</ele><time>2026-04-05T11:36:38.247Z</time></trkpt><trkpt lat="45.0393478" lon="8.0024049"><ele>283.1666666666667</ele><time>2026-04-05T11:36:40.247Z</time></trkpt><trkpt lat="45.0394427" lon="8.0024346"><ele>282.0</ele><time>2026-04-05T11:36:43.246Z</time></trkpt><trkpt lat="45.0395283" lon="8.0025646"><ele>282.0</ele><time>2026-04-05T11:36:45.247Z</time></trkpt><trkpt lat="45.0396033" lon="8.0027158"><ele>282.0</ele><time>2026-04-05T11:36:47.247Z</time></trkpt><trkpt lat="45.0396508" lon="8.0027861"><ele>282.0</ele><time>2026-04-05T11:36:48.247Z</time></trkpt><trkpt lat="45.0396983" lon="8.0028453"><ele>282.0</ele><time>2026-04-05T11:36:49.247Z</time></trkpt><trkpt lat="45.0397884" lon="8.002952"><ele>282.0</ele><time>2026-04-05T11:36:51.247Z</time></trkpt><trkpt lat="45.03989" lon="8.0030485"><ele>282.0</ele><time>2026-04-05T11:36:53.246Z</time></trkpt><trkpt lat="45.0399476" lon="8.0030892"><ele>282.0</ele><time>2026-04-05T11:36:54.247Z</time></trkpt><trkpt lat="45.0400496" lon="8.0031418"><ele>282.0</ele><time>2026-04-05T11:36:56.247Z</time></trkpt><trkpt lat="45.040158" lon="8.0031915"><ele>282.0</ele><time>2026-04-05T11:36:58.247Z</time></trkpt><trkpt lat="45.0402664" lon="8.0032451"><ele>282.0</ele><time>2026-04-05T11:37:00.247Z</time></trkpt><trkpt lat="45.0403665" lon="8.0032953"><ele>281.5</ele><time>2026-04-05T11:37:02.247Z</time></trkpt><trkpt lat="45.0404619" lon="8.0033588"><ele>281.0</ele><time>2026-04-05T11:37:04.247Z</time></trkpt><trkpt lat="45.0405173" lon="8.0034025"><ele>280.5</ele><time>2026-04-05T11:37:05.247Z</time></trkpt><trkpt lat="45.0405802" lon="8.0034459"><ele>280.0</ele><time>2026-04-05T11:37:06.247Z</time></trkpt><trkpt lat="45.0407817" lon="8.003591"><ele>278.0</ele><time>2026-04-05T11:37:10.247Z</time></trkpt><trkpt lat="45.0408741" lon="8.0036989"><ele>276.0</ele><time>2026-04-05T11:37:12.247Z</time></trkpt><trkpt lat="45.0409321" lon="8.0037659"><ele>274.0</ele><time>2026-04-05T11:37:13.247Z</time></trkpt><trkpt lat="45.0409815" lon="8.0038231"><ele>272.0</ele><time>2026-04-05T11:37:14.247Z</time></trkpt><trkpt lat="45.0410682" lon="8.003924"><ele>270.0</ele><time>2026-04-05T11:37:16.247Z</time></trkpt><trkpt lat="45.0411607" lon="8.0040218"><ele>270.0</ele><time>2026-04-05T11:37:18.247Z</time></trkpt><trkpt lat="45.0412427" lon="8.0041168"><ele>270.0</ele><time>2026-04-05T11:37:20.247Z</time></trkpt><trkpt lat="45.0412924" lon="8.0041914"><ele>270.0</ele><time>2026-04-05T11:37:22.247Z</time></trkpt><trkpt lat="45.0413395" lon="8.0042538"><ele>270.0</ele><time>2026-04-05T11:37:25.247Z</time></trkpt><trkpt lat="45.0414111" lon="8.0042772"><ele>270.0</ele><time>2026-04-05T11:37:49.247Z</time></trkpt><trkpt lat="45.041433" lon="8.0040413"><ele>270.0</ele><time>2026-04-05T11:37:53.247Z</time></trkpt><trkpt lat="45.0414009" lon="8.0039573"><ele>270.0</ele><time>2026-04-05T11:37:54.246Z</time></trkpt><trkpt lat="45.0413626" lon="8.0038701"><ele>270.0</ele><time>2026-04-05T11:37:55.247Z</time></trkpt><trkpt lat="45.0413247" lon="8.0037894"><ele>270.0</ele><time>2026-04-05T11:37:56.247Z</time></trkpt><trkpt lat="45.0412786" lon="8.0037159"><ele>270.0</ele><time>2026-04-05T11:37:57.247Z</time></trkpt><trkpt lat="45.0412042" lon="8.0035855"><ele>270.0</ele><time>2026-04-05T11:37:59.247Z</time></trkpt><trkpt lat="45.0411671" lon="8.0034989"><ele>270.0</ele><time>2026-04-05T11:38:00.247Z</time></trkpt><trkpt lat="45.0411275" lon="8.0034137"><ele>270.0</ele><time>2026-04-05T11:38:01.247Z</time></trkpt><trkpt lat="45.0410681" lon="8.0032637"><ele>270.0</ele><time>2026-04-05T11:38:03.247Z</time></trkpt><trkpt lat="45.0410313" lon="8.0031816"><ele>270.0</ele><time>2026-04-05T11:38:04.247Z</time></trkpt><trkpt lat="45.0409942" lon="8.0030941"><ele>270.0</ele><time>2026-04-05T11:38:05.246Z</time></trkpt><trkpt lat="45.0409571" lon="8.0030137"><ele>270.0</ele><time>2026-04-05T11:38:06.247Z</time></trkpt><trkpt lat="45.0409179" lon="8.0029351"><ele>269.0</ele><time>2026-04-05T11:38:07.247Z</time></trkpt><trkpt lat="45.0408843" lon="8.0028041"><ele>268.0</ele><time>2026-04-05T11:38:09.247Z</time></trkpt><trkpt lat="45.040916" lon="8.0026447"><ele>267.0</ele><time>2026-04-05T11:38:11.247Z</time></trkpt><trkpt lat="45.0409909" lon="8.0024669"><ele>266.0</ele><time>2026-04-05T11:38:13.247Z</time></trkpt><trkpt lat="45.0410305" lon="8.002385"><ele>265.0</ele><time>2026-04-05T11:38:14.247Z</time></trkpt><trkpt lat="45.0410958" lon="8.0022615"><ele>263.6</ele><time>2026-04-05T11:38:16.247Z</time></trkpt><trkpt lat="45.0411324" lon="8.0020878"><ele>262.2</ele><time>2026-04-05T11:38:18.247Z</time></trkpt><trkpt lat="45.0411361" lon="8.0019897"><ele>260.8</ele><time>2026-04-05T11:38:19.247Z</time></trkpt><trkpt lat="45.0411141" lon="8.0018767"><ele>259.4</ele><time>2026-04-05T11:38:20.247Z</time></trkpt><trkpt lat="45.0410725" lon="8.0017578"><ele>258.0</ele><time>2026-04-05T11:38:21.247Z</time></trkpt><trkpt lat="45.0410079" lon="8.001639"><ele>257.0</ele><time>2026-04-05T11:38:22.247Z</time></trkpt><trkpt lat="45.0409363" lon="8.0015257"><ele>256.0</ele><time>2026-04-05T11:38:23.247Z</time></trkpt><trkpt lat="45.0408536" lon="8.0014201"><ele>255.0</ele><time>2026-04-05T11:38:24.247Z</time></trkpt><trkpt lat="45.0407637" lon="8.0013239"><ele>254.0</ele><time>2026-04-05T11:38:25.247Z</time></trkpt><trkpt lat="45.0406728" lon="8.0012243"><ele>253.0</ele><time>2026-04-05T11:38:26.247Z</time></trkpt><trkpt lat="45.0405815" lon="8.0011318"><ele>253.0</ele><time>2026-04-05T11:38:27.247Z</time></trkpt><trkpt lat="45.0404991" lon="8.0010431"><ele>253.0</ele><time>2026-04-05T11:38:28.247Z</time></trkpt><trkpt lat="45.0404136" lon="8.0009615"><ele>253.0</ele><time>2026-04-05T11:38:29.247Z</time></trkpt><trkpt lat="45.0403333" lon="8.0008778"><ele>253.0</ele><time>2026-04-05T11:38:30.247Z</time></trkpt><trkpt lat="45.0402531" lon="8.000801"><ele>253.0</ele><time>2026-04-05T11:38:31.247Z</time></trkpt><trkpt lat="45.0401705" lon="8.0007207"><ele>252.5</ele><time>2026-04-05T11:38:32.247Z</time></trkpt><trkpt lat="45.0400086" lon="8.0005706"><ele>252.0</ele><time>2026-04-05T11:38:34.247Z</time></trkpt><trkpt lat="45.0399347" lon="8.0004963"><ele>251.5</ele><time>2026-04-05T11:38:35.247Z</time></trkpt><trkpt lat="45.0398544" lon="8.0004204"><ele>251.0</ele><time>2026-04-05T11:38:36.247Z</time></trkpt><trkpt lat="45.0397766" lon="8.0003472"><ele>251.00000000000003</ele><time>2026-04-05T11:38:37.247Z</time></trkpt><trkpt lat="45.0397182" lon="8.0002635"><ele>251.0</ele><time>2026-04-05T11:38:38.247Z</time></trkpt><trkpt lat="45.0396766" lon="8.0001614"><ele>251.0</ele><time>2026-04-05T11:38:39.247Z</time></trkpt><trkpt lat="45.0396453" lon="8.0000509"><ele>251.0</ele><time>2026-04-05T11:38:40.247Z</time></trkpt><trkpt lat="45.0396158" lon="7.9999542"><ele>251.00000000000003</ele><time>2026-04-05T11:38:41.247Z</time></trkpt><trkpt lat="45.0395723" lon="7.9998168"><ele>251.0</ele><time>2026-04-05T11:38:43.247Z</time></trkpt><trkpt lat="45.0395439" lon="7.9997015"><ele>251.00000000000003</ele><time>2026-04-05T11:38:45.247Z</time></trkpt><trkpt lat="45.0395331" lon="7.9995515"><ele>251.0</ele><time>2026-04-05T11:38:47.247Z</time></trkpt><trkpt lat="45.0395453" lon="7.9994633"><ele>251.0</ele><time>2026-04-05T11:38:48.247Z</time></trkpt><trkpt lat="45.0395705" lon="7.9993632"><ele>251.0</ele><time>2026-04-05T11:38:49.247Z</time></trkpt><trkpt lat="45.0395994" lon="7.9992637"><ele>251.00000000000003</ele><time>2026-04-05T11:38:50.247Z</time></trkpt><trkpt lat="45.0396306" lon="7.999156"><ele>251.0</ele><time>2026-04-05T11:38:51.247Z</time></trkpt><trkpt lat="45.0396607" lon="7.9990361"><ele>249.0</ele><time>2026-04-05T11:38:52.247Z</time></trkpt><trkpt lat="45.0396843" lon="7.9988925"><ele>247.0</ele><time>2026-04-05T11:38:53.247Z</time></trkpt><trkpt lat="45.0396628" lon="7.9985306"><ele>245.0</ele><time>2026-04-05T11:38:55.247Z</time></trkpt><trkpt lat="45.0396198" lon="7.9983218"><ele>245.0</ele><time>2026-04-05T11:38:56.247Z</time></trkpt><trkpt lat="45.0395766" lon="7.998134"><ele>245.0</ele><time>2026-04-05T11:38:57.247Z</time></trkpt><trkpt lat="45.0395393" lon="7.9979615"><ele>245.0</ele><time>2026-04-05T11:38:58.247Z</time></trkpt><trkpt lat="45.0395094" lon="7.997799"><ele>245.0</ele><time>2026-04-05T11:38:59.247Z</time></trkpt><trkpt lat="45.0394839" lon="7.9976326"><ele>245.25</ele><time>2026-04-05T11:39:00.247Z</time></trkpt><trkpt lat="45.039468" lon="7.9974526"><ele>245.5</ele><time>2026-04-05T11:39:01.247Z</time></trkpt><trkpt lat="45.039459" lon="7.9972633"><ele>245.75</ele><time>2026-04-05T11:39:02.247Z</time></trkpt><trkpt lat="45.0394579" lon="7.9970795"><ele>246.0</ele><time>2026-04-05T11:39:03.247Z</time></trkpt><trkpt lat="45.0394511" lon="7.9969136"><ele>246.0</ele><time>2026-04-05T11:39:04.247Z</time></trkpt><trkpt lat="45.0394401" lon="7.9967685"><ele>246.0</ele><time>2026-04-05T11:39:05.247Z</time></trkpt><trkpt lat="45.0394298" lon="7.9966306"><ele>246.0</ele><time>2026-04-05T11:39:06.247Z</time></trkpt><trkpt lat="45.0394228" lon="7.99651"><ele>246.0</ele><time>2026-04-05T11:39:07.247Z</time></trkpt><trkpt lat="45.0394128" lon="7.9963972"><ele>246.0</ele><time>2026-04-05T11:39:08.247Z</time></trkpt><trkpt lat="45.0394037" lon="7.9962898"><ele>246.0</ele><time>2026-04-05T11:39:09.247Z</time></trkpt><trkpt lat="45.0393938" lon="7.9961903"><ele>245.4</ele><time>2026-04-05T11:39:10.247Z</time></trkpt><trkpt lat="45.0393742" lon="7.9960922"><ele>244.8</ele><time>2026-04-05T11:39:11.247Z</time></trkpt><trkpt lat="45.0393397" lon="7.9959973"><ele>244.20000000000002</ele><time>2026-04-05T11:39:12.247Z</time></trkpt><trkpt lat="45.0392816" lon="7.9959231"><ele>243.60000000000002</ele><time>2026-04-05T11:39:13.247Z</time></trkpt><trkpt lat="45.0392096" lon="7.9958665"><ele>243.0</ele><time>2026-04-05T11:39:14.247Z</time></trkpt><trkpt lat="45.039025" lon="7.995808"><ele>242.8</ele><time>2026-04-05T11:39:16.247Z</time></trkpt><trkpt lat="45.0389363" lon="7.9957616"><ele>242.60000000000002</ele><time>2026-04-05T11:39:17.247Z</time></trkpt><trkpt lat="45.0388569" lon="7.9956896"><ele>242.39999999999998</ele><time>2026-04-05T11:39:18.247Z</time></trkpt><trkpt lat="45.0387765" lon="7.9955958"><ele>242.2</ele><time>2026-04-05T11:39:19.247Z</time></trkpt><trkpt lat="45.0386995" lon="7.9954774"><ele>242.0</ele><time>2026-04-05T11:39:20.247Z</time></trkpt><trkpt lat="45.0386187" lon="7.9953432"><ele>242.0</ele><time>2026-04-05T11:39:21.247Z</time></trkpt><trkpt lat="45.0385359" lon="7.9952073"><ele>242.0</ele><time>2026-04-05T11:39:22.247Z</time></trkpt><trkpt lat="45.0384596" lon="7.9950801"><ele>242.0</ele><time>2026-04-05T11:39:23.247Z</time></trkpt><trkpt lat="45.0383889" lon="7.9949593"><ele>242.0</ele><time>2026-04-05T11:39:24.246Z</time></trkpt><trkpt lat="45.0383265" lon="7.994852"><ele>242.16666666666669</ele><time>2026-04-05T11:39:25.247Z</time></trkpt><trkpt lat="45.0382783" lon="7.9947468"><ele>242.33333333333334</ele><time>2026-04-05T11:39:26.247Z</time></trkpt><trkpt lat="45.0382511" lon="7.9946456"><ele>242.5</ele><time>2026-04-05T11:39:27.247Z</time></trkpt><trkpt lat="45.0382411" lon="7.9945471"><ele>242.66666666666669</ele><time>2026-04-05T11:39:28.247Z</time></trkpt><trkpt lat="45.0382494" lon="7.9943963"><ele>242.83333333333334</ele><time>2026-04-05T11:39:30.247Z</time></trkpt><trkpt lat="45.0382311" lon="7.9942878"><ele>243.0</ele><time>2026-04-05T11:39:32.247Z</time></trkpt><trkpt lat="45.0381712" lon="7.9942485"><ele>243.0</ele><time>2026-04-05T11:39:34.247Z</time></trkpt><trkpt lat="45.0381086" lon="7.9943053"><ele>243.0</ele><time>2026-04-05T11:39:36.247Z</time></trkpt><trkpt lat="45.0379962" lon="7.9945011"><ele>243.0</ele><time>2026-04-05T11:39:48.247Z</time></trkpt><trkpt lat="45.0379386" lon="7.9946243"><ele>243.0</ele><time>2026-04-05T11:39:50.247Z</time></trkpt><trkpt lat="45.0379274" lon="7.994715"><ele>243.0</ele><time>2026-04-05T11:39:51.247Z</time></trkpt><trkpt lat="45.0379365" lon="7.9948218"><ele>243.0</ele><time>2026-04-05T11:39:52.247Z</time></trkpt><trkpt lat="45.0379712" lon="7.9949597"><ele>243.0</ele><time>2026-04-05T11:39:53.247Z</time></trkpt><trkpt lat="45.0380228" lon="7.9951401"><ele>243.0</ele><time>2026-04-05T11:39:54.247Z</time></trkpt><trkpt lat="45.038077" lon="7.9953526"><ele>243.0</ele><time>2026-04-05T11:39:55.247Z</time></trkpt><trkpt lat="45.038124" lon="7.9955722"><ele>242.5</ele><time>2026-04-05T11:39:56.246Z</time></trkpt><trkpt lat="45.0381674" lon="7.9957833"><ele>242.0</ele><time>2026-04-05T11:39:57.247Z</time></trkpt><trkpt lat="45.0382571" lon="7.996207"><ele>241.66666666666669</ele><time>2026-04-05T11:39:59.247Z</time></trkpt><trkpt lat="45.0383038" lon="7.9964298"><ele>241.33333333333331</ele><time>2026-04-05T11:40:00.247Z</time></trkpt><trkpt lat="45.0383549" lon="7.9966573"><ele>241.0</ele><time>2026-04-05T11:40:01.247Z</time></trkpt><trkpt lat="45.0384089" lon="7.9969003"><ele>241.66666666666666</ele><time>2026-04-05T11:40:02.246Z</time></trkpt><trkpt lat="45.0384644" lon="7.9971509"><ele>242.33333333333331</ele><time>2026-04-05T11:40:03.247Z</time></trkpt><trkpt lat="45.0385189" lon="7.9973977"><ele>243.0</ele><time>2026-04-05T11:40:04.247Z</time></trkpt><trkpt lat="45.0385738" lon="7.9976467"><ele>245.33333333333331</ele><time>2026-04-05T11:40:05.247Z</time></trkpt><trkpt lat="45.0386322" lon="7.9979059"><ele>247.66666666666666</ele><time>2026-04-05T11:40:06.247Z</time></trkpt><trkpt lat="45.0386842" lon="7.9981556"><ele>250.0</ele><time>2026-04-05T11:40:07.247Z</time></trkpt><trkpt lat="45.0387323" lon="7.9984024"><ele>254.33333333333331</ele><time>2026-04-05T11:40:08.247Z</time></trkpt><trkpt lat="45.0387802" lon="7.9986428"><ele>258.6666666666667</ele><time>2026-04-05T11:40:09.247Z</time></trkpt><trkpt lat="45.0388323" lon="7.9988796"><ele>263.0</ele><time>2026-04-05T11:40:10.247Z</time></trkpt><trkpt lat="45.0388812" lon="7.9991132"><ele>267.6666666666667</ele><time>2026-04-05T11:40:11.247Z</time></trkpt><trkpt lat="45.0389282" lon="7.9993511"><ele>272.3333333333333</ele><time>2026-04-05T11:40:12.247Z</time></trkpt><trkpt lat="45.0389787" lon="7.9995947"><ele>277.0</ele><time>2026-04-05T11:40:13.247Z</time></trkpt><trkpt lat="45.0390315" lon="7.9998502"><ele>277.0</ele><time>2026-04-05T11:40:14.247Z</time></trkpt><trkpt lat="45.0390902" lon="8.0001079"><ele>277.0</ele><time>2026-04-05T11:40:15.247Z</time></trkpt><trkpt lat="45.0391464" lon="8.0003646"><ele>277.0</ele><time>2026-04-05T11:40:16.247Z</time></trkpt><trkpt lat="45.0391963" lon="8.0006038"><ele>268.0</ele><time>2026-04-05T11:40:17.247Z</time></trkpt><trkpt lat="45.0392358" lon="8.0008273"><ele>259.0</ele><time>2026-04-05T11:40:18.247Z</time></trkpt><trkpt lat="45.0392732" lon="8.0012885"><ele>259.0</ele><time>2026-04-05T11:40:20.247Z</time></trkpt><trkpt lat="45.0392843" lon="8.0015191"><ele>259.0</ele><time>2026-04-05T11:40:21.247Z</time></trkpt><trkpt lat="45.039342" lon="8.0017305"><ele>259.0</ele><time>2026-04-05T11:40:22.247Z</time></trkpt><trkpt lat="45.0393815" lon="8.0019526"><ele>264.0</ele><time>2026-04-05T11:40:23.247Z</time></trkpt><trkpt lat="45.0394156" lon="8.0021766"><ele>269.0</ele><time>2026-04-05T11:40:24.247Z</time></trkpt><trkpt lat="45.0394482" lon="8.0024"><ele>274.0</ele><time>2026-04-05T11:40:25.247Z</time></trkpt><trkpt lat="45.0394989" lon="8.0030447"><ele>274.0</ele><time>2026-04-05T11:40:28.262Z</time></trkpt><trkpt lat="45.0394755" lon="8.0033021"><ele>274.0</ele><time>2026-04-05T11:40:29.262Z</time></trkpt><trkpt lat="45.039439" lon="8.0035688"><ele>274.0</ele><time>2026-04-05T11:40:30.262Z</time></trkpt><trkpt lat="45.0394323" lon="8.0038306"><ele>274.0</ele><time>2026-04-05T11:40:31.262Z</time></trkpt><trkpt lat="45.0394443" lon="8.00407"><ele>274.0</ele><time>2026-04-05T11:40:32.262Z</time></trkpt><trkpt lat="45.0394781" lon="8.0042775"><ele>274.0</ele><time>2026-04-05T11:40:33.262Z</time></trkpt><trkpt lat="45.0395242" lon="8.0044902"><ele>271.0</ele><time>2026-04-05T11:40:34.262Z</time></trkpt><trkpt lat="45.0395756" lon="8.0047153"><ele>268.0</ele><time>2026-04-05T11:40:35.262Z</time></trkpt><trkpt lat="45.0396279" lon="8.0049459"><ele>265.0</ele><time>2026-04-05T11:40:36.262Z</time></trkpt><trkpt lat="45.0397048" lon="8.0051655"><ele>265.0</ele><time>2026-04-05T11:40:37.262Z</time></trkpt><trkpt lat="45.0397903" lon="8.0053559"><ele>265.0</ele><time>2026-04-05T11:40:38.262Z</time></trkpt><trkpt lat="45.0398833" lon="8.0055389"><ele>265.0</ele><time>2026-04-05T11:40:39.262Z</time></trkpt><trkpt lat="45.0400581" lon="8.0058517"><ele>260.25</ele><time>2026-04-05T11:40:41.262Z</time></trkpt><trkpt lat="45.040116" lon="8.0060131"><ele>255.5</ele><time>2026-04-05T11:40:42.262Z</time></trkpt><trkpt lat="45.0401349" lon="8.0061783"><ele>250.75</ele><time>2026-04-05T11:40:43.262Z</time></trkpt><trkpt lat="45.0401056" lon="8.0063632"><ele>246.0</ele><time>2026-04-05T11:40:44.262Z</time></trkpt><trkpt lat="45.0400394" lon="8.0065626"><ele>251.0</ele><time>2026-04-05T11:40:45.262Z</time></trkpt><trkpt lat="45.0399507" lon="8.006785"><ele>256.0</ele><time>2026-04-05T11:40:46.262Z</time></trkpt><trkpt lat="45.0398633" lon="8.0070311"><ele>261.0</ele><time>2026-04-05T11:40:47.262Z</time></trkpt><trkpt lat="45.0397758" lon="8.0072926"><ele>255.0</ele><time>2026-04-05T11:40:48.262Z</time></trkpt><trkpt lat="45.0396956" lon="8.0075568"><ele>249.0</ele><time>2026-04-05T11:40:49.262Z</time></trkpt><trkpt lat="45.0396183" lon="8.0078245"><ele>243.0</ele><time>2026-04-05T11:40:50.262Z</time></trkpt><trkpt lat="45.0395332" lon="8.0080891"><ele>240.0</ele><time>2026-04-05T11:40:51.262Z</time></trkpt><trkpt lat="45.0394265" lon="8.008355"><ele>237.0</ele><time>2026-04-05T11:40:52.262Z</time></trkpt><trkpt lat="45.0392995" lon="8.0086084"><ele>234.0</ele><time>2026-04-05T11:40:53.262Z</time></trkpt><trkpt lat="45.0391583" lon="8.0088474"><ele>234.66666666666669</ele><time>2026-04-05T11:40:54.262Z</time></trkpt><trkpt lat="45.0390158" lon="8.009081"><ele>235.33333333333334</ele><time>2026-04-05T11:40:55.262Z</time></trkpt><trkpt lat="45.0388811" lon="8.0093047"><ele>236.0</ele><time>2026-04-05T11:40:56.262Z</time></trkpt><trkpt lat="45.0387549" lon="8.0095211"><ele>236.0</ele><time>2026-04-05T11:40:57.262Z</time></trkpt><trkpt lat="45.0386352" lon="8.0097231"><ele>236.0</ele><time>2026-04-05T11:40:58.262Z</time></trkpt><trkpt lat="45.0385203" lon="8.0099237"><ele>236.0</ele><time>2026-04-05T11:40:59.262Z</time></trkpt><trkpt lat="45.0384124" lon="8.010118"><ele>237.0</ele><time>2026-04-05T11:41:00.262Z</time></trkpt><trkpt lat="45.0382127" lon="8.0105166"><ele>238.0</ele><time>2026-04-05T11:41:02.262Z</time></trkpt><trkpt lat="45.0381307" lon="8.0107387"><ele>236.0</ele><time>2026-04-05T11:41:03.262Z</time></trkpt><trkpt lat="45.0380744" lon="8.0109863"><ele>234.0</ele><time>2026-04-05T11:41:04.262Z</time></trkpt><trkpt lat="45.0380393" lon="8.0112414"><ele>232.0</ele><time>2026-04-05T11:41:05.262Z</time></trkpt><trkpt lat="45.0380166" lon="8.0114906"><ele>231.0</ele><time>2026-04-05T11:41:06.262Z</time></trkpt><trkpt lat="45.0379907" lon="8.011741"><ele>230.0</ele><time>2026-04-05T11:41:07.262Z</time></trkpt><trkpt lat="45.0379615" lon="8.0119904"><ele>229.0</ele><time>2026-04-05T11:41:08.262Z</time></trkpt><trkpt lat="45.0379285" lon="8.0122483"><ele>227.66666666666666</ele><time>2026-04-05T11:41:09.262Z</time></trkpt><trkpt lat="45.0379002" lon="8.0125012"><ele>226.33333333333331</ele><time>2026-04-05T11:41:10.262Z</time></trkpt><trkpt lat="45.0378643" lon="8.0127601"><ele>225.0</ele><time>2026-04-05T11:41:11.262Z</time></trkpt><trkpt lat="45.0378302" lon="8.0130128"><ele>225.0</ele><time>2026-04-05T11:41:12.262Z</time></trkpt><trkpt lat="45.0377933" lon="8.0132654"><ele>225.0</ele><time>2026-04-05T11:41:13.262Z</time></trkpt><trkpt lat="45.03776" lon="8.0135188"><ele>225.0</ele><time>2026-04-05T11:41:14.262Z</time></trkpt><trkpt lat="45.0377272" lon="8.0137692"><ele>223.33333333333331</ele><time>2026-04-05T11:41:15.262Z</time></trkpt><trkpt lat="45.0376963" lon="8.0140106"><ele>221.66666666666666</ele><time>2026-04-05T11:41:16.262Z</time></trkpt><trkpt lat="45.0376535" lon="8.0142434"><ele>220.0</ele><time>2026-04-05T11:41:17.262Z</time></trkpt><trkpt lat="45.0376323" lon="8.0144556"><ele>219.25</ele><time>2026-04-05T11:41:18.262Z</time></trkpt><trkpt lat="45.0376042" lon="8.0146639"><ele>218.5</ele><time>2026-04-05T11:41:19.262Z</time></trkpt><trkpt lat="45.0375766" lon="8.0148537"><ele>217.75</ele><time>2026-04-05T11:41:20.262Z</time></trkpt><trkpt lat="45.0375505" lon="8.0150304"><ele>217.0</ele><time>2026-04-05T11:41:21.262Z</time></trkpt><trkpt lat="45.0375166" lon="8.0153409"><ele>216.99999999999997</ele><time>2026-04-05T11:41:23.261Z</time></trkpt><trkpt lat="45.0375097" lon="8.0154656"><ele>217.0</ele><time>2026-04-05T11:41:24.261Z</time></trkpt><trkpt lat="45.0375082" lon="8.0155769"><ele>217.0</ele><time>2026-04-05T11:41:25.261Z</time></trkpt><trkpt lat="45.0375075" lon="8.015669"><ele>217.0</ele><time>2026-04-05T11:41:26.261Z</time></trkpt><trkpt lat="45.0375113" lon="8.0157603"><ele>216.99999999999997</ele><time>2026-04-05T11:41:28.261Z</time></trkpt><trkpt lat="45.0375299" lon="8.0158652"><ele>217.0</ele><time>2026-04-05T11:41:49.261Z</time></trkpt><trkpt lat="45.0374039" lon="8.0159983"><ele>216.39999999999998</ele><time>2026-04-05T11:41:53.261Z</time></trkpt><trkpt lat="45.0373178" lon="8.0160068"><ele>215.79999999999998</ele><time>2026-04-05T11:41:54.261Z</time></trkpt><trkpt lat="45.0372167" lon="8.0160159"><ele>215.2</ele><time>2026-04-05T11:41:55.261Z</time></trkpt><trkpt lat="45.0371095" lon="8.0160302"><ele>214.6</ele><time>2026-04-05T11:41:56.261Z</time></trkpt><trkpt lat="45.0369949" lon="8.0160462"><ele>214.0</ele><time>2026-04-05T11:41:57.26Z</time></trkpt><trkpt lat="45.0368833" lon="8.0160586"><ele>214.0</ele><time>2026-04-05T11:41:58.261Z</time></trkpt><trkpt lat="45.0367693" lon="8.0160694"><ele>214.0</ele><time>2026-04-05T11:41:59.26Z</time></trkpt><trkpt lat="45.0366509" lon="8.016075"><ele>214.0</ele><time>2026-04-05T11:42:00.261Z</time></trkpt><trkpt lat="45.0365272" lon="8.0160784"><ele>214.0</ele><time>2026-04-05T11:42:01.261Z</time></trkpt><trkpt lat="45.0364123" lon="8.0160731"><ele>215.0</ele><time>2026-04-05T11:42:02.261Z</time></trkpt><trkpt lat="45.0363071" lon="8.0160621"><ele>215.99999999999997</ele><time>2026-04-05T11:42:03.261Z</time></trkpt><trkpt lat="45.0362069" lon="8.0160356"><ele>216.99999999999997</ele><time>2026-04-05T11:42:04.261Z</time></trkpt><trkpt lat="45.03611" lon="8.0160138"><ele>218.0</ele><time>2026-04-05T11:42:05.261Z</time></trkpt><trkpt lat="45.0360096" lon="8.0159947"><ele>219.0</ele><time>2026-04-05T11:42:06.261Z</time></trkpt><trkpt lat="45.0359072" lon="8.0159778"><ele>219.0</ele><time>2026-04-05T11:42:07.261Z</time></trkpt><trkpt lat="45.035808" lon="8.0159632"><ele>219.0</ele><time>2026-04-05T11:42:08.261Z</time></trkpt><trkpt lat="45.0357086" lon="8.0159478"><ele>219.0</ele><time>2026-04-05T11:42:09.261Z</time></trkpt><trkpt lat="45.0356114" lon="8.0159404"><ele>219.0</ele><time>2026-04-05T11:42:10.261Z</time></trkpt><trkpt lat="45.0354076" lon="8.0159432"><ele>218.6</ele><time>2026-04-05T11:42:12.261Z</time></trkpt><trkpt lat="45.0353106" lon="8.0159553"><ele>218.2</ele><time>2026-04-05T11:42:13.261Z</time></trkpt><trkpt lat="45.0352102" lon="8.0159739"><ele>217.79999999999998</ele><time>2026-04-05T11:42:14.261Z</time></trkpt><trkpt lat="45.0351148" lon="8.015987"><ele>217.39999999999998</ele><time>2026-04-05T11:42:15.261Z</time></trkpt><trkpt lat="45.0350196" lon="8.0160009"><ele>217.0</ele><time>2026-04-05T11:42:16.261Z</time></trkpt><trkpt lat="45.0349287" lon="8.0160126"><ele>216.99999999999997</ele><time>2026-04-05T11:42:17.261Z</time></trkpt><trkpt lat="45.0348428" lon="8.016033"><ele>217.0</ele><time>2026-04-05T11:42:18.261Z</time></trkpt><trkpt lat="45.0347595" lon="8.0160618"><ele>217.0</ele><time>2026-04-05T11:42:19.261Z</time></trkpt><trkpt lat="45.0346746" lon="8.0160934"><ele>217.0</ele><time>2026-04-05T11:42:20.261Z</time></trkpt><trkpt lat="45.0345942" lon="8.0161145"><ele>216.99999999999997</ele><time>2026-04-05T11:42:21.261Z</time></trkpt><trkpt lat="45.0345186" lon="8.0161126"><ele>217.0</ele><time>2026-04-05T11:42:22.261Z</time></trkpt><trkpt lat="45.0344523" lon="8.0160845"><ele>216.99999999999997</ele><time>2026-04-05T11:42:23.261Z</time></trkpt><trkpt lat="45.0343889" lon="8.016037"><ele>217.0</ele><time>2026-04-05T11:42:24.261Z</time></trkpt><trkpt lat="45.034336" lon="8.0159706"><ele>217.0</ele><time>2026-04-05T11:42:25.26Z</time></trkpt><trkpt lat="45.0342947" lon="8.0158847"><ele>217.0</ele><time>2026-04-05T11:42:26.26Z</time></trkpt><trkpt lat="45.0342646" lon="8.0157837"><ele>216.99999999999997</ele><time>2026-04-05T11:42:27.261Z</time></trkpt><trkpt lat="45.034246" lon="8.015671"><ele>217.0</ele><time>2026-04-05T11:42:28.261Z</time></trkpt><trkpt lat="45.0342318" lon="8.0155563"><ele>217.0</ele><time>2026-04-05T11:42:29.261Z</time></trkpt><trkpt lat="45.0342256" lon="8.0154366"><ele>217.0</ele><time>2026-04-05T11:42:30.261Z</time></trkpt><trkpt lat="45.0342321" lon="8.0153018"><ele>217.0</ele><time>2026-04-05T11:42:31.261Z</time></trkpt><trkpt lat="45.0342639" lon="8.0150428"><ele>217.0</ele><time>2026-04-05T11:42:33.261Z</time></trkpt><trkpt lat="45.0342791" lon="8.0149249"><ele>216.99999999999997</ele><time>2026-04-05T11:42:34.261Z</time></trkpt><trkpt lat="45.0342899" lon="8.0148089"><ele>217.0</ele><time>2026-04-05T11:42:35.261Z</time></trkpt><trkpt lat="45.034294" lon="8.0147006"><ele>217.0</ele><time>2026-04-05T11:42:36.261Z</time></trkpt><trkpt lat="45.0342834" lon="8.0145957"><ele>217.0</ele><time>2026-04-05T11:42:37.261Z</time></trkpt><trkpt lat="45.034253" lon="8.0144865"><ele>216.99999999999997</ele><time>2026-04-05T11:42:38.261Z</time></trkpt><trkpt lat="45.0341999" lon="8.0143747"><ele>217.0</ele><time>2026-04-05T11:42:39.261Z</time></trkpt><trkpt lat="45.0341272" lon="8.0142757"><ele>216.99999999999997</ele><time>2026-04-05T11:42:40.261Z</time></trkpt><trkpt lat="45.0340585" lon="8.0141993"><ele>217.0</ele><time>2026-04-05T11:42:41.261Z</time></trkpt><trkpt lat="45.0339943" lon="8.0141209"><ele>217.0</ele><time>2026-04-05T11:42:42.261Z</time></trkpt><trkpt lat="45.0339368" lon="8.0140465"><ele>217.0</ele><time>2026-04-05T11:42:43.261Z</time></trkpt><trkpt lat="45.0338739" lon="8.0139769"><ele>216.99999999999997</ele><time>2026-04-05T11:42:44.261Z</time></trkpt><trkpt lat="45.0338061" lon="8.0139128"><ele>217.0</ele><time>2026-04-05T11:42:45.261Z</time></trkpt><trkpt lat="45.0337346" lon="8.0138666"><ele>217.99999999999997</ele><time>2026-04-05T11:42:46.261Z</time></trkpt><trkpt lat="45.0336545" lon="8.0138355"><ele>219.0</ele><time>2026-04-05T11:42:47.261Z</time></trkpt><trkpt lat="45.0335707" lon="8.0138006"><ele>220.0</ele><time>2026-04-05T11:42:48.261Z</time></trkpt><trkpt lat="45.0334867" lon="8.0137654"><ele>221.0</ele><time>2026-04-05T11:42:49.261Z</time></trkpt><trkpt lat="45.0334106" lon="8.0137259"><ele>221.99999999999997</ele><time>2026-04-05T11:42:50.261Z</time></trkpt><trkpt lat="45.0333409" lon="8.013679"><ele>223.0</ele><time>2026-04-05T11:42:51.261Z</time></trkpt><trkpt lat="45.0332755" lon="8.0136214"><ele>223.0</ele><time>2026-04-05T11:42:52.261Z</time></trkpt><trkpt lat="45.0331562" lon="8.0135008"><ele>223.0</ele><time>2026-04-05T11:42:54.261Z</time></trkpt><trkpt lat="45.0330467" lon="8.013442"><ele>223.0</ele><time>2026-04-05T11:42:56.261Z</time></trkpt><trkpt lat="45.032935" lon="8.0134373"><ele>223.0</ele><time>2026-04-05T11:42:58.261Z</time></trkpt><trkpt lat="45.0328216" lon="8.0134775"><ele>222.99999999999997</ele><time>2026-04-05T11:43:00.261Z</time></trkpt><trkpt lat="45.0327311" lon="8.0135997"><ele>223.0</ele><time>2026-04-05T11:43:02.261Z</time></trkpt><trkpt lat="45.0327014" lon="8.0136823"><ele>223.0</ele><time>2026-04-05T11:43:03.261Z</time></trkpt><trkpt lat="45.032694" lon="8.0137889"><ele>223.0</ele><time>2026-04-05T11:43:04.261Z</time></trkpt><trkpt lat="45.0326981" lon="8.013905"><ele>222.99999999999997</ele><time>2026-04-05T11:43:05.261Z</time></trkpt><trkpt lat="45.0327202" lon="8.0140216"><ele>223.0</ele><time>2026-04-05T11:43:06.261Z</time></trkpt><trkpt lat="45.0327571" lon="8.0141363"><ele>222.8</ele><time>2026-04-05T11:43:07.261Z</time></trkpt><trkpt lat="45.0327834" lon="8.0142384"><ele>222.60000000000002</ele><time>2026-04-05T11:43:08.261Z</time></trkpt><trkpt lat="45.0328136" lon="8.0143231"><ele>222.39999999999998</ele><time>2026-04-05T11:43:09.261Z</time></trkpt><trkpt lat="45.0328463" lon="8.0144375"><ele>222.2</ele><time>2026-04-05T11:43:11.261Z</time></trkpt><trkpt lat="45.0327934" lon="8.0144992"><ele>222.0</ele><time>2026-04-05T11:49:16.261Z</time></trkpt><trkpt lat="45.0326322" lon="8.0145735"><ele>222.0</ele><time>2026-04-05T11:49:21.26Z</time></trkpt><trkpt lat="45.0325408" lon="8.0146322"><ele>222.0</ele><time>2026-04-05T11:49:23.261Z</time></trkpt><trkpt lat="45.0324772" lon="8.0147083"><ele>222.0</ele><time>2026-04-05T11:49:25.261Z</time></trkpt><trkpt lat="45.0324552" lon="8.0147997"><ele>222.0</ele><time>2026-04-05T11:49:27.261Z</time></trkpt><trkpt lat="45.0324641" lon="8.0148971"><ele>222.0</ele><time>2026-04-05T11:49:29.261Z</time></trkpt><trkpt lat="45.0324541" lon="8.014998"><ele>222.0</ele><time>2026-04-05T11:49:32.261Z</time></trkpt><trkpt lat="45.0323629" lon="8.0150239"><ele>226.6</ele><time>2026-04-05T11:49:36.261Z</time></trkpt><trkpt lat="45.0322855" lon="8.015086"><ele>231.2</ele><time>2026-04-05T11:49:39.261Z</time></trkpt><trkpt lat="45.03217" lon="8.0152601"><ele>235.8</ele><time>2026-04-05T11:49:43.261Z</time></trkpt><trkpt lat="45.0321022" lon="8.0153432"><ele>240.4</ele><time>2026-04-05T11:49:45.261Z</time></trkpt><trkpt lat="45.032046" lon="8.0154115"><ele>245.0</ele><time>2026-04-05T11:49:47.261Z</time></trkpt><trkpt lat="45.0320087" lon="8.0154914"><ele>245.0</ele><time>2026-04-05T11:49:50.261Z</time></trkpt><trkpt lat="45.0319418" lon="8.0155706"><ele>245.0</ele><time>2026-04-05T11:50:12.26Z</time></trkpt><trkpt lat="45.0317324" lon="8.015636"><ele>245.0</ele><time>2026-04-05T11:50:16.26Z</time></trkpt><trkpt lat="45.0316677" lon="8.0156482"><ele>245.0</ele><time>2026-04-05T11:50:17.26Z</time></trkpt><trkpt lat="45.0315991" lon="8.0156504"><ele>245.0</ele><time>2026-04-05T11:50:18.26Z</time></trkpt><trkpt lat="45.0315333" lon="8.0156514"><ele>247.0</ele><time>2026-04-05T11:50:19.26Z</time></trkpt><trkpt lat="45.0314658" lon="8.0156413"><ele>249.0</ele><time>2026-04-05T11:50:20.26Z</time></trkpt><trkpt lat="45.0313953" lon="8.0156242"><ele>251.0</ele><time>2026-04-05T11:50:21.26Z</time></trkpt><trkpt lat="45.0313306" lon="8.0155924"><ele>253.0</ele><time>2026-04-05T11:50:22.26Z</time></trkpt><trkpt lat="45.0312741" lon="8.0155451"><ele>255.0</ele><time>2026-04-05T11:50:23.26Z</time></trkpt><trkpt lat="45.0312219" lon="8.0154878"><ele>257.0</ele><time>2026-04-05T11:50:24.26Z</time></trkpt><trkpt lat="45.0311811" lon="8.0154154"><ele>259.0</ele><time>2026-04-05T11:50:25.26Z</time></trkpt><trkpt lat="45.0311303" lon="8.0152677"><ele>259.0</ele><time>2026-04-05T11:50:27.26Z</time></trkpt><trkpt lat="45.0310494" lon="8.0152241"><ele>259.0</ele><time>2026-04-05T11:50:30.26Z</time></trkpt><trkpt lat="45.0309979" lon="8.0153005"><ele>259.0</ele><time>2026-04-05T11:50:33.26Z</time></trkpt><trkpt lat="45.0307767" lon="8.0154363"><ele>259.0</ele><time>2026-04-05T11:52:10.26Z</time></trkpt><trkpt lat="45.0306709" lon="8.015461"><ele>257.16666666666663</ele><time>2026-04-05T11:52:12.26Z</time></trkpt><trkpt lat="45.0305806" lon="8.0154871"><ele>255.33333333333331</ele><time>2026-04-05T11:52:14.26Z</time></trkpt><trkpt lat="45.0304696" lon="8.0155492"><ele>253.5</ele><time>2026-04-05T11:52:16.26Z</time></trkpt><trkpt lat="45.0304016" lon="8.0155852"><ele>251.66666666666669</ele><time>2026-04-05T11:52:17.26Z</time></trkpt><trkpt lat="45.0303277" lon="8.0156295"><ele>249.83333333333334</ele><time>2026-04-05T11:52:18.26Z</time></trkpt><trkpt lat="45.0302669" lon="8.0156785"><ele>248.0</ele><time>2026-04-05T11:52:19.26Z</time></trkpt><trkpt lat="45.0302109" lon="8.0157391"><ele>248.00000000000003</ele><time>2026-04-05T11:52:20.26Z</time></trkpt><trkpt lat="45.0301622" lon="8.0158057"><ele>248.0</ele><time>2026-04-05T11:52:21.26Z</time></trkpt><trkpt lat="45.0301141" lon="8.0158915"><ele>248.0</ele><time>2026-04-05T11:52:22.26Z</time></trkpt><trkpt lat="45.0300597" lon="8.0159899"><ele>248.0</ele><time>2026-04-05T11:52:23.26Z</time></trkpt><trkpt lat="45.0300088" lon="8.0160763"><ele>248.00000000000003</ele><time>2026-04-05T11:52:24.26Z</time></trkpt><trkpt lat="45.029964" lon="8.0161594"><ele>248.0</ele><time>2026-04-05T11:52:25.26Z</time></trkpt><trkpt lat="45.0299051" lon="8.0162626"><ele>244.0</ele><time>2026-04-05T11:52:27.26Z</time></trkpt><trkpt lat="45.0297441" lon="8.0163423"><ele>240.0</ele><time>2026-04-05T11:52:33.26Z</time></trkpt><trkpt lat="45.0296851" lon="8.0164675"><ele>236.0</ele><time>2026-04-05T11:52:35.26Z</time></trkpt><trkpt lat="45.0296401" lon="8.0166132"><ele>232.0</ele><time>2026-04-05T11:52:37.26Z</time></trkpt><trkpt lat="45.0295819" lon="8.016681"><ele>232.0</ele><time>2026-04-05T11:52:39.26Z</time></trkpt><trkpt lat="45.0295352" lon="8.0165591"><ele>232.0</ele><time>2026-04-05T11:52:42.26Z</time></trkpt><trkpt lat="45.0295535" lon="8.0164236"><ele>232.0</ele><time>2026-04-05T11:52:44.26Z</time></trkpt><trkpt lat="45.0295347" lon="8.0163057"><ele>232.0</ele><time>2026-04-05T11:52:46.26Z</time></trkpt><trkpt lat="45.0295516" lon="8.0161926"><ele>232.0</ele><time>2026-04-05T11:52:48.26Z</time></trkpt><trkpt lat="45.0295076" lon="8.0160778"><ele>232.0</ele><time>2026-04-05T11:52:54.26Z</time></trkpt><trkpt lat="45.0294362" lon="8.0161322"><ele>232.0</ele><time>2026-04-05T11:52:56.26Z</time></trkpt><trkpt lat="45.029347" lon="8.0161905"><ele>232.0</ele><time>2026-04-05T11:52:58.26Z</time></trkpt><trkpt lat="45.0292455" lon="8.0162324"><ele>232.0</ele><time>2026-04-05T11:53:00.26Z</time></trkpt><trkpt lat="45.0291564" lon="8.0162828"><ele>232.0</ele><time>2026-04-05T11:53:02.26Z</time></trkpt><trkpt lat="45.0291017" lon="8.0163887"><ele>232.33333333333331</ele><time>2026-04-05T11:53:04.26Z</time></trkpt><trkpt lat="45.0290767" lon="8.0164928"><ele>232.66666666666666</ele><time>2026-04-05T11:53:06.26Z</time></trkpt><trkpt lat="45.0290594" lon="8.016579"><ele>233.0</ele><time>2026-04-05T11:53:08.26Z</time></trkpt><trkpt lat="45.0290407" lon="8.0166783"><ele>233.33333333333331</ele><time>2026-04-05T11:53:11.26Z</time></trkpt><trkpt lat="45.0289693" lon="8.0168707"><ele>233.66666666666666</ele><time>2026-04-05T11:53:17.26Z</time></trkpt><trkpt lat="45.0289616" lon="8.0169769"><ele>234.0</ele><time>2026-04-05T11:53:20.26Z</time></trkpt><trkpt lat="45.028945" lon="8.0170729"><ele>234.0</ele><time>2026-04-05T11:53:24.26Z</time></trkpt><trkpt lat="45.0288952" lon="8.0169915"><ele>233.99999999999997</ele><time>2026-04-05T11:53:29.26Z</time></trkpt><trkpt lat="45.0288652" lon="8.0168903"><ele>233.99999999999997</ele><time>2026-04-05T11:53:31.26Z</time></trkpt><trkpt lat="45.0288388" lon="8.0167598"><ele>234.0</ele><time>2026-04-05T11:53:33.26Z</time></trkpt><trkpt lat="45.0287153" lon="8.0166591"><ele>234.0</ele><time>2026-04-05T11:53:38.26Z</time></trkpt><trkpt lat="45.0286793" lon="8.0167809"><ele>234.0</ele><time>2026-04-05T11:53:41.26Z</time></trkpt><trkpt lat="45.0286764" lon="8.0169286"><ele>233.99999999999997</ele><time>2026-04-05T11:53:43.26Z</time></trkpt><trkpt lat="45.0286825" lon="8.0170795"><ele>233.99999999999997</ele><time>2026-04-05T11:53:45.26Z</time></trkpt><trkpt lat="45.0286779" lon="8.0172011"><ele>234.0</ele><time>2026-04-05T11:53:47.26Z</time></trkpt><trkpt lat="45.0286576" lon="8.0173045"><ele>234.0</ele><time>2026-04-05T11:53:49.26Z</time></trkpt><trkpt lat="45.0286463" lon="8.0174543"><ele>232.0</ele><time>2026-04-05T11:53:51.26Z</time></trkpt><trkpt lat="45.0286404" lon="8.0175487"><ele>230.0</ele><time>2026-04-05T11:53:52.26Z</time></trkpt><trkpt lat="45.0286068" lon="8.0177089"><ele>228.0</ele><time>2026-04-05T11:53:54.26Z</time></trkpt><trkpt lat="45.0284578" lon="8.0178619"><ele>226.0</ele><time>2026-04-05T11:53:57.26Z</time></trkpt><trkpt lat="45.0283371" lon="8.0178823"><ele>227.16666666666666</ele><time>2026-04-05T11:53:59.26Z</time></trkpt><trkpt lat="45.0282673" lon="8.0178733"><ele>228.33333333333331</ele><time>2026-04-05T11:54:00.26Z</time></trkpt><trkpt lat="45.0282043" lon="8.0178597"><ele>229.5</ele><time>2026-04-05T11:54:01.26Z</time></trkpt><trkpt lat="45.028119" lon="8.0178649"><ele>230.66666666666669</ele><time>2026-04-05T11:54:03.26Z</time></trkpt><trkpt lat="45.0281106" lon="8.0179759"><ele>231.83333333333334</ele><time>2026-04-05T11:54:06.26Z</time></trkpt><trkpt lat="45.0281667" lon="8.0180804"><ele>233.0</ele><time>2026-04-05T11:54:08.26Z</time></trkpt><trkpt lat="45.0282181" lon="8.0181895"><ele>232.5</ele><time>2026-04-05T11:54:10.26Z</time></trkpt><trkpt lat="45.028201" lon="8.0183219"><ele>232.0</ele><time>2026-04-05T11:54:12.26Z</time></trkpt><trkpt lat="45.0281391" lon="8.0184661"><ele>231.5</ele><time>2026-04-05T11:54:14.26Z</time></trkpt><trkpt lat="45.0280586" lon="8.0186149"><ele>231.0</ele><time>2026-04-05T11:54:16.26Z</time></trkpt><trkpt lat="45.0279527" lon="8.0187807"><ele>231.0</ele><time>2026-04-05T11:54:18.26Z</time></trkpt><trkpt lat="45.0278908" lon="8.0188609"><ele>231.0</ele><time>2026-04-05T11:54:19.26Z</time></trkpt><trkpt lat="45.0278181" lon="8.0189325"><ele>231.0</ele><time>2026-04-05T11:54:20.26Z</time></trkpt><trkpt lat="45.0277451" lon="8.0189939"><ele>231.0</ele><time>2026-04-05T11:54:21.26Z</time></trkpt><trkpt lat="45.0276827" lon="8.01905"><ele>231.0</ele><time>2026-04-05T11:54:22.26Z</time></trkpt><trkpt lat="45.0276235" lon="8.0190939"><ele>231.0</ele><time>2026-04-05T11:54:23.26Z</time></trkpt><trkpt lat="45.0275614" lon="8.0191187"><ele>231.0</ele><time>2026-04-05T11:54:24.26Z</time></trkpt><trkpt lat="45.0274923" lon="8.0191412"><ele>231.0</ele><time>2026-04-05T11:54:25.26Z</time></trkpt><trkpt lat="45.0274193" lon="8.0191463"><ele>231.0</ele><time>2026-04-05T11:54:26.26Z</time></trkpt><trkpt lat="45.0273424" lon="8.0191333"><ele>231.0</ele><time>2026-04-05T11:54:27.26Z</time></trkpt><trkpt lat="45.0272686" lon="8.0191171"><ele>231.0</ele><time>2026-04-05T11:54:28.26Z</time></trkpt><trkpt lat="45.0271988" lon="8.0191104"><ele>231.0</ele><time>2026-04-05T11:54:29.26Z</time></trkpt><trkpt lat="45.0270776" lon="8.0191292"><ele>231.0</ele><time>2026-04-05T11:54:31.26Z</time></trkpt><trkpt lat="45.0269707" lon="8.0191893"><ele>231.00000000000003</ele><time>2026-04-05T11:54:33.26Z</time></trkpt><trkpt lat="45.0269176" lon="8.0192613"><ele>231.00000000000003</ele><time>2026-04-05T11:54:34.26Z</time></trkpt><trkpt lat="45.02686" lon="8.0193549"><ele>231.0</ele><time>2026-04-05T11:54:35.26Z</time></trkpt><trkpt lat="45.0268031" lon="8.0194546"><ele>231.0</ele><time>2026-04-05T11:54:36.26Z</time></trkpt><trkpt lat="45.0267451" lon="8.0195534"><ele>231.4</ele><time>2026-04-05T11:54:37.26Z</time></trkpt><trkpt lat="45.0266239" lon="8.0196812"><ele>231.8</ele><time>2026-04-05T11:54:39.26Z</time></trkpt><trkpt lat="45.0265615" lon="8.0197146"><ele>232.20000000000002</ele><time>2026-04-05T11:54:40.26Z</time></trkpt><trkpt lat="45.026498" lon="8.0197265"><ele>232.60000000000002</ele><time>2026-04-05T11:54:41.26Z</time></trkpt><trkpt lat="45.0263724" lon="8.0197544"><ele>233.0</ele><time>2026-04-05T11:54:43.26Z</time></trkpt><trkpt lat="45.0262803" lon="8.0198364"><ele>233.0</ele><time>2026-04-05T11:54:45.26Z</time></trkpt><trkpt lat="45.0262662" lon="8.0199654"><ele>233.0</ele><time>2026-04-05T11:54:47.26Z</time></trkpt><trkpt lat="45.0262559" lon="8.0201138"><ele>233.0</ele><time>2026-04-05T11:54:49.26Z</time></trkpt><trkpt lat="45.0261953" lon="8.0202402"><ele>233.0</ele><time>2026-04-05T11:54:51.26Z</time></trkpt><trkpt lat="45.0260818" lon="8.0203235"><ele>233.0</ele><time>2026-04-05T11:54:53.26Z</time></trkpt><trkpt lat="45.025996" lon="8.0203549"><ele>233.2</ele><time>2026-04-05T11:54:54.26Z</time></trkpt><trkpt lat="45.0259089" lon="8.0203767"><ele>233.4</ele><time>2026-04-05T11:54:55.26Z</time></trkpt><trkpt lat="45.0258124" lon="8.0203971"><ele>233.59999999999997</ele><time>2026-04-05T11:54:56.26Z</time></trkpt><trkpt lat="45.0257087" lon="8.0204151"><ele>233.79999999999998</ele><time>2026-04-05T11:54:57.26Z</time></trkpt><trkpt lat="45.0255928" lon="8.0204239"><ele>234.0</ele><time>2026-04-05T11:54:58.26Z</time></trkpt><trkpt lat="45.0253472" lon="8.0204437"><ele>234.0</ele><time>2026-04-05T11:55:00.26Z</time></trkpt><trkpt lat="45.0252255" lon="8.02045"><ele>234.0</ele><time>2026-04-05T11:55:01.26Z</time></trkpt><trkpt lat="45.025102" lon="8.02046"><ele>234.0</ele><time>2026-04-05T11:55:02.26Z</time></trkpt><trkpt lat="45.0249792" lon="8.0204647"><ele>234.0</ele><time>2026-04-05T11:55:03.26Z</time></trkpt><trkpt lat="45.0248621" lon="8.0204687"><ele>233.2</ele><time>2026-04-05T11:55:04.26Z</time></trkpt><trkpt lat="45.0247511" lon="8.0204833"><ele>232.39999999999998</ele><time>2026-04-05T11:55:05.259Z</time></trkpt><trkpt lat="45.0246519" lon="8.0205029"><ele>231.6</ele><time>2026-04-05T11:55:06.26Z</time></trkpt><trkpt lat="45.0245659" lon="8.020519"><ele>230.8</ele><time>2026-04-05T11:55:07.26Z</time></trkpt><trkpt lat="45.0244872" lon="8.0205236"><ele>230.0</ele><time>2026-04-05T11:55:08.26Z</time></trkpt><trkpt lat="45.0244044" lon="8.0205235"><ele>230.00000000000003</ele><time>2026-04-05T11:55:09.26Z</time></trkpt><trkpt lat="45.0243258" lon="8.0205179"><ele>230.0</ele><time>2026-04-05T11:55:10.26Z</time></trkpt><trkpt lat="45.0242602" lon="8.0205142"><ele>230.0</ele><time>2026-04-05T11:55:11.26Z</time></trkpt><trkpt lat="45.024171" lon="8.0205098"><ele>230.0</ele><time>2026-04-05T11:55:13.26Z</time></trkpt><trkpt lat="45.0240934" lon="8.0204957"><ele>230.00000000000003</ele><time>2026-04-05T11:55:15.26Z</time></trkpt><trkpt lat="45.023987" lon="8.0204404"><ele>230.0</ele><time>2026-04-05T11:55:17.26Z</time></trkpt><trkpt lat="45.0238913" lon="8.0203469"><ele>232.2</ele><time>2026-04-05T11:55:19.26Z</time></trkpt><trkpt lat="45.0237568" lon="8.0202036"><ele>234.4</ele><time>2026-04-05T11:55:23.26Z</time></trkpt><trkpt lat="45.0236879" lon="8.0201242"><ele>236.60000000000002</ele><time>2026-04-05T11:55:25.26Z</time></trkpt><trkpt lat="45.0236387" lon="8.0199719"><ele>238.8</ele><time>2026-04-05T11:55:27.26Z</time></trkpt><trkpt lat="45.0236147" lon="8.0198807"><ele>241.0</ele><time>2026-04-05T11:55:28.26Z</time></trkpt><trkpt lat="45.0235822" lon="8.0197859"><ele>240.99999999999997</ele><time>2026-04-05T11:55:29.26Z</time></trkpt><trkpt lat="45.0235473" lon="8.0196937"><ele>241.0</ele><time>2026-04-05T11:55:30.26Z</time></trkpt><trkpt lat="45.0235056" lon="8.0196094"><ele>241.0</ele><time>2026-04-05T11:55:31.26Z</time></trkpt><trkpt lat="45.0234725" lon="8.0195172"><ele>241.0</ele><time>2026-04-05T11:55:32.26Z</time></trkpt><trkpt lat="45.023448" lon="8.0193998"><ele>240.99999999999997</ele><time>2026-04-05T11:55:33.26Z</time></trkpt><trkpt lat="45.0234298" lon="8.0192718"><ele>241.0</ele><time>2026-04-05T11:55:34.26Z</time></trkpt><trkpt lat="45.0234133" lon="8.0191532"><ele>240.60000000000002</ele><time>2026-04-05T11:55:35.26Z</time></trkpt><trkpt lat="45.0234044" lon="8.0190427"><ele>240.20000000000002</ele><time>2026-04-05T11:55:36.26Z</time></trkpt><trkpt lat="45.023394" lon="8.0189522"><ele>239.79999999999998</ele><time>2026-04-05T11:55:37.26Z</time></trkpt><trkpt lat="45.0233508" lon="8.0188329"><ele>239.39999999999998</ele><time>2026-04-05T11:55:39.26Z</time></trkpt><trkpt lat="45.0232879" lon="8.0187141"><ele>239.0</ele><time>2026-04-05T11:55:41.26Z</time></trkpt><trkpt lat="45.0231486" lon="8.018429"><ele>239.00000000000003</ele><time>2026-04-05T11:55:45.26Z</time></trkpt><trkpt lat="45.0231033" lon="8.018359"><ele>239.0</ele><time>2026-04-05T11:55:46.26Z</time></trkpt><trkpt lat="45.0230576" lon="8.0182857"><ele>239.00000000000003</ele><time>2026-04-05T11:55:47.26Z</time></trkpt><trkpt lat="45.0230107" lon="8.0182141"><ele>239.00000000000003</ele><time>2026-04-05T11:55:48.26Z</time></trkpt><trkpt lat="45.0229622" lon="8.0181409"><ele>239.0</ele><time>2026-04-05T11:55:49.26Z</time></trkpt><trkpt lat="45.0229147" lon="8.0180673"><ele>239.00000000000003</ele><time>2026-04-05T11:55:50.26Z</time></trkpt><trkpt lat="45.0228718" lon="8.0179824"><ele>239.00000000000003</ele><time>2026-04-05T11:55:51.26Z</time></trkpt><trkpt lat="45.022828" lon="8.0178897"><ele>236.33333333333334</ele><time>2026-04-05T11:55:52.26Z</time></trkpt><trkpt lat="45.0227915" lon="8.0178022"><ele>233.66666666666669</ele><time>2026-04-05T11:55:53.26Z</time></trkpt><trkpt lat="45.0227568" lon="8.0177159"><ele>231.0</ele><time>2026-04-05T11:55:54.26Z</time></trkpt><trkpt lat="45.0227205" lon="8.0176353"><ele>228.33333333333331</ele><time>2026-04-05T11:55:55.26Z</time></trkpt><trkpt lat="45.0226761" lon="8.0175678"><ele>225.66666666666666</ele><time>2026-04-05T11:55:56.26Z</time></trkpt><trkpt lat="45.0225597" lon="8.0175052"><ele>223.0</ele><time>2026-04-05T11:55:58.26Z</time></trkpt><trkpt lat="45.0224816" lon="8.0174981"><ele>221.0</ele><time>2026-04-05T11:55:59.26Z</time></trkpt><trkpt lat="45.0223916" lon="8.0174989"><ele>219.0</ele><time>2026-04-05T11:56:00.26Z</time></trkpt><trkpt lat="45.0222872" lon="8.0175044"><ele>217.0</ele><time>2026-04-05T11:56:01.26Z</time></trkpt><trkpt lat="45.0221588" lon="8.0175192"><ele>215.0</ele><time>2026-04-05T11:56:02.26Z</time></trkpt><trkpt lat="45.0218851" lon="8.0175616"><ele>215.00000000000003</ele><time>2026-04-05T11:56:04.26Z</time></trkpt><trkpt lat="45.0217767" lon="8.0175842"><ele>215.0</ele><time>2026-04-05T11:56:05.26Z</time></trkpt><trkpt lat="45.0216787" lon="8.0176179"><ele>215.0</ele><time>2026-04-05T11:56:06.26Z</time></trkpt><trkpt lat="45.0216016" lon="8.0176593"><ele>215.0</ele><time>2026-04-05T11:56:07.26Z</time></trkpt><trkpt lat="45.0215328" lon="8.0177027"><ele>215.00000000000003</ele><time>2026-04-05T11:56:08.26Z</time></trkpt><trkpt lat="45.0214727" lon="8.0177477"><ele>215.0</ele><time>2026-04-05T11:56:09.26Z</time></trkpt><trkpt lat="45.0214168" lon="8.0177988"><ele>214.50000000000003</ele><time>2026-04-05T11:56:10.26Z</time></trkpt><trkpt lat="45.0213691" lon="8.017857"><ele>214.0</ele><time>2026-04-05T11:56:11.26Z</time></trkpt><trkpt lat="45.0213077" lon="8.0180012"><ele>213.5</ele><time>2026-04-05T11:56:13.26Z</time></trkpt><trkpt lat="45.0212905" lon="8.0181014"><ele>213.0</ele><time>2026-04-05T11:56:14.26Z</time></trkpt><trkpt lat="45.0212667" lon="8.0182038"><ele>212.50000000000003</ele><time>2026-04-05T11:56:15.26Z</time></trkpt><trkpt lat="45.0212279" lon="8.0182977"><ele>212.0</ele><time>2026-04-05T11:56:16.26Z</time></trkpt><trkpt lat="45.0211772" lon="8.018377"><ele>212.0</ele><time>2026-04-05T11:56:17.26Z</time></trkpt><trkpt lat="45.0210968" lon="8.018458"><ele>212.0</ele><time>2026-04-05T11:56:18.26Z</time></trkpt><trkpt lat="45.0210003" lon="8.0185419"><ele>212.0</ele><time>2026-04-05T11:56:19.26Z</time></trkpt><trkpt lat="45.0209037" lon="8.0186314"><ele>212.0</ele><time>2026-04-05T11:56:20.26Z</time></trkpt><trkpt lat="45.0208144" lon="8.0187204"><ele>212.0</ele><time>2026-04-05T11:56:21.26Z</time></trkpt><trkpt lat="45.0207216" lon="8.0188158"><ele>212.0</ele><time>2026-04-05T11:56:22.26Z</time></trkpt><trkpt lat="45.020636" lon="8.0188975"><ele>212.0</ele><time>2026-04-05T11:56:23.26Z</time></trkpt><trkpt lat="45.0204835" lon="8.0190402"><ele>212.0</ele><time>2026-04-05T11:56:25.26Z</time></trkpt><trkpt lat="45.0204102" lon="8.019095"><ele>212.0</ele><time>2026-04-05T11:56:26.26Z</time></trkpt><trkpt lat="45.0203344" lon="8.0191522"><ele>212.00000000000003</ele><time>2026-04-05T11:56:27.259Z</time></trkpt><trkpt lat="45.020262" lon="8.0192117"><ele>212.0</ele><time>2026-04-05T11:56:28.26Z</time></trkpt><trkpt lat="45.0201897" lon="8.0192738"><ele>212.0</ele><time>2026-04-05T11:56:29.26Z</time></trkpt><trkpt lat="45.0201183" lon="8.0193429"><ele>212.0</ele><time>2026-04-05T11:56:30.26Z</time></trkpt><trkpt lat="45.0200444" lon="8.0194228"><ele>212.00000000000003</ele><time>2026-04-05T11:56:31.26Z</time></trkpt><trkpt lat="45.0199761" lon="8.0194966"><ele>212.0</ele><time>2026-04-05T11:56:32.26Z</time></trkpt><trkpt lat="45.0199145" lon="8.0195624"><ele>213.16666666666669</ele><time>2026-04-05T11:56:33.26Z</time></trkpt><trkpt lat="45.0198571" lon="8.019618"><ele>214.33333333333334</ele><time>2026-04-05T11:56:34.26Z</time></trkpt><trkpt lat="45.019801" lon="8.0196686"><ele>215.5</ele><time>2026-04-05T11:56:35.26Z</time></trkpt><trkpt lat="45.0197386" lon="8.0197144"><ele>216.66666666666669</ele><time>2026-04-05T11:56:36.26Z</time></trkpt><trkpt lat="45.0196651" lon="8.0197483"><ele>217.83333333333334</ele><time>2026-04-05T11:56:37.26Z</time></trkpt><trkpt lat="45.0195792" lon="8.0197696"><ele>219.0</ele><time>2026-04-05T11:56:38.26Z</time></trkpt><trkpt lat="45.0194944" lon="8.0197886"><ele>219.0</ele><time>2026-04-05T11:56:39.26Z</time></trkpt><trkpt lat="45.0194221" lon="8.0198103"><ele>219.0</ele><time>2026-04-05T11:56:40.26Z</time></trkpt><trkpt lat="45.019361" lon="8.0198423"><ele>219.0</ele><time>2026-04-05T11:56:41.26Z</time></trkpt><trkpt lat="45.0193081" lon="8.0198909"><ele>219.0</ele><time>2026-04-05T11:56:42.26Z</time></trkpt><trkpt lat="45.0192499" lon="8.0199614"><ele>219.0</ele><time>2026-04-05T11:56:43.26Z</time></trkpt><trkpt lat="45.0192015" lon="8.0200558"><ele>219.0</ele><time>2026-04-05T11:56:44.26Z</time></trkpt><trkpt lat="45.0191097" lon="8.0202785"><ele>218.16666666666666</ele><time>2026-04-05T11:56:46.26Z</time></trkpt><trkpt lat="45.0190535" lon="8.0203886"><ele>217.33333333333331</ele><time>2026-04-05T11:56:47.26Z</time></trkpt><trkpt lat="45.0189979" lon="8.0204822"><ele>216.5</ele><time>2026-04-05T11:56:48.26Z</time></trkpt><trkpt lat="45.0189425" lon="8.0205613"><ele>215.66666666666666</ele><time>2026-04-05T11:56:49.26Z</time></trkpt><trkpt lat="45.018886" lon="8.0206195"><ele>214.83333333333331</ele><time>2026-04-05T11:56:50.26Z</time></trkpt><trkpt lat="45.0187839" lon="8.020695"><ele>214.0</ele><time>2026-04-05T11:56:52.26Z</time></trkpt><trkpt lat="45.0186781" lon="8.0207653"><ele>214.0</ele><time>2026-04-05T11:56:54.26Z</time></trkpt><trkpt lat="45.0186082" lon="8.0207996"><ele>213.99999999999997</ele><time>2026-04-05T11:56:55.26Z</time></trkpt><trkpt lat="45.0185187" lon="8.0208384"><ele>213.99999999999997</ele><time>2026-04-05T11:56:56.26Z</time></trkpt><trkpt lat="45.0184243" lon="8.0208882"><ele>214.0</ele><time>2026-04-05T11:56:57.26Z</time></trkpt><trkpt lat="45.0183279" lon="8.0209419"><ele>214.0</ele><time>2026-04-05T11:56:58.26Z</time></trkpt><trkpt lat="45.0182303" lon="8.020996"><ele>214.39999999999998</ele><time>2026-04-05T11:56:59.26Z</time></trkpt><trkpt lat="45.0181379" lon="8.0210521"><ele>214.79999999999998</ele><time>2026-04-05T11:57:00.26Z</time></trkpt><trkpt lat="45.0180503" lon="8.0211308"><ele>215.20000000000002</ele><time>2026-04-05T11:57:01.26Z</time></trkpt><trkpt lat="45.0179637" lon="8.021234"><ele>215.60000000000002</ele><time>2026-04-05T11:57:02.26Z</time></trkpt><trkpt lat="45.0178727" lon="8.0213554"><ele>216.0</ele><time>2026-04-05T11:57:03.26Z</time></trkpt><trkpt lat="45.0177693" lon="8.0214799"><ele>216.0</ele><time>2026-04-05T11:57:04.26Z</time></trkpt><trkpt lat="45.0176656" lon="8.0215906"><ele>216.0</ele><time>2026-04-05T11:57:05.26Z</time></trkpt><trkpt lat="45.0174854" lon="8.0217915"><ele>216.0</ele><time>2026-04-05T11:57:07.259Z</time></trkpt><trkpt lat="45.0173923" lon="8.0218835"><ele>215.8</ele><time>2026-04-05T11:57:08.26Z</time></trkpt><trkpt lat="45.0173039" lon="8.0219578"><ele>215.60000000000002</ele><time>2026-04-05T11:57:09.26Z</time></trkpt><trkpt lat="45.017211" lon="8.0220342"><ele>215.4</ele><time>2026-04-05T11:57:10.26Z</time></trkpt><trkpt lat="45.0171213" lon="8.0221069"><ele>215.2</ele><time>2026-04-05T11:57:11.26Z</time></trkpt><trkpt lat="45.0170341" lon="8.0221852"><ele>215.0</ele><time>2026-04-05T11:57:12.26Z</time></trkpt><trkpt lat="45.0169427" lon="8.0222569"><ele>215.0</ele><time>2026-04-05T11:57:13.26Z</time></trkpt><trkpt lat="45.0168391" lon="8.022317"><ele>215.0</ele><time>2026-04-05T11:57:14.26Z</time></trkpt><trkpt lat="45.0167318" lon="8.0223602"><ele>215.0</ele><time>2026-04-05T11:57:15.26Z</time></trkpt><trkpt lat="45.0166203" lon="8.0223862"><ele>215.0</ele><time>2026-04-05T11:57:16.26Z</time></trkpt><trkpt lat="45.0165072" lon="8.0223912"><ele>214.5</ele><time>2026-04-05T11:57:17.26Z</time></trkpt><trkpt lat="45.0163885" lon="8.0223824"><ele>214.0</ele><time>2026-04-05T11:57:18.26Z</time></trkpt><trkpt lat="45.0162648" lon="8.0223689"><ele>213.5</ele><time>2026-04-05T11:57:19.26Z</time></trkpt><trkpt lat="45.0161262" lon="8.0223549"><ele>213.0</ele><time>2026-04-05T11:57:20.26Z</time></trkpt><trkpt lat="45.0159772" lon="8.0223352"><ele>213.0</ele><time>2026-04-05T11:57:21.26Z</time></trkpt><trkpt lat="45.0158372" lon="8.0223189"><ele>213.0</ele><time>2026-04-05T11:57:22.26Z</time></trkpt><trkpt lat="45.0156882" lon="8.0223041"><ele>213.0</ele><time>2026-04-05T11:57:23.26Z</time></trkpt><trkpt lat="45.0155355" lon="8.0222929"><ele>213.0</ele><time>2026-04-05T11:57:24.26Z</time></trkpt><trkpt lat="45.0153908" lon="8.0222763"><ele>213.0</ele><time>2026-04-05T11:57:25.26Z</time></trkpt><trkpt lat="45.0152595" lon="8.0222679"><ele>213.0</ele><time>2026-04-05T11:57:26.26Z</time></trkpt><trkpt lat="45.0150297" lon="8.0222522"><ele>213.0</ele><time>2026-04-05T11:57:28.26Z</time></trkpt><trkpt lat="45.0149293" lon="8.0222284"><ele>213.0</ele><time>2026-04-05T11:57:29.26Z</time></trkpt><trkpt lat="45.0148259" lon="8.0221916"><ele>213.0</ele><time>2026-04-05T11:57:30.26Z</time></trkpt><trkpt lat="45.0147195" lon="8.0221351"><ele>213.0</ele><time>2026-04-05T11:57:31.259Z</time></trkpt><trkpt lat="45.0145995" lon="8.0220785"><ele>213.0</ele><time>2026-04-05T11:57:32.26Z</time></trkpt><trkpt lat="45.014467" lon="8.022024"><ele>213.0</ele><time>2026-04-05T11:57:33.26Z</time></trkpt><trkpt lat="45.0143345" lon="8.0219686"><ele>213.0</ele><time>2026-04-05T11:57:34.26Z</time></trkpt><trkpt lat="45.0141996" lon="8.0219187"><ele>213.0</ele><time>2026-04-05T11:57:35.26Z</time></trkpt><trkpt lat="45.0140582" lon="8.0218739"><ele>213.0</ele><time>2026-04-05T11:57:36.26Z</time></trkpt><trkpt lat="45.0139124" lon="8.0218349"><ele>211.66666666666669</ele><time>2026-04-05T11:57:37.26Z</time></trkpt><trkpt lat="45.0137596" lon="8.021807"><ele>210.33333333333334</ele><time>2026-04-05T11:57:38.26Z</time></trkpt><trkpt lat="45.0135985" lon="8.0217795"><ele>209.0</ele><time>2026-04-05T11:57:39.26Z</time></trkpt><trkpt lat="45.0134386" lon="8.021747"><ele>209.0</ele><time>2026-04-05T11:57:40.26Z</time></trkpt><trkpt lat="45.0132829" lon="8.0217124"><ele>209.0</ele><time>2026-04-05T11:57:41.26Z</time></trkpt><trkpt lat="45.0131399" lon="8.0216776"><ele>209.0</ele><time>2026-04-05T11:57:42.26Z</time></trkpt><trkpt lat="45.0130084" lon="8.0216521"><ele>209.0</ele><time>2026-04-05T11:57:43.26Z</time></trkpt><trkpt lat="45.0128849" lon="8.0216336"><ele>209.0</ele><time>2026-04-05T11:57:44.26Z</time></trkpt><trkpt lat="45.0127657" lon="8.0216119"><ele>209.0</ele><time>2026-04-05T11:57:45.26Z</time></trkpt><trkpt lat="45.0126624" lon="8.0215688"><ele>209.0</ele><time>2026-04-05T11:57:46.26Z</time></trkpt><trkpt lat="45.0125753" lon="8.0215142"><ele>209.0</ele><time>2026-04-05T11:57:47.26Z</time></trkpt><trkpt lat="45.0124578" lon="8.0213579"><ele>208.39999999999998</ele><time>2026-04-05T11:57:49.26Z</time></trkpt><trkpt lat="45.0124236" lon="8.0212537"><ele>207.8</ele><time>2026-04-05T11:57:50.26Z</time></trkpt><trkpt lat="45.0124096" lon="8.0211375"><ele>207.2</ele><time>2026-04-05T11:57:51.26Z</time></trkpt><trkpt lat="45.0124143" lon="8.0210096"><ele>206.60000000000002</ele><time>2026-04-05T11:57:52.26Z</time></trkpt><trkpt lat="45.0124348" lon="8.0208719"><ele>206.0</ele><time>2026-04-05T11:57:53.26Z</time></trkpt><trkpt lat="45.0124566" lon="8.0207294"><ele>206.0</ele><time>2026-04-05T11:57:54.26Z</time></trkpt><trkpt lat="45.0124681" lon="8.0205905"><ele>206.0</ele><time>2026-04-05T11:57:55.26Z</time></trkpt><trkpt lat="45.0124609" lon="8.0204505"><ele>206.0</ele><time>2026-04-05T11:57:56.26Z</time></trkpt><trkpt lat="45.0124376" lon="8.0203307"><ele>206.0</ele><time>2026-04-05T11:57:57.26Z</time></trkpt><trkpt lat="45.0123821" lon="8.0202335"><ele>206.0</ele><time>2026-04-05T11:57:58.26Z</time></trkpt><trkpt lat="45.0122993" lon="8.0201637"><ele>206.00000000000003</ele><time>2026-04-05T11:57:59.26Z</time></trkpt><trkpt lat="45.0122144" lon="8.0201127"><ele>206.0</ele><time>2026-04-05T11:58:00.26Z</time></trkpt><trkpt lat="45.0121312" lon="8.020078"><ele>206.0</ele><time>2026-04-05T11:58:01.26Z</time></trkpt><trkpt lat="45.0120541" lon="8.0200607"><ele>206.0</ele><time>2026-04-05T11:58:02.26Z</time></trkpt><trkpt lat="45.0119852" lon="8.0200619"><ele>206.00000000000003</ele><time>2026-04-05T11:58:03.26Z</time></trkpt><trkpt lat="45.0119263" lon="8.0200953"><ele>206.0</ele><time>2026-04-05T11:58:04.26Z</time></trkpt><trkpt lat="45.0118554" lon="8.0201693"><ele>206.0</ele><time>2026-04-05T11:58:05.26Z</time></trkpt><trkpt lat="45.0117765" lon="8.0202886"><ele>206.0</ele><time>2026-04-05T11:58:06.26Z</time></trkpt><trkpt lat="45.0116881" lon="8.0204316"><ele>206.0</ele><time>2026-04-05T11:58:07.26Z</time></trkpt><trkpt lat="45.011596" lon="8.0206006"><ele>206.0</ele><time>2026-04-05T11:58:08.26Z</time></trkpt><trkpt lat="45.0114051" lon="8.0209682"><ele>204.0</ele><time>2026-04-05T11:58:10.26Z</time></trkpt><trkpt lat="45.0113148" lon="8.0211591"><ele>202.0</ele><time>2026-04-05T11:58:11.26Z</time></trkpt><trkpt lat="45.0112335" lon="8.0213704"><ele>200.0</ele><time>2026-04-05T11:58:12.26Z</time></trkpt><trkpt lat="45.0111653" lon="8.0216001"><ele>200.0</ele><time>2026-04-05T11:58:13.26Z</time></trkpt><trkpt lat="45.0111096" lon="8.0218487"><ele>200.0</ele><time>2026-04-05T11:58:14.26Z</time></trkpt><trkpt lat="45.0110639" lon="8.0220868"><ele>200.0</ele><time>2026-04-05T11:58:15.26Z</time></trkpt><trkpt lat="45.0110299" lon="8.0223022"><ele>199.5</ele><time>2026-04-05T11:58:16.26Z</time></trkpt><trkpt lat="45.0110122" lon="8.0225131"><ele>199.0</ele><time>2026-04-05T11:58:17.26Z</time></trkpt><trkpt lat="45.0110071" lon="8.0227022"><ele>198.5</ele><time>2026-04-05T11:58:18.26Z</time></trkpt><trkpt lat="45.0110179" lon="8.0228747"><ele>198.0</ele><time>2026-04-05T11:58:19.26Z</time></trkpt><trkpt lat="45.0110304" lon="8.0230339"><ele>198.0</ele><time>2026-04-05T11:58:20.26Z</time></trkpt><trkpt lat="45.0110425" lon="8.0231852"><ele>198.0</ele><time>2026-04-05T11:58:21.26Z</time></trkpt><trkpt lat="45.0110363" lon="8.0233347"><ele>198.0</ele><time>2026-04-05T11:58:22.26Z</time></trkpt><trkpt lat="45.0109999" lon="8.0234807"><ele>198.0</ele><time>2026-04-05T11:58:23.26Z</time></trkpt><trkpt lat="45.0109459" lon="8.0236387"><ele>198.0</ele><time>2026-04-05T11:58:24.26Z</time></trkpt><trkpt lat="45.0108772" lon="8.0238083"><ele>198.25</ele><time>2026-04-05T11:58:25.26Z</time></trkpt><trkpt lat="45.0108023" lon="8.0239866"><ele>198.5</ele><time>2026-04-05T11:58:26.26Z</time></trkpt><trkpt lat="45.0107256" lon="8.0241729"><ele>198.75</ele><time>2026-04-05T11:58:27.26Z</time></trkpt><trkpt lat="45.0106508" lon="8.0243414"><ele>199.0</ele><time>2026-04-05T11:58:28.26Z</time></trkpt><trkpt lat="45.0105805" lon="8.0244962"><ele>199.0</ele><time>2026-04-05T11:58:29.26Z</time></trkpt><trkpt lat="45.0104711" lon="8.0247364"><ele>199.0</ele><time>2026-04-05T11:58:31.26Z</time></trkpt><trkpt lat="45.0104322" lon="8.0248265"><ele>199.0</ele><time>2026-04-05T11:58:32.26Z</time></trkpt><trkpt lat="45.0103885" lon="8.0249621"><ele>199.0</ele><time>2026-04-05T11:58:34.26Z</time></trkpt><trkpt lat="45.0103727" lon="8.0250484"><ele>199.0</ele><time>2026-04-05T11:58:36.26Z</time></trkpt><trkpt lat="45.0104186" lon="8.0251411"><ele>199.75</ele><time>2026-04-05T11:58:38.26Z</time></trkpt><trkpt lat="45.0104907" lon="8.0251909"><ele>200.5</ele><time>2026-04-05T11:58:39.26Z</time></trkpt><trkpt lat="45.0105983" lon="8.025252"><ele>201.25</ele><time>2026-04-05T11:58:40.26Z</time></trkpt><trkpt lat="45.0107391" lon="8.0253315"><ele>202.0</ele><time>2026-04-05T11:58:41.26Z</time></trkpt><trkpt lat="45.0109023" lon="8.0254216"><ele>202.0</ele><time>2026-04-05T11:58:42.26Z</time></trkpt><trkpt lat="45.0110738" lon="8.025506"><ele>202.0</ele><time>2026-04-05T11:58:43.26Z</time></trkpt><trkpt lat="45.0112573" lon="8.0255814"><ele>202.0</ele><time>2026-04-05T11:58:44.26Z</time></trkpt><trkpt lat="45.011448" lon="8.0256384"><ele>202.0</ele><time>2026-04-05T11:58:45.26Z</time></trkpt><trkpt lat="45.0116448" lon="8.0256891"><ele>202.0</ele><time>2026-04-05T11:58:46.26Z</time></trkpt><trkpt lat="45.0118369" lon="8.0257326"><ele>202.0</ele><time>2026-04-05T11:58:47.26Z</time></trkpt><trkpt lat="45.0120169" lon="8.0257648"><ele>201.66666666666666</ele><time>2026-04-05T11:58:48.259Z</time></trkpt><trkpt lat="45.0121898" lon="8.0257939"><ele>201.33333333333331</ele><time>2026-04-05T11:58:49.26Z</time></trkpt><trkpt lat="45.0123691" lon="8.0258203"><ele>201.0</ele><time>2026-04-05T11:58:50.26Z</time></trkpt><trkpt lat="45.0127253" lon="8.0258802"><ele>201.66666666666669</ele><time>2026-04-05T11:58:52.26Z</time></trkpt><trkpt lat="45.0129104" lon="8.0259151"><ele>202.33333333333334</ele><time>2026-04-05T11:58:53.26Z</time></trkpt><trkpt lat="45.0131005" lon="8.0259526"><ele>203.0</ele><time>2026-04-05T11:58:54.26Z</time></trkpt><trkpt lat="45.0133013" lon="8.0259845"><ele>204.33333333333334</ele><time>2026-04-05T11:58:55.26Z</time></trkpt><trkpt lat="45.0134966" lon="8.0260168"><ele>205.66666666666669</ele><time>2026-04-05T11:58:56.26Z</time></trkpt><trkpt lat="45.0137023" lon="8.0260518"><ele>207.0</ele><time>2026-04-05T11:58:57.26Z</time></trkpt><trkpt lat="45.0139034" lon="8.0260862"><ele>207.0</ele><time>2026-04-05T11:58:58.26Z</time></trkpt><trkpt lat="45.0141052" lon="8.0261192"><ele>207.0</ele><time>2026-04-05T11:58:59.26Z</time></trkpt><trkpt lat="45.014307" lon="8.0261574"><ele>207.0</ele><time>2026-04-05T11:59:00.26Z</time></trkpt><trkpt lat="45.0145126" lon="8.0261941"><ele>206.0</ele><time>2026-04-05T11:59:01.26Z</time></trkpt><trkpt lat="45.0147145" lon="8.0262311"><ele>205.0</ele><time>2026-04-05T11:59:02.26Z</time></trkpt><trkpt lat="45.0149227" lon="8.0262679"><ele>204.0</ele><time>2026-04-05T11:59:03.26Z</time></trkpt><trkpt lat="45.0151325" lon="8.0263031"><ele>204.0</ele><time>2026-04-05T11:59:04.26Z</time></trkpt><trkpt lat="45.0153402" lon="8.0263338"><ele>204.0</ele><time>2026-04-05T11:59:05.26Z</time></trkpt><trkpt lat="45.0155398" lon="8.0263674"><ele>204.0</ele><time>2026-04-05T11:59:06.26Z</time></trkpt><trkpt lat="45.0157428" lon="8.0263959"><ele>203.33333333333331</ele><time>2026-04-05T11:59:07.26Z</time></trkpt><trkpt lat="45.0159431" lon="8.0264313"><ele>202.66666666666666</ele><time>2026-04-05T11:59:08.26Z</time></trkpt><trkpt lat="45.0161422" lon="8.0264639"><ele>202.0</ele><time>2026-04-05T11:59:09.26Z</time></trkpt><trkpt lat="45.0163362" lon="8.0264968"><ele>202.0</ele><time>2026-04-05T11:59:10.26Z</time></trkpt><trkpt lat="45.0165304" lon="8.0265303"><ele>202.0</ele><time>2026-04-05T11:59:11.26Z</time></trkpt><trkpt lat="45.0169159" lon="8.0266017"><ele>201.33333333333331</ele><time>2026-04-05T11:59:13.26Z</time></trkpt><trkpt lat="45.0171062" lon="8.0266423"><ele>200.66666666666669</ele><time>2026-04-05T11:59:14.26Z</time></trkpt><trkpt lat="45.0173024" lon="8.0266837"><ele>200.0</ele><time>2026-04-05T11:59:15.26Z</time></trkpt><trkpt lat="45.0174944" lon="8.0267203"><ele>203.66666666666669</ele><time>2026-04-05T11:59:16.26Z</time></trkpt><trkpt lat="45.0176766" lon="8.0267483"><ele>207.33333333333331</ele><time>2026-04-05T11:59:17.26Z</time></trkpt><trkpt lat="45.0178569" lon="8.0267837"><ele>211.0</ele><time>2026-04-05T11:59:18.26Z</time></trkpt><trkpt lat="45.0180371" lon="8.0268165"><ele>211.0</ele><time>2026-04-05T11:59:19.26Z</time></trkpt><trkpt lat="45.0182249" lon="8.0268459"><ele>211.0</ele><time>2026-04-05T11:59:20.26Z</time></trkpt><trkpt lat="45.0184147" lon="8.0268752"><ele>211.0</ele><time>2026-04-05T11:59:21.26Z</time></trkpt><trkpt lat="45.0186045" lon="8.0269054"><ele>210.66666666666666</ele><time>2026-04-05T11:59:22.26Z</time></trkpt><trkpt lat="45.0187946" lon="8.0269383"><ele>210.33333333333331</ele><time>2026-04-05T11:59:23.26Z</time></trkpt><trkpt lat="45.0189877" lon="8.0269718"><ele>210.0</ele><time>2026-04-05T11:59:24.26Z</time></trkpt><trkpt lat="45.0191842" lon="8.0270098"><ele>210.0</ele><time>2026-04-05T11:59:25.26Z</time></trkpt><trkpt lat="45.0193828" lon="8.0270459"><ele>210.0</ele><time>2026-04-05T11:59:26.26Z</time></trkpt><trkpt lat="45.0195845" lon="8.0270871"><ele>210.0</ele><time>2026-04-05T11:59:27.26Z</time></trkpt><trkpt lat="45.0197867" lon="8.0271244"><ele>209.0</ele><time>2026-04-05T11:59:28.26Z</time></trkpt><trkpt lat="45.0199933" lon="8.0271549"><ele>208.0</ele><time>2026-04-05T11:59:29.26Z</time></trkpt><trkpt lat="45.0201977" lon="8.0271889"><ele>207.0</ele><time>2026-04-05T11:59:30.26Z</time></trkpt><trkpt lat="45.0204016" lon="8.0272169"><ele>207.0</ele><time>2026-04-05T11:59:31.26Z</time></trkpt><trkpt lat="45.0206113" lon="8.027247"><ele>207.0</ele><time>2026-04-05T11:59:32.26Z</time></trkpt><trkpt lat="45.0210155" lon="8.0273146"><ele>206.33333333333331</ele><time>2026-04-05T11:59:34.259Z</time></trkpt><trkpt lat="45.0212182" lon="8.0273545"><ele>205.66666666666666</ele><time>2026-04-05T11:59:35.26Z</time></trkpt><trkpt lat="45.0214266" lon="8.0273956"><ele>205.0</ele><time>2026-04-05T11:59:36.26Z</time></trkpt><trkpt lat="45.0216365" lon="8.0274327"><ele>207.33333333333331</ele><time>2026-04-05T11:59:37.26Z</time></trkpt><trkpt lat="45.0218384" lon="8.0274783"><ele>209.66666666666669</ele><time>2026-04-05T11:59:38.26Z</time></trkpt><trkpt lat="45.0220442" lon="8.0275245"><ele>212.0</ele><time>2026-04-05T11:59:39.26Z</time></trkpt><trkpt lat="45.0222524" lon="8.0275717"><ele>212.0</ele><time>2026-04-05T11:59:40.26Z</time></trkpt><trkpt lat="45.0224659" lon="8.0276233"><ele>212.0</ele><time>2026-04-05T11:59:41.26Z</time></trkpt><trkpt lat="45.0226758" lon="8.0276772"><ele>212.0</ele><time>2026-04-05T11:59:42.26Z</time></trkpt><trkpt lat="45.0228831" lon="8.0277342"><ele>212.0</ele><time>2026-04-05T11:59:43.26Z</time></trkpt><trkpt lat="45.0230851" lon="8.0277957"><ele>212.0</ele><time>2026-04-05T11:59:44.26Z</time></trkpt><trkpt lat="45.0232777" lon="8.0278545"><ele>212.0</ele><time>2026-04-05T11:59:45.26Z</time></trkpt><trkpt lat="45.0234573" lon="8.0279096"><ele>210.75</ele><time>2026-04-05T11:59:46.26Z</time></trkpt><trkpt lat="45.0236237" lon="8.0279605"><ele>209.5</ele><time>2026-04-05T11:59:47.26Z</time></trkpt><trkpt lat="45.0237761" lon="8.028006"><ele>208.25</ele><time>2026-04-05T11:59:48.26Z</time></trkpt><trkpt lat="45.023894" lon="8.0280467"><ele>207.0</ele><time>2026-04-05T11:59:49.26Z</time></trkpt><trkpt lat="45.0239965" lon="8.0280751"><ele>207.0</ele><time>2026-04-05T11:59:50.259Z</time></trkpt><trkpt lat="45.0240897" lon="8.0281035"><ele>207.0</ele><time>2026-04-05T11:59:51.26Z</time></trkpt><trkpt lat="45.0241657" lon="8.0281309"><ele>207.0</ele><time>2026-04-05T11:59:52.26Z</time></trkpt><trkpt lat="45.0242304" lon="8.0281488"><ele>207.0</ele><time>2026-04-05T11:59:53.26Z</time></trkpt><trkpt lat="45.0243661" lon="8.0281931"><ele>207.0</ele><time>2026-04-05T12:00:13.26Z</time></trkpt><trkpt lat="45.0244296" lon="8.0282107"><ele>207.0</ele><time>2026-04-05T12:00:14.26Z</time></trkpt><trkpt lat="45.0246254" lon="8.0282797"><ele>207.25</ele><time>2026-04-05T12:00:16.26Z</time></trkpt><trkpt lat="45.0247619" lon="8.0283243"><ele>207.5</ele><time>2026-04-05T12:00:17.26Z</time></trkpt><trkpt lat="45.0249028" lon="8.0283678"><ele>207.75</ele><time>2026-04-05T12:00:18.26Z</time></trkpt><trkpt lat="45.0250381" lon="8.0284111"><ele>208.0</ele><time>2026-04-05T12:00:19.26Z</time></trkpt><trkpt lat="45.0251802" lon="8.0284555"><ele>208.0</ele><time>2026-04-05T12:00:20.26Z</time></trkpt><trkpt lat="45.0253372" lon="8.0285026"><ele>208.0</ele><time>2026-04-05T12:00:21.26Z</time></trkpt><trkpt lat="45.0255118" lon="8.0285515"><ele>208.0</ele><time>2026-04-05T12:00:22.26Z</time></trkpt><trkpt lat="45.0256956" lon="8.028605"><ele>208.66666666666666</ele><time>2026-04-05T12:00:23.26Z</time></trkpt><trkpt lat="45.0258723" lon="8.0286593"><ele>209.33333333333331</ele><time>2026-04-05T12:00:24.26Z</time></trkpt><trkpt lat="45.0260352" lon="8.028715"><ele>210.0</ele><time>2026-04-05T12:00:25.26Z</time></trkpt><trkpt lat="45.0261837" lon="8.0287648"><ele>210.0</ele><time>2026-04-05T12:00:26.26Z</time></trkpt><trkpt lat="45.0263197" lon="8.0288073"><ele>210.0</ele><time>2026-04-05T12:00:27.259Z</time></trkpt><trkpt lat="45.0264515" lon="8.0288509"><ele>210.0</ele><time>2026-04-05T12:00:28.26Z</time></trkpt><trkpt lat="45.0265804" lon="8.028875"><ele>210.0</ele><time>2026-04-05T12:00:29.26Z</time></trkpt><trkpt lat="45.0267068" lon="8.0288677"><ele>209.75</ele><time>2026-04-05T12:00:30.26Z</time></trkpt><trkpt lat="45.0268311" lon="8.0288159"><ele>209.5</ele><time>2026-04-05T12:00:31.259Z</time></trkpt><trkpt lat="45.0269483" lon="8.0287087"><ele>209.25</ele><time>2026-04-05T12:00:32.26Z</time></trkpt><trkpt lat="45.0270651" lon="8.0285632"><ele>209.0</ele><time>2026-04-05T12:00:33.26Z</time></trkpt><trkpt lat="45.0272042" lon="8.0284168"><ele>210.0</ele><time>2026-04-05T12:00:34.26Z</time></trkpt><trkpt lat="45.027364" lon="8.0282903"><ele>211.0</ele><time>2026-04-05T12:00:35.26Z</time></trkpt><trkpt lat="45.0277224" lon="8.0280871"><ele>209.66666666666666</ele><time>2026-04-05T12:00:37.26Z</time></trkpt><trkpt lat="45.0279115" lon="8.0279907"><ele>208.33333333333331</ele><time>2026-04-05T12:00:38.26Z</time></trkpt><trkpt lat="45.0281081" lon="8.0278965"><ele>207.0</ele><time>2026-04-05T12:00:39.26Z</time></trkpt><trkpt lat="45.028309" lon="8.0277976"><ele>208.0</ele><time>2026-04-05T12:00:40.26Z</time></trkpt><trkpt lat="45.0285181" lon="8.0277008"><ele>209.0</ele><time>2026-04-05T12:00:41.26Z</time></trkpt><trkpt lat="45.0287278" lon="8.027595"><ele>210.0</ele><time>2026-04-05T12:00:42.26Z</time></trkpt><trkpt lat="45.0289398" lon="8.0274872"><ele>211.5</ele><time>2026-04-05T12:00:43.26Z</time></trkpt><trkpt lat="45.0291512" lon="8.027376"><ele>213.0</ele><time>2026-04-05T12:00:44.26Z</time></trkpt><trkpt lat="45.029363" lon="8.0272718"><ele>213.0</ele><time>2026-04-05T12:00:45.26Z</time></trkpt><trkpt lat="45.0295704" lon="8.0271753"><ele>213.0</ele><time>2026-04-05T12:00:46.26Z</time></trkpt><trkpt lat="45.0297729" lon="8.0270749"><ele>213.0</ele><time>2026-04-05T12:00:47.26Z</time></trkpt><trkpt lat="45.0299706" lon="8.0269836"><ele>212.33333333333331</ele><time>2026-04-05T12:00:48.26Z</time></trkpt><trkpt lat="45.0301619" lon="8.0268957"><ele>211.66666666666666</ele><time>2026-04-05T12:00:49.26Z</time></trkpt><trkpt lat="45.0303532" lon="8.0268092"><ele>211.0</ele><time>2026-04-05T12:00:50.26Z</time></trkpt><trkpt lat="45.0305505" lon="8.0267378"><ele>211.0</ele><time>2026-04-05T12:00:51.26Z</time></trkpt><trkpt lat="45.0307526" lon="8.0266944"><ele>211.0</ele><time>2026-04-05T12:00:52.26Z</time></trkpt><trkpt lat="45.0309452" lon="8.0266927"><ele>211.0</ele><time>2026-04-05T12:00:53.26Z</time></trkpt><trkpt lat="45.0311474" lon="8.0267211"><ele>212.0</ele><time>2026-04-05T12:00:54.26Z</time></trkpt><trkpt lat="45.0313561" lon="8.0267811"><ele>213.0</ele><time>2026-04-05T12:00:55.259Z</time></trkpt><trkpt lat="45.031567" lon="8.026853"><ele>214.0</ele><time>2026-04-05T12:00:56.259Z</time></trkpt><trkpt lat="45.0319996" lon="8.0270177"><ele>215.5</ele><time>2026-04-05T12:00:58.259Z</time></trkpt><trkpt lat="45.0322224" lon="8.0270961"><ele>217.0</ele><time>2026-04-05T12:00:59.259Z</time></trkpt><trkpt lat="45.0324435" lon="8.0271796"><ele>220.5</ele><time>2026-04-05T12:01:00.259Z</time></trkpt><trkpt lat="45.0326699" lon="8.027259"><ele>224.0</ele><time>2026-04-05T12:01:01.259Z</time></trkpt><trkpt lat="45.0328998" lon="8.0273374"><ele>224.0</ele><time>2026-04-05T12:01:02.259Z</time></trkpt><trkpt lat="45.0331346" lon="8.0274004"><ele>224.0</ele><time>2026-04-05T12:01:03.259Z</time></trkpt><trkpt lat="45.0333718" lon="8.0274429"><ele>223.5</ele><time>2026-04-05T12:01:04.259Z</time></trkpt><trkpt lat="45.033616" lon="8.0274708"><ele>223.0</ele><time>2026-04-05T12:01:05.258Z</time></trkpt><trkpt lat="45.0338643" lon="8.0274911"><ele>217.5</ele><time>2026-04-05T12:01:06.259Z</time></trkpt><trkpt lat="45.034111" lon="8.0275105"><ele>212.0</ele><time>2026-04-05T12:01:07.259Z</time></trkpt><trkpt lat="45.0343563" lon="8.0275348"><ele>212.0</ele><time>2026-04-05T12:01:08.259Z</time></trkpt><trkpt lat="45.0345924" lon="8.0275593"><ele>212.0</ele><time>2026-04-05T12:01:09.259Z</time></trkpt><trkpt lat="45.0348231" lon="8.0276026"><ele>210.5</ele><time>2026-04-05T12:01:10.259Z</time></trkpt><trkpt lat="45.0350469" lon="8.0276737"><ele>209.0</ele><time>2026-04-05T12:01:11.259Z</time></trkpt><trkpt lat="45.0352692" lon="8.0277813"><ele>209.0</ele><time>2026-04-05T12:01:12.259Z</time></trkpt><trkpt lat="45.0354909" lon="8.0279032"><ele>209.0</ele><time>2026-04-05T12:01:13.259Z</time></trkpt><trkpt lat="45.035703" lon="8.028029"><ele>210.0</ele><time>2026-04-05T12:01:14.259Z</time></trkpt><trkpt lat="45.0359099" lon="8.0281533"><ele>211.0</ele><time>2026-04-05T12:01:15.259Z</time></trkpt><trkpt lat="45.0361062" lon="8.0282697"><ele>212.0</ele><time>2026-04-05T12:01:16.259Z</time></trkpt><trkpt lat="45.0362992" lon="8.0283782"><ele>213.5</ele><time>2026-04-05T12:01:17.259Z</time></trkpt><trkpt lat="45.0366692" lon="8.0285888"><ele>215.0</ele><time>2026-04-05T12:01:19.259Z</time></trkpt><trkpt lat="45.0368505" lon="8.0286912"><ele>215.0</ele><time>2026-04-05T12:01:20.259Z</time></trkpt><trkpt lat="45.0370422" lon="8.028792"><ele>215.0</ele><time>2026-04-05T12:01:21.259Z</time></trkpt><trkpt lat="45.0372365" lon="8.0288855"><ele>215.0</ele><time>2026-04-05T12:01:22.259Z</time></trkpt><trkpt lat="45.0374232" lon="8.0289827"><ele>215.33333333333334</ele><time>2026-04-05T12:01:23.259Z</time></trkpt><trkpt lat="45.0376074" lon="8.0290796"><ele>215.66666666666669</ele><time>2026-04-05T12:01:24.259Z</time></trkpt><trkpt lat="45.0377787" lon="8.0291698"><ele>216.0</ele><time>2026-04-05T12:01:25.259Z</time></trkpt><trkpt lat="45.0379386" lon="8.0292555"><ele>216.0</ele><time>2026-04-05T12:01:26.259Z</time></trkpt><trkpt lat="45.0380874" lon="8.0293441"><ele>216.0</ele><time>2026-04-05T12:01:27.259Z</time></trkpt><trkpt lat="45.038235" lon="8.0294424"><ele>216.0</ele><time>2026-04-05T12:01:28.259Z</time></trkpt><trkpt lat="45.0383737" lon="8.0295463"><ele>215.5</ele><time>2026-04-05T12:01:29.259Z</time></trkpt><trkpt lat="45.0384947" lon="8.0296691"><ele>215.0</ele><time>2026-04-05T12:01:30.259Z</time></trkpt><trkpt lat="45.0386012" lon="8.0298111"><ele>214.5</ele><time>2026-04-05T12:01:31.259Z</time></trkpt><trkpt lat="45.0386983" lon="8.0299571"><ele>214.0</ele><time>2026-04-05T12:01:32.259Z</time></trkpt><trkpt lat="45.0387919" lon="8.0301121"><ele>214.0</ele><time>2026-04-05T12:01:33.259Z</time></trkpt><trkpt lat="45.0388855" lon="8.0302714"><ele>214.0</ele><time>2026-04-05T12:01:34.259Z</time></trkpt><trkpt lat="45.0389863" lon="8.0304259"><ele>214.0</ele><time>2026-04-05T12:01:35.259Z</time></trkpt><trkpt lat="45.0390969" lon="8.0305944"><ele>214.0</ele><time>2026-04-05T12:01:36.259Z</time></trkpt><trkpt lat="45.039216" lon="8.0307843"><ele>214.0</ele><time>2026-04-05T12:01:37.259Z</time></trkpt><trkpt lat="45.0393375" lon="8.0309876"><ele>214.0</ele><time>2026-04-05T12:01:38.259Z</time></trkpt><trkpt lat="45.0395968" lon="8.0314245"><ele>214.33333333333331</ele><time>2026-04-05T12:01:40.259Z</time></trkpt><trkpt lat="45.0397312" lon="8.0316502"><ele>214.66666666666669</ele><time>2026-04-05T12:01:41.259Z</time></trkpt><trkpt lat="45.0398641" lon="8.0318791"><ele>215.0</ele><time>2026-04-05T12:01:42.259Z</time></trkpt><trkpt lat="45.0399914" lon="8.0321106"><ele>216.33333333333334</ele><time>2026-04-05T12:01:43.259Z</time></trkpt><trkpt lat="45.0401179" lon="8.0323458"><ele>217.66666666666669</ele><time>2026-04-05T12:01:44.259Z</time></trkpt><trkpt lat="45.0402454" lon="8.032579"><ele>219.0</ele><time>2026-04-05T12:01:45.259Z</time></trkpt><trkpt lat="45.0403726" lon="8.0328203"><ele>219.0</ele><time>2026-04-05T12:01:46.259Z</time></trkpt><trkpt lat="45.0404996" lon="8.0330577"><ele>219.0</ele><time>2026-04-05T12:01:47.259Z</time></trkpt><trkpt lat="45.0406239" lon="8.0333004"><ele>219.0</ele><time>2026-04-05T12:01:48.259Z</time></trkpt><trkpt lat="45.0407522" lon="8.0335322"><ele>220.0</ele><time>2026-04-05T12:01:49.259Z</time></trkpt><trkpt lat="45.0408815" lon="8.0337527"><ele>221.0</ele><time>2026-04-05T12:01:50.259Z</time></trkpt><trkpt lat="45.041003" lon="8.0339646"><ele>222.0</ele><time>2026-04-05T12:01:51.259Z</time></trkpt><trkpt lat="45.0411156" lon="8.0341623"><ele>219.33333333333331</ele><time>2026-04-05T12:01:52.259Z</time></trkpt><trkpt lat="45.0412203" lon="8.0343411"><ele>216.66666666666666</ele><time>2026-04-05T12:01:53.259Z</time></trkpt><trkpt lat="45.0413027" lon="8.0345266"><ele>214.0</ele><time>2026-04-05T12:01:54.259Z</time></trkpt><trkpt lat="45.0413518" lon="8.0347377"><ele>214.0</ele><time>2026-04-05T12:01:55.259Z</time></trkpt><trkpt lat="45.0413769" lon="8.0349585"><ele>214.0</ele><time>2026-04-05T12:01:56.259Z</time></trkpt><trkpt lat="45.0413718" lon="8.0351926"><ele>214.0</ele><time>2026-04-05T12:01:57.259Z</time></trkpt><trkpt lat="45.0413347" lon="8.0354427"><ele>214.0</ele><time>2026-04-05T12:01:58.259Z</time></trkpt><trkpt lat="45.0412812" lon="8.0356886"><ele>214.0</ele><time>2026-04-05T12:01:59.259Z</time></trkpt><trkpt lat="45.0412052" lon="8.036172"><ele>214.25</ele><time>2026-04-05T12:02:01.259Z</time></trkpt><trkpt lat="45.0412077" lon="8.036391"><ele>214.5</ele><time>2026-04-05T12:02:02.259Z</time></trkpt><trkpt lat="45.0412345" lon="8.0365931"><ele>214.75</ele><time>2026-04-05T12:02:03.259Z</time></trkpt><trkpt lat="45.0412826" lon="8.0367789"><ele>215.0</ele><time>2026-04-05T12:02:04.259Z</time></trkpt><trkpt lat="45.0413404" lon="8.0369452"><ele>215.0</ele><time>2026-04-05T12:02:05.259Z</time></trkpt><trkpt lat="45.0413933" lon="8.037087"><ele>215.0</ele><time>2026-04-05T12:02:06.259Z</time></trkpt><trkpt lat="45.0414381" lon="8.0372014"><ele>215.0</ele><time>2026-04-05T12:02:07.259Z</time></trkpt><trkpt lat="45.0414748" lon="8.0372912"><ele>215.0</ele><time>2026-04-05T12:02:08.259Z</time></trkpt><trkpt lat="45.0415271" lon="8.037411"><ele>215.0</ele><time>2026-04-05T12:02:10.259Z</time></trkpt><trkpt lat="45.0415982" lon="8.0374387"><ele>215.0</ele><time>2026-04-05T12:02:13.259Z</time></trkpt><trkpt lat="45.0415252" lon="8.0373441"><ele>215.0</ele><time>2026-04-05T12:29:08.253Z</time></trkpt><trkpt lat="45.0414282" lon="8.0371745"><ele>215.0</ele><time>2026-04-05T12:29:10.253Z</time></trkpt><trkpt lat="45.0413861" lon="8.0370701"><ele>215.0</ele><time>2026-04-05T12:29:11.253Z</time></trkpt><trkpt lat="45.0413521" lon="8.0369707"><ele>215.0</ele><time>2026-04-05T12:29:12.253Z</time></trkpt><trkpt lat="45.0413217" lon="8.0368761"><ele>215.00000000000003</ele><time>2026-04-05T12:29:13.253Z</time></trkpt><trkpt lat="45.0412959" lon="8.036794"><ele>215.0</ele><time>2026-04-05T12:29:14.253Z</time></trkpt><trkpt lat="45.0412579" lon="8.03666"><ele>215.0</ele><time>2026-04-05T12:29:16.253Z</time></trkpt><trkpt lat="45.0411833" lon="8.0365791"><ele>215.0</ele><time>2026-04-05T12:29:18.253Z</time></trkpt><trkpt lat="45.0411154" lon="8.0365729"><ele>215.00000000000003</ele><time>2026-04-05T12:29:19.253Z</time></trkpt><trkpt lat="45.0410332" lon="8.0365717"><ele>215.0</ele><time>2026-04-05T12:29:20.253Z</time></trkpt><trkpt lat="45.0409374" lon="8.0365597"><ele>215.0</ele><time>2026-04-05T12:29:21.253Z</time></trkpt><trkpt lat="45.0408222" lon="8.0365389"><ele>215.0</ele><time>2026-04-05T12:29:22.253Z</time></trkpt><trkpt lat="45.0407012" lon="8.0365072"><ele>215.0</ele><time>2026-04-05T12:29:23.253Z</time></trkpt><trkpt lat="45.0405731" lon="8.0364702"><ele>215.0</ele><time>2026-04-05T12:29:24.253Z</time></trkpt><trkpt lat="45.0404383" lon="8.0364331"><ele>215.4</ele><time>2026-04-05T12:29:25.253Z</time></trkpt><trkpt lat="45.0403125" lon="8.03639"><ele>215.8</ele><time>2026-04-05T12:29:26.253Z</time></trkpt><trkpt lat="45.0402032" lon="8.0363474"><ele>216.2</ele><time>2026-04-05T12:29:27.253Z</time></trkpt><trkpt lat="45.0401022" lon="8.0363156"><ele>216.6</ele><time>2026-04-05T12:29:28.253Z</time></trkpt><trkpt lat="45.0400019" lon="8.0362828"><ele>217.0</ele><time>2026-04-05T12:29:29.253Z</time></trkpt><trkpt lat="45.0397895" lon="8.0362146"><ele>217.75</ele><time>2026-04-05T12:29:31.253Z</time></trkpt><trkpt lat="45.0396841" lon="8.0362019"><ele>218.5</ele><time>2026-04-05T12:29:32.253Z</time></trkpt><trkpt lat="45.0395658" lon="8.0362201"><ele>219.25</ele><time>2026-04-05T12:29:33.253Z</time></trkpt><trkpt lat="45.039436" lon="8.0362606"><ele>220.0</ele><time>2026-04-05T12:29:34.253Z</time></trkpt><trkpt lat="45.0393077" lon="8.0363089"><ele>220.0</ele><time>2026-04-05T12:29:35.253Z</time></trkpt><trkpt lat="45.0391864" lon="8.0363517"><ele>220.0</ele><time>2026-04-05T12:29:36.253Z</time></trkpt><trkpt lat="45.0390672" lon="8.0364053"><ele>220.0</ele><time>2026-04-05T12:29:37.253Z</time></trkpt><trkpt lat="45.0389492" lon="8.0364465"><ele>220.0</ele><time>2026-04-05T12:29:38.253Z</time></trkpt><trkpt lat="45.03884" lon="8.0364889"><ele>219.8</ele><time>2026-04-05T12:29:39.253Z</time></trkpt><trkpt lat="45.038736" lon="8.0365227"><ele>219.6</ele><time>2026-04-05T12:29:40.253Z</time></trkpt><trkpt lat="45.0386339" lon="8.0365578"><ele>219.39999999999998</ele><time>2026-04-05T12:29:41.253Z</time></trkpt><trkpt lat="45.0385381" lon="8.0365737"><ele>219.2</ele><time>2026-04-05T12:29:42.253Z</time></trkpt><trkpt lat="45.0384536" lon="8.0365619"><ele>219.0</ele><time>2026-04-05T12:29:43.253Z</time></trkpt><trkpt lat="45.0383612" lon="8.0365349"><ele>219.6</ele><time>2026-04-05T12:29:44.253Z</time></trkpt><trkpt lat="45.0382708" lon="8.0364998"><ele>220.2</ele><time>2026-04-05T12:29:45.253Z</time></trkpt><trkpt lat="45.0381714" lon="8.0364665"><ele>220.79999999999998</ele><time>2026-04-05T12:29:46.253Z</time></trkpt><trkpt lat="45.0380668" lon="8.036422"><ele>221.39999999999998</ele><time>2026-04-05T12:29:47.253Z</time></trkpt><trkpt lat="45.0379619" lon="8.0363713"><ele>222.0</ele><time>2026-04-05T12:29:48.253Z</time></trkpt><trkpt lat="45.0378503" lon="8.0363209"><ele>222.0</ele><time>2026-04-05T12:29:49.253Z</time></trkpt><trkpt lat="45.0377411" lon="8.0362663"><ele>222.0</ele><time>2026-04-05T12:29:50.253Z</time></trkpt><trkpt lat="45.0375215" lon="8.0361496"><ele>222.0</ele><time>2026-04-05T12:29:52.253Z</time></trkpt><trkpt lat="45.0374174" lon="8.0361001"><ele>224.0</ele><time>2026-04-05T12:29:53.253Z</time></trkpt><trkpt lat="45.0373295" lon="8.0360464"><ele>226.0</ele><time>2026-04-05T12:29:54.253Z</time></trkpt><trkpt lat="45.0372398" lon="8.0359968"><ele>228.0</ele><time>2026-04-05T12:29:55.253Z</time></trkpt><trkpt lat="45.0371496" lon="8.0359595"><ele>230.0</ele><time>2026-04-05T12:29:56.253Z</time></trkpt><trkpt lat="45.0370653" lon="8.0359244"><ele>232.0</ele><time>2026-04-05T12:29:57.253Z</time></trkpt><trkpt lat="45.0369834" lon="8.0358805"><ele>232.0</ele><time>2026-04-05T12:29:58.253Z</time></trkpt><trkpt lat="45.0369007" lon="8.0358256"><ele>232.0</ele><time>2026-04-05T12:29:59.252Z</time></trkpt><trkpt lat="45.0368199" lon="8.0357605"><ele>232.0</ele><time>2026-04-05T12:30:00.253Z</time></trkpt><trkpt lat="45.0367385" lon="8.0356803"><ele>232.0</ele><time>2026-04-05T12:30:01.253Z</time></trkpt><trkpt lat="45.0366557" lon="8.0355977"><ele>232.0</ele><time>2026-04-05T12:30:02.253Z</time></trkpt><trkpt lat="45.0365827" lon="8.0355226"><ele>231.8</ele><time>2026-04-05T12:30:03.253Z</time></trkpt><trkpt lat="45.0365167" lon="8.035455"><ele>231.6</ele><time>2026-04-05T12:30:04.253Z</time></trkpt><trkpt lat="45.0364478" lon="8.0353795"><ele>231.40000000000003</ele><time>2026-04-05T12:30:05.253Z</time></trkpt><trkpt lat="45.0363803" lon="8.0352962"><ele>231.20000000000002</ele><time>2026-04-05T12:30:06.253Z</time></trkpt><trkpt lat="45.0363072" lon="8.0352007"><ele>231.0</ele><time>2026-04-05T12:30:07.253Z</time></trkpt><trkpt lat="45.0362286" lon="8.0351075"><ele>231.0</ele><time>2026-04-05T12:30:08.253Z</time></trkpt><trkpt lat="45.0361548" lon="8.0350107"><ele>231.00000000000003</ele><time>2026-04-05T12:30:09.253Z</time></trkpt><trkpt lat="45.0360776" lon="8.0349338"><ele>231.00000000000003</ele><time>2026-04-05T12:30:10.253Z</time></trkpt><trkpt lat="45.0359981" lon="8.0348732"><ele>231.0</ele><time>2026-04-05T12:30:11.253Z</time></trkpt><trkpt lat="45.0358366" lon="8.0348349"><ele>231.0</ele><time>2026-04-05T12:30:13.253Z</time></trkpt><trkpt lat="45.0357624" lon="8.0348619"><ele>230.5</ele><time>2026-04-05T12:30:14.253Z</time></trkpt><trkpt lat="45.0356981" lon="8.0349118"><ele>230.0</ele><time>2026-04-05T12:30:15.253Z</time></trkpt><trkpt lat="45.0356273" lon="8.0349487"><ele>229.5</ele><time>2026-04-05T12:30:16.253Z</time></trkpt><trkpt lat="45.0355511" lon="8.0349957"><ele>229.0</ele><time>2026-04-05T12:30:17.253Z</time></trkpt><trkpt lat="45.0354864" lon="8.0350556"><ele>228.5</ele><time>2026-04-05T12:30:18.253Z</time></trkpt><trkpt lat="45.0354251" lon="8.0351225"><ele>228.0</ele><time>2026-04-05T12:30:19.253Z</time></trkpt><trkpt lat="45.0353644" lon="8.0351938"><ele>228.0</ele><time>2026-04-05T12:30:20.253Z</time></trkpt><trkpt lat="45.0353061" lon="8.0352812"><ele>228.0</ele><time>2026-04-05T12:30:21.253Z</time></trkpt><trkpt lat="45.0352507" lon="8.0353689"><ele>228.0</ele><time>2026-04-05T12:30:22.253Z</time></trkpt><trkpt lat="45.0351974" lon="8.0354465"><ele>228.0</ele><time>2026-04-05T12:30:23.253Z</time></trkpt><trkpt lat="45.0351475" lon="8.0355299"><ele>228.0</ele><time>2026-04-05T12:30:24.253Z</time></trkpt><trkpt lat="45.0351159" lon="8.0356134"><ele>228.0</ele><time>2026-04-05T12:30:25.253Z</time></trkpt><trkpt lat="45.035071" lon="8.0356916"><ele>228.0</ele><time>2026-04-05T12:30:26.253Z</time></trkpt><trkpt lat="45.0350121" lon="8.0357531"><ele>227.99999999999997</ele><time>2026-04-05T12:30:27.253Z</time></trkpt><trkpt lat="45.0349493" lon="8.0357907"><ele>228.0</ele><time>2026-04-05T12:30:28.253Z</time></trkpt><trkpt lat="45.0348793" lon="8.0358152"><ele>228.0</ele><time>2026-04-05T12:30:29.253Z</time></trkpt><trkpt lat="45.0348122" lon="8.0358265"><ele>227.99999999999997</ele><time>2026-04-05T12:30:30.253Z</time></trkpt><trkpt lat="45.0347462" lon="8.0358194"><ele>228.0</ele><time>2026-04-05T12:30:31.253Z</time></trkpt><trkpt lat="45.0346843" lon="8.0357897"><ele>228.0</ele><time>2026-04-05T12:30:32.253Z</time></trkpt><trkpt lat="45.0345687" lon="8.035651"><ele>228.75</ele><time>2026-04-05T12:30:34.253Z</time></trkpt><trkpt lat="45.034504" lon="8.0355511"><ele>229.5</ele><time>2026-04-05T12:30:35.253Z</time></trkpt><trkpt lat="45.0344256" lon="8.0354226"><ele>230.25</ele><time>2026-04-05T12:30:36.253Z</time></trkpt><trkpt lat="45.0343408" lon="8.0352873"><ele>231.0</ele><time>2026-04-05T12:30:37.253Z</time></trkpt><trkpt lat="45.0342599" lon="8.0351789"><ele>231.0</ele><time>2026-04-05T12:30:38.253Z</time></trkpt><trkpt lat="45.0341765" lon="8.0350821"><ele>231.00000000000003</ele><time>2026-04-05T12:30:39.253Z</time></trkpt><trkpt lat="45.034094" lon="8.034997"><ele>231.00000000000003</ele><time>2026-04-05T12:30:40.253Z</time></trkpt><trkpt lat="45.0340078" lon="8.0349313"><ele>231.0</ele><time>2026-04-05T12:30:41.253Z</time></trkpt><trkpt lat="45.033917" lon="8.0348685"><ele>231.0</ele><time>2026-04-05T12:30:42.252Z</time></trkpt><trkpt lat="45.0338313" lon="8.0348159"><ele>228.60000000000002</ele><time>2026-04-05T12:30:43.252Z</time></trkpt><trkpt lat="45.0337369" lon="8.034762"><ele>226.20000000000002</ele><time>2026-04-05T12:30:44.252Z</time></trkpt><trkpt lat="45.0336462" lon="8.0347151"><ele>223.79999999999998</ele><time>2026-04-05T12:30:45.252Z</time></trkpt><trkpt lat="45.0335535" lon="8.0346673"><ele>221.39999999999998</ele><time>2026-04-05T12:30:46.252Z</time></trkpt><trkpt lat="45.0334657" lon="8.0345962"><ele>219.0</ele><time>2026-04-05T12:30:47.252Z</time></trkpt><trkpt lat="45.0333744" lon="8.0344991"><ele>219.75</ele><time>2026-04-05T12:30:48.252Z</time></trkpt><trkpt lat="45.0332777" lon="8.0343736"><ele>220.5</ele><time>2026-04-05T12:30:49.252Z</time></trkpt><trkpt lat="45.0331735" lon="8.0342328"><ele>221.25</ele><time>2026-04-05T12:30:50.252Z</time></trkpt><trkpt lat="45.0330694" lon="8.0341055"><ele>222.0</ele><time>2026-04-05T12:30:51.252Z</time></trkpt><trkpt lat="45.0329738" lon="8.0339792"><ele>222.0</ele><time>2026-04-05T12:30:52.252Z</time></trkpt><trkpt lat="45.0328752" lon="8.0338617"><ele>222.0</ele><time>2026-04-05T12:30:53.252Z</time></trkpt><trkpt lat="45.0326921" lon="8.0336351"><ele>222.0</ele><time>2026-04-05T12:30:55.252Z</time></trkpt><trkpt lat="45.0326092" lon="8.0335228"><ele>222.0</ele><time>2026-04-05T12:30:56.252Z</time></trkpt><trkpt lat="45.0325331" lon="8.0334015"><ele>222.0</ele><time>2026-04-05T12:30:57.252Z</time></trkpt><trkpt lat="45.032461" lon="8.0332731"><ele>222.0</ele><time>2026-04-05T12:30:58.252Z</time></trkpt><trkpt lat="45.0323898" lon="8.0331438"><ele>222.0</ele><time>2026-04-05T12:30:59.252Z</time></trkpt><trkpt lat="45.0323182" lon="8.0330214"><ele>222.8</ele><time>2026-04-05T12:31:00.252Z</time></trkpt><trkpt lat="45.0322459" lon="8.0329092"><ele>223.6</ele><time>2026-04-05T12:31:01.252Z</time></trkpt><trkpt lat="45.0321677" lon="8.0328121"><ele>224.40000000000003</ele><time>2026-04-05T12:31:02.252Z</time></trkpt><trkpt lat="45.0320908" lon="8.0327156"><ele>225.20000000000002</ele><time>2026-04-05T12:31:03.252Z</time></trkpt><trkpt lat="45.0320209" lon="8.0326162"><ele>226.0</ele><time>2026-04-05T12:31:04.252Z</time></trkpt><trkpt lat="45.0319536" lon="8.0325272"><ele>225.60000000000002</ele><time>2026-04-05T12:31:05.252Z</time></trkpt><trkpt lat="45.0318837" lon="8.0324462"><ele>225.20000000000002</ele><time>2026-04-05T12:31:06.252Z</time></trkpt><trkpt lat="45.031803" lon="8.0323666"><ele>224.79999999999998</ele><time>2026-04-05T12:31:07.252Z</time></trkpt><trkpt lat="45.0317093" lon="8.0322779"><ele>224.39999999999998</ele><time>2026-04-05T12:31:08.252Z</time></trkpt><trkpt lat="45.0316083" lon="8.032181"><ele>224.0</ele><time>2026-04-05T12:31:09.252Z</time></trkpt><trkpt lat="45.0315095" lon="8.0320827"><ele>224.0</ele><time>2026-04-05T12:31:10.252Z</time></trkpt><trkpt lat="45.0314158" lon="8.0319861"><ele>223.99999999999997</ele><time>2026-04-05T12:31:11.252Z</time></trkpt><trkpt lat="45.0313305" lon="8.0318964"><ele>223.99999999999997</ele><time>2026-04-05T12:31:12.252Z</time></trkpt><trkpt lat="45.0312528" lon="8.0318129"><ele>224.0</ele><time>2026-04-05T12:31:13.252Z</time></trkpt><trkpt lat="45.0311777" lon="8.0317564"><ele>224.0</ele><time>2026-04-05T12:31:14.252Z</time></trkpt><trkpt lat="45.0310257" lon="8.0316637"><ele>223.6</ele><time>2026-04-05T12:31:16.252Z</time></trkpt><trkpt lat="45.0309392" lon="8.031637"><ele>223.2</ele><time>2026-04-05T12:31:17.252Z</time></trkpt><trkpt lat="45.0308482" lon="8.0316228"><ele>222.79999999999998</ele><time>2026-04-05T12:31:18.252Z</time></trkpt><trkpt lat="45.0307519" lon="8.0316319"><ele>222.39999999999998</ele><time>2026-04-05T12:31:19.251Z</time></trkpt><trkpt lat="45.0306465" lon="8.0316528"><ele>222.0</ele><time>2026-04-05T12:31:20.252Z</time></trkpt><trkpt lat="45.0305337" lon="8.031681"><ele>222.0</ele><time>2026-04-05T12:31:21.252Z</time></trkpt><trkpt lat="45.030417" lon="8.0317139"><ele>222.0</ele><time>2026-04-05T12:31:22.252Z</time></trkpt><trkpt lat="45.0303061" lon="8.0317466"><ele>222.0</ele><time>2026-04-05T12:31:23.252Z</time></trkpt><trkpt lat="45.0302049" lon="8.0317801"><ele>222.0</ele><time>2026-04-05T12:31:24.252Z</time></trkpt><trkpt lat="45.030109" lon="8.0318179"><ele>222.0</ele><time>2026-04-05T12:31:25.252Z</time></trkpt><trkpt lat="45.0300147" lon="8.0318633"><ele>222.83333333333334</ele><time>2026-04-05T12:31:26.252Z</time></trkpt><trkpt lat="45.0299333" lon="8.0318904"><ele>223.66666666666669</ele><time>2026-04-05T12:31:27.252Z</time></trkpt><trkpt lat="45.0298587" lon="8.0319194"><ele>224.5</ele><time>2026-04-05T12:31:28.252Z</time></trkpt><trkpt lat="45.0297825" lon="8.0319304"><ele>225.33333333333334</ele><time>2026-04-05T12:31:29.252Z</time></trkpt><trkpt lat="45.0297065" lon="8.0319154"><ele>226.16666666666669</ele><time>2026-04-05T12:31:30.252Z</time></trkpt><trkpt lat="45.0296317" lon="8.0318878"><ele>227.0</ele><time>2026-04-05T12:31:31.252Z</time></trkpt><trkpt lat="45.0295429" lon="8.0318548"><ele>227.0</ele><time>2026-04-05T12:31:32.252Z</time></trkpt><trkpt lat="45.0294501" lon="8.0317999"><ele>227.0</ele><time>2026-04-05T12:31:33.252Z</time></trkpt><trkpt lat="45.0293446" lon="8.0317276"><ele>227.0</ele><time>2026-04-05T12:31:34.252Z</time></trkpt><trkpt lat="45.0292416" lon="8.0316498"><ele>227.0</ele><time>2026-04-05T12:31:35.252Z</time></trkpt><trkpt lat="45.0290552" lon="8.0314817"><ele>224.8</ele><time>2026-04-05T12:31:37.252Z</time></trkpt><trkpt lat="45.0289685" lon="8.031405"><ele>222.6</ele><time>2026-04-05T12:31:38.252Z</time></trkpt><trkpt lat="45.0288796" lon="8.0313339"><ele>220.40000000000003</ele><time>2026-04-05T12:31:39.252Z</time></trkpt><trkpt lat="45.0287875" lon="8.0312647"><ele>218.20000000000002</ele><time>2026-04-05T12:31:40.252Z</time></trkpt><trkpt lat="45.0286841" lon="8.0312104"><ele>216.0</ele><time>2026-04-05T12:31:41.252Z</time></trkpt><trkpt lat="45.02858" lon="8.0311733"><ele>216.0</ele><time>2026-04-05T12:31:42.252Z</time></trkpt><trkpt lat="45.0284877" lon="8.0311448"><ele>216.0</ele><time>2026-04-05T12:31:43.252Z</time></trkpt><trkpt lat="45.0284016" lon="8.0311271"><ele>216.0</ele><time>2026-04-05T12:31:44.252Z</time></trkpt><trkpt lat="45.0283264" lon="8.0311015"><ele>216.0</ele><time>2026-04-05T12:31:45.252Z</time></trkpt><trkpt lat="45.0282639" lon="8.0310851"><ele>216.0</ele><time>2026-04-05T12:31:46.252Z</time></trkpt><trkpt lat="45.0281873" lon="8.0310794"><ele>216.0</ele><time>2026-04-05T12:31:48.252Z</time></trkpt><trkpt lat="45.0281191" lon="8.0311595"><ele>215.60000000000002</ele><time>2026-04-05T12:32:05.252Z</time></trkpt><trkpt lat="45.0279782" lon="8.0313565"><ele>215.20000000000002</ele><time>2026-04-05T12:32:09.252Z</time></trkpt><trkpt lat="45.0279668" lon="8.0315202"><ele>214.79999999999998</ele><time>2026-04-05T12:32:11.252Z</time></trkpt><trkpt lat="45.027973" lon="8.031609"><ele>214.39999999999998</ele><time>2026-04-05T12:32:12.252Z</time></trkpt><trkpt lat="45.0279936" lon="8.0317051"><ele>214.0</ele><time>2026-04-05T12:32:13.252Z</time></trkpt><trkpt lat="45.0280267" lon="8.031809"><ele>213.79999999999998</ele><time>2026-04-05T12:32:14.252Z</time></trkpt><trkpt lat="45.0280726" lon="8.031914"><ele>213.59999999999997</ele><time>2026-04-05T12:32:15.252Z</time></trkpt><trkpt lat="45.0281281" lon="8.0320284"><ele>213.4</ele><time>2026-04-05T12:32:16.252Z</time></trkpt><trkpt lat="45.0281872" lon="8.0321241"><ele>213.2</ele><time>2026-04-05T12:32:17.252Z</time></trkpt><trkpt lat="45.0282511" lon="8.0322131"><ele>213.0</ele><time>2026-04-05T12:32:18.252Z</time></trkpt><trkpt lat="45.0283078" lon="8.0323046"><ele>214.0</ele><time>2026-04-05T12:32:19.252Z</time></trkpt><trkpt lat="45.0283618" lon="8.0324154"><ele>215.0</ele><time>2026-04-05T12:32:20.251Z</time></trkpt><trkpt lat="45.0284116" lon="8.0325277"><ele>216.0</ele><time>2026-04-05T12:32:21.252Z</time></trkpt><trkpt lat="45.028462" lon="8.032629"><ele>217.0</ele><time>2026-04-05T12:32:22.252Z</time></trkpt><trkpt lat="45.0285149" lon="8.0327299"><ele>218.0</ele><time>2026-04-05T12:32:23.252Z</time></trkpt><trkpt lat="45.0285657" lon="8.032822"><ele>219.0</ele><time>2026-04-05T12:32:24.252Z</time></trkpt><trkpt lat="45.0286147" lon="8.0329145"><ele>219.0</ele><time>2026-04-05T12:32:25.252Z</time></trkpt><trkpt lat="45.0286621" lon="8.0329973"><ele>219.0</ele><time>2026-04-05T12:32:26.252Z</time></trkpt><trkpt lat="45.0287534" lon="8.0331544"><ele>219.0</ele><time>2026-04-05T12:32:28.252Z</time></trkpt><trkpt lat="45.0287981" lon="8.0332291"><ele>219.0</ele><time>2026-04-05T12:32:29.252Z</time></trkpt><trkpt lat="45.0288357" lon="8.033314"><ele>219.0</ele><time>2026-04-05T12:32:30.252Z</time></trkpt><trkpt lat="45.0288675" lon="8.0334143"><ele>219.0</ele><time>2026-04-05T12:32:31.252Z</time></trkpt><trkpt lat="45.0288955" lon="8.0335087"><ele>218.83333333333334</ele><time>2026-04-05T12:32:32.252Z</time></trkpt><trkpt lat="45.0289434" lon="8.0336258"><ele>218.66666666666669</ele><time>2026-04-05T12:32:34.252Z</time></trkpt><trkpt lat="45.0290118" lon="8.0337228"><ele>218.5</ele><time>2026-04-05T12:32:37.252Z</time></trkpt><trkpt lat="45.0290524" lon="8.0338018"><ele>218.33333333333334</ele><time>2026-04-05T12:32:39.252Z</time></trkpt><trkpt lat="45.0290887" lon="8.0338987"><ele>218.16666666666669</ele><time>2026-04-05T12:32:42.252Z</time></trkpt><trkpt lat="45.0290423" lon="8.0339816"><ele>218.0</ele><time>2026-04-05T12:32:58.252Z</time></trkpt><trkpt lat="45.0289914" lon="8.0341592"><ele>219.5</ele><time>2026-04-05T12:33:14.252Z</time></trkpt><trkpt lat="45.0289175" lon="8.034261"><ele>221.0</ele><time>2026-04-05T12:33:16.252Z</time></trkpt><trkpt lat="45.0288506" lon="8.0343977"><ele>222.5</ele><time>2026-04-05T12:33:18.252Z</time></trkpt><trkpt lat="45.0288212" lon="8.0345527"><ele>224.0</ele><time>2026-04-05T12:33:20.252Z</time></trkpt><trkpt lat="45.028898" lon="8.0347255"><ele>224.0</ele><time>2026-04-05T12:33:24.252Z</time></trkpt><trkpt lat="45.0290049" lon="8.0348039"><ele>223.99999999999997</ele><time>2026-04-05T12:33:26.251Z</time></trkpt><trkpt lat="45.0291136" lon="8.034862"><ele>223.99999999999997</ele><time>2026-04-05T12:33:28.252Z</time></trkpt><trkpt lat="45.0292099" lon="8.0349181"><ele>224.0</ele><time>2026-04-05T12:33:30.252Z</time></trkpt><trkpt lat="45.0292665" lon="8.0349821"><ele>224.0</ele><time>2026-04-05T12:33:33.252Z</time></trkpt><trkpt lat="45.029265" lon="8.0351303"><ele>224.0</ele><time>2026-04-05T12:33:36.252Z</time></trkpt><trkpt lat="45.0292236" lon="8.0352686"><ele>224.0</ele><time>2026-04-05T12:33:38.252Z</time></trkpt><trkpt lat="45.0291885" lon="8.0354166"><ele>224.0</ele><time>2026-04-05T12:33:40.252Z</time></trkpt><trkpt lat="45.0291495" lon="8.0355625"><ele>224.0</ele><time>2026-04-05T12:33:42.252Z</time></trkpt><trkpt lat="45.0290438" lon="8.0358283"><ele>224.0</ele><time>2026-04-05T12:33:46.252Z</time></trkpt><trkpt lat="45.0290114" lon="8.0359087"><ele>224.0</ele><time>2026-04-05T12:33:47.252Z</time></trkpt><trkpt lat="45.0289819" lon="8.036001"><ele>224.0</ele><time>2026-04-05T12:33:48.252Z</time></trkpt><trkpt lat="45.0289516" lon="8.0360914"><ele>224.0</ele><time>2026-04-05T12:33:49.252Z</time></trkpt><trkpt lat="45.0289169" lon="8.0361889"><ele>224.0</ele><time>2026-04-05T12:33:50.252Z</time></trkpt><trkpt lat="45.0288802" lon="8.0362918"><ele>224.0</ele><time>2026-04-05T12:33:51.251Z</time></trkpt><trkpt lat="45.0288461" lon="8.0363967"><ele>224.0</ele><time>2026-04-05T12:33:52.252Z</time></trkpt><trkpt lat="45.0288136" lon="8.0364945"><ele>224.0</ele><time>2026-04-05T12:33:53.252Z</time></trkpt><trkpt lat="45.0287829" lon="8.0365841"><ele>224.0</ele><time>2026-04-05T12:33:54.252Z</time></trkpt><trkpt lat="45.028752" lon="8.0366658"><ele>224.0</ele><time>2026-04-05T12:33:55.252Z</time></trkpt><trkpt lat="45.0287216" lon="8.0367493"><ele>224.0</ele><time>2026-04-05T12:33:56.252Z</time></trkpt><trkpt lat="45.028689" lon="8.0368352"><ele>224.0</ele><time>2026-04-05T12:33:57.252Z</time></trkpt><trkpt lat="45.0286555" lon="8.0369299"><ele>224.0</ele><time>2026-04-05T12:33:58.252Z</time></trkpt><trkpt lat="45.0286127" lon="8.0370195"><ele>224.0</ele><time>2026-04-05T12:33:59.252Z</time></trkpt><trkpt lat="45.0285736" lon="8.0371233"><ele>224.0</ele><time>2026-04-05T12:34:00.252Z</time></trkpt><trkpt lat="45.0285387" lon="8.0372335"><ele>223.99999999999997</ele><time>2026-04-05T12:34:01.252Z</time></trkpt><trkpt lat="45.0285049" lon="8.0373443"><ele>223.99999999999997</ele><time>2026-04-05T12:34:02.252Z</time></trkpt><trkpt lat="45.0284719" lon="8.037452"><ele>224.0</ele><time>2026-04-05T12:34:03.252Z</time></trkpt><trkpt lat="45.0284022" lon="8.0376619"><ele>224.0</ele><time>2026-04-05T12:34:05.252Z</time></trkpt><trkpt lat="45.0283621" lon="8.037767"><ele>224.00000000000003</ele><time>2026-04-05T12:34:06.252Z</time></trkpt><trkpt lat="45.0283284" lon="8.037864"><ele>224.0</ele><time>2026-04-05T12:34:07.252Z</time></trkpt><trkpt lat="45.0283022" lon="8.0379618"><ele>224.0</ele><time>2026-04-05T12:34:08.252Z</time></trkpt><trkpt lat="45.0282816" lon="8.038055"><ele>224.0</ele><time>2026-04-05T12:34:09.252Z</time></trkpt><trkpt lat="45.0282665" lon="8.0381968"><ele>224.00000000000003</ele><time>2026-04-05T12:34:11.252Z</time></trkpt><trkpt lat="45.0282919" lon="8.0383024"><ele>224.0</ele><time>2026-04-05T12:34:13.252Z</time></trkpt><trkpt lat="45.0283252" lon="8.0383809"><ele>225.0</ele><time>2026-04-05T12:34:15.252Z</time></trkpt><trkpt lat="45.0283636" lon="8.0384542"><ele>225.99999999999997</ele><time>2026-04-05T12:34:17.252Z</time></trkpt><trkpt lat="45.0284039" lon="8.038567"><ele>226.99999999999997</ele><time>2026-04-05T12:34:21.252Z</time></trkpt><trkpt lat="45.0284394" lon="8.038665"><ele>228.0</ele><time>2026-04-05T12:34:23.252Z</time></trkpt><trkpt lat="45.028489" lon="8.0387979"><ele>229.0</ele><time>2026-04-05T12:34:25.252Z</time></trkpt><trkpt lat="45.0286096" lon="8.0390423"><ele>229.99999999999997</ele><time>2026-04-05T12:34:29.252Z</time></trkpt><trkpt lat="45.0286483" lon="8.0391562"><ele>231.0</ele><time>2026-04-05T12:34:31.252Z</time></trkpt><trkpt lat="45.0286731" lon="8.0392663"><ele>232.0</ele><time>2026-04-05T12:34:33.252Z</time></trkpt><trkpt lat="45.0286676" lon="8.0393604"><ele>233.0</ele><time>2026-04-05T12:34:35.252Z</time></trkpt><trkpt lat="45.028656" lon="8.0394656"><ele>233.99999999999997</ele><time>2026-04-05T12:34:37.252Z</time></trkpt><trkpt lat="45.0286855" lon="8.0395456"><ele>235.0</ele><time>2026-04-05T12:34:39.252Z</time></trkpt><trkpt lat="45.0287394" lon="8.0396456"><ele>235.0</ele><time>2026-04-05T12:34:48.252Z</time></trkpt><trkpt lat="45.0288684" lon="8.0398525"><ele>235.0</ele><time>2026-04-05T12:34:51.252Z</time></trkpt><trkpt lat="45.0289206" lon="8.0399243"><ele>235.0</ele><time>2026-04-05T12:34:52.252Z</time></trkpt><trkpt lat="45.0289679" lon="8.0399905"><ele>235.0</ele><time>2026-04-05T12:34:53.252Z</time></trkpt><trkpt lat="45.0290424" lon="8.0401132"><ele>235.0</ele><time>2026-04-05T12:34:55.252Z</time></trkpt><trkpt lat="45.0291054" lon="8.0402155"><ele>235.7142857142857</ele><time>2026-04-05T12:34:57.252Z</time></trkpt><trkpt lat="45.0291492" lon="8.0402892"><ele>236.4285714285714</ele><time>2026-04-05T12:34:59.252Z</time></trkpt><trkpt lat="45.0291906" lon="8.0403659"><ele>237.14285714285714</ele><time>2026-04-05T12:35:01.252Z</time></trkpt><trkpt lat="45.0292334" lon="8.0404428"><ele>237.85714285714283</ele><time>2026-04-05T12:35:03.252Z</time></trkpt><trkpt lat="45.0292843" lon="8.0405143"><ele>238.57142857142856</ele><time>2026-04-05T12:35:05.252Z</time></trkpt><trkpt lat="45.0293398" lon="8.0405928"><ele>239.28571428571428</ele><time>2026-04-05T12:35:07.252Z</time></trkpt><trkpt lat="45.0293893" lon="8.0406714"><ele>240.0</ele><time>2026-04-05T12:35:09.252Z</time></trkpt><trkpt lat="45.0294856" lon="8.0408382"><ele>240.0</ele><time>2026-04-05T12:35:13.252Z</time></trkpt><trkpt lat="45.0295166" lon="8.0409359"><ele>240.0</ele><time>2026-04-05T12:35:16.252Z</time></trkpt><trkpt lat="45.0295522" lon="8.0410127"><ele>240.0</ele><time>2026-04-05T12:35:19.252Z</time></trkpt><trkpt lat="45.029571" lon="8.0411308"><ele>240.0</ele><time>2026-04-05T12:35:25.252Z</time></trkpt><trkpt lat="45.0296134" lon="8.0412235"><ele>240.0</ele><time>2026-04-05T12:35:28.252Z</time></trkpt><trkpt lat="45.0296487" lon="8.0413075"><ele>240.0</ele><time>2026-04-05T12:35:30.252Z</time></trkpt><trkpt lat="45.0297393" lon="8.0414636"><ele>240.0</ele><time>2026-04-05T12:35:34.252Z</time></trkpt><trkpt lat="45.0297883" lon="8.0415669"><ele>240.0</ele><time>2026-04-05T12:35:36.251Z</time></trkpt><trkpt lat="45.0298337" lon="8.0416486"><ele>240.0</ele><time>2026-04-05T12:35:38.251Z</time></trkpt><trkpt lat="45.0298874" lon="8.0417041"><ele>240.0</ele><time>2026-04-05T12:35:41.251Z</time></trkpt><trkpt lat="45.0298443" lon="8.0416337"><ele>240.0</ele><time>2026-04-05T12:37:22.251Z</time></trkpt><trkpt lat="45.0296948" lon="8.0414299"><ele>240.0</ele><time>2026-04-05T12:37:26.251Z</time></trkpt><trkpt lat="45.0296455" lon="8.0413708"><ele>240.0</ele><time>2026-04-05T12:37:28.251Z</time></trkpt><trkpt lat="45.0295954" lon="8.0412426"><ele>240.0</ele><time>2026-04-05T12:39:42.251Z</time></trkpt><trkpt lat="45.0295314" lon="8.0410563"><ele>240.0</ele><time>2026-04-05T12:39:48.251Z</time></trkpt><trkpt lat="45.0294834" lon="8.0409352"><ele>240.0</ele><time>2026-04-05T12:39:51.251Z</time></trkpt><trkpt lat="45.0294285" lon="8.0408113"><ele>240.0</ele><time>2026-04-05T12:39:53.251Z</time></trkpt><trkpt lat="45.0293526" lon="8.0406774"><ele>240.0</ele><time>2026-04-05T12:39:55.251Z</time></trkpt><trkpt lat="45.0292714" lon="8.0405562"><ele>240.0</ele><time>2026-04-05T12:39:57.251Z</time></trkpt><trkpt lat="45.0291888" lon="8.0404544"><ele>240.0</ele><time>2026-04-05T12:39:59.251Z</time></trkpt><trkpt lat="45.0291054" lon="8.0403526"><ele>240.0</ele><time>2026-04-05T12:40:01.251Z</time></trkpt><trkpt lat="45.0290226" lon="8.0402248"><ele>240.0</ele><time>2026-04-05T12:40:03.251Z</time></trkpt><trkpt lat="45.0289404" lon="8.0400838"><ele>240.0</ele><time>2026-04-05T12:40:05.251Z</time></trkpt><trkpt lat="45.0288692" lon="8.0399548"><ele>240.0</ele><time>2026-04-05T12:40:07.251Z</time></trkpt><trkpt lat="45.0287935" lon="8.0398337"><ele>239.0</ele><time>2026-04-05T12:40:09.251Z</time></trkpt><trkpt lat="45.0287223" lon="8.039709"><ele>238.0</ele><time>2026-04-05T12:40:11.251Z</time></trkpt><trkpt lat="45.0286654" lon="8.039601"><ele>237.0</ele><time>2026-04-05T12:40:13.251Z</time></trkpt><trkpt lat="45.0286466" lon="8.0395056"><ele>236.0</ele><time>2026-04-05T12:40:15.251Z</time></trkpt><trkpt lat="45.0286563" lon="8.0394004"><ele>235.0</ele><time>2026-04-05T12:40:17.251Z</time></trkpt><trkpt lat="45.028656" lon="8.0392614"><ele>233.5</ele><time>2026-04-05T12:40:19.251Z</time></trkpt><trkpt lat="45.0286033" lon="8.0391247"><ele>232.0</ele><time>2026-04-05T12:40:21.251Z</time></trkpt><trkpt lat="45.0285316" lon="8.0389917"><ele>230.5</ele><time>2026-04-05T12:40:23.251Z</time></trkpt><trkpt lat="45.0284707" lon="8.0388572"><ele>229.0</ele><time>2026-04-05T12:40:25.25Z</time></trkpt><trkpt lat="45.028387" lon="8.0386566"><ele>228.99999999999997</ele><time>2026-04-05T12:40:29.25Z</time></trkpt><trkpt lat="45.028349" lon="8.0385808"><ele>229.0</ele><time>2026-04-05T12:40:32.25Z</time></trkpt><trkpt lat="45.0282879" lon="8.0384826"><ele>229.0</ele><time>2026-04-05T12:40:35.25Z</time></trkpt><trkpt lat="45.0282485" lon="8.0383678"><ele>229.0</ele><time>2026-04-05T12:40:37.25Z</time></trkpt><trkpt lat="45.0282198" lon="8.0382464"><ele>228.99999999999997</ele><time>2026-04-05T12:40:39.25Z</time></trkpt><trkpt lat="45.028233" lon="8.0381152"><ele>229.0</ele><time>2026-04-05T12:40:41.25Z</time></trkpt><trkpt lat="45.028279" lon="8.0379631"><ele>228.39999999999998</ele><time>2026-04-05T12:40:43.25Z</time></trkpt><trkpt lat="45.0283087" lon="8.0378778"><ele>227.79999999999998</ele><time>2026-04-05T12:40:44.25Z</time></trkpt><trkpt lat="45.0283435" lon="8.037802"><ele>227.20000000000002</ele><time>2026-04-05T12:40:45.25Z</time></trkpt><trkpt lat="45.0284024" lon="8.0376636"><ele>226.60000000000002</ele><time>2026-04-05T12:40:47.25Z</time></trkpt><trkpt lat="45.0284762" lon="8.0374452"><ele>226.0</ele><time>2026-04-05T12:40:51.25Z</time></trkpt><trkpt lat="45.0285139" lon="8.0373425"><ele>225.20000000000002</ele><time>2026-04-05T12:41:01.25Z</time></trkpt><trkpt lat="45.0285678" lon="8.0372388"><ele>224.40000000000003</ele><time>2026-04-05T12:41:03.25Z</time></trkpt><trkpt lat="45.0286123" lon="8.037125"><ele>223.6</ele><time>2026-04-05T12:41:05.25Z</time></trkpt><trkpt lat="45.0286455" lon="8.0370119"><ele>222.8</ele><time>2026-04-05T12:41:07.25Z</time></trkpt><trkpt lat="45.0286951" lon="8.0369039"><ele>222.0</ele><time>2026-04-05T12:41:09.25Z</time></trkpt><trkpt lat="45.0288052" lon="8.0366495"><ele>222.39999999999998</ele><time>2026-04-05T12:41:13.25Z</time></trkpt><trkpt lat="45.0288565" lon="8.0364951"><ele>222.79999999999998</ele><time>2026-04-05T12:41:15.25Z</time></trkpt><trkpt lat="45.0289017" lon="8.036361"><ele>223.2</ele><time>2026-04-05T12:41:17.25Z</time></trkpt><trkpt lat="45.0289304" lon="8.0362402"><ele>223.6</ele><time>2026-04-05T12:41:19.25Z</time></trkpt><trkpt lat="45.0289658" lon="8.0360996"><ele>224.0</ele><time>2026-04-05T12:41:21.25Z</time></trkpt><trkpt lat="45.0290104" lon="8.0359443"><ele>224.0</ele><time>2026-04-05T12:41:23.25Z</time></trkpt><trkpt lat="45.0290498" lon="8.0358217"><ele>223.99999999999997</ele><time>2026-04-05T12:41:25.25Z</time></trkpt><trkpt lat="45.0290989" lon="8.0356897"><ele>223.99999999999997</ele><time>2026-04-05T12:41:27.25Z</time></trkpt><trkpt lat="45.0291334" lon="8.0355576"><ele>224.0</ele><time>2026-04-05T12:41:29.25Z</time></trkpt><trkpt lat="45.0291748" lon="8.0354446"><ele>224.0</ele><time>2026-04-05T12:41:31.25Z</time></trkpt><trkpt lat="45.0292472" lon="8.0351788"><ele>224.0</ele><time>2026-04-05T12:41:35.25Z</time></trkpt><trkpt lat="45.0292457" lon="8.0350594"><ele>223.99999999999997</ele><time>2026-04-05T12:41:37.25Z</time></trkpt><trkpt lat="45.0291877" lon="8.0349753"><ele>223.99999999999997</ele><time>2026-04-05T12:41:39.25Z</time></trkpt><trkpt lat="45.0290961" lon="8.0349036"><ele>224.0</ele><time>2026-04-05T12:41:41.25Z</time></trkpt><trkpt lat="45.028998" lon="8.0348291"><ele>224.0</ele><time>2026-04-05T12:41:43.25Z</time></trkpt><trkpt lat="45.0289177" lon="8.0347712"><ele>224.0</ele><time>2026-04-05T12:41:45.25Z</time></trkpt><trkpt lat="45.0288437" lon="8.0347118"><ele>223.99999999999997</ele><time>2026-04-05T12:41:47.25Z</time></trkpt><trkpt lat="45.0287985" lon="8.0346319"><ele>223.99999999999997</ele><time>2026-04-05T12:41:49.25Z</time></trkpt><trkpt lat="45.028809" lon="8.0345078"><ele>224.0</ele><time>2026-04-05T12:41:51.25Z</time></trkpt><trkpt lat="45.0288612" lon="8.0343606"><ele>224.0</ele><time>2026-04-05T12:41:53.25Z</time></trkpt><trkpt lat="45.0290151" lon="8.034122"><ele>223.00000000000003</ele><time>2026-04-05T12:41:57.249Z</time></trkpt><trkpt lat="45.0290659" lon="8.0340231"><ele>222.0</ele><time>2026-04-05T12:41:59.25Z</time></trkpt><trkpt lat="45.0290877" lon="8.0339339"><ele>221.0</ele><time>2026-04-05T12:42:01.25Z</time></trkpt><trkpt lat="45.0290455" lon="8.0338132"><ele>220.0</ele><time>2026-04-05T12:42:04.25Z</time></trkpt><trkpt lat="45.0289879" lon="8.0337469"><ele>219.00000000000003</ele><time>2026-04-05T12:42:06.25Z</time></trkpt><trkpt lat="45.0289361" lon="8.0336755"><ele>218.0</ele><time>2026-04-05T12:42:08.25Z</time></trkpt><trkpt lat="45.0288835" lon="8.0335323"><ele>218.0</ele><time>2026-04-05T12:42:10.25Z</time></trkpt><trkpt lat="45.0288592" lon="8.0334474"><ele>218.0</ele><time>2026-04-05T12:42:11.25Z</time></trkpt><trkpt lat="45.0288375" lon="8.0333606"><ele>218.0</ele><time>2026-04-05T12:42:12.25Z</time></trkpt><trkpt lat="45.0288079" lon="8.0332797"><ele>218.0</ele><time>2026-04-05T12:42:13.25Z</time></trkpt><trkpt lat="45.0287395" lon="8.033161"><ele>218.0</ele><time>2026-04-05T12:42:15.25Z</time></trkpt><trkpt lat="45.0286058" lon="8.0330186"><ele>218.2</ele><time>2026-04-05T12:42:19.25Z</time></trkpt><trkpt lat="45.0285446" lon="8.032925"><ele>218.4</ele><time>2026-04-05T12:42:21.25Z</time></trkpt><trkpt lat="45.0284634" lon="8.0327922"><ele>218.59999999999997</ele><time>2026-04-05T12:42:23.25Z</time></trkpt><trkpt lat="45.0284004" lon="8.0326736"><ele>218.79999999999998</ele><time>2026-04-05T12:42:25.25Z</time></trkpt><trkpt lat="45.0283602" lon="8.0325699"><ele>219.0</ele><time>2026-04-05T12:42:27.25Z</time></trkpt><trkpt lat="45.0283119" lon="8.0324483"><ele>217.79999999999998</ele><time>2026-04-05T12:42:29.25Z</time></trkpt><trkpt lat="45.0282564" lon="8.032321"><ele>216.59999999999997</ele><time>2026-04-05T12:42:31.25Z</time></trkpt><trkpt lat="45.0281905" lon="8.0322022"><ele>215.4</ele><time>2026-04-05T12:42:33.25Z</time></trkpt><trkpt lat="45.0281307" lon="8.0320962"><ele>214.2</ele><time>2026-04-05T12:42:35.25Z</time></trkpt><trkpt lat="45.0280821" lon="8.0319927"><ele>213.0</ele><time>2026-04-05T12:42:37.25Z</time></trkpt><trkpt lat="45.0279867" lon="8.0317603"><ele>213.16666666666666</ele><time>2026-04-05T12:42:41.25Z</time></trkpt><trkpt lat="45.0279671" lon="8.0316336"><ele>213.33333333333331</ele><time>2026-04-05T12:42:43.25Z</time></trkpt><trkpt lat="45.0279641" lon="8.0315156"><ele>213.5</ele><time>2026-04-05T12:42:45.25Z</time></trkpt><trkpt lat="45.0279907" lon="8.0313962"><ele>213.66666666666666</ele><time>2026-04-05T12:42:47.25Z</time></trkpt><trkpt lat="45.028037" lon="8.0312943"><ele>213.83333333333331</ele><time>2026-04-05T12:42:49.25Z</time></trkpt><trkpt lat="45.0280935" lon="8.0312139"><ele>214.0</ele><time>2026-04-05T12:42:51.25Z</time></trkpt><trkpt lat="45.0281373" lon="8.0311224"><ele>214.0</ele><time>2026-04-05T12:42:54.25Z</time></trkpt><trkpt lat="45.0280833" lon="8.0310541"><ele>214.0</ele><time>2026-04-05T12:42:57.25Z</time></trkpt><trkpt lat="45.0279917" lon="8.0310161"><ele>214.0</ele><time>2026-04-05T12:42:59.25Z</time></trkpt><trkpt lat="45.0277862" lon="8.0309538"><ele>214.0</ele><time>2026-04-05T12:43:03.25Z</time></trkpt><trkpt lat="45.0276946" lon="8.0309412"><ele>214.0</ele><time>2026-04-05T12:43:05.25Z</time></trkpt><trkpt lat="45.0276137" lon="8.0309294"><ele>213.99999999999997</ele><time>2026-04-05T12:43:07.25Z</time></trkpt><trkpt lat="45.02753" lon="8.0309199"><ele>213.99999999999997</ele><time>2026-04-05T12:43:09.25Z</time></trkpt><trkpt lat="45.0274336" lon="8.0309058"><ele>214.0</ele><time>2026-04-05T12:43:11.25Z</time></trkpt><trkpt lat="45.0273285" lon="8.0309152"><ele>214.0</ele><time>2026-04-05T12:43:13.25Z</time></trkpt><trkpt lat="45.0272228" lon="8.0309284"><ele>214.0</ele><time>2026-04-05T12:43:15.25Z</time></trkpt><trkpt lat="45.0271189" lon="8.0309373"><ele>213.99999999999997</ele><time>2026-04-05T12:43:17.25Z</time></trkpt><trkpt lat="45.0270303" lon="8.0309239"><ele>213.99999999999997</ele><time>2026-04-05T12:43:19.25Z</time></trkpt><trkpt lat="45.0269663" lon="8.0309161"><ele>214.0</ele><time>2026-04-05T12:43:21.25Z</time></trkpt><trkpt lat="45.0267987" lon="8.0308487"><ele>214.0</ele><time>2026-04-05T12:43:26.25Z</time></trkpt><trkpt lat="45.0267133" lon="8.0308107"><ele>214.6</ele><time>2026-04-05T12:43:28.25Z</time></trkpt><trkpt lat="45.0266239" lon="8.0307712"><ele>215.2</ele><time>2026-04-05T12:43:30.25Z</time></trkpt><trkpt lat="45.0265438" lon="8.0307217"><ele>215.79999999999998</ele><time>2026-04-05T12:43:32.25Z</time></trkpt><trkpt lat="45.0264578" lon="8.030663"><ele>216.39999999999998</ele><time>2026-04-05T12:43:34.25Z</time></trkpt><trkpt lat="45.02637" lon="8.0306004"><ele>217.0</ele><time>2026-04-05T12:43:36.25Z</time></trkpt><trkpt lat="45.0262725" lon="8.0305351"><ele>217.0</ele><time>2026-04-05T12:43:38.25Z</time></trkpt><trkpt lat="45.0261829" lon="8.030463"><ele>217.0</ele><time>2026-04-05T12:43:40.25Z</time></trkpt><trkpt lat="45.0261028" lon="8.0303933"><ele>217.0</ele><time>2026-04-05T12:43:42.25Z</time></trkpt><trkpt lat="45.0259413" lon="8.0302208"><ele>217.0</ele><time>2026-04-05T12:43:46.25Z</time></trkpt><trkpt lat="45.0258679" lon="8.0301158"><ele>215.8</ele><time>2026-04-05T12:43:48.25Z</time></trkpt><trkpt lat="45.0257973" lon="8.0300065"><ele>214.6</ele><time>2026-04-05T12:43:50.25Z</time></trkpt><trkpt lat="45.025729" lon="8.0298982"><ele>213.4</ele><time>2026-04-05T12:43:52.25Z</time></trkpt><trkpt lat="45.0256724" lon="8.0297765"><ele>212.20000000000002</ele><time>2026-04-05T12:43:54.25Z</time></trkpt><trkpt lat="45.0256226" lon="8.029644"><ele>211.0</ele><time>2026-04-05T12:43:56.25Z</time></trkpt><trkpt lat="45.0255846" lon="8.0294926"><ele>210.25</ele><time>2026-04-05T12:43:58.25Z</time></trkpt><trkpt lat="45.0255501" lon="8.0293447"><ele>209.5</ele><time>2026-04-05T12:44:00.25Z</time></trkpt><trkpt lat="45.0255251" lon="8.029206"><ele>208.75</ele><time>2026-04-05T12:44:02.25Z</time></trkpt><trkpt lat="45.0255268" lon="8.0290612"><ele>208.0</ele><time>2026-04-05T12:44:04.25Z</time></trkpt><trkpt lat="45.0255887" lon="8.0287986"><ele>208.0</ele><time>2026-04-05T12:44:08.25Z</time></trkpt><trkpt lat="45.0256083" lon="8.0287128"><ele>208.0</ele><time>2026-04-05T12:44:10.25Z</time></trkpt><trkpt lat="45.0255842" lon="8.0286183"><ele>208.0</ele><time>2026-04-05T12:46:02.25Z</time></trkpt><trkpt lat="45.0254312" lon="8.0285188"><ele>208.0</ele><time>2026-04-05T12:46:05.25Z</time></trkpt><trkpt lat="45.0253348" lon="8.028489"><ele>208.0</ele><time>2026-04-05T12:46:06.25Z</time></trkpt><trkpt lat="45.0252125" lon="8.0284522"><ele>208.0</ele><time>2026-04-05T12:46:07.25Z</time></trkpt><trkpt lat="45.0250801" lon="8.0284101"><ele>208.0</ele><time>2026-04-05T12:46:08.25Z</time></trkpt><trkpt lat="45.0249405" lon="8.028365"><ele>208.0</ele><time>2026-04-05T12:46:09.25Z</time></trkpt><trkpt lat="45.0247978" lon="8.0283237"><ele>208.0</ele><time>2026-04-05T12:46:10.249Z</time></trkpt><trkpt lat="45.0246588" lon="8.0282807"><ele>208.25</ele><time>2026-04-05T12:46:11.25Z</time></trkpt><trkpt lat="45.0245193" lon="8.0282368"><ele>208.5</ele><time>2026-04-05T12:46:12.25Z</time></trkpt><trkpt lat="45.024384" lon="8.0281943"><ele>208.75</ele><time>2026-04-05T12:46:13.25Z</time></trkpt><trkpt lat="45.0242554" lon="8.0281567"><ele>209.0</ele><time>2026-04-05T12:46:14.25Z</time></trkpt><trkpt lat="45.024125" lon="8.0281181"><ele>208.5</ele><time>2026-04-05T12:46:15.25Z</time></trkpt><trkpt lat="45.0239912" lon="8.0280818"><ele>208.0</ele><time>2026-04-05T12:46:16.25Z</time></trkpt><trkpt lat="45.0238671" lon="8.0280415"><ele>207.5</ele><time>2026-04-05T12:46:17.25Z</time></trkpt><trkpt lat="45.0237428" lon="8.0280051"><ele>207.0</ele><time>2026-04-05T12:46:18.25Z</time></trkpt><trkpt lat="45.0236195" lon="8.0279625"><ele>207.0</ele><time>2026-04-05T12:46:19.25Z</time></trkpt><trkpt lat="45.0235028" lon="8.0279242"><ele>207.0</ele><time>2026-04-05T12:46:20.25Z</time></trkpt><trkpt lat="45.0233829" lon="8.0278869"><ele>207.0</ele><time>2026-04-05T12:46:21.25Z</time></trkpt><trkpt lat="45.0232508" lon="8.0278498"><ele>207.0</ele><time>2026-04-05T12:46:22.25Z</time></trkpt><trkpt lat="45.0231215" lon="8.0278094"><ele>208.66666666666669</ele><time>2026-04-05T12:46:23.25Z</time></trkpt><trkpt lat="45.0228782" lon="8.0277214"><ele>210.33333333333334</ele><time>2026-04-05T12:46:25.25Z</time></trkpt><trkpt lat="45.0227596" lon="8.0276818"><ele>212.0</ele><time>2026-04-05T12:46:26.25Z</time></trkpt><trkpt lat="45.022633" lon="8.0276446"><ele>212.0</ele><time>2026-04-05T12:46:27.25Z</time></trkpt><trkpt lat="45.0225022" lon="8.0276053"><ele>212.0</ele><time>2026-04-05T12:46:28.25Z</time></trkpt><trkpt lat="45.0223726" lon="8.0275784"><ele>212.0</ele><time>2026-04-05T12:46:29.25Z</time></trkpt><trkpt lat="45.0222522" lon="8.0275509"><ele>212.0</ele><time>2026-04-05T12:46:30.25Z</time></trkpt><trkpt lat="45.0221352" lon="8.0275258"><ele>212.0</ele><time>2026-04-05T12:46:31.25Z</time></trkpt><trkpt lat="45.0220161" lon="8.0274986"><ele>212.0</ele><time>2026-04-05T12:46:32.25Z</time></trkpt><trkpt lat="45.0218928" lon="8.0274751"><ele>212.0</ele><time>2026-04-05T12:46:33.25Z</time></trkpt><trkpt lat="45.0217787" lon="8.0274549"><ele>212.0</ele><time>2026-04-05T12:46:34.25Z</time></trkpt><trkpt lat="45.0216677" lon="8.0274436"><ele>210.6</ele><time>2026-04-05T12:46:35.25Z</time></trkpt><trkpt lat="45.021561" lon="8.027425"><ele>209.2</ele><time>2026-04-05T12:46:36.25Z</time></trkpt><trkpt lat="45.0214533" lon="8.0274042"><ele>207.8</ele><time>2026-04-05T12:46:37.25Z</time></trkpt><trkpt lat="45.0213434" lon="8.0273801"><ele>206.4</ele><time>2026-04-05T12:46:38.25Z</time></trkpt><trkpt lat="45.0212239" lon="8.0273536"><ele>205.0</ele><time>2026-04-05T12:46:39.25Z</time></trkpt><trkpt lat="45.0211034" lon="8.0273333"><ele>205.0</ele><time>2026-04-05T12:46:40.25Z</time></trkpt><trkpt lat="45.0209881" lon="8.0273139"><ele>205.0</ele><time>2026-04-05T12:46:41.249Z</time></trkpt><trkpt lat="45.0208752" lon="8.0272939"><ele>205.0</ele><time>2026-04-05T12:46:42.249Z</time></trkpt><trkpt lat="45.0207615" lon="8.0272739"><ele>205.0</ele><time>2026-04-05T12:46:43.249Z</time></trkpt><trkpt lat="45.0206417" lon="8.0272551"><ele>205.66666666666666</ele><time>2026-04-05T12:46:44.249Z</time></trkpt><trkpt lat="45.0204016" lon="8.0272179"><ele>206.33333333333331</ele><time>2026-04-05T12:46:46.249Z</time></trkpt><trkpt lat="45.0202819" lon="8.0271971"><ele>207.0</ele><time>2026-04-05T12:46:47.249Z</time></trkpt><trkpt lat="45.0201579" lon="8.0271772"><ele>207.0</ele><time>2026-04-05T12:46:48.249Z</time></trkpt><trkpt lat="45.0200325" lon="8.0271553"><ele>207.0</ele><time>2026-04-05T12:46:49.249Z</time></trkpt><trkpt lat="45.019903" lon="8.0271347"><ele>207.0</ele><time>2026-04-05T12:46:50.249Z</time></trkpt><trkpt lat="45.019776" lon="8.0271113"><ele>207.0</ele><time>2026-04-05T12:46:51.249Z</time></trkpt><trkpt lat="45.0196466" lon="8.0270833"><ele>207.75</ele><time>2026-04-05T12:46:52.249Z</time></trkpt><trkpt lat="45.0195221" lon="8.0270572"><ele>208.5</ele><time>2026-04-05T12:46:53.249Z</time></trkpt><trkpt lat="45.0193979" lon="8.0270293"><ele>209.25</ele><time>2026-04-05T12:46:54.249Z</time></trkpt><trkpt lat="45.0192789" lon="8.0270061"><ele>210.0</ele><time>2026-04-05T12:46:55.249Z</time></trkpt><trkpt lat="45.019166" lon="8.0269857"><ele>209.5</ele><time>2026-04-05T12:46:56.249Z</time></trkpt><trkpt lat="45.0190521" lon="8.0269641"><ele>209.0</ele><time>2026-04-05T12:46:57.249Z</time></trkpt><trkpt lat="45.0189376" lon="8.026943"><ele>208.5</ele><time>2026-04-05T12:46:58.249Z</time></trkpt><trkpt lat="45.0188215" lon="8.0269203"><ele>208.0</ele><time>2026-04-05T12:46:59.249Z</time></trkpt><trkpt lat="45.0187032" lon="8.0268971"><ele>208.0</ele><time>2026-04-05T12:47:00.249Z</time></trkpt><trkpt lat="45.0185792" lon="8.0268797"><ele>208.0</ele><time>2026-04-05T12:47:01.249Z</time></trkpt><trkpt lat="45.0184503" lon="8.0268638"><ele>208.0</ele><time>2026-04-05T12:47:02.249Z</time></trkpt><trkpt lat="45.018328" lon="8.026842"><ele>208.0</ele><time>2026-04-05T12:47:03.249Z</time></trkpt><trkpt lat="45.0182067" lon="8.0268191"><ele>209.0</ele><time>2026-04-05T12:47:04.249Z</time></trkpt><trkpt lat="45.0180903" lon="8.0267959"><ele>210.0</ele><time>2026-04-05T12:47:05.249Z</time></trkpt><trkpt lat="45.0178511" lon="8.0267554"><ele>211.0</ele><time>2026-04-05T12:47:07.249Z</time></trkpt><trkpt lat="45.0177339" lon="8.0267326"><ele>211.0</ele><time>2026-04-05T12:47:08.249Z</time></trkpt><trkpt lat="45.0176196" lon="8.0267083"><ele>211.0</ele><time>2026-04-05T12:47:09.249Z</time></trkpt><trkpt lat="45.0174969" lon="8.026687"><ele>211.0</ele><time>2026-04-05T12:47:10.249Z</time></trkpt><trkpt lat="45.0173731" lon="8.0266713"><ele>211.0</ele><time>2026-04-05T12:47:11.249Z</time></trkpt><trkpt lat="45.0172518" lon="8.0266514"><ele>208.25</ele><time>2026-04-05T12:47:12.249Z</time></trkpt><trkpt lat="45.0171324" lon="8.0266248"><ele>205.5</ele><time>2026-04-05T12:47:13.249Z</time></trkpt><trkpt lat="45.0170073" lon="8.0266041"><ele>202.75</ele><time>2026-04-05T12:47:14.249Z</time></trkpt><trkpt lat="45.0168769" lon="8.0265838"><ele>200.0</ele><time>2026-04-05T12:47:15.249Z</time></trkpt><trkpt lat="45.0167519" lon="8.0265596"><ele>200.5</ele><time>2026-04-05T12:47:16.249Z</time></trkpt><trkpt lat="45.0166308" lon="8.0265384"><ele>201.0</ele><time>2026-04-05T12:47:17.249Z</time></trkpt><trkpt lat="45.0165093" lon="8.0265179"><ele>201.5</ele><time>2026-04-05T12:47:18.249Z</time></trkpt><trkpt lat="45.0163878" lon="8.0264978"><ele>202.0</ele><time>2026-04-05T12:47:19.249Z</time></trkpt><trkpt lat="45.0162652" lon="8.0264733"><ele>202.0</ele><time>2026-04-05T12:47:20.249Z</time></trkpt><trkpt lat="45.0161448" lon="8.0264501"><ele>202.0</ele><time>2026-04-05T12:47:21.249Z</time></trkpt><trkpt lat="45.0160201" lon="8.0264318"><ele>202.0</ele><time>2026-04-05T12:47:22.249Z</time></trkpt><trkpt lat="45.0159024" lon="8.0264147"><ele>202.0</ele><time>2026-04-05T12:47:23.249Z</time></trkpt><trkpt lat="45.0157757" lon="8.0263991"><ele>202.66666666666666</ele><time>2026-04-05T12:47:24.249Z</time></trkpt><trkpt lat="45.0156511" lon="8.0263754"><ele>203.33333333333331</ele><time>2026-04-05T12:47:25.249Z</time></trkpt><trkpt lat="45.0155296" lon="8.0263532"><ele>204.0</ele><time>2026-04-05T12:47:26.249Z</time></trkpt><trkpt lat="45.0152829" lon="8.0263156"><ele>204.0</ele><time>2026-04-05T12:47:28.249Z</time></trkpt><trkpt lat="45.0151596" lon="8.0262963"><ele>204.0</ele><time>2026-04-05T12:47:29.249Z</time></trkpt><trkpt lat="45.0150367" lon="8.0262757"><ele>204.0</ele><time>2026-04-05T12:47:30.249Z</time></trkpt><trkpt lat="45.0149152" lon="8.0262556"><ele>204.0</ele><time>2026-04-05T12:47:31.249Z</time></trkpt><trkpt lat="45.0147976" lon="8.0262328"><ele>203.75</ele><time>2026-04-05T12:47:32.249Z</time></trkpt><trkpt lat="45.0146811" lon="8.0262117"><ele>203.5</ele><time>2026-04-05T12:47:33.249Z</time></trkpt><trkpt lat="45.0145632" lon="8.0261912"><ele>203.25</ele><time>2026-04-05T12:47:34.249Z</time></trkpt><trkpt lat="45.0144349" lon="8.0261733"><ele>203.0</ele><time>2026-04-05T12:47:35.249Z</time></trkpt><trkpt lat="45.014309" lon="8.0261548"><ele>203.0</ele><time>2026-04-05T12:47:36.249Z</time></trkpt><trkpt lat="45.0141903" lon="8.0261318"><ele>203.0</ele><time>2026-04-05T12:47:37.249Z</time></trkpt><trkpt lat="45.0140722" lon="8.026108"><ele>203.0</ele><time>2026-04-05T12:47:38.249Z</time></trkpt><trkpt lat="45.0139574" lon="8.0260808"><ele>203.0</ele><time>2026-04-05T12:47:39.249Z</time></trkpt><trkpt lat="45.0138459" lon="8.026062"><ele>204.0</ele><time>2026-04-05T12:47:40.249Z</time></trkpt><trkpt lat="45.0137268" lon="8.0260471"><ele>205.0</ele><time>2026-04-05T12:47:41.249Z</time></trkpt><trkpt lat="45.0136093" lon="8.0260322"><ele>206.0</ele><time>2026-04-05T12:47:42.249Z</time></trkpt><trkpt lat="45.01349" lon="8.0260136"><ele>207.0</ele><time>2026-04-05T12:47:43.249Z</time></trkpt><trkpt lat="45.0133713" lon="8.0259891"><ele>206.0</ele><time>2026-04-05T12:47:44.249Z</time></trkpt><trkpt lat="45.0132526" lon="8.0259612"><ele>205.0</ele><time>2026-04-05T12:47:45.249Z</time></trkpt><trkpt lat="45.0131289" lon="8.025934"><ele>204.0</ele><time>2026-04-05T12:47:46.249Z</time></trkpt><trkpt lat="45.0130063" lon="8.0259107"><ele>203.0</ele><time>2026-04-05T12:47:47.249Z</time></trkpt><trkpt lat="45.0127541" lon="8.0258668"><ele>203.0</ele><time>2026-04-05T12:47:49.249Z</time></trkpt><trkpt lat="45.0126259" lon="8.0258426"><ele>203.0</ele><time>2026-04-05T12:47:50.249Z</time></trkpt><trkpt lat="45.0124999" lon="8.0258215"><ele>203.0</ele><time>2026-04-05T12:47:51.249Z</time></trkpt><trkpt lat="45.0123712" lon="8.0257992"><ele>203.0</ele><time>2026-04-05T12:47:52.249Z</time></trkpt><trkpt lat="45.0122415" lon="8.0257808"><ele>202.5</ele><time>2026-04-05T12:47:53.249Z</time></trkpt><trkpt lat="45.0121151" lon="8.0257641"><ele>202.0</ele><time>2026-04-05T12:47:54.249Z</time></trkpt><trkpt lat="45.0119895" lon="8.0257401"><ele>201.5</ele><time>2026-04-05T12:47:55.249Z</time></trkpt><trkpt lat="45.0118604" lon="8.0257123"><ele>201.0</ele><time>2026-04-05T12:47:56.249Z</time></trkpt><trkpt lat="45.0117345" lon="8.0256803"><ele>201.25</ele><time>2026-04-05T12:47:57.249Z</time></trkpt><trkpt lat="45.0116098" lon="8.0256539"><ele>201.5</ele><time>2026-04-05T12:47:58.249Z</time></trkpt><trkpt lat="45.0114866" lon="8.0256253"><ele>201.75</ele><time>2026-04-05T12:47:59.249Z</time></trkpt><trkpt lat="45.0113612" lon="8.0255907"><ele>202.0</ele><time>2026-04-05T12:48:00.249Z</time></trkpt><trkpt lat="45.0112393" lon="8.0255526"><ele>202.0</ele><time>2026-04-05T12:48:01.249Z</time></trkpt><trkpt lat="45.0111216" lon="8.0255082"><ele>202.0</ele><time>2026-04-05T12:48:02.249Z</time></trkpt><trkpt lat="45.0110155" lon="8.0254546"><ele>202.0</ele><time>2026-04-05T12:48:03.249Z</time></trkpt><trkpt lat="45.0109148" lon="8.0254001"><ele>202.0</ele><time>2026-04-05T12:48:04.249Z</time></trkpt><trkpt lat="45.0108238" lon="8.0253488"><ele>202.0</ele><time>2026-04-05T12:48:05.249Z</time></trkpt><trkpt lat="45.0107441" lon="8.025301"><ele>201.25</ele><time>2026-04-05T12:48:06.249Z</time></trkpt><trkpt lat="45.010671" lon="8.0252568"><ele>200.5</ele><time>2026-04-05T12:48:07.249Z</time></trkpt><trkpt lat="45.0105969" lon="8.0252115"><ele>199.75</ele><time>2026-04-05T12:48:08.249Z</time></trkpt><trkpt lat="45.0104322" lon="8.0250831"><ele>199.0</ele><time>2026-04-05T12:48:11.249Z</time></trkpt><trkpt lat="45.0104153" lon="8.0249195"><ele>199.0</ele><time>2026-04-05T12:48:13.249Z</time></trkpt><trkpt lat="45.0104447" lon="8.0248159"><ele>199.0</ele><time>2026-04-05T12:48:14.249Z</time></trkpt><trkpt lat="45.0104882" lon="8.0247012"><ele>199.0</ele><time>2026-04-05T12:48:15.249Z</time></trkpt><trkpt lat="45.0105448" lon="8.0245923"><ele>199.0</ele><time>2026-04-05T12:48:16.249Z</time></trkpt><trkpt lat="45.0105973" lon="8.02448"><ele>199.0</ele><time>2026-04-05T12:48:17.249Z</time></trkpt><trkpt lat="45.0106472" lon="8.0243624"><ele>199.0</ele><time>2026-04-05T12:48:18.249Z</time></trkpt><trkpt lat="45.0107006" lon="8.0242392"><ele>199.0</ele><time>2026-04-05T12:48:19.249Z</time></trkpt><trkpt lat="45.0107559" lon="8.0241054"><ele>199.0</ele><time>2026-04-05T12:48:20.249Z</time></trkpt><trkpt lat="45.0108125" lon="8.0239754"><ele>199.0</ele><time>2026-04-05T12:48:21.249Z</time></trkpt><trkpt lat="45.0108681" lon="8.0238504"><ele>199.0</ele><time>2026-04-05T12:48:22.249Z</time></trkpt><trkpt lat="45.0109187" lon="8.0237278"><ele>198.79999999999998</ele><time>2026-04-05T12:48:23.249Z</time></trkpt><trkpt lat="45.0109634" lon="8.0236047"><ele>198.6</ele><time>2026-04-05T12:48:24.249Z</time></trkpt><trkpt lat="45.0110039" lon="8.0234829"><ele>198.4</ele><time>2026-04-05T12:48:25.249Z</time></trkpt><trkpt lat="45.0110363" lon="8.0233642"><ele>198.2</ele><time>2026-04-05T12:48:26.249Z</time></trkpt><trkpt lat="45.0110634" lon="8.0232395"><ele>198.0</ele><time>2026-04-05T12:48:27.249Z</time></trkpt><trkpt lat="45.0110714" lon="8.0231097"><ele>198.0</ele><time>2026-04-05T12:48:28.249Z</time></trkpt><trkpt lat="45.0110584" lon="8.0229576"><ele>198.0</ele><time>2026-04-05T12:48:29.249Z</time></trkpt><trkpt lat="45.011033" lon="8.0226048"><ele>198.0</ele><time>2026-04-05T12:48:31.249Z</time></trkpt><trkpt lat="45.0110392" lon="8.0224322"><ele>198.5</ele><time>2026-04-05T12:48:32.249Z</time></trkpt><trkpt lat="45.011056" lon="8.0222613"><ele>199.0</ele><time>2026-04-05T12:48:33.249Z</time></trkpt><trkpt lat="45.0110893" lon="8.0220944"><ele>199.5</ele><time>2026-04-05T12:48:34.249Z</time></trkpt><trkpt lat="45.011127" lon="8.0219295"><ele>200.0</ele><time>2026-04-05T12:48:35.249Z</time></trkpt><trkpt lat="45.0111601" lon="8.021757"><ele>200.0</ele><time>2026-04-05T12:48:36.249Z</time></trkpt><trkpt lat="45.0112041" lon="8.0215822"><ele>200.0</ele><time>2026-04-05T12:48:37.249Z</time></trkpt><trkpt lat="45.0112502" lon="8.0214194"><ele>200.0</ele><time>2026-04-05T12:48:38.249Z</time></trkpt><trkpt lat="45.0113021" lon="8.0212603"><ele>200.0</ele><time>2026-04-05T12:48:39.249Z</time></trkpt><trkpt lat="45.0113647" lon="8.0211038"><ele>200.0</ele><time>2026-04-05T12:48:40.249Z</time></trkpt><trkpt lat="45.0114297" lon="8.020958"><ele>200.0</ele><time>2026-04-05T12:48:41.249Z</time></trkpt><trkpt lat="45.011493" lon="8.0208233"><ele>200.0</ele><time>2026-04-05T12:48:42.249Z</time></trkpt><trkpt lat="45.0115637" lon="8.0206884"><ele>200.0</ele><time>2026-04-05T12:48:43.249Z</time></trkpt><trkpt lat="45.0116303" lon="8.0205599"><ele>201.2</ele><time>2026-04-05T12:48:44.248Z</time></trkpt><trkpt lat="45.0117032" lon="8.0204396"><ele>202.4</ele><time>2026-04-05T12:48:45.249Z</time></trkpt><trkpt lat="45.0117689" lon="8.0203316"><ele>203.60000000000002</ele><time>2026-04-05T12:48:46.249Z</time></trkpt><trkpt lat="45.0118323" lon="8.0202419"><ele>204.8</ele><time>2026-04-05T12:48:47.249Z</time></trkpt><trkpt lat="45.0118866" lon="8.0201593"><ele>206.0</ele><time>2026-04-05T12:48:48.249Z</time></trkpt><trkpt lat="45.0119414" lon="8.0200884"><ele>206.0</ele><time>2026-04-05T12:48:49.249Z</time></trkpt><trkpt lat="45.0119996" lon="8.0199844"><ele>206.0</ele><time>2026-04-05T12:48:51.249Z</time></trkpt><trkpt lat="45.011853" lon="8.0199278"><ele>206.0</ele><time>2026-04-05T12:48:58.249Z</time></trkpt><trkpt lat="45.0117503" lon="8.019957"><ele>206.0</ele><time>2026-04-05T12:49:00.249Z</time></trkpt><trkpt lat="45.0116233" lon="8.0199719"><ele>206.83333333333334</ele><time>2026-04-05T12:49:02.249Z</time></trkpt><trkpt lat="45.0115508" lon="8.01998"><ele>207.66666666666669</ele><time>2026-04-05T12:49:03.249Z</time></trkpt><trkpt lat="45.0114782" lon="8.0199826"><ele>208.5</ele><time>2026-04-05T12:49:04.249Z</time></trkpt><trkpt lat="45.0114135" lon="8.0199948"><ele>209.33333333333331</ele><time>2026-04-05T12:49:05.249Z</time></trkpt><trkpt lat="45.0113479" lon="8.0200041"><ele>210.16666666666666</ele><time>2026-04-05T12:49:06.249Z</time></trkpt><trkpt lat="45.0112264" lon="8.0200263"><ele>211.0</ele><time>2026-04-05T12:49:08.249Z</time></trkpt><trkpt lat="45.0111661" lon="8.0200521"><ele>211.0</ele><time>2026-04-05T12:49:09.249Z</time></trkpt><trkpt lat="45.0111033" lon="8.0200809"><ele>211.0</ele><time>2026-04-05T12:49:10.249Z</time></trkpt><trkpt lat="45.0109981" lon="8.0201455"><ele>211.0</ele><time>2026-04-05T12:49:12.249Z</time></trkpt><trkpt lat="45.0108583" lon="8.0202231"><ele>211.0</ele><time>2026-04-05T12:49:16.249Z</time></trkpt><trkpt lat="45.0107785" lon="8.0202697"><ele>211.0</ele><time>2026-04-05T12:49:18.249Z</time></trkpt><trkpt lat="45.0107019" lon="8.0203008"><ele>212.16666666666666</ele><time>2026-04-05T12:49:20.249Z</time></trkpt><trkpt lat="45.0106276" lon="8.0203252"><ele>213.33333333333331</ele><time>2026-04-05T12:49:22.249Z</time></trkpt><trkpt lat="45.0105299" lon="8.0203632"><ele>214.5</ele><time>2026-04-05T12:49:24.249Z</time></trkpt><trkpt lat="45.0104611" lon="8.0203839"><ele>215.66666666666669</ele><time>2026-04-05T12:49:25.249Z</time></trkpt><trkpt lat="45.0103702" lon="8.0204093"><ele>216.83333333333334</ele><time>2026-04-05T12:49:26.249Z</time></trkpt><trkpt lat="45.0102821" lon="8.0204419"><ele>218.0</ele><time>2026-04-05T12:49:27.249Z</time></trkpt><trkpt lat="45.0102007" lon="8.0204805"><ele>218.00000000000003</ele><time>2026-04-05T12:49:28.249Z</time></trkpt><trkpt lat="45.0101241" lon="8.0205191"><ele>218.0</ele><time>2026-04-05T12:49:29.249Z</time></trkpt><trkpt lat="45.0100458" lon="8.0205495"><ele>218.0</ele><time>2026-04-05T12:49:30.249Z</time></trkpt><trkpt lat="45.0099613" lon="8.0205733"><ele>218.0</ele><time>2026-04-05T12:49:31.249Z</time></trkpt><trkpt lat="45.0098666" lon="8.0205921"><ele>218.00000000000003</ele><time>2026-04-05T12:49:32.249Z</time></trkpt><trkpt lat="45.0097828" lon="8.0205922"><ele>218.0</ele><time>2026-04-05T12:49:33.249Z</time></trkpt><trkpt lat="45.0096023" lon="8.0205802"><ele>216.83333333333334</ele><time>2026-04-05T12:49:35.249Z</time></trkpt><trkpt lat="45.0095171" lon="8.0205706"><ele>215.66666666666669</ele><time>2026-04-05T12:49:36.249Z</time></trkpt><trkpt lat="45.0094336" lon="8.0205734"><ele>214.5</ele><time>2026-04-05T12:49:37.248Z</time></trkpt><trkpt lat="45.0093561" lon="8.0205769"><ele>213.33333333333331</ele><time>2026-04-05T12:49:38.249Z</time></trkpt><trkpt lat="45.0092844" lon="8.0205758"><ele>212.16666666666666</ele><time>2026-04-05T12:49:39.249Z</time></trkpt><trkpt lat="45.0092157" lon="8.0205616"><ele>211.0</ele><time>2026-04-05T12:49:40.249Z</time></trkpt><trkpt lat="45.0091452" lon="8.0205451"><ele>210.33333333333331</ele><time>2026-04-05T12:49:41.249Z</time></trkpt><trkpt lat="45.009077" lon="8.0205198"><ele>209.66666666666666</ele><time>2026-04-05T12:49:42.249Z</time></trkpt><trkpt lat="45.0090053" lon="8.0204871"><ele>209.0</ele><time>2026-04-05T12:49:43.249Z</time></trkpt><trkpt lat="45.0089401" lon="8.0204567"><ele>208.33333333333331</ele><time>2026-04-05T12:49:44.249Z</time></trkpt><trkpt lat="45.0088379" lon="8.0203879"><ele>207.66666666666666</ele><time>2026-04-05T12:49:46.249Z</time></trkpt><trkpt lat="45.0087568" lon="8.0202896"><ele>207.0</ele><time>2026-04-05T12:49:48.249Z</time></trkpt><trkpt lat="45.0087036" lon="8.0202135"><ele>207.0</ele><time>2026-04-05T12:49:49.249Z</time></trkpt><trkpt lat="45.0086587" lon="8.0201226"><ele>207.0</ele><time>2026-04-05T12:49:50.249Z</time></trkpt><trkpt lat="45.0086175" lon="8.0200221"><ele>207.0</ele><time>2026-04-05T12:49:51.249Z</time></trkpt><trkpt lat="45.008574" lon="8.0199243"><ele>207.0</ele><time>2026-04-05T12:49:52.249Z</time></trkpt><trkpt lat="45.008526" lon="8.0198416"><ele>207.0</ele><time>2026-04-05T12:49:53.249Z</time></trkpt><trkpt lat="45.0084611" lon="8.019777"><ele>207.0</ele><time>2026-04-05T12:49:54.249Z</time></trkpt><trkpt lat="45.008285" lon="8.0195866"><ele>209.0</ele><time>2026-04-05T12:49:56.249Z</time></trkpt><trkpt lat="45.0081976" lon="8.0194898"><ele>211.0</ele><time>2026-04-05T12:49:57.249Z</time></trkpt><trkpt lat="45.0080962" lon="8.0194138"><ele>213.0</ele><time>2026-04-05T12:49:58.249Z</time></trkpt><trkpt lat="45.0079813" lon="8.0193475"><ele>215.0</ele><time>2026-04-05T12:49:59.249Z</time></trkpt><trkpt lat="45.0078699" lon="8.0192839"><ele>215.0</ele><time>2026-04-05T12:50:00.249Z</time></trkpt><trkpt lat="45.0077608" lon="8.0192357"><ele>215.0</ele><time>2026-04-05T12:50:01.249Z</time></trkpt><trkpt lat="45.0076568" lon="8.0192096"><ele>215.0</ele><time>2026-04-05T12:50:02.249Z</time></trkpt><trkpt lat="45.0075688" lon="8.0191986"><ele>215.0</ele><time>2026-04-05T12:50:03.249Z</time></trkpt><trkpt lat="45.0074868" lon="8.019197"><ele>215.0</ele><time>2026-04-05T12:50:04.249Z</time></trkpt><trkpt lat="45.007417" lon="8.0192054"><ele>214.85714285714286</ele><time>2026-04-05T12:50:05.249Z</time></trkpt><trkpt lat="45.0073487" lon="8.0192071"><ele>214.71428571428572</ele><time>2026-04-05T12:50:06.249Z</time></trkpt><trkpt lat="45.0072828" lon="8.0192068"><ele>214.57142857142858</ele><time>2026-04-05T12:50:07.249Z</time></trkpt><trkpt lat="45.0072195" lon="8.0192118"><ele>214.42857142857144</ele><time>2026-04-05T12:50:08.249Z</time></trkpt><trkpt lat="45.0071552" lon="8.0192206"><ele>214.28571428571428</ele><time>2026-04-05T12:50:09.249Z</time></trkpt><trkpt lat="45.0070867" lon="8.019232"><ele>214.14285714285717</ele><time>2026-04-05T12:50:10.249Z</time></trkpt><trkpt lat="45.0070126" lon="8.0192399"><ele>214.0</ele><time>2026-04-05T12:50:11.249Z</time></trkpt><trkpt lat="45.0069277" lon="8.0192474"><ele>214.0</ele><time>2026-04-05T12:50:12.249Z</time></trkpt><trkpt lat="45.0068406" lon="8.0192476"><ele>213.99999999999997</ele><time>2026-04-05T12:50:13.249Z</time></trkpt><trkpt lat="45.0067449" lon="8.0192509"><ele>213.99999999999997</ele><time>2026-04-05T12:50:14.249Z</time></trkpt><trkpt lat="45.0066606" lon="8.0192731"><ele>214.0</ele><time>2026-04-05T12:50:15.249Z</time></trkpt><trkpt lat="45.0064985" lon="8.0193299"><ele>214.0</ele><time>2026-04-05T12:50:17.249Z</time></trkpt><trkpt lat="45.0064336" lon="8.0193573"><ele>213.0</ele><time>2026-04-05T12:50:18.249Z</time></trkpt><trkpt lat="45.0063345" lon="8.0194065"><ele>211.99999999999997</ele><time>2026-04-05T12:50:20.249Z</time></trkpt><trkpt lat="45.0062275" lon="8.0194297"><ele>211.0</ele><time>2026-04-05T12:50:22.249Z</time></trkpt><trkpt lat="45.0061634" lon="8.0194279"><ele>210.0</ele><time>2026-04-05T12:50:23.249Z</time></trkpt><trkpt lat="45.0060571" lon="8.0193792"><ele>209.0</ele><time>2026-04-05T12:50:25.249Z</time></trkpt><trkpt lat="45.0059606" lon="8.0192896"><ele>209.0</ele><time>2026-04-05T12:50:27.249Z</time></trkpt><trkpt lat="45.0058619" lon="8.0191888"><ele>209.0</ele><time>2026-04-05T12:50:29.249Z</time></trkpt><trkpt lat="45.0058008" lon="8.0191535"><ele>209.0</ele><time>2026-04-05T12:50:30.249Z</time></trkpt><trkpt lat="45.0057289" lon="8.0191294"><ele>209.0</ele><time>2026-04-05T12:50:31.249Z</time></trkpt><trkpt lat="45.0056408" lon="8.0191212"><ele>209.0</ele><time>2026-04-05T12:50:32.249Z</time></trkpt><trkpt lat="45.0055378" lon="8.0191297"><ele>210.25</ele><time>2026-04-05T12:50:33.249Z</time></trkpt><trkpt lat="45.0054295" lon="8.0191373"><ele>211.5</ele><time>2026-04-05T12:50:34.249Z</time></trkpt><trkpt lat="45.0053235" lon="8.0191502"><ele>212.75</ele><time>2026-04-05T12:50:35.249Z</time></trkpt><trkpt lat="45.0052222" lon="8.0191706"><ele>214.0</ele><time>2026-04-05T12:50:36.249Z</time></trkpt><trkpt lat="45.0050388" lon="8.0192275"><ele>212.83333333333331</ele><time>2026-04-05T12:50:38.249Z</time></trkpt><trkpt lat="45.004954" lon="8.0192438"><ele>211.66666666666666</ele><time>2026-04-05T12:50:39.249Z</time></trkpt><trkpt lat="45.004879" lon="8.0192442"><ele>210.5</ele><time>2026-04-05T12:50:40.249Z</time></trkpt><trkpt lat="45.0047991" lon="8.0192299"><ele>209.33333333333331</ele><time>2026-04-05T12:50:41.249Z</time></trkpt><trkpt lat="45.0047141" lon="8.0191987"><ele>208.16666666666666</ele><time>2026-04-05T12:50:42.249Z</time></trkpt><trkpt lat="45.0046358" lon="8.019158"><ele>207.0</ele><time>2026-04-05T12:50:43.249Z</time></trkpt><trkpt lat="45.004567" lon="8.019115"><ele>207.0</ele><time>2026-04-05T12:50:44.249Z</time></trkpt><trkpt lat="45.0045026" lon="8.019084"><ele>207.0</ele><time>2026-04-05T12:50:45.249Z</time></trkpt><trkpt lat="45.0044002" lon="8.0190519"><ele>207.0</ele><time>2026-04-05T12:50:47.249Z</time></trkpt><trkpt lat="45.0042767" lon="8.0189854"><ele>207.0</ele><time>2026-04-05T12:50:49.249Z</time></trkpt><trkpt lat="45.0041864" lon="8.0189343"><ele>207.0</ele><time>2026-04-05T12:50:50.249Z</time></trkpt><trkpt lat="45.0040868" lon="8.0188756"><ele>203.75</ele><time>2026-04-05T12:50:51.249Z</time></trkpt><trkpt lat="45.0039824" lon="8.018813"><ele>200.5</ele><time>2026-04-05T12:50:52.249Z</time></trkpt><trkpt lat="45.0038742" lon="8.0187493"><ele>197.25</ele><time>2026-04-05T12:50:53.249Z</time></trkpt><trkpt lat="45.0037669" lon="8.0186901"><ele>194.0</ele><time>2026-04-05T12:50:54.249Z</time></trkpt><trkpt lat="45.0036665" lon="8.0186345"><ele>194.0</ele><time>2026-04-05T12:50:55.249Z</time></trkpt><trkpt lat="45.0035703" lon="8.0185733"><ele>194.0</ele><time>2026-04-05T12:50:56.249Z</time></trkpt><trkpt lat="45.0034748" lon="8.0185118"><ele>194.0</ele><time>2026-04-05T12:50:57.249Z</time></trkpt><trkpt lat="45.0032705" lon="8.0183801"><ele>194.0</ele><time>2026-04-05T12:50:59.249Z</time></trkpt><trkpt lat="45.0031721" lon="8.0183193"><ele>193.79999999999998</ele><time>2026-04-05T12:51:00.249Z</time></trkpt><trkpt lat="45.0030678" lon="8.0182496"><ele>193.6</ele><time>2026-04-05T12:51:01.249Z</time></trkpt><trkpt lat="45.0029678" lon="8.0181734"><ele>193.4</ele><time>2026-04-05T12:51:02.249Z</time></trkpt><trkpt lat="45.0028754" lon="8.0180906"><ele>193.2</ele><time>2026-04-05T12:51:03.249Z</time></trkpt><trkpt lat="45.0027852" lon="8.0180028"><ele>193.0</ele><time>2026-04-05T12:51:04.249Z</time></trkpt><trkpt lat="45.0026988" lon="8.0179128"><ele>193.0</ele><time>2026-04-05T12:51:05.249Z</time></trkpt><trkpt lat="45.0026168" lon="8.0178235"><ele>193.0</ele><time>2026-04-05T12:51:06.249Z</time></trkpt><trkpt lat="45.0025355" lon="8.0177359"><ele>193.0</ele><time>2026-04-05T12:51:07.249Z</time></trkpt><trkpt lat="45.002455" lon="8.0176529"><ele>193.0</ele><time>2026-04-05T12:51:08.249Z</time></trkpt><trkpt lat="45.0023746" lon="8.0175669"><ele>193.0</ele><time>2026-04-05T12:51:09.249Z</time></trkpt><trkpt lat="45.0022972" lon="8.0174718"><ele>194.2</ele><time>2026-04-05T12:51:10.249Z</time></trkpt><trkpt lat="45.002219" lon="8.0173933"><ele>195.4</ele><time>2026-04-05T12:51:11.249Z</time></trkpt><trkpt lat="45.0021343" lon="8.0173134"><ele>196.6</ele><time>2026-04-05T12:51:12.249Z</time></trkpt><trkpt lat="45.0020529" lon="8.0172355"><ele>197.79999999999998</ele><time>2026-04-05T12:51:13.249Z</time></trkpt><trkpt lat="45.0019729" lon="8.0171683"><ele>199.0</ele><time>2026-04-05T12:51:14.249Z</time></trkpt><trkpt lat="45.0019031" lon="8.0171148"><ele>199.0</ele><time>2026-04-05T12:51:15.249Z</time></trkpt><trkpt lat="45.0018208" lon="8.0170795"><ele>199.0</ele><time>2026-04-05T12:51:16.249Z</time></trkpt><trkpt lat="45.0017295" lon="8.0170644"><ele>199.0</ele><time>2026-04-05T12:51:17.249Z</time></trkpt><trkpt lat="45.0016398" lon="8.0170581"><ele>199.0</ele><time>2026-04-05T12:51:18.249Z</time></trkpt><trkpt lat="45.0014606" lon="8.0170339"><ele>199.0</ele><time>2026-04-05T12:51:20.249Z</time></trkpt><trkpt lat="45.0013762" lon="8.0170087"><ele>199.0</ele><time>2026-04-05T12:51:21.249Z</time></trkpt><trkpt lat="45.0012918" lon="8.0169657"><ele>199.0</ele><time>2026-04-05T12:51:22.249Z</time></trkpt><trkpt lat="45.0012058" lon="8.0169043"><ele>199.0</ele><time>2026-04-05T12:51:23.249Z</time></trkpt><trkpt lat="45.0011193" lon="8.0168249"><ele>199.0</ele><time>2026-04-05T12:51:24.249Z</time></trkpt><trkpt lat="45.0010342" lon="8.0167225"><ele>199.0</ele><time>2026-04-05T12:51:25.249Z</time></trkpt><trkpt lat="45.0009541" lon="8.0165976"><ele>199.0</ele><time>2026-04-05T12:51:26.248Z</time></trkpt><trkpt lat="45.0008711" lon="8.0164821"><ele>199.0</ele><time>2026-04-05T12:51:27.249Z</time></trkpt><trkpt lat="45.0007883" lon="8.016372"><ele>199.0</ele><time>2026-04-05T12:51:28.249Z</time></trkpt><trkpt lat="45.0006968" lon="8.0162864"><ele>199.0</ele><time>2026-04-05T12:51:29.249Z</time></trkpt><trkpt lat="45.0006161" lon="8.0161942"><ele>199.0</ele><time>2026-04-05T12:51:30.249Z</time></trkpt><trkpt lat="45.0005454" lon="8.0160974"><ele>198.6</ele><time>2026-04-05T12:51:31.249Z</time></trkpt><trkpt lat="45.0004859" lon="8.0160098"><ele>198.2</ele><time>2026-04-05T12:51:32.249Z</time></trkpt><trkpt lat="45.0004217" lon="8.015924"><ele>197.79999999999998</ele><time>2026-04-05T12:51:33.249Z</time></trkpt><trkpt lat="45.0003472" lon="8.0158408"><ele>197.39999999999998</ele><time>2026-04-05T12:51:34.249Z</time></trkpt><trkpt lat="45.0002496" lon="8.0157578"><ele>197.0</ele><time>2026-04-05T12:51:35.249Z</time></trkpt><trkpt lat="45.0001383" lon="8.0156803"><ele>200.25</ele><time>2026-04-05T12:51:36.249Z</time></trkpt><trkpt lat="45.0000205" lon="8.0155977"><ele>203.5</ele><time>2026-04-05T12:51:37.249Z</time></trkpt><trkpt lat="44.9999112" lon="8.0155223"><ele>206.75</ele><time>2026-04-05T12:51:38.249Z</time></trkpt><trkpt lat="44.9997924" lon="8.0154772"><ele>210.0</ele><time>2026-04-05T12:51:39.249Z</time></trkpt><trkpt lat="44.999548" lon="8.0154795"><ele>210.0</ele><time>2026-04-05T12:51:41.249Z</time></trkpt><trkpt lat="44.9994349" lon="8.0154953"><ele>210.0</ele><time>2026-04-05T12:51:42.249Z</time></trkpt><trkpt lat="44.9993263" lon="8.015514"><ele>210.0</ele><time>2026-04-05T12:51:43.249Z</time></trkpt><trkpt lat="44.9992193" lon="8.015535"><ele>210.0</ele><time>2026-04-05T12:51:44.249Z</time></trkpt><trkpt lat="44.9991176" lon="8.0155441"><ele>210.0</ele><time>2026-04-05T12:51:45.249Z</time></trkpt><trkpt lat="44.9990202" lon="8.0155342"><ele>208.33333333333334</ele><time>2026-04-05T12:51:46.249Z</time></trkpt><trkpt lat="44.9989248" lon="8.0155115"><ele>206.66666666666669</ele><time>2026-04-05T12:51:47.249Z</time></trkpt><trkpt lat="44.9988434" lon="8.01548"><ele>205.0</ele><time>2026-04-05T12:51:48.249Z</time></trkpt><trkpt lat="44.9987837" lon="8.0154346"><ele>203.33333333333334</ele><time>2026-04-05T12:51:49.249Z</time></trkpt><trkpt lat="44.9987378" lon="8.0153289"><ele>201.66666666666669</ele><time>2026-04-05T12:51:51.249Z</time></trkpt><trkpt lat="44.9987771" lon="8.0151892"><ele>200.0</ele><time>2026-04-05T12:51:53.249Z</time></trkpt><trkpt lat="44.9988147" lon="8.0150882"><ele>201.0</ele><time>2026-04-05T12:51:54.249Z</time></trkpt><trkpt lat="44.9988537" lon="8.0149747"><ele>202.0</ele><time>2026-04-05T12:51:55.249Z</time></trkpt><trkpt lat="44.9988902" lon="8.0148384"><ele>203.0</ele><time>2026-04-05T12:51:56.249Z</time></trkpt><trkpt lat="44.9989369" lon="8.0146851"><ele>204.0</ele><time>2026-04-05T12:51:57.249Z</time></trkpt><trkpt lat="44.9989775" lon="8.014513"><ele>205.0</ele><time>2026-04-05T12:51:58.249Z</time></trkpt><trkpt lat="44.9990237" lon="8.0143256"><ele>204.0</ele><time>2026-04-05T12:51:59.248Z</time></trkpt><trkpt lat="44.9990725" lon="8.014153"><ele>203.0</ele><time>2026-04-05T12:52:00.249Z</time></trkpt><trkpt lat="44.9991353" lon="8.0139132"><ele>202.0</ele><time>2026-04-05T12:52:02.249Z</time></trkpt><trkpt lat="44.9991826" lon="8.0138177"><ele>201.0</ele><time>2026-04-05T12:52:04.249Z</time></trkpt><trkpt lat="44.9991254" lon="8.0137273"><ele>201.0</ele><time>2026-04-05T12:52:07.249Z</time></trkpt><trkpt lat="44.9989938" lon="8.0136386"><ele>201.0</ele><time>2026-04-05T12:52:09.249Z</time></trkpt><trkpt lat="44.9988959" lon="8.01359"><ele>201.0</ele><time>2026-04-05T12:52:10.249Z</time></trkpt><trkpt lat="44.9987718" lon="8.013572"><ele>201.0</ele><time>2026-04-05T12:52:11.249Z</time></trkpt><trkpt lat="44.9986396" lon="8.0135776"><ele>201.0</ele><time>2026-04-05T12:52:12.249Z</time></trkpt><trkpt lat="44.9985198" lon="8.0135988"><ele>201.0</ele><time>2026-04-05T12:52:13.249Z</time></trkpt><trkpt lat="44.998411" lon="8.013641"><ele>201.0</ele><time>2026-04-05T12:52:14.249Z</time></trkpt><trkpt lat="44.9983127" lon="8.0136874"><ele>201.0</ele><time>2026-04-05T12:52:15.249Z</time></trkpt><trkpt lat="44.9982251" lon="8.0137417"><ele>201.0</ele><time>2026-04-05T12:52:16.248Z</time></trkpt><trkpt lat="44.9981525" lon="8.0137689"><ele>200.60000000000002</ele><time>2026-04-05T12:52:17.249Z</time></trkpt><trkpt lat="44.9980752" lon="8.0137651"><ele>200.2</ele><time>2026-04-05T12:52:18.249Z</time></trkpt><trkpt lat="44.9979958" lon="8.0137539"><ele>199.8</ele><time>2026-04-05T12:52:19.249Z</time></trkpt><trkpt lat="44.997908" lon="8.0137272"><ele>199.39999999999998</ele><time>2026-04-05T12:52:20.249Z</time></trkpt><trkpt lat="44.9978162" lon="8.0136916"><ele>199.0</ele><time>2026-04-05T12:52:21.249Z</time></trkpt><trkpt lat="44.9976115" lon="8.0136361"><ele>199.0</ele><time>2026-04-05T12:52:23.249Z</time></trkpt><trkpt lat="44.9975174" lon="8.0135892"><ele>199.0</ele><time>2026-04-05T12:52:24.249Z</time></trkpt><trkpt lat="44.9974284" lon="8.0135161"><ele>199.0</ele><time>2026-04-05T12:52:25.249Z</time></trkpt><trkpt lat="44.9973384" lon="8.0134359"><ele>199.0</ele><time>2026-04-05T12:52:26.249Z</time></trkpt><trkpt lat="44.9972504" lon="8.0133658"><ele>199.0</ele><time>2026-04-05T12:52:27.249Z</time></trkpt><trkpt lat="44.9971677" lon="8.0132998"><ele>197.2</ele><time>2026-04-05T12:52:28.249Z</time></trkpt><trkpt lat="44.9970827" lon="8.013231"><ele>195.39999999999998</ele><time>2026-04-05T12:52:29.249Z</time></trkpt><trkpt lat="44.9969958" lon="8.0131559"><ele>193.6</ele><time>2026-04-05T12:52:30.249Z</time></trkpt><trkpt lat="44.9969179" lon="8.0130726"><ele>191.8</ele><time>2026-04-05T12:52:31.249Z</time></trkpt><trkpt lat="44.9968366" lon="8.0129845"><ele>190.0</ele><time>2026-04-05T12:52:32.249Z</time></trkpt><trkpt lat="44.9967653" lon="8.0128772"><ele>190.0</ele><time>2026-04-05T12:52:33.249Z</time></trkpt><trkpt lat="44.9967038" lon="8.0127548"><ele>190.0</ele><time>2026-04-05T12:52:34.249Z</time></trkpt><trkpt lat="44.9966466" lon="8.0126248"><ele>190.0</ele><time>2026-04-05T12:52:35.249Z</time></trkpt><trkpt lat="44.9966006" lon="8.0124925"><ele>190.0</ele><time>2026-04-05T12:52:36.249Z</time></trkpt><trkpt lat="44.9965612" lon="8.0123653"><ele>190.0</ele><time>2026-04-05T12:52:37.249Z</time></trkpt><trkpt lat="44.9965297" lon="8.0122499"><ele>189.8</ele><time>2026-04-05T12:52:38.249Z</time></trkpt><trkpt lat="44.9965111" lon="8.0121557"><ele>189.6</ele><time>2026-04-05T12:52:39.249Z</time></trkpt><trkpt lat="44.9964769" lon="8.0119906"><ele>189.39999999999998</ele><time>2026-04-05T12:52:41.249Z</time></trkpt><trkpt lat="44.9964578" lon="8.0118713"><ele>189.2</ele><time>2026-04-05T12:52:43.249Z</time></trkpt><trkpt lat="44.9964009" lon="8.0116493"><ele>189.0</ele><time>2026-04-05T12:52:46.249Z</time></trkpt><trkpt lat="44.9963789" lon="8.0115278"><ele>188.25</ele><time>2026-04-05T12:52:47.249Z</time></trkpt><trkpt lat="44.9963581" lon="8.0113848"><ele>187.5</ele><time>2026-04-05T12:52:48.249Z</time></trkpt><trkpt lat="44.9963278" lon="8.0112298"><ele>186.75</ele><time>2026-04-05T12:52:49.249Z</time></trkpt><trkpt lat="44.996294" lon="8.0110607"><ele>186.0</ele><time>2026-04-05T12:52:50.249Z</time></trkpt><trkpt lat="44.9962631" lon="8.0108946"><ele>186.75</ele><time>2026-04-05T12:52:51.249Z</time></trkpt><trkpt lat="44.9962364" lon="8.01072"><ele>187.5</ele><time>2026-04-05T12:52:52.249Z</time></trkpt><trkpt lat="44.9962069" lon="8.0105561"><ele>188.25</ele><time>2026-04-05T12:52:53.249Z</time></trkpt><trkpt lat="44.9961801" lon="8.0104105"><ele>189.0</ele><time>2026-04-05T12:52:54.249Z</time></trkpt><trkpt lat="44.9961573" lon="8.0102631"><ele>189.0</ele><time>2026-04-05T12:52:55.249Z</time></trkpt><trkpt lat="44.9961273" lon="8.0101047"><ele>189.0</ele><time>2026-04-05T12:52:56.249Z</time></trkpt><trkpt lat="44.9960942" lon="8.0099386"><ele>189.0</ele><time>2026-04-05T12:52:57.249Z</time></trkpt><trkpt lat="44.9960598" lon="8.0097693"><ele>189.0</ele><time>2026-04-05T12:52:58.249Z</time></trkpt><trkpt lat="44.9960311" lon="8.0096055"><ele>190.75</ele><time>2026-04-05T12:52:59.249Z</time></trkpt><trkpt lat="44.996007" lon="8.0094557"><ele>192.5</ele><time>2026-04-05T12:53:00.249Z</time></trkpt><trkpt lat="44.9959746" lon="8.009304"><ele>194.25</ele><time>2026-04-05T12:53:01.249Z</time></trkpt><trkpt lat="44.9959382" lon="8.0091477"><ele>196.0</ele><time>2026-04-05T12:53:02.249Z</time></trkpt><trkpt lat="44.9958993" lon="8.0089847"><ele>197.33333333333331</ele><time>2026-04-05T12:53:03.249Z</time></trkpt><trkpt lat="44.9958474" lon="8.0088026"><ele>198.66666666666669</ele><time>2026-04-05T12:53:04.249Z</time></trkpt><trkpt lat="44.995761" lon="8.0084331"><ele>200.0</ele><time>2026-04-05T12:53:06.249Z</time></trkpt><trkpt lat="44.9957266" lon="8.0082731"><ele>201.8</ele><time>2026-04-05T12:53:07.249Z</time></trkpt><trkpt lat="44.9956965" lon="8.0081362"><ele>203.6</ele><time>2026-04-05T12:53:08.249Z</time></trkpt><trkpt lat="44.9956799" lon="8.0080135"><ele>205.39999999999998</ele><time>2026-04-05T12:53:09.249Z</time></trkpt><trkpt lat="44.9956543" lon="8.0078822"><ele>207.2</ele><time>2026-04-05T12:53:10.249Z</time></trkpt><trkpt lat="44.9956355" lon="8.007755"><ele>209.0</ele><time>2026-04-05T12:53:11.249Z</time></trkpt><trkpt lat="44.9956142" lon="8.0076295"><ele>210.6</ele><time>2026-04-05T12:53:12.249Z</time></trkpt><trkpt lat="44.995599" lon="8.0074881"><ele>212.2</ele><time>2026-04-05T12:53:13.249Z</time></trkpt><trkpt lat="44.9955902" lon="8.0073317"><ele>213.79999999999998</ele><time>2026-04-05T12:53:14.249Z</time></trkpt><trkpt lat="44.9955902" lon="8.007173"><ele>215.39999999999998</ele><time>2026-04-05T12:53:15.249Z</time></trkpt><trkpt lat="44.9956052" lon="8.0070221"><ele>217.0</ele><time>2026-04-05T12:53:16.249Z</time></trkpt><trkpt lat="44.9956304" lon="8.0068826"><ele>217.0</ele><time>2026-04-05T12:53:17.249Z</time></trkpt><trkpt lat="44.9956616" lon="8.0067576"><ele>217.0</ele><time>2026-04-05T12:53:18.249Z</time></trkpt><trkpt lat="44.9956934" lon="8.0066426"><ele>217.0</ele><time>2026-04-05T12:53:19.249Z</time></trkpt><trkpt lat="44.995746" lon="8.0065279"><ele>217.0</ele><time>2026-04-05T12:53:20.249Z</time></trkpt><trkpt lat="44.9958082" lon="8.0064037"><ele>217.0</ele><time>2026-04-05T12:53:21.249Z</time></trkpt><trkpt lat="44.9958761" lon="8.0062803"><ele>219.25</ele><time>2026-04-05T12:53:22.249Z</time></trkpt><trkpt lat="44.9959515" lon="8.0061507"><ele>221.5</ele><time>2026-04-05T12:53:23.249Z</time></trkpt><trkpt lat="44.9960345" lon="8.0060104"><ele>223.75</ele><time>2026-04-05T12:53:24.249Z</time></trkpt><trkpt lat="44.9961163" lon="8.0058707"><ele>226.0</ele><time>2026-04-05T12:53:25.249Z</time></trkpt><trkpt lat="44.9962738" lon="8.0056523"><ele>226.0</ele><time>2026-04-05T12:53:27.249Z</time></trkpt><trkpt lat="44.9963559" lon="8.0055518"><ele>226.00000000000003</ele><time>2026-04-05T12:53:28.249Z</time></trkpt><trkpt lat="44.9964436" lon="8.0054525"><ele>226.00000000000003</ele><time>2026-04-05T12:53:29.249Z</time></trkpt><trkpt lat="44.9965314" lon="8.0053485"><ele>226.0</ele><time>2026-04-05T12:53:30.249Z</time></trkpt><trkpt lat="44.9966135" lon="8.0052482"><ele>226.0</ele><time>2026-04-05T12:53:31.249Z</time></trkpt><trkpt lat="44.9966937" lon="8.0051808"><ele>229.60000000000002</ele><time>2026-04-05T12:53:32.249Z</time></trkpt><trkpt lat="44.9967762" lon="8.0051234"><ele>233.20000000000002</ele><time>2026-04-05T12:53:33.249Z</time></trkpt><trkpt lat="44.9968671" lon="8.0050719"><ele>236.79999999999998</ele><time>2026-04-05T12:53:34.249Z</time></trkpt><trkpt lat="44.9969668" lon="8.0050206"><ele>240.39999999999998</ele><time>2026-04-05T12:53:35.249Z</time></trkpt><trkpt lat="44.997065" lon="8.0049519"><ele>244.0</ele><time>2026-04-05T12:53:36.249Z</time></trkpt><trkpt lat="44.997159" lon="8.0048776"><ele>244.0</ele><time>2026-04-05T12:53:37.249Z</time></trkpt><trkpt lat="44.997251" lon="8.0047852"><ele>244.0</ele><time>2026-04-05T12:53:38.249Z</time></trkpt><trkpt lat="44.9973397" lon="8.0046771"><ele>244.0</ele><time>2026-04-05T12:53:39.249Z</time></trkpt><trkpt lat="44.9974227" lon="8.0045694"><ele>244.0</ele><time>2026-04-05T12:53:40.249Z</time></trkpt><trkpt lat="44.9975108" lon="8.0044783"><ele>244.79999999999998</ele><time>2026-04-05T12:53:41.248Z</time></trkpt><trkpt lat="44.9976064" lon="8.0044057"><ele>245.59999999999997</ele><time>2026-04-05T12:53:42.249Z</time></trkpt><trkpt lat="44.9976914" lon="8.004336"><ele>246.4</ele><time>2026-04-05T12:53:43.249Z</time></trkpt><trkpt lat="44.9977643" lon="8.0042735"><ele>247.2</ele><time>2026-04-05T12:53:44.249Z</time></trkpt><trkpt lat="44.9978148" lon="8.0042003"><ele>248.0</ele><time>2026-04-05T12:53:45.249Z</time></trkpt><trkpt lat="44.9978597" lon="8.0040317"><ele>248.0</ele><time>2026-04-05T12:53:47.249Z</time></trkpt><trkpt lat="44.9978776" lon="8.0037881"><ele>248.0</ele><time>2026-04-05T12:53:49.249Z</time></trkpt><trkpt lat="44.9978883" lon="8.0036358"><ele>248.0</ele><time>2026-04-05T12:53:50.249Z</time></trkpt><trkpt lat="44.9978968" lon="8.0034906"><ele>248.0</ele><time>2026-04-05T12:53:51.249Z</time></trkpt><trkpt lat="44.9979118" lon="8.0033812"><ele>247.4</ele><time>2026-04-05T12:53:52.249Z</time></trkpt><trkpt lat="44.9979274" lon="8.003218"><ele>246.8</ele><time>2026-04-05T12:53:54.249Z</time></trkpt><trkpt lat="44.9979087" lon="8.0031093"><ele>246.2</ele><time>2026-04-05T12:53:55.249Z</time></trkpt><trkpt lat="44.9978906" lon="8.0029808"><ele>245.6</ele><time>2026-04-05T12:53:56.249Z</time></trkpt><trkpt lat="44.9978757" lon="8.0028429"><ele>245.0</ele><time>2026-04-05T12:53:57.249Z</time></trkpt><trkpt lat="44.9978525" lon="8.0027018"><ele>245.0</ele><time>2026-04-05T12:53:58.249Z</time></trkpt><trkpt lat="44.997823" lon="8.0025538"><ele>245.0</ele><time>2026-04-05T12:53:59.249Z</time></trkpt><trkpt lat="44.9977894" lon="8.002397"><ele>245.0</ele><time>2026-04-05T12:54:00.249Z</time></trkpt><trkpt lat="44.9977585" lon="8.0022315"><ele>245.0</ele><time>2026-04-05T12:54:01.249Z</time></trkpt><trkpt lat="44.9977321" lon="8.0020648"><ele>244.0</ele><time>2026-04-05T12:54:02.249Z</time></trkpt><trkpt lat="44.9977078" lon="8.0019048"><ele>243.0</ele><time>2026-04-05T12:54:03.249Z</time></trkpt><trkpt lat="44.9976914" lon="8.0017339"><ele>242.0</ele><time>2026-04-05T12:54:04.249Z</time></trkpt><trkpt lat="44.9976822" lon="8.0015494"><ele>241.0</ele><time>2026-04-05T12:54:05.249Z</time></trkpt><trkpt lat="44.9976737" lon="8.0013525"><ele>245.33333333333331</ele><time>2026-04-05T12:54:06.249Z</time></trkpt><trkpt lat="44.9976704" lon="8.0011543"><ele>249.66666666666669</ele><time>2026-04-05T12:54:07.249Z</time></trkpt><trkpt lat="44.9976773" lon="8.0009507"><ele>254.0</ele><time>2026-04-05T12:54:08.249Z</time></trkpt><trkpt lat="44.9977135" lon="8.0005805"><ele>258.25</ele><time>2026-04-05T12:54:10.249Z</time></trkpt><trkpt lat="44.9977187" lon="8.0003955"><ele>262.5</ele><time>2026-04-05T12:54:11.249Z</time></trkpt><trkpt lat="44.9977179" lon="8.0002285"><ele>266.75</ele><time>2026-04-05T12:54:12.249Z</time></trkpt><trkpt lat="44.9977146" lon="8.000081"><ele>271.0</ele><time>2026-04-05T12:54:13.249Z</time></trkpt><trkpt lat="44.9977194" lon="7.999943"><ele>271.0</ele><time>2026-04-05T12:54:14.249Z</time></trkpt><trkpt lat="44.9977415" lon="7.9997942"><ele>271.0</ele><time>2026-04-05T12:54:15.249Z</time></trkpt><trkpt lat="44.9977789" lon="7.9996463"><ele>271.0</ele><time>2026-04-05T12:54:16.249Z</time></trkpt><trkpt lat="44.9978273" lon="7.9994979"><ele>271.0</ele><time>2026-04-05T12:54:17.249Z</time></trkpt><trkpt lat="44.9978805" lon="7.999357"><ele>271.0</ele><time>2026-04-05T12:54:18.249Z</time></trkpt><trkpt lat="44.9979294" lon="7.9992266"><ele>270.2</ele><time>2026-04-05T12:54:19.249Z</time></trkpt><trkpt lat="44.9979744" lon="7.9991011"><ele>269.40000000000003</ele><time>2026-04-05T12:54:20.248Z</time></trkpt><trkpt lat="44.9980185" lon="7.9989705"><ele>268.6</ele><time>2026-04-05T12:54:21.249Z</time></trkpt><trkpt lat="44.9980644" lon="7.9988385"><ele>267.8</ele><time>2026-04-05T12:54:22.249Z</time></trkpt><trkpt lat="44.9981159" lon="7.9987116"><ele>267.0</ele><time>2026-04-05T12:54:23.249Z</time></trkpt><trkpt lat="44.9981755" lon="7.998591"><ele>267.0</ele><time>2026-04-05T12:54:24.249Z</time></trkpt><trkpt lat="44.9982496" lon="7.9984692"><ele>267.0</ele><time>2026-04-05T12:54:25.249Z</time></trkpt><trkpt lat="44.9983435" lon="7.9983551"><ele>267.0</ele><time>2026-04-05T12:54:26.249Z</time></trkpt><trkpt lat="44.9984418" lon="7.9982425"><ele>267.0</ele><time>2026-04-05T12:54:27.249Z</time></trkpt><trkpt lat="44.9985389" lon="7.9981309"><ele>260.6666666666667</ele><time>2026-04-05T12:54:28.249Z</time></trkpt><trkpt lat="44.9986321" lon="7.9980166"><ele>254.33333333333334</ele><time>2026-04-05T12:54:29.249Z</time></trkpt><trkpt lat="44.9988194" lon="7.9978277"><ele>248.0</ele><time>2026-04-05T12:54:31.249Z</time></trkpt><trkpt lat="44.9989026" lon="7.9977389"><ele>248.00000000000003</ele><time>2026-04-05T12:54:32.249Z</time></trkpt><trkpt lat="44.9989736" lon="7.9976547"><ele>248.0</ele><time>2026-04-05T12:54:33.249Z</time></trkpt><trkpt lat="44.9990394" lon="7.997578"><ele>248.0</ele><time>2026-04-05T12:54:34.249Z</time></trkpt><trkpt lat="44.9990966" lon="7.9975125"><ele>248.0</ele><time>2026-04-05T12:54:35.249Z</time></trkpt><trkpt lat="44.9991474" lon="7.997458"><ele>248.00000000000003</ele><time>2026-04-05T12:54:36.249Z</time></trkpt><trkpt lat="44.9992123" lon="7.997333"><ele>248.0</ele><time>2026-04-05T12:54:38.249Z</time></trkpt><trkpt lat="44.9992167" lon="7.9972233"><ele>246.8</ele><time>2026-04-05T12:54:41.249Z</time></trkpt><trkpt lat="44.9992236" lon="7.9970574"><ele>245.60000000000002</ele><time>2026-04-05T12:54:59.249Z</time></trkpt><trkpt lat="44.999216" lon="7.9968525"><ele>244.39999999999998</ele><time>2026-04-05T12:55:01.249Z</time></trkpt><trkpt lat="44.9992017" lon="7.9967482"><ele>243.2</ele><time>2026-04-05T12:55:02.249Z</time></trkpt><trkpt lat="44.9991827" lon="7.9966481"><ele>242.0</ele><time>2026-04-05T12:55:03.249Z</time></trkpt><trkpt lat="44.9991612" lon="7.9965591"><ele>245.00000000000003</ele><time>2026-04-05T12:55:04.249Z</time></trkpt><trkpt lat="44.9991477" lon="7.996465"><ele>248.0</ele><time>2026-04-05T12:55:05.248Z</time></trkpt><trkpt lat="44.9991292" lon="7.9963675"><ele>251.0</ele><time>2026-04-05T12:55:06.249Z</time></trkpt><trkpt lat="44.9991116" lon="7.9962695"><ele>254.0</ele><time>2026-04-05T12:55:07.249Z</time></trkpt><trkpt lat="44.9990806" lon="7.9961637"><ele>257.0</ele><time>2026-04-05T12:55:08.249Z</time></trkpt><trkpt lat="44.9990433" lon="7.9960552"><ele>260.0</ele><time>2026-04-05T12:55:09.249Z</time></trkpt><trkpt lat="44.9990027" lon="7.9959397"><ele>261.0</ele><time>2026-04-05T12:55:10.249Z</time></trkpt><trkpt lat="44.9989503" lon="7.9958308"><ele>262.0</ele><time>2026-04-05T12:55:11.249Z</time></trkpt><trkpt lat="44.9989086" lon="7.995727"><ele>263.0</ele><time>2026-04-05T12:55:12.249Z</time></trkpt><trkpt lat="44.9988704" lon="7.9956109"><ele>264.0</ele><time>2026-04-05T12:55:13.249Z</time></trkpt><trkpt lat="44.9988373" lon="7.9954961"><ele>265.0</ele><time>2026-04-05T12:55:14.249Z</time></trkpt><trkpt lat="44.9987983" lon="7.9953764"><ele>266.0</ele><time>2026-04-05T12:55:15.249Z</time></trkpt><trkpt lat="44.9987594" lon="7.9952673"><ele>266.0</ele><time>2026-04-05T12:55:16.249Z</time></trkpt><trkpt lat="44.9987129" lon="7.9951762"><ele>266.0</ele><time>2026-04-05T12:55:17.249Z</time></trkpt><trkpt lat="44.9986613" lon="7.9951013"><ele>266.0</ele><time>2026-04-05T12:55:18.249Z</time></trkpt><trkpt lat="44.9986033" lon="7.9950467"><ele>266.0</ele><time>2026-04-05T12:55:19.249Z</time></trkpt><trkpt lat="44.9985374" lon="7.9950065"><ele>266.0</ele><time>2026-04-05T12:55:20.249Z</time></trkpt><trkpt lat="44.9983881" lon="7.9949783"><ele>266.0</ele><time>2026-04-05T12:55:22.249Z</time></trkpt><trkpt lat="44.9983101" lon="7.9949952"><ele>263.6</ele><time>2026-04-05T12:55:23.249Z</time></trkpt><trkpt lat="44.9982321" lon="7.9950349"><ele>261.20000000000005</ele><time>2026-04-05T12:55:24.249Z</time></trkpt><trkpt lat="44.9981453" lon="7.9950874"><ele>258.79999999999995</ele><time>2026-04-05T12:55:25.249Z</time></trkpt><trkpt lat="44.9980577" lon="7.9951516"><ele>256.4</ele><time>2026-04-05T12:55:26.249Z</time></trkpt><trkpt lat="44.9979664" lon="7.9952189"><ele>254.0</ele><time>2026-04-05T12:55:27.249Z</time></trkpt><trkpt lat="44.9978767" lon="7.9952805"><ele>254.0</ele><time>2026-04-05T12:55:28.249Z</time></trkpt><trkpt lat="44.9977928" lon="7.9953347"><ele>253.99999999999997</ele><time>2026-04-05T12:55:29.249Z</time></trkpt><trkpt lat="44.9977106" lon="7.9953837"><ele>253.99999999999997</ele><time>2026-04-05T12:55:30.249Z</time></trkpt><trkpt lat="44.9976267" lon="7.9954246"><ele>254.0</ele><time>2026-04-05T12:55:31.249Z</time></trkpt><trkpt lat="44.997539" lon="7.9954596"><ele>254.0</ele><time>2026-04-05T12:55:32.249Z</time></trkpt><trkpt lat="44.9974472" lon="7.9954896"><ele>253.83333333333334</ele><time>2026-04-05T12:55:33.249Z</time></trkpt><trkpt lat="44.9973576" lon="7.9955126"><ele>253.66666666666669</ele><time>2026-04-05T12:55:34.249Z</time></trkpt><trkpt lat="44.9972689" lon="7.9955314"><ele>253.5</ele><time>2026-04-05T12:55:35.249Z</time></trkpt><trkpt lat="44.9971806" lon="7.9955305"><ele>253.33333333333331</ele><time>2026-04-05T12:55:36.249Z</time></trkpt><trkpt lat="44.9971008" lon="7.9955227"><ele>253.16666666666666</ele><time>2026-04-05T12:55:37.249Z</time></trkpt><trkpt lat="44.9970187" lon="7.9955122"><ele>253.0</ele><time>2026-04-05T12:55:38.249Z</time></trkpt><trkpt lat="44.9969399" lon="7.9954934"><ele>253.0</ele><time>2026-04-05T12:55:39.249Z</time></trkpt><trkpt lat="44.9968574" lon="7.9954709"><ele>253.0</ele><time>2026-04-05T12:55:40.249Z</time></trkpt><trkpt lat="44.9967809" lon="7.995448"><ele>253.0</ele><time>2026-04-05T12:55:41.249Z</time></trkpt><trkpt lat="44.9966147" lon="7.9954036"><ele>253.0</ele><time>2026-04-05T12:55:43.249Z</time></trkpt><trkpt lat="44.9965304" lon="7.995378"><ele>253.0</ele><time>2026-04-05T12:55:44.249Z</time></trkpt><trkpt lat="44.9964533" lon="7.9953379"><ele>253.83333333333331</ele><time>2026-04-05T12:55:45.249Z</time></trkpt><trkpt lat="44.9963796" lon="7.9952931"><ele>254.66666666666666</ele><time>2026-04-05T12:55:46.249Z</time></trkpt><trkpt lat="44.9963118" lon="7.9952516"><ele>255.5</ele><time>2026-04-05T12:55:47.249Z</time></trkpt><trkpt lat="44.9962394" lon="7.9952138"><ele>256.3333333333333</ele><time>2026-04-05T12:55:48.249Z</time></trkpt><trkpt lat="44.9961734" lon="7.9951863"><ele>257.1666666666667</ele><time>2026-04-05T12:55:49.249Z</time></trkpt><trkpt lat="44.9960912" lon="7.9951503"><ele>258.0</ele><time>2026-04-05T12:55:51.249Z</time></trkpt><trkpt lat="44.9960782" lon="7.99502"><ele>257.75</ele><time>2026-04-05T12:56:03.249Z</time></trkpt><trkpt lat="44.9961818" lon="7.9947758"><ele>257.5</ele><time>2026-04-05T12:56:06.249Z</time></trkpt><trkpt lat="44.9962141" lon="7.9946375"><ele>257.25</ele><time>2026-04-05T12:56:08.249Z</time></trkpt><trkpt lat="44.9962034" lon="7.994514"><ele>257.0</ele><time>2026-04-05T12:56:10.249Z</time></trkpt><trkpt lat="44.9961857" lon="7.9944218"><ele>257.0</ele><time>2026-04-05T12:56:12.249Z</time></trkpt><trkpt lat="44.9961845" lon="7.9942862"><ele>257.0</ele><time>2026-04-05T12:56:15.249Z</time></trkpt><trkpt lat="44.9961862" lon="7.9941599"><ele>257.0</ele><time>2026-04-05T12:56:17.249Z</time></trkpt><trkpt lat="44.996185" lon="7.9939955"><ele>257.0</ele><time>2026-04-05T12:56:19.249Z</time></trkpt><trkpt lat="44.9961862" lon="7.9938302"><ele>257.0</ele><time>2026-04-05T12:56:21.249Z</time></trkpt><trkpt lat="44.996184" lon="7.9937172"><ele>256.5</ele><time>2026-04-05T12:56:23.249Z</time></trkpt><trkpt lat="44.9961861" lon="7.9935922"><ele>256.0</ele><time>2026-04-05T12:56:25.249Z</time></trkpt><trkpt lat="44.9962492" lon="7.9933276"><ele>255.5</ele><time>2026-04-05T12:56:29.249Z</time></trkpt><trkpt lat="44.99629" lon="7.9931927"><ele>255.0</ele><time>2026-04-05T12:56:31.249Z</time></trkpt><trkpt lat="44.9963318" lon="7.9930577"><ele>254.4</ele><time>2026-04-05T12:56:33.249Z</time></trkpt><trkpt lat="44.9963894" lon="7.9929294"><ele>253.8</ele><time>2026-04-05T12:56:35.249Z</time></trkpt><trkpt lat="44.9964663" lon="7.9928025"><ele>253.2</ele><time>2026-04-05T12:56:37.249Z</time></trkpt><trkpt lat="44.9965107" lon="7.9926787"><ele>252.6</ele><time>2026-04-05T12:56:39.249Z</time></trkpt><trkpt lat="44.996504" lon="7.9925368"><ele>252.0</ele><time>2026-04-05T12:56:41.249Z</time></trkpt><trkpt lat="44.9964787" lon="7.9924003"><ele>250.75</ele><time>2026-04-05T12:56:43.249Z</time></trkpt><trkpt lat="44.9964517" lon="7.9922604"><ele>249.5</ele><time>2026-04-05T12:56:45.249Z</time></trkpt><trkpt lat="44.9964596" lon="7.9921415"><ele>248.25</ele><time>2026-04-05T12:56:47.249Z</time></trkpt><trkpt lat="44.9966139" lon="7.9919335"><ele>247.0</ele><time>2026-04-05T12:56:51.249Z</time></trkpt><trkpt lat="44.9967083" lon="7.9918302"><ele>244.8</ele><time>2026-04-05T12:56:53.249Z</time></trkpt><trkpt lat="44.9967913" lon="7.9917348"><ele>242.6</ele><time>2026-04-05T12:56:55.249Z</time></trkpt><trkpt lat="44.9968782" lon="7.9916559"><ele>240.40000000000003</ele><time>2026-04-05T12:56:57.249Z</time></trkpt><trkpt lat="44.9969587" lon="7.9916015"><ele>238.20000000000002</ele><time>2026-04-05T12:56:59.249Z</time></trkpt><trkpt lat="44.9970329" lon="7.9915377"><ele>236.0</ele><time>2026-04-05T12:57:01.249Z</time></trkpt><trkpt lat="44.9971162" lon="7.9914521"><ele>235.25</ele><time>2026-04-05T12:57:03.248Z</time></trkpt><trkpt lat="44.9971648" lon="7.9913601"><ele>234.5</ele><time>2026-04-05T12:57:05.249Z</time></trkpt><trkpt lat="44.9971961" lon="7.9912469"><ele>233.75</ele><time>2026-04-05T12:57:07.249Z</time></trkpt><trkpt lat="44.9972049" lon="7.99113"><ele>233.0</ele><time>2026-04-05T12:57:09.249Z</time></trkpt><trkpt lat="44.9971662" lon="7.9908242"><ele>233.0</ele><time>2026-04-05T12:57:13.249Z</time></trkpt><trkpt lat="44.9971546" lon="7.9906658"><ele>233.0</ele><time>2026-04-05T12:57:15.249Z</time></trkpt><trkpt lat="44.9971534" lon="7.9905114"><ele>233.0</ele><time>2026-04-05T12:57:17.249Z</time></trkpt><trkpt lat="44.9971758" lon="7.9903775"><ele>233.0</ele><time>2026-04-05T12:57:19.249Z</time></trkpt><trkpt lat="44.9972413" lon="7.9902598"><ele>233.0</ele><time>2026-04-05T12:57:21.249Z</time></trkpt><trkpt lat="44.9973104" lon="7.990114"><ele>232.83333333333334</ele><time>2026-04-05T12:57:23.249Z</time></trkpt><trkpt lat="44.9973676" lon="7.989961"><ele>232.66666666666669</ele><time>2026-04-05T12:57:25.249Z</time></trkpt><trkpt lat="44.9973984" lon="7.9898756"><ele>232.5</ele><time>2026-04-05T12:57:26.249Z</time></trkpt><trkpt lat="44.9974336" lon="7.9897892"><ele>232.33333333333331</ele><time>2026-04-05T12:57:27.249Z</time></trkpt><trkpt lat="44.997465" lon="7.9896919"><ele>232.16666666666666</ele><time>2026-04-05T12:57:28.249Z</time></trkpt><trkpt lat="44.9974926" lon="7.9896044"><ele>232.0</ele><time>2026-04-05T12:57:29.249Z</time></trkpt><trkpt lat="44.9975165" lon="7.9895174"><ele>230.39999999999998</ele><time>2026-04-05T12:57:30.249Z</time></trkpt><trkpt lat="44.9975689" lon="7.9892721"><ele>228.79999999999998</ele><time>2026-04-05T12:57:33.249Z</time></trkpt><trkpt lat="44.9976062" lon="7.9891417"><ele>227.2</ele><time>2026-04-05T12:57:35.249Z</time></trkpt><trkpt lat="44.9976128" lon="7.9890323"><ele>225.6</ele><time>2026-04-05T12:57:37.249Z</time></trkpt><trkpt lat="44.9975859" lon="7.9889239"><ele>224.0</ele><time>2026-04-05T12:57:39.249Z</time></trkpt><trkpt lat="44.9975153" lon="7.9888457"><ele>224.79999999999998</ele><time>2026-04-05T12:57:41.249Z</time></trkpt><trkpt lat="44.9974224" lon="7.98883"><ele>225.59999999999997</ele><time>2026-04-05T12:57:43.248Z</time></trkpt><trkpt lat="44.9973058" lon="7.9888057"><ele>226.4</ele><time>2026-04-05T12:57:45.248Z</time></trkpt><trkpt lat="44.9972421" lon="7.9887789"><ele>227.2</ele><time>2026-04-05T12:57:46.248Z</time></trkpt><trkpt lat="44.9971345" lon="7.9887253"><ele>228.0</ele><time>2026-04-05T12:57:48.248Z</time></trkpt><trkpt lat="44.9970268" lon="7.9887055"><ele>228.0</ele><time>2026-04-05T12:57:50.248Z</time></trkpt><trkpt lat="44.9969634" lon="7.9886989"><ele>228.0</ele><time>2026-04-05T12:57:51.248Z</time></trkpt><trkpt lat="44.9968249" lon="7.9886799"><ele>228.0</ele><time>2026-04-05T12:57:53.248Z</time></trkpt><trkpt lat="44.9967189" lon="7.9886193"><ele>228.0</ele><time>2026-04-05T12:57:55.248Z</time></trkpt><trkpt lat="44.9966022" lon="7.9885454"><ele>228.0</ele><time>2026-04-05T12:57:57.248Z</time></trkpt><trkpt lat="44.9965459" lon="7.9884996"><ele>227.42857142857142</ele><time>2026-04-05T12:57:58.248Z</time></trkpt><trkpt lat="44.9964902" lon="7.9884546"><ele>226.85714285714283</ele><time>2026-04-05T12:57:59.248Z</time></trkpt><trkpt lat="44.996426" lon="7.9884083"><ele>226.28571428571428</ele><time>2026-04-05T12:58:00.248Z</time></trkpt><trkpt lat="44.9963655" lon="7.9883788"><ele>225.71428571428572</ele><time>2026-04-05T12:58:01.248Z</time></trkpt><trkpt lat="44.9963053" lon="7.9883516"><ele>225.14285714285714</ele><time>2026-04-05T12:58:02.248Z</time></trkpt><trkpt lat="44.9962433" lon="7.988322"><ele>224.57142857142856</ele><time>2026-04-05T12:58:03.248Z</time></trkpt><trkpt lat="44.9961516" lon="7.9882453"><ele>224.0</ele><time>2026-04-05T12:58:05.248Z</time></trkpt><trkpt lat="44.9961037" lon="7.9881175"><ele>224.0</ele><time>2026-04-05T12:58:07.248Z</time></trkpt><trkpt lat="44.9960859" lon="7.987934"><ele>223.99999999999997</ele><time>2026-04-05T12:58:09.248Z</time></trkpt><trkpt lat="44.9960878" lon="7.9878234"><ele>223.99999999999997</ele><time>2026-04-05T12:58:10.248Z</time></trkpt><trkpt lat="44.9960981" lon="7.9877041"><ele>224.0</ele><time>2026-04-05T12:58:11.248Z</time></trkpt><trkpt lat="44.9961133" lon="7.9875999"><ele>224.0</ele><time>2026-04-05T12:58:12.248Z</time></trkpt><trkpt lat="44.9961534" lon="7.9874044"><ele>224.00000000000003</ele><time>2026-04-05T12:58:14.248Z</time></trkpt><trkpt lat="44.9961782" lon="7.9872965"><ele>224.0</ele><time>2026-04-05T12:58:15.248Z</time></trkpt><trkpt lat="44.9962059" lon="7.9871915"><ele>224.0</ele><time>2026-04-05T12:58:16.248Z</time></trkpt><trkpt lat="44.9962374" lon="7.9870939"><ele>224.0</ele><time>2026-04-05T12:58:17.248Z</time></trkpt><trkpt lat="44.9962628" lon="7.9870048"><ele>224.00000000000003</ele><time>2026-04-05T12:58:18.248Z</time></trkpt><trkpt lat="44.9962928" lon="7.9869171"><ele>224.0</ele><time>2026-04-05T12:58:19.248Z</time></trkpt><trkpt lat="44.9963358" lon="7.9867608"><ele>221.79999999999998</ele><time>2026-04-05T12:58:21.248Z</time></trkpt><trkpt lat="44.9963913" lon="7.9866287"><ele>219.59999999999997</ele><time>2026-04-05T12:58:23.248Z</time></trkpt><trkpt lat="44.9964845" lon="7.9865675"><ele>217.4</ele><time>2026-04-05T12:58:25.248Z</time></trkpt><trkpt lat="44.996611" lon="7.9865864"><ele>215.2</ele><time>2026-04-05T12:58:27.248Z</time></trkpt><trkpt lat="44.9966838" lon="7.9866179"><ele>213.0</ele><time>2026-04-05T12:58:28.248Z</time></trkpt><trkpt lat="44.996759" lon="7.9866443"><ele>212.5</ele><time>2026-04-05T12:58:29.248Z</time></trkpt><trkpt lat="44.9968321" lon="7.9866843"><ele>212.0</ele><time>2026-04-05T12:58:30.248Z</time></trkpt><trkpt lat="44.9968987" lon="7.9867423"><ele>211.5</ele><time>2026-04-05T12:58:31.248Z</time></trkpt><trkpt lat="44.9969582" lon="7.9867924"><ele>211.0</ele><time>2026-04-05T12:58:32.248Z</time></trkpt><trkpt lat="44.9970227" lon="7.9868047"><ele>210.5</ele><time>2026-04-05T12:58:33.248Z</time></trkpt><trkpt lat="44.997146" lon="7.98674"><ele>210.0</ele><time>2026-04-05T12:58:35.248Z</time></trkpt><trkpt lat="44.9972043" lon="7.9866531"><ele>210.0</ele><time>2026-04-05T12:58:36.248Z</time></trkpt><trkpt lat="44.9972674" lon="7.9865333"><ele>210.0</ele><time>2026-04-05T12:58:37.248Z</time></trkpt><trkpt lat="44.9973437" lon="7.986395"><ele>210.0</ele><time>2026-04-05T12:58:38.248Z</time></trkpt><trkpt lat="44.9974184" lon="7.9862563"><ele>210.0</ele><time>2026-04-05T12:58:39.248Z</time></trkpt><trkpt lat="44.9974881" lon="7.9861331"><ele>209.2</ele><time>2026-04-05T12:58:40.248Z</time></trkpt><trkpt lat="44.9975464" lon="7.9860277"><ele>208.4</ele><time>2026-04-05T12:58:41.248Z</time></trkpt><trkpt lat="44.9975985" lon="7.985946"><ele>207.60000000000002</ele><time>2026-04-05T12:58:42.248Z</time></trkpt><trkpt lat="44.9976428" lon="7.9858717"><ele>206.8</ele><time>2026-04-05T12:58:43.248Z</time></trkpt><trkpt lat="44.9976617" lon="7.985729"><ele>206.0</ele><time>2026-04-05T12:58:45.248Z</time></trkpt><trkpt lat="44.9976191" lon="7.9855616"><ele>206.0</ele><time>2026-04-05T12:58:47.248Z</time></trkpt><trkpt lat="44.997616" lon="7.9854057"><ele>206.0</ele><time>2026-04-05T12:58:49.248Z</time></trkpt><trkpt lat="44.9976778" lon="7.9853034"><ele>206.0</ele><time>2026-04-05T12:58:51.248Z</time></trkpt><trkpt lat="44.9977468" lon="7.9852232"><ele>206.0</ele><time>2026-04-05T12:58:53.248Z</time></trkpt><trkpt lat="44.9977384" lon="7.9850885"><ele>206.0</ele><time>2026-04-05T12:58:55.248Z</time></trkpt><trkpt lat="44.9976839" lon="7.9848834"><ele>205.66666666666669</ele><time>2026-04-05T12:58:57.248Z</time></trkpt><trkpt lat="44.9976526" lon="7.9847665"><ele>205.33333333333334</ele><time>2026-04-05T12:58:58.248Z</time></trkpt><trkpt lat="44.9976204" lon="7.9846532"><ele>205.0</ele><time>2026-04-05T12:58:59.248Z</time></trkpt><trkpt lat="44.997593" lon="7.9845518"><ele>204.66666666666669</ele><time>2026-04-05T12:59:00.248Z</time></trkpt><trkpt lat="44.9975589" lon="7.9844596"><ele>204.33333333333334</ele><time>2026-04-05T12:59:01.247Z</time></trkpt><trkpt lat="44.9975189" lon="7.9843772"><ele>204.0</ele><time>2026-04-05T12:59:02.248Z</time></trkpt><trkpt lat="44.997473" lon="7.9843076"><ele>203.5</ele><time>2026-04-05T12:59:03.248Z</time></trkpt><trkpt lat="44.9974219" lon="7.9842512"><ele>203.0</ele><time>2026-04-05T12:59:04.248Z</time></trkpt><trkpt lat="44.9973745" lon="7.9841908"><ele>202.5</ele><time>2026-04-05T12:59:05.248Z</time></trkpt><trkpt lat="44.9973223" lon="7.9841241"><ele>202.0</ele><time>2026-04-05T12:59:06.248Z</time></trkpt><trkpt lat="44.9972751" lon="7.9840506"><ele>201.5</ele><time>2026-04-05T12:59:07.248Z</time></trkpt><trkpt lat="44.9971974" lon="7.9839232"><ele>201.0</ele><time>2026-04-05T12:59:09.248Z</time></trkpt><trkpt lat="44.9971159" lon="7.9838031"><ele>201.0</ele><time>2026-04-05T12:59:11.248Z</time></trkpt><trkpt lat="44.9970133" lon="7.9836822"><ele>201.0</ele><time>2026-04-05T12:59:13.248Z</time></trkpt><trkpt lat="44.9969479" lon="7.9836118"><ele>201.0</ele><time>2026-04-05T12:59:14.248Z</time></trkpt><trkpt lat="44.9968774" lon="7.9835355"><ele>201.0</ele><time>2026-04-05T12:59:15.248Z</time></trkpt><trkpt lat="44.9968034" lon="7.9834666"><ele>201.0</ele><time>2026-04-05T12:59:16.248Z</time></trkpt><trkpt lat="44.9966512" lon="7.9832958"><ele>201.0</ele><time>2026-04-05T12:59:18.248Z</time></trkpt><trkpt lat="44.9965649" lon="7.9832032"><ele>201.0</ele><time>2026-04-05T12:59:19.248Z</time></trkpt><trkpt lat="44.9964691" lon="7.9831143"><ele>201.0</ele><time>2026-04-05T12:59:20.247Z</time></trkpt><trkpt lat="44.9963617" lon="7.9830368"><ele>201.0</ele><time>2026-04-05T12:59:21.248Z</time></trkpt><trkpt lat="44.9962395" lon="7.9829648"><ele>201.0</ele><time>2026-04-05T12:59:22.248Z</time></trkpt><trkpt lat="44.9961179" lon="7.9828938"><ele>201.0</ele><time>2026-04-05T12:59:23.248Z</time></trkpt><trkpt lat="44.9960093" lon="7.9828167"><ele>201.0</ele><time>2026-04-05T12:59:24.248Z</time></trkpt><trkpt lat="44.9959162" lon="7.9827451"><ele>201.0</ele><time>2026-04-05T12:59:25.248Z</time></trkpt><trkpt lat="44.9958329" lon="7.9826752"><ele>201.4</ele><time>2026-04-05T12:59:26.248Z</time></trkpt><trkpt lat="44.9957713" lon="7.9826134"><ele>201.8</ele><time>2026-04-05T12:59:27.248Z</time></trkpt><trkpt lat="44.9957253" lon="7.9825515"><ele>202.20000000000002</ele><time>2026-04-05T12:59:28.248Z</time></trkpt><trkpt lat="44.9956685" lon="7.9824242"><ele>202.60000000000002</ele><time>2026-04-05T12:59:30.248Z</time></trkpt><trkpt lat="44.9956467" lon="7.9822509"><ele>203.0</ele><time>2026-04-05T12:59:32.247Z</time></trkpt><trkpt lat="44.9956447" lon="7.9821347"><ele>203.25</ele><time>2026-04-05T12:59:33.248Z</time></trkpt><trkpt lat="44.9956544" lon="7.9819985"><ele>203.5</ele><time>2026-04-05T12:59:34.248Z</time></trkpt><trkpt lat="44.9956703" lon="7.9818371"><ele>203.75</ele><time>2026-04-05T12:59:35.248Z</time></trkpt><trkpt lat="44.9956924" lon="7.981658"><ele>204.0</ele><time>2026-04-05T12:59:36.248Z</time></trkpt><trkpt lat="44.9957187" lon="7.9814636"><ele>204.66666666666669</ele><time>2026-04-05T12:59:37.248Z</time></trkpt><trkpt lat="44.9957628" lon="7.9811011"><ele>205.33333333333334</ele><time>2026-04-05T12:59:39.248Z</time></trkpt><trkpt lat="44.9957944" lon="7.9809382"><ele>206.0</ele><time>2026-04-05T12:59:40.248Z</time></trkpt><trkpt lat="44.9958413" lon="7.9807795"><ele>206.25</ele><time>2026-04-05T12:59:41.248Z</time></trkpt><trkpt lat="44.9958944" lon="7.9806252"><ele>206.5</ele><time>2026-04-05T12:59:42.248Z</time></trkpt><trkpt lat="44.9959627" lon="7.9804796"><ele>206.75</ele><time>2026-04-05T12:59:43.248Z</time></trkpt><trkpt lat="44.9960414" lon="7.9803286"><ele>207.0</ele><time>2026-04-05T12:59:44.248Z</time></trkpt><trkpt lat="44.9961271" lon="7.980169"><ele>208.0</ele><time>2026-04-05T12:59:45.248Z</time></trkpt><trkpt lat="44.9962096" lon="7.9800061"><ele>209.0</ele><time>2026-04-05T12:59:46.248Z</time></trkpt><trkpt lat="44.9962825" lon="7.9798536"><ele>210.0</ele><time>2026-04-05T12:59:47.248Z</time></trkpt><trkpt lat="44.9963495" lon="7.9797143"><ele>211.0</ele><time>2026-04-05T12:59:48.248Z</time></trkpt><trkpt lat="44.9964101" lon="7.9795845"><ele>211.0</ele><time>2026-04-05T12:59:49.248Z</time></trkpt><trkpt lat="44.9964685" lon="7.979459"><ele>211.0</ele><time>2026-04-05T12:59:50.248Z</time></trkpt><trkpt lat="44.9965274" lon="7.9793363"><ele>211.0</ele><time>2026-04-05T12:59:51.248Z</time></trkpt><trkpt lat="44.9965938" lon="7.9792182"><ele>211.0</ele><time>2026-04-05T12:59:52.248Z</time></trkpt><trkpt lat="44.9966501" lon="7.9791172"><ele>211.0</ele><time>2026-04-05T12:59:53.248Z</time></trkpt><trkpt lat="44.996697" lon="7.9790371"><ele>212.5</ele><time>2026-04-05T12:59:54.248Z</time></trkpt><trkpt lat="44.9967322" lon="7.9789243"><ele>214.0</ele><time>2026-04-05T12:59:56.248Z</time></trkpt><trkpt lat="44.9966638" lon="7.9788245"><ele>215.5</ele><time>2026-04-05T12:59:59.248Z</time></trkpt><trkpt lat="44.9966365" lon="7.9786274"><ele>217.0</ele><time>2026-04-05T13:00:31.248Z</time></trkpt><trkpt lat="44.9968645" lon="7.9783461"><ele>218.66666666666666</ele><time>2026-04-05T13:05:30.248Z</time></trkpt><trkpt lat="44.9969212" lon="7.9783006"><ele>220.33333333333331</ele><time>2026-04-05T13:05:31.248Z</time></trkpt><trkpt lat="44.9969843" lon="7.9782457"><ele>222.0</ele><time>2026-04-05T13:05:32.248Z</time></trkpt><trkpt lat="44.9970592" lon="7.9781807"><ele>223.66666666666669</ele><time>2026-04-05T13:05:33.248Z</time></trkpt><trkpt lat="44.9971371" lon="7.9781009"><ele>225.33333333333334</ele><time>2026-04-05T13:05:34.248Z</time></trkpt><trkpt lat="44.9972161" lon="7.9780091"><ele>227.0</ele><time>2026-04-05T13:05:35.248Z</time></trkpt><trkpt lat="44.9972923" lon="7.9778855"><ele>227.0</ele><time>2026-04-05T13:05:36.248Z</time></trkpt><trkpt lat="44.9973596" lon="7.9777538"><ele>227.0</ele><time>2026-04-05T13:05:37.248Z</time></trkpt><trkpt lat="44.9974187" lon="7.9776227"><ele>227.0</ele><time>2026-04-05T13:05:38.248Z</time></trkpt><trkpt lat="44.9974768" lon="7.9775055"><ele>227.0</ele><time>2026-04-05T13:05:39.248Z</time></trkpt><trkpt lat="44.9975222" lon="7.9774008"><ele>227.0</ele><time>2026-04-05T13:05:40.248Z</time></trkpt><trkpt lat="44.9975691" lon="7.9773207"><ele>228.83333333333334</ele><time>2026-04-05T13:05:41.248Z</time></trkpt><trkpt lat="44.997624" lon="7.9772559"><ele>230.66666666666669</ele><time>2026-04-05T13:05:42.248Z</time></trkpt><trkpt lat="44.9976925" lon="7.977199"><ele>232.5</ele><time>2026-04-05T13:05:43.248Z</time></trkpt><trkpt lat="44.9977618" lon="7.9771301"><ele>234.33333333333331</ele><time>2026-04-05T13:05:44.248Z</time></trkpt><trkpt lat="44.9978256" lon="7.9770493"><ele>236.16666666666666</ele><time>2026-04-05T13:05:45.248Z</time></trkpt><trkpt lat="44.9978821" lon="7.9769472"><ele>238.0</ele><time>2026-04-05T13:05:46.248Z</time></trkpt><trkpt lat="44.9979285" lon="7.9768292"><ele>236.0</ele><time>2026-04-05T13:05:47.248Z</time></trkpt><trkpt lat="44.9980144" lon="7.9765846"><ele>234.0</ele><time>2026-04-05T13:05:49.248Z</time></trkpt><trkpt lat="44.9980532" lon="7.9764585"><ele>232.0</ele><time>2026-04-05T13:05:50.248Z</time></trkpt><trkpt lat="44.9980898" lon="7.9763266"><ele>230.0</ele><time>2026-04-05T13:05:51.248Z</time></trkpt><trkpt lat="44.9981209" lon="7.9762106"><ele>230.00000000000003</ele><time>2026-04-05T13:05:52.248Z</time></trkpt><trkpt lat="44.9981608" lon="7.976097"><ele>230.0</ele><time>2026-04-05T13:05:53.248Z</time></trkpt><trkpt lat="44.9981974" lon="7.9759914"><ele>230.0</ele><time>2026-04-05T13:05:54.248Z</time></trkpt><trkpt lat="44.998243" lon="7.9759037"><ele>230.0</ele><time>2026-04-05T13:05:55.248Z</time></trkpt><trkpt lat="44.9982976" lon="7.9758386"><ele>230.00000000000003</ele><time>2026-04-05T13:05:56.248Z</time></trkpt><trkpt lat="44.9983567" lon="7.9757926"><ele>230.0</ele><time>2026-04-05T13:05:57.248Z</time></trkpt><trkpt lat="44.9984616" lon="7.9757161"><ele>231.8</ele><time>2026-04-05T13:05:59.248Z</time></trkpt><trkpt lat="44.9985466" lon="7.9756174"><ele>233.6</ele><time>2026-04-05T13:06:01.248Z</time></trkpt><trkpt lat="44.9986114" lon="7.9755003"><ele>235.39999999999998</ele><time>2026-04-05T13:06:03.248Z</time></trkpt><trkpt lat="44.9986695" lon="7.97537"><ele>237.2</ele><time>2026-04-05T13:06:05.248Z</time></trkpt><trkpt lat="44.9987033" lon="7.9752946"><ele>239.0</ele><time>2026-04-05T13:06:06.248Z</time></trkpt><trkpt lat="44.9987357" lon="7.9752124"><ele>239.0</ele><time>2026-04-05T13:06:07.248Z</time></trkpt><trkpt lat="44.9987705" lon="7.9751322"><ele>238.99999999999997</ele><time>2026-04-05T13:06:08.248Z</time></trkpt><trkpt lat="44.9988294" lon="7.9749639"><ele>238.99999999999997</ele><time>2026-04-05T13:06:10.248Z</time></trkpt><trkpt lat="44.99886" lon="7.9748764"><ele>239.0</ele><time>2026-04-05T13:06:11.248Z</time></trkpt><trkpt lat="44.9988846" lon="7.9747783"><ele>239.0</ele><time>2026-04-05T13:06:12.248Z</time></trkpt><trkpt lat="44.9989395" lon="7.9746265"><ele>238.42857142857144</ele><time>2026-04-05T13:06:14.248Z</time></trkpt><trkpt lat="44.9989739" lon="7.9745462"><ele>237.85714285714286</ele><time>2026-04-05T13:06:15.248Z</time></trkpt><trkpt lat="44.9990165" lon="7.9744664"><ele>237.28571428571428</ele><time>2026-04-05T13:06:16.248Z</time></trkpt><trkpt lat="44.9990563" lon="7.9743909"><ele>236.71428571428572</ele><time>2026-04-05T13:06:17.248Z</time></trkpt><trkpt lat="44.9990988" lon="7.9743243"><ele>236.1428571428571</ele><time>2026-04-05T13:06:18.248Z</time></trkpt><trkpt lat="44.9991863" lon="7.974217"><ele>235.57142857142856</ele><time>2026-04-05T13:06:20.248Z</time></trkpt><trkpt lat="44.9992371" lon="7.9741603"><ele>235.0</ele><time>2026-04-05T13:06:21.248Z</time></trkpt><trkpt lat="44.9992916" lon="7.9741054"><ele>233.14285714285714</ele><time>2026-04-05T13:06:22.248Z</time></trkpt><trkpt lat="44.9993443" lon="7.9740438"><ele>231.28571428571428</ele><time>2026-04-05T13:06:23.248Z</time></trkpt><trkpt lat="44.9993941" lon="7.9739842"><ele>229.42857142857142</ele><time>2026-04-05T13:06:24.248Z</time></trkpt><trkpt lat="44.999443" lon="7.9739247"><ele>227.57142857142856</ele><time>2026-04-05T13:06:25.248Z</time></trkpt><trkpt lat="44.9994935" lon="7.9738666"><ele>225.71428571428572</ele><time>2026-04-05T13:06:26.248Z</time></trkpt><trkpt lat="44.9995391" lon="7.9737984"><ele>223.85714285714283</ele><time>2026-04-05T13:06:27.248Z</time></trkpt><trkpt lat="44.9995729" lon="7.9737152"><ele>222.0</ele><time>2026-04-05T13:06:28.248Z</time></trkpt><trkpt lat="44.9995881" lon="7.9736181"><ele>222.0</ele><time>2026-04-05T13:06:29.248Z</time></trkpt><trkpt lat="44.9995931" lon="7.9733644"><ele>222.0</ele><time>2026-04-05T13:06:31.248Z</time></trkpt><trkpt lat="44.9995922" lon="7.9732292"><ele>222.0</ele><time>2026-04-05T13:06:32.248Z</time></trkpt><trkpt lat="44.9995901" lon="7.9730966"><ele>222.0</ele><time>2026-04-05T13:06:33.248Z</time></trkpt><trkpt lat="44.9995869" lon="7.9729549"><ele>221.0</ele><time>2026-04-05T13:06:34.248Z</time></trkpt><trkpt lat="44.9995829" lon="7.9728169"><ele>220.0</ele><time>2026-04-05T13:06:35.248Z</time></trkpt><trkpt lat="44.9995759" lon="7.9726944"><ele>219.0</ele><time>2026-04-05T13:06:36.248Z</time></trkpt><trkpt lat="44.9995657" lon="7.9725819"><ele>218.0</ele><time>2026-04-05T13:06:37.248Z</time></trkpt><trkpt lat="44.9995533" lon="7.9724652"><ele>217.0</ele><time>2026-04-05T13:06:38.248Z</time></trkpt><trkpt lat="44.9995407" lon="7.972339"><ele>216.0</ele><time>2026-04-05T13:06:39.248Z</time></trkpt><trkpt lat="44.9995232" lon="7.9722036"><ele>215.8</ele><time>2026-04-05T13:06:40.248Z</time></trkpt><trkpt lat="44.9995044" lon="7.9720556"><ele>215.60000000000002</ele><time>2026-04-05T13:06:41.248Z</time></trkpt><trkpt lat="44.9994856" lon="7.9719009"><ele>215.4</ele><time>2026-04-05T13:06:42.248Z</time></trkpt><trkpt lat="44.9994624" lon="7.9717483"><ele>215.2</ele><time>2026-04-05T13:06:43.248Z</time></trkpt><trkpt lat="44.9994351" lon="7.9715957"><ele>215.0</ele><time>2026-04-05T13:06:44.248Z</time></trkpt><trkpt lat="44.9994115" lon="7.9714477"><ele>215.00000000000003</ele><time>2026-04-05T13:06:45.248Z</time></trkpt><trkpt lat="44.9993853" lon="7.971317"><ele>215.0</ele><time>2026-04-05T13:06:46.248Z</time></trkpt><trkpt lat="44.9993587" lon="7.9711989"><ele>215.0</ele><time>2026-04-05T13:06:47.248Z</time></trkpt><trkpt lat="44.9993326" lon="7.9710877"><ele>215.0</ele><time>2026-04-05T13:06:48.248Z</time></trkpt><trkpt lat="44.9993131" lon="7.9709876"><ele>215.00000000000003</ele><time>2026-04-05T13:06:49.248Z</time></trkpt><trkpt lat="44.9993089" lon="7.9708942"><ele>215.0</ele><time>2026-04-05T13:06:50.248Z</time></trkpt><trkpt lat="44.9993507" lon="7.970688"><ele>217.0</ele><time>2026-04-05T13:06:52.247Z</time></trkpt><trkpt lat="44.9993928" lon="7.9705835"><ele>219.0</ele><time>2026-04-05T13:06:53.247Z</time></trkpt><trkpt lat="44.9994402" lon="7.9704688"><ele>221.0</ele><time>2026-04-05T13:06:54.247Z</time></trkpt><trkpt lat="44.99948" lon="7.9703347"><ele>223.0</ele><time>2026-04-05T13:06:55.247Z</time></trkpt><trkpt lat="44.9995119" lon="7.9701925"><ele>225.0</ele><time>2026-04-05T13:06:56.247Z</time></trkpt><trkpt lat="44.9995365" lon="7.9700361"><ele>226.4</ele><time>2026-04-05T13:06:57.247Z</time></trkpt><trkpt lat="44.999556" lon="7.9698787"><ele>227.8</ele><time>2026-04-05T13:06:58.247Z</time></trkpt><trkpt lat="44.9995758" lon="7.9697217"><ele>229.2</ele><time>2026-04-05T13:06:59.247Z</time></trkpt><trkpt lat="44.9996067" lon="7.9695771"><ele>230.6</ele><time>2026-04-05T13:07:00.247Z</time></trkpt><trkpt lat="44.9996408" lon="7.969431"><ele>232.0</ele><time>2026-04-05T13:07:01.247Z</time></trkpt><trkpt lat="44.9996752" lon="7.9692813"><ele>231.5</ele><time>2026-04-05T13:07:02.247Z</time></trkpt><trkpt lat="44.9997197" lon="7.9691199"><ele>231.0</ele><time>2026-04-05T13:07:03.247Z</time></trkpt><trkpt lat="44.9997769" lon="7.9689594"><ele>230.5</ele><time>2026-04-05T13:07:04.247Z</time></trkpt><trkpt lat="44.9998356" lon="7.9688045"><ele>230.0</ele><time>2026-04-05T13:07:05.247Z</time></trkpt><trkpt lat="44.9999002" lon="7.9686475"><ele>230.0</ele><time>2026-04-05T13:07:06.247Z</time></trkpt><trkpt lat="44.9999567" lon="7.9684968"><ele>230.0</ele><time>2026-04-05T13:07:07.247Z</time></trkpt><trkpt lat="45.0000145" lon="7.968351"><ele>230.0</ele><time>2026-04-05T13:07:08.247Z</time></trkpt><trkpt lat="45.000073" lon="7.9682174"><ele>230.0</ele><time>2026-04-05T13:07:09.247Z</time></trkpt><trkpt lat="45.0001325" lon="7.9681065"><ele>230.0</ele><time>2026-04-05T13:07:10.247Z</time></trkpt><trkpt lat="45.000191" lon="7.9680036"><ele>228.5</ele><time>2026-04-05T13:07:11.247Z</time></trkpt><trkpt lat="45.0003019" lon="7.9678016"><ele>227.0</ele><time>2026-04-05T13:07:13.247Z</time></trkpt><trkpt lat="45.0003506" lon="7.9677029"><ele>225.5</ele><time>2026-04-05T13:07:14.247Z</time></trkpt><trkpt lat="45.0004091" lon="7.9675991"><ele>224.0</ele><time>2026-04-05T13:07:15.247Z</time></trkpt><trkpt lat="45.000465" lon="7.9674968"><ele>223.33333333333334</ele><time>2026-04-05T13:07:16.247Z</time></trkpt><trkpt lat="45.0005157" lon="7.967399"><ele>222.66666666666669</ele><time>2026-04-05T13:07:17.247Z</time></trkpt><trkpt lat="45.0005587" lon="7.9672908"><ele>222.0</ele><time>2026-04-05T13:07:18.247Z</time></trkpt><trkpt lat="45.0006004" lon="7.9671846"><ele>221.33333333333331</ele><time>2026-04-05T13:07:19.247Z</time></trkpt><trkpt lat="45.0006486" lon="7.9670921"><ele>220.66666666666666</ele><time>2026-04-05T13:07:20.247Z</time></trkpt><trkpt lat="45.0007092" lon="7.9670065"><ele>220.0</ele><time>2026-04-05T13:07:21.247Z</time></trkpt><trkpt lat="45.0007768" lon="7.9669289"><ele>219.0</ele><time>2026-04-05T13:07:22.247Z</time></trkpt><trkpt lat="45.0008598" lon="7.9668625"><ele>218.0</ele><time>2026-04-05T13:07:23.247Z</time></trkpt><trkpt lat="45.0009537" lon="7.9668029"><ele>217.0</ele><time>2026-04-05T13:07:24.247Z</time></trkpt><trkpt lat="45.0010591" lon="7.9667413"><ele>216.0</ele><time>2026-04-05T13:07:25.247Z</time></trkpt><trkpt lat="45.0011642" lon="7.9666761"><ele>215.0</ele><time>2026-04-05T13:07:26.247Z</time></trkpt><trkpt lat="45.0012641" lon="7.9665907"><ele>215.0</ele><time>2026-04-05T13:07:27.247Z</time></trkpt><trkpt lat="45.0013657" lon="7.9664996"><ele>215.0</ele><time>2026-04-05T13:07:28.247Z</time></trkpt><trkpt lat="45.0014574" lon="7.9664011"><ele>215.0</ele><time>2026-04-05T13:07:29.247Z</time></trkpt><trkpt lat="45.0015423" lon="7.9662867"><ele>215.0</ele><time>2026-04-05T13:07:30.247Z</time></trkpt><trkpt lat="45.0016226" lon="7.9661619"><ele>214.33333333333334</ele><time>2026-04-05T13:07:31.247Z</time></trkpt><trkpt lat="45.0017007" lon="7.9660386"><ele>213.66666666666669</ele><time>2026-04-05T13:07:32.247Z</time></trkpt><trkpt lat="45.0018562" lon="7.9657796"><ele>213.0</ele><time>2026-04-05T13:07:34.247Z</time></trkpt><trkpt lat="45.0019369" lon="7.9656566"><ele>213.0</ele><time>2026-04-05T13:07:35.247Z</time></trkpt><trkpt lat="45.0020203" lon="7.9655398"><ele>213.0</ele><time>2026-04-05T13:07:36.247Z</time></trkpt><trkpt lat="45.0021024" lon="7.9654322"><ele>213.0</ele><time>2026-04-05T13:07:37.247Z</time></trkpt><trkpt lat="45.0021988" lon="7.9653346"><ele>213.0</ele><time>2026-04-05T13:07:38.247Z</time></trkpt><trkpt lat="45.0022961" lon="7.9652508"><ele>213.0</ele><time>2026-04-05T13:07:39.247Z</time></trkpt><trkpt lat="45.0023883" lon="7.9651815"><ele>213.0</ele><time>2026-04-05T13:07:40.247Z</time></trkpt><trkpt lat="45.0024817" lon="7.9651273"><ele>213.0</ele><time>2026-04-05T13:07:41.247Z</time></trkpt><trkpt lat="45.0025784" lon="7.9650839"><ele>213.0</ele><time>2026-04-05T13:07:42.247Z</time></trkpt><trkpt lat="45.0026836" lon="7.9650488"><ele>213.0</ele><time>2026-04-05T13:07:43.247Z</time></trkpt><trkpt lat="45.0027985" lon="7.9650245"><ele>213.5</ele><time>2026-04-05T13:07:44.247Z</time></trkpt><trkpt lat="45.0029175" lon="7.9650014"><ele>214.0</ele><time>2026-04-05T13:07:45.247Z</time></trkpt><trkpt lat="45.0030384" lon="7.9649704"><ele>214.5</ele><time>2026-04-05T13:07:46.247Z</time></trkpt><trkpt lat="45.0031574" lon="7.9649159"><ele>215.0</ele><time>2026-04-05T13:07:47.247Z</time></trkpt><trkpt lat="45.0032733" lon="7.9648485"><ele>216.4</ele><time>2026-04-05T13:07:48.247Z</time></trkpt><trkpt lat="45.003378" lon="7.9647765"><ele>217.8</ele><time>2026-04-05T13:07:49.247Z</time></trkpt><trkpt lat="45.0034706" lon="7.964716"><ele>219.2</ele><time>2026-04-05T13:07:50.247Z</time></trkpt><trkpt lat="45.0035663" lon="7.9646647"><ele>220.6</ele><time>2026-04-05T13:07:51.247Z</time></trkpt><trkpt lat="45.0036707" lon="7.9646316"><ele>222.0</ele><time>2026-04-05T13:07:52.247Z</time></trkpt><trkpt lat="45.003776" lon="7.9646096"><ele>222.0</ele><time>2026-04-05T13:07:53.247Z</time></trkpt><trkpt lat="45.0040017" lon="7.964566"><ele>222.0</ele><time>2026-04-05T13:07:55.247Z</time></trkpt><trkpt lat="45.0041124" lon="7.9645597"><ele>222.0</ele><time>2026-04-05T13:07:56.247Z</time></trkpt><trkpt lat="45.0042158" lon="7.9645683"><ele>222.0</ele><time>2026-04-05T13:07:57.247Z</time></trkpt><trkpt lat="45.0043068" lon="7.9645707"><ele>222.6</ele><time>2026-04-05T13:07:58.247Z</time></trkpt><trkpt lat="45.0043882" lon="7.9645526"><ele>223.2</ele><time>2026-04-05T13:07:59.247Z</time></trkpt><trkpt lat="45.0044709" lon="7.9645059"><ele>223.8</ele><time>2026-04-05T13:08:00.247Z</time></trkpt><trkpt lat="45.0045334" lon="7.9644089"><ele>224.4</ele><time>2026-04-05T13:08:01.247Z</time></trkpt><trkpt lat="45.004597" lon="7.9642796"><ele>225.0</ele><time>2026-04-05T13:08:02.247Z</time></trkpt><trkpt lat="45.0046606" lon="7.9641405"><ele>225.0</ele><time>2026-04-05T13:08:03.247Z</time></trkpt><trkpt lat="45.0047231" lon="7.9640102"><ele>225.0</ele><time>2026-04-05T13:08:04.247Z</time></trkpt><trkpt lat="45.0048015" lon="7.9638841"><ele>225.0</ele><time>2026-04-05T13:08:05.247Z</time></trkpt><trkpt lat="45.0048805" lon="7.9637762"><ele>225.0</ele><time>2026-04-05T13:08:06.247Z</time></trkpt><trkpt lat="45.0049532" lon="7.9636757"><ele>225.0</ele><time>2026-04-05T13:08:07.247Z</time></trkpt><trkpt lat="45.0050292" lon="7.9635726"><ele>225.16666666666666</ele><time>2026-04-05T13:08:08.247Z</time></trkpt><trkpt lat="45.0051012" lon="7.963466"><ele>225.33333333333331</ele><time>2026-04-05T13:08:09.247Z</time></trkpt><trkpt lat="45.0051613" lon="7.9633646"><ele>225.5</ele><time>2026-04-05T13:08:10.247Z</time></trkpt><trkpt lat="45.0052165" lon="7.9632713"><ele>225.66666666666666</ele><time>2026-04-05T13:08:11.247Z</time></trkpt><trkpt lat="45.0052793" lon="7.9631952"><ele>225.83333333333331</ele><time>2026-04-05T13:08:12.247Z</time></trkpt><trkpt lat="45.0053484" lon="7.9631425"><ele>226.0</ele><time>2026-04-05T13:08:13.247Z</time></trkpt><trkpt lat="45.0054282" lon="7.9631189"><ele>226.0</ele><time>2026-04-05T13:08:14.247Z</time></trkpt><trkpt lat="45.0056209" lon="7.9631229"><ele>226.0</ele><time>2026-04-05T13:08:16.247Z</time></trkpt><trkpt lat="45.0057346" lon="7.9631337"><ele>226.0</ele><time>2026-04-05T13:08:17.247Z</time></trkpt><trkpt lat="45.005847" lon="7.9631354"><ele>226.0</ele><time>2026-04-05T13:08:18.247Z</time></trkpt><trkpt lat="45.0059555" lon="7.9631143"><ele>226.4</ele><time>2026-04-05T13:08:19.247Z</time></trkpt><trkpt lat="45.0060648" lon="7.9630862"><ele>226.8</ele><time>2026-04-05T13:08:20.247Z</time></trkpt><trkpt lat="45.0061673" lon="7.9630513"><ele>227.20000000000002</ele><time>2026-04-05T13:08:21.247Z</time></trkpt><trkpt lat="45.0062624" lon="7.9629991"><ele>227.60000000000002</ele><time>2026-04-05T13:08:22.247Z</time></trkpt><trkpt lat="45.0063577" lon="7.962922"><ele>228.0</ele><time>2026-04-05T13:08:23.247Z</time></trkpt><trkpt lat="45.0064456" lon="7.9628436"><ele>228.0</ele><time>2026-04-05T13:08:24.246Z</time></trkpt><trkpt lat="45.0065224" lon="7.9627675"><ele>228.0</ele><time>2026-04-05T13:08:25.247Z</time></trkpt><trkpt lat="45.0065825" lon="7.9626814"><ele>228.0</ele><time>2026-04-05T13:08:26.247Z</time></trkpt><trkpt lat="45.0066295" lon="7.9625823"><ele>228.0</ele><time>2026-04-05T13:08:27.247Z</time></trkpt><trkpt lat="45.0066683" lon="7.9624665"><ele>228.0</ele><time>2026-04-05T13:08:28.247Z</time></trkpt><trkpt lat="45.0067097" lon="7.9623506"><ele>228.0</ele><time>2026-04-05T13:08:29.247Z</time></trkpt><trkpt lat="45.0067506" lon="7.9622274"><ele>227.33333333333334</ele><time>2026-04-05T13:08:30.247Z</time></trkpt><trkpt lat="45.0067905" lon="7.9621048"><ele>226.66666666666669</ele><time>2026-04-05T13:08:31.247Z</time></trkpt><trkpt lat="45.0068261" lon="7.9619863"><ele>226.0</ele><time>2026-04-05T13:08:32.247Z</time></trkpt><trkpt lat="45.0068552" lon="7.9618755"><ele>225.33333333333334</ele><time>2026-04-05T13:08:33.247Z</time></trkpt><trkpt lat="45.0068869" lon="7.9617781"><ele>224.66666666666669</ele><time>2026-04-05T13:08:34.247Z</time></trkpt><trkpt lat="45.0069208" lon="7.9616733"><ele>224.0</ele><time>2026-04-05T13:08:35.247Z</time></trkpt><trkpt lat="45.0069777" lon="7.9613928"><ele>224.2</ele><time>2026-04-05T13:08:37.247Z</time></trkpt><trkpt lat="45.006996" lon="7.961236"><ele>224.39999999999998</ele><time>2026-04-05T13:08:38.247Z</time></trkpt><trkpt lat="45.0070154" lon="7.9610865"><ele>224.6</ele><time>2026-04-05T13:08:39.247Z</time></trkpt><trkpt lat="45.007037" lon="7.9609611"><ele>224.8</ele><time>2026-04-05T13:08:40.247Z</time></trkpt><trkpt lat="45.0070598" lon="7.9608483"><ele>225.0</ele><time>2026-04-05T13:08:41.247Z</time></trkpt><trkpt lat="45.0070946" lon="7.9607584"><ele>225.0</ele><time>2026-04-05T13:08:42.247Z</time></trkpt><trkpt lat="45.0071517" lon="7.9606867"><ele>225.0</ele><time>2026-04-05T13:08:43.247Z</time></trkpt><trkpt lat="45.0072279" lon="7.9606174"><ele>225.0</ele><time>2026-04-05T13:08:44.247Z</time></trkpt><trkpt lat="45.0073152" lon="7.9605454"><ele>225.0</ele><time>2026-04-05T13:08:45.247Z</time></trkpt><trkpt lat="45.007403" lon="7.9604611"><ele>225.0</ele><time>2026-04-05T13:08:46.247Z</time></trkpt><trkpt lat="45.0074857" lon="7.9603682"><ele>225.2</ele><time>2026-04-05T13:08:47.247Z</time></trkpt><trkpt lat="45.0075702" lon="7.9602609"><ele>225.4</ele><time>2026-04-05T13:08:48.246Z</time></trkpt><trkpt lat="45.0076541" lon="7.9601529"><ele>225.60000000000002</ele><time>2026-04-05T13:08:49.247Z</time></trkpt><trkpt lat="45.0077401" lon="7.9600553"><ele>225.8</ele><time>2026-04-05T13:08:50.247Z</time></trkpt><trkpt lat="45.0078186" lon="7.9599569"><ele>226.0</ele><time>2026-04-05T13:08:51.247Z</time></trkpt><trkpt lat="45.0078916" lon="7.959853"><ele>226.0</ele><time>2026-04-05T13:08:52.247Z</time></trkpt><trkpt lat="45.0079734" lon="7.9597438"><ele>226.00000000000003</ele><time>2026-04-05T13:08:53.247Z</time></trkpt><trkpt lat="45.0080564" lon="7.9596274"><ele>226.00000000000003</ele><time>2026-04-05T13:08:54.246Z</time></trkpt><trkpt lat="45.0081316" lon="7.9595098"><ele>226.0</ele><time>2026-04-05T13:08:55.247Z</time></trkpt><trkpt lat="45.0081979" lon="7.9594046"><ele>226.0</ele><time>2026-04-05T13:08:56.247Z</time></trkpt><trkpt lat="45.008311" lon="7.9592068"><ele>227.66666666666666</ele><time>2026-04-05T13:08:58.247Z</time></trkpt><trkpt lat="45.0083509" lon="7.9591065"><ele>229.33333333333331</ele><time>2026-04-05T13:08:59.247Z</time></trkpt><trkpt lat="45.00838" lon="7.9590027"><ele>231.0</ele><time>2026-04-05T13:09:00.247Z</time></trkpt><trkpt lat="45.008407" lon="7.9588932"><ele>232.66666666666669</ele><time>2026-04-05T13:09:01.247Z</time></trkpt><trkpt lat="45.0084356" lon="7.9587856"><ele>234.33333333333334</ele><time>2026-04-05T13:09:02.247Z</time></trkpt><trkpt lat="45.008473" lon="7.9586686"><ele>236.0</ele><time>2026-04-05T13:09:03.247Z</time></trkpt><trkpt lat="45.0085161" lon="7.9585501"><ele>236.00000000000003</ele><time>2026-04-05T13:09:04.247Z</time></trkpt><trkpt lat="45.0085615" lon="7.9584429"><ele>236.0</ele><time>2026-04-05T13:09:05.247Z</time></trkpt><trkpt lat="45.0086165" lon="7.958357"><ele>236.0</ele><time>2026-04-05T13:09:06.247Z</time></trkpt><trkpt lat="45.0086815" lon="7.9582845"><ele>236.0</ele><time>2026-04-05T13:09:07.247Z</time></trkpt><trkpt lat="45.0087607" lon="7.9582251"><ele>236.00000000000003</ele><time>2026-04-05T13:09:08.247Z</time></trkpt><trkpt lat="45.0088477" lon="7.9581708"><ele>236.0</ele><time>2026-04-05T13:09:09.247Z</time></trkpt><trkpt lat="45.0089461" lon="7.9581054"><ele>236.0</ele><time>2026-04-05T13:09:10.247Z</time></trkpt><trkpt lat="45.0090441" lon="7.9580375"><ele>236.00000000000003</ele><time>2026-04-05T13:09:11.247Z</time></trkpt><trkpt lat="45.0091433" lon="7.9579734"><ele>236.00000000000003</ele><time>2026-04-05T13:09:12.247Z</time></trkpt><trkpt lat="45.0092254" lon="7.9579162"><ele>236.0</ele><time>2026-04-05T13:09:13.247Z</time></trkpt><trkpt lat="45.0092971" lon="7.9578601"><ele>236.0</ele><time>2026-04-05T13:09:14.247Z</time></trkpt><trkpt lat="45.0093643" lon="7.9578035"><ele>238.20000000000002</ele><time>2026-04-05T13:09:15.247Z</time></trkpt><trkpt lat="45.0094178" lon="7.9577325"><ele>240.40000000000003</ele><time>2026-04-05T13:09:16.247Z</time></trkpt><trkpt lat="45.0094651" lon="7.9576481"><ele>242.6</ele><time>2026-04-05T13:09:17.247Z</time></trkpt><trkpt lat="45.0095494" lon="7.9574443"><ele>244.8</ele><time>2026-04-05T13:09:19.247Z</time></trkpt><trkpt lat="45.0095948" lon="7.9573302"><ele>247.0</ele><time>2026-04-05T13:09:20.247Z</time></trkpt><trkpt lat="45.0096429" lon="7.9572099"><ele>248.0</ele><time>2026-04-05T13:09:21.247Z</time></trkpt><trkpt lat="45.0096906" lon="7.957077"><ele>249.0</ele><time>2026-04-05T13:09:22.247Z</time></trkpt><trkpt lat="45.0097457" lon="7.9569457"><ele>250.0</ele><time>2026-04-05T13:09:23.247Z</time></trkpt><trkpt lat="45.0098065" lon="7.9568273"><ele>251.0</ele><time>2026-04-05T13:09:24.247Z</time></trkpt><trkpt lat="45.0098724" lon="7.9567201"><ele>252.0</ele><time>2026-04-05T13:09:25.247Z</time></trkpt><trkpt lat="45.0099486" lon="7.956612"><ele>255.2</ele><time>2026-04-05T13:09:26.247Z</time></trkpt><trkpt lat="45.010028" lon="7.9565055"><ele>258.4</ele><time>2026-04-05T13:09:27.246Z</time></trkpt><trkpt lat="45.0101086" lon="7.9564046"><ele>261.6</ele><time>2026-04-05T13:09:28.247Z</time></trkpt><trkpt lat="45.010182" lon="7.9563109"><ele>264.8</ele><time>2026-04-05T13:09:29.247Z</time></trkpt><trkpt lat="45.0102437" lon="7.9562204"><ele>268.0</ele><time>2026-04-05T13:09:30.247Z</time></trkpt><trkpt lat="45.0102946" lon="7.9561382"><ele>268.0</ele><time>2026-04-05T13:09:31.247Z</time></trkpt><trkpt lat="45.0103405" lon="7.9560678"><ele>268.0</ele><time>2026-04-05T13:09:32.247Z</time></trkpt><trkpt lat="45.010399" lon="7.9560072"><ele>268.0</ele><time>2026-04-05T13:09:33.247Z</time></trkpt><trkpt lat="45.0104625" lon="7.9559531"><ele>268.0</ele><time>2026-04-05T13:09:34.247Z</time></trkpt><trkpt lat="45.0105333" lon="7.955906"><ele>268.0</ele><time>2026-04-05T13:09:35.247Z</time></trkpt><trkpt lat="45.0106043" lon="7.9558633"><ele>268.0</ele><time>2026-04-05T13:09:36.247Z</time></trkpt><trkpt lat="45.0106748" lon="7.9558215"><ele>268.0</ele><time>2026-04-05T13:09:37.247Z</time></trkpt><trkpt lat="45.0107463" lon="7.9557844"><ele>268.66666666666663</ele><time>2026-04-05T13:09:38.247Z</time></trkpt><trkpt lat="45.0108767" lon="7.9557265"><ele>269.3333333333333</ele><time>2026-04-05T13:09:40.247Z</time></trkpt><trkpt lat="45.0109432" lon="7.9557151"><ele>270.0</ele><time>2026-04-05T13:09:41.247Z</time></trkpt><trkpt lat="45.0110125" lon="7.9557136"><ele>270.6666666666667</ele><time>2026-04-05T13:09:42.247Z</time></trkpt><trkpt lat="45.0110868" lon="7.955717"><ele>271.33333333333337</ele><time>2026-04-05T13:09:43.247Z</time></trkpt><trkpt lat="45.0111729" lon="7.9557359"><ele>272.0</ele><time>2026-04-05T13:09:44.247Z</time></trkpt><trkpt lat="45.0112633" lon="7.95577"><ele>272.0</ele><time>2026-04-05T13:09:45.247Z</time></trkpt><trkpt lat="45.0113547" lon="7.9558121"><ele>272.0</ele><time>2026-04-05T13:09:46.247Z</time></trkpt><trkpt lat="45.0114499" lon="7.955856"><ele>272.0</ele><time>2026-04-05T13:09:47.247Z</time></trkpt><trkpt lat="45.0115457" lon="7.9558972"><ele>272.0</ele><time>2026-04-05T13:09:48.247Z</time></trkpt><trkpt lat="45.0116462" lon="7.9559286"><ele>272.0</ele><time>2026-04-05T13:09:49.247Z</time></trkpt><trkpt lat="45.011755" lon="7.9559528"><ele>273.0</ele><time>2026-04-05T13:09:50.247Z</time></trkpt><trkpt lat="45.011875" lon="7.9559661"><ele>274.0</ele><time>2026-04-05T13:09:51.247Z</time></trkpt><trkpt lat="45.0119952" lon="7.95599"><ele>275.0</ele><time>2026-04-05T13:09:52.247Z</time></trkpt><trkpt lat="45.0121141" lon="7.9560349"><ele>276.0</ele><time>2026-04-05T13:09:53.247Z</time></trkpt><trkpt lat="45.0122441" lon="7.9560968"><ele>276.0</ele><time>2026-04-05T13:09:54.247Z</time></trkpt><trkpt lat="45.0123859" lon="7.9561638"><ele>276.0</ele><time>2026-04-05T13:09:55.247Z</time></trkpt><trkpt lat="45.0125346" lon="7.9562296"><ele>276.0</ele><time>2026-04-05T13:09:56.247Z</time></trkpt><trkpt lat="45.0126915" lon="7.9563003"><ele>276.6666666666667</ele><time>2026-04-05T13:09:57.247Z</time></trkpt><trkpt lat="45.0128383" lon="7.9563654"><ele>277.33333333333337</ele><time>2026-04-05T13:09:58.247Z</time></trkpt><trkpt lat="45.0129706" lon="7.9564217"><ele>278.0</ele><time>2026-04-05T13:09:59.247Z</time></trkpt><trkpt lat="45.0132301" lon="7.9565486"><ele>278.25</ele><time>2026-04-05T13:10:01.247Z</time></trkpt><trkpt lat="45.0133682" lon="7.9566159"><ele>278.5</ele><time>2026-04-05T13:10:02.247Z</time></trkpt><trkpt lat="45.0135028" lon="7.9566696"><ele>278.75</ele><time>2026-04-05T13:10:03.247Z</time></trkpt><trkpt lat="45.0136268" lon="7.9567023"><ele>279.0</ele><time>2026-04-05T13:10:04.247Z</time></trkpt><trkpt lat="45.013741" lon="7.9567251"><ele>279.0</ele><time>2026-04-05T13:10:05.247Z</time></trkpt><trkpt lat="45.0138451" lon="7.9567405"><ele>279.0</ele><time>2026-04-05T13:10:06.247Z</time></trkpt><trkpt lat="45.0139393" lon="7.9567416"><ele>279.0</ele><time>2026-04-05T13:10:07.247Z</time></trkpt><trkpt lat="45.0140315" lon="7.9567267"><ele>279.0</ele><time>2026-04-05T13:10:08.246Z</time></trkpt><trkpt lat="45.0141197" lon="7.956699"><ele>279.0</ele><time>2026-04-05T13:10:09.247Z</time></trkpt><trkpt lat="45.0142104" lon="7.9566656"><ele>279.5</ele><time>2026-04-05T13:10:10.247Z</time></trkpt><trkpt lat="45.0142916" lon="7.9566317"><ele>280.0</ele><time>2026-04-05T13:10:11.247Z</time></trkpt><trkpt lat="45.0143642" lon="7.9566055"><ele>280.5</ele><time>2026-04-05T13:10:12.247Z</time></trkpt><trkpt lat="45.0144352" lon="7.9565872"><ele>281.0</ele><time>2026-04-05T13:10:13.247Z</time></trkpt><trkpt lat="45.0145086" lon="7.9565739"><ele>281.5</ele><time>2026-04-05T13:10:14.247Z</time></trkpt><trkpt lat="45.0145838" lon="7.9565573"><ele>282.0</ele><time>2026-04-05T13:10:15.247Z</time></trkpt><trkpt lat="45.0146549" lon="7.956539"><ele>282.0</ele><time>2026-04-05T13:10:16.247Z</time></trkpt><trkpt lat="45.0147276" lon="7.9565258"><ele>282.0</ele><time>2026-04-05T13:10:17.247Z</time></trkpt><trkpt lat="45.0148024" lon="7.9565117"><ele>282.0</ele><time>2026-04-05T13:10:18.247Z</time></trkpt><trkpt lat="45.0148783" lon="7.9565023"><ele>282.0</ele><time>2026-04-05T13:10:19.247Z</time></trkpt><trkpt lat="45.0149627" lon="7.9564975"><ele>282.0</ele><time>2026-04-05T13:10:20.247Z</time></trkpt><trkpt lat="45.0151655" lon="7.9564687"><ele>282.75</ele><time>2026-04-05T13:10:22.247Z</time></trkpt><trkpt lat="45.015282" lon="7.956451"><ele>283.5</ele><time>2026-04-05T13:10:23.247Z</time></trkpt><trkpt lat="45.0154151" lon="7.9564408"><ele>284.25</ele><time>2026-04-05T13:10:24.247Z</time></trkpt><trkpt lat="45.0155593" lon="7.9564296"><ele>285.0</ele><time>2026-04-05T13:10:25.247Z</time></trkpt><trkpt lat="45.0157225" lon="7.956409"><ele>285.0</ele><time>2026-04-05T13:10:26.247Z</time></trkpt><trkpt lat="45.0158953" lon="7.9563733"><ele>285.0</ele><time>2026-04-05T13:10:27.247Z</time></trkpt><trkpt lat="45.0160742" lon="7.9563237"><ele>285.0</ele><time>2026-04-05T13:10:28.247Z</time></trkpt><trkpt lat="45.016247" lon="7.9562679"><ele>285.0</ele><time>2026-04-05T13:10:29.247Z</time></trkpt><trkpt lat="45.01641" lon="7.9562116"><ele>285.0</ele><time>2026-04-05T13:10:30.247Z</time></trkpt><trkpt lat="45.0165608" lon="7.9561523"><ele>285.0</ele><time>2026-04-05T13:10:31.247Z</time></trkpt><trkpt lat="45.0167042" lon="7.9560902"><ele>285.0</ele><time>2026-04-05T13:10:32.247Z</time></trkpt><trkpt lat="45.0168405" lon="7.9560256"><ele>285.0</ele><time>2026-04-05T13:10:33.247Z</time></trkpt><trkpt lat="45.0169743" lon="7.9559707"><ele>285.0</ele><time>2026-04-05T13:10:34.247Z</time></trkpt><trkpt lat="45.017108" lon="7.9559133"><ele>285.0</ele><time>2026-04-05T13:10:35.247Z</time></trkpt><trkpt lat="45.0172394" lon="7.9558575"><ele>285.25</ele><time>2026-04-05T13:10:36.247Z</time></trkpt><trkpt lat="45.0173667" lon="7.9557994"><ele>285.5</ele><time>2026-04-05T13:10:37.247Z</time></trkpt><trkpt lat="45.0174836" lon="7.9557553"><ele>285.75</ele><time>2026-04-05T13:10:38.247Z</time></trkpt><trkpt lat="45.0175937" lon="7.955711"><ele>286.0</ele><time>2026-04-05T13:10:39.247Z</time></trkpt><trkpt lat="45.0177006" lon="7.9556696"><ele>286.0</ele><time>2026-04-05T13:10:40.247Z</time></trkpt><trkpt lat="45.0177965" lon="7.9556268"><ele>286.0</ele><time>2026-04-05T13:10:41.247Z</time></trkpt><trkpt lat="45.0179648" lon="7.9555369"><ele>286.0</ele><time>2026-04-05T13:10:43.247Z</time></trkpt><trkpt lat="45.0180446" lon="7.9554865"><ele>286.0</ele><time>2026-04-05T13:10:44.247Z</time></trkpt><trkpt lat="45.0181241" lon="7.9554355"><ele>286.0</ele><time>2026-04-05T13:10:45.247Z</time></trkpt><trkpt lat="45.0182041" lon="7.955373"><ele>286.0</ele><time>2026-04-05T13:10:46.247Z</time></trkpt><trkpt lat="45.0182889" lon="7.9553023"><ele>286.0</ele><time>2026-04-05T13:10:47.247Z</time></trkpt><trkpt lat="45.0183679" lon="7.9552258"><ele>286.0</ele><time>2026-04-05T13:10:48.247Z</time></trkpt><trkpt lat="45.0184518" lon="7.9551427"><ele>286.0</ele><time>2026-04-05T13:10:49.247Z</time></trkpt><trkpt lat="45.0185375" lon="7.9550538"><ele>286.5</ele><time>2026-04-05T13:10:50.247Z</time></trkpt><trkpt lat="45.0186286" lon="7.9549594"><ele>287.0</ele><time>2026-04-05T13:10:51.247Z</time></trkpt><trkpt lat="45.0187352" lon="7.9548568"><ele>287.5</ele><time>2026-04-05T13:10:52.247Z</time></trkpt><trkpt lat="45.0188488" lon="7.9547466"><ele>288.0</ele><time>2026-04-05T13:10:53.247Z</time></trkpt><trkpt lat="45.0189684" lon="7.9546355"><ele>288.0</ele><time>2026-04-05T13:10:54.247Z</time></trkpt><trkpt lat="45.0190837" lon="7.9545269"><ele>288.0</ele><time>2026-04-05T13:10:55.247Z</time></trkpt><trkpt lat="45.0191918" lon="7.9544192"><ele>288.0</ele><time>2026-04-05T13:10:56.247Z</time></trkpt><trkpt lat="45.019293" lon="7.9543154"><ele>288.0</ele><time>2026-04-05T13:10:57.247Z</time></trkpt><trkpt lat="45.0193844" lon="7.9542171"><ele>289.0</ele><time>2026-04-05T13:10:58.247Z</time></trkpt><trkpt lat="45.0194691" lon="7.9541106"><ele>290.0</ele><time>2026-04-05T13:10:59.246Z</time></trkpt><trkpt lat="45.0195536" lon="7.9539969"><ele>291.0</ele><time>2026-04-05T13:11:00.247Z</time></trkpt><trkpt lat="45.0196367" lon="7.9538706"><ele>292.0</ele><time>2026-04-05T13:11:01.247Z</time></trkpt><trkpt lat="45.0197202" lon="7.9537463"><ele>292.0</ele><time>2026-04-05T13:11:02.247Z</time></trkpt><trkpt lat="45.0198803" lon="7.9535206"><ele>292.0</ele><time>2026-04-05T13:11:04.247Z</time></trkpt><trkpt lat="45.0199751" lon="7.9534149"><ele>292.0</ele><time>2026-04-05T13:11:05.247Z</time></trkpt><trkpt lat="45.0200675" lon="7.9533142"><ele>291.5</ele><time>2026-04-05T13:11:06.247Z</time></trkpt><trkpt lat="45.0201536" lon="7.9532143"><ele>291.0</ele><time>2026-04-05T13:11:07.247Z</time></trkpt><trkpt lat="45.0202456" lon="7.9531082"><ele>290.5</ele><time>2026-04-05T13:11:08.247Z</time></trkpt><trkpt lat="45.020341" lon="7.9530079"><ele>290.0</ele><time>2026-04-05T13:11:09.247Z</time></trkpt><trkpt lat="45.0204347" lon="7.9529081"><ele>290.0</ele><time>2026-04-05T13:11:10.247Z</time></trkpt><trkpt lat="45.0205219" lon="7.9528066"><ele>290.0</ele><time>2026-04-05T13:11:11.247Z</time></trkpt><trkpt lat="45.020602" lon="7.9527095"><ele>290.0</ele><time>2026-04-05T13:11:12.247Z</time></trkpt><trkpt lat="45.0206824" lon="7.9526093"><ele>290.0</ele><time>2026-04-05T13:11:13.247Z</time></trkpt><trkpt lat="45.0207529" lon="7.9525092"><ele>290.0</ele><time>2026-04-05T13:11:14.247Z</time></trkpt><trkpt lat="45.020811" lon="7.952416"><ele>290.1666666666667</ele><time>2026-04-05T13:11:15.247Z</time></trkpt><trkpt lat="45.0208572" lon="7.9523348"><ele>290.33333333333337</ele><time>2026-04-05T13:11:16.247Z</time></trkpt><trkpt lat="45.0208871" lon="7.9522533"><ele>290.5</ele><time>2026-04-05T13:11:17.247Z</time></trkpt><trkpt lat="45.0209284" lon="7.9521138"><ele>290.6666666666667</ele><time>2026-04-05T13:11:19.246Z</time></trkpt><trkpt lat="45.020971" lon="7.9519697"><ele>290.8333333333333</ele><time>2026-04-05T13:11:21.247Z</time></trkpt><trkpt lat="45.0209966" lon="7.9518547"><ele>291.0</ele><time>2026-04-05T13:11:22.247Z</time></trkpt><trkpt lat="45.0210283" lon="7.9517202"><ele>291.5</ele><time>2026-04-05T13:11:23.247Z</time></trkpt><trkpt lat="45.0210899" lon="7.9514648"><ele>292.0</ele><time>2026-04-05T13:11:25.247Z</time></trkpt><trkpt lat="45.0211182" lon="7.9513375"><ele>292.5</ele><time>2026-04-05T13:11:26.247Z</time></trkpt><trkpt lat="45.0211489" lon="7.9512056"><ele>293.0</ele><time>2026-04-05T13:11:27.247Z</time></trkpt><trkpt lat="45.0211749" lon="7.9510766"><ele>293.0</ele><time>2026-04-05T13:11:28.247Z</time></trkpt><trkpt lat="45.0212034" lon="7.9509507"><ele>293.0</ele><time>2026-04-05T13:11:29.247Z</time></trkpt><trkpt lat="45.0212326" lon="7.9508338"><ele>293.0</ele><time>2026-04-05T13:11:30.247Z</time></trkpt><trkpt lat="45.0212611" lon="7.9507338"><ele>293.0</ele><time>2026-04-05T13:11:31.247Z</time></trkpt><trkpt lat="45.0212869" lon="7.9506409"><ele>293.0</ele><time>2026-04-05T13:11:32.247Z</time></trkpt><trkpt lat="45.0213134" lon="7.9505494"><ele>293.0</ele><time>2026-04-05T13:11:33.247Z</time></trkpt><trkpt lat="45.0213419" lon="7.9504654"><ele>292.8</ele><time>2026-04-05T13:11:34.247Z</time></trkpt><trkpt lat="45.021386" lon="7.9503258"><ele>292.6</ele><time>2026-04-05T13:11:36.247Z</time></trkpt><trkpt lat="45.02141" lon="7.9502223"><ele>292.4</ele><time>2026-04-05T13:11:41.247Z</time></trkpt><trkpt lat="45.0214457" lon="7.9500462"><ele>292.2</ele><time>2026-04-05T13:11:43.247Z</time></trkpt><trkpt lat="45.0214792" lon="7.9499034"><ele>292.0</ele><time>2026-04-05T13:11:44.247Z</time></trkpt><trkpt lat="45.0215702" lon="7.9495408"><ele>292.0</ele><time>2026-04-05T13:11:46.247Z</time></trkpt><trkpt lat="45.0216163" lon="7.9493761"><ele>292.0</ele><time>2026-04-05T13:11:47.247Z</time></trkpt><trkpt lat="45.0216584" lon="7.9492236"><ele>292.0</ele><time>2026-04-05T13:11:48.247Z</time></trkpt><trkpt lat="45.0217012" lon="7.9490794"><ele>292.0</ele><time>2026-04-05T13:11:49.247Z</time></trkpt><trkpt lat="45.021739" lon="7.9489407"><ele>292.0</ele><time>2026-04-05T13:11:50.247Z</time></trkpt><trkpt lat="45.0217638" lon="7.9488061"><ele>292.0</ele><time>2026-04-05T13:11:51.247Z</time></trkpt><trkpt lat="45.0217776" lon="7.9486753"><ele>292.0</ele><time>2026-04-05T13:11:52.247Z</time></trkpt><trkpt lat="45.0217773" lon="7.9485566"><ele>292.0</ele><time>2026-04-05T13:11:53.247Z</time></trkpt><trkpt lat="45.0217315" lon="7.9484368"><ele>292.0</ele><time>2026-04-05T13:11:54.247Z</time></trkpt><trkpt lat="45.0216665" lon="7.9483254"><ele>291.6</ele><time>2026-04-05T13:11:55.247Z</time></trkpt><trkpt lat="45.0215975" lon="7.9482263"><ele>291.2</ele><time>2026-04-05T13:11:56.247Z</time></trkpt><trkpt lat="45.0215206" lon="7.948145"><ele>290.8</ele><time>2026-04-05T13:11:57.247Z</time></trkpt><trkpt lat="45.0214403" lon="7.9480737"><ele>290.4</ele><time>2026-04-05T13:11:58.247Z</time></trkpt><trkpt lat="45.0213664" lon="7.9480064"><ele>290.0</ele><time>2026-04-05T13:11:59.247Z</time></trkpt><trkpt lat="45.0213013" lon="7.9479329"><ele>290.0</ele><time>2026-04-05T13:12:00.247Z</time></trkpt><trkpt lat="45.0212443" lon="7.9478576"><ele>290.0</ele><time>2026-04-05T13:12:01.247Z</time></trkpt><trkpt lat="45.021188" lon="7.9477694"><ele>290.0</ele><time>2026-04-05T13:12:02.247Z</time></trkpt><trkpt lat="45.0211212" lon="7.9476755"><ele>290.0</ele><time>2026-04-05T13:12:03.247Z</time></trkpt><trkpt lat="45.0210553" lon="7.9475836"><ele>290.0</ele><time>2026-04-05T13:12:04.247Z</time></trkpt><trkpt lat="45.0209921" lon="7.9474957"><ele>290.0</ele><time>2026-04-05T13:12:05.247Z</time></trkpt><trkpt lat="45.0208493" lon="7.9473082"><ele>289.8</ele><time>2026-04-05T13:12:07.247Z</time></trkpt><trkpt lat="45.0207788" lon="7.9471917"><ele>289.6</ele><time>2026-04-05T13:12:08.247Z</time></trkpt><trkpt lat="45.0207053" lon="7.9470717"><ele>289.4</ele><time>2026-04-05T13:12:09.247Z</time></trkpt><trkpt lat="45.0206301" lon="7.9469623"><ele>289.2</ele><time>2026-04-05T13:12:10.247Z</time></trkpt><trkpt lat="45.0205536" lon="7.9468539"><ele>289.0</ele><time>2026-04-05T13:12:11.247Z</time></trkpt><trkpt lat="45.0204756" lon="7.946744"><ele>288.59999999999997</ele><time>2026-04-05T13:12:12.247Z</time></trkpt><trkpt lat="45.0203998" lon="7.9466262"><ele>288.2</ele><time>2026-04-05T13:12:13.247Z</time></trkpt><trkpt lat="45.0203274" lon="7.9465151"><ele>287.79999999999995</ele><time>2026-04-05T13:12:14.247Z</time></trkpt><trkpt lat="45.0202618" lon="7.9464003"><ele>287.4</ele><time>2026-04-05T13:12:15.247Z</time></trkpt><trkpt lat="45.0202031" lon="7.9462885"><ele>287.0</ele><time>2026-04-05T13:12:16.247Z</time></trkpt><trkpt lat="45.0201528" lon="7.9461647"><ele>287.0</ele><time>2026-04-05T13:12:17.247Z</time></trkpt><trkpt lat="45.0200954" lon="7.9460361"><ele>287.0</ele><time>2026-04-05T13:12:18.247Z</time></trkpt><trkpt lat="45.0200355" lon="7.9458943"><ele>287.0</ele><time>2026-04-05T13:12:19.247Z</time></trkpt><trkpt lat="45.0199699" lon="7.9457335"><ele>287.0</ele><time>2026-04-05T13:12:20.247Z</time></trkpt><trkpt lat="45.0198935" lon="7.9455649"><ele>285.33333333333337</ele><time>2026-04-05T13:12:21.247Z</time></trkpt><trkpt lat="45.0198086" lon="7.9453787"><ele>283.6666666666667</ele><time>2026-04-05T13:12:22.247Z</time></trkpt><trkpt lat="45.0197173" lon="7.9451798"><ele>282.0</ele><time>2026-04-05T13:12:23.247Z</time></trkpt><trkpt lat="45.0196196" lon="7.9449779"><ele>282.0</ele><time>2026-04-05T13:12:24.247Z</time></trkpt><trkpt lat="45.0195268" lon="7.9448043"><ele>282.0</ele><time>2026-04-05T13:12:25.247Z</time></trkpt><trkpt lat="45.0194433" lon="7.9446489"><ele>282.0</ele><time>2026-04-05T13:12:26.247Z</time></trkpt><trkpt lat="45.0192972" lon="7.944397"><ele>282.0</ele><time>2026-04-05T13:12:28.247Z</time></trkpt><trkpt lat="45.0192302" lon="7.9442784"><ele>282.0</ele><time>2026-04-05T13:12:29.247Z</time></trkpt><trkpt lat="45.0191734" lon="7.9441532"><ele>282.0</ele><time>2026-04-05T13:12:30.247Z</time></trkpt><trkpt lat="45.0191384" lon="7.9440204"><ele>282.0</ele><time>2026-04-05T13:12:31.247Z</time></trkpt><trkpt lat="45.019121" lon="7.9438805"><ele>282.0</ele><time>2026-04-05T13:12:32.247Z</time></trkpt><trkpt lat="45.0191366" lon="7.9437265"><ele>282.0</ele><time>2026-04-05T13:12:33.247Z</time></trkpt><trkpt lat="45.0191769" lon="7.943573"><ele>282.0</ele><time>2026-04-05T13:12:34.247Z</time></trkpt><trkpt lat="45.0192236" lon="7.9434057"><ele>282.0</ele><time>2026-04-05T13:12:35.247Z</time></trkpt><trkpt lat="45.0192706" lon="7.9432222"><ele>282.0</ele><time>2026-04-05T13:12:36.247Z</time></trkpt><trkpt lat="45.019314" lon="7.9430151"><ele>282.3333333333333</ele><time>2026-04-05T13:12:37.247Z</time></trkpt><trkpt lat="45.0193542" lon="7.9428044"><ele>282.66666666666663</ele><time>2026-04-05T13:12:38.247Z</time></trkpt><trkpt lat="45.0193872" lon="7.94259"><ele>283.0</ele><time>2026-04-05T13:12:39.246Z</time></trkpt><trkpt lat="45.0194171" lon="7.9423627"><ele>283.3333333333333</ele><time>2026-04-05T13:12:40.247Z</time></trkpt><trkpt lat="45.0194397" lon="7.9421501"><ele>283.6666666666667</ele><time>2026-04-05T13:12:41.247Z</time></trkpt><trkpt lat="45.0194634" lon="7.9419369"><ele>284.0</ele><time>2026-04-05T13:12:42.246Z</time></trkpt><trkpt lat="45.0194898" lon="7.9417202"><ele>284.0</ele><time>2026-04-05T13:12:43.247Z</time></trkpt><trkpt lat="45.0195152" lon="7.9415009"><ele>284.0</ele><time>2026-04-05T13:12:44.247Z</time></trkpt><trkpt lat="45.019531" lon="7.9412915"><ele>284.0</ele><time>2026-04-05T13:12:45.247Z</time></trkpt><trkpt lat="45.0195423" lon="7.9410952"><ele>284.0</ele><time>2026-04-05T13:12:46.247Z</time></trkpt><trkpt lat="45.0195487" lon="7.9409184"><ele>285.0</ele><time>2026-04-05T13:12:47.247Z</time></trkpt><trkpt lat="45.0195503" lon="7.9405742"><ele>286.0</ele><time>2026-04-05T13:12:49.246Z</time></trkpt><trkpt lat="45.0195476" lon="7.9403961"><ele>287.0</ele><time>2026-04-05T13:12:50.247Z</time></trkpt><trkpt lat="45.019537" lon="7.9402112"><ele>287.5</ele><time>2026-04-05T13:12:51.247Z</time></trkpt><trkpt lat="45.0195227" lon="7.940025"><ele>288.0</ele><time>2026-04-05T13:12:52.247Z</time></trkpt><trkpt lat="45.0195049" lon="7.9398311"><ele>288.5</ele><time>2026-04-05T13:12:53.247Z</time></trkpt><trkpt lat="45.0194929" lon="7.9396548"><ele>289.0</ele><time>2026-04-05T13:12:54.247Z</time></trkpt><trkpt lat="45.0194831" lon="7.9394824"><ele>289.0</ele><time>2026-04-05T13:12:55.247Z</time></trkpt><trkpt lat="45.0194778" lon="7.9393114"><ele>289.0</ele><time>2026-04-05T13:12:56.247Z</time></trkpt><trkpt lat="45.0194733" lon="7.9391381"><ele>289.0</ele><time>2026-04-05T13:12:57.247Z</time></trkpt><trkpt lat="45.0194708" lon="7.9389664"><ele>289.0</ele><time>2026-04-05T13:12:58.247Z</time></trkpt><trkpt lat="45.0194688" lon="7.9387834"><ele>288.5</ele><time>2026-04-05T13:12:59.247Z</time></trkpt><trkpt lat="45.0194758" lon="7.9385972"><ele>288.0</ele><time>2026-04-05T13:13:00.247Z</time></trkpt><trkpt lat="45.0194921" lon="7.9384078"><ele>287.5</ele><time>2026-04-05T13:13:01.247Z</time></trkpt><trkpt lat="45.0195128" lon="7.9382201"><ele>287.0</ele><time>2026-04-05T13:13:02.247Z</time></trkpt><trkpt lat="45.0195337" lon="7.9380396"><ele>286.75</ele><time>2026-04-05T13:13:03.247Z</time></trkpt><trkpt lat="45.0195491" lon="7.9378677"><ele>286.5</ele><time>2026-04-05T13:13:04.247Z</time></trkpt><trkpt lat="45.0195668" lon="7.9376973"><ele>286.25</ele><time>2026-04-05T13:13:05.247Z</time></trkpt><trkpt lat="45.0195878" lon="7.9375289"><ele>286.0</ele><time>2026-04-05T13:13:06.247Z</time></trkpt><trkpt lat="45.0196122" lon="7.9373637"><ele>285.3333333333333</ele><time>2026-04-05T13:13:07.247Z</time></trkpt><trkpt lat="45.0196363" lon="7.9371901"><ele>284.6666666666667</ele><time>2026-04-05T13:13:08.247Z</time></trkpt><trkpt lat="45.0196746" lon="7.9368377"><ele>284.0</ele><time>2026-04-05T13:13:10.246Z</time></trkpt><trkpt lat="45.0196849" lon="7.936661"><ele>283.5</ele><time>2026-04-05T13:13:11.247Z</time></trkpt><trkpt lat="45.0196959" lon="7.9364835"><ele>283.0</ele><time>2026-04-05T13:13:12.246Z</time></trkpt><trkpt lat="45.0197026" lon="7.9363177"><ele>282.5</ele><time>2026-04-05T13:13:13.247Z</time></trkpt><trkpt lat="45.0197161" lon="7.9361515"><ele>282.0</ele><time>2026-04-05T13:13:14.247Z</time></trkpt><trkpt lat="45.0197287" lon="7.9359985"><ele>282.4</ele><time>2026-04-05T13:13:15.247Z</time></trkpt><trkpt lat="45.0197429" lon="7.9358496"><ele>282.79999999999995</ele><time>2026-04-05T13:13:16.247Z</time></trkpt><trkpt lat="45.0197568" lon="7.9357161"><ele>283.2</ele><time>2026-04-05T13:13:17.247Z</time></trkpt><trkpt lat="45.0197783" lon="7.9355919"><ele>283.59999999999997</ele><time>2026-04-05T13:13:18.247Z</time></trkpt><trkpt lat="45.0198014" lon="7.9354821"><ele>284.0</ele><time>2026-04-05T13:13:19.247Z</time></trkpt><trkpt lat="45.0198496" lon="7.93535"><ele>284.0</ele><time>2026-04-05T13:13:21.247Z</time></trkpt><trkpt lat="45.0199214" lon="7.9352365"><ele>284.0</ele><time>2026-04-05T13:13:23.247Z</time></trkpt><trkpt lat="45.0199559" lon="7.9351153"><ele>284.0</ele><time>2026-04-05T13:13:25.247Z</time></trkpt><trkpt lat="45.0199134" lon="7.9349264"><ele>284.0</ele><time>2026-04-05T13:13:27.247Z</time></trkpt><trkpt lat="45.0198946" lon="7.9348006"><ele>284.0</ele><time>2026-04-05T13:13:28.247Z</time></trkpt><trkpt lat="45.0199047" lon="7.9346518"><ele>284.33333333333337</ele><time>2026-04-05T13:13:29.247Z</time></trkpt><trkpt lat="45.0199495" lon="7.9343009"><ele>284.6666666666667</ele><time>2026-04-05T13:13:31.247Z</time></trkpt><trkpt lat="45.0199575" lon="7.9341448"><ele>285.0</ele><time>2026-04-05T13:13:32.247Z</time></trkpt><trkpt lat="45.019964" lon="7.9340064"><ele>285.3333333333333</ele><time>2026-04-05T13:13:33.247Z</time></trkpt><trkpt lat="45.0199657" lon="7.9338906"><ele>285.6666666666667</ele><time>2026-04-05T13:13:34.247Z</time></trkpt><trkpt lat="45.0199657" lon="7.9337816"><ele>286.0</ele><time>2026-04-05T13:13:35.246Z</time></trkpt><trkpt lat="45.0199698" lon="7.9336727"><ele>286.33333333333337</ele><time>2026-04-05T13:13:36.247Z</time></trkpt><trkpt lat="45.0199747" lon="7.9335684"><ele>286.6666666666667</ele><time>2026-04-05T13:13:37.247Z</time></trkpt><trkpt lat="45.0199813" lon="7.9334608"><ele>287.0</ele><time>2026-04-05T13:13:38.247Z</time></trkpt><trkpt lat="45.0199957" lon="7.9333454"><ele>287.14285714285717</ele><time>2026-04-05T13:13:39.247Z</time></trkpt><trkpt lat="45.0200092" lon="7.9332409"><ele>287.2857142857143</ele><time>2026-04-05T13:13:40.247Z</time></trkpt><trkpt lat="45.0200204" lon="7.9331423"><ele>287.42857142857144</ele><time>2026-04-05T13:13:41.247Z</time></trkpt><trkpt lat="45.0200309" lon="7.9330404"><ele>287.57142857142856</ele><time>2026-04-05T13:13:42.247Z</time></trkpt><trkpt lat="45.0200384" lon="7.9329416"><ele>287.7142857142857</ele><time>2026-04-05T13:13:43.247Z</time></trkpt><trkpt lat="45.0200449" lon="7.9328488"><ele>287.8571428571429</ele><time>2026-04-05T13:13:44.247Z</time></trkpt><trkpt lat="45.0200501" lon="7.932753"><ele>288.0</ele><time>2026-04-05T13:13:45.247Z</time></trkpt><trkpt lat="45.0200564" lon="7.9326558"><ele>288.0</ele><time>2026-04-05T13:13:46.247Z</time></trkpt><trkpt lat="45.0200606" lon="7.9325639"><ele>288.0</ele><time>2026-04-05T13:13:47.247Z</time></trkpt><trkpt lat="45.0200723" lon="7.9323851"><ele>288.0</ele><time>2026-04-05T13:13:49.247Z</time></trkpt><trkpt lat="45.0200786" lon="7.9322858"><ele>288.0</ele><time>2026-04-05T13:13:50.247Z</time></trkpt><trkpt lat="45.0200978" lon="7.9320705"><ele>288.0</ele><time>2026-04-05T13:13:52.247Z</time></trkpt><trkpt lat="45.0201085" lon="7.9319421"><ele>287.25</ele><time>2026-04-05T13:13:53.247Z</time></trkpt><trkpt lat="45.020123" lon="7.9317962"><ele>286.5</ele><time>2026-04-05T13:13:54.247Z</time></trkpt><trkpt lat="45.0201383" lon="7.9316383"><ele>285.75</ele><time>2026-04-05T13:13:55.247Z</time></trkpt><trkpt lat="45.0201532" lon="7.9314745"><ele>285.0</ele><time>2026-04-05T13:13:56.247Z</time></trkpt><trkpt lat="45.0201672" lon="7.9313042"><ele>284.75</ele><time>2026-04-05T13:13:57.247Z</time></trkpt><trkpt lat="45.0201776" lon="7.9311378"><ele>284.5</ele><time>2026-04-05T13:13:58.247Z</time></trkpt><trkpt lat="45.0201863" lon="7.9309766"><ele>284.25</ele><time>2026-04-05T13:13:59.247Z</time></trkpt><trkpt lat="45.0201915" lon="7.9308112"><ele>284.0</ele><time>2026-04-05T13:14:00.247Z</time></trkpt><trkpt lat="45.0201914" lon="7.93065"><ele>284.0</ele><time>2026-04-05T13:14:01.247Z</time></trkpt><trkpt lat="45.0201892" lon="7.9304876"><ele>284.0</ele><time>2026-04-05T13:14:02.247Z</time></trkpt><trkpt lat="45.0201863" lon="7.9303245"><ele>284.0</ele><time>2026-04-05T13:14:03.247Z</time></trkpt><trkpt lat="45.0201774" lon="7.930166"><ele>284.0</ele><time>2026-04-05T13:14:04.247Z</time></trkpt><trkpt lat="45.0201619" lon="7.9300159"><ele>284.0</ele><time>2026-04-05T13:14:05.247Z</time></trkpt><trkpt lat="45.0201292" lon="7.9298653"><ele>284.0</ele><time>2026-04-05T13:14:06.247Z</time></trkpt><trkpt lat="45.0200916" lon="7.9297097"><ele>284.0</ele><time>2026-04-05T13:14:07.247Z</time></trkpt><trkpt lat="45.0200478" lon="7.9295454"><ele>284.0</ele><time>2026-04-05T13:14:08.247Z</time></trkpt><trkpt lat="45.0200065" lon="7.9293745"><ele>283.6666666666667</ele><time>2026-04-05T13:14:09.246Z</time></trkpt><trkpt lat="45.0199711" lon="7.9292008"><ele>283.3333333333333</ele><time>2026-04-05T13:14:10.247Z</time></trkpt><trkpt lat="45.0199419" lon="7.9290308"><ele>283.0</ele><time>2026-04-05T13:14:11.247Z</time></trkpt><trkpt lat="45.0199097" lon="7.9286913"><ele>283.0</ele><time>2026-04-05T13:14:13.247Z</time></trkpt><trkpt lat="45.0199081" lon="7.9285116"><ele>283.0</ele><time>2026-04-05T13:14:14.247Z</time></trkpt><trkpt lat="45.019912" lon="7.9283279"><ele>283.0</ele><time>2026-04-05T13:14:15.247Z</time></trkpt><trkpt lat="45.0199183" lon="7.9281358"><ele>283.0</ele><time>2026-04-05T13:14:16.247Z</time></trkpt><trkpt lat="45.0199202" lon="7.9279366"><ele>282.75</ele><time>2026-04-05T13:14:17.247Z</time></trkpt><trkpt lat="45.0199246" lon="7.9277317"><ele>282.5</ele><time>2026-04-05T13:14:18.247Z</time></trkpt><trkpt lat="45.0199389" lon="7.9275262"><ele>282.25</ele><time>2026-04-05T13:14:19.247Z</time></trkpt><trkpt lat="45.0199559" lon="7.9273147"><ele>282.0</ele><time>2026-04-05T13:14:20.247Z</time></trkpt><trkpt lat="45.0199777" lon="7.9271033"><ele>282.75</ele><time>2026-04-05T13:14:21.247Z</time></trkpt><trkpt lat="45.0200043" lon="7.9268916"><ele>283.5</ele><time>2026-04-05T13:14:22.247Z</time></trkpt><trkpt lat="45.0200306" lon="7.926699"><ele>284.25</ele><time>2026-04-05T13:14:23.247Z</time></trkpt><trkpt lat="45.0200587" lon="7.9265202"><ele>285.0</ele><time>2026-04-05T13:14:24.247Z</time></trkpt><trkpt lat="45.0200891" lon="7.9263563"><ele>285.25</ele><time>2026-04-05T13:14:25.247Z</time></trkpt><trkpt lat="45.0201293" lon="7.9261951"><ele>285.5</ele><time>2026-04-05T13:14:26.247Z</time></trkpt><trkpt lat="45.0201779" lon="7.9260261"><ele>285.75</ele><time>2026-04-05T13:14:27.247Z</time></trkpt><trkpt lat="45.0202317" lon="7.9258524"><ele>286.0</ele><time>2026-04-05T13:14:28.247Z</time></trkpt><trkpt lat="45.0202708" lon="7.9256794"><ele>286.25</ele><time>2026-04-05T13:14:29.247Z</time></trkpt><trkpt lat="45.0203016" lon="7.9254902"><ele>286.5</ele><time>2026-04-05T13:14:30.247Z</time></trkpt><trkpt lat="45.0203201" lon="7.9252808"><ele>286.75</ele><time>2026-04-05T13:14:31.247Z</time></trkpt><trkpt lat="45.0203358" lon="7.9250665"><ele>287.0</ele><time>2026-04-05T13:14:32.247Z</time></trkpt><trkpt lat="45.0203554" lon="7.9246951"><ele>287.2</ele><time>2026-04-05T13:14:34.247Z</time></trkpt><trkpt lat="45.0203573" lon="7.9245477"><ele>287.4</ele><time>2026-04-05T13:14:35.247Z</time></trkpt><trkpt lat="45.0203411" lon="7.9244137"><ele>287.6</ele><time>2026-04-05T13:14:36.247Z</time></trkpt><trkpt lat="45.0203062" lon="7.9242709"><ele>287.8</ele><time>2026-04-05T13:14:37.247Z</time></trkpt><trkpt lat="45.0202623" lon="7.9241238"><ele>288.0</ele><time>2026-04-05T13:14:38.247Z</time></trkpt><trkpt lat="45.0202258" lon="7.9239724"><ele>288.5</ele><time>2026-04-05T13:14:39.247Z</time></trkpt><trkpt lat="45.0202046" lon="7.9238153"><ele>289.0</ele><time>2026-04-05T13:14:40.247Z</time></trkpt><trkpt lat="45.0201994" lon="7.9236565"><ele>289.5</ele><time>2026-04-05T13:14:41.247Z</time></trkpt><trkpt lat="45.0201942" lon="7.9234844"><ele>290.0</ele><time>2026-04-05T13:14:42.247Z</time></trkpt><trkpt lat="45.0201977" lon="7.9233041"><ele>290.25</ele><time>2026-04-05T13:14:43.247Z</time></trkpt><trkpt lat="45.0202059" lon="7.9231243"><ele>290.5</ele><time>2026-04-05T13:14:44.247Z</time></trkpt><trkpt lat="45.0202157" lon="7.9229422"><ele>290.75</ele><time>2026-04-05T13:14:45.247Z</time></trkpt><trkpt lat="45.0202345" lon="7.9227602"><ele>291.0</ele><time>2026-04-05T13:14:46.247Z</time></trkpt><trkpt lat="45.0202602" lon="7.9225836"><ele>291.0</ele><time>2026-04-05T13:14:47.247Z</time></trkpt><trkpt lat="45.0202879" lon="7.9224106"><ele>291.0</ele><time>2026-04-05T13:14:48.247Z</time></trkpt><trkpt lat="45.0203174" lon="7.9222422"><ele>291.0</ele><time>2026-04-05T13:14:49.247Z</time></trkpt><trkpt lat="45.0203435" lon="7.9220784"><ele>291.0</ele><time>2026-04-05T13:14:50.247Z</time></trkpt><trkpt lat="45.020363" lon="7.9219138"><ele>291.0</ele><time>2026-04-05T13:14:51.247Z</time></trkpt><trkpt lat="45.0203718" lon="7.9217406"><ele>291.0</ele><time>2026-04-05T13:14:52.247Z</time></trkpt><trkpt lat="45.0203745" lon="7.9215653"><ele>291.0</ele><time>2026-04-05T13:14:53.247Z</time></trkpt><trkpt lat="45.0203822" lon="7.9212136"><ele>290.75</ele><time>2026-04-05T13:14:55.247Z</time></trkpt><trkpt lat="45.0203883" lon="7.9210258"><ele>290.5</ele><time>2026-04-05T13:14:56.247Z</time></trkpt><trkpt lat="45.020392" lon="7.920831"><ele>290.25</ele><time>2026-04-05T13:14:57.247Z</time></trkpt><trkpt lat="45.0203929" lon="7.9206298"><ele>290.0</ele><time>2026-04-05T13:14:58.247Z</time></trkpt><trkpt lat="45.0203901" lon="7.9204321"><ele>288.0</ele><time>2026-04-05T13:14:59.247Z</time></trkpt><trkpt lat="45.0203842" lon="7.9202306"><ele>286.0</ele><time>2026-04-05T13:15:00.247Z</time></trkpt><trkpt lat="45.0203825" lon="7.9200248"><ele>284.0</ele><time>2026-04-05T13:15:01.247Z</time></trkpt><trkpt lat="45.0203893" lon="7.9197955"><ele>284.0</ele><time>2026-04-05T13:15:02.247Z</time></trkpt><trkpt lat="45.0203996" lon="7.9195481"><ele>284.0</ele><time>2026-04-05T13:15:03.247Z</time></trkpt><trkpt lat="45.0204199" lon="7.9192861"><ele>284.0</ele><time>2026-04-05T13:15:04.247Z</time></trkpt><trkpt lat="45.0204462" lon="7.9190115"><ele>283.33333333333337</ele><time>2026-04-05T13:15:05.247Z</time></trkpt><trkpt lat="45.020469" lon="7.918739"><ele>282.6666666666667</ele><time>2026-04-05T13:15:06.247Z</time></trkpt><trkpt lat="45.0204909" lon="7.9184789"><ele>282.0</ele><time>2026-04-05T13:15:07.247Z</time></trkpt><trkpt lat="45.0205165" lon="7.9182304"><ele>283.25</ele><time>2026-04-05T13:15:08.247Z</time></trkpt><trkpt lat="45.0205384" lon="7.918008"><ele>284.5</ele><time>2026-04-05T13:15:09.247Z</time></trkpt><trkpt lat="45.0205547" lon="7.9178092"><ele>285.75</ele><time>2026-04-05T13:15:10.247Z</time></trkpt><trkpt lat="45.0205666" lon="7.9176443"><ele>287.0</ele><time>2026-04-05T13:15:11.247Z</time></trkpt><trkpt lat="45.020582" lon="7.9175145"><ele>287.0</ele><time>2026-04-05T13:15:12.247Z</time></trkpt><trkpt lat="45.0206122" lon="7.9174212"><ele>287.0</ele><time>2026-04-05T13:15:13.246Z</time></trkpt><trkpt lat="45.0206984" lon="7.9173168"><ele>287.0</ele><time>2026-04-05T13:15:15.247Z</time></trkpt><trkpt lat="45.0208794" lon="7.917271"><ele>287.0</ele><time>2026-04-05T13:15:18.247Z</time></trkpt><trkpt lat="45.020951" lon="7.917267"><ele>287.0</ele><time>2026-04-05T13:15:19.247Z</time></trkpt><trkpt lat="45.0210571" lon="7.9172042"><ele>287.0</ele><time>2026-04-05T13:15:21.247Z</time></trkpt><trkpt lat="45.0210877" lon="7.9170083"><ele>287.0</ele><time>2026-04-05T13:15:23.247Z</time></trkpt><trkpt lat="45.0210961" lon="7.9168561"><ele>287.0</ele><time>2026-04-05T13:15:24.247Z</time></trkpt><trkpt lat="45.0211242" lon="7.9166612"><ele>287.0</ele><time>2026-04-05T13:15:25.247Z</time></trkpt><trkpt lat="45.0211426" lon="7.916439"><ele>287.6666666666667</ele><time>2026-04-05T13:15:26.247Z</time></trkpt><trkpt lat="45.0211517" lon="7.9162117"><ele>288.3333333333333</ele><time>2026-04-05T13:15:27.247Z</time></trkpt><trkpt lat="45.0211485" lon="7.9160016"><ele>289.0</ele><time>2026-04-05T13:15:28.247Z</time></trkpt><trkpt lat="45.021132" lon="7.9157883"><ele>287.25</ele><time>2026-04-05T13:15:29.247Z</time></trkpt><trkpt lat="45.0211217" lon="7.9155742"><ele>285.5</ele><time>2026-04-05T13:15:30.247Z</time></trkpt><trkpt lat="45.0211119" lon="7.9153838"><ele>283.75</ele><time>2026-04-05T13:15:31.247Z</time></trkpt><trkpt lat="45.0211069" lon="7.9152138"><ele>282.0</ele><time>2026-04-05T13:15:32.247Z</time></trkpt><trkpt lat="45.0211032" lon="7.9150554"><ele>281.75</ele><time>2026-04-05T13:15:33.247Z</time></trkpt><trkpt lat="45.021099" lon="7.9148955"><ele>281.5</ele><time>2026-04-05T13:15:34.247Z</time></trkpt><trkpt lat="45.0211031" lon="7.9147383"><ele>281.25</ele><time>2026-04-05T13:15:35.247Z</time></trkpt><trkpt lat="45.0211061" lon="7.9145826"><ele>281.0</ele><time>2026-04-05T13:15:36.247Z</time></trkpt><trkpt lat="45.0211084" lon="7.9142807"><ele>281.2</ele><time>2026-04-05T13:15:38.247Z</time></trkpt><trkpt lat="45.021123" lon="7.9141322"><ele>281.40000000000003</ele><time>2026-04-05T13:15:39.247Z</time></trkpt><trkpt lat="45.0211456" lon="7.9139851"><ele>281.6</ele><time>2026-04-05T13:15:40.247Z</time></trkpt><trkpt lat="45.0211727" lon="7.9138474"><ele>281.8</ele><time>2026-04-05T13:15:41.247Z</time></trkpt><trkpt lat="45.0212146" lon="7.9137114"><ele>282.0</ele><time>2026-04-05T13:15:42.247Z</time></trkpt><trkpt lat="45.0212733" lon="7.9135772"><ele>282.0</ele><time>2026-04-05T13:15:43.247Z</time></trkpt><trkpt lat="45.0213232" lon="7.9134398"><ele>282.0</ele><time>2026-04-05T13:15:44.247Z</time></trkpt><trkpt lat="45.0213536" lon="7.9132969"><ele>282.0</ele><time>2026-04-05T13:15:45.247Z</time></trkpt><trkpt lat="45.0213624" lon="7.9131502"><ele>282.0</ele><time>2026-04-05T13:15:46.247Z</time></trkpt><trkpt lat="45.0213687" lon="7.9129899"><ele>282.0</ele><time>2026-04-05T13:15:47.247Z</time></trkpt><trkpt lat="45.0213763" lon="7.9128308"><ele>282.0</ele><time>2026-04-05T13:15:48.247Z</time></trkpt><trkpt lat="45.0213966" lon="7.9126741"><ele>282.0</ele><time>2026-04-05T13:15:49.247Z</time></trkpt><trkpt lat="45.0214271" lon="7.9125205"><ele>282.0</ele><time>2026-04-05T13:15:50.247Z</time></trkpt><trkpt lat="45.0214646" lon="7.9123775"><ele>282.0</ele><time>2026-04-05T13:15:51.247Z</time></trkpt><trkpt lat="45.0214965" lon="7.912232"><ele>282.0</ele><time>2026-04-05T13:15:52.247Z</time></trkpt><trkpt lat="45.0215089" lon="7.9120791"><ele>282.25</ele><time>2026-04-05T13:15:53.246Z</time></trkpt><trkpt lat="45.0215073" lon="7.9119171"><ele>282.5</ele><time>2026-04-05T13:15:54.246Z</time></trkpt><trkpt lat="45.0214996" lon="7.9117563"><ele>282.75</ele><time>2026-04-05T13:15:55.247Z</time></trkpt><trkpt lat="45.021491" lon="7.9115816"><ele>283.0</ele><time>2026-04-05T13:15:56.246Z</time></trkpt><trkpt lat="45.0214866" lon="7.9114003"><ele>277.0</ele><time>2026-04-05T13:15:57.247Z</time></trkpt></trkseg></trk></gpx>